<?xml version="1.0" encoding="UTF-8" standalone="no" ?>
<gpx xmlns="http://www.topografix.com/GPX/1/1" xmlns:xsi="http://www.w3.org/2001/XMLSchema-instance" xsi:schemaLocation="http://www.topografix.com/GPX/1/1 http://www.topografix.com/GPX/1/1/gpx.xsd" version="1.1" creator="VisuGPX - https://www.visugpx.com">
  <metadata>
    <name>2017-06-22 Bike ride-Amberieux en Dombes O via Toussieux</name>
    <desc><![CDATA[2017-06-22 Bike ride-Amberieux en Dombes O via Toussieux]]></desc>
  </metadata>
  <wpt lat="45.92438" lon="4.73731">
    <ele>174</ele>
    <name><![CDATA[2017-06-22 09:44 (Start)]]></name>
  </wpt>
  <wpt lat="45.9246" lon="4.73707">
    <ele>174</ele>
    <name><![CDATA[2017-06-22 09:44 (End)]]></name>
    <desc><![CDATA[Created by Google My Tracks on Android  Name: 2017-06-22 09:44 Activity type: biking Description: - Total distance: 41.02 km (25.5 mi) Total time: 2:18:51 Moving time: 2:11:06 Average speed: 17.73 km/h (11.0 mi/h) Average moving speed: 18.78 km/h (11.7 mi/h) Max speed: 50.80 km/h (31.6 mi/h) Average pace: 3:23 min/km (5:27 min/mi) Average moving pace: 3:12 min/km (5:09 min/mi) Fastest pace: 1:11 min/km (1:54 min/mi) Max elevation: 315 m (1035 ft) Min elevation: 159 m (523 ft) Elevation gain: 694 m (2278 ft) Max grade: 18 % Min grade: -65 % Recorded: 22/06/2017 09:44]]></desc>
  </wpt>
  <trk>
    <name><![CDATA[2017-06-22 09:44]]></name>
    <trkseg>
      <trkpt lat="45.92438" lon="4.73731">
        <ele>174</ele>
        <time>2017-06-22T07:44:27.84Z</time>
      </trkpt>
      <trkpt lat="45.92437" lon="4.73734">
        <ele>174</ele>
        <time>2017-06-22T07:44:46Z</time>
      </trkpt>
      <trkpt lat="45.92433" lon="4.73742">
        <ele>174</ele>
        <time>2017-06-22T07:45:00Z</time>
      </trkpt>
      <trkpt lat="45.92448" lon="4.73716">
        <ele>174</ele>
        <time>2017-06-22T07:45:01Z</time>
      </trkpt>
      <trkpt lat="45.92448" lon="4.73716">
        <ele>174</ele>
        <time>2017-06-22T07:45:03Z</time>
      </trkpt>
      <trkpt lat="45.92454" lon="4.73707">
        <ele>174</ele>
        <time>2017-06-22T07:45:04Z</time>
      </trkpt>
      <trkpt lat="45.92455" lon="4.73706">
        <ele>174</ele>
        <time>2017-06-22T07:45:53Z</time>
      </trkpt>
      <trkpt lat="45.92457" lon="4.73711">
        <ele>174</ele>
        <time>2017-06-22T07:45:54Z</time>
      </trkpt>
      <trkpt lat="45.92463" lon="4.73703">
        <ele>174</ele>
        <time>2017-06-22T07:45:59Z</time>
      </trkpt>
      <trkpt lat="45.92464" lon="4.73701">
        <ele>174</ele>
        <time>2017-06-22T07:46:00Z</time>
      </trkpt>
      <trkpt lat="45.92465" lon="4.73691">
        <ele>174</ele>
        <time>2017-06-22T07:46:03Z</time>
      </trkpt>
      <trkpt lat="45.92465" lon="4.73687">
        <ele>174</ele>
        <time>2017-06-22T07:46:04Z</time>
      </trkpt>
      <trkpt lat="45.92466" lon="4.73676">
        <ele>174</ele>
        <time>2017-06-22T07:46:07Z</time>
      </trkpt>
      <trkpt lat="45.92467" lon="4.73673">
        <ele>174</ele>
        <time>2017-06-22T07:46:08Z</time>
      </trkpt>
      <trkpt lat="45.92468" lon="4.73661">
        <ele>174</ele>
        <time>2017-06-22T07:46:11Z</time>
      </trkpt>
      <trkpt lat="45.92468" lon="4.73657">
        <ele>174</ele>
        <time>2017-06-22T07:46:12Z</time>
      </trkpt>
      <trkpt lat="45.92472" lon="4.73647">
        <ele>174</ele>
        <time>2017-06-22T07:46:15Z</time>
      </trkpt>
      <trkpt lat="45.92475" lon="4.73646">
        <ele>174</ele>
        <time>2017-06-22T07:46:16Z</time>
      </trkpt>
      <trkpt lat="45.92483" lon="4.73645">
        <ele>174</ele>
        <time>2017-06-22T07:46:18Z</time>
      </trkpt>
      <trkpt lat="45.92487" lon="4.73646">
        <ele>174</ele>
        <time>2017-06-22T07:46:19Z</time>
      </trkpt>
      <trkpt lat="45.92491" lon="4.73645">
        <ele>174</ele>
        <time>2017-06-22T07:46:20Z</time>
      </trkpt>
      <trkpt lat="45.92496" lon="4.73645">
        <ele>174</ele>
        <time>2017-06-22T07:46:21Z</time>
      </trkpt>
      <trkpt lat="45.92504" lon="4.73645">
        <ele>174</ele>
        <time>2017-06-22T07:46:23Z</time>
      </trkpt>
      <trkpt lat="45.92509" lon="4.73645">
        <ele>174</ele>
        <time>2017-06-22T07:46:24Z</time>
      </trkpt>
      <trkpt lat="45.92514" lon="4.73644">
        <ele>174</ele>
        <time>2017-06-22T07:46:25Z</time>
      </trkpt>
      <trkpt lat="45.92518" lon="4.73644">
        <ele>174</ele>
        <time>2017-06-22T07:46:26Z</time>
      </trkpt>
      <trkpt lat="45.92523" lon="4.73642">
        <ele>173</ele>
        <time>2017-06-22T07:46:27Z</time>
      </trkpt>
      <trkpt lat="45.92527" lon="4.73641">
        <ele>173</ele>
        <time>2017-06-22T07:46:28Z</time>
      </trkpt>
      <trkpt lat="45.92532" lon="4.7364">
        <ele>173</ele>
        <time>2017-06-22T07:46:29Z</time>
      </trkpt>
      <trkpt lat="45.92536" lon="4.73638">
        <ele>173</ele>
        <time>2017-06-22T07:46:30Z</time>
      </trkpt>
      <trkpt lat="45.92544" lon="4.73637">
        <ele>173</ele>
        <time>2017-06-22T07:46:32Z</time>
      </trkpt>
      <trkpt lat="45.92549" lon="4.73637">
        <ele>173</ele>
        <time>2017-06-22T07:46:33Z</time>
      </trkpt>
      <trkpt lat="45.92553" lon="4.73635">
        <ele>173</ele>
        <time>2017-06-22T07:46:34Z</time>
      </trkpt>
      <trkpt lat="45.92558" lon="4.73634">
        <ele>173</ele>
        <time>2017-06-22T07:46:35Z</time>
      </trkpt>
      <trkpt lat="45.92563" lon="4.73633">
        <ele>173</ele>
        <time>2017-06-22T07:46:36Z</time>
      </trkpt>
      <trkpt lat="45.92567" lon="4.73631">
        <ele>173</ele>
        <time>2017-06-22T07:46:37Z</time>
      </trkpt>
      <trkpt lat="45.92572" lon="4.73629">
        <ele>173</ele>
        <time>2017-06-22T07:46:38Z</time>
      </trkpt>
      <trkpt lat="45.92576" lon="4.73628">
        <ele>173</ele>
        <time>2017-06-22T07:46:39Z</time>
      </trkpt>
      <trkpt lat="45.92581" lon="4.73626">
        <ele>173</ele>
        <time>2017-06-22T07:46:40Z</time>
      </trkpt>
      <trkpt lat="45.92585" lon="4.73625">
        <ele>172</ele>
        <time>2017-06-22T07:46:41Z</time>
      </trkpt>
      <trkpt lat="45.9259" lon="4.73625">
        <ele>172</ele>
        <time>2017-06-22T07:46:42Z</time>
      </trkpt>
      <trkpt lat="45.92595" lon="4.73624">
        <ele>173</ele>
        <time>2017-06-22T07:46:43Z</time>
      </trkpt>
      <trkpt lat="45.926" lon="4.73625">
        <ele>173</ele>
        <time>2017-06-22T07:46:44Z</time>
      </trkpt>
      <trkpt lat="45.92604" lon="4.73625">
        <ele>173</ele>
        <time>2017-06-22T07:46:45Z</time>
      </trkpt>
      <trkpt lat="45.92609" lon="4.73627">
        <ele>173</ele>
        <time>2017-06-22T07:46:46Z</time>
      </trkpt>
      <trkpt lat="45.92613" lon="4.73629">
        <ele>173</ele>
        <time>2017-06-22T07:46:47Z</time>
      </trkpt>
      <trkpt lat="45.92617" lon="4.73632">
        <ele>173</ele>
        <time>2017-06-22T07:46:48Z</time>
      </trkpt>
      <trkpt lat="45.9262" lon="4.73639">
        <ele>173</ele>
        <time>2017-06-22T07:46:49Z</time>
      </trkpt>
      <trkpt lat="45.92622" lon="4.73646">
        <ele>173</ele>
        <time>2017-06-22T07:46:50Z</time>
      </trkpt>
      <trkpt lat="45.92625" lon="4.73652">
        <ele>173</ele>
        <time>2017-06-22T07:46:51Z</time>
      </trkpt>
      <trkpt lat="45.92627" lon="4.73659">
        <ele>173</ele>
        <time>2017-06-22T07:46:52Z</time>
      </trkpt>
      <trkpt lat="45.9263" lon="4.73666">
        <ele>173</ele>
        <time>2017-06-22T07:46:53Z</time>
      </trkpt>
      <trkpt lat="45.92633" lon="4.73672">
        <ele>173</ele>
        <time>2017-06-22T07:46:54Z</time>
      </trkpt>
      <trkpt lat="45.92636" lon="4.73678">
        <ele>173</ele>
        <time>2017-06-22T07:46:55Z</time>
      </trkpt>
      <trkpt lat="45.9264" lon="4.73684">
        <ele>173</ele>
        <time>2017-06-22T07:46:56Z</time>
      </trkpt>
      <trkpt lat="45.92644" lon="4.73689">
        <ele>173</ele>
        <time>2017-06-22T07:46:57Z</time>
      </trkpt>
      <trkpt lat="45.92648" lon="4.73695">
        <ele>173</ele>
        <time>2017-06-22T07:46:58Z</time>
      </trkpt>
      <trkpt lat="45.92652" lon="4.737">
        <ele>173</ele>
        <time>2017-06-22T07:46:59Z</time>
      </trkpt>
      <trkpt lat="45.92657" lon="4.73704">
        <ele>173</ele>
        <time>2017-06-22T07:47:00Z</time>
      </trkpt>
      <trkpt lat="45.92661" lon="4.73707">
        <ele>173</ele>
        <time>2017-06-22T07:47:01Z</time>
      </trkpt>
      <trkpt lat="45.92666" lon="4.7371">
        <ele>173</ele>
        <time>2017-06-22T07:47:02Z</time>
      </trkpt>
      <trkpt lat="45.9267" lon="4.73711">
        <ele>174</ele>
        <time>2017-06-22T07:47:03Z</time>
      </trkpt>
      <trkpt lat="45.92674" lon="4.73714">
        <ele>174</ele>
        <time>2017-06-22T07:47:04Z</time>
      </trkpt>
      <trkpt lat="45.92679" lon="4.73715">
        <ele>173</ele>
        <time>2017-06-22T07:47:05Z</time>
      </trkpt>
      <trkpt lat="45.92684" lon="4.73717">
        <ele>173</ele>
        <time>2017-06-22T07:47:06Z</time>
      </trkpt>
      <trkpt lat="45.92689" lon="4.73719">
        <ele>173</ele>
        <time>2017-06-22T07:47:07Z</time>
      </trkpt>
      <trkpt lat="45.92694" lon="4.7372">
        <ele>173</ele>
        <time>2017-06-22T07:47:08Z</time>
      </trkpt>
      <trkpt lat="45.92699" lon="4.73722">
        <ele>173</ele>
        <time>2017-06-22T07:47:09Z</time>
      </trkpt>
      <trkpt lat="45.92705" lon="4.73723">
        <ele>173</ele>
        <time>2017-06-22T07:47:10Z</time>
      </trkpt>
      <trkpt lat="45.9271" lon="4.73725">
        <ele>173</ele>
        <time>2017-06-22T07:47:11Z</time>
      </trkpt>
      <trkpt lat="45.92716" lon="4.73725">
        <ele>173</ele>
        <time>2017-06-22T07:47:12Z</time>
      </trkpt>
      <trkpt lat="45.92721" lon="4.73726">
        <ele>173</ele>
        <time>2017-06-22T07:47:13Z</time>
      </trkpt>
      <trkpt lat="45.92726" lon="4.73727">
        <ele>173</ele>
        <time>2017-06-22T07:47:14Z</time>
      </trkpt>
      <trkpt lat="45.92731" lon="4.73728">
        <ele>173</ele>
        <time>2017-06-22T07:47:15Z</time>
      </trkpt>
      <trkpt lat="45.92736" lon="4.73728">
        <ele>173</ele>
        <time>2017-06-22T07:47:16Z</time>
      </trkpt>
      <trkpt lat="45.9274" lon="4.73729">
        <ele>173</ele>
        <time>2017-06-22T07:47:17Z</time>
      </trkpt>
      <trkpt lat="45.92748" lon="4.73729">
        <ele>173</ele>
        <time>2017-06-22T07:47:19Z</time>
      </trkpt>
      <trkpt lat="45.92752" lon="4.73731">
        <ele>172</ele>
        <time>2017-06-22T07:47:20Z</time>
      </trkpt>
      <trkpt lat="45.9276" lon="4.73732">
        <ele>172</ele>
        <time>2017-06-22T07:47:22Z</time>
      </trkpt>
      <trkpt lat="45.92764" lon="4.73733">
        <ele>172</ele>
        <time>2017-06-22T07:47:23Z</time>
      </trkpt>
      <trkpt lat="45.92771" lon="4.73736">
        <ele>172</ele>
        <time>2017-06-22T07:47:25Z</time>
      </trkpt>
      <trkpt lat="45.92774" lon="4.73739">
        <ele>172</ele>
        <time>2017-06-22T07:47:26Z</time>
      </trkpt>
      <trkpt lat="45.92778" lon="4.73746">
        <ele>172</ele>
        <time>2017-06-22T07:47:28Z</time>
      </trkpt>
      <trkpt lat="45.92779" lon="4.73751">
        <ele>173</ele>
        <time>2017-06-22T07:47:29Z</time>
      </trkpt>
      <trkpt lat="45.92785" lon="4.7376">
        <ele>173</ele>
        <time>2017-06-22T07:47:31Z</time>
      </trkpt>
      <trkpt lat="45.92789" lon="4.73764">
        <ele>173</ele>
        <time>2017-06-22T07:47:32Z</time>
      </trkpt>
      <trkpt lat="45.92793" lon="4.73767">
        <ele>173</ele>
        <time>2017-06-22T07:47:33Z</time>
      </trkpt>
      <trkpt lat="45.92798" lon="4.7377">
        <ele>173</ele>
        <time>2017-06-22T07:47:34Z</time>
      </trkpt>
      <trkpt lat="45.92803" lon="4.73773">
        <ele>173</ele>
        <time>2017-06-22T07:47:35Z</time>
      </trkpt>
      <trkpt lat="45.92807" lon="4.73776">
        <ele>173</ele>
        <time>2017-06-22T07:47:36Z</time>
      </trkpt>
      <trkpt lat="45.92812" lon="4.73779">
        <ele>173</ele>
        <time>2017-06-22T07:47:37Z</time>
      </trkpt>
      <trkpt lat="45.92817" lon="4.73782">
        <ele>173</ele>
        <time>2017-06-22T07:47:38Z</time>
      </trkpt>
      <trkpt lat="45.92822" lon="4.73785">
        <ele>173</ele>
        <time>2017-06-22T07:47:39Z</time>
      </trkpt>
      <trkpt lat="45.92827" lon="4.73789">
        <ele>173</ele>
        <time>2017-06-22T07:47:40Z</time>
      </trkpt>
      <trkpt lat="45.92831" lon="4.73792">
        <ele>173</ele>
        <time>2017-06-22T07:47:41Z</time>
      </trkpt>
      <trkpt lat="45.92836" lon="4.73795">
        <ele>173</ele>
        <time>2017-06-22T07:47:42Z</time>
      </trkpt>
      <trkpt lat="45.9284" lon="4.73798">
        <ele>173</ele>
        <time>2017-06-22T07:47:43Z</time>
      </trkpt>
      <trkpt lat="45.92845" lon="4.73802">
        <ele>173</ele>
        <time>2017-06-22T07:47:44Z</time>
      </trkpt>
      <trkpt lat="45.92849" lon="4.73806">
        <ele>173</ele>
        <time>2017-06-22T07:47:45Z</time>
      </trkpt>
      <trkpt lat="45.92852" lon="4.73812">
        <ele>173</ele>
        <time>2017-06-22T07:47:46Z</time>
      </trkpt>
      <trkpt lat="45.92853" lon="4.73819">
        <ele>173</ele>
        <time>2017-06-22T07:47:47Z</time>
      </trkpt>
      <trkpt lat="45.92855" lon="4.73825">
        <ele>173</ele>
        <time>2017-06-22T07:47:48Z</time>
      </trkpt>
      <trkpt lat="45.92857" lon="4.73832">
        <ele>173</ele>
        <time>2017-06-22T07:47:49Z</time>
      </trkpt>
      <trkpt lat="45.92859" lon="4.73838">
        <ele>173</ele>
        <time>2017-06-22T07:47:50Z</time>
      </trkpt>
      <trkpt lat="45.92862" lon="4.73845">
        <ele>173</ele>
        <time>2017-06-22T07:47:51Z</time>
      </trkpt>
      <trkpt lat="45.92863" lon="4.73852">
        <ele>173</ele>
        <time>2017-06-22T07:47:52Z</time>
      </trkpt>
      <trkpt lat="45.92865" lon="4.73859">
        <ele>173</ele>
        <time>2017-06-22T07:47:53Z</time>
      </trkpt>
      <trkpt lat="45.92867" lon="4.73865">
        <ele>173</ele>
        <time>2017-06-22T07:47:54Z</time>
      </trkpt>
      <trkpt lat="45.92869" lon="4.73873">
        <ele>173</ele>
        <time>2017-06-22T07:47:55Z</time>
      </trkpt>
      <trkpt lat="45.92872" lon="4.73881">
        <ele>173</ele>
        <time>2017-06-22T07:47:56Z</time>
      </trkpt>
      <trkpt lat="45.92874" lon="4.73887">
        <ele>173</ele>
        <time>2017-06-22T07:47:57Z</time>
      </trkpt>
      <trkpt lat="45.92876" lon="4.73895">
        <ele>173</ele>
        <time>2017-06-22T07:47:58Z</time>
      </trkpt>
      <trkpt lat="45.92877" lon="4.73902">
        <ele>173</ele>
        <time>2017-06-22T07:47:59Z</time>
      </trkpt>
      <trkpt lat="45.92878" lon="4.73909">
        <ele>173</ele>
        <time>2017-06-22T07:48:00Z</time>
      </trkpt>
      <trkpt lat="45.92877" lon="4.73916">
        <ele>173</ele>
        <time>2017-06-22T07:48:01Z</time>
      </trkpt>
      <trkpt lat="45.92878" lon="4.73923">
        <ele>172</ele>
        <time>2017-06-22T07:48:02Z</time>
      </trkpt>
      <trkpt lat="45.92878" lon="4.73931">
        <ele>172</ele>
        <time>2017-06-22T07:48:03Z</time>
      </trkpt>
      <trkpt lat="45.92878" lon="4.73938">
        <ele>172</ele>
        <time>2017-06-22T07:48:04Z</time>
      </trkpt>
      <trkpt lat="45.92879" lon="4.73946">
        <ele>172</ele>
        <time>2017-06-22T07:48:05Z</time>
      </trkpt>
      <trkpt lat="45.92879" lon="4.73953">
        <ele>172</ele>
        <time>2017-06-22T07:48:06Z</time>
      </trkpt>
      <trkpt lat="45.92879" lon="4.73961">
        <ele>172</ele>
        <time>2017-06-22T07:48:07Z</time>
      </trkpt>
      <trkpt lat="45.92879" lon="4.73968">
        <ele>172</ele>
        <time>2017-06-22T07:48:08Z</time>
      </trkpt>
      <trkpt lat="45.92878" lon="4.73976">
        <ele>172</ele>
        <time>2017-06-22T07:48:09Z</time>
      </trkpt>
      <trkpt lat="45.92878" lon="4.73983">
        <ele>172</ele>
        <time>2017-06-22T07:48:10Z</time>
      </trkpt>
      <trkpt lat="45.92877" lon="4.7399">
        <ele>172</ele>
        <time>2017-06-22T07:48:11Z</time>
      </trkpt>
      <trkpt lat="45.92875" lon="4.73997">
        <ele>172</ele>
        <time>2017-06-22T07:48:12Z</time>
      </trkpt>
      <trkpt lat="45.92874" lon="4.74005">
        <ele>172</ele>
        <time>2017-06-22T07:48:13Z</time>
      </trkpt>
      <trkpt lat="45.92873" lon="4.74013">
        <ele>172</ele>
        <time>2017-06-22T07:48:14Z</time>
      </trkpt>
      <trkpt lat="45.92872" lon="4.74021">
        <ele>172</ele>
        <time>2017-06-22T07:48:15Z</time>
      </trkpt>
      <trkpt lat="45.9287" lon="4.74029">
        <ele>172</ele>
        <time>2017-06-22T07:48:16Z</time>
      </trkpt>
      <trkpt lat="45.92869" lon="4.74037">
        <ele>172</ele>
        <time>2017-06-22T07:48:17Z</time>
      </trkpt>
      <trkpt lat="45.92866" lon="4.74044">
        <ele>172</ele>
        <time>2017-06-22T07:48:18Z</time>
      </trkpt>
      <trkpt lat="45.92862" lon="4.7405">
        <ele>172</ele>
        <time>2017-06-22T07:48:19Z</time>
      </trkpt>
      <trkpt lat="45.92857" lon="4.74055">
        <ele>172</ele>
        <time>2017-06-22T07:48:20Z</time>
      </trkpt>
      <trkpt lat="45.92853" lon="4.74061">
        <ele>172</ele>
        <time>2017-06-22T07:48:21Z</time>
      </trkpt>
      <trkpt lat="45.92849" lon="4.74066">
        <ele>172</ele>
        <time>2017-06-22T07:48:22Z</time>
      </trkpt>
      <trkpt lat="45.92845" lon="4.74071">
        <ele>172</ele>
        <time>2017-06-22T07:48:23Z</time>
      </trkpt>
      <trkpt lat="45.9284" lon="4.74076">
        <ele>171</ele>
        <time>2017-06-22T07:48:24Z</time>
      </trkpt>
      <trkpt lat="45.92836" lon="4.74082">
        <ele>171</ele>
        <time>2017-06-22T07:48:25Z</time>
      </trkpt>
      <trkpt lat="45.92832" lon="4.74087">
        <ele>171</ele>
        <time>2017-06-22T07:48:26Z</time>
      </trkpt>
      <trkpt lat="45.92827" lon="4.74092">
        <ele>171</ele>
        <time>2017-06-22T07:48:27Z</time>
      </trkpt>
      <trkpt lat="45.92823" lon="4.74097">
        <ele>171</ele>
        <time>2017-06-22T07:48:28Z</time>
      </trkpt>
      <trkpt lat="45.92818" lon="4.74102">
        <ele>171</ele>
        <time>2017-06-22T07:48:29Z</time>
      </trkpt>
      <trkpt lat="45.92814" lon="4.74107">
        <ele>172</ele>
        <time>2017-06-22T07:48:30Z</time>
      </trkpt>
      <trkpt lat="45.9281" lon="4.74113">
        <ele>172</ele>
        <time>2017-06-22T07:48:31Z</time>
      </trkpt>
      <trkpt lat="45.92805" lon="4.74118">
        <ele>172</ele>
        <time>2017-06-22T07:48:32Z</time>
      </trkpt>
      <trkpt lat="45.928" lon="4.74123">
        <ele>172</ele>
        <time>2017-06-22T07:48:33Z</time>
      </trkpt>
      <trkpt lat="45.92796" lon="4.74129">
        <ele>172</ele>
        <time>2017-06-22T07:48:34Z</time>
      </trkpt>
      <trkpt lat="45.92791" lon="4.74134">
        <ele>172</ele>
        <time>2017-06-22T07:48:35Z</time>
      </trkpt>
      <trkpt lat="45.92786" lon="4.7414">
        <ele>172</ele>
        <time>2017-06-22T07:48:36Z</time>
      </trkpt>
      <trkpt lat="45.92781" lon="4.74145">
        <ele>172</ele>
        <time>2017-06-22T07:48:37Z</time>
      </trkpt>
      <trkpt lat="45.92776" lon="4.7415">
        <ele>172</ele>
        <time>2017-06-22T07:48:38Z</time>
      </trkpt>
      <trkpt lat="45.92771" lon="4.74155">
        <ele>172</ele>
        <time>2017-06-22T07:48:39Z</time>
      </trkpt>
      <trkpt lat="45.92766" lon="4.74161">
        <ele>172</ele>
        <time>2017-06-22T07:48:40Z</time>
      </trkpt>
      <trkpt lat="45.92761" lon="4.74166">
        <ele>172</ele>
        <time>2017-06-22T07:48:41Z</time>
      </trkpt>
      <trkpt lat="45.92756" lon="4.74171">
        <ele>172</ele>
        <time>2017-06-22T07:48:42Z</time>
      </trkpt>
      <trkpt lat="45.92752" lon="4.74177">
        <ele>172</ele>
        <time>2017-06-22T07:48:43Z</time>
      </trkpt>
      <trkpt lat="45.92747" lon="4.74182">
        <ele>172</ele>
        <time>2017-06-22T07:48:44Z</time>
      </trkpt>
      <trkpt lat="45.92743" lon="4.74187">
        <ele>172</ele>
        <time>2017-06-22T07:48:45Z</time>
      </trkpt>
      <trkpt lat="45.92738" lon="4.74192">
        <ele>171</ele>
        <time>2017-06-22T07:48:46Z</time>
      </trkpt>
      <trkpt lat="45.92734" lon="4.74198">
        <ele>171</ele>
        <time>2017-06-22T07:48:47Z</time>
      </trkpt>
      <trkpt lat="45.92731" lon="4.74203">
        <ele>171</ele>
        <time>2017-06-22T07:48:48Z</time>
      </trkpt>
      <trkpt lat="45.92727" lon="4.74209">
        <ele>171</ele>
        <time>2017-06-22T07:48:49Z</time>
      </trkpt>
      <trkpt lat="45.92723" lon="4.74214">
        <ele>171</ele>
        <time>2017-06-22T07:48:50Z</time>
      </trkpt>
      <trkpt lat="45.92718" lon="4.7422">
        <ele>171</ele>
        <time>2017-06-22T07:48:51Z</time>
      </trkpt>
      <trkpt lat="45.92714" lon="4.74226">
        <ele>171</ele>
        <time>2017-06-22T07:48:52Z</time>
      </trkpt>
      <trkpt lat="45.9271" lon="4.74232">
        <ele>171</ele>
        <time>2017-06-22T07:48:53Z</time>
      </trkpt>
      <trkpt lat="45.92706" lon="4.74238">
        <ele>171</ele>
        <time>2017-06-22T07:48:54Z</time>
      </trkpt>
      <trkpt lat="45.92702" lon="4.74244">
        <ele>171</ele>
        <time>2017-06-22T07:48:55Z</time>
      </trkpt>
      <trkpt lat="45.92699" lon="4.74251">
        <ele>171</ele>
        <time>2017-06-22T07:48:56Z</time>
      </trkpt>
      <trkpt lat="45.92695" lon="4.74257">
        <ele>171</ele>
        <time>2017-06-22T07:48:57Z</time>
      </trkpt>
      <trkpt lat="45.92691" lon="4.74263">
        <ele>171</ele>
        <time>2017-06-22T07:48:58Z</time>
      </trkpt>
      <trkpt lat="45.92687" lon="4.7427">
        <ele>171</ele>
        <time>2017-06-22T07:48:59Z</time>
      </trkpt>
      <trkpt lat="45.92683" lon="4.74277">
        <ele>171</ele>
        <time>2017-06-22T07:49:00Z</time>
      </trkpt>
      <trkpt lat="45.9268" lon="4.74284">
        <ele>171</ele>
        <time>2017-06-22T07:49:01Z</time>
      </trkpt>
      <trkpt lat="45.92676" lon="4.74291">
        <ele>171</ele>
        <time>2017-06-22T07:49:02Z</time>
      </trkpt>
      <trkpt lat="45.92673" lon="4.74297">
        <ele>171</ele>
        <time>2017-06-22T07:49:03Z</time>
      </trkpt>
      <trkpt lat="45.92669" lon="4.74303">
        <ele>171</ele>
        <time>2017-06-22T07:49:04Z</time>
      </trkpt>
      <trkpt lat="45.92666" lon="4.74309">
        <ele>171</ele>
        <time>2017-06-22T07:49:05Z</time>
      </trkpt>
      <trkpt lat="45.92663" lon="4.74316">
        <ele>171</ele>
        <time>2017-06-22T07:49:06Z</time>
      </trkpt>
      <trkpt lat="45.92659" lon="4.74322">
        <ele>171</ele>
        <time>2017-06-22T07:49:07Z</time>
      </trkpt>
      <trkpt lat="45.92656" lon="4.74328">
        <ele>171</ele>
        <time>2017-06-22T07:49:08Z</time>
      </trkpt>
      <trkpt lat="45.92653" lon="4.74334">
        <ele>171</ele>
        <time>2017-06-22T07:49:09Z</time>
      </trkpt>
      <trkpt lat="45.92649" lon="4.74341">
        <ele>171</ele>
        <time>2017-06-22T07:49:10Z</time>
      </trkpt>
      <trkpt lat="45.92645" lon="4.74347">
        <ele>171</ele>
        <time>2017-06-22T07:49:11Z</time>
      </trkpt>
      <trkpt lat="45.92642" lon="4.74354">
        <ele>171</ele>
        <time>2017-06-22T07:49:12Z</time>
      </trkpt>
      <trkpt lat="45.92638" lon="4.74361">
        <ele>171</ele>
        <time>2017-06-22T07:49:13Z</time>
      </trkpt>
      <trkpt lat="45.92634" lon="4.74368">
        <ele>171</ele>
        <time>2017-06-22T07:49:14Z</time>
      </trkpt>
      <trkpt lat="45.92631" lon="4.74374">
        <ele>171</ele>
        <time>2017-06-22T07:49:15Z</time>
      </trkpt>
      <trkpt lat="45.92627" lon="4.74382">
        <ele>170</ele>
        <time>2017-06-22T07:49:16Z</time>
      </trkpt>
      <trkpt lat="45.92623" lon="4.74389">
        <ele>170</ele>
        <time>2017-06-22T07:49:17Z</time>
      </trkpt>
      <trkpt lat="45.92619" lon="4.74396">
        <ele>170</ele>
        <time>2017-06-22T07:49:18Z</time>
      </trkpt>
      <trkpt lat="45.92616" lon="4.74403">
        <ele>170</ele>
        <time>2017-06-22T07:49:19Z</time>
      </trkpt>
      <trkpt lat="45.92612" lon="4.7441">
        <ele>170</ele>
        <time>2017-06-22T07:49:20Z</time>
      </trkpt>
      <trkpt lat="45.92608" lon="4.74417">
        <ele>170</ele>
        <time>2017-06-22T07:49:21Z</time>
      </trkpt>
      <trkpt lat="45.92604" lon="4.74424">
        <ele>170</ele>
        <time>2017-06-22T07:49:22Z</time>
      </trkpt>
      <trkpt lat="45.926" lon="4.74431">
        <ele>170</ele>
        <time>2017-06-22T07:49:23Z</time>
      </trkpt>
      <trkpt lat="45.92596" lon="4.74438">
        <ele>170</ele>
        <time>2017-06-22T07:49:24Z</time>
      </trkpt>
      <trkpt lat="45.92592" lon="4.74445">
        <ele>170</ele>
        <time>2017-06-22T07:49:25Z</time>
      </trkpt>
      <trkpt lat="45.92588" lon="4.74452">
        <ele>170</ele>
        <time>2017-06-22T07:49:26Z</time>
      </trkpt>
      <trkpt lat="45.92584" lon="4.74459">
        <ele>170</ele>
        <time>2017-06-22T07:49:27Z</time>
      </trkpt>
      <trkpt lat="45.9258" lon="4.74466">
        <ele>170</ele>
        <time>2017-06-22T07:49:28Z</time>
      </trkpt>
      <trkpt lat="45.92577" lon="4.74473">
        <ele>170</ele>
        <time>2017-06-22T07:49:29Z</time>
      </trkpt>
      <trkpt lat="45.92573" lon="4.7448">
        <ele>170</ele>
        <time>2017-06-22T07:49:30Z</time>
      </trkpt>
      <trkpt lat="45.92569" lon="4.74486">
        <ele>170</ele>
        <time>2017-06-22T07:49:31Z</time>
      </trkpt>
      <trkpt lat="45.92566" lon="4.74493">
        <ele>170</ele>
        <time>2017-06-22T07:49:32Z</time>
      </trkpt>
      <trkpt lat="45.92562" lon="4.745">
        <ele>170</ele>
        <time>2017-06-22T07:49:33Z</time>
      </trkpt>
      <trkpt lat="45.92558" lon="4.74507">
        <ele>170</ele>
        <time>2017-06-22T07:49:34Z</time>
      </trkpt>
      <trkpt lat="45.92554" lon="4.74514">
        <ele>170</ele>
        <time>2017-06-22T07:49:35Z</time>
      </trkpt>
      <trkpt lat="45.9255" lon="4.74521">
        <ele>170</ele>
        <time>2017-06-22T07:49:36Z</time>
      </trkpt>
      <trkpt lat="45.92546" lon="4.74528">
        <ele>170</ele>
        <time>2017-06-22T07:49:37Z</time>
      </trkpt>
      <trkpt lat="45.92542" lon="4.74535">
        <ele>170</ele>
        <time>2017-06-22T07:49:38Z</time>
      </trkpt>
      <trkpt lat="45.92538" lon="4.74542">
        <ele>171</ele>
        <time>2017-06-22T07:49:39Z</time>
      </trkpt>
      <trkpt lat="45.92534" lon="4.74549">
        <ele>171</ele>
        <time>2017-06-22T07:49:40Z</time>
      </trkpt>
      <trkpt lat="45.9253" lon="4.74555">
        <ele>171</ele>
        <time>2017-06-22T07:49:41Z</time>
      </trkpt>
      <trkpt lat="45.92526" lon="4.74561">
        <ele>171</ele>
        <time>2017-06-22T07:49:42Z</time>
      </trkpt>
      <trkpt lat="45.92521" lon="4.74567">
        <ele>171</ele>
        <time>2017-06-22T07:49:43Z</time>
      </trkpt>
      <trkpt lat="45.92517" lon="4.74572">
        <ele>171</ele>
        <time>2017-06-22T07:49:44Z</time>
      </trkpt>
      <trkpt lat="45.92513" lon="4.74578">
        <ele>171</ele>
        <time>2017-06-22T07:49:45Z</time>
      </trkpt>
      <trkpt lat="45.92508" lon="4.74583">
        <ele>171</ele>
        <time>2017-06-22T07:49:46Z</time>
      </trkpt>
      <trkpt lat="45.92504" lon="4.74588">
        <ele>171</ele>
        <time>2017-06-22T07:49:47Z</time>
      </trkpt>
      <trkpt lat="45.92499" lon="4.74594">
        <ele>171</ele>
        <time>2017-06-22T07:49:48Z</time>
      </trkpt>
      <trkpt lat="45.92494" lon="4.74599">
        <ele>171</ele>
        <time>2017-06-22T07:49:49Z</time>
      </trkpt>
      <trkpt lat="45.9249" lon="4.74604">
        <ele>171</ele>
        <time>2017-06-22T07:49:50Z</time>
      </trkpt>
      <trkpt lat="45.92485" lon="4.7461">
        <ele>171</ele>
        <time>2017-06-22T07:49:51Z</time>
      </trkpt>
      <trkpt lat="45.92481" lon="4.74616">
        <ele>171</ele>
        <time>2017-06-22T07:49:52Z</time>
      </trkpt>
      <trkpt lat="45.92476" lon="4.74622">
        <ele>171</ele>
        <time>2017-06-22T07:49:53Z</time>
      </trkpt>
      <trkpt lat="45.92472" lon="4.74628">
        <ele>171</ele>
        <time>2017-06-22T07:49:54Z</time>
      </trkpt>
      <trkpt lat="45.92468" lon="4.74635">
        <ele>171</ele>
        <time>2017-06-22T07:49:55Z</time>
      </trkpt>
      <trkpt lat="45.92464" lon="4.74641">
        <ele>171</ele>
        <time>2017-06-22T07:49:56Z</time>
      </trkpt>
      <trkpt lat="45.9246" lon="4.74648">
        <ele>171</ele>
        <time>2017-06-22T07:49:57Z</time>
      </trkpt>
      <trkpt lat="45.92456" lon="4.74654">
        <ele>171</ele>
        <time>2017-06-22T07:49:58Z</time>
      </trkpt>
      <trkpt lat="45.92453" lon="4.7466">
        <ele>171</ele>
        <time>2017-06-22T07:49:59Z</time>
      </trkpt>
      <trkpt lat="45.92449" lon="4.74666">
        <ele>171</ele>
        <time>2017-06-22T07:50:00Z</time>
      </trkpt>
      <trkpt lat="45.92446" lon="4.74673">
        <ele>171</ele>
        <time>2017-06-22T07:50:01Z</time>
      </trkpt>
      <trkpt lat="45.92443" lon="4.74679">
        <ele>171</ele>
        <time>2017-06-22T07:50:02Z</time>
      </trkpt>
      <trkpt lat="45.9244" lon="4.74686">
        <ele>171</ele>
        <time>2017-06-22T07:50:03Z</time>
      </trkpt>
      <trkpt lat="45.92436" lon="4.74692">
        <ele>171</ele>
        <time>2017-06-22T07:50:04Z</time>
      </trkpt>
      <trkpt lat="45.92433" lon="4.74699">
        <ele>171</ele>
        <time>2017-06-22T07:50:05Z</time>
      </trkpt>
      <trkpt lat="45.9243" lon="4.74706">
        <ele>171</ele>
        <time>2017-06-22T07:50:06Z</time>
      </trkpt>
      <trkpt lat="45.92427" lon="4.74714">
        <ele>171</ele>
        <time>2017-06-22T07:50:07Z</time>
      </trkpt>
      <trkpt lat="45.92424" lon="4.74722">
        <ele>171</ele>
        <time>2017-06-22T07:50:08Z</time>
      </trkpt>
      <trkpt lat="45.92421" lon="4.7473">
        <ele>171</ele>
        <time>2017-06-22T07:50:09Z</time>
      </trkpt>
      <trkpt lat="45.92418" lon="4.74738">
        <ele>172</ele>
        <time>2017-06-22T07:50:10Z</time>
      </trkpt>
      <trkpt lat="45.92416" lon="4.74746">
        <ele>172</ele>
        <time>2017-06-22T07:50:11Z</time>
      </trkpt>
      <trkpt lat="45.92414" lon="4.74754">
        <ele>172</ele>
        <time>2017-06-22T07:50:12Z</time>
      </trkpt>
      <trkpt lat="45.92411" lon="4.74763">
        <ele>172</ele>
        <time>2017-06-22T07:50:13Z</time>
      </trkpt>
      <trkpt lat="45.92409" lon="4.74771">
        <ele>172</ele>
        <time>2017-06-22T07:50:14Z</time>
      </trkpt>
      <trkpt lat="45.92407" lon="4.7478">
        <ele>171</ele>
        <time>2017-06-22T07:50:15Z</time>
      </trkpt>
      <trkpt lat="45.92405" lon="4.74788">
        <ele>171</ele>
        <time>2017-06-22T07:50:16Z</time>
      </trkpt>
      <trkpt lat="45.92404" lon="4.74797">
        <ele>171</ele>
        <time>2017-06-22T07:50:17Z</time>
      </trkpt>
      <trkpt lat="45.92402" lon="4.74806">
        <ele>171</ele>
        <time>2017-06-22T07:50:18Z</time>
      </trkpt>
      <trkpt lat="45.924" lon="4.74815">
        <ele>171</ele>
        <time>2017-06-22T07:50:19Z</time>
      </trkpt>
      <trkpt lat="45.92399" lon="4.74824">
        <ele>171</ele>
        <time>2017-06-22T07:50:20Z</time>
      </trkpt>
      <trkpt lat="45.92397" lon="4.74833">
        <ele>171</ele>
        <time>2017-06-22T07:50:21Z</time>
      </trkpt>
      <trkpt lat="45.92394" lon="4.74842">
        <ele>171</ele>
        <time>2017-06-22T07:50:22Z</time>
      </trkpt>
      <trkpt lat="45.92392" lon="4.7485">
        <ele>171</ele>
        <time>2017-06-22T07:50:23Z</time>
      </trkpt>
      <trkpt lat="45.92389" lon="4.74859">
        <ele>171</ele>
        <time>2017-06-22T07:50:24Z</time>
      </trkpt>
      <trkpt lat="45.92386" lon="4.74867">
        <ele>171</ele>
        <time>2017-06-22T07:50:25Z</time>
      </trkpt>
      <trkpt lat="45.92383" lon="4.74876">
        <ele>171</ele>
        <time>2017-06-22T07:50:26Z</time>
      </trkpt>
      <trkpt lat="45.9238" lon="4.74884">
        <ele>171</ele>
        <time>2017-06-22T07:50:27Z</time>
      </trkpt>
      <trkpt lat="45.92377" lon="4.74892">
        <ele>171</ele>
        <time>2017-06-22T07:50:28Z</time>
      </trkpt>
      <trkpt lat="45.92374" lon="4.749">
        <ele>171</ele>
        <time>2017-06-22T07:50:29Z</time>
      </trkpt>
      <trkpt lat="45.92371" lon="4.74908">
        <ele>171</ele>
        <time>2017-06-22T07:50:30Z</time>
      </trkpt>
      <trkpt lat="45.92368" lon="4.74916">
        <ele>171</ele>
        <time>2017-06-22T07:50:31Z</time>
      </trkpt>
      <trkpt lat="45.92365" lon="4.74923">
        <ele>170</ele>
        <time>2017-06-22T07:50:32Z</time>
      </trkpt>
      <trkpt lat="45.92362" lon="4.74931">
        <ele>170</ele>
        <time>2017-06-22T07:50:33Z</time>
      </trkpt>
      <trkpt lat="45.92359" lon="4.74939">
        <ele>170</ele>
        <time>2017-06-22T07:50:34Z</time>
      </trkpt>
      <trkpt lat="45.92356" lon="4.74947">
        <ele>170</ele>
        <time>2017-06-22T07:50:35Z</time>
      </trkpt>
      <trkpt lat="45.92352" lon="4.74954">
        <ele>170</ele>
        <time>2017-06-22T07:50:36Z</time>
      </trkpt>
      <trkpt lat="45.92349" lon="4.74962">
        <ele>170</ele>
        <time>2017-06-22T07:50:37Z</time>
      </trkpt>
      <trkpt lat="45.92346" lon="4.7497">
        <ele>170</ele>
        <time>2017-06-22T07:50:38Z</time>
      </trkpt>
      <trkpt lat="45.92343" lon="4.74978">
        <ele>170</ele>
        <time>2017-06-22T07:50:39Z</time>
      </trkpt>
      <trkpt lat="45.9234" lon="4.74986">
        <ele>170</ele>
        <time>2017-06-22T07:50:40Z</time>
      </trkpt>
      <trkpt lat="45.92337" lon="4.74993">
        <ele>170</ele>
        <time>2017-06-22T07:50:41Z</time>
      </trkpt>
      <trkpt lat="45.92334" lon="4.75">
        <ele>170</ele>
        <time>2017-06-22T07:50:42Z</time>
      </trkpt>
      <trkpt lat="45.92331" lon="4.75007">
        <ele>170</ele>
        <time>2017-06-22T07:50:43Z</time>
      </trkpt>
      <trkpt lat="45.92328" lon="4.75014">
        <ele>171</ele>
        <time>2017-06-22T07:50:44Z</time>
      </trkpt>
      <trkpt lat="45.92325" lon="4.75021">
        <ele>171</ele>
        <time>2017-06-22T07:50:45Z</time>
      </trkpt>
      <trkpt lat="45.92321" lon="4.75027">
        <ele>171</ele>
        <time>2017-06-22T07:50:46Z</time>
      </trkpt>
      <trkpt lat="45.92318" lon="4.75033">
        <ele>171</ele>
        <time>2017-06-22T07:50:47Z</time>
      </trkpt>
      <trkpt lat="45.92314" lon="4.75039">
        <ele>172</ele>
        <time>2017-06-22T07:50:48Z</time>
      </trkpt>
      <trkpt lat="45.92311" lon="4.75045">
        <ele>172</ele>
        <time>2017-06-22T07:50:49Z</time>
      </trkpt>
      <trkpt lat="45.92307" lon="4.75051">
        <ele>172</ele>
        <time>2017-06-22T07:50:50Z</time>
      </trkpt>
      <trkpt lat="45.92303" lon="4.75057">
        <ele>172</ele>
        <time>2017-06-22T07:50:51Z</time>
      </trkpt>
      <trkpt lat="45.92299" lon="4.75063">
        <ele>172</ele>
        <time>2017-06-22T07:50:52Z</time>
      </trkpt>
      <trkpt lat="45.92295" lon="4.75069">
        <ele>172</ele>
        <time>2017-06-22T07:50:53Z</time>
      </trkpt>
      <trkpt lat="45.9229" lon="4.75074">
        <ele>172</ele>
        <time>2017-06-22T07:50:54Z</time>
      </trkpt>
      <trkpt lat="45.92286" lon="4.75079">
        <ele>172</ele>
        <time>2017-06-22T07:50:55Z</time>
      </trkpt>
      <trkpt lat="45.92282" lon="4.75084">
        <ele>173</ele>
        <time>2017-06-22T07:50:56Z</time>
      </trkpt>
      <trkpt lat="45.92277" lon="4.75089">
        <ele>173</ele>
        <time>2017-06-22T07:50:57Z</time>
      </trkpt>
      <trkpt lat="45.92272" lon="4.75094">
        <ele>173</ele>
        <time>2017-06-22T07:50:58Z</time>
      </trkpt>
      <trkpt lat="45.92268" lon="4.75099">
        <ele>173</ele>
        <time>2017-06-22T07:50:59Z</time>
      </trkpt>
      <trkpt lat="45.92263" lon="4.75104">
        <ele>173</ele>
        <time>2017-06-22T07:51:00Z</time>
      </trkpt>
      <trkpt lat="45.92259" lon="4.75109">
        <ele>174</ele>
        <time>2017-06-22T07:51:01Z</time>
      </trkpt>
      <trkpt lat="45.92254" lon="4.75113">
        <ele>174</ele>
        <time>2017-06-22T07:51:02Z</time>
      </trkpt>
      <trkpt lat="45.9225" lon="4.75118">
        <ele>174</ele>
        <time>2017-06-22T07:51:03Z</time>
      </trkpt>
      <trkpt lat="45.92245" lon="4.75123">
        <ele>174</ele>
        <time>2017-06-22T07:51:04Z</time>
      </trkpt>
      <trkpt lat="45.92241" lon="4.75129">
        <ele>174</ele>
        <time>2017-06-22T07:51:05Z</time>
      </trkpt>
      <trkpt lat="45.92237" lon="4.75134">
        <ele>174</ele>
        <time>2017-06-22T07:51:06Z</time>
      </trkpt>
      <trkpt lat="45.92234" lon="4.7514">
        <ele>174</ele>
        <time>2017-06-22T07:51:07Z</time>
      </trkpt>
      <trkpt lat="45.9223" lon="4.75146">
        <ele>174</ele>
        <time>2017-06-22T07:51:08Z</time>
      </trkpt>
      <trkpt lat="45.92227" lon="4.75152">
        <ele>174</ele>
        <time>2017-06-22T07:51:09Z</time>
      </trkpt>
      <trkpt lat="45.92224" lon="4.75159">
        <ele>174</ele>
        <time>2017-06-22T07:51:10Z</time>
      </trkpt>
      <trkpt lat="45.92221" lon="4.75165">
        <ele>174</ele>
        <time>2017-06-22T07:51:11Z</time>
      </trkpt>
      <trkpt lat="45.92218" lon="4.75173">
        <ele>175</ele>
        <time>2017-06-22T07:51:12Z</time>
      </trkpt>
      <trkpt lat="45.92216" lon="4.7518">
        <ele>175</ele>
        <time>2017-06-22T07:51:13Z</time>
      </trkpt>
      <trkpt lat="45.92214" lon="4.75187">
        <ele>175</ele>
        <time>2017-06-22T07:51:14Z</time>
      </trkpt>
      <trkpt lat="45.92212" lon="4.75195">
        <ele>175</ele>
        <time>2017-06-22T07:51:15Z</time>
      </trkpt>
      <trkpt lat="45.92211" lon="4.75203">
        <ele>175</ele>
        <time>2017-06-22T07:51:16Z</time>
      </trkpt>
      <trkpt lat="45.9221" lon="4.75211">
        <ele>175</ele>
        <time>2017-06-22T07:51:17Z</time>
      </trkpt>
      <trkpt lat="45.92209" lon="4.75218">
        <ele>175</ele>
        <time>2017-06-22T07:51:18Z</time>
      </trkpt>
      <trkpt lat="45.92209" lon="4.75226">
        <ele>175</ele>
        <time>2017-06-22T07:51:19Z</time>
      </trkpt>
      <trkpt lat="45.92208" lon="4.75233">
        <ele>175</ele>
        <time>2017-06-22T07:51:20Z</time>
      </trkpt>
      <trkpt lat="45.92208" lon="4.75241">
        <ele>175</ele>
        <time>2017-06-22T07:51:21Z</time>
      </trkpt>
      <trkpt lat="45.92208" lon="4.75249">
        <ele>175</ele>
        <time>2017-06-22T07:51:22Z</time>
      </trkpt>
      <trkpt lat="45.92208" lon="4.75257">
        <ele>175</ele>
        <time>2017-06-22T07:51:23Z</time>
      </trkpt>
      <trkpt lat="45.92207" lon="4.75264">
        <ele>176</ele>
        <time>2017-06-22T07:51:24Z</time>
      </trkpt>
      <trkpt lat="45.92207" lon="4.75272">
        <ele>176</ele>
        <time>2017-06-22T07:51:25Z</time>
      </trkpt>
      <trkpt lat="45.92206" lon="4.75278">
        <ele>176</ele>
        <time>2017-06-22T07:51:26Z</time>
      </trkpt>
      <trkpt lat="45.92206" lon="4.75286">
        <ele>176</ele>
        <time>2017-06-22T07:51:27Z</time>
      </trkpt>
      <trkpt lat="45.92206" lon="4.75293">
        <ele>176</ele>
        <time>2017-06-22T07:51:28Z</time>
      </trkpt>
      <trkpt lat="45.92205" lon="4.753">
        <ele>176</ele>
        <time>2017-06-22T07:51:29Z</time>
      </trkpt>
      <trkpt lat="45.92205" lon="4.75307">
        <ele>176</ele>
        <time>2017-06-22T07:51:30Z</time>
      </trkpt>
      <trkpt lat="45.92204" lon="4.75313">
        <ele>176</ele>
        <time>2017-06-22T07:51:31Z</time>
      </trkpt>
      <trkpt lat="45.92204" lon="4.7532">
        <ele>176</ele>
        <time>2017-06-22T07:51:32Z</time>
      </trkpt>
      <trkpt lat="45.92202" lon="4.75332">
        <ele>176</ele>
        <time>2017-06-22T07:51:34Z</time>
      </trkpt>
      <trkpt lat="45.92201" lon="4.75338">
        <ele>177</ele>
        <time>2017-06-22T07:51:35Z</time>
      </trkpt>
      <trkpt lat="45.922" lon="4.75344">
        <ele>177</ele>
        <time>2017-06-22T07:51:36Z</time>
      </trkpt>
      <trkpt lat="45.92198" lon="4.7535">
        <ele>177</ele>
        <time>2017-06-22T07:51:37Z</time>
      </trkpt>
      <trkpt lat="45.92196" lon="4.75356">
        <ele>177</ele>
        <time>2017-06-22T07:51:38Z</time>
      </trkpt>
      <trkpt lat="45.92194" lon="4.75362">
        <ele>177</ele>
        <time>2017-06-22T07:51:39Z</time>
      </trkpt>
      <trkpt lat="45.92192" lon="4.75367">
        <ele>177</ele>
        <time>2017-06-22T07:51:40Z</time>
      </trkpt>
      <trkpt lat="45.9219" lon="4.75374">
        <ele>177</ele>
        <time>2017-06-22T07:51:41Z</time>
      </trkpt>
      <trkpt lat="45.92187" lon="4.7538">
        <ele>177</ele>
        <time>2017-06-22T07:51:42Z</time>
      </trkpt>
      <trkpt lat="45.92185" lon="4.75385">
        <ele>177</ele>
        <time>2017-06-22T07:51:43Z</time>
      </trkpt>
      <trkpt lat="45.92183" lon="4.75392">
        <ele>177</ele>
        <time>2017-06-22T07:51:44Z</time>
      </trkpt>
      <trkpt lat="45.92181" lon="4.75398">
        <ele>177</ele>
        <time>2017-06-22T07:51:45Z</time>
      </trkpt>
      <trkpt lat="45.92178" lon="4.75404">
        <ele>177</ele>
        <time>2017-06-22T07:51:46Z</time>
      </trkpt>
      <trkpt lat="45.92176" lon="4.7541">
        <ele>177</ele>
        <time>2017-06-22T07:51:47Z</time>
      </trkpt>
      <trkpt lat="45.92174" lon="4.75415">
        <ele>178</ele>
        <time>2017-06-22T07:51:48Z</time>
      </trkpt>
      <trkpt lat="45.92171" lon="4.75421">
        <ele>177</ele>
        <time>2017-06-22T07:51:49Z</time>
      </trkpt>
      <trkpt lat="45.92169" lon="4.75428">
        <ele>177</ele>
        <time>2017-06-22T07:51:50Z</time>
      </trkpt>
      <trkpt lat="45.92167" lon="4.75434">
        <ele>177</ele>
        <time>2017-06-22T07:51:51Z</time>
      </trkpt>
      <trkpt lat="45.92164" lon="4.75441">
        <ele>177</ele>
        <time>2017-06-22T07:51:52Z</time>
      </trkpt>
      <trkpt lat="45.92162" lon="4.75447">
        <ele>176</ele>
        <time>2017-06-22T07:51:53Z</time>
      </trkpt>
      <trkpt lat="45.92159" lon="4.75454">
        <ele>176</ele>
        <time>2017-06-22T07:51:54Z</time>
      </trkpt>
      <trkpt lat="45.92156" lon="4.75461">
        <ele>176</ele>
        <time>2017-06-22T07:51:55Z</time>
      </trkpt>
      <trkpt lat="45.92154" lon="4.75467">
        <ele>176</ele>
        <time>2017-06-22T07:51:56Z</time>
      </trkpt>
      <trkpt lat="45.92151" lon="4.75474">
        <ele>176</ele>
        <time>2017-06-22T07:51:57Z</time>
      </trkpt>
      <trkpt lat="45.92148" lon="4.7548">
        <ele>176</ele>
        <time>2017-06-22T07:51:58Z</time>
      </trkpt>
      <trkpt lat="45.92146" lon="4.75487">
        <ele>176</ele>
        <time>2017-06-22T07:51:59Z</time>
      </trkpt>
      <trkpt lat="45.92143" lon="4.75494">
        <ele>176</ele>
        <time>2017-06-22T07:52:00Z</time>
      </trkpt>
      <trkpt lat="45.9214" lon="4.75501">
        <ele>174</ele>
        <time>2017-06-22T07:52:01Z</time>
      </trkpt>
      <trkpt lat="45.92137" lon="4.75508">
        <ele>174</ele>
        <time>2017-06-22T07:52:02Z</time>
      </trkpt>
      <trkpt lat="45.92133" lon="4.75515">
        <ele>174</ele>
        <time>2017-06-22T07:52:03Z</time>
      </trkpt>
      <trkpt lat="45.9213" lon="4.75521">
        <ele>174</ele>
        <time>2017-06-22T07:52:04Z</time>
      </trkpt>
      <trkpt lat="45.92126" lon="4.75528">
        <ele>174</ele>
        <time>2017-06-22T07:52:05Z</time>
      </trkpt>
      <trkpt lat="45.92123" lon="4.75534">
        <ele>174</ele>
        <time>2017-06-22T07:52:06Z</time>
      </trkpt>
      <trkpt lat="45.9212" lon="4.7554">
        <ele>174</ele>
        <time>2017-06-22T07:52:07Z</time>
      </trkpt>
      <trkpt lat="45.92117" lon="4.75547">
        <ele>174</ele>
        <time>2017-06-22T07:52:08Z</time>
      </trkpt>
      <trkpt lat="45.92114" lon="4.75554">
        <ele>174</ele>
        <time>2017-06-22T07:52:09Z</time>
      </trkpt>
      <trkpt lat="45.92112" lon="4.75561">
        <ele>174</ele>
        <time>2017-06-22T07:52:10Z</time>
      </trkpt>
      <trkpt lat="45.92109" lon="4.75567">
        <ele>174</ele>
        <time>2017-06-22T07:52:11Z</time>
      </trkpt>
      <trkpt lat="45.92108" lon="4.75575">
        <ele>174</ele>
        <time>2017-06-22T07:52:12Z</time>
      </trkpt>
      <trkpt lat="45.92108" lon="4.75582">
        <ele>174</ele>
        <time>2017-06-22T07:52:13Z</time>
      </trkpt>
      <trkpt lat="45.9211" lon="4.75589">
        <ele>174</ele>
        <time>2017-06-22T07:52:14Z</time>
      </trkpt>
      <trkpt lat="45.92113" lon="4.75594">
        <ele>174</ele>
        <time>2017-06-22T07:52:15Z</time>
      </trkpt>
      <trkpt lat="45.92117" lon="4.756">
        <ele>174</ele>
        <time>2017-06-22T07:52:16Z</time>
      </trkpt>
      <trkpt lat="45.92121" lon="4.75604">
        <ele>174</ele>
        <time>2017-06-22T07:52:17Z</time>
      </trkpt>
      <trkpt lat="45.92125" lon="4.75608">
        <ele>174</ele>
        <time>2017-06-22T07:52:18Z</time>
      </trkpt>
      <trkpt lat="45.9213" lon="4.75612">
        <ele>174</ele>
        <time>2017-06-22T07:52:19Z</time>
      </trkpt>
      <trkpt lat="45.92134" lon="4.75616">
        <ele>174</ele>
        <time>2017-06-22T07:52:20Z</time>
      </trkpt>
      <trkpt lat="45.92138" lon="4.7562">
        <ele>174</ele>
        <time>2017-06-22T07:52:21Z</time>
      </trkpt>
      <trkpt lat="45.92142" lon="4.75624">
        <ele>174</ele>
        <time>2017-06-22T07:52:22Z</time>
      </trkpt>
      <trkpt lat="45.92146" lon="4.75627">
        <ele>174</ele>
        <time>2017-06-22T07:52:23Z</time>
      </trkpt>
      <trkpt lat="45.92151" lon="4.75631">
        <ele>174</ele>
        <time>2017-06-22T07:52:24Z</time>
      </trkpt>
      <trkpt lat="45.92155" lon="4.75636">
        <ele>174</ele>
        <time>2017-06-22T07:52:25Z</time>
      </trkpt>
      <trkpt lat="45.92159" lon="4.7564">
        <ele>174</ele>
        <time>2017-06-22T07:52:26Z</time>
      </trkpt>
      <trkpt lat="45.92164" lon="4.75644">
        <ele>174</ele>
        <time>2017-06-22T07:52:27Z</time>
      </trkpt>
      <trkpt lat="45.92168" lon="4.75649">
        <ele>174</ele>
        <time>2017-06-22T07:52:28Z</time>
      </trkpt>
      <trkpt lat="45.92173" lon="4.75653">
        <ele>174</ele>
        <time>2017-06-22T07:52:29Z</time>
      </trkpt>
      <trkpt lat="45.92177" lon="4.75657">
        <ele>174</ele>
        <time>2017-06-22T07:52:30Z</time>
      </trkpt>
      <trkpt lat="45.92181" lon="4.75661">
        <ele>174</ele>
        <time>2017-06-22T07:52:31Z</time>
      </trkpt>
      <trkpt lat="45.92185" lon="4.75665">
        <ele>174</ele>
        <time>2017-06-22T07:52:32Z</time>
      </trkpt>
      <trkpt lat="45.92189" lon="4.75669">
        <ele>174</ele>
        <time>2017-06-22T07:52:33Z</time>
      </trkpt>
      <trkpt lat="45.92193" lon="4.75672">
        <ele>174</ele>
        <time>2017-06-22T07:52:34Z</time>
      </trkpt>
      <trkpt lat="45.92197" lon="4.75676">
        <ele>174</ele>
        <time>2017-06-22T07:52:35Z</time>
      </trkpt>
      <trkpt lat="45.92201" lon="4.7568">
        <ele>174</ele>
        <time>2017-06-22T07:52:36Z</time>
      </trkpt>
      <trkpt lat="45.92205" lon="4.75684">
        <ele>174</ele>
        <time>2017-06-22T07:52:37Z</time>
      </trkpt>
      <trkpt lat="45.92209" lon="4.75688">
        <ele>174</ele>
        <time>2017-06-22T07:52:38Z</time>
      </trkpt>
      <trkpt lat="45.92213" lon="4.75692">
        <ele>174</ele>
        <time>2017-06-22T07:52:39Z</time>
      </trkpt>
      <trkpt lat="45.92217" lon="4.75696">
        <ele>174</ele>
        <time>2017-06-22T07:52:40Z</time>
      </trkpt>
      <trkpt lat="45.92222" lon="4.757">
        <ele>174</ele>
        <time>2017-06-22T07:52:41Z</time>
      </trkpt>
      <trkpt lat="45.92225" lon="4.75705">
        <ele>174</ele>
        <time>2017-06-22T07:52:42Z</time>
      </trkpt>
      <trkpt lat="45.92229" lon="4.7571">
        <ele>174</ele>
        <time>2017-06-22T07:52:43Z</time>
      </trkpt>
      <trkpt lat="45.92233" lon="4.75715">
        <ele>174</ele>
        <time>2017-06-22T07:52:44Z</time>
      </trkpt>
      <trkpt lat="45.92236" lon="4.75721">
        <ele>174</ele>
        <time>2017-06-22T07:52:45Z</time>
      </trkpt>
      <trkpt lat="45.92238" lon="4.75728">
        <ele>174</ele>
        <time>2017-06-22T07:52:46Z</time>
      </trkpt>
      <trkpt lat="45.92241" lon="4.75735">
        <ele>174</ele>
        <time>2017-06-22T07:52:47Z</time>
      </trkpt>
      <trkpt lat="45.92243" lon="4.75741">
        <ele>174</ele>
        <time>2017-06-22T07:52:48Z</time>
      </trkpt>
      <trkpt lat="45.92245" lon="4.75747">
        <ele>174</ele>
        <time>2017-06-22T07:52:49Z</time>
      </trkpt>
      <trkpt lat="45.92246" lon="4.75754">
        <ele>174</ele>
        <time>2017-06-22T07:52:50Z</time>
      </trkpt>
      <trkpt lat="45.92248" lon="4.75761">
        <ele>174</ele>
        <time>2017-06-22T07:52:51Z</time>
      </trkpt>
      <trkpt lat="45.92249" lon="4.75767">
        <ele>174</ele>
        <time>2017-06-22T07:52:52Z</time>
      </trkpt>
      <trkpt lat="45.92249" lon="4.75774">
        <ele>174</ele>
        <time>2017-06-22T07:52:53Z</time>
      </trkpt>
      <trkpt lat="45.9225" lon="4.7578">
        <ele>173</ele>
        <time>2017-06-22T07:52:54Z</time>
      </trkpt>
      <trkpt lat="45.92251" lon="4.75787">
        <ele>174</ele>
        <time>2017-06-22T07:52:55Z</time>
      </trkpt>
      <trkpt lat="45.92252" lon="4.75794">
        <ele>174</ele>
        <time>2017-06-22T07:52:56Z</time>
      </trkpt>
      <trkpt lat="45.92254" lon="4.75801">
        <ele>174</ele>
        <time>2017-06-22T07:52:57Z</time>
      </trkpt>
      <trkpt lat="45.92256" lon="4.75807">
        <ele>174</ele>
        <time>2017-06-22T07:52:58Z</time>
      </trkpt>
      <trkpt lat="45.92258" lon="4.75814">
        <ele>174</ele>
        <time>2017-06-22T07:52:59Z</time>
      </trkpt>
      <trkpt lat="45.92261" lon="4.75821">
        <ele>174</ele>
        <time>2017-06-22T07:53:00Z</time>
      </trkpt>
      <trkpt lat="45.92265" lon="4.75826">
        <ele>174</ele>
        <time>2017-06-22T07:53:01Z</time>
      </trkpt>
      <trkpt lat="45.9227" lon="4.75831">
        <ele>174</ele>
        <time>2017-06-22T07:53:02Z</time>
      </trkpt>
      <trkpt lat="45.92274" lon="4.75836">
        <ele>173</ele>
        <time>2017-06-22T07:53:03Z</time>
      </trkpt>
      <trkpt lat="45.92279" lon="4.75839">
        <ele>173</ele>
        <time>2017-06-22T07:53:04Z</time>
      </trkpt>
      <trkpt lat="45.92285" lon="4.75843">
        <ele>173</ele>
        <time>2017-06-22T07:53:05Z</time>
      </trkpt>
      <trkpt lat="45.9229" lon="4.75846">
        <ele>173</ele>
        <time>2017-06-22T07:53:06Z</time>
      </trkpt>
      <trkpt lat="45.92295" lon="4.75849">
        <ele>173</ele>
        <time>2017-06-22T07:53:07Z</time>
      </trkpt>
      <trkpt lat="45.923" lon="4.75852">
        <ele>173</ele>
        <time>2017-06-22T07:53:08Z</time>
      </trkpt>
      <trkpt lat="45.92306" lon="4.75855">
        <ele>173</ele>
        <time>2017-06-22T07:53:09Z</time>
      </trkpt>
      <trkpt lat="45.92312" lon="4.7586">
        <ele>173</ele>
        <time>2017-06-22T07:53:10Z</time>
      </trkpt>
      <trkpt lat="45.92317" lon="4.75863">
        <ele>173</ele>
        <time>2017-06-22T07:53:11Z</time>
      </trkpt>
      <trkpt lat="45.92323" lon="4.75866">
        <ele>173</ele>
        <time>2017-06-22T07:53:12Z</time>
      </trkpt>
      <trkpt lat="45.92329" lon="4.75869">
        <ele>173</ele>
        <time>2017-06-22T07:53:13Z</time>
      </trkpt>
      <trkpt lat="45.92334" lon="4.75873">
        <ele>173</ele>
        <time>2017-06-22T07:53:14Z</time>
      </trkpt>
      <trkpt lat="45.9234" lon="4.75876">
        <ele>173</ele>
        <time>2017-06-22T07:53:15Z</time>
      </trkpt>
      <trkpt lat="45.92345" lon="4.7588">
        <ele>173</ele>
        <time>2017-06-22T07:53:16Z</time>
      </trkpt>
      <trkpt lat="45.92351" lon="4.75884">
        <ele>173</ele>
        <time>2017-06-22T07:53:17Z</time>
      </trkpt>
      <trkpt lat="45.92356" lon="4.75887">
        <ele>173</ele>
        <time>2017-06-22T07:53:18Z</time>
      </trkpt>
      <trkpt lat="45.92361" lon="4.7589">
        <ele>173</ele>
        <time>2017-06-22T07:53:19Z</time>
      </trkpt>
      <trkpt lat="45.92367" lon="4.75893">
        <ele>173</ele>
        <time>2017-06-22T07:53:20Z</time>
      </trkpt>
      <trkpt lat="45.92371" lon="4.75897">
        <ele>173</ele>
        <time>2017-06-22T07:53:21Z</time>
      </trkpt>
      <trkpt lat="45.92376" lon="4.759">
        <ele>173</ele>
        <time>2017-06-22T07:53:22Z</time>
      </trkpt>
      <trkpt lat="45.92381" lon="4.75903">
        <ele>173</ele>
        <time>2017-06-22T07:53:23Z</time>
      </trkpt>
      <trkpt lat="45.92385" lon="4.75906">
        <ele>173</ele>
        <time>2017-06-22T07:53:24Z</time>
      </trkpt>
      <trkpt lat="45.92389" lon="4.7591">
        <ele>173</ele>
        <time>2017-06-22T07:53:25Z</time>
      </trkpt>
      <trkpt lat="45.92394" lon="4.75913">
        <ele>173</ele>
        <time>2017-06-22T07:53:26Z</time>
      </trkpt>
      <trkpt lat="45.92399" lon="4.75916">
        <ele>173</ele>
        <time>2017-06-22T07:53:27Z</time>
      </trkpt>
      <trkpt lat="45.92403" lon="4.7592">
        <ele>172</ele>
        <time>2017-06-22T07:53:28Z</time>
      </trkpt>
      <trkpt lat="45.92408" lon="4.75924">
        <ele>172</ele>
        <time>2017-06-22T07:53:29Z</time>
      </trkpt>
      <trkpt lat="45.92413" lon="4.75928">
        <ele>172</ele>
        <time>2017-06-22T07:53:30Z</time>
      </trkpt>
      <trkpt lat="45.92418" lon="4.75931">
        <ele>172</ele>
        <time>2017-06-22T07:53:31Z</time>
      </trkpt>
      <trkpt lat="45.92423" lon="4.75935">
        <ele>172</ele>
        <time>2017-06-22T07:53:32Z</time>
      </trkpt>
      <trkpt lat="45.92428" lon="4.75939">
        <ele>172</ele>
        <time>2017-06-22T07:53:33Z</time>
      </trkpt>
      <trkpt lat="45.92433" lon="4.75943">
        <ele>172</ele>
        <time>2017-06-22T07:53:34Z</time>
      </trkpt>
      <trkpt lat="45.92438" lon="4.75946">
        <ele>172</ele>
        <time>2017-06-22T07:53:35Z</time>
      </trkpt>
      <trkpt lat="45.92443" lon="4.7595">
        <ele>172</ele>
        <time>2017-06-22T07:53:36Z</time>
      </trkpt>
      <trkpt lat="45.92448" lon="4.75954">
        <ele>172</ele>
        <time>2017-06-22T07:53:37Z</time>
      </trkpt>
      <trkpt lat="45.92453" lon="4.75958">
        <ele>172</ele>
        <time>2017-06-22T07:53:38Z</time>
      </trkpt>
      <trkpt lat="45.92458" lon="4.75962">
        <ele>172</ele>
        <time>2017-06-22T07:53:39Z</time>
      </trkpt>
      <trkpt lat="45.92463" lon="4.75966">
        <ele>172</ele>
        <time>2017-06-22T07:53:40Z</time>
      </trkpt>
      <trkpt lat="45.92468" lon="4.7597">
        <ele>172</ele>
        <time>2017-06-22T07:53:41Z</time>
      </trkpt>
      <trkpt lat="45.92473" lon="4.75973">
        <ele>172</ele>
        <time>2017-06-22T07:53:42Z</time>
      </trkpt>
      <trkpt lat="45.92477" lon="4.75976">
        <ele>172</ele>
        <time>2017-06-22T07:53:43Z</time>
      </trkpt>
      <trkpt lat="45.92482" lon="4.75979">
        <ele>172</ele>
        <time>2017-06-22T07:53:44Z</time>
      </trkpt>
      <trkpt lat="45.92485" lon="4.75983">
        <ele>172</ele>
        <time>2017-06-22T07:53:45Z</time>
      </trkpt>
      <trkpt lat="45.9249" lon="4.75985">
        <ele>172</ele>
        <time>2017-06-22T07:53:46Z</time>
      </trkpt>
      <trkpt lat="45.92494" lon="4.75989">
        <ele>172</ele>
        <time>2017-06-22T07:53:47Z</time>
      </trkpt>
      <trkpt lat="45.92498" lon="4.75992">
        <ele>172</ele>
        <time>2017-06-22T07:53:48Z</time>
      </trkpt>
      <trkpt lat="45.92502" lon="4.75995">
        <ele>172</ele>
        <time>2017-06-22T07:53:49Z</time>
      </trkpt>
      <trkpt lat="45.92506" lon="4.75998">
        <ele>172</ele>
        <time>2017-06-22T07:53:50Z</time>
      </trkpt>
      <trkpt lat="45.9251" lon="4.76001">
        <ele>172</ele>
        <time>2017-06-22T07:53:51Z</time>
      </trkpt>
      <trkpt lat="45.92518" lon="4.76007">
        <ele>172</ele>
        <time>2017-06-22T07:53:53Z</time>
      </trkpt>
      <trkpt lat="45.92522" lon="4.7601">
        <ele>172</ele>
        <time>2017-06-22T07:53:54Z</time>
      </trkpt>
      <trkpt lat="45.92529" lon="4.76016">
        <ele>172</ele>
        <time>2017-06-22T07:53:56Z</time>
      </trkpt>
      <trkpt lat="45.92533" lon="4.76018">
        <ele>172</ele>
        <time>2017-06-22T07:53:57Z</time>
      </trkpt>
      <trkpt lat="45.92537" lon="4.76022">
        <ele>172</ele>
        <time>2017-06-22T07:53:58Z</time>
      </trkpt>
      <trkpt lat="45.92541" lon="4.76025">
        <ele>172</ele>
        <time>2017-06-22T07:53:59Z</time>
      </trkpt>
      <trkpt lat="45.92546" lon="4.76028">
        <ele>172</ele>
        <time>2017-06-22T07:54:00Z</time>
      </trkpt>
      <trkpt lat="45.9255" lon="4.76031">
        <ele>172</ele>
        <time>2017-06-22T07:54:01Z</time>
      </trkpt>
      <trkpt lat="45.92554" lon="4.76034">
        <ele>172</ele>
        <time>2017-06-22T07:54:02Z</time>
      </trkpt>
      <trkpt lat="45.92558" lon="4.76037">
        <ele>172</ele>
        <time>2017-06-22T07:54:03Z</time>
      </trkpt>
      <trkpt lat="45.92563" lon="4.7604">
        <ele>172</ele>
        <time>2017-06-22T07:54:04Z</time>
      </trkpt>
      <trkpt lat="45.92567" lon="4.76043">
        <ele>171</ele>
        <time>2017-06-22T07:54:05Z</time>
      </trkpt>
      <trkpt lat="45.92571" lon="4.76046">
        <ele>171</ele>
        <time>2017-06-22T07:54:06Z</time>
      </trkpt>
      <trkpt lat="45.92576" lon="4.7605">
        <ele>171</ele>
        <time>2017-06-22T07:54:07Z</time>
      </trkpt>
      <trkpt lat="45.9258" lon="4.76053">
        <ele>171</ele>
        <time>2017-06-22T07:54:08Z</time>
      </trkpt>
      <trkpt lat="45.92585" lon="4.76056">
        <ele>171</ele>
        <time>2017-06-22T07:54:09Z</time>
      </trkpt>
      <trkpt lat="45.92589" lon="4.76059">
        <ele>171</ele>
        <time>2017-06-22T07:54:10Z</time>
      </trkpt>
      <trkpt lat="45.92594" lon="4.76063">
        <ele>171</ele>
        <time>2017-06-22T07:54:11Z</time>
      </trkpt>
      <trkpt lat="45.92598" lon="4.76067">
        <ele>171</ele>
        <time>2017-06-22T07:54:12Z</time>
      </trkpt>
      <trkpt lat="45.92603" lon="4.7607">
        <ele>171</ele>
        <time>2017-06-22T07:54:13Z</time>
      </trkpt>
      <trkpt lat="45.92608" lon="4.76074">
        <ele>171</ele>
        <time>2017-06-22T07:54:14Z</time>
      </trkpt>
      <trkpt lat="45.92613" lon="4.76077">
        <ele>171</ele>
        <time>2017-06-22T07:54:15Z</time>
      </trkpt>
      <trkpt lat="45.92618" lon="4.76081">
        <ele>171</ele>
        <time>2017-06-22T07:54:16Z</time>
      </trkpt>
      <trkpt lat="45.92623" lon="4.76085">
        <ele>170</ele>
        <time>2017-06-22T07:54:17Z</time>
      </trkpt>
      <trkpt lat="45.92628" lon="4.76089">
        <ele>170</ele>
        <time>2017-06-22T07:54:18Z</time>
      </trkpt>
      <trkpt lat="45.92634" lon="4.76092">
        <ele>170</ele>
        <time>2017-06-22T07:54:19Z</time>
      </trkpt>
      <trkpt lat="45.9264" lon="4.76096">
        <ele>170</ele>
        <time>2017-06-22T07:54:20Z</time>
      </trkpt>
      <trkpt lat="45.92646" lon="4.761">
        <ele>170</ele>
        <time>2017-06-22T07:54:21Z</time>
      </trkpt>
      <trkpt lat="45.92652" lon="4.76104">
        <ele>170</ele>
        <time>2017-06-22T07:54:22Z</time>
      </trkpt>
      <trkpt lat="45.92658" lon="4.76108">
        <ele>170</ele>
        <time>2017-06-22T07:54:23Z</time>
      </trkpt>
      <trkpt lat="45.92665" lon="4.76113">
        <ele>170</ele>
        <time>2017-06-22T07:54:24Z</time>
      </trkpt>
      <trkpt lat="45.92671" lon="4.76117">
        <ele>169</ele>
        <time>2017-06-22T07:54:25Z</time>
      </trkpt>
      <trkpt lat="45.92678" lon="4.76121">
        <ele>169</ele>
        <time>2017-06-22T07:54:26Z</time>
      </trkpt>
      <trkpt lat="45.92685" lon="4.76126">
        <ele>169</ele>
        <time>2017-06-22T07:54:27Z</time>
      </trkpt>
      <trkpt lat="45.92693" lon="4.7613">
        <ele>169</ele>
        <time>2017-06-22T07:54:28Z</time>
      </trkpt>
      <trkpt lat="45.927" lon="4.76135">
        <ele>169</ele>
        <time>2017-06-22T07:54:29Z</time>
      </trkpt>
      <trkpt lat="45.92707" lon="4.7614">
        <ele>169</ele>
        <time>2017-06-22T07:54:30Z</time>
      </trkpt>
      <trkpt lat="45.92715" lon="4.76145">
        <ele>168</ele>
        <time>2017-06-22T07:54:31Z</time>
      </trkpt>
      <trkpt lat="45.92722" lon="4.76151">
        <ele>168</ele>
        <time>2017-06-22T07:54:32Z</time>
      </trkpt>
      <trkpt lat="45.92729" lon="4.76156">
        <ele>168</ele>
        <time>2017-06-22T07:54:33Z</time>
      </trkpt>
      <trkpt lat="45.92736" lon="4.76161">
        <ele>168</ele>
        <time>2017-06-22T07:54:34Z</time>
      </trkpt>
      <trkpt lat="45.92743" lon="4.76166">
        <ele>167</ele>
        <time>2017-06-22T07:54:35Z</time>
      </trkpt>
      <trkpt lat="45.9275" lon="4.76172">
        <ele>167</ele>
        <time>2017-06-22T07:54:36Z</time>
      </trkpt>
      <trkpt lat="45.92756" lon="4.76177">
        <ele>167</ele>
        <time>2017-06-22T07:54:37Z</time>
      </trkpt>
      <trkpt lat="45.92762" lon="4.76182">
        <ele>167</ele>
        <time>2017-06-22T07:54:38Z</time>
      </trkpt>
      <trkpt lat="45.92768" lon="4.76188">
        <ele>167</ele>
        <time>2017-06-22T07:54:39Z</time>
      </trkpt>
      <trkpt lat="45.92774" lon="4.76193">
        <ele>168</ele>
        <time>2017-06-22T07:54:40Z</time>
      </trkpt>
      <trkpt lat="45.92779" lon="4.76197">
        <ele>168</ele>
        <time>2017-06-22T07:54:41Z</time>
      </trkpt>
      <trkpt lat="45.92785" lon="4.76202">
        <ele>168</ele>
        <time>2017-06-22T07:54:42Z</time>
      </trkpt>
      <trkpt lat="45.92791" lon="4.76207">
        <ele>168</ele>
        <time>2017-06-22T07:54:43Z</time>
      </trkpt>
      <trkpt lat="45.92796" lon="4.76212">
        <ele>168</ele>
        <time>2017-06-22T07:54:44Z</time>
      </trkpt>
      <trkpt lat="45.92801" lon="4.76216">
        <ele>168</ele>
        <time>2017-06-22T07:54:45Z</time>
      </trkpt>
      <trkpt lat="45.92806" lon="4.76221">
        <ele>168</ele>
        <time>2017-06-22T07:54:46Z</time>
      </trkpt>
      <trkpt lat="45.92811" lon="4.76226">
        <ele>168</ele>
        <time>2017-06-22T07:54:47Z</time>
      </trkpt>
      <trkpt lat="45.92816" lon="4.7623">
        <ele>168</ele>
        <time>2017-06-22T07:54:48Z</time>
      </trkpt>
      <trkpt lat="45.9282" lon="4.76234">
        <ele>168</ele>
        <time>2017-06-22T07:54:49Z</time>
      </trkpt>
      <trkpt lat="45.92824" lon="4.76238">
        <ele>168</ele>
        <time>2017-06-22T07:54:50Z</time>
      </trkpt>
      <trkpt lat="45.92829" lon="4.76243">
        <ele>169</ele>
        <time>2017-06-22T07:54:51Z</time>
      </trkpt>
      <trkpt lat="45.92834" lon="4.76248">
        <ele>169</ele>
        <time>2017-06-22T07:54:52Z</time>
      </trkpt>
      <trkpt lat="45.92839" lon="4.76253">
        <ele>169</ele>
        <time>2017-06-22T07:54:53Z</time>
      </trkpt>
      <trkpt lat="45.92843" lon="4.76258">
        <ele>169</ele>
        <time>2017-06-22T07:54:54Z</time>
      </trkpt>
      <trkpt lat="45.92848" lon="4.76262">
        <ele>169</ele>
        <time>2017-06-22T07:54:55Z</time>
      </trkpt>
      <trkpt lat="45.92852" lon="4.76266">
        <ele>169</ele>
        <time>2017-06-22T07:54:56Z</time>
      </trkpt>
      <trkpt lat="45.92856" lon="4.76271">
        <ele>169</ele>
        <time>2017-06-22T07:54:57Z</time>
      </trkpt>
      <trkpt lat="45.92861" lon="4.76275">
        <ele>169</ele>
        <time>2017-06-22T07:54:58Z</time>
      </trkpt>
      <trkpt lat="45.92865" lon="4.7628">
        <ele>169</ele>
        <time>2017-06-22T07:54:59Z</time>
      </trkpt>
      <trkpt lat="45.9287" lon="4.76285">
        <ele>169</ele>
        <time>2017-06-22T07:55:00Z</time>
      </trkpt>
      <trkpt lat="45.92874" lon="4.7629">
        <ele>169</ele>
        <time>2017-06-22T07:55:01Z</time>
      </trkpt>
      <trkpt lat="45.92877" lon="4.76295">
        <ele>169</ele>
        <time>2017-06-22T07:55:02Z</time>
      </trkpt>
      <trkpt lat="45.92881" lon="4.76299">
        <ele>169</ele>
        <time>2017-06-22T07:55:03Z</time>
      </trkpt>
      <trkpt lat="45.92885" lon="4.76303">
        <ele>169</ele>
        <time>2017-06-22T07:55:04Z</time>
      </trkpt>
      <trkpt lat="45.92889" lon="4.76306">
        <ele>169</ele>
        <time>2017-06-22T07:55:05Z</time>
      </trkpt>
      <trkpt lat="45.92893" lon="4.7631">
        <ele>169</ele>
        <time>2017-06-22T07:55:06Z</time>
      </trkpt>
      <trkpt lat="45.92898" lon="4.76314">
        <ele>169</ele>
        <time>2017-06-22T07:55:07Z</time>
      </trkpt>
      <trkpt lat="45.92902" lon="4.76319">
        <ele>169</ele>
        <time>2017-06-22T07:55:08Z</time>
      </trkpt>
      <trkpt lat="45.92907" lon="4.76323">
        <ele>169</ele>
        <time>2017-06-22T07:55:09Z</time>
      </trkpt>
      <trkpt lat="45.92912" lon="4.76328">
        <ele>169</ele>
        <time>2017-06-22T07:55:10Z</time>
      </trkpt>
      <trkpt lat="45.92916" lon="4.76333">
        <ele>169</ele>
        <time>2017-06-22T07:55:11Z</time>
      </trkpt>
      <trkpt lat="45.92921" lon="4.76338">
        <ele>169</ele>
        <time>2017-06-22T07:55:12Z</time>
      </trkpt>
      <trkpt lat="45.92926" lon="4.76343">
        <ele>169</ele>
        <time>2017-06-22T07:55:13Z</time>
      </trkpt>
      <trkpt lat="45.92931" lon="4.76349">
        <ele>169</ele>
        <time>2017-06-22T07:55:14Z</time>
      </trkpt>
      <trkpt lat="45.92936" lon="4.76355">
        <ele>169</ele>
        <time>2017-06-22T07:55:15Z</time>
      </trkpt>
      <trkpt lat="45.9294" lon="4.76361">
        <ele>169</ele>
        <time>2017-06-22T07:55:16Z</time>
      </trkpt>
      <trkpt lat="45.92946" lon="4.76366">
        <ele>169</ele>
        <time>2017-06-22T07:55:17Z</time>
      </trkpt>
      <trkpt lat="45.92951" lon="4.76371">
        <ele>169</ele>
        <time>2017-06-22T07:55:18Z</time>
      </trkpt>
      <trkpt lat="45.92955" lon="4.76375">
        <ele>169</ele>
        <time>2017-06-22T07:55:19Z</time>
      </trkpt>
      <trkpt lat="45.9296" lon="4.7638">
        <ele>169</ele>
        <time>2017-06-22T07:55:20Z</time>
      </trkpt>
      <trkpt lat="45.92964" lon="4.76384">
        <ele>169</ele>
        <time>2017-06-22T07:55:21Z</time>
      </trkpt>
      <trkpt lat="45.92968" lon="4.76388">
        <ele>169</ele>
        <time>2017-06-22T07:55:22Z</time>
      </trkpt>
      <trkpt lat="45.92973" lon="4.76393">
        <ele>169</ele>
        <time>2017-06-22T07:55:23Z</time>
      </trkpt>
      <trkpt lat="45.92977" lon="4.76397">
        <ele>169</ele>
        <time>2017-06-22T07:55:24Z</time>
      </trkpt>
      <trkpt lat="45.92982" lon="4.76402">
        <ele>169</ele>
        <time>2017-06-22T07:55:25Z</time>
      </trkpt>
      <trkpt lat="45.92986" lon="4.76406">
        <ele>169</ele>
        <time>2017-06-22T07:55:26Z</time>
      </trkpt>
      <trkpt lat="45.9299" lon="4.7641">
        <ele>169</ele>
        <time>2017-06-22T07:55:27Z</time>
      </trkpt>
      <trkpt lat="45.92994" lon="4.76414">
        <ele>169</ele>
        <time>2017-06-22T07:55:28Z</time>
      </trkpt>
      <trkpt lat="45.92998" lon="4.76417">
        <ele>169</ele>
        <time>2017-06-22T07:55:29Z</time>
      </trkpt>
      <trkpt lat="45.93002" lon="4.76421">
        <ele>169</ele>
        <time>2017-06-22T07:55:30Z</time>
      </trkpt>
      <trkpt lat="45.93005" lon="4.76425">
        <ele>169</ele>
        <time>2017-06-22T07:55:31Z</time>
      </trkpt>
      <trkpt lat="45.9301" lon="4.76429">
        <ele>169</ele>
        <time>2017-06-22T07:55:32Z</time>
      </trkpt>
      <trkpt lat="45.93014" lon="4.76432">
        <ele>169</ele>
        <time>2017-06-22T07:55:33Z</time>
      </trkpt>
      <trkpt lat="45.93019" lon="4.76437">
        <ele>169</ele>
        <time>2017-06-22T07:55:34Z</time>
      </trkpt>
      <trkpt lat="45.93023" lon="4.76441">
        <ele>169</ele>
        <time>2017-06-22T07:55:35Z</time>
      </trkpt>
      <trkpt lat="45.93028" lon="4.76445">
        <ele>169</ele>
        <time>2017-06-22T07:55:36Z</time>
      </trkpt>
      <trkpt lat="45.93032" lon="4.7645">
        <ele>169</ele>
        <time>2017-06-22T07:55:37Z</time>
      </trkpt>
      <trkpt lat="45.93036" lon="4.76455">
        <ele>169</ele>
        <time>2017-06-22T07:55:38Z</time>
      </trkpt>
      <trkpt lat="45.93041" lon="4.76459">
        <ele>169</ele>
        <time>2017-06-22T07:55:39Z</time>
      </trkpt>
      <trkpt lat="45.93045" lon="4.76463">
        <ele>169</ele>
        <time>2017-06-22T07:55:40Z</time>
      </trkpt>
      <trkpt lat="45.93049" lon="4.76467">
        <ele>169</ele>
        <time>2017-06-22T07:55:41Z</time>
      </trkpt>
      <trkpt lat="45.93053" lon="4.7647">
        <ele>169</ele>
        <time>2017-06-22T07:55:42Z</time>
      </trkpt>
      <trkpt lat="45.93057" lon="4.76474">
        <ele>169</ele>
        <time>2017-06-22T07:55:43Z</time>
      </trkpt>
      <trkpt lat="45.93062" lon="4.76478">
        <ele>169</ele>
        <time>2017-06-22T07:55:44Z</time>
      </trkpt>
      <trkpt lat="45.93066" lon="4.76484">
        <ele>169</ele>
        <time>2017-06-22T07:55:45Z</time>
      </trkpt>
      <trkpt lat="45.9307" lon="4.76488">
        <ele>169</ele>
        <time>2017-06-22T07:55:46Z</time>
      </trkpt>
      <trkpt lat="45.93073" lon="4.76492">
        <ele>170</ele>
        <time>2017-06-22T07:55:47Z</time>
      </trkpt>
      <trkpt lat="45.93077" lon="4.76497">
        <ele>170</ele>
        <time>2017-06-22T07:55:48Z</time>
      </trkpt>
      <trkpt lat="45.93081" lon="4.76502">
        <ele>170</ele>
        <time>2017-06-22T07:55:49Z</time>
      </trkpt>
      <trkpt lat="45.93085" lon="4.76506">
        <ele>170</ele>
        <time>2017-06-22T07:55:50Z</time>
      </trkpt>
      <trkpt lat="45.9309" lon="4.76511">
        <ele>170</ele>
        <time>2017-06-22T07:55:51Z</time>
      </trkpt>
      <trkpt lat="45.93094" lon="4.76515">
        <ele>170</ele>
        <time>2017-06-22T07:55:52Z</time>
      </trkpt>
      <trkpt lat="45.93099" lon="4.76518">
        <ele>170</ele>
        <time>2017-06-22T07:55:53Z</time>
      </trkpt>
      <trkpt lat="45.93103" lon="4.76522">
        <ele>170</ele>
        <time>2017-06-22T07:55:54Z</time>
      </trkpt>
      <trkpt lat="45.93107" lon="4.76525">
        <ele>170</ele>
        <time>2017-06-22T07:55:55Z</time>
      </trkpt>
      <trkpt lat="45.93111" lon="4.76529">
        <ele>170</ele>
        <time>2017-06-22T07:55:56Z</time>
      </trkpt>
      <trkpt lat="45.93115" lon="4.76533">
        <ele>170</ele>
        <time>2017-06-22T07:55:57Z</time>
      </trkpt>
      <trkpt lat="45.93119" lon="4.76537">
        <ele>170</ele>
        <time>2017-06-22T07:55:58Z</time>
      </trkpt>
      <trkpt lat="45.93123" lon="4.76541">
        <ele>170</ele>
        <time>2017-06-22T07:55:59Z</time>
      </trkpt>
      <trkpt lat="45.93127" lon="4.76546">
        <ele>170</ele>
        <time>2017-06-22T07:56:00Z</time>
      </trkpt>
      <trkpt lat="45.93132" lon="4.7655">
        <ele>170</ele>
        <time>2017-06-22T07:56:01Z</time>
      </trkpt>
      <trkpt lat="45.93136" lon="4.76554">
        <ele>170</ele>
        <time>2017-06-22T07:56:02Z</time>
      </trkpt>
      <trkpt lat="45.93139" lon="4.76557">
        <ele>170</ele>
        <time>2017-06-22T07:56:03Z</time>
      </trkpt>
      <trkpt lat="45.93146" lon="4.76565">
        <ele>170</ele>
        <time>2017-06-22T07:56:05Z</time>
      </trkpt>
      <trkpt lat="45.93151" lon="4.7657">
        <ele>170</ele>
        <time>2017-06-22T07:56:06Z</time>
      </trkpt>
      <trkpt lat="45.93154" lon="4.76575">
        <ele>170</ele>
        <time>2017-06-22T07:56:07Z</time>
      </trkpt>
      <trkpt lat="45.93159" lon="4.76579">
        <ele>171</ele>
        <time>2017-06-22T07:56:08Z</time>
      </trkpt>
      <trkpt lat="45.93164" lon="4.76584">
        <ele>171</ele>
        <time>2017-06-22T07:56:09Z</time>
      </trkpt>
      <trkpt lat="45.93168" lon="4.7659">
        <ele>171</ele>
        <time>2017-06-22T07:56:10Z</time>
      </trkpt>
      <trkpt lat="45.93173" lon="4.76595">
        <ele>171</ele>
        <time>2017-06-22T07:56:11Z</time>
      </trkpt>
      <trkpt lat="45.93177" lon="4.766">
        <ele>171</ele>
        <time>2017-06-22T07:56:12Z</time>
      </trkpt>
      <trkpt lat="45.93182" lon="4.76604">
        <ele>171</ele>
        <time>2017-06-22T07:56:13Z</time>
      </trkpt>
      <trkpt lat="45.93187" lon="4.76609">
        <ele>171</ele>
        <time>2017-06-22T07:56:14Z</time>
      </trkpt>
      <trkpt lat="45.93192" lon="4.76613">
        <ele>171</ele>
        <time>2017-06-22T07:56:15Z</time>
      </trkpt>
      <trkpt lat="45.93197" lon="4.76616">
        <ele>171</ele>
        <time>2017-06-22T07:56:16Z</time>
      </trkpt>
      <trkpt lat="45.93201" lon="4.76619">
        <ele>171</ele>
        <time>2017-06-22T07:56:17Z</time>
      </trkpt>
      <trkpt lat="45.93204" lon="4.76623">
        <ele>171</ele>
        <time>2017-06-22T07:56:18Z</time>
      </trkpt>
      <trkpt lat="45.93209" lon="4.76627">
        <ele>171</ele>
        <time>2017-06-22T07:56:19Z</time>
      </trkpt>
      <trkpt lat="45.93213" lon="4.76631">
        <ele>171</ele>
        <time>2017-06-22T07:56:20Z</time>
      </trkpt>
      <trkpt lat="45.93217" lon="4.76635">
        <ele>171</ele>
        <time>2017-06-22T07:56:21Z</time>
      </trkpt>
      <trkpt lat="45.93221" lon="4.7664">
        <ele>171</ele>
        <time>2017-06-22T07:56:22Z</time>
      </trkpt>
      <trkpt lat="45.93225" lon="4.76644">
        <ele>171</ele>
        <time>2017-06-22T07:56:23Z</time>
      </trkpt>
      <trkpt lat="45.93229" lon="4.76648">
        <ele>171</ele>
        <time>2017-06-22T07:56:24Z</time>
      </trkpt>
      <trkpt lat="45.93233" lon="4.76652">
        <ele>171</ele>
        <time>2017-06-22T07:56:25Z</time>
      </trkpt>
      <trkpt lat="45.93238" lon="4.76656">
        <ele>171</ele>
        <time>2017-06-22T07:56:26Z</time>
      </trkpt>
      <trkpt lat="45.93243" lon="4.7666">
        <ele>171</ele>
        <time>2017-06-22T07:56:27Z</time>
      </trkpt>
      <trkpt lat="45.93248" lon="4.76666">
        <ele>172</ele>
        <time>2017-06-22T07:56:28Z</time>
      </trkpt>
      <trkpt lat="45.93253" lon="4.76671">
        <ele>172</ele>
        <time>2017-06-22T07:56:29Z</time>
      </trkpt>
      <trkpt lat="45.93258" lon="4.76677">
        <ele>172</ele>
        <time>2017-06-22T07:56:30Z</time>
      </trkpt>
      <trkpt lat="45.93263" lon="4.76682">
        <ele>172</ele>
        <time>2017-06-22T07:56:31Z</time>
      </trkpt>
      <trkpt lat="45.93268" lon="4.76687">
        <ele>172</ele>
        <time>2017-06-22T07:56:32Z</time>
      </trkpt>
      <trkpt lat="45.93273" lon="4.76692">
        <ele>172</ele>
        <time>2017-06-22T07:56:33Z</time>
      </trkpt>
      <trkpt lat="45.93278" lon="4.76697">
        <ele>172</ele>
        <time>2017-06-22T07:56:34Z</time>
      </trkpt>
      <trkpt lat="45.93282" lon="4.76702">
        <ele>172</ele>
        <time>2017-06-22T07:56:35Z</time>
      </trkpt>
      <trkpt lat="45.93287" lon="4.76707">
        <ele>172</ele>
        <time>2017-06-22T07:56:36Z</time>
      </trkpt>
      <trkpt lat="45.93291" lon="4.76711">
        <ele>172</ele>
        <time>2017-06-22T07:56:37Z</time>
      </trkpt>
      <trkpt lat="45.93296" lon="4.76716">
        <ele>172</ele>
        <time>2017-06-22T07:56:38Z</time>
      </trkpt>
      <trkpt lat="45.933" lon="4.7672">
        <ele>172</ele>
        <time>2017-06-22T07:56:39Z</time>
      </trkpt>
      <trkpt lat="45.93304" lon="4.76725">
        <ele>172</ele>
        <time>2017-06-22T07:56:40Z</time>
      </trkpt>
      <trkpt lat="45.93309" lon="4.76729">
        <ele>172</ele>
        <time>2017-06-22T07:56:41Z</time>
      </trkpt>
      <trkpt lat="45.93314" lon="4.76733">
        <ele>172</ele>
        <time>2017-06-22T07:56:42Z</time>
      </trkpt>
      <trkpt lat="45.93318" lon="4.76739">
        <ele>172</ele>
        <time>2017-06-22T07:56:43Z</time>
      </trkpt>
      <trkpt lat="45.93323" lon="4.76744">
        <ele>172</ele>
        <time>2017-06-22T07:56:44Z</time>
      </trkpt>
      <trkpt lat="45.93328" lon="4.76748">
        <ele>173</ele>
        <time>2017-06-22T07:56:45Z</time>
      </trkpt>
      <trkpt lat="45.93333" lon="4.76753">
        <ele>173</ele>
        <time>2017-06-22T07:56:46Z</time>
      </trkpt>
      <trkpt lat="45.93339" lon="4.76759">
        <ele>173</ele>
        <time>2017-06-22T07:56:47Z</time>
      </trkpt>
      <trkpt lat="45.93344" lon="4.76765">
        <ele>172</ele>
        <time>2017-06-22T07:56:48Z</time>
      </trkpt>
      <trkpt lat="45.9335" lon="4.7677">
        <ele>172</ele>
        <time>2017-06-22T07:56:49Z</time>
      </trkpt>
      <trkpt lat="45.93355" lon="4.76775">
        <ele>172</ele>
        <time>2017-06-22T07:56:50Z</time>
      </trkpt>
      <trkpt lat="45.9336" lon="4.76779">
        <ele>172</ele>
        <time>2017-06-22T07:56:51Z</time>
      </trkpt>
      <trkpt lat="45.93365" lon="4.76783">
        <ele>172</ele>
        <time>2017-06-22T07:56:52Z</time>
      </trkpt>
      <trkpt lat="45.93369" lon="4.76788">
        <ele>172</ele>
        <time>2017-06-22T07:56:53Z</time>
      </trkpt>
      <trkpt lat="45.93374" lon="4.76793">
        <ele>172</ele>
        <time>2017-06-22T07:56:54Z</time>
      </trkpt>
      <trkpt lat="45.93378" lon="4.76797">
        <ele>172</ele>
        <time>2017-06-22T07:56:55Z</time>
      </trkpt>
      <trkpt lat="45.93382" lon="4.76802">
        <ele>172</ele>
        <time>2017-06-22T07:56:56Z</time>
      </trkpt>
      <trkpt lat="45.93387" lon="4.76806">
        <ele>172</ele>
        <time>2017-06-22T07:56:57Z</time>
      </trkpt>
      <trkpt lat="45.93391" lon="4.76811">
        <ele>172</ele>
        <time>2017-06-22T07:56:58Z</time>
      </trkpt>
      <trkpt lat="45.93395" lon="4.76817">
        <ele>172</ele>
        <time>2017-06-22T07:56:59Z</time>
      </trkpt>
      <trkpt lat="45.934" lon="4.76824">
        <ele>172</ele>
        <time>2017-06-22T07:57:00Z</time>
      </trkpt>
      <trkpt lat="45.93404" lon="4.76829">
        <ele>172</ele>
        <time>2017-06-22T07:57:01Z</time>
      </trkpt>
      <trkpt lat="45.93408" lon="4.76836">
        <ele>172</ele>
        <time>2017-06-22T07:57:02Z</time>
      </trkpt>
      <trkpt lat="45.93411" lon="4.76843">
        <ele>172</ele>
        <time>2017-06-22T07:57:03Z</time>
      </trkpt>
      <trkpt lat="45.93415" lon="4.7685">
        <ele>172</ele>
        <time>2017-06-22T07:57:04Z</time>
      </trkpt>
      <trkpt lat="45.93418" lon="4.76857">
        <ele>171</ele>
        <time>2017-06-22T07:57:05Z</time>
      </trkpt>
      <trkpt lat="45.93421" lon="4.76863">
        <ele>171</ele>
        <time>2017-06-22T07:57:06Z</time>
      </trkpt>
      <trkpt lat="45.93424" lon="4.76869">
        <ele>171</ele>
        <time>2017-06-22T07:57:07Z</time>
      </trkpt>
      <trkpt lat="45.93427" lon="4.76875">
        <ele>171</ele>
        <time>2017-06-22T07:57:08Z</time>
      </trkpt>
      <trkpt lat="45.9343" lon="4.76881">
        <ele>171</ele>
        <time>2017-06-22T07:57:09Z</time>
      </trkpt>
      <trkpt lat="45.93432" lon="4.76888">
        <ele>171</ele>
        <time>2017-06-22T07:57:10Z</time>
      </trkpt>
      <trkpt lat="45.93434" lon="4.76895">
        <ele>171</ele>
        <time>2017-06-22T07:57:11Z</time>
      </trkpt>
      <trkpt lat="45.93436" lon="4.76902">
        <ele>171</ele>
        <time>2017-06-22T07:57:12Z</time>
      </trkpt>
      <trkpt lat="45.93439" lon="4.76909">
        <ele>171</ele>
        <time>2017-06-22T07:57:13Z</time>
      </trkpt>
      <trkpt lat="45.9344" lon="4.76916">
        <ele>170</ele>
        <time>2017-06-22T07:57:14Z</time>
      </trkpt>
      <trkpt lat="45.93442" lon="4.76923">
        <ele>170</ele>
        <time>2017-06-22T07:57:15Z</time>
      </trkpt>
      <trkpt lat="45.93444" lon="4.76931">
        <ele>170</ele>
        <time>2017-06-22T07:57:16Z</time>
      </trkpt>
      <trkpt lat="45.93445" lon="4.76939">
        <ele>170</ele>
        <time>2017-06-22T07:57:17Z</time>
      </trkpt>
      <trkpt lat="45.93446" lon="4.76947">
        <ele>170</ele>
        <time>2017-06-22T07:57:18Z</time>
      </trkpt>
      <trkpt lat="45.93447" lon="4.76954">
        <ele>170</ele>
        <time>2017-06-22T07:57:19Z</time>
      </trkpt>
      <trkpt lat="45.93449" lon="4.76961">
        <ele>170</ele>
        <time>2017-06-22T07:57:20Z</time>
      </trkpt>
      <trkpt lat="45.9345" lon="4.76968">
        <ele>170</ele>
        <time>2017-06-22T07:57:21Z</time>
      </trkpt>
      <trkpt lat="45.9345" lon="4.76975">
        <ele>170</ele>
        <time>2017-06-22T07:57:22Z</time>
      </trkpt>
      <trkpt lat="45.93451" lon="4.76982">
        <ele>170</ele>
        <time>2017-06-22T07:57:23Z</time>
      </trkpt>
      <trkpt lat="45.93452" lon="4.76989">
        <ele>170</ele>
        <time>2017-06-22T07:57:24Z</time>
      </trkpt>
      <trkpt lat="45.93453" lon="4.76996">
        <ele>170</ele>
        <time>2017-06-22T07:57:25Z</time>
      </trkpt>
      <trkpt lat="45.93454" lon="4.77003">
        <ele>170</ele>
        <time>2017-06-22T07:57:26Z</time>
      </trkpt>
      <trkpt lat="45.93456" lon="4.77011">
        <ele>170</ele>
        <time>2017-06-22T07:57:27Z</time>
      </trkpt>
      <trkpt lat="45.93457" lon="4.77018">
        <ele>170</ele>
        <time>2017-06-22T07:57:28Z</time>
      </trkpt>
      <trkpt lat="45.93459" lon="4.77025">
        <ele>170</ele>
        <time>2017-06-22T07:57:29Z</time>
      </trkpt>
      <trkpt lat="45.9346" lon="4.77033">
        <ele>170</ele>
        <time>2017-06-22T07:57:30Z</time>
      </trkpt>
      <trkpt lat="45.93461" lon="4.77041">
        <ele>170</ele>
        <time>2017-06-22T07:57:31Z</time>
      </trkpt>
      <trkpt lat="45.93463" lon="4.77049">
        <ele>170</ele>
        <time>2017-06-22T07:57:32Z</time>
      </trkpt>
      <trkpt lat="45.93464" lon="4.77056">
        <ele>170</ele>
        <time>2017-06-22T07:57:33Z</time>
      </trkpt>
      <trkpt lat="45.93465" lon="4.77063">
        <ele>170</ele>
        <time>2017-06-22T07:57:34Z</time>
      </trkpt>
      <trkpt lat="45.93466" lon="4.7707">
        <ele>170</ele>
        <time>2017-06-22T07:57:35Z</time>
      </trkpt>
      <trkpt lat="45.93468" lon="4.77078">
        <ele>170</ele>
        <time>2017-06-22T07:57:36Z</time>
      </trkpt>
      <trkpt lat="45.93469" lon="4.77085">
        <ele>170</ele>
        <time>2017-06-22T07:57:37Z</time>
      </trkpt>
      <trkpt lat="45.9347" lon="4.77092">
        <ele>169</ele>
        <time>2017-06-22T07:57:38Z</time>
      </trkpt>
      <trkpt lat="45.93472" lon="4.77099">
        <ele>169</ele>
        <time>2017-06-22T07:57:39Z</time>
      </trkpt>
      <trkpt lat="45.93473" lon="4.77106">
        <ele>169</ele>
        <time>2017-06-22T07:57:40Z</time>
      </trkpt>
      <trkpt lat="45.93474" lon="4.77113">
        <ele>169</ele>
        <time>2017-06-22T07:57:41Z</time>
      </trkpt>
      <trkpt lat="45.93476" lon="4.77121">
        <ele>169</ele>
        <time>2017-06-22T07:57:42Z</time>
      </trkpt>
      <trkpt lat="45.93477" lon="4.77128">
        <ele>169</ele>
        <time>2017-06-22T07:57:43Z</time>
      </trkpt>
      <trkpt lat="45.93479" lon="4.77136">
        <ele>169</ele>
        <time>2017-06-22T07:57:44Z</time>
      </trkpt>
      <trkpt lat="45.9348" lon="4.77143">
        <ele>169</ele>
        <time>2017-06-22T07:57:45Z</time>
      </trkpt>
      <trkpt lat="45.93482" lon="4.77151">
        <ele>169</ele>
        <time>2017-06-22T07:57:46Z</time>
      </trkpt>
      <trkpt lat="45.93483" lon="4.77158">
        <ele>169</ele>
        <time>2017-06-22T07:57:47Z</time>
      </trkpt>
      <trkpt lat="45.93484" lon="4.77165">
        <ele>169</ele>
        <time>2017-06-22T07:57:48Z</time>
      </trkpt>
      <trkpt lat="45.93486" lon="4.77172">
        <ele>169</ele>
        <time>2017-06-22T07:57:49Z</time>
      </trkpt>
      <trkpt lat="45.93487" lon="4.77178">
        <ele>169</ele>
        <time>2017-06-22T07:57:50Z</time>
      </trkpt>
      <trkpt lat="45.93488" lon="4.77184">
        <ele>169</ele>
        <time>2017-06-22T07:57:51Z</time>
      </trkpt>
      <trkpt lat="45.9349" lon="4.77191">
        <ele>169</ele>
        <time>2017-06-22T07:57:52Z</time>
      </trkpt>
      <trkpt lat="45.93491" lon="4.77199">
        <ele>169</ele>
        <time>2017-06-22T07:57:53Z</time>
      </trkpt>
      <trkpt lat="45.93493" lon="4.77206">
        <ele>169</ele>
        <time>2017-06-22T07:57:54Z</time>
      </trkpt>
      <trkpt lat="45.93494" lon="4.77213">
        <ele>169</ele>
        <time>2017-06-22T07:57:55Z</time>
      </trkpt>
      <trkpt lat="45.93495" lon="4.7722">
        <ele>169</ele>
        <time>2017-06-22T07:57:56Z</time>
      </trkpt>
      <trkpt lat="45.93497" lon="4.77227">
        <ele>170</ele>
        <time>2017-06-22T07:57:57Z</time>
      </trkpt>
      <trkpt lat="45.93498" lon="4.77234">
        <ele>170</ele>
        <time>2017-06-22T07:57:58Z</time>
      </trkpt>
      <trkpt lat="45.935" lon="4.77241">
        <ele>170</ele>
        <time>2017-06-22T07:57:59Z</time>
      </trkpt>
      <trkpt lat="45.93502" lon="4.77247">
        <ele>170</ele>
        <time>2017-06-22T07:58:00Z</time>
      </trkpt>
      <trkpt lat="45.93503" lon="4.77254">
        <ele>170</ele>
        <time>2017-06-22T07:58:01Z</time>
      </trkpt>
      <trkpt lat="45.93505" lon="4.77261">
        <ele>170</ele>
        <time>2017-06-22T07:58:02Z</time>
      </trkpt>
      <trkpt lat="45.93507" lon="4.77267">
        <ele>170</ele>
        <time>2017-06-22T07:58:03Z</time>
      </trkpt>
      <trkpt lat="45.93508" lon="4.77274">
        <ele>170</ele>
        <time>2017-06-22T07:58:04Z</time>
      </trkpt>
      <trkpt lat="45.9351" lon="4.7728">
        <ele>170</ele>
        <time>2017-06-22T07:58:05Z</time>
      </trkpt>
      <trkpt lat="45.93511" lon="4.77287">
        <ele>170</ele>
        <time>2017-06-22T07:58:06Z</time>
      </trkpt>
      <trkpt lat="45.93513" lon="4.77294">
        <ele>170</ele>
        <time>2017-06-22T07:58:07Z</time>
      </trkpt>
      <trkpt lat="45.93514" lon="4.77301">
        <ele>170</ele>
        <time>2017-06-22T07:58:08Z</time>
      </trkpt>
      <trkpt lat="45.93516" lon="4.77309">
        <ele>170</ele>
        <time>2017-06-22T07:58:09Z</time>
      </trkpt>
      <trkpt lat="45.93518" lon="4.77316">
        <ele>170</ele>
        <time>2017-06-22T07:58:10Z</time>
      </trkpt>
      <trkpt lat="45.93519" lon="4.77324">
        <ele>170</ele>
        <time>2017-06-22T07:58:11Z</time>
      </trkpt>
      <trkpt lat="45.93521" lon="4.77331">
        <ele>170</ele>
        <time>2017-06-22T07:58:12Z</time>
      </trkpt>
      <trkpt lat="45.93523" lon="4.77339">
        <ele>170</ele>
        <time>2017-06-22T07:58:13Z</time>
      </trkpt>
      <trkpt lat="45.93524" lon="4.77346">
        <ele>170</ele>
        <time>2017-06-22T07:58:14Z</time>
      </trkpt>
      <trkpt lat="45.93525" lon="4.77353">
        <ele>170</ele>
        <time>2017-06-22T07:58:15Z</time>
      </trkpt>
      <trkpt lat="45.93527" lon="4.7736">
        <ele>170</ele>
        <time>2017-06-22T07:58:16Z</time>
      </trkpt>
      <trkpt lat="45.93529" lon="4.77367">
        <ele>170</ele>
        <time>2017-06-22T07:58:17Z</time>
      </trkpt>
      <trkpt lat="45.93531" lon="4.77374">
        <ele>170</ele>
        <time>2017-06-22T07:58:18Z</time>
      </trkpt>
      <trkpt lat="45.93533" lon="4.77382">
        <ele>170</ele>
        <time>2017-06-22T07:58:19Z</time>
      </trkpt>
      <trkpt lat="45.93534" lon="4.77389">
        <ele>170</ele>
        <time>2017-06-22T07:58:20Z</time>
      </trkpt>
      <trkpt lat="45.93535" lon="4.77396">
        <ele>170</ele>
        <time>2017-06-22T07:58:21Z</time>
      </trkpt>
      <trkpt lat="45.93537" lon="4.77403">
        <ele>170</ele>
        <time>2017-06-22T07:58:22Z</time>
      </trkpt>
      <trkpt lat="45.93538" lon="4.7741">
        <ele>170</ele>
        <time>2017-06-22T07:58:23Z</time>
      </trkpt>
      <trkpt lat="45.9354" lon="4.77417">
        <ele>170</ele>
        <time>2017-06-22T07:58:24Z</time>
      </trkpt>
      <trkpt lat="45.93541" lon="4.77424">
        <ele>170</ele>
        <time>2017-06-22T07:58:25Z</time>
      </trkpt>
      <trkpt lat="45.93543" lon="4.7743">
        <ele>169</ele>
        <time>2017-06-22T07:58:26Z</time>
      </trkpt>
      <trkpt lat="45.93544" lon="4.77437">
        <ele>169</ele>
        <time>2017-06-22T07:58:27Z</time>
      </trkpt>
      <trkpt lat="45.93545" lon="4.77444">
        <ele>169</ele>
        <time>2017-06-22T07:58:28Z</time>
      </trkpt>
      <trkpt lat="45.93547" lon="4.7745">
        <ele>169</ele>
        <time>2017-06-22T07:58:29Z</time>
      </trkpt>
      <trkpt lat="45.93548" lon="4.77456">
        <ele>169</ele>
        <time>2017-06-22T07:58:30Z</time>
      </trkpt>
      <trkpt lat="45.93552" lon="4.77468">
        <ele>169</ele>
        <time>2017-06-22T07:58:32Z</time>
      </trkpt>
      <trkpt lat="45.93553" lon="4.77475">
        <ele>169</ele>
        <time>2017-06-22T07:58:33Z</time>
      </trkpt>
      <trkpt lat="45.93555" lon="4.77481">
        <ele>169</ele>
        <time>2017-06-22T07:58:34Z</time>
      </trkpt>
      <trkpt lat="45.93556" lon="4.77487">
        <ele>169</ele>
        <time>2017-06-22T07:58:35Z</time>
      </trkpt>
      <trkpt lat="45.93558" lon="4.77494">
        <ele>169</ele>
        <time>2017-06-22T07:58:36Z</time>
      </trkpt>
      <trkpt lat="45.93559" lon="4.775">
        <ele>169</ele>
        <time>2017-06-22T07:58:37Z</time>
      </trkpt>
      <trkpt lat="45.93561" lon="4.77507">
        <ele>169</ele>
        <time>2017-06-22T07:58:38Z</time>
      </trkpt>
      <trkpt lat="45.93562" lon="4.77514">
        <ele>169</ele>
        <time>2017-06-22T07:58:39Z</time>
      </trkpt>
      <trkpt lat="45.93563" lon="4.77521">
        <ele>169</ele>
        <time>2017-06-22T07:58:40Z</time>
      </trkpt>
      <trkpt lat="45.93565" lon="4.77527">
        <ele>169</ele>
        <time>2017-06-22T07:58:41Z</time>
      </trkpt>
      <trkpt lat="45.93566" lon="4.77533">
        <ele>169</ele>
        <time>2017-06-22T07:58:42Z</time>
      </trkpt>
      <trkpt lat="45.93568" lon="4.77539">
        <ele>169</ele>
        <time>2017-06-22T07:58:43Z</time>
      </trkpt>
      <trkpt lat="45.93569" lon="4.77546">
        <ele>169</ele>
        <time>2017-06-22T07:58:44Z</time>
      </trkpt>
      <trkpt lat="45.9357" lon="4.77552">
        <ele>169</ele>
        <time>2017-06-22T07:58:45Z</time>
      </trkpt>
      <trkpt lat="45.93572" lon="4.77559">
        <ele>169</ele>
        <time>2017-06-22T07:58:46Z</time>
      </trkpt>
      <trkpt lat="45.93574" lon="4.77566">
        <ele>169</ele>
        <time>2017-06-22T07:58:47Z</time>
      </trkpt>
      <trkpt lat="45.93576" lon="4.77573">
        <ele>170</ele>
        <time>2017-06-22T07:58:48Z</time>
      </trkpt>
      <trkpt lat="45.93578" lon="4.7758">
        <ele>170</ele>
        <time>2017-06-22T07:58:49Z</time>
      </trkpt>
      <trkpt lat="45.9358" lon="4.77587">
        <ele>170</ele>
        <time>2017-06-22T07:58:50Z</time>
      </trkpt>
      <trkpt lat="45.93582" lon="4.77594">
        <ele>170</ele>
        <time>2017-06-22T07:58:51Z</time>
      </trkpt>
      <trkpt lat="45.93584" lon="4.77602">
        <ele>170</ele>
        <time>2017-06-22T07:58:52Z</time>
      </trkpt>
      <trkpt lat="45.93586" lon="4.77608">
        <ele>170</ele>
        <time>2017-06-22T07:58:53Z</time>
      </trkpt>
      <trkpt lat="45.93588" lon="4.77615">
        <ele>170</ele>
        <time>2017-06-22T07:58:54Z</time>
      </trkpt>
      <trkpt lat="45.93591" lon="4.77621">
        <ele>170</ele>
        <time>2017-06-22T07:58:55Z</time>
      </trkpt>
      <trkpt lat="45.93593" lon="4.77628">
        <ele>169</ele>
        <time>2017-06-22T07:58:56Z</time>
      </trkpt>
      <trkpt lat="45.93595" lon="4.77634">
        <ele>169</ele>
        <time>2017-06-22T07:58:57Z</time>
      </trkpt>
      <trkpt lat="45.93598" lon="4.7764">
        <ele>169</ele>
        <time>2017-06-22T07:58:58Z</time>
      </trkpt>
      <trkpt lat="45.93601" lon="4.77646">
        <ele>169</ele>
        <time>2017-06-22T07:58:59Z</time>
      </trkpt>
      <trkpt lat="45.93603" lon="4.77652">
        <ele>169</ele>
        <time>2017-06-22T07:59:00Z</time>
      </trkpt>
      <trkpt lat="45.93606" lon="4.77658">
        <ele>169</ele>
        <time>2017-06-22T07:59:01Z</time>
      </trkpt>
      <trkpt lat="45.93608" lon="4.77663">
        <ele>169</ele>
        <time>2017-06-22T07:59:02Z</time>
      </trkpt>
      <trkpt lat="45.93611" lon="4.77669">
        <ele>169</ele>
        <time>2017-06-22T07:59:03Z</time>
      </trkpt>
      <trkpt lat="45.93613" lon="4.77675">
        <ele>169</ele>
        <time>2017-06-22T07:59:04Z</time>
      </trkpt>
      <trkpt lat="45.93616" lon="4.77681">
        <ele>169</ele>
        <time>2017-06-22T07:59:05Z</time>
      </trkpt>
      <trkpt lat="45.93618" lon="4.77687">
        <ele>169</ele>
        <time>2017-06-22T07:59:06Z</time>
      </trkpt>
      <trkpt lat="45.93621" lon="4.77692">
        <ele>169</ele>
        <time>2017-06-22T07:59:07Z</time>
      </trkpt>
      <trkpt lat="45.93626" lon="4.77702">
        <ele>169</ele>
        <time>2017-06-22T07:59:09Z</time>
      </trkpt>
      <trkpt lat="45.93629" lon="4.77708">
        <ele>170</ele>
        <time>2017-06-22T07:59:10Z</time>
      </trkpt>
      <trkpt lat="45.93632" lon="4.77713">
        <ele>170</ele>
        <time>2017-06-22T07:59:11Z</time>
      </trkpt>
      <trkpt lat="45.93635" lon="4.77719">
        <ele>170</ele>
        <time>2017-06-22T07:59:12Z</time>
      </trkpt>
      <trkpt lat="45.93638" lon="4.77724">
        <ele>170</ele>
        <time>2017-06-22T07:59:13Z</time>
      </trkpt>
      <trkpt lat="45.93641" lon="4.7773">
        <ele>170</ele>
        <time>2017-06-22T07:59:14Z</time>
      </trkpt>
      <trkpt lat="45.93644" lon="4.77736">
        <ele>170</ele>
        <time>2017-06-22T07:59:15Z</time>
      </trkpt>
      <trkpt lat="45.93648" lon="4.77741">
        <ele>170</ele>
        <time>2017-06-22T07:59:16Z</time>
      </trkpt>
      <trkpt lat="45.93651" lon="4.77745">
        <ele>170</ele>
        <time>2017-06-22T07:59:17Z</time>
      </trkpt>
      <trkpt lat="45.93654" lon="4.7775">
        <ele>170</ele>
        <time>2017-06-22T07:59:18Z</time>
      </trkpt>
      <trkpt lat="45.93657" lon="4.77755">
        <ele>171</ele>
        <time>2017-06-22T07:59:19Z</time>
      </trkpt>
      <trkpt lat="45.93661" lon="4.7776">
        <ele>171</ele>
        <time>2017-06-22T07:59:20Z</time>
      </trkpt>
      <trkpt lat="45.93664" lon="4.77765">
        <ele>170</ele>
        <time>2017-06-22T07:59:21Z</time>
      </trkpt>
      <trkpt lat="45.93667" lon="4.7777">
        <ele>170</ele>
        <time>2017-06-22T07:59:22Z</time>
      </trkpt>
      <trkpt lat="45.93671" lon="4.77774">
        <ele>170</ele>
        <time>2017-06-22T07:59:23Z</time>
      </trkpt>
      <trkpt lat="45.93675" lon="4.77779">
        <ele>170</ele>
        <time>2017-06-22T07:59:24Z</time>
      </trkpt>
      <trkpt lat="45.93679" lon="4.77784">
        <ele>170</ele>
        <time>2017-06-22T07:59:25Z</time>
      </trkpt>
      <trkpt lat="45.93683" lon="4.77789">
        <ele>170</ele>
        <time>2017-06-22T07:59:26Z</time>
      </trkpt>
      <trkpt lat="45.93687" lon="4.77795">
        <ele>170</ele>
        <time>2017-06-22T07:59:27Z</time>
      </trkpt>
      <trkpt lat="45.93691" lon="4.778">
        <ele>169</ele>
        <time>2017-06-22T07:59:28Z</time>
      </trkpt>
      <trkpt lat="45.93695" lon="4.77805">
        <ele>169</ele>
        <time>2017-06-22T07:59:29Z</time>
      </trkpt>
      <trkpt lat="45.93698" lon="4.77809">
        <ele>169</ele>
        <time>2017-06-22T07:59:30Z</time>
      </trkpt>
      <trkpt lat="45.93704" lon="4.77818">
        <ele>169</ele>
        <time>2017-06-22T07:59:32Z</time>
      </trkpt>
      <trkpt lat="45.93707" lon="4.77823">
        <ele>169</ele>
        <time>2017-06-22T07:59:33Z</time>
      </trkpt>
      <trkpt lat="45.93713" lon="4.7783">
        <ele>169</ele>
        <time>2017-06-22T07:59:35Z</time>
      </trkpt>
      <trkpt lat="45.93716" lon="4.77834">
        <ele>167</ele>
        <time>2017-06-22T07:59:36Z</time>
      </trkpt>
      <trkpt lat="45.93722" lon="4.77841">
        <ele>167</ele>
        <time>2017-06-22T07:59:38Z</time>
      </trkpt>
      <trkpt lat="45.93725" lon="4.77845">
        <ele>167</ele>
        <time>2017-06-22T07:59:39Z</time>
      </trkpt>
      <trkpt lat="45.9373" lon="4.77853">
        <ele>167</ele>
        <time>2017-06-22T07:59:41Z</time>
      </trkpt>
      <trkpt lat="45.93733" lon="4.77857">
        <ele>167</ele>
        <time>2017-06-22T07:59:42Z</time>
      </trkpt>
      <trkpt lat="45.93738" lon="4.77865">
        <ele>167</ele>
        <time>2017-06-22T07:59:44Z</time>
      </trkpt>
      <trkpt lat="45.93741" lon="4.77868">
        <ele>167</ele>
        <time>2017-06-22T07:59:45Z</time>
      </trkpt>
      <trkpt lat="45.93746" lon="4.77875">
        <ele>167</ele>
        <time>2017-06-22T07:59:47Z</time>
      </trkpt>
      <trkpt lat="45.93748" lon="4.77878">
        <ele>167</ele>
        <time>2017-06-22T07:59:48Z</time>
      </trkpt>
      <trkpt lat="45.93753" lon="4.77885">
        <ele>166</ele>
        <time>2017-06-22T07:59:50Z</time>
      </trkpt>
      <trkpt lat="45.93756" lon="4.77889">
        <ele>166</ele>
        <time>2017-06-22T07:59:51Z</time>
      </trkpt>
      <trkpt lat="45.93762" lon="4.77896">
        <ele>166</ele>
        <time>2017-06-22T07:59:53Z</time>
      </trkpt>
      <trkpt lat="45.93765" lon="4.779">
        <ele>166</ele>
        <time>2017-06-22T07:59:54Z</time>
      </trkpt>
      <trkpt lat="45.93771" lon="4.77909">
        <ele>166</ele>
        <time>2017-06-22T07:59:56Z</time>
      </trkpt>
      <trkpt lat="45.93774" lon="4.77913">
        <ele>166</ele>
        <time>2017-06-22T07:59:57Z</time>
      </trkpt>
      <trkpt lat="45.9378" lon="4.7792">
        <ele>168</ele>
        <time>2017-06-22T07:59:59Z</time>
      </trkpt>
      <trkpt lat="45.93783" lon="4.77924">
        <ele>168</ele>
        <time>2017-06-22T08:00:00Z</time>
      </trkpt>
      <trkpt lat="45.93789" lon="4.77932">
        <ele>168</ele>
        <time>2017-06-22T08:00:02Z</time>
      </trkpt>
      <trkpt lat="45.93792" lon="4.77937">
        <ele>168</ele>
        <time>2017-06-22T08:00:03Z</time>
      </trkpt>
      <trkpt lat="45.93796" lon="4.77941">
        <ele>169</ele>
        <time>2017-06-22T08:00:04Z</time>
      </trkpt>
      <trkpt lat="45.93799" lon="4.77946">
        <ele>169</ele>
        <time>2017-06-22T08:00:05Z</time>
      </trkpt>
      <trkpt lat="45.93803" lon="4.7795">
        <ele>169</ele>
        <time>2017-06-22T08:00:06Z</time>
      </trkpt>
      <trkpt lat="45.93806" lon="4.77955">
        <ele>170</ele>
        <time>2017-06-22T08:00:07Z</time>
      </trkpt>
      <trkpt lat="45.9381" lon="4.77959">
        <ele>170</ele>
        <time>2017-06-22T08:00:08Z</time>
      </trkpt>
      <trkpt lat="45.93814" lon="4.77964">
        <ele>170</ele>
        <time>2017-06-22T08:00:09Z</time>
      </trkpt>
      <trkpt lat="45.93817" lon="4.77969">
        <ele>171</ele>
        <time>2017-06-22T08:00:10Z</time>
      </trkpt>
      <trkpt lat="45.93821" lon="4.77974">
        <ele>172</ele>
        <time>2017-06-22T08:00:11Z</time>
      </trkpt>
      <trkpt lat="45.93825" lon="4.77979">
        <ele>173</ele>
        <time>2017-06-22T08:00:12Z</time>
      </trkpt>
      <trkpt lat="45.93829" lon="4.77984">
        <ele>174</ele>
        <time>2017-06-22T08:00:13Z</time>
      </trkpt>
      <trkpt lat="45.93832" lon="4.77989">
        <ele>175</ele>
        <time>2017-06-22T08:00:14Z</time>
      </trkpt>
      <trkpt lat="45.93835" lon="4.77996">
        <ele>179</ele>
        <time>2017-06-22T08:00:15Z</time>
      </trkpt>
      <trkpt lat="45.93837" lon="4.78003">
        <ele>180</ele>
        <time>2017-06-22T08:00:16Z</time>
      </trkpt>
      <trkpt lat="45.93838" lon="4.78011">
        <ele>181</ele>
        <time>2017-06-22T08:00:17Z</time>
      </trkpt>
      <trkpt lat="45.9384" lon="4.78019">
        <ele>181</ele>
        <time>2017-06-22T08:00:18Z</time>
      </trkpt>
      <trkpt lat="45.93842" lon="4.78027">
        <ele>182</ele>
        <time>2017-06-22T08:00:19Z</time>
      </trkpt>
      <trkpt lat="45.93846" lon="4.78033">
        <ele>182</ele>
        <time>2017-06-22T08:00:20Z</time>
      </trkpt>
      <trkpt lat="45.9385" lon="4.78038">
        <ele>183</ele>
        <time>2017-06-22T08:00:21Z</time>
      </trkpt>
      <trkpt lat="45.93859" lon="4.78039">
        <ele>183</ele>
        <time>2017-06-22T08:00:23Z</time>
      </trkpt>
      <trkpt lat="45.93863" lon="4.78038">
        <ele>183</ele>
        <time>2017-06-22T08:00:24Z</time>
      </trkpt>
      <trkpt lat="45.9387" lon="4.78035">
        <ele>183</ele>
        <time>2017-06-22T08:00:26Z</time>
      </trkpt>
      <trkpt lat="45.93873" lon="4.78033">
        <ele>184</ele>
        <time>2017-06-22T08:00:27Z</time>
      </trkpt>
      <trkpt lat="45.93879" lon="4.7803">
        <ele>184</ele>
        <time>2017-06-22T08:00:29Z</time>
      </trkpt>
      <trkpt lat="45.93882" lon="4.78027">
        <ele>184</ele>
        <time>2017-06-22T08:00:30Z</time>
      </trkpt>
      <trkpt lat="45.93887" lon="4.78021">
        <ele>184</ele>
        <time>2017-06-22T08:00:32Z</time>
      </trkpt>
      <trkpt lat="45.9389" lon="4.78017">
        <ele>184</ele>
        <time>2017-06-22T08:00:33Z</time>
      </trkpt>
      <trkpt lat="45.93896" lon="4.78012">
        <ele>185</ele>
        <time>2017-06-22T08:00:35Z</time>
      </trkpt>
      <trkpt lat="45.93899" lon="4.7801">
        <ele>185</ele>
        <time>2017-06-22T08:00:36Z</time>
      </trkpt>
      <trkpt lat="45.93906" lon="4.78003">
        <ele>185</ele>
        <time>2017-06-22T08:00:39Z</time>
      </trkpt>
      <trkpt lat="45.93909" lon="4.78001">
        <ele>185</ele>
        <time>2017-06-22T08:00:40Z</time>
      </trkpt>
      <trkpt lat="45.93914" lon="4.77996">
        <ele>185</ele>
        <time>2017-06-22T08:00:43Z</time>
      </trkpt>
      <trkpt lat="45.93916" lon="4.77995">
        <ele>185</ele>
        <time>2017-06-22T08:00:44Z</time>
      </trkpt>
      <trkpt lat="45.93924" lon="4.77991">
        <ele>187</ele>
        <time>2017-06-22T08:00:47Z</time>
      </trkpt>
      <trkpt lat="45.93927" lon="4.7799">
        <ele>188</ele>
        <time>2017-06-22T08:00:48Z</time>
      </trkpt>
      <trkpt lat="45.93934" lon="4.77985">
        <ele>188</ele>
        <time>2017-06-22T08:00:51Z</time>
      </trkpt>
      <trkpt lat="45.93935" lon="4.77982">
        <ele>189</ele>
        <time>2017-06-22T08:00:52Z</time>
      </trkpt>
      <trkpt lat="45.93941" lon="4.77975">
        <ele>189</ele>
        <time>2017-06-22T08:00:55Z</time>
      </trkpt>
      <trkpt lat="45.93943" lon="4.77972">
        <ele>189</ele>
        <time>2017-06-22T08:00:56Z</time>
      </trkpt>
      <trkpt lat="45.9395" lon="4.77965">
        <ele>190</ele>
        <time>2017-06-22T08:00:59Z</time>
      </trkpt>
      <trkpt lat="45.93952" lon="4.77963">
        <ele>190</ele>
        <time>2017-06-22T08:01:00Z</time>
      </trkpt>
      <trkpt lat="45.93957" lon="4.77955">
        <ele>190</ele>
        <time>2017-06-22T08:01:02Z</time>
      </trkpt>
      <trkpt lat="45.9396" lon="4.77952">
        <ele>190</ele>
        <time>2017-06-22T08:01:03Z</time>
      </trkpt>
      <trkpt lat="45.93967" lon="4.77949">
        <ele>190</ele>
        <time>2017-06-22T08:01:06Z</time>
      </trkpt>
      <trkpt lat="45.9397" lon="4.7795">
        <ele>191</ele>
        <time>2017-06-22T08:01:07Z</time>
      </trkpt>
      <trkpt lat="45.93979" lon="4.7795">
        <ele>191</ele>
        <time>2017-06-22T08:01:10Z</time>
      </trkpt>
      <trkpt lat="45.93982" lon="4.77948">
        <ele>191</ele>
        <time>2017-06-22T08:01:11Z</time>
      </trkpt>
      <trkpt lat="45.93987" lon="4.77946">
        <ele>191</ele>
        <time>2017-06-22T08:01:13Z</time>
      </trkpt>
      <trkpt lat="45.93991" lon="4.77945">
        <ele>192</ele>
        <time>2017-06-22T08:01:14Z</time>
      </trkpt>
      <trkpt lat="45.93998" lon="4.77946">
        <ele>192</ele>
        <time>2017-06-22T08:01:17Z</time>
      </trkpt>
      <trkpt lat="45.94" lon="4.77947">
        <ele>199</ele>
        <time>2017-06-22T08:01:18Z</time>
      </trkpt>
      <trkpt lat="45.94007" lon="4.77952">
        <ele>199</ele>
        <time>2017-06-22T08:01:22Z</time>
      </trkpt>
      <trkpt lat="45.94009" lon="4.77953">
        <ele>199</ele>
        <time>2017-06-22T08:01:23Z</time>
      </trkpt>
      <trkpt lat="45.94012" lon="4.77963">
        <ele>200</ele>
        <time>2017-06-22T08:01:28Z</time>
      </trkpt>
      <trkpt lat="45.94012" lon="4.77967">
        <ele>200</ele>
        <time>2017-06-22T08:01:29Z</time>
      </trkpt>
      <trkpt lat="45.94013" lon="4.77979">
        <ele>199</ele>
        <time>2017-06-22T08:01:33Z</time>
      </trkpt>
      <trkpt lat="45.94013" lon="4.77982">
        <ele>199</ele>
        <time>2017-06-22T08:01:34Z</time>
      </trkpt>
      <trkpt lat="45.94014" lon="4.77991">
        <ele>199</ele>
        <time>2017-06-22T08:01:37Z</time>
      </trkpt>
      <trkpt lat="45.94015" lon="4.77995">
        <ele>199</ele>
        <time>2017-06-22T08:01:38Z</time>
      </trkpt>
      <trkpt lat="45.94014" lon="4.78005">
        <ele>199</ele>
        <time>2017-06-22T08:01:41Z</time>
      </trkpt>
      <trkpt lat="45.94014" lon="4.78008">
        <ele>199</ele>
        <time>2017-06-22T08:01:42Z</time>
      </trkpt>
      <trkpt lat="45.94014" lon="4.78019">
        <ele>200</ele>
        <time>2017-06-22T08:01:45Z</time>
      </trkpt>
      <trkpt lat="45.94014" lon="4.78022">
        <ele>201</ele>
        <time>2017-06-22T08:01:46Z</time>
      </trkpt>
      <trkpt lat="45.94014" lon="4.78035">
        <ele>201</ele>
        <time>2017-06-22T08:01:50Z</time>
      </trkpt>
      <trkpt lat="45.94013" lon="4.78038">
        <ele>201</ele>
        <time>2017-06-22T08:01:51Z</time>
      </trkpt>
      <trkpt lat="45.94011" lon="4.78048">
        <ele>201</ele>
        <time>2017-06-22T08:01:54Z</time>
      </trkpt>
      <trkpt lat="45.94009" lon="4.78053">
        <ele>201</ele>
        <time>2017-06-22T08:01:55Z</time>
      </trkpt>
      <trkpt lat="45.94007" lon="4.78057">
        <ele>201</ele>
        <time>2017-06-22T08:01:56Z</time>
      </trkpt>
      <trkpt lat="45.94003" lon="4.78062">
        <ele>201</ele>
        <time>2017-06-22T08:01:57Z</time>
      </trkpt>
      <trkpt lat="45.93999" lon="4.78071">
        <ele>197</ele>
        <time>2017-06-22T08:01:59Z</time>
      </trkpt>
      <trkpt lat="45.93998" lon="4.78076">
        <ele>197</ele>
        <time>2017-06-22T08:02:00Z</time>
      </trkpt>
      <trkpt lat="45.93995" lon="4.78085">
        <ele>198</ele>
        <time>2017-06-22T08:02:02Z</time>
      </trkpt>
      <trkpt lat="45.93995" lon="4.78088">
        <ele>198</ele>
        <time>2017-06-22T08:02:03Z</time>
      </trkpt>
      <trkpt lat="45.93992" lon="4.78101">
        <ele>197</ele>
        <time>2017-06-22T08:02:06Z</time>
      </trkpt>
      <trkpt lat="45.93992" lon="4.78105">
        <ele>197</ele>
        <time>2017-06-22T08:02:07Z</time>
      </trkpt>
      <trkpt lat="45.93991" lon="4.78117">
        <ele>197</ele>
        <time>2017-06-22T08:02:10Z</time>
      </trkpt>
      <trkpt lat="45.9399" lon="4.78121">
        <ele>197</ele>
        <time>2017-06-22T08:02:11Z</time>
      </trkpt>
      <trkpt lat="45.93989" lon="4.78132">
        <ele>197</ele>
        <time>2017-06-22T08:02:14Z</time>
      </trkpt>
      <trkpt lat="45.93989" lon="4.78137">
        <ele>197</ele>
        <time>2017-06-22T08:02:15Z</time>
      </trkpt>
      <trkpt lat="45.93989" lon="4.78146">
        <ele>198</ele>
        <time>2017-06-22T08:02:17Z</time>
      </trkpt>
      <trkpt lat="45.93989" lon="4.7815">
        <ele>198</ele>
        <time>2017-06-22T08:02:18Z</time>
      </trkpt>
      <trkpt lat="45.93993" lon="4.7816">
        <ele>199</ele>
        <time>2017-06-22T08:02:21Z</time>
      </trkpt>
      <trkpt lat="45.93995" lon="4.78162">
        <ele>200</ele>
        <time>2017-06-22T08:02:22Z</time>
      </trkpt>
      <trkpt lat="45.94002" lon="4.78168">
        <ele>201</ele>
        <time>2017-06-22T08:02:25Z</time>
      </trkpt>
      <trkpt lat="45.94004" lon="4.78171">
        <ele>202</ele>
        <time>2017-06-22T08:02:26Z</time>
      </trkpt>
      <trkpt lat="45.94009" lon="4.7818">
        <ele>203</ele>
        <time>2017-06-22T08:02:29Z</time>
      </trkpt>
      <trkpt lat="45.94012" lon="4.78182">
        <ele>203</ele>
        <time>2017-06-22T08:02:30Z</time>
      </trkpt>
      <trkpt lat="45.94018" lon="4.7819">
        <ele>204</ele>
        <time>2017-06-22T08:02:33Z</time>
      </trkpt>
      <trkpt lat="45.94019" lon="4.78192">
        <ele>204</ele>
        <time>2017-06-22T08:02:34Z</time>
      </trkpt>
      <trkpt lat="45.94025" lon="4.78198">
        <ele>204</ele>
        <time>2017-06-22T08:02:38Z</time>
      </trkpt>
      <trkpt lat="45.94027" lon="4.78199">
        <ele>204</ele>
        <time>2017-06-22T08:02:39Z</time>
      </trkpt>
      <trkpt lat="45.94035" lon="4.78199">
        <ele>204</ele>
        <time>2017-06-22T08:02:43Z</time>
      </trkpt>
      <trkpt lat="45.94037" lon="4.782">
        <ele>205</ele>
        <time>2017-06-22T08:02:44Z</time>
      </trkpt>
      <trkpt lat="45.94043" lon="4.78204">
        <ele>205</ele>
        <time>2017-06-22T08:02:48Z</time>
      </trkpt>
      <trkpt lat="45.94046" lon="4.78207">
        <ele>205</ele>
        <time>2017-06-22T08:02:49Z</time>
      </trkpt>
      <trkpt lat="45.94051" lon="4.78213">
        <ele>205</ele>
        <time>2017-06-22T08:02:51Z</time>
      </trkpt>
      <trkpt lat="45.94054" lon="4.78217">
        <ele>205</ele>
        <time>2017-06-22T08:02:52Z</time>
      </trkpt>
      <trkpt lat="45.94061" lon="4.78224">
        <ele>206</ele>
        <time>2017-06-22T08:02:55Z</time>
      </trkpt>
      <trkpt lat="45.94063" lon="4.78226">
        <ele>206</ele>
        <time>2017-06-22T08:02:56Z</time>
      </trkpt>
      <trkpt lat="45.94071" lon="4.78229">
        <ele>206</ele>
        <time>2017-06-22T08:02:59Z</time>
      </trkpt>
      <trkpt lat="45.94073" lon="4.7823">
        <ele>206</ele>
        <time>2017-06-22T08:03:00Z</time>
      </trkpt>
      <trkpt lat="45.94081" lon="4.78232">
        <ele>207</ele>
        <time>2017-06-22T08:03:04Z</time>
      </trkpt>
      <trkpt lat="45.94083" lon="4.78233">
        <ele>207</ele>
        <time>2017-06-22T08:03:05Z</time>
      </trkpt>
      <trkpt lat="45.94089" lon="4.78236">
        <ele>211</ele>
        <time>2017-06-22T08:03:09Z</time>
      </trkpt>
      <trkpt lat="45.94092" lon="4.78239">
        <ele>211</ele>
        <time>2017-06-22T08:03:10Z</time>
      </trkpt>
      <trkpt lat="45.94099" lon="4.78245">
        <ele>212</ele>
        <time>2017-06-22T08:03:13Z</time>
      </trkpt>
      <trkpt lat="45.94101" lon="4.78247">
        <ele>212</ele>
        <time>2017-06-22T08:03:14Z</time>
      </trkpt>
      <trkpt lat="45.94107" lon="4.78255">
        <ele>212</ele>
        <time>2017-06-22T08:03:17Z</time>
      </trkpt>
      <trkpt lat="45.94108" lon="4.78258">
        <ele>212</ele>
        <time>2017-06-22T08:03:18Z</time>
      </trkpt>
      <trkpt lat="45.94112" lon="4.78267">
        <ele>213</ele>
        <time>2017-06-22T08:03:21Z</time>
      </trkpt>
      <trkpt lat="45.94112" lon="4.7827">
        <ele>213</ele>
        <time>2017-06-22T08:03:22Z</time>
      </trkpt>
      <trkpt lat="45.94119" lon="4.78278">
        <ele>213</ele>
        <time>2017-06-22T08:03:26Z</time>
      </trkpt>
      <trkpt lat="45.94121" lon="4.78279">
        <ele>213</ele>
        <time>2017-06-22T08:03:27Z</time>
      </trkpt>
      <trkpt lat="45.94129" lon="4.78284">
        <ele>214</ele>
        <time>2017-06-22T08:03:30Z</time>
      </trkpt>
      <trkpt lat="45.94133" lon="4.78284">
        <ele>214</ele>
        <time>2017-06-22T08:03:31Z</time>
      </trkpt>
      <trkpt lat="45.94141" lon="4.78287">
        <ele>215</ele>
        <time>2017-06-22T08:03:34Z</time>
      </trkpt>
      <trkpt lat="45.94143" lon="4.78288">
        <ele>215</ele>
        <time>2017-06-22T08:03:35Z</time>
      </trkpt>
      <trkpt lat="45.94151" lon="4.78289">
        <ele>215</ele>
        <time>2017-06-22T08:03:39Z</time>
      </trkpt>
      <trkpt lat="45.94154" lon="4.7829">
        <ele>215</ele>
        <time>2017-06-22T08:03:40Z</time>
      </trkpt>
      <trkpt lat="45.94162" lon="4.7829">
        <ele>215</ele>
        <time>2017-06-22T08:03:44Z</time>
      </trkpt>
      <trkpt lat="45.94164" lon="4.7829">
        <ele>216</ele>
        <time>2017-06-22T08:03:45Z</time>
      </trkpt>
      <trkpt lat="45.9417" lon="4.78297">
        <ele>220</ele>
        <time>2017-06-22T08:03:48Z</time>
      </trkpt>
      <trkpt lat="45.9417" lon="4.78301">
        <ele>220</ele>
        <time>2017-06-22T08:03:49Z</time>
      </trkpt>
      <trkpt lat="45.94177" lon="4.78306">
        <ele>220</ele>
        <time>2017-06-22T08:03:52Z</time>
      </trkpt>
      <trkpt lat="45.94179" lon="4.78308">
        <ele>220</ele>
        <time>2017-06-22T08:03:53Z</time>
      </trkpt>
      <trkpt lat="45.94187" lon="4.78308">
        <ele>220</ele>
        <time>2017-06-22T08:03:56Z</time>
      </trkpt>
      <trkpt lat="45.94189" lon="4.78309">
        <ele>220</ele>
        <time>2017-06-22T08:03:57Z</time>
      </trkpt>
      <trkpt lat="45.94197" lon="4.78306">
        <ele>221</ele>
        <time>2017-06-22T08:04:00Z</time>
      </trkpt>
      <trkpt lat="45.942" lon="4.78304">
        <ele>221</ele>
        <time>2017-06-22T08:04:01Z</time>
      </trkpt>
      <trkpt lat="45.94206" lon="4.78307">
        <ele>221</ele>
        <time>2017-06-22T08:04:03Z</time>
      </trkpt>
      <trkpt lat="45.94208" lon="4.78309">
        <ele>221</ele>
        <time>2017-06-22T08:04:04Z</time>
      </trkpt>
      <trkpt lat="45.94216" lon="4.78312">
        <ele>221</ele>
        <time>2017-06-22T08:04:07Z</time>
      </trkpt>
      <trkpt lat="45.94219" lon="4.78312">
        <ele>221</ele>
        <time>2017-06-22T08:04:08Z</time>
      </trkpt>
      <trkpt lat="45.94227" lon="4.78313">
        <ele>221</ele>
        <time>2017-06-22T08:04:11Z</time>
      </trkpt>
      <trkpt lat="45.9423" lon="4.78313">
        <ele>221</ele>
        <time>2017-06-22T08:04:12Z</time>
      </trkpt>
      <trkpt lat="45.94237" lon="4.78315">
        <ele>221</ele>
        <time>2017-06-22T08:04:15Z</time>
      </trkpt>
      <trkpt lat="45.94239" lon="4.78315">
        <ele>221</ele>
        <time>2017-06-22T08:04:16Z</time>
      </trkpt>
      <trkpt lat="45.94246" lon="4.78317">
        <ele>221</ele>
        <time>2017-06-22T08:04:19Z</time>
      </trkpt>
      <trkpt lat="45.94248" lon="4.78318">
        <ele>221</ele>
        <time>2017-06-22T08:04:20Z</time>
      </trkpt>
      <trkpt lat="45.94257" lon="4.78322">
        <ele>224</ele>
        <time>2017-06-22T08:04:24Z</time>
      </trkpt>
      <trkpt lat="45.94259" lon="4.78323">
        <ele>224</ele>
        <time>2017-06-22T08:04:25Z</time>
      </trkpt>
      <trkpt lat="45.94266" lon="4.78328">
        <ele>225</ele>
        <time>2017-06-22T08:04:29Z</time>
      </trkpt>
      <trkpt lat="45.94268" lon="4.78329">
        <ele>225</ele>
        <time>2017-06-22T08:04:30Z</time>
      </trkpt>
      <trkpt lat="45.94274" lon="4.78334">
        <ele>226</ele>
        <time>2017-06-22T08:04:33Z</time>
      </trkpt>
      <trkpt lat="45.94276" lon="4.78336">
        <ele>226</ele>
        <time>2017-06-22T08:04:34Z</time>
      </trkpt>
      <trkpt lat="45.94282" lon="4.78343">
        <ele>227</ele>
        <time>2017-06-22T08:04:38Z</time>
      </trkpt>
      <trkpt lat="45.94284" lon="4.78345">
        <ele>228</ele>
        <time>2017-06-22T08:04:39Z</time>
      </trkpt>
      <trkpt lat="45.94289" lon="4.78353">
        <ele>228</ele>
        <time>2017-06-22T08:04:42Z</time>
      </trkpt>
      <trkpt lat="45.9429" lon="4.78356">
        <ele>228</ele>
        <time>2017-06-22T08:04:43Z</time>
      </trkpt>
      <trkpt lat="45.94298" lon="4.7836">
        <ele>229</ele>
        <time>2017-06-22T08:04:46Z</time>
      </trkpt>
      <trkpt lat="45.94299" lon="4.78361">
        <ele>229</ele>
        <time>2017-06-22T08:04:47Z</time>
      </trkpt>
      <trkpt lat="45.94304" lon="4.78372">
        <ele>229</ele>
        <time>2017-06-22T08:04:51Z</time>
      </trkpt>
      <trkpt lat="45.94306" lon="4.78374">
        <ele>229</ele>
        <time>2017-06-22T08:04:52Z</time>
      </trkpt>
      <trkpt lat="45.94309" lon="4.78384">
        <ele>230</ele>
        <time>2017-06-22T08:04:55Z</time>
      </trkpt>
      <trkpt lat="45.9431" lon="4.78387">
        <ele>230</ele>
        <time>2017-06-22T08:04:56Z</time>
      </trkpt>
      <trkpt lat="45.94313" lon="4.78397">
        <ele>230</ele>
        <time>2017-06-22T08:05:00Z</time>
      </trkpt>
      <trkpt lat="45.94315" lon="4.78399">
        <ele>230</ele>
        <time>2017-06-22T08:05:01Z</time>
      </trkpt>
      <trkpt lat="45.94319" lon="4.78409">
        <ele>230</ele>
        <time>2017-06-22T08:05:04Z</time>
      </trkpt>
      <trkpt lat="45.9432" lon="4.78412">
        <ele>230</ele>
        <time>2017-06-22T08:05:05Z</time>
      </trkpt>
      <trkpt lat="45.94325" lon="4.7842">
        <ele>232</ele>
        <time>2017-06-22T08:05:08Z</time>
      </trkpt>
      <trkpt lat="45.94327" lon="4.78423">
        <ele>232</ele>
        <time>2017-06-22T08:05:09Z</time>
      </trkpt>
      <trkpt lat="45.94332" lon="4.7843">
        <ele>234</ele>
        <time>2017-06-22T08:05:12Z</time>
      </trkpt>
      <trkpt lat="45.94334" lon="4.78434">
        <ele>233</ele>
        <time>2017-06-22T08:05:13Z</time>
      </trkpt>
      <trkpt lat="45.94339" lon="4.78444">
        <ele>234</ele>
        <time>2017-06-22T08:05:16Z</time>
      </trkpt>
      <trkpt lat="45.9434" lon="4.78447">
        <ele>234</ele>
        <time>2017-06-22T08:05:17Z</time>
      </trkpt>
      <trkpt lat="45.94346" lon="4.78457">
        <ele>235</ele>
        <time>2017-06-22T08:05:21Z</time>
      </trkpt>
      <trkpt lat="45.94348" lon="4.78459">
        <ele>235</ele>
        <time>2017-06-22T08:05:22Z</time>
      </trkpt>
      <trkpt lat="45.94355" lon="4.78466">
        <ele>236</ele>
        <time>2017-06-22T08:05:26Z</time>
      </trkpt>
      <trkpt lat="45.94357" lon="4.78468">
        <ele>236</ele>
        <time>2017-06-22T08:05:27Z</time>
      </trkpt>
      <trkpt lat="45.94362" lon="4.78474">
        <ele>236</ele>
        <time>2017-06-22T08:05:30Z</time>
      </trkpt>
      <trkpt lat="45.94364" lon="4.78477">
        <ele>236</ele>
        <time>2017-06-22T08:05:31Z</time>
      </trkpt>
      <trkpt lat="45.9437" lon="4.78483">
        <ele>236</ele>
        <time>2017-06-22T08:05:34Z</time>
      </trkpt>
      <trkpt lat="45.94373" lon="4.78484">
        <ele>236</ele>
        <time>2017-06-22T08:05:35Z</time>
      </trkpt>
      <trkpt lat="45.94379" lon="4.78492">
        <ele>236</ele>
        <time>2017-06-22T08:05:38Z</time>
      </trkpt>
      <trkpt lat="45.9438" lon="4.78493">
        <ele>236</ele>
        <time>2017-06-22T08:05:39Z</time>
      </trkpt>
      <trkpt lat="45.94387" lon="4.78502">
        <ele>238</ele>
        <time>2017-06-22T08:05:43Z</time>
      </trkpt>
      <trkpt lat="45.94388" lon="4.78503">
        <ele>237</ele>
        <time>2017-06-22T08:05:44Z</time>
      </trkpt>
      <trkpt lat="45.94395" lon="4.78511">
        <ele>237</ele>
        <time>2017-06-22T08:05:48Z</time>
      </trkpt>
      <trkpt lat="45.94396" lon="4.78514">
        <ele>237</ele>
        <time>2017-06-22T08:05:49Z</time>
      </trkpt>
      <trkpt lat="45.944" lon="4.78521">
        <ele>237</ele>
        <time>2017-06-22T08:05:52Z</time>
      </trkpt>
      <trkpt lat="45.94402" lon="4.78524">
        <ele>237</ele>
        <time>2017-06-22T08:05:53Z</time>
      </trkpt>
      <trkpt lat="45.94409" lon="4.78531">
        <ele>237</ele>
        <time>2017-06-22T08:05:57Z</time>
      </trkpt>
      <trkpt lat="45.9441" lon="4.78534">
        <ele>238</ele>
        <time>2017-06-22T08:05:58Z</time>
      </trkpt>
      <trkpt lat="45.94415" lon="4.78543">
        <ele>238</ele>
        <time>2017-06-22T08:06:01Z</time>
      </trkpt>
      <trkpt lat="45.94417" lon="4.78546">
        <ele>238</ele>
        <time>2017-06-22T08:06:02Z</time>
      </trkpt>
      <trkpt lat="45.94422" lon="4.78555">
        <ele>238</ele>
        <time>2017-06-22T08:06:05Z</time>
      </trkpt>
      <trkpt lat="45.94425" lon="4.78559">
        <ele>238</ele>
        <time>2017-06-22T08:06:06Z</time>
      </trkpt>
      <trkpt lat="45.9443" lon="4.78566">
        <ele>238</ele>
        <time>2017-06-22T08:06:09Z</time>
      </trkpt>
      <trkpt lat="45.94431" lon="4.78569">
        <ele>238</ele>
        <time>2017-06-22T08:06:10Z</time>
      </trkpt>
      <trkpt lat="45.94436" lon="4.78575">
        <ele>238</ele>
        <time>2017-06-22T08:06:13Z</time>
      </trkpt>
      <trkpt lat="45.94438" lon="4.78578">
        <ele>238</ele>
        <time>2017-06-22T08:06:14Z</time>
      </trkpt>
      <trkpt lat="45.94443" lon="4.78586">
        <ele>239</ele>
        <time>2017-06-22T08:06:17Z</time>
      </trkpt>
      <trkpt lat="45.94445" lon="4.78588">
        <ele>239</ele>
        <time>2017-06-22T08:06:18Z</time>
      </trkpt>
      <trkpt lat="45.94451" lon="4.78595">
        <ele>240</ele>
        <time>2017-06-22T08:06:21Z</time>
      </trkpt>
      <trkpt lat="45.94453" lon="4.78598">
        <ele>240</ele>
        <time>2017-06-22T08:06:22Z</time>
      </trkpt>
      <trkpt lat="45.94457" lon="4.78606">
        <ele>240</ele>
        <time>2017-06-22T08:06:25Z</time>
      </trkpt>
      <trkpt lat="45.94458" lon="4.78609">
        <ele>241</ele>
        <time>2017-06-22T08:06:26Z</time>
      </trkpt>
      <trkpt lat="45.94461" lon="4.78619">
        <ele>241</ele>
        <time>2017-06-22T08:06:30Z</time>
      </trkpt>
      <trkpt lat="45.94462" lon="4.78622">
        <ele>241</ele>
        <time>2017-06-22T08:06:31Z</time>
      </trkpt>
      <trkpt lat="45.94464" lon="4.78633">
        <ele>241</ele>
        <time>2017-06-22T08:06:35Z</time>
      </trkpt>
      <trkpt lat="45.94464" lon="4.78634">
        <ele>241</ele>
        <time>2017-06-22T08:06:36Z</time>
      </trkpt>
      <trkpt lat="45.94468" lon="4.78646">
        <ele>241</ele>
        <time>2017-06-22T08:06:41Z</time>
      </trkpt>
      <trkpt lat="45.94469" lon="4.78648">
        <ele>241</ele>
        <time>2017-06-22T08:06:42Z</time>
      </trkpt>
      <trkpt lat="45.94472" lon="4.78659">
        <ele>241</ele>
        <time>2017-06-22T08:06:45Z</time>
      </trkpt>
      <trkpt lat="45.94472" lon="4.78663">
        <ele>241</ele>
        <time>2017-06-22T08:06:46Z</time>
      </trkpt>
      <trkpt lat="45.94472" lon="4.78675">
        <ele>244</ele>
        <time>2017-06-22T08:06:50Z</time>
      </trkpt>
      <trkpt lat="45.94473" lon="4.78677">
        <ele>244</ele>
        <time>2017-06-22T08:06:51Z</time>
      </trkpt>
      <trkpt lat="45.94474" lon="4.78689">
        <ele>244</ele>
        <time>2017-06-22T08:06:55Z</time>
      </trkpt>
      <trkpt lat="45.94474" lon="4.78692">
        <ele>244</ele>
        <time>2017-06-22T08:06:56Z</time>
      </trkpt>
      <trkpt lat="45.94475" lon="4.78704">
        <ele>245</ele>
        <time>2017-06-22T08:07:00Z</time>
      </trkpt>
      <trkpt lat="45.94475" lon="4.78707">
        <ele>245</ele>
        <time>2017-06-22T08:07:01Z</time>
      </trkpt>
      <trkpt lat="45.94477" lon="4.78719">
        <ele>245</ele>
        <time>2017-06-22T08:07:06Z</time>
      </trkpt>
      <trkpt lat="45.94478" lon="4.78723">
        <ele>246</ele>
        <time>2017-06-22T08:07:07Z</time>
      </trkpt>
      <trkpt lat="45.94479" lon="4.78733">
        <ele>246</ele>
        <time>2017-06-22T08:07:11Z</time>
      </trkpt>
      <trkpt lat="45.94479" lon="4.78736">
        <ele>246</ele>
        <time>2017-06-22T08:07:12Z</time>
      </trkpt>
      <trkpt lat="45.94479" lon="4.78747">
        <ele>246</ele>
        <time>2017-06-22T08:07:16Z</time>
      </trkpt>
      <trkpt lat="45.94479" lon="4.78749">
        <ele>246</ele>
        <time>2017-06-22T08:07:17Z</time>
      </trkpt>
      <trkpt lat="45.94477" lon="4.7876">
        <ele>249</ele>
        <time>2017-06-22T08:07:22Z</time>
      </trkpt>
      <trkpt lat="45.94477" lon="4.78762">
        <ele>249</ele>
        <time>2017-06-22T08:07:23Z</time>
      </trkpt>
      <trkpt lat="45.94474" lon="4.78771">
        <ele>250</ele>
        <time>2017-06-22T08:07:28Z</time>
      </trkpt>
      <trkpt lat="45.94473" lon="4.78774">
        <ele>250</ele>
        <time>2017-06-22T08:07:29Z</time>
      </trkpt>
      <trkpt lat="45.94469" lon="4.78784">
        <ele>250</ele>
        <time>2017-06-22T08:07:33Z</time>
      </trkpt>
      <trkpt lat="45.94468" lon="4.78787">
        <ele>250</ele>
        <time>2017-06-22T08:07:34Z</time>
      </trkpt>
      <trkpt lat="45.94463" lon="4.78796">
        <ele>251</ele>
        <time>2017-06-22T08:07:38Z</time>
      </trkpt>
      <trkpt lat="45.94462" lon="4.78802">
        <ele>251</ele>
        <time>2017-06-22T08:07:39Z</time>
      </trkpt>
      <trkpt lat="45.94458" lon="4.7881">
        <ele>251</ele>
        <time>2017-06-22T08:07:42Z</time>
      </trkpt>
      <trkpt lat="45.94456" lon="4.78813">
        <ele>251</ele>
        <time>2017-06-22T08:07:43Z</time>
      </trkpt>
      <trkpt lat="45.94453" lon="4.78822">
        <ele>251</ele>
        <time>2017-06-22T08:07:46Z</time>
      </trkpt>
      <trkpt lat="45.94452" lon="4.78826">
        <ele>251</ele>
        <time>2017-06-22T08:07:47Z</time>
      </trkpt>
      <trkpt lat="45.9445" lon="4.78838">
        <ele>253</ele>
        <time>2017-06-22T08:07:51Z</time>
      </trkpt>
      <trkpt lat="45.94449" lon="4.78841">
        <ele>253</ele>
        <time>2017-06-22T08:07:52Z</time>
      </trkpt>
      <trkpt lat="45.94448" lon="4.78852">
        <ele>253</ele>
        <time>2017-06-22T08:07:58Z</time>
      </trkpt>
      <trkpt lat="45.94447" lon="4.78855">
        <ele>253</ele>
        <time>2017-06-22T08:07:59Z</time>
      </trkpt>
      <trkpt lat="45.94445" lon="4.78867">
        <ele>253</ele>
        <time>2017-06-22T08:08:07Z</time>
      </trkpt>
      <trkpt lat="45.94445" lon="4.78869">
        <ele>253</ele>
        <time>2017-06-22T08:08:08Z</time>
      </trkpt>
      <trkpt lat="45.94447" lon="4.7888">
        <ele>253</ele>
        <time>2017-06-22T08:08:13Z</time>
      </trkpt>
      <trkpt lat="45.94447" lon="4.78883">
        <ele>253</ele>
        <time>2017-06-22T08:08:14Z</time>
      </trkpt>
      <trkpt lat="45.94449" lon="4.78894">
        <ele>253</ele>
        <time>2017-06-22T08:08:19Z</time>
      </trkpt>
      <trkpt lat="45.9445" lon="4.78896">
        <ele>253</ele>
        <time>2017-06-22T08:08:20Z</time>
      </trkpt>
      <trkpt lat="45.94454" lon="4.78906">
        <ele>253</ele>
        <time>2017-06-22T08:08:24Z</time>
      </trkpt>
      <trkpt lat="45.94455" lon="4.78908">
        <ele>253</ele>
        <time>2017-06-22T08:08:25Z</time>
      </trkpt>
      <trkpt lat="45.94456" lon="4.78919">
        <ele>254</ele>
        <time>2017-06-22T08:08:30Z</time>
      </trkpt>
      <trkpt lat="45.94456" lon="4.78922">
        <ele>254</ele>
        <time>2017-06-22T08:08:31Z</time>
      </trkpt>
      <trkpt lat="45.94459" lon="4.78933">
        <ele>254</ele>
        <time>2017-06-22T08:08:35Z</time>
      </trkpt>
      <trkpt lat="45.9446" lon="4.78936">
        <ele>254</ele>
        <time>2017-06-22T08:08:36Z</time>
      </trkpt>
      <trkpt lat="45.94462" lon="4.78944">
        <ele>254</ele>
        <time>2017-06-22T08:08:39Z</time>
      </trkpt>
      <trkpt lat="45.94462" lon="4.78949">
        <ele>254</ele>
        <time>2017-06-22T08:08:40Z</time>
      </trkpt>
      <trkpt lat="45.94466" lon="4.7896">
        <ele>254</ele>
        <time>2017-06-22T08:08:45Z</time>
      </trkpt>
      <trkpt lat="45.94467" lon="4.78961">
        <ele>254</ele>
        <time>2017-06-22T08:08:46Z</time>
      </trkpt>
      <trkpt lat="45.94473" lon="4.78968">
        <ele>254</ele>
        <time>2017-06-22T08:08:50Z</time>
      </trkpt>
      <trkpt lat="45.94475" lon="4.78969">
        <ele>254</ele>
        <time>2017-06-22T08:08:51Z</time>
      </trkpt>
      <trkpt lat="45.94482" lon="4.78977">
        <ele>254</ele>
        <time>2017-06-22T08:08:55Z</time>
      </trkpt>
      <trkpt lat="45.94484" lon="4.78979">
        <ele>254</ele>
        <time>2017-06-22T08:08:56Z</time>
      </trkpt>
      <trkpt lat="45.94489" lon="4.78987">
        <ele>254</ele>
        <time>2017-06-22T08:08:59Z</time>
      </trkpt>
      <trkpt lat="45.94489" lon="4.7899">
        <ele>254</ele>
        <time>2017-06-22T08:09:00Z</time>
      </trkpt>
      <trkpt lat="45.94494" lon="4.79">
        <ele>254</ele>
        <time>2017-06-22T08:09:04Z</time>
      </trkpt>
      <trkpt lat="45.94495" lon="4.79002">
        <ele>254</ele>
        <time>2017-06-22T08:09:05Z</time>
      </trkpt>
      <trkpt lat="45.94501" lon="4.79011">
        <ele>254</ele>
        <time>2017-06-22T08:09:09Z</time>
      </trkpt>
      <trkpt lat="45.94502" lon="4.79014">
        <ele>255</ele>
        <time>2017-06-22T08:09:10Z</time>
      </trkpt>
      <trkpt lat="45.94507" lon="4.79021">
        <ele>255</ele>
        <time>2017-06-22T08:09:13Z</time>
      </trkpt>
      <trkpt lat="45.9451" lon="4.79022">
        <ele>255</ele>
        <time>2017-06-22T08:09:14Z</time>
      </trkpt>
      <trkpt lat="45.94514" lon="4.79033">
        <ele>255</ele>
        <time>2017-06-22T08:09:18Z</time>
      </trkpt>
      <trkpt lat="45.94514" lon="4.79036">
        <ele>255</ele>
        <time>2017-06-22T08:09:19Z</time>
      </trkpt>
      <trkpt lat="45.94516" lon="4.79046">
        <ele>255</ele>
        <time>2017-06-22T08:09:22Z</time>
      </trkpt>
      <trkpt lat="45.94518" lon="4.79049">
        <ele>255</ele>
        <time>2017-06-22T08:09:23Z</time>
      </trkpt>
      <trkpt lat="45.94521" lon="4.7906">
        <ele>255</ele>
        <time>2017-06-22T08:09:26Z</time>
      </trkpt>
      <trkpt lat="45.94523" lon="4.79064">
        <ele>255</ele>
        <time>2017-06-22T08:09:27Z</time>
      </trkpt>
      <trkpt lat="45.94527" lon="4.79071">
        <ele>255</ele>
        <time>2017-06-22T08:09:29Z</time>
      </trkpt>
      <trkpt lat="45.9453" lon="4.79075">
        <ele>255</ele>
        <time>2017-06-22T08:09:30Z</time>
      </trkpt>
      <trkpt lat="45.94532" lon="4.79085">
        <ele>256</ele>
        <time>2017-06-22T08:09:32Z</time>
      </trkpt>
      <trkpt lat="45.94534" lon="4.79092">
        <ele>256</ele>
        <time>2017-06-22T08:09:33Z</time>
      </trkpt>
      <trkpt lat="45.94538" lon="4.79102">
        <ele>256</ele>
        <time>2017-06-22T08:09:35Z</time>
      </trkpt>
      <trkpt lat="45.94541" lon="4.79105">
        <ele>256</ele>
        <time>2017-06-22T08:09:36Z</time>
      </trkpt>
      <trkpt lat="45.94545" lon="4.79112">
        <ele>256</ele>
        <time>2017-06-22T08:09:38Z</time>
      </trkpt>
      <trkpt lat="45.94548" lon="4.79115">
        <ele>256</ele>
        <time>2017-06-22T08:09:39Z</time>
      </trkpt>
      <trkpt lat="45.94552" lon="4.79122">
        <ele>257</ele>
        <time>2017-06-22T08:09:41Z</time>
      </trkpt>
      <trkpt lat="45.94555" lon="4.79129">
        <ele>257</ele>
        <time>2017-06-22T08:09:42Z</time>
      </trkpt>
      <trkpt lat="45.94559" lon="4.79137">
        <ele>257</ele>
        <time>2017-06-22T08:09:44Z</time>
      </trkpt>
      <trkpt lat="45.94561" lon="4.79141">
        <ele>257</ele>
        <time>2017-06-22T08:09:45Z</time>
      </trkpt>
      <trkpt lat="45.94566" lon="4.7915">
        <ele>257</ele>
        <time>2017-06-22T08:09:47Z</time>
      </trkpt>
      <trkpt lat="45.94569" lon="4.79156">
        <ele>258</ele>
        <time>2017-06-22T08:09:48Z</time>
      </trkpt>
      <trkpt lat="45.94574" lon="4.79165">
        <ele>258</ele>
        <time>2017-06-22T08:09:50Z</time>
      </trkpt>
      <trkpt lat="45.94576" lon="4.7917">
        <ele>258</ele>
        <time>2017-06-22T08:09:51Z</time>
      </trkpt>
      <trkpt lat="45.94581" lon="4.79179">
        <ele>257</ele>
        <time>2017-06-22T08:09:53Z</time>
      </trkpt>
      <trkpt lat="45.94583" lon="4.79183">
        <ele>257</ele>
        <time>2017-06-22T08:09:54Z</time>
      </trkpt>
      <trkpt lat="45.94587" lon="4.79191">
        <ele>258</ele>
        <time>2017-06-22T08:09:56Z</time>
      </trkpt>
      <trkpt lat="45.9459" lon="4.79195">
        <ele>257</ele>
        <time>2017-06-22T08:09:57Z</time>
      </trkpt>
      <trkpt lat="45.94594" lon="4.79204">
        <ele>257</ele>
        <time>2017-06-22T08:09:59Z</time>
      </trkpt>
      <trkpt lat="45.94597" lon="4.79208">
        <ele>257</ele>
        <time>2017-06-22T08:10:00Z</time>
      </trkpt>
      <trkpt lat="45.94602" lon="4.79218">
        <ele>257</ele>
        <time>2017-06-22T08:10:02Z</time>
      </trkpt>
      <trkpt lat="45.94605" lon="4.79222">
        <ele>256</ele>
        <time>2017-06-22T08:10:03Z</time>
      </trkpt>
      <trkpt lat="45.94609" lon="4.79232">
        <ele>256</ele>
        <time>2017-06-22T08:10:05Z</time>
      </trkpt>
      <trkpt lat="45.94611" lon="4.79236">
        <ele>256</ele>
        <time>2017-06-22T08:10:06Z</time>
      </trkpt>
      <trkpt lat="45.94615" lon="4.79244">
        <ele>256</ele>
        <time>2017-06-22T08:10:08Z</time>
      </trkpt>
      <trkpt lat="45.94617" lon="4.79251">
        <ele>255</ele>
        <time>2017-06-22T08:10:09Z</time>
      </trkpt>
      <trkpt lat="45.9462" lon="4.79257">
        <ele>255</ele>
        <time>2017-06-22T08:10:10Z</time>
      </trkpt>
      <trkpt lat="45.94622" lon="4.79263">
        <ele>255</ele>
        <time>2017-06-22T08:10:11Z</time>
      </trkpt>
      <trkpt lat="45.94626" lon="4.79268">
        <ele>254</ele>
        <time>2017-06-22T08:10:12Z</time>
      </trkpt>
      <trkpt lat="45.9463" lon="4.79277">
        <ele>254</ele>
        <time>2017-06-22T08:10:13Z</time>
      </trkpt>
      <trkpt lat="45.94635" lon="4.79287">
        <ele>254</ele>
        <time>2017-06-22T08:10:15Z</time>
      </trkpt>
      <trkpt lat="45.94636" lon="4.79292">
        <ele>254</ele>
        <time>2017-06-22T08:10:16Z</time>
      </trkpt>
      <trkpt lat="45.9464" lon="4.79302">
        <ele>254</ele>
        <time>2017-06-22T08:10:18Z</time>
      </trkpt>
      <trkpt lat="45.94642" lon="4.79307">
        <ele>254</ele>
        <time>2017-06-22T08:10:19Z</time>
      </trkpt>
      <trkpt lat="45.94647" lon="4.79317">
        <ele>254</ele>
        <time>2017-06-22T08:10:21Z</time>
      </trkpt>
      <trkpt lat="45.94649" lon="4.79321">
        <ele>254</ele>
        <time>2017-06-22T08:10:22Z</time>
      </trkpt>
      <trkpt lat="45.94652" lon="4.7933">
        <ele>254</ele>
        <time>2017-06-22T08:10:24Z</time>
      </trkpt>
      <trkpt lat="45.94655" lon="4.79333">
        <ele>254</ele>
        <time>2017-06-22T08:10:25Z</time>
      </trkpt>
      <trkpt lat="45.94658" lon="4.79341">
        <ele>254</ele>
        <time>2017-06-22T08:10:27Z</time>
      </trkpt>
      <trkpt lat="45.9466" lon="4.79346">
        <ele>254</ele>
        <time>2017-06-22T08:10:28Z</time>
      </trkpt>
      <trkpt lat="45.94664" lon="4.79355">
        <ele>254</ele>
        <time>2017-06-22T08:10:30Z</time>
      </trkpt>
      <trkpt lat="45.94666" lon="4.79359">
        <ele>254</ele>
        <time>2017-06-22T08:10:31Z</time>
      </trkpt>
      <trkpt lat="45.9467" lon="4.79367">
        <ele>253</ele>
        <time>2017-06-22T08:10:33Z</time>
      </trkpt>
      <trkpt lat="45.94673" lon="4.79371">
        <ele>253</ele>
        <time>2017-06-22T08:10:34Z</time>
      </trkpt>
      <trkpt lat="45.94677" lon="4.79379">
        <ele>253</ele>
        <time>2017-06-22T08:10:36Z</time>
      </trkpt>
      <trkpt lat="45.94679" lon="4.79384">
        <ele>253</ele>
        <time>2017-06-22T08:10:37Z</time>
      </trkpt>
      <trkpt lat="45.94683" lon="4.79393">
        <ele>253</ele>
        <time>2017-06-22T08:10:39Z</time>
      </trkpt>
      <trkpt lat="45.94686" lon="4.79398">
        <ele>253</ele>
        <time>2017-06-22T08:10:40Z</time>
      </trkpt>
      <trkpt lat="45.94691" lon="4.79407">
        <ele>253</ele>
        <time>2017-06-22T08:10:42Z</time>
      </trkpt>
      <trkpt lat="45.94694" lon="4.79412">
        <ele>253</ele>
        <time>2017-06-22T08:10:43Z</time>
      </trkpt>
      <trkpt lat="45.94697" lon="4.79418">
        <ele>253</ele>
        <time>2017-06-22T08:10:44Z</time>
      </trkpt>
      <trkpt lat="45.94699" lon="4.79424">
        <ele>253</ele>
        <time>2017-06-22T08:10:45Z</time>
      </trkpt>
      <trkpt lat="45.94702" lon="4.7943">
        <ele>253</ele>
        <time>2017-06-22T08:10:46Z</time>
      </trkpt>
      <trkpt lat="45.94705" lon="4.79436">
        <ele>253</ele>
        <time>2017-06-22T08:10:47Z</time>
      </trkpt>
      <trkpt lat="45.94707" lon="4.79442">
        <ele>253</ele>
        <time>2017-06-22T08:10:48Z</time>
      </trkpt>
      <trkpt lat="45.9471" lon="4.79447">
        <ele>253</ele>
        <time>2017-06-22T08:10:49Z</time>
      </trkpt>
      <trkpt lat="45.94713" lon="4.79453">
        <ele>253</ele>
        <time>2017-06-22T08:10:50Z</time>
      </trkpt>
      <trkpt lat="45.94715" lon="4.7946">
        <ele>253</ele>
        <time>2017-06-22T08:10:51Z</time>
      </trkpt>
      <trkpt lat="45.94718" lon="4.79466">
        <ele>253</ele>
        <time>2017-06-22T08:10:52Z</time>
      </trkpt>
      <trkpt lat="45.94721" lon="4.79473">
        <ele>253</ele>
        <time>2017-06-22T08:10:53Z</time>
      </trkpt>
      <trkpt lat="45.94723" lon="4.79479">
        <ele>253</ele>
        <time>2017-06-22T08:10:54Z</time>
      </trkpt>
      <trkpt lat="45.94726" lon="4.79486">
        <ele>253</ele>
        <time>2017-06-22T08:10:55Z</time>
      </trkpt>
      <trkpt lat="45.94729" lon="4.79492">
        <ele>253</ele>
        <time>2017-06-22T08:10:56Z</time>
      </trkpt>
      <trkpt lat="45.94731" lon="4.79499">
        <ele>253</ele>
        <time>2017-06-22T08:10:57Z</time>
      </trkpt>
      <trkpt lat="45.94734" lon="4.79506">
        <ele>253</ele>
        <time>2017-06-22T08:10:58Z</time>
      </trkpt>
      <trkpt lat="45.94737" lon="4.79513">
        <ele>253</ele>
        <time>2017-06-22T08:10:59Z</time>
      </trkpt>
      <trkpt lat="45.9474" lon="4.79519">
        <ele>253</ele>
        <time>2017-06-22T08:11:00Z</time>
      </trkpt>
      <trkpt lat="45.94743" lon="4.79525">
        <ele>253</ele>
        <time>2017-06-22T08:11:01Z</time>
      </trkpt>
      <trkpt lat="45.94745" lon="4.79532">
        <ele>253</ele>
        <time>2017-06-22T08:11:02Z</time>
      </trkpt>
      <trkpt lat="45.94747" lon="4.79538">
        <ele>253</ele>
        <time>2017-06-22T08:11:03Z</time>
      </trkpt>
      <trkpt lat="45.9475" lon="4.79544">
        <ele>253</ele>
        <time>2017-06-22T08:11:04Z</time>
      </trkpt>
      <trkpt lat="45.94751" lon="4.7955">
        <ele>252</ele>
        <time>2017-06-22T08:11:05Z</time>
      </trkpt>
      <trkpt lat="45.94753" lon="4.79556">
        <ele>252</ele>
        <time>2017-06-22T08:11:06Z</time>
      </trkpt>
      <trkpt lat="45.94755" lon="4.79563">
        <ele>252</ele>
        <time>2017-06-22T08:11:07Z</time>
      </trkpt>
      <trkpt lat="45.94756" lon="4.79569">
        <ele>252</ele>
        <time>2017-06-22T08:11:08Z</time>
      </trkpt>
      <trkpt lat="45.94756" lon="4.79576">
        <ele>252</ele>
        <time>2017-06-22T08:11:09Z</time>
      </trkpt>
      <trkpt lat="45.94756" lon="4.79588">
        <ele>252</ele>
        <time>2017-06-22T08:11:11Z</time>
      </trkpt>
      <trkpt lat="45.94756" lon="4.79594">
        <ele>253</ele>
        <time>2017-06-22T08:11:12Z</time>
      </trkpt>
      <trkpt lat="45.94758" lon="4.79604">
        <ele>253</ele>
        <time>2017-06-22T08:11:14Z</time>
      </trkpt>
      <trkpt lat="45.94759" lon="4.79608">
        <ele>253</ele>
        <time>2017-06-22T08:11:15Z</time>
      </trkpt>
      <trkpt lat="45.94761" lon="4.7962">
        <ele>253</ele>
        <time>2017-06-22T08:11:17Z</time>
      </trkpt>
      <trkpt lat="45.94763" lon="4.79626">
        <ele>253</ele>
        <time>2017-06-22T08:11:18Z</time>
      </trkpt>
      <trkpt lat="45.94765" lon="4.79632">
        <ele>253</ele>
        <time>2017-06-22T08:11:19Z</time>
      </trkpt>
      <trkpt lat="45.94767" lon="4.79638">
        <ele>254</ele>
        <time>2017-06-22T08:11:20Z</time>
      </trkpt>
      <trkpt lat="45.94768" lon="4.7965">
        <ele>254</ele>
        <time>2017-06-22T08:11:22Z</time>
      </trkpt>
      <trkpt lat="45.94769" lon="4.79655">
        <ele>254</ele>
        <time>2017-06-22T08:11:23Z</time>
      </trkpt>
      <trkpt lat="45.94772" lon="4.79665">
        <ele>254</ele>
        <time>2017-06-22T08:11:25Z</time>
      </trkpt>
      <trkpt lat="45.94773" lon="4.7967">
        <ele>254</ele>
        <time>2017-06-22T08:11:26Z</time>
      </trkpt>
      <trkpt lat="45.94777" lon="4.79681">
        <ele>254</ele>
        <time>2017-06-22T08:11:28Z</time>
      </trkpt>
      <trkpt lat="45.94779" lon="4.79686">
        <ele>254</ele>
        <time>2017-06-22T08:11:29Z</time>
      </trkpt>
      <trkpt lat="45.94783" lon="4.79696">
        <ele>254</ele>
        <time>2017-06-22T08:11:31Z</time>
      </trkpt>
      <trkpt lat="45.94784" lon="4.79701">
        <ele>254</ele>
        <time>2017-06-22T08:11:32Z</time>
      </trkpt>
      <trkpt lat="45.94788" lon="4.79712">
        <ele>254</ele>
        <time>2017-06-22T08:11:34Z</time>
      </trkpt>
      <trkpt lat="45.9479" lon="4.79716">
        <ele>254</ele>
        <time>2017-06-22T08:11:35Z</time>
      </trkpt>
      <trkpt lat="45.94794" lon="4.79727">
        <ele>254</ele>
        <time>2017-06-22T08:11:37Z</time>
      </trkpt>
      <trkpt lat="45.94796" lon="4.79733">
        <ele>254</ele>
        <time>2017-06-22T08:11:38Z</time>
      </trkpt>
      <trkpt lat="45.94799" lon="4.79744">
        <ele>254</ele>
        <time>2017-06-22T08:11:40Z</time>
      </trkpt>
      <trkpt lat="45.948" lon="4.79751">
        <ele>254</ele>
        <time>2017-06-22T08:11:41Z</time>
      </trkpt>
      <trkpt lat="45.94801" lon="4.79758">
        <ele>254</ele>
        <time>2017-06-22T08:11:42Z</time>
      </trkpt>
      <trkpt lat="45.94803" lon="4.79764">
        <ele>254</ele>
        <time>2017-06-22T08:11:43Z</time>
      </trkpt>
      <trkpt lat="45.94806" lon="4.79771">
        <ele>254</ele>
        <time>2017-06-22T08:11:44Z</time>
      </trkpt>
      <trkpt lat="45.94808" lon="4.79777">
        <ele>254</ele>
        <time>2017-06-22T08:11:45Z</time>
      </trkpt>
      <trkpt lat="45.9481" lon="4.79784">
        <ele>254</ele>
        <time>2017-06-22T08:11:46Z</time>
      </trkpt>
      <trkpt lat="45.94812" lon="4.79791">
        <ele>254</ele>
        <time>2017-06-22T08:11:47Z</time>
      </trkpt>
      <trkpt lat="45.94812" lon="4.79798">
        <ele>254</ele>
        <time>2017-06-22T08:11:48Z</time>
      </trkpt>
      <trkpt lat="45.94813" lon="4.79805">
        <ele>254</ele>
        <time>2017-06-22T08:11:49Z</time>
      </trkpt>
      <trkpt lat="45.94814" lon="4.79811">
        <ele>254</ele>
        <time>2017-06-22T08:11:50Z</time>
      </trkpt>
      <trkpt lat="45.94816" lon="4.79818">
        <ele>254</ele>
        <time>2017-06-22T08:11:51Z</time>
      </trkpt>
      <trkpt lat="45.94817" lon="4.79824">
        <ele>254</ele>
        <time>2017-06-22T08:11:52Z</time>
      </trkpt>
      <trkpt lat="45.94818" lon="4.7983">
        <ele>254</ele>
        <time>2017-06-22T08:11:53Z</time>
      </trkpt>
      <trkpt lat="45.94821" lon="4.79841">
        <ele>254</ele>
        <time>2017-06-22T08:11:55Z</time>
      </trkpt>
      <trkpt lat="45.94823" lon="4.79846">
        <ele>254</ele>
        <time>2017-06-22T08:11:56Z</time>
      </trkpt>
      <trkpt lat="45.94825" lon="4.79855">
        <ele>255</ele>
        <time>2017-06-22T08:11:58Z</time>
      </trkpt>
      <trkpt lat="45.94827" lon="4.79861">
        <ele>255</ele>
        <time>2017-06-22T08:11:59Z</time>
      </trkpt>
      <trkpt lat="45.9483" lon="4.79872">
        <ele>255</ele>
        <time>2017-06-22T08:12:01Z</time>
      </trkpt>
      <trkpt lat="45.94831" lon="4.79877">
        <ele>255</ele>
        <time>2017-06-22T08:12:02Z</time>
      </trkpt>
      <trkpt lat="45.94835" lon="4.79888">
        <ele>255</ele>
        <time>2017-06-22T08:12:04Z</time>
      </trkpt>
      <trkpt lat="45.94837" lon="4.79893">
        <ele>255</ele>
        <time>2017-06-22T08:12:05Z</time>
      </trkpt>
      <trkpt lat="45.94841" lon="4.79904">
        <ele>256</ele>
        <time>2017-06-22T08:12:07Z</time>
      </trkpt>
      <trkpt lat="45.94843" lon="4.79909">
        <ele>256</ele>
        <time>2017-06-22T08:12:08Z</time>
      </trkpt>
      <trkpt lat="45.94847" lon="4.79918">
        <ele>256</ele>
        <time>2017-06-22T08:12:10Z</time>
      </trkpt>
      <trkpt lat="45.94849" lon="4.79922">
        <ele>256</ele>
        <time>2017-06-22T08:12:11Z</time>
      </trkpt>
      <trkpt lat="45.94854" lon="4.79932">
        <ele>256</ele>
        <time>2017-06-22T08:12:13Z</time>
      </trkpt>
      <trkpt lat="45.94856" lon="4.79937">
        <ele>256</ele>
        <time>2017-06-22T08:12:14Z</time>
      </trkpt>
      <trkpt lat="45.94861" lon="4.79946">
        <ele>256</ele>
        <time>2017-06-22T08:12:16Z</time>
      </trkpt>
      <trkpt lat="45.94863" lon="4.79952">
        <ele>256</ele>
        <time>2017-06-22T08:12:17Z</time>
      </trkpt>
      <trkpt lat="45.94868" lon="4.79962">
        <ele>256</ele>
        <time>2017-06-22T08:12:19Z</time>
      </trkpt>
      <trkpt lat="45.9487" lon="4.79967">
        <ele>256</ele>
        <time>2017-06-22T08:12:20Z</time>
      </trkpt>
      <trkpt lat="45.94875" lon="4.79977">
        <ele>256</ele>
        <time>2017-06-22T08:12:22Z</time>
      </trkpt>
      <trkpt lat="45.94877" lon="4.79982">
        <ele>256</ele>
        <time>2017-06-22T08:12:23Z</time>
      </trkpt>
      <trkpt lat="45.94881" lon="4.79992">
        <ele>256</ele>
        <time>2017-06-22T08:12:25Z</time>
      </trkpt>
      <trkpt lat="45.94883" lon="4.79997">
        <ele>256</ele>
        <time>2017-06-22T08:12:26Z</time>
      </trkpt>
      <trkpt lat="45.94885" lon="4.80005">
        <ele>256</ele>
        <time>2017-06-22T08:12:28Z</time>
      </trkpt>
      <trkpt lat="45.94886" lon="4.80009">
        <ele>256</ele>
        <time>2017-06-22T08:12:29Z</time>
      </trkpt>
      <trkpt lat="45.94889" lon="4.8002">
        <ele>256</ele>
        <time>2017-06-22T08:12:32Z</time>
      </trkpt>
      <trkpt lat="45.9489" lon="4.80023">
        <ele>256</ele>
        <time>2017-06-22T08:12:33Z</time>
      </trkpt>
      <trkpt lat="45.94893" lon="4.8003">
        <ele>256</ele>
        <time>2017-06-22T08:12:35Z</time>
      </trkpt>
      <trkpt lat="45.94894" lon="4.80035">
        <ele>256</ele>
        <time>2017-06-22T08:12:36Z</time>
      </trkpt>
      <trkpt lat="45.94897" lon="4.80046">
        <ele>256</ele>
        <time>2017-06-22T08:12:38Z</time>
      </trkpt>
      <trkpt lat="45.94897" lon="4.80053">
        <ele>256</ele>
        <time>2017-06-22T08:12:39Z</time>
      </trkpt>
      <trkpt lat="45.94899" lon="4.8006">
        <ele>256</ele>
        <time>2017-06-22T08:12:40Z</time>
      </trkpt>
      <trkpt lat="45.949" lon="4.80067">
        <ele>256</ele>
        <time>2017-06-22T08:12:41Z</time>
      </trkpt>
      <trkpt lat="45.94901" lon="4.80073">
        <ele>256</ele>
        <time>2017-06-22T08:12:42Z</time>
      </trkpt>
      <trkpt lat="45.94903" lon="4.8008">
        <ele>257</ele>
        <time>2017-06-22T08:12:43Z</time>
      </trkpt>
      <trkpt lat="45.94905" lon="4.80086">
        <ele>257</ele>
        <time>2017-06-22T08:12:44Z</time>
      </trkpt>
      <trkpt lat="45.94906" lon="4.80092">
        <ele>257</ele>
        <time>2017-06-22T08:12:45Z</time>
      </trkpt>
      <trkpt lat="45.94908" lon="4.80099">
        <ele>256</ele>
        <time>2017-06-22T08:12:46Z</time>
      </trkpt>
      <trkpt lat="45.94909" lon="4.80106">
        <ele>256</ele>
        <time>2017-06-22T08:12:47Z</time>
      </trkpt>
      <trkpt lat="45.94912" lon="4.80115">
        <ele>256</ele>
        <time>2017-06-22T08:12:48Z</time>
      </trkpt>
      <trkpt lat="45.94914" lon="4.8012">
        <ele>256</ele>
        <time>2017-06-22T08:12:49Z</time>
      </trkpt>
      <trkpt lat="45.94916" lon="4.80131">
        <ele>256</ele>
        <time>2017-06-22T08:12:51Z</time>
      </trkpt>
      <trkpt lat="45.94917" lon="4.80137">
        <ele>256</ele>
        <time>2017-06-22T08:12:52Z</time>
      </trkpt>
      <trkpt lat="45.94918" lon="4.80149">
        <ele>255</ele>
        <time>2017-06-22T08:12:54Z</time>
      </trkpt>
      <trkpt lat="45.94919" lon="4.80154">
        <ele>255</ele>
        <time>2017-06-22T08:12:55Z</time>
      </trkpt>
      <trkpt lat="45.94921" lon="4.80166">
        <ele>255</ele>
        <time>2017-06-22T08:12:57Z</time>
      </trkpt>
      <trkpt lat="45.94922" lon="4.80172">
        <ele>255</ele>
        <time>2017-06-22T08:12:58Z</time>
      </trkpt>
      <trkpt lat="45.94924" lon="4.80183">
        <ele>256</ele>
        <time>2017-06-22T08:13:00Z</time>
      </trkpt>
      <trkpt lat="45.94925" lon="4.80189">
        <ele>256</ele>
        <time>2017-06-22T08:13:01Z</time>
      </trkpt>
      <trkpt lat="45.94928" lon="4.802">
        <ele>256</ele>
        <time>2017-06-22T08:13:03Z</time>
      </trkpt>
      <trkpt lat="45.94929" lon="4.80206">
        <ele>256</ele>
        <time>2017-06-22T08:13:04Z</time>
      </trkpt>
      <trkpt lat="45.94931" lon="4.80219">
        <ele>256</ele>
        <time>2017-06-22T08:13:06Z</time>
      </trkpt>
      <trkpt lat="45.94932" lon="4.80224">
        <ele>256</ele>
        <time>2017-06-22T08:13:07Z</time>
      </trkpt>
      <trkpt lat="45.94933" lon="4.80235">
        <ele>256</ele>
        <time>2017-06-22T08:13:09Z</time>
      </trkpt>
      <trkpt lat="45.94933" lon="4.8024">
        <ele>256</ele>
        <time>2017-06-22T08:13:10Z</time>
      </trkpt>
      <trkpt lat="45.94935" lon="4.80252">
        <ele>257</ele>
        <time>2017-06-22T08:13:12Z</time>
      </trkpt>
      <trkpt lat="45.94935" lon="4.80258">
        <ele>257</ele>
        <time>2017-06-22T08:13:13Z</time>
      </trkpt>
      <trkpt lat="45.94935" lon="4.8027">
        <ele>257</ele>
        <time>2017-06-22T08:13:15Z</time>
      </trkpt>
      <trkpt lat="45.94935" lon="4.80275">
        <ele>257</ele>
        <time>2017-06-22T08:13:16Z</time>
      </trkpt>
      <trkpt lat="45.94935" lon="4.80287">
        <ele>257</ele>
        <time>2017-06-22T08:13:18Z</time>
      </trkpt>
      <trkpt lat="45.94936" lon="4.80293">
        <ele>257</ele>
        <time>2017-06-22T08:13:19Z</time>
      </trkpt>
      <trkpt lat="45.94937" lon="4.80299">
        <ele>257</ele>
        <time>2017-06-22T08:13:20Z</time>
      </trkpt>
      <trkpt lat="45.94938" lon="4.80306">
        <ele>257</ele>
        <time>2017-06-22T08:13:21Z</time>
      </trkpt>
      <trkpt lat="45.94938" lon="4.80318">
        <ele>257</ele>
        <time>2017-06-22T08:13:23Z</time>
      </trkpt>
      <trkpt lat="45.94939" lon="4.80325">
        <ele>257</ele>
        <time>2017-06-22T08:13:24Z</time>
      </trkpt>
      <trkpt lat="45.9494" lon="4.80336">
        <ele>258</ele>
        <time>2017-06-22T08:13:26Z</time>
      </trkpt>
      <trkpt lat="45.9494" lon="4.80341">
        <ele>258</ele>
        <time>2017-06-22T08:13:27Z</time>
      </trkpt>
      <trkpt lat="45.9494" lon="4.80352">
        <ele>258</ele>
        <time>2017-06-22T08:13:29Z</time>
      </trkpt>
      <trkpt lat="45.94939" lon="4.80357">
        <ele>258</ele>
        <time>2017-06-22T08:13:30Z</time>
      </trkpt>
      <trkpt lat="45.94939" lon="4.80368">
        <ele>258</ele>
        <time>2017-06-22T08:13:32Z</time>
      </trkpt>
      <trkpt lat="45.9494" lon="4.80374">
        <ele>258</ele>
        <time>2017-06-22T08:13:33Z</time>
      </trkpt>
      <trkpt lat="45.94941" lon="4.80386">
        <ele>258</ele>
        <time>2017-06-22T08:13:35Z</time>
      </trkpt>
      <trkpt lat="45.94941" lon="4.80392">
        <ele>258</ele>
        <time>2017-06-22T08:13:36Z</time>
      </trkpt>
      <trkpt lat="45.9494" lon="4.80402">
        <ele>259</ele>
        <time>2017-06-22T08:13:38Z</time>
      </trkpt>
      <trkpt lat="45.94939" lon="4.80407">
        <ele>259</ele>
        <time>2017-06-22T08:13:39Z</time>
      </trkpt>
      <trkpt lat="45.94939" lon="4.80418">
        <ele>259</ele>
        <time>2017-06-22T08:13:41Z</time>
      </trkpt>
      <trkpt lat="45.94939" lon="4.80424">
        <ele>259</ele>
        <time>2017-06-22T08:13:42Z</time>
      </trkpt>
      <trkpt lat="45.94939" lon="4.80436">
        <ele>259</ele>
        <time>2017-06-22T08:13:44Z</time>
      </trkpt>
      <trkpt lat="45.94939" lon="4.80443">
        <ele>259</ele>
        <time>2017-06-22T08:13:45Z</time>
      </trkpt>
      <trkpt lat="45.94939" lon="4.80455">
        <ele>259</ele>
        <time>2017-06-22T08:13:47Z</time>
      </trkpt>
      <trkpt lat="45.94939" lon="4.8046">
        <ele>259</ele>
        <time>2017-06-22T08:13:48Z</time>
      </trkpt>
      <trkpt lat="45.9494" lon="4.80472">
        <ele>258</ele>
        <time>2017-06-22T08:13:50Z</time>
      </trkpt>
      <trkpt lat="45.9494" lon="4.80479">
        <ele>258</ele>
        <time>2017-06-22T08:13:51Z</time>
      </trkpt>
      <trkpt lat="45.9494" lon="4.80491">
        <ele>258</ele>
        <time>2017-06-22T08:13:53Z</time>
      </trkpt>
      <trkpt lat="45.9494" lon="4.80499">
        <ele>258</ele>
        <time>2017-06-22T08:13:54Z</time>
      </trkpt>
      <trkpt lat="45.9494" lon="4.80507">
        <ele>258</ele>
        <time>2017-06-22T08:13:55Z</time>
      </trkpt>
      <trkpt lat="45.9494" lon="4.80516">
        <ele>258</ele>
        <time>2017-06-22T08:13:56Z</time>
      </trkpt>
      <trkpt lat="45.94941" lon="4.80524">
        <ele>258</ele>
        <time>2017-06-22T08:13:57Z</time>
      </trkpt>
      <trkpt lat="45.94941" lon="4.80531">
        <ele>258</ele>
        <time>2017-06-22T08:13:58Z</time>
      </trkpt>
      <trkpt lat="45.94942" lon="4.80538">
        <ele>258</ele>
        <time>2017-06-22T08:13:59Z</time>
      </trkpt>
      <trkpt lat="45.94943" lon="4.80545">
        <ele>258</ele>
        <time>2017-06-22T08:14:00Z</time>
      </trkpt>
      <trkpt lat="45.94943" lon="4.80558">
        <ele>257</ele>
        <time>2017-06-22T08:14:02Z</time>
      </trkpt>
      <trkpt lat="45.94944" lon="4.80564">
        <ele>257</ele>
        <time>2017-06-22T08:14:03Z</time>
      </trkpt>
      <trkpt lat="45.94944" lon="4.80575">
        <ele>257</ele>
        <time>2017-06-22T08:14:05Z</time>
      </trkpt>
      <trkpt lat="45.94945" lon="4.80581">
        <ele>257</ele>
        <time>2017-06-22T08:14:06Z</time>
      </trkpt>
      <trkpt lat="45.94945" lon="4.80593">
        <ele>258</ele>
        <time>2017-06-22T08:14:08Z</time>
      </trkpt>
      <trkpt lat="45.94946" lon="4.80599">
        <ele>258</ele>
        <time>2017-06-22T08:14:09Z</time>
      </trkpt>
      <trkpt lat="45.94946" lon="4.80605">
        <ele>258</ele>
        <time>2017-06-22T08:14:10Z</time>
      </trkpt>
      <trkpt lat="45.94947" lon="4.80612">
        <ele>258</ele>
        <time>2017-06-22T08:14:11Z</time>
      </trkpt>
      <trkpt lat="45.94947" lon="4.80625">
        <ele>258</ele>
        <time>2017-06-22T08:14:13Z</time>
      </trkpt>
      <trkpt lat="45.94947" lon="4.80631">
        <ele>258</ele>
        <time>2017-06-22T08:14:14Z</time>
      </trkpt>
      <trkpt lat="45.94947" lon="4.80643">
        <ele>259</ele>
        <time>2017-06-22T08:14:16Z</time>
      </trkpt>
      <trkpt lat="45.94948" lon="4.80649">
        <ele>259</ele>
        <time>2017-06-22T08:14:17Z</time>
      </trkpt>
      <trkpt lat="45.94948" lon="4.8066">
        <ele>259</ele>
        <time>2017-06-22T08:14:19Z</time>
      </trkpt>
      <trkpt lat="45.94948" lon="4.80666">
        <ele>259</ele>
        <time>2017-06-22T08:14:20Z</time>
      </trkpt>
      <trkpt lat="45.94948" lon="4.80677">
        <ele>259</ele>
        <time>2017-06-22T08:14:22Z</time>
      </trkpt>
      <trkpt lat="45.94949" lon="4.80682">
        <ele>259</ele>
        <time>2017-06-22T08:14:23Z</time>
      </trkpt>
      <trkpt lat="45.94948" lon="4.80694">
        <ele>259</ele>
        <time>2017-06-22T08:14:25Z</time>
      </trkpt>
      <trkpt lat="45.94949" lon="4.807">
        <ele>259</ele>
        <time>2017-06-22T08:14:26Z</time>
      </trkpt>
      <trkpt lat="45.94948" lon="4.80711">
        <ele>259</ele>
        <time>2017-06-22T08:14:28Z</time>
      </trkpt>
      <trkpt lat="45.94948" lon="4.80717">
        <ele>259</ele>
        <time>2017-06-22T08:14:29Z</time>
      </trkpt>
      <trkpt lat="45.94948" lon="4.8073">
        <ele>259</ele>
        <time>2017-06-22T08:14:31Z</time>
      </trkpt>
      <trkpt lat="45.94948" lon="4.80736">
        <ele>259</ele>
        <time>2017-06-22T08:14:32Z</time>
      </trkpt>
      <trkpt lat="45.94948" lon="4.80748">
        <ele>259</ele>
        <time>2017-06-22T08:14:34Z</time>
      </trkpt>
      <trkpt lat="45.94948" lon="4.80753">
        <ele>259</ele>
        <time>2017-06-22T08:14:35Z</time>
      </trkpt>
      <trkpt lat="45.94946" lon="4.80764">
        <ele>259</ele>
        <time>2017-06-22T08:14:37Z</time>
      </trkpt>
      <trkpt lat="45.94945" lon="4.80769">
        <ele>259</ele>
        <time>2017-06-22T08:14:38Z</time>
      </trkpt>
      <trkpt lat="45.94943" lon="4.8078">
        <ele>259</ele>
        <time>2017-06-22T08:14:40Z</time>
      </trkpt>
      <trkpt lat="45.94942" lon="4.80783">
        <ele>259</ele>
        <time>2017-06-22T08:14:41Z</time>
      </trkpt>
      <trkpt lat="45.94939" lon="4.80795">
        <ele>259</ele>
        <time>2017-06-22T08:14:46Z</time>
      </trkpt>
      <trkpt lat="45.94939" lon="4.80796">
        <ele>259</ele>
        <time>2017-06-22T08:14:47Z</time>
      </trkpt>
      <trkpt lat="45.94939" lon="4.80798">
        <ele>259</ele>
        <time>2017-06-22T08:14:49Z</time>
      </trkpt>
      <trkpt lat="45.94939" lon="4.80799">
        <ele>259</ele>
        <time>2017-06-22T08:14:50Z</time>
      </trkpt>
      <trkpt lat="45.9494" lon="4.80802">
        <ele>259</ele>
        <time>2017-06-22T08:14:52Z</time>
      </trkpt>
      <trkpt lat="45.94942" lon="4.80805">
        <ele>259</ele>
        <time>2017-06-22T08:14:53Z</time>
      </trkpt>
      <trkpt lat="45.94946" lon="4.80812">
        <ele>258</ele>
        <time>2017-06-22T08:14:55Z</time>
      </trkpt>
      <trkpt lat="45.94948" lon="4.80815">
        <ele>258</ele>
        <time>2017-06-22T08:14:56Z</time>
      </trkpt>
      <trkpt lat="45.94951" lon="4.80823">
        <ele>258</ele>
        <time>2017-06-22T08:14:58Z</time>
      </trkpt>
      <trkpt lat="45.94953" lon="4.80829">
        <ele>258</ele>
        <time>2017-06-22T08:14:59Z</time>
      </trkpt>
      <trkpt lat="45.94955" lon="4.80835">
        <ele>258</ele>
        <time>2017-06-22T08:15:00Z</time>
      </trkpt>
      <trkpt lat="45.94956" lon="4.80841">
        <ele>258</ele>
        <time>2017-06-22T08:15:01Z</time>
      </trkpt>
      <trkpt lat="45.94957" lon="4.80847">
        <ele>258</ele>
        <time>2017-06-22T08:15:02Z</time>
      </trkpt>
      <trkpt lat="45.94958" lon="4.80854">
        <ele>258</ele>
        <time>2017-06-22T08:15:03Z</time>
      </trkpt>
      <trkpt lat="45.94959" lon="4.80861">
        <ele>259</ele>
        <time>2017-06-22T08:15:04Z</time>
      </trkpt>
      <trkpt lat="45.94961" lon="4.80867">
        <ele>259</ele>
        <time>2017-06-22T08:15:05Z</time>
      </trkpt>
      <trkpt lat="45.94963" lon="4.80874">
        <ele>259</ele>
        <time>2017-06-22T08:15:06Z</time>
      </trkpt>
      <trkpt lat="45.94964" lon="4.80881">
        <ele>258</ele>
        <time>2017-06-22T08:15:07Z</time>
      </trkpt>
      <trkpt lat="45.94966" lon="4.80888">
        <ele>258</ele>
        <time>2017-06-22T08:15:08Z</time>
      </trkpt>
      <trkpt lat="45.94967" lon="4.80894">
        <ele>258</ele>
        <time>2017-06-22T08:15:09Z</time>
      </trkpt>
      <trkpt lat="45.94969" lon="4.809">
        <ele>258</ele>
        <time>2017-06-22T08:15:10Z</time>
      </trkpt>
      <trkpt lat="45.94971" lon="4.80907">
        <ele>258</ele>
        <time>2017-06-22T08:15:11Z</time>
      </trkpt>
      <trkpt lat="45.94972" lon="4.80913">
        <ele>258</ele>
        <time>2017-06-22T08:15:12Z</time>
      </trkpt>
      <trkpt lat="45.94973" lon="4.8092">
        <ele>258</ele>
        <time>2017-06-22T08:15:13Z</time>
      </trkpt>
      <trkpt lat="45.94974" lon="4.80932">
        <ele>258</ele>
        <time>2017-06-22T08:15:15Z</time>
      </trkpt>
      <trkpt lat="45.94976" lon="4.80938">
        <ele>258</ele>
        <time>2017-06-22T08:15:16Z</time>
      </trkpt>
      <trkpt lat="45.94977" lon="4.80945">
        <ele>258</ele>
        <time>2017-06-22T08:15:17Z</time>
      </trkpt>
      <trkpt lat="45.94977" lon="4.80952">
        <ele>258</ele>
        <time>2017-06-22T08:15:18Z</time>
      </trkpt>
      <trkpt lat="45.94978" lon="4.80958">
        <ele>258</ele>
        <time>2017-06-22T08:15:19Z</time>
      </trkpt>
      <trkpt lat="45.9498" lon="4.80965">
        <ele>258</ele>
        <time>2017-06-22T08:15:20Z</time>
      </trkpt>
      <trkpt lat="45.94981" lon="4.80977">
        <ele>258</ele>
        <time>2017-06-22T08:15:22Z</time>
      </trkpt>
      <trkpt lat="45.94982" lon="4.80983">
        <ele>258</ele>
        <time>2017-06-22T08:15:23Z</time>
      </trkpt>
      <trkpt lat="45.94983" lon="4.8099">
        <ele>258</ele>
        <time>2017-06-22T08:15:24Z</time>
      </trkpt>
      <trkpt lat="45.94984" lon="4.80997">
        <ele>257</ele>
        <time>2017-06-22T08:15:25Z</time>
      </trkpt>
      <trkpt lat="45.94984" lon="4.81004">
        <ele>257</ele>
        <time>2017-06-22T08:15:26Z</time>
      </trkpt>
      <trkpt lat="45.94985" lon="4.81011">
        <ele>257</ele>
        <time>2017-06-22T08:15:27Z</time>
      </trkpt>
      <trkpt lat="45.94985" lon="4.81019">
        <ele>257</ele>
        <time>2017-06-22T08:15:28Z</time>
      </trkpt>
      <trkpt lat="45.94986" lon="4.81026">
        <ele>257</ele>
        <time>2017-06-22T08:15:29Z</time>
      </trkpt>
      <trkpt lat="45.94986" lon="4.81033">
        <ele>257</ele>
        <time>2017-06-22T08:15:30Z</time>
      </trkpt>
      <trkpt lat="45.94986" lon="4.8104">
        <ele>257</ele>
        <time>2017-06-22T08:15:31Z</time>
      </trkpt>
      <trkpt lat="45.94987" lon="4.81047">
        <ele>257</ele>
        <time>2017-06-22T08:15:32Z</time>
      </trkpt>
      <trkpt lat="45.94987" lon="4.81054">
        <ele>257</ele>
        <time>2017-06-22T08:15:33Z</time>
      </trkpt>
      <trkpt lat="45.94987" lon="4.81061">
        <ele>257</ele>
        <time>2017-06-22T08:15:34Z</time>
      </trkpt>
      <trkpt lat="45.94987" lon="4.81068">
        <ele>257</ele>
        <time>2017-06-22T08:15:35Z</time>
      </trkpt>
      <trkpt lat="45.94988" lon="4.81074">
        <ele>257</ele>
        <time>2017-06-22T08:15:36Z</time>
      </trkpt>
      <trkpt lat="45.94988" lon="4.81081">
        <ele>257</ele>
        <time>2017-06-22T08:15:37Z</time>
      </trkpt>
      <trkpt lat="45.94988" lon="4.81093">
        <ele>257</ele>
        <time>2017-06-22T08:15:39Z</time>
      </trkpt>
      <trkpt lat="45.94989" lon="4.81099">
        <ele>257</ele>
        <time>2017-06-22T08:15:40Z</time>
      </trkpt>
      <trkpt lat="45.94989" lon="4.81106">
        <ele>257</ele>
        <time>2017-06-22T08:15:41Z</time>
      </trkpt>
      <trkpt lat="45.9499" lon="4.81113">
        <ele>257</ele>
        <time>2017-06-22T08:15:42Z</time>
      </trkpt>
      <trkpt lat="45.9499" lon="4.8112">
        <ele>257</ele>
        <time>2017-06-22T08:15:43Z</time>
      </trkpt>
      <trkpt lat="45.94991" lon="4.81127">
        <ele>256</ele>
        <time>2017-06-22T08:15:44Z</time>
      </trkpt>
      <trkpt lat="45.94992" lon="4.81134">
        <ele>256</ele>
        <time>2017-06-22T08:15:45Z</time>
      </trkpt>
      <trkpt lat="45.94993" lon="4.81142">
        <ele>256</ele>
        <time>2017-06-22T08:15:46Z</time>
      </trkpt>
      <trkpt lat="45.94994" lon="4.81149">
        <ele>256</ele>
        <time>2017-06-22T08:15:47Z</time>
      </trkpt>
      <trkpt lat="45.94995" lon="4.81157">
        <ele>256</ele>
        <time>2017-06-22T08:15:48Z</time>
      </trkpt>
      <trkpt lat="45.94996" lon="4.81164">
        <ele>256</ele>
        <time>2017-06-22T08:15:49Z</time>
      </trkpt>
      <trkpt lat="45.94997" lon="4.81172">
        <ele>256</ele>
        <time>2017-06-22T08:15:50Z</time>
      </trkpt>
      <trkpt lat="45.94997" lon="4.8118">
        <ele>256</ele>
        <time>2017-06-22T08:15:51Z</time>
      </trkpt>
      <trkpt lat="45.94999" lon="4.81187">
        <ele>256</ele>
        <time>2017-06-22T08:15:52Z</time>
      </trkpt>
      <trkpt lat="45.95" lon="4.81195">
        <ele>256</ele>
        <time>2017-06-22T08:15:53Z</time>
      </trkpt>
      <trkpt lat="45.95001" lon="4.81203">
        <ele>256</ele>
        <time>2017-06-22T08:15:54Z</time>
      </trkpt>
      <trkpt lat="45.95001" lon="4.81211">
        <ele>256</ele>
        <time>2017-06-22T08:15:55Z</time>
      </trkpt>
      <trkpt lat="45.95002" lon="4.81219">
        <ele>256</ele>
        <time>2017-06-22T08:15:56Z</time>
      </trkpt>
      <trkpt lat="45.95003" lon="4.81227">
        <ele>256</ele>
        <time>2017-06-22T08:15:57Z</time>
      </trkpt>
      <trkpt lat="45.95004" lon="4.81235">
        <ele>256</ele>
        <time>2017-06-22T08:15:58Z</time>
      </trkpt>
      <trkpt lat="45.95005" lon="4.81242">
        <ele>256</ele>
        <time>2017-06-22T08:15:59Z</time>
      </trkpt>
      <trkpt lat="45.95006" lon="4.81249">
        <ele>256</ele>
        <time>2017-06-22T08:16:00Z</time>
      </trkpt>
      <trkpt lat="45.95007" lon="4.81256">
        <ele>256</ele>
        <time>2017-06-22T08:16:01Z</time>
      </trkpt>
      <trkpt lat="45.95008" lon="4.81263">
        <ele>256</ele>
        <time>2017-06-22T08:16:02Z</time>
      </trkpt>
      <trkpt lat="45.95009" lon="4.81269">
        <ele>255</ele>
        <time>2017-06-22T08:16:03Z</time>
      </trkpt>
      <trkpt lat="45.9501" lon="4.81276">
        <ele>255</ele>
        <time>2017-06-22T08:16:04Z</time>
      </trkpt>
      <trkpt lat="45.95012" lon="4.81283">
        <ele>255</ele>
        <time>2017-06-22T08:16:05Z</time>
      </trkpt>
      <trkpt lat="45.95014" lon="4.8129">
        <ele>255</ele>
        <time>2017-06-22T08:16:06Z</time>
      </trkpt>
      <trkpt lat="45.95015" lon="4.81296">
        <ele>255</ele>
        <time>2017-06-22T08:16:07Z</time>
      </trkpt>
      <trkpt lat="45.95016" lon="4.81303">
        <ele>255</ele>
        <time>2017-06-22T08:16:08Z</time>
      </trkpt>
      <trkpt lat="45.95018" lon="4.81309">
        <ele>255</ele>
        <time>2017-06-22T08:16:09Z</time>
      </trkpt>
      <trkpt lat="45.9502" lon="4.81315">
        <ele>255</ele>
        <time>2017-06-22T08:16:10Z</time>
      </trkpt>
      <trkpt lat="45.95022" lon="4.81322">
        <ele>255</ele>
        <time>2017-06-22T08:16:11Z</time>
      </trkpt>
      <trkpt lat="45.95024" lon="4.81328">
        <ele>255</ele>
        <time>2017-06-22T08:16:12Z</time>
      </trkpt>
      <trkpt lat="45.95026" lon="4.81335">
        <ele>255</ele>
        <time>2017-06-22T08:16:13Z</time>
      </trkpt>
      <trkpt lat="45.95028" lon="4.81342">
        <ele>254</ele>
        <time>2017-06-22T08:16:14Z</time>
      </trkpt>
      <trkpt lat="45.9503" lon="4.81349">
        <ele>254</ele>
        <time>2017-06-22T08:16:15Z</time>
      </trkpt>
      <trkpt lat="45.95032" lon="4.81356">
        <ele>254</ele>
        <time>2017-06-22T08:16:16Z</time>
      </trkpt>
      <trkpt lat="45.95034" lon="4.81364">
        <ele>254</ele>
        <time>2017-06-22T08:16:17Z</time>
      </trkpt>
      <trkpt lat="45.95036" lon="4.81372">
        <ele>254</ele>
        <time>2017-06-22T08:16:18Z</time>
      </trkpt>
      <trkpt lat="45.95039" lon="4.8138">
        <ele>254</ele>
        <time>2017-06-22T08:16:19Z</time>
      </trkpt>
      <trkpt lat="45.95041" lon="4.81389">
        <ele>254</ele>
        <time>2017-06-22T08:16:20Z</time>
      </trkpt>
      <trkpt lat="45.95044" lon="4.81397">
        <ele>254</ele>
        <time>2017-06-22T08:16:21Z</time>
      </trkpt>
      <trkpt lat="45.95047" lon="4.81406">
        <ele>253</ele>
        <time>2017-06-22T08:16:22Z</time>
      </trkpt>
      <trkpt lat="45.9505" lon="4.81414">
        <ele>253</ele>
        <time>2017-06-22T08:16:23Z</time>
      </trkpt>
      <trkpt lat="45.95053" lon="4.81423">
        <ele>253</ele>
        <time>2017-06-22T08:16:24Z</time>
      </trkpt>
      <trkpt lat="45.95056" lon="4.81431">
        <ele>253</ele>
        <time>2017-06-22T08:16:25Z</time>
      </trkpt>
      <trkpt lat="45.9506" lon="4.81439">
        <ele>253</ele>
        <time>2017-06-22T08:16:26Z</time>
      </trkpt>
      <trkpt lat="45.95064" lon="4.81447">
        <ele>253</ele>
        <time>2017-06-22T08:16:27Z</time>
      </trkpt>
      <trkpt lat="45.95067" lon="4.81456">
        <ele>253</ele>
        <time>2017-06-22T08:16:28Z</time>
      </trkpt>
      <trkpt lat="45.9507" lon="4.81464">
        <ele>253</ele>
        <time>2017-06-22T08:16:29Z</time>
      </trkpt>
      <trkpt lat="45.95074" lon="4.81473">
        <ele>253</ele>
        <time>2017-06-22T08:16:30Z</time>
      </trkpt>
      <trkpt lat="45.95077" lon="4.81482">
        <ele>253</ele>
        <time>2017-06-22T08:16:31Z</time>
      </trkpt>
      <trkpt lat="45.95081" lon="4.8149">
        <ele>252</ele>
        <time>2017-06-22T08:16:32Z</time>
      </trkpt>
      <trkpt lat="45.95084" lon="4.81499">
        <ele>252</ele>
        <time>2017-06-22T08:16:33Z</time>
      </trkpt>
      <trkpt lat="45.95088" lon="4.81508">
        <ele>252</ele>
        <time>2017-06-22T08:16:34Z</time>
      </trkpt>
      <trkpt lat="45.95092" lon="4.81517">
        <ele>251</ele>
        <time>2017-06-22T08:16:35Z</time>
      </trkpt>
      <trkpt lat="45.95095" lon="4.81527">
        <ele>251</ele>
        <time>2017-06-22T08:16:36Z</time>
      </trkpt>
      <trkpt lat="45.95099" lon="4.81536">
        <ele>251</ele>
        <time>2017-06-22T08:16:37Z</time>
      </trkpt>
      <trkpt lat="45.95102" lon="4.81546">
        <ele>251</ele>
        <time>2017-06-22T08:16:38Z</time>
      </trkpt>
      <trkpt lat="45.95106" lon="4.81556">
        <ele>251</ele>
        <time>2017-06-22T08:16:39Z</time>
      </trkpt>
      <trkpt lat="45.95109" lon="4.81565">
        <ele>251</ele>
        <time>2017-06-22T08:16:40Z</time>
      </trkpt>
      <trkpt lat="45.95113" lon="4.81574">
        <ele>251</ele>
        <time>2017-06-22T08:16:41Z</time>
      </trkpt>
      <trkpt lat="45.95116" lon="4.81583">
        <ele>251</ele>
        <time>2017-06-22T08:16:42Z</time>
      </trkpt>
      <trkpt lat="45.95118" lon="4.81592">
        <ele>252</ele>
        <time>2017-06-22T08:16:43Z</time>
      </trkpt>
      <trkpt lat="45.95121" lon="4.816">
        <ele>252</ele>
        <time>2017-06-22T08:16:44Z</time>
      </trkpt>
      <trkpt lat="45.95123" lon="4.81608">
        <ele>252</ele>
        <time>2017-06-22T08:16:45Z</time>
      </trkpt>
      <trkpt lat="45.95126" lon="4.81616">
        <ele>252</ele>
        <time>2017-06-22T08:16:46Z</time>
      </trkpt>
      <trkpt lat="45.95128" lon="4.81623">
        <ele>252</ele>
        <time>2017-06-22T08:16:47Z</time>
      </trkpt>
      <trkpt lat="45.9513" lon="4.8163">
        <ele>253</ele>
        <time>2017-06-22T08:16:48Z</time>
      </trkpt>
      <trkpt lat="45.95133" lon="4.81641">
        <ele>253</ele>
        <time>2017-06-22T08:16:50Z</time>
      </trkpt>
      <trkpt lat="45.95134" lon="4.81646">
        <ele>253</ele>
        <time>2017-06-22T08:16:51Z</time>
      </trkpt>
      <trkpt lat="45.95136" lon="4.81652">
        <ele>253</ele>
        <time>2017-06-22T08:16:52Z</time>
      </trkpt>
      <trkpt lat="45.95138" lon="4.81658">
        <ele>253</ele>
        <time>2017-06-22T08:16:53Z</time>
      </trkpt>
      <trkpt lat="45.9514" lon="4.81664">
        <ele>253</ele>
        <time>2017-06-22T08:16:54Z</time>
      </trkpt>
      <trkpt lat="45.95142" lon="4.81671">
        <ele>255</ele>
        <time>2017-06-22T08:16:55Z</time>
      </trkpt>
      <trkpt lat="45.95143" lon="4.81677">
        <ele>255</ele>
        <time>2017-06-22T08:16:56Z</time>
      </trkpt>
      <trkpt lat="45.95145" lon="4.81683">
        <ele>255</ele>
        <time>2017-06-22T08:16:57Z</time>
      </trkpt>
      <trkpt lat="45.95147" lon="4.8169">
        <ele>255</ele>
        <time>2017-06-22T08:16:58Z</time>
      </trkpt>
      <trkpt lat="45.95149" lon="4.81697">
        <ele>255</ele>
        <time>2017-06-22T08:16:59Z</time>
      </trkpt>
      <trkpt lat="45.95153" lon="4.81708">
        <ele>255</ele>
        <time>2017-06-22T08:17:01Z</time>
      </trkpt>
      <trkpt lat="45.95155" lon="4.81714">
        <ele>256</ele>
        <time>2017-06-22T08:17:02Z</time>
      </trkpt>
      <trkpt lat="45.95157" lon="4.8172">
        <ele>256</ele>
        <time>2017-06-22T08:17:03Z</time>
      </trkpt>
      <trkpt lat="45.95159" lon="4.81726">
        <ele>256</ele>
        <time>2017-06-22T08:17:04Z</time>
      </trkpt>
      <trkpt lat="45.95162" lon="4.81731">
        <ele>256</ele>
        <time>2017-06-22T08:17:05Z</time>
      </trkpt>
      <trkpt lat="45.95164" lon="4.81737">
        <ele>257</ele>
        <time>2017-06-22T08:17:06Z</time>
      </trkpt>
      <trkpt lat="45.95167" lon="4.81742">
        <ele>258</ele>
        <time>2017-06-22T08:17:07Z</time>
      </trkpt>
      <trkpt lat="45.9517" lon="4.81747">
        <ele>258</ele>
        <time>2017-06-22T08:17:08Z</time>
      </trkpt>
      <trkpt lat="45.95174" lon="4.81752">
        <ele>258</ele>
        <time>2017-06-22T08:17:09Z</time>
      </trkpt>
      <trkpt lat="45.95177" lon="4.81757">
        <ele>258</ele>
        <time>2017-06-22T08:17:10Z</time>
      </trkpt>
      <trkpt lat="45.9518" lon="4.81763">
        <ele>258</ele>
        <time>2017-06-22T08:17:11Z</time>
      </trkpt>
      <trkpt lat="45.95184" lon="4.81768">
        <ele>258</ele>
        <time>2017-06-22T08:17:12Z</time>
      </trkpt>
      <trkpt lat="45.95187" lon="4.81773">
        <ele>258</ele>
        <time>2017-06-22T08:17:13Z</time>
      </trkpt>
      <trkpt lat="45.95191" lon="4.81778">
        <ele>258</ele>
        <time>2017-06-22T08:17:14Z</time>
      </trkpt>
      <trkpt lat="45.95194" lon="4.81783">
        <ele>258</ele>
        <time>2017-06-22T08:17:15Z</time>
      </trkpt>
      <trkpt lat="45.95198" lon="4.81789">
        <ele>259</ele>
        <time>2017-06-22T08:17:16Z</time>
      </trkpt>
      <trkpt lat="45.95201" lon="4.81794">
        <ele>259</ele>
        <time>2017-06-22T08:17:17Z</time>
      </trkpt>
      <trkpt lat="45.95204" lon="4.81798">
        <ele>259</ele>
        <time>2017-06-22T08:17:18Z</time>
      </trkpt>
      <trkpt lat="45.9521" lon="4.81807">
        <ele>259</ele>
        <time>2017-06-22T08:17:20Z</time>
      </trkpt>
      <trkpt lat="45.95213" lon="4.81811">
        <ele>259</ele>
        <time>2017-06-22T08:17:21Z</time>
      </trkpt>
      <trkpt lat="45.95218" lon="4.81819">
        <ele>259</ele>
        <time>2017-06-22T08:17:23Z</time>
      </trkpt>
      <trkpt lat="45.95221" lon="4.81824">
        <ele>259</ele>
        <time>2017-06-22T08:17:24Z</time>
      </trkpt>
      <trkpt lat="45.95227" lon="4.81832">
        <ele>259</ele>
        <time>2017-06-22T08:17:26Z</time>
      </trkpt>
      <trkpt lat="45.95229" lon="4.81836">
        <ele>260</ele>
        <time>2017-06-22T08:17:27Z</time>
      </trkpt>
      <trkpt lat="45.95235" lon="4.81844">
        <ele>260</ele>
        <time>2017-06-22T08:17:29Z</time>
      </trkpt>
      <trkpt lat="45.95238" lon="4.81848">
        <ele>260</ele>
        <time>2017-06-22T08:17:30Z</time>
      </trkpt>
      <trkpt lat="45.95244" lon="4.81857">
        <ele>260</ele>
        <time>2017-06-22T08:17:32Z</time>
      </trkpt>
      <trkpt lat="45.95247" lon="4.81862">
        <ele>260</ele>
        <time>2017-06-22T08:17:33Z</time>
      </trkpt>
      <trkpt lat="45.9525" lon="4.81866">
        <ele>260</ele>
        <time>2017-06-22T08:17:34Z</time>
      </trkpt>
      <trkpt lat="45.95254" lon="4.81871">
        <ele>260</ele>
        <time>2017-06-22T08:17:35Z</time>
      </trkpt>
      <trkpt lat="45.95257" lon="4.81876">
        <ele>260</ele>
        <time>2017-06-22T08:17:36Z</time>
      </trkpt>
      <trkpt lat="45.9526" lon="4.81881">
        <ele>260</ele>
        <time>2017-06-22T08:17:37Z</time>
      </trkpt>
      <trkpt lat="45.95264" lon="4.81886">
        <ele>260</ele>
        <time>2017-06-22T08:17:38Z</time>
      </trkpt>
      <trkpt lat="45.95267" lon="4.81891">
        <ele>260</ele>
        <time>2017-06-22T08:17:39Z</time>
      </trkpt>
      <trkpt lat="45.95273" lon="4.81899">
        <ele>260</ele>
        <time>2017-06-22T08:17:41Z</time>
      </trkpt>
      <trkpt lat="45.95276" lon="4.81903">
        <ele>260</ele>
        <time>2017-06-22T08:17:42Z</time>
      </trkpt>
      <trkpt lat="45.95282" lon="4.81911">
        <ele>260</ele>
        <time>2017-06-22T08:17:44Z</time>
      </trkpt>
      <trkpt lat="45.95285" lon="4.81914">
        <ele>260</ele>
        <time>2017-06-22T08:17:45Z</time>
      </trkpt>
      <trkpt lat="45.9529" lon="4.81923">
        <ele>261</ele>
        <time>2017-06-22T08:17:47Z</time>
      </trkpt>
      <trkpt lat="45.95292" lon="4.81927">
        <ele>261</ele>
        <time>2017-06-22T08:17:48Z</time>
      </trkpt>
      <trkpt lat="45.95297" lon="4.81934">
        <ele>261</ele>
        <time>2017-06-22T08:17:50Z</time>
      </trkpt>
      <trkpt lat="45.953" lon="4.81937">
        <ele>261</ele>
        <time>2017-06-22T08:17:51Z</time>
      </trkpt>
      <trkpt lat="45.95307" lon="4.81945">
        <ele>261</ele>
        <time>2017-06-22T08:17:53Z</time>
      </trkpt>
      <trkpt lat="45.9531" lon="4.81949">
        <ele>262</ele>
        <time>2017-06-22T08:17:54Z</time>
      </trkpt>
      <trkpt lat="45.95314" lon="4.81953">
        <ele>262</ele>
        <time>2017-06-22T08:17:55Z</time>
      </trkpt>
      <trkpt lat="45.95317" lon="4.81957">
        <ele>262</ele>
        <time>2017-06-22T08:17:56Z</time>
      </trkpt>
      <trkpt lat="45.95321" lon="4.81961">
        <ele>262</ele>
        <time>2017-06-22T08:17:57Z</time>
      </trkpt>
      <trkpt lat="45.95325" lon="4.81965">
        <ele>262</ele>
        <time>2017-06-22T08:17:58Z</time>
      </trkpt>
      <trkpt lat="45.95329" lon="4.81969">
        <ele>262</ele>
        <time>2017-06-22T08:17:59Z</time>
      </trkpt>
      <trkpt lat="45.95333" lon="4.81973">
        <ele>262</ele>
        <time>2017-06-22T08:18:00Z</time>
      </trkpt>
      <trkpt lat="45.95337" lon="4.81977">
        <ele>262</ele>
        <time>2017-06-22T08:18:01Z</time>
      </trkpt>
      <trkpt lat="45.9534" lon="4.81981">
        <ele>262</ele>
        <time>2017-06-22T08:18:02Z</time>
      </trkpt>
      <trkpt lat="45.95344" lon="4.81984">
        <ele>262</ele>
        <time>2017-06-22T08:18:03Z</time>
      </trkpt>
      <trkpt lat="45.95348" lon="4.81988">
        <ele>262</ele>
        <time>2017-06-22T08:18:04Z</time>
      </trkpt>
      <trkpt lat="45.95355" lon="4.81996">
        <ele>262</ele>
        <time>2017-06-22T08:18:06Z</time>
      </trkpt>
      <trkpt lat="45.95358" lon="4.82">
        <ele>262</ele>
        <time>2017-06-22T08:18:07Z</time>
      </trkpt>
      <trkpt lat="45.95366" lon="4.82006">
        <ele>262</ele>
        <time>2017-06-22T08:18:09Z</time>
      </trkpt>
      <trkpt lat="45.95369" lon="4.8201">
        <ele>262</ele>
        <time>2017-06-22T08:18:10Z</time>
      </trkpt>
      <trkpt lat="45.95376" lon="4.82017">
        <ele>262</ele>
        <time>2017-06-22T08:18:12Z</time>
      </trkpt>
      <trkpt lat="45.95379" lon="4.82022">
        <ele>262</ele>
        <time>2017-06-22T08:18:13Z</time>
      </trkpt>
      <trkpt lat="45.95386" lon="4.82029">
        <ele>262</ele>
        <time>2017-06-22T08:18:15Z</time>
      </trkpt>
      <trkpt lat="45.9539" lon="4.82033">
        <ele>261</ele>
        <time>2017-06-22T08:18:16Z</time>
      </trkpt>
      <trkpt lat="45.95394" lon="4.82037">
        <ele>261</ele>
        <time>2017-06-22T08:18:17Z</time>
      </trkpt>
      <trkpt lat="45.95398" lon="4.82041">
        <ele>261</ele>
        <time>2017-06-22T08:18:18Z</time>
      </trkpt>
      <trkpt lat="45.95402" lon="4.82045">
        <ele>261</ele>
        <time>2017-06-22T08:18:19Z</time>
      </trkpt>
      <trkpt lat="45.95406" lon="4.82049">
        <ele>261</ele>
        <time>2017-06-22T08:18:20Z</time>
      </trkpt>
      <trkpt lat="45.95409" lon="4.82053">
        <ele>261</ele>
        <time>2017-06-22T08:18:21Z</time>
      </trkpt>
      <trkpt lat="45.95413" lon="4.82057">
        <ele>261</ele>
        <time>2017-06-22T08:18:22Z</time>
      </trkpt>
      <trkpt lat="45.9542" lon="4.82065">
        <ele>260</ele>
        <time>2017-06-22T08:18:24Z</time>
      </trkpt>
      <trkpt lat="45.95423" lon="4.82069">
        <ele>260</ele>
        <time>2017-06-22T08:18:25Z</time>
      </trkpt>
      <trkpt lat="45.95428" lon="4.82072">
        <ele>260</ele>
        <time>2017-06-22T08:18:26Z</time>
      </trkpt>
      <trkpt lat="45.95432" lon="4.82075">
        <ele>260</ele>
        <time>2017-06-22T08:18:27Z</time>
      </trkpt>
      <trkpt lat="45.95436" lon="4.82079">
        <ele>260</ele>
        <time>2017-06-22T08:18:28Z</time>
      </trkpt>
      <trkpt lat="45.9544" lon="4.82082">
        <ele>260</ele>
        <time>2017-06-22T08:18:29Z</time>
      </trkpt>
      <trkpt lat="45.95447" lon="4.8209">
        <ele>260</ele>
        <time>2017-06-22T08:18:31Z</time>
      </trkpt>
      <trkpt lat="45.9545" lon="4.82093">
        <ele>260</ele>
        <time>2017-06-22T08:18:32Z</time>
      </trkpt>
      <trkpt lat="45.95454" lon="4.82096">
        <ele>260</ele>
        <time>2017-06-22T08:18:33Z</time>
      </trkpt>
      <trkpt lat="45.95458" lon="4.821">
        <ele>260</ele>
        <time>2017-06-22T08:18:34Z</time>
      </trkpt>
      <trkpt lat="45.95465" lon="4.82108">
        <ele>260</ele>
        <time>2017-06-22T08:18:36Z</time>
      </trkpt>
      <trkpt lat="45.95468" lon="4.82112">
        <ele>260</ele>
        <time>2017-06-22T08:18:37Z</time>
      </trkpt>
      <trkpt lat="45.95472" lon="4.82117">
        <ele>260</ele>
        <time>2017-06-22T08:18:38Z</time>
      </trkpt>
      <trkpt lat="45.95476" lon="4.82121">
        <ele>260</ele>
        <time>2017-06-22T08:18:39Z</time>
      </trkpt>
      <trkpt lat="45.9548" lon="4.82125">
        <ele>260</ele>
        <time>2017-06-22T08:18:40Z</time>
      </trkpt>
      <trkpt lat="45.95484" lon="4.8213">
        <ele>260</ele>
        <time>2017-06-22T08:18:41Z</time>
      </trkpt>
      <trkpt lat="45.95488" lon="4.82134">
        <ele>260</ele>
        <time>2017-06-22T08:18:42Z</time>
      </trkpt>
      <trkpt lat="45.95492" lon="4.82138">
        <ele>260</ele>
        <time>2017-06-22T08:18:43Z</time>
      </trkpt>
      <trkpt lat="45.95496" lon="4.82142">
        <ele>260</ele>
        <time>2017-06-22T08:18:44Z</time>
      </trkpt>
      <trkpt lat="45.955" lon="4.82147">
        <ele>260</ele>
        <time>2017-06-22T08:18:45Z</time>
      </trkpt>
      <trkpt lat="45.95504" lon="4.82151">
        <ele>259</ele>
        <time>2017-06-22T08:18:46Z</time>
      </trkpt>
      <trkpt lat="45.95509" lon="4.82155">
        <ele>260</ele>
        <time>2017-06-22T08:18:47Z</time>
      </trkpt>
      <trkpt lat="45.95513" lon="4.8216">
        <ele>260</ele>
        <time>2017-06-22T08:18:48Z</time>
      </trkpt>
      <trkpt lat="45.95517" lon="4.82164">
        <ele>259</ele>
        <time>2017-06-22T08:18:49Z</time>
      </trkpt>
      <trkpt lat="45.95521" lon="4.82168">
        <ele>259</ele>
        <time>2017-06-22T08:18:50Z</time>
      </trkpt>
      <trkpt lat="45.95526" lon="4.82173">
        <ele>259</ele>
        <time>2017-06-22T08:18:51Z</time>
      </trkpt>
      <trkpt lat="45.9553" lon="4.82178">
        <ele>259</ele>
        <time>2017-06-22T08:18:52Z</time>
      </trkpt>
      <trkpt lat="45.95535" lon="4.82182">
        <ele>259</ele>
        <time>2017-06-22T08:18:53Z</time>
      </trkpt>
      <trkpt lat="45.9554" lon="4.82186">
        <ele>259</ele>
        <time>2017-06-22T08:18:54Z</time>
      </trkpt>
      <trkpt lat="45.95545" lon="4.8219">
        <ele>259</ele>
        <time>2017-06-22T08:18:55Z</time>
      </trkpt>
      <trkpt lat="45.9555" lon="4.82194">
        <ele>259</ele>
        <time>2017-06-22T08:18:56Z</time>
      </trkpt>
      <trkpt lat="45.95555" lon="4.82199">
        <ele>259</ele>
        <time>2017-06-22T08:18:57Z</time>
      </trkpt>
      <trkpt lat="45.9556" lon="4.82204">
        <ele>259</ele>
        <time>2017-06-22T08:18:58Z</time>
      </trkpt>
      <trkpt lat="45.95565" lon="4.82208">
        <ele>258</ele>
        <time>2017-06-22T08:18:59Z</time>
      </trkpt>
      <trkpt lat="45.9557" lon="4.82213">
        <ele>258</ele>
        <time>2017-06-22T08:19:00Z</time>
      </trkpt>
      <trkpt lat="45.95576" lon="4.82218">
        <ele>258</ele>
        <time>2017-06-22T08:19:01Z</time>
      </trkpt>
      <trkpt lat="45.95582" lon="4.82222">
        <ele>258</ele>
        <time>2017-06-22T08:19:02Z</time>
      </trkpt>
      <trkpt lat="45.95588" lon="4.82226">
        <ele>257</ele>
        <time>2017-06-22T08:19:03Z</time>
      </trkpt>
      <trkpt lat="45.95595" lon="4.82229">
        <ele>257</ele>
        <time>2017-06-22T08:19:04Z</time>
      </trkpt>
      <trkpt lat="45.95602" lon="4.82231">
        <ele>257</ele>
        <time>2017-06-22T08:19:05Z</time>
      </trkpt>
      <trkpt lat="45.95609" lon="4.82231">
        <ele>257</ele>
        <time>2017-06-22T08:19:06Z</time>
      </trkpt>
      <trkpt lat="45.95616" lon="4.8223">
        <ele>257</ele>
        <time>2017-06-22T08:19:07Z</time>
      </trkpt>
      <trkpt lat="45.95623" lon="4.8223">
        <ele>257</ele>
        <time>2017-06-22T08:19:08Z</time>
      </trkpt>
      <trkpt lat="45.9563" lon="4.8223">
        <ele>257</ele>
        <time>2017-06-22T08:19:09Z</time>
      </trkpt>
      <trkpt lat="45.95637" lon="4.82231">
        <ele>257</ele>
        <time>2017-06-22T08:19:10Z</time>
      </trkpt>
      <trkpt lat="45.95644" lon="4.82232">
        <ele>257</ele>
        <time>2017-06-22T08:19:11Z</time>
      </trkpt>
      <trkpt lat="45.95652" lon="4.82233">
        <ele>257</ele>
        <time>2017-06-22T08:19:12Z</time>
      </trkpt>
      <trkpt lat="45.95659" lon="4.82234">
        <ele>257</ele>
        <time>2017-06-22T08:19:13Z</time>
      </trkpt>
      <trkpt lat="45.95665" lon="4.82236">
        <ele>256</ele>
        <time>2017-06-22T08:19:14Z</time>
      </trkpt>
      <trkpt lat="45.95672" lon="4.82239">
        <ele>255</ele>
        <time>2017-06-22T08:19:15Z</time>
      </trkpt>
      <trkpt lat="45.95678" lon="4.82242">
        <ele>255</ele>
        <time>2017-06-22T08:19:16Z</time>
      </trkpt>
      <trkpt lat="45.95684" lon="4.82246">
        <ele>255</ele>
        <time>2017-06-22T08:19:17Z</time>
      </trkpt>
      <trkpt lat="45.9569" lon="4.82252">
        <ele>255</ele>
        <time>2017-06-22T08:19:18Z</time>
      </trkpt>
      <trkpt lat="45.95695" lon="4.82258">
        <ele>255</ele>
        <time>2017-06-22T08:19:19Z</time>
      </trkpt>
      <trkpt lat="45.95701" lon="4.82264">
        <ele>255</ele>
        <time>2017-06-22T08:19:20Z</time>
      </trkpt>
      <trkpt lat="45.95706" lon="4.8227">
        <ele>255</ele>
        <time>2017-06-22T08:19:21Z</time>
      </trkpt>
      <trkpt lat="45.95711" lon="4.82276">
        <ele>255</ele>
        <time>2017-06-22T08:19:22Z</time>
      </trkpt>
      <trkpt lat="45.95716" lon="4.82282">
        <ele>255</ele>
        <time>2017-06-22T08:19:23Z</time>
      </trkpt>
      <trkpt lat="45.95722" lon="4.82288">
        <ele>255</ele>
        <time>2017-06-22T08:19:24Z</time>
      </trkpt>
      <trkpt lat="45.95728" lon="4.82294">
        <ele>255</ele>
        <time>2017-06-22T08:19:25Z</time>
      </trkpt>
      <trkpt lat="45.95733" lon="4.82301">
        <ele>255</ele>
        <time>2017-06-22T08:19:26Z</time>
      </trkpt>
      <trkpt lat="45.95739" lon="4.82307">
        <ele>255</ele>
        <time>2017-06-22T08:19:27Z</time>
      </trkpt>
      <trkpt lat="45.95745" lon="4.82314">
        <ele>256</ele>
        <time>2017-06-22T08:19:28Z</time>
      </trkpt>
      <trkpt lat="45.9575" lon="4.82321">
        <ele>254</ele>
        <time>2017-06-22T08:19:29Z</time>
      </trkpt>
      <trkpt lat="45.95756" lon="4.82329">
        <ele>254</ele>
        <time>2017-06-22T08:19:30Z</time>
      </trkpt>
      <trkpt lat="45.95762" lon="4.82337">
        <ele>255</ele>
        <time>2017-06-22T08:19:31Z</time>
      </trkpt>
      <trkpt lat="45.95768" lon="4.82345">
        <ele>254</ele>
        <time>2017-06-22T08:19:32Z</time>
      </trkpt>
      <trkpt lat="45.95775" lon="4.82352">
        <ele>253</ele>
        <time>2017-06-22T08:19:33Z</time>
      </trkpt>
      <trkpt lat="45.95781" lon="4.82359">
        <ele>253</ele>
        <time>2017-06-22T08:19:34Z</time>
      </trkpt>
      <trkpt lat="45.95789" lon="4.82365">
        <ele>253</ele>
        <time>2017-06-22T08:19:35Z</time>
      </trkpt>
      <trkpt lat="45.95796" lon="4.82369">
        <ele>252</ele>
        <time>2017-06-22T08:19:36Z</time>
      </trkpt>
      <trkpt lat="45.95804" lon="4.82372">
        <ele>252</ele>
        <time>2017-06-22T08:19:37Z</time>
      </trkpt>
      <trkpt lat="45.95812" lon="4.82375">
        <ele>252</ele>
        <time>2017-06-22T08:19:38Z</time>
      </trkpt>
      <trkpt lat="45.9582" lon="4.82378">
        <ele>252</ele>
        <time>2017-06-22T08:19:39Z</time>
      </trkpt>
      <trkpt lat="45.95828" lon="4.8238">
        <ele>252</ele>
        <time>2017-06-22T08:19:40Z</time>
      </trkpt>
      <trkpt lat="45.95837" lon="4.82381">
        <ele>246</ele>
        <time>2017-06-22T08:19:41Z</time>
      </trkpt>
      <trkpt lat="45.95846" lon="4.82382">
        <ele>246</ele>
        <time>2017-06-22T08:19:42Z</time>
      </trkpt>
      <trkpt lat="45.95855" lon="4.82383">
        <ele>246</ele>
        <time>2017-06-22T08:19:43Z</time>
      </trkpt>
      <trkpt lat="45.95864" lon="4.82384">
        <ele>245</ele>
        <time>2017-06-22T08:19:44Z</time>
      </trkpt>
      <trkpt lat="45.95873" lon="4.82384">
        <ele>245</ele>
        <time>2017-06-22T08:19:45Z</time>
      </trkpt>
      <trkpt lat="45.95882" lon="4.82384">
        <ele>244</ele>
        <time>2017-06-22T08:19:46Z</time>
      </trkpt>
      <trkpt lat="45.95892" lon="4.82384">
        <ele>243</ele>
        <time>2017-06-22T08:19:47Z</time>
      </trkpt>
      <trkpt lat="45.95902" lon="4.82383">
        <ele>243</ele>
        <time>2017-06-22T08:19:48Z</time>
      </trkpt>
      <trkpt lat="45.95913" lon="4.82382">
        <ele>242</ele>
        <time>2017-06-22T08:19:49Z</time>
      </trkpt>
      <trkpt lat="45.95923" lon="4.8238">
        <ele>238</ele>
        <time>2017-06-22T08:19:50Z</time>
      </trkpt>
      <trkpt lat="45.95934" lon="4.82379">
        <ele>238</ele>
        <time>2017-06-22T08:19:51Z</time>
      </trkpt>
      <trkpt lat="45.95945" lon="4.82377">
        <ele>238</ele>
        <time>2017-06-22T08:19:52Z</time>
      </trkpt>
      <trkpt lat="45.95955" lon="4.82375">
        <ele>237</ele>
        <time>2017-06-22T08:19:53Z</time>
      </trkpt>
      <trkpt lat="45.95964" lon="4.82374">
        <ele>237</ele>
        <time>2017-06-22T08:19:54Z</time>
      </trkpt>
      <trkpt lat="45.95973" lon="4.82372">
        <ele>237</ele>
        <time>2017-06-22T08:19:55Z</time>
      </trkpt>
      <trkpt lat="45.95982" lon="4.82372">
        <ele>237</ele>
        <time>2017-06-22T08:19:56Z</time>
      </trkpt>
      <trkpt lat="45.95991" lon="4.82371">
        <ele>237</ele>
        <time>2017-06-22T08:19:57Z</time>
      </trkpt>
      <trkpt lat="45.95997" lon="4.82371">
        <ele>237</ele>
        <time>2017-06-22T08:19:58Z</time>
      </trkpt>
      <trkpt lat="45.96004" lon="4.82372">
        <ele>235</ele>
        <time>2017-06-22T08:19:59Z</time>
      </trkpt>
      <trkpt lat="45.9601" lon="4.82375">
        <ele>235</ele>
        <time>2017-06-22T08:20:00Z</time>
      </trkpt>
      <trkpt lat="45.96015" lon="4.82381">
        <ele>235</ele>
        <time>2017-06-22T08:20:01Z</time>
      </trkpt>
      <trkpt lat="45.96019" lon="4.82387">
        <ele>235</ele>
        <time>2017-06-22T08:20:02Z</time>
      </trkpt>
      <trkpt lat="45.9602" lon="4.82393">
        <ele>235</ele>
        <time>2017-06-22T08:20:03Z</time>
      </trkpt>
      <trkpt lat="45.9602" lon="4.824">
        <ele>235</ele>
        <time>2017-06-22T08:20:04Z</time>
      </trkpt>
      <trkpt lat="45.96019" lon="4.82406">
        <ele>235</ele>
        <time>2017-06-22T08:20:05Z</time>
      </trkpt>
      <trkpt lat="45.96017" lon="4.82417">
        <ele>235</ele>
        <time>2017-06-22T08:20:07Z</time>
      </trkpt>
      <trkpt lat="45.96016" lon="4.82424">
        <ele>235</ele>
        <time>2017-06-22T08:20:08Z</time>
      </trkpt>
      <trkpt lat="45.96015" lon="4.8243">
        <ele>235</ele>
        <time>2017-06-22T08:20:09Z</time>
      </trkpt>
      <trkpt lat="45.96014" lon="4.82437">
        <ele>235</ele>
        <time>2017-06-22T08:20:10Z</time>
      </trkpt>
      <trkpt lat="45.96013" lon="4.82444">
        <ele>235</ele>
        <time>2017-06-22T08:20:11Z</time>
      </trkpt>
      <trkpt lat="45.96013" lon="4.82451">
        <ele>235</ele>
        <time>2017-06-22T08:20:12Z</time>
      </trkpt>
      <trkpt lat="45.96011" lon="4.82462">
        <ele>235</ele>
        <time>2017-06-22T08:20:14Z</time>
      </trkpt>
      <trkpt lat="45.96011" lon="4.82468">
        <ele>235</ele>
        <time>2017-06-22T08:20:15Z</time>
      </trkpt>
      <trkpt lat="45.96009" lon="4.8248">
        <ele>235</ele>
        <time>2017-06-22T08:20:17Z</time>
      </trkpt>
      <trkpt lat="45.96009" lon="4.82487">
        <ele>235</ele>
        <time>2017-06-22T08:20:18Z</time>
      </trkpt>
      <trkpt lat="45.96008" lon="4.82493">
        <ele>235</ele>
        <time>2017-06-22T08:20:19Z</time>
      </trkpt>
      <trkpt lat="45.96007" lon="4.82499">
        <ele>235</ele>
        <time>2017-06-22T08:20:20Z</time>
      </trkpt>
      <trkpt lat="45.96007" lon="4.82506">
        <ele>235</ele>
        <time>2017-06-22T08:20:21Z</time>
      </trkpt>
      <trkpt lat="45.96006" lon="4.82513">
        <ele>235</ele>
        <time>2017-06-22T08:20:22Z</time>
      </trkpt>
      <trkpt lat="45.96005" lon="4.82526">
        <ele>235</ele>
        <time>2017-06-22T08:20:24Z</time>
      </trkpt>
      <trkpt lat="45.96005" lon="4.82532">
        <ele>235</ele>
        <time>2017-06-22T08:20:25Z</time>
      </trkpt>
      <trkpt lat="45.96005" lon="4.82539">
        <ele>235</ele>
        <time>2017-06-22T08:20:26Z</time>
      </trkpt>
      <trkpt lat="45.96006" lon="4.82545">
        <ele>235</ele>
        <time>2017-06-22T08:20:27Z</time>
      </trkpt>
      <trkpt lat="45.96007" lon="4.82552">
        <ele>235</ele>
        <time>2017-06-22T08:20:28Z</time>
      </trkpt>
      <trkpt lat="45.96008" lon="4.82559">
        <ele>235</ele>
        <time>2017-06-22T08:20:29Z</time>
      </trkpt>
      <trkpt lat="45.96009" lon="4.82571">
        <ele>234</ele>
        <time>2017-06-22T08:20:31Z</time>
      </trkpt>
      <trkpt lat="45.96009" lon="4.82577">
        <ele>234</ele>
        <time>2017-06-22T08:20:32Z</time>
      </trkpt>
      <trkpt lat="45.96013" lon="4.82589">
        <ele>235</ele>
        <time>2017-06-22T08:20:34Z</time>
      </trkpt>
      <trkpt lat="45.96015" lon="4.82593">
        <ele>235</ele>
        <time>2017-06-22T08:20:35Z</time>
      </trkpt>
      <trkpt lat="45.96019" lon="4.82604">
        <ele>235</ele>
        <time>2017-06-22T08:20:37Z</time>
      </trkpt>
      <trkpt lat="45.96021" lon="4.8261">
        <ele>235</ele>
        <time>2017-06-22T08:20:38Z</time>
      </trkpt>
      <trkpt lat="45.96023" lon="4.82616">
        <ele>235</ele>
        <time>2017-06-22T08:20:39Z</time>
      </trkpt>
      <trkpt lat="45.96026" lon="4.82621">
        <ele>235</ele>
        <time>2017-06-22T08:20:40Z</time>
      </trkpt>
      <trkpt lat="45.96028" lon="4.82626">
        <ele>235</ele>
        <time>2017-06-22T08:20:41Z</time>
      </trkpt>
      <trkpt lat="45.96031" lon="4.82632">
        <ele>235</ele>
        <time>2017-06-22T08:20:42Z</time>
      </trkpt>
      <trkpt lat="45.96034" lon="4.82639">
        <ele>235</ele>
        <time>2017-06-22T08:20:43Z</time>
      </trkpt>
      <trkpt lat="45.96036" lon="4.82645">
        <ele>235</ele>
        <time>2017-06-22T08:20:44Z</time>
      </trkpt>
      <trkpt lat="45.96039" lon="4.82651">
        <ele>235</ele>
        <time>2017-06-22T08:20:45Z</time>
      </trkpt>
      <trkpt lat="45.96041" lon="4.82656">
        <ele>235</ele>
        <time>2017-06-22T08:20:46Z</time>
      </trkpt>
      <trkpt lat="45.96044" lon="4.82667">
        <ele>236</ele>
        <time>2017-06-22T08:20:48Z</time>
      </trkpt>
      <trkpt lat="45.96045" lon="4.82673">
        <ele>236</ele>
        <time>2017-06-22T08:20:49Z</time>
      </trkpt>
      <trkpt lat="45.96049" lon="4.82684">
        <ele>236</ele>
        <time>2017-06-22T08:20:51Z</time>
      </trkpt>
      <trkpt lat="45.96051" lon="4.8269">
        <ele>236</ele>
        <time>2017-06-22T08:20:52Z</time>
      </trkpt>
      <trkpt lat="45.96054" lon="4.82695">
        <ele>237</ele>
        <time>2017-06-22T08:20:53Z</time>
      </trkpt>
      <trkpt lat="45.96056" lon="4.82701">
        <ele>237</ele>
        <time>2017-06-22T08:20:54Z</time>
      </trkpt>
      <trkpt lat="45.9606" lon="4.82711">
        <ele>237</ele>
        <time>2017-06-22T08:20:56Z</time>
      </trkpt>
      <trkpt lat="45.96061" lon="4.82717">
        <ele>237</ele>
        <time>2017-06-22T08:20:57Z</time>
      </trkpt>
      <trkpt lat="45.96065" lon="4.82729">
        <ele>237</ele>
        <time>2017-06-22T08:20:59Z</time>
      </trkpt>
      <trkpt lat="45.96067" lon="4.82735">
        <ele>237</ele>
        <time>2017-06-22T08:21:00Z</time>
      </trkpt>
      <trkpt lat="45.96069" lon="4.82742">
        <ele>237</ele>
        <time>2017-06-22T08:21:01Z</time>
      </trkpt>
      <trkpt lat="45.96071" lon="4.82747">
        <ele>237</ele>
        <time>2017-06-22T08:21:02Z</time>
      </trkpt>
      <trkpt lat="45.96076" lon="4.82758">
        <ele>238</ele>
        <time>2017-06-22T08:21:04Z</time>
      </trkpt>
      <trkpt lat="45.96078" lon="4.82764">
        <ele>238</ele>
        <time>2017-06-22T08:21:05Z</time>
      </trkpt>
      <trkpt lat="45.96079" lon="4.82771">
        <ele>238</ele>
        <time>2017-06-22T08:21:06Z</time>
      </trkpt>
      <trkpt lat="45.96081" lon="4.82778">
        <ele>238</ele>
        <time>2017-06-22T08:21:07Z</time>
      </trkpt>
      <trkpt lat="45.96082" lon="4.82785">
        <ele>238</ele>
        <time>2017-06-22T08:21:08Z</time>
      </trkpt>
      <trkpt lat="45.96083" lon="4.82791">
        <ele>238</ele>
        <time>2017-06-22T08:21:09Z</time>
      </trkpt>
      <trkpt lat="45.96085" lon="4.82798">
        <ele>237</ele>
        <time>2017-06-22T08:21:10Z</time>
      </trkpt>
      <trkpt lat="45.96087" lon="4.82805">
        <ele>237</ele>
        <time>2017-06-22T08:21:11Z</time>
      </trkpt>
      <trkpt lat="45.96089" lon="4.82812">
        <ele>237</ele>
        <time>2017-06-22T08:21:12Z</time>
      </trkpt>
      <trkpt lat="45.9609" lon="4.82818">
        <ele>237</ele>
        <time>2017-06-22T08:21:13Z</time>
      </trkpt>
      <trkpt lat="45.96091" lon="4.82825">
        <ele>237</ele>
        <time>2017-06-22T08:21:14Z</time>
      </trkpt>
      <trkpt lat="45.96092" lon="4.82831">
        <ele>237</ele>
        <time>2017-06-22T08:21:15Z</time>
      </trkpt>
      <trkpt lat="45.96093" lon="4.82838">
        <ele>237</ele>
        <time>2017-06-22T08:21:16Z</time>
      </trkpt>
      <trkpt lat="45.96094" lon="4.82845">
        <ele>237</ele>
        <time>2017-06-22T08:21:17Z</time>
      </trkpt>
      <trkpt lat="45.96094" lon="4.82852">
        <ele>237</ele>
        <time>2017-06-22T08:21:18Z</time>
      </trkpt>
      <trkpt lat="45.96095" lon="4.82858">
        <ele>237</ele>
        <time>2017-06-22T08:21:19Z</time>
      </trkpt>
      <trkpt lat="45.96094" lon="4.8287">
        <ele>237</ele>
        <time>2017-06-22T08:21:21Z</time>
      </trkpt>
      <trkpt lat="45.96093" lon="4.82876">
        <ele>237</ele>
        <time>2017-06-22T08:21:22Z</time>
      </trkpt>
      <trkpt lat="45.96091" lon="4.82886">
        <ele>237</ele>
        <time>2017-06-22T08:21:24Z</time>
      </trkpt>
      <trkpt lat="45.96089" lon="4.82892">
        <ele>237</ele>
        <time>2017-06-22T08:21:25Z</time>
      </trkpt>
      <trkpt lat="45.96086" lon="4.82902">
        <ele>238</ele>
        <time>2017-06-22T08:21:27Z</time>
      </trkpt>
      <trkpt lat="45.96084" lon="4.82907">
        <ele>238</ele>
        <time>2017-06-22T08:21:28Z</time>
      </trkpt>
      <trkpt lat="45.9608" lon="4.82918">
        <ele>239</ele>
        <time>2017-06-22T08:21:30Z</time>
      </trkpt>
      <trkpt lat="45.96078" lon="4.82924">
        <ele>239</ele>
        <time>2017-06-22T08:21:31Z</time>
      </trkpt>
      <trkpt lat="45.96074" lon="4.82936">
        <ele>240</ele>
        <time>2017-06-22T08:21:33Z</time>
      </trkpt>
      <trkpt lat="45.96073" lon="4.82942">
        <ele>241</ele>
        <time>2017-06-22T08:21:34Z</time>
      </trkpt>
      <trkpt lat="45.9607" lon="4.82954">
        <ele>241</ele>
        <time>2017-06-22T08:21:36Z</time>
      </trkpt>
      <trkpt lat="45.96069" lon="4.82959">
        <ele>241</ele>
        <time>2017-06-22T08:21:37Z</time>
      </trkpt>
      <trkpt lat="45.96066" lon="4.8297">
        <ele>241</ele>
        <time>2017-06-22T08:21:39Z</time>
      </trkpt>
      <trkpt lat="45.96065" lon="4.82976">
        <ele>241</ele>
        <time>2017-06-22T08:21:40Z</time>
      </trkpt>
      <trkpt lat="45.96062" lon="4.82988">
        <ele>241</ele>
        <time>2017-06-22T08:21:42Z</time>
      </trkpt>
      <trkpt lat="45.96062" lon="4.82994">
        <ele>241</ele>
        <time>2017-06-22T08:21:43Z</time>
      </trkpt>
      <trkpt lat="45.96062" lon="4.83001">
        <ele>242</ele>
        <time>2017-06-22T08:21:44Z</time>
      </trkpt>
      <trkpt lat="45.96063" lon="4.83008">
        <ele>242</ele>
        <time>2017-06-22T08:21:45Z</time>
      </trkpt>
      <trkpt lat="45.96064" lon="4.83021">
        <ele>242</ele>
        <time>2017-06-22T08:21:47Z</time>
      </trkpt>
      <trkpt lat="45.96065" lon="4.83028">
        <ele>243</ele>
        <time>2017-06-22T08:21:48Z</time>
      </trkpt>
      <trkpt lat="45.96066" lon="4.83034">
        <ele>243</ele>
        <time>2017-06-22T08:21:49Z</time>
      </trkpt>
      <trkpt lat="45.96068" lon="4.83041">
        <ele>243</ele>
        <time>2017-06-22T08:21:50Z</time>
      </trkpt>
      <trkpt lat="45.96069" lon="4.83047">
        <ele>243</ele>
        <time>2017-06-22T08:21:51Z</time>
      </trkpt>
      <trkpt lat="45.96072" lon="4.83053">
        <ele>243</ele>
        <time>2017-06-22T08:21:52Z</time>
      </trkpt>
      <trkpt lat="45.96074" lon="4.83059">
        <ele>242</ele>
        <time>2017-06-22T08:21:53Z</time>
      </trkpt>
      <trkpt lat="45.96075" lon="4.83065">
        <ele>242</ele>
        <time>2017-06-22T08:21:54Z</time>
      </trkpt>
      <trkpt lat="45.96077" lon="4.83072">
        <ele>242</ele>
        <time>2017-06-22T08:21:55Z</time>
      </trkpt>
      <trkpt lat="45.96078" lon="4.83078">
        <ele>241</ele>
        <time>2017-06-22T08:21:56Z</time>
      </trkpt>
      <trkpt lat="45.9608" lon="4.83085">
        <ele>241</ele>
        <time>2017-06-22T08:21:57Z</time>
      </trkpt>
      <trkpt lat="45.96081" lon="4.83091">
        <ele>241</ele>
        <time>2017-06-22T08:21:58Z</time>
      </trkpt>
      <trkpt lat="45.96082" lon="4.83099">
        <ele>242</ele>
        <time>2017-06-22T08:21:59Z</time>
      </trkpt>
      <trkpt lat="45.96082" lon="4.83106">
        <ele>242</ele>
        <time>2017-06-22T08:22:00Z</time>
      </trkpt>
      <trkpt lat="45.96083" lon="4.83113">
        <ele>242</ele>
        <time>2017-06-22T08:22:01Z</time>
      </trkpt>
      <trkpt lat="45.96082" lon="4.8312">
        <ele>242</ele>
        <time>2017-06-22T08:22:02Z</time>
      </trkpt>
      <trkpt lat="45.96083" lon="4.83127">
        <ele>242</ele>
        <time>2017-06-22T08:22:03Z</time>
      </trkpt>
      <trkpt lat="45.96083" lon="4.83134">
        <ele>242</ele>
        <time>2017-06-22T08:22:04Z</time>
      </trkpt>
      <trkpt lat="45.96083" lon="4.83141">
        <ele>242</ele>
        <time>2017-06-22T08:22:05Z</time>
      </trkpt>
      <trkpt lat="45.96083" lon="4.83147">
        <ele>242</ele>
        <time>2017-06-22T08:22:06Z</time>
      </trkpt>
      <trkpt lat="45.96083" lon="4.83154">
        <ele>241</ele>
        <time>2017-06-22T08:22:07Z</time>
      </trkpt>
      <trkpt lat="45.96083" lon="4.83161">
        <ele>241</ele>
        <time>2017-06-22T08:22:08Z</time>
      </trkpt>
      <trkpt lat="45.96084" lon="4.83168">
        <ele>240</ele>
        <time>2017-06-22T08:22:09Z</time>
      </trkpt>
      <trkpt lat="45.96084" lon="4.83175">
        <ele>240</ele>
        <time>2017-06-22T08:22:10Z</time>
      </trkpt>
      <trkpt lat="45.96085" lon="4.83182">
        <ele>240</ele>
        <time>2017-06-22T08:22:11Z</time>
      </trkpt>
      <trkpt lat="45.96085" lon="4.83188">
        <ele>240</ele>
        <time>2017-06-22T08:22:12Z</time>
      </trkpt>
      <trkpt lat="45.96086" lon="4.83199">
        <ele>240</ele>
        <time>2017-06-22T08:22:14Z</time>
      </trkpt>
      <trkpt lat="45.96086" lon="4.83205">
        <ele>240</ele>
        <time>2017-06-22T08:22:15Z</time>
      </trkpt>
      <trkpt lat="45.96087" lon="4.83215">
        <ele>240</ele>
        <time>2017-06-22T08:22:17Z</time>
      </trkpt>
      <trkpt lat="45.96087" lon="4.83221">
        <ele>240</ele>
        <time>2017-06-22T08:22:18Z</time>
      </trkpt>
      <trkpt lat="45.96087" lon="4.83232">
        <ele>240</ele>
        <time>2017-06-22T08:22:20Z</time>
      </trkpt>
      <trkpt lat="45.96086" lon="4.83237">
        <ele>240</ele>
        <time>2017-06-22T08:22:21Z</time>
      </trkpt>
      <trkpt lat="45.96085" lon="4.83249">
        <ele>240</ele>
        <time>2017-06-22T08:22:23Z</time>
      </trkpt>
      <trkpt lat="45.96085" lon="4.83255">
        <ele>240</ele>
        <time>2017-06-22T08:22:24Z</time>
      </trkpt>
      <trkpt lat="45.96084" lon="4.83268">
        <ele>241</ele>
        <time>2017-06-22T08:22:26Z</time>
      </trkpt>
      <trkpt lat="45.96085" lon="4.83275">
        <ele>241</ele>
        <time>2017-06-22T08:22:27Z</time>
      </trkpt>
      <trkpt lat="45.96085" lon="4.83281">
        <ele>241</ele>
        <time>2017-06-22T08:22:28Z</time>
      </trkpt>
      <trkpt lat="45.96086" lon="4.83288">
        <ele>241</ele>
        <time>2017-06-22T08:22:29Z</time>
      </trkpt>
      <trkpt lat="45.96087" lon="4.83301">
        <ele>241</ele>
        <time>2017-06-22T08:22:31Z</time>
      </trkpt>
      <trkpt lat="45.96087" lon="4.83307">
        <ele>241</ele>
        <time>2017-06-22T08:22:32Z</time>
      </trkpt>
      <trkpt lat="45.9609" lon="4.83319">
        <ele>241</ele>
        <time>2017-06-22T08:22:34Z</time>
      </trkpt>
      <trkpt lat="45.96091" lon="4.83325">
        <ele>241</ele>
        <time>2017-06-22T08:22:35Z</time>
      </trkpt>
      <trkpt lat="45.96093" lon="4.83336">
        <ele>242</ele>
        <time>2017-06-22T08:22:37Z</time>
      </trkpt>
      <trkpt lat="45.96094" lon="4.83342">
        <ele>242</ele>
        <time>2017-06-22T08:22:38Z</time>
      </trkpt>
      <trkpt lat="45.96095" lon="4.83349">
        <ele>242</ele>
        <time>2017-06-22T08:22:39Z</time>
      </trkpt>
      <trkpt lat="45.96096" lon="4.83356">
        <ele>242</ele>
        <time>2017-06-22T08:22:40Z</time>
      </trkpt>
      <trkpt lat="45.96097" lon="4.83364">
        <ele>242</ele>
        <time>2017-06-22T08:22:41Z</time>
      </trkpt>
      <trkpt lat="45.96099" lon="4.83372">
        <ele>242</ele>
        <time>2017-06-22T08:22:42Z</time>
      </trkpt>
      <trkpt lat="45.961" lon="4.8338">
        <ele>242</ele>
        <time>2017-06-22T08:22:43Z</time>
      </trkpt>
      <trkpt lat="45.96102" lon="4.83387">
        <ele>243</ele>
        <time>2017-06-22T08:22:44Z</time>
      </trkpt>
      <trkpt lat="45.96103" lon="4.83395">
        <ele>243</ele>
        <time>2017-06-22T08:22:45Z</time>
      </trkpt>
      <trkpt lat="45.96105" lon="4.83403">
        <ele>243</ele>
        <time>2017-06-22T08:22:46Z</time>
      </trkpt>
      <trkpt lat="45.96106" lon="4.8341">
        <ele>243</ele>
        <time>2017-06-22T08:22:47Z</time>
      </trkpt>
      <trkpt lat="45.96109" lon="4.83417">
        <ele>243</ele>
        <time>2017-06-22T08:22:48Z</time>
      </trkpt>
      <trkpt lat="45.9611" lon="4.83424">
        <ele>243</ele>
        <time>2017-06-22T08:22:49Z</time>
      </trkpt>
      <trkpt lat="45.96112" lon="4.83429">
        <ele>243</ele>
        <time>2017-06-22T08:22:50Z</time>
      </trkpt>
      <trkpt lat="45.96114" lon="4.83441">
        <ele>242</ele>
        <time>2017-06-22T08:22:52Z</time>
      </trkpt>
      <trkpt lat="45.96115" lon="4.83447">
        <ele>242</ele>
        <time>2017-06-22T08:22:53Z</time>
      </trkpt>
      <trkpt lat="45.96117" lon="4.83459">
        <ele>242</ele>
        <time>2017-06-22T08:22:55Z</time>
      </trkpt>
      <trkpt lat="45.96118" lon="4.83465">
        <ele>242</ele>
        <time>2017-06-22T08:22:56Z</time>
      </trkpt>
      <trkpt lat="45.9612" lon="4.83476">
        <ele>242</ele>
        <time>2017-06-22T08:22:58Z</time>
      </trkpt>
      <trkpt lat="45.96121" lon="4.83481">
        <ele>242</ele>
        <time>2017-06-22T08:22:59Z</time>
      </trkpt>
      <trkpt lat="45.96124" lon="4.8349">
        <ele>242</ele>
        <time>2017-06-22T08:23:01Z</time>
      </trkpt>
      <trkpt lat="45.96125" lon="4.83495">
        <ele>242</ele>
        <time>2017-06-22T08:23:02Z</time>
      </trkpt>
      <trkpt lat="45.96126" lon="4.83504">
        <ele>242</ele>
        <time>2017-06-22T08:23:04Z</time>
      </trkpt>
      <trkpt lat="45.96127" lon="4.8351">
        <ele>242</ele>
        <time>2017-06-22T08:23:05Z</time>
      </trkpt>
      <trkpt lat="45.9613" lon="4.83521">
        <ele>242</ele>
        <time>2017-06-22T08:23:07Z</time>
      </trkpt>
      <trkpt lat="45.96131" lon="4.83526">
        <ele>242</ele>
        <time>2017-06-22T08:23:08Z</time>
      </trkpt>
      <trkpt lat="45.96133" lon="4.83533">
        <ele>242</ele>
        <time>2017-06-22T08:23:09Z</time>
      </trkpt>
      <trkpt lat="45.96135" lon="4.83538">
        <ele>242</ele>
        <time>2017-06-22T08:23:10Z</time>
      </trkpt>
      <trkpt lat="45.96139" lon="4.83549">
        <ele>242</ele>
        <time>2017-06-22T08:23:12Z</time>
      </trkpt>
      <trkpt lat="45.9614" lon="4.83555">
        <ele>242</ele>
        <time>2017-06-22T08:23:13Z</time>
      </trkpt>
      <trkpt lat="45.96142" lon="4.83566">
        <ele>242</ele>
        <time>2017-06-22T08:23:15Z</time>
      </trkpt>
      <trkpt lat="45.96143" lon="4.83571">
        <ele>241</ele>
        <time>2017-06-22T08:23:16Z</time>
      </trkpt>
      <trkpt lat="45.96146" lon="4.83583">
        <ele>241</ele>
        <time>2017-06-22T08:23:18Z</time>
      </trkpt>
      <trkpt lat="45.96147" lon="4.83589">
        <ele>242</ele>
        <time>2017-06-22T08:23:19Z</time>
      </trkpt>
      <trkpt lat="45.96148" lon="4.83595">
        <ele>242</ele>
        <time>2017-06-22T08:23:20Z</time>
      </trkpt>
      <trkpt lat="45.9615" lon="4.83601">
        <ele>242</ele>
        <time>2017-06-22T08:23:21Z</time>
      </trkpt>
      <trkpt lat="45.96153" lon="4.83612">
        <ele>242</ele>
        <time>2017-06-22T08:23:23Z</time>
      </trkpt>
      <trkpt lat="45.96155" lon="4.83617">
        <ele>242</ele>
        <time>2017-06-22T08:23:24Z</time>
      </trkpt>
      <trkpt lat="45.96158" lon="4.83628">
        <ele>243</ele>
        <time>2017-06-22T08:23:26Z</time>
      </trkpt>
      <trkpt lat="45.96159" lon="4.83634">
        <ele>243</ele>
        <time>2017-06-22T08:23:27Z</time>
      </trkpt>
      <trkpt lat="45.96161" lon="4.8364">
        <ele>243</ele>
        <time>2017-06-22T08:23:28Z</time>
      </trkpt>
      <trkpt lat="45.96164" lon="4.83646">
        <ele>243</ele>
        <time>2017-06-22T08:23:29Z</time>
      </trkpt>
      <trkpt lat="45.96167" lon="4.83652">
        <ele>242</ele>
        <time>2017-06-22T08:23:30Z</time>
      </trkpt>
      <trkpt lat="45.9617" lon="4.83657">
        <ele>242</ele>
        <time>2017-06-22T08:23:31Z</time>
      </trkpt>
      <trkpt lat="45.96174" lon="4.83662">
        <ele>242</ele>
        <time>2017-06-22T08:23:32Z</time>
      </trkpt>
      <trkpt lat="45.96177" lon="4.83666">
        <ele>242</ele>
        <time>2017-06-22T08:23:33Z</time>
      </trkpt>
      <trkpt lat="45.96181" lon="4.83671">
        <ele>243</ele>
        <time>2017-06-22T08:23:34Z</time>
      </trkpt>
      <trkpt lat="45.96184" lon="4.83675">
        <ele>243</ele>
        <time>2017-06-22T08:23:35Z</time>
      </trkpt>
      <trkpt lat="45.96191" lon="4.83683">
        <ele>243</ele>
        <time>2017-06-22T08:23:37Z</time>
      </trkpt>
      <trkpt lat="45.96195" lon="4.83687">
        <ele>243</ele>
        <time>2017-06-22T08:23:38Z</time>
      </trkpt>
      <trkpt lat="45.96201" lon="4.83695">
        <ele>243</ele>
        <time>2017-06-22T08:23:40Z</time>
      </trkpt>
      <trkpt lat="45.96205" lon="4.83699">
        <ele>243</ele>
        <time>2017-06-22T08:23:41Z</time>
      </trkpt>
      <trkpt lat="45.96212" lon="4.83707">
        <ele>244</ele>
        <time>2017-06-22T08:23:43Z</time>
      </trkpt>
      <trkpt lat="45.96215" lon="4.8371">
        <ele>244</ele>
        <time>2017-06-22T08:23:44Z</time>
      </trkpt>
      <trkpt lat="45.96222" lon="4.83717">
        <ele>244</ele>
        <time>2017-06-22T08:23:46Z</time>
      </trkpt>
      <trkpt lat="45.96225" lon="4.83721">
        <ele>244</ele>
        <time>2017-06-22T08:23:47Z</time>
      </trkpt>
      <trkpt lat="45.96231" lon="4.83728">
        <ele>244</ele>
        <time>2017-06-22T08:23:49Z</time>
      </trkpt>
      <trkpt lat="45.96235" lon="4.83731">
        <ele>244</ele>
        <time>2017-06-22T08:23:50Z</time>
      </trkpt>
      <trkpt lat="45.96241" lon="4.83739">
        <ele>244</ele>
        <time>2017-06-22T08:23:52Z</time>
      </trkpt>
      <trkpt lat="45.96244" lon="4.83743">
        <ele>244</ele>
        <time>2017-06-22T08:23:53Z</time>
      </trkpt>
      <trkpt lat="45.96251" lon="4.83751">
        <ele>244</ele>
        <time>2017-06-22T08:23:55Z</time>
      </trkpt>
      <trkpt lat="45.96255" lon="4.83755">
        <ele>244</ele>
        <time>2017-06-22T08:23:56Z</time>
      </trkpt>
      <trkpt lat="45.96261" lon="4.83762">
        <ele>245</ele>
        <time>2017-06-22T08:23:58Z</time>
      </trkpt>
      <trkpt lat="45.96265" lon="4.83764">
        <ele>245</ele>
        <time>2017-06-22T08:23:59Z</time>
      </trkpt>
      <trkpt lat="45.96269" lon="4.83767">
        <ele>245</ele>
        <time>2017-06-22T08:24:00Z</time>
      </trkpt>
      <trkpt lat="45.96273" lon="4.83771">
        <ele>245</ele>
        <time>2017-06-22T08:24:01Z</time>
      </trkpt>
      <trkpt lat="45.96277" lon="4.83774">
        <ele>245</ele>
        <time>2017-06-22T08:24:02Z</time>
      </trkpt>
      <trkpt lat="45.9628" lon="4.83777">
        <ele>245</ele>
        <time>2017-06-22T08:24:03Z</time>
      </trkpt>
      <trkpt lat="45.96284" lon="4.83781">
        <ele>245</ele>
        <time>2017-06-22T08:24:04Z</time>
      </trkpt>
      <trkpt lat="45.96288" lon="4.83784">
        <ele>245</ele>
        <time>2017-06-22T08:24:05Z</time>
      </trkpt>
      <trkpt lat="45.96292" lon="4.83788">
        <ele>245</ele>
        <time>2017-06-22T08:24:06Z</time>
      </trkpt>
      <trkpt lat="45.96297" lon="4.83792">
        <ele>245</ele>
        <time>2017-06-22T08:24:07Z</time>
      </trkpt>
      <trkpt lat="45.963" lon="4.83796">
        <ele>245</ele>
        <time>2017-06-22T08:24:08Z</time>
      </trkpt>
      <trkpt lat="45.96305" lon="4.838">
        <ele>245</ele>
        <time>2017-06-22T08:24:09Z</time>
      </trkpt>
      <trkpt lat="45.96309" lon="4.83804">
        <ele>245</ele>
        <time>2017-06-22T08:24:10Z</time>
      </trkpt>
      <trkpt lat="45.96312" lon="4.83809">
        <ele>245</ele>
        <time>2017-06-22T08:24:11Z</time>
      </trkpt>
      <trkpt lat="45.96319" lon="4.83816">
        <ele>244</ele>
        <time>2017-06-22T08:24:13Z</time>
      </trkpt>
      <trkpt lat="45.96322" lon="4.83819">
        <ele>244</ele>
        <time>2017-06-22T08:24:14Z</time>
      </trkpt>
      <trkpt lat="45.96329" lon="4.83827">
        <ele>244</ele>
        <time>2017-06-22T08:24:16Z</time>
      </trkpt>
      <trkpt lat="45.96333" lon="4.83829">
        <ele>243</ele>
        <time>2017-06-22T08:24:17Z</time>
      </trkpt>
      <trkpt lat="45.96336" lon="4.83833">
        <ele>244</ele>
        <time>2017-06-22T08:24:18Z</time>
      </trkpt>
      <trkpt lat="45.9634" lon="4.83837">
        <ele>244</ele>
        <time>2017-06-22T08:24:19Z</time>
      </trkpt>
      <trkpt lat="45.96344" lon="4.83841">
        <ele>245</ele>
        <time>2017-06-22T08:24:20Z</time>
      </trkpt>
      <trkpt lat="45.96348" lon="4.83845">
        <ele>245</ele>
        <time>2017-06-22T08:24:21Z</time>
      </trkpt>
      <trkpt lat="45.96351" lon="4.83849">
        <ele>246</ele>
        <time>2017-06-22T08:24:22Z</time>
      </trkpt>
      <trkpt lat="45.96354" lon="4.83853">
        <ele>246</ele>
        <time>2017-06-22T08:24:23Z</time>
      </trkpt>
      <trkpt lat="45.9636" lon="4.83862">
        <ele>247</ele>
        <time>2017-06-22T08:24:25Z</time>
      </trkpt>
      <trkpt lat="45.96362" lon="4.83867">
        <ele>247</ele>
        <time>2017-06-22T08:24:26Z</time>
      </trkpt>
      <trkpt lat="45.96367" lon="4.83878">
        <ele>247</ele>
        <time>2017-06-22T08:24:28Z</time>
      </trkpt>
      <trkpt lat="45.9637" lon="4.83883">
        <ele>248</ele>
        <time>2017-06-22T08:24:29Z</time>
      </trkpt>
      <trkpt lat="45.96374" lon="4.83892">
        <ele>248</ele>
        <time>2017-06-22T08:24:31Z</time>
      </trkpt>
      <trkpt lat="45.96376" lon="4.83897">
        <ele>248</ele>
        <time>2017-06-22T08:24:32Z</time>
      </trkpt>
      <trkpt lat="45.96379" lon="4.83902">
        <ele>248</ele>
        <time>2017-06-22T08:24:33Z</time>
      </trkpt>
      <trkpt lat="45.96382" lon="4.83908">
        <ele>248</ele>
        <time>2017-06-22T08:24:34Z</time>
      </trkpt>
      <trkpt lat="45.96384" lon="4.83913">
        <ele>248</ele>
        <time>2017-06-22T08:24:35Z</time>
      </trkpt>
      <trkpt lat="45.96387" lon="4.8392">
        <ele>251</ele>
        <time>2017-06-22T08:24:36Z</time>
      </trkpt>
      <trkpt lat="45.9639" lon="4.83925">
        <ele>251</ele>
        <time>2017-06-22T08:24:37Z</time>
      </trkpt>
      <trkpt lat="45.96393" lon="4.83931">
        <ele>251</ele>
        <time>2017-06-22T08:24:38Z</time>
      </trkpt>
      <trkpt lat="45.96395" lon="4.83937">
        <ele>251</ele>
        <time>2017-06-22T08:24:39Z</time>
      </trkpt>
      <trkpt lat="45.96398" lon="4.83943">
        <ele>252</ele>
        <time>2017-06-22T08:24:40Z</time>
      </trkpt>
      <trkpt lat="45.964" lon="4.83947">
        <ele>252</ele>
        <time>2017-06-22T08:24:41Z</time>
      </trkpt>
      <trkpt lat="45.96402" lon="4.83954">
        <ele>252</ele>
        <time>2017-06-22T08:24:42Z</time>
      </trkpt>
      <trkpt lat="45.96407" lon="4.83964">
        <ele>252</ele>
        <time>2017-06-22T08:24:44Z</time>
      </trkpt>
      <trkpt lat="45.96409" lon="4.83969">
        <ele>253</ele>
        <time>2017-06-22T08:24:45Z</time>
      </trkpt>
      <trkpt lat="45.96414" lon="4.83978">
        <ele>253</ele>
        <time>2017-06-22T08:24:47Z</time>
      </trkpt>
      <trkpt lat="45.96416" lon="4.83982">
        <ele>253</ele>
        <time>2017-06-22T08:24:48Z</time>
      </trkpt>
      <trkpt lat="45.9642" lon="4.83992">
        <ele>252</ele>
        <time>2017-06-22T08:24:50Z</time>
      </trkpt>
      <trkpt lat="45.96423" lon="4.83998">
        <ele>252</ele>
        <time>2017-06-22T08:24:51Z</time>
      </trkpt>
      <trkpt lat="45.96427" lon="4.84009">
        <ele>252</ele>
        <time>2017-06-22T08:24:53Z</time>
      </trkpt>
      <trkpt lat="45.9643" lon="4.84014">
        <ele>252</ele>
        <time>2017-06-22T08:24:54Z</time>
      </trkpt>
      <trkpt lat="45.96434" lon="4.84023">
        <ele>251</ele>
        <time>2017-06-22T08:24:56Z</time>
      </trkpt>
      <trkpt lat="45.96435" lon="4.84028">
        <ele>251</ele>
        <time>2017-06-22T08:24:57Z</time>
      </trkpt>
      <trkpt lat="45.96437" lon="4.84038">
        <ele>251</ele>
        <time>2017-06-22T08:24:59Z</time>
      </trkpt>
      <trkpt lat="45.96438" lon="4.84044">
        <ele>251</ele>
        <time>2017-06-22T08:25:00Z</time>
      </trkpt>
      <trkpt lat="45.96442" lon="4.84054">
        <ele>251</ele>
        <time>2017-06-22T08:25:02Z</time>
      </trkpt>
      <trkpt lat="45.96444" lon="4.84059">
        <ele>251</ele>
        <time>2017-06-22T08:25:03Z</time>
      </trkpt>
      <trkpt lat="45.96448" lon="4.84069">
        <ele>251</ele>
        <time>2017-06-22T08:25:05Z</time>
      </trkpt>
      <trkpt lat="45.9645" lon="4.84074">
        <ele>251</ele>
        <time>2017-06-22T08:25:06Z</time>
      </trkpt>
      <trkpt lat="45.96453" lon="4.84084">
        <ele>252</ele>
        <time>2017-06-22T08:25:08Z</time>
      </trkpt>
      <trkpt lat="45.96455" lon="4.84089">
        <ele>252</ele>
        <time>2017-06-22T08:25:09Z</time>
      </trkpt>
      <trkpt lat="45.96459" lon="4.84099">
        <ele>252</ele>
        <time>2017-06-22T08:25:11Z</time>
      </trkpt>
      <trkpt lat="45.96461" lon="4.84104">
        <ele>252</ele>
        <time>2017-06-22T08:25:12Z</time>
      </trkpt>
      <trkpt lat="45.96465" lon="4.84113">
        <ele>251</ele>
        <time>2017-06-22T08:25:14Z</time>
      </trkpt>
      <trkpt lat="45.96467" lon="4.84118">
        <ele>251</ele>
        <time>2017-06-22T08:25:15Z</time>
      </trkpt>
      <trkpt lat="45.96471" lon="4.84128">
        <ele>251</ele>
        <time>2017-06-22T08:25:17Z</time>
      </trkpt>
      <trkpt lat="45.96472" lon="4.84133">
        <ele>251</ele>
        <time>2017-06-22T08:25:18Z</time>
      </trkpt>
      <trkpt lat="45.96475" lon="4.84143">
        <ele>251</ele>
        <time>2017-06-22T08:25:20Z</time>
      </trkpt>
      <trkpt lat="45.96476" lon="4.84149">
        <ele>251</ele>
        <time>2017-06-22T08:25:21Z</time>
      </trkpt>
      <trkpt lat="45.96478" lon="4.8416">
        <ele>251</ele>
        <time>2017-06-22T08:25:23Z</time>
      </trkpt>
      <trkpt lat="45.96479" lon="4.84165">
        <ele>251</ele>
        <time>2017-06-22T08:25:24Z</time>
      </trkpt>
      <trkpt lat="45.96481" lon="4.84174">
        <ele>251</ele>
        <time>2017-06-22T08:25:26Z</time>
      </trkpt>
      <trkpt lat="45.96482" lon="4.84179">
        <ele>251</ele>
        <time>2017-06-22T08:25:27Z</time>
      </trkpt>
      <trkpt lat="45.96485" lon="4.84189">
        <ele>251</ele>
        <time>2017-06-22T08:25:29Z</time>
      </trkpt>
      <trkpt lat="45.96486" lon="4.84193">
        <ele>251</ele>
        <time>2017-06-22T08:25:30Z</time>
      </trkpt>
      <trkpt lat="45.96488" lon="4.84203">
        <ele>251</ele>
        <time>2017-06-22T08:25:32Z</time>
      </trkpt>
      <trkpt lat="45.96489" lon="4.84208">
        <ele>252</ele>
        <time>2017-06-22T08:25:33Z</time>
      </trkpt>
      <trkpt lat="45.96491" lon="4.84219">
        <ele>252</ele>
        <time>2017-06-22T08:25:35Z</time>
      </trkpt>
      <trkpt lat="45.96492" lon="4.84225">
        <ele>252</ele>
        <time>2017-06-22T08:25:36Z</time>
      </trkpt>
      <trkpt lat="45.96495" lon="4.84237">
        <ele>251</ele>
        <time>2017-06-22T08:25:38Z</time>
      </trkpt>
      <trkpt lat="45.96496" lon="4.84243">
        <ele>251</ele>
        <time>2017-06-22T08:25:39Z</time>
      </trkpt>
      <trkpt lat="45.96498" lon="4.8425">
        <ele>251</ele>
        <time>2017-06-22T08:25:40Z</time>
      </trkpt>
      <trkpt lat="45.96499" lon="4.84257">
        <ele>251</ele>
        <time>2017-06-22T08:25:41Z</time>
      </trkpt>
      <trkpt lat="45.96501" lon="4.84264">
        <ele>251</ele>
        <time>2017-06-22T08:25:42Z</time>
      </trkpt>
      <trkpt lat="45.96503" lon="4.8427">
        <ele>250</ele>
        <time>2017-06-22T08:25:43Z</time>
      </trkpt>
      <trkpt lat="45.96504" lon="4.84277">
        <ele>250</ele>
        <time>2017-06-22T08:25:44Z</time>
      </trkpt>
      <trkpt lat="45.96506" lon="4.84284">
        <ele>250</ele>
        <time>2017-06-22T08:25:45Z</time>
      </trkpt>
      <trkpt lat="45.96508" lon="4.84291">
        <ele>250</ele>
        <time>2017-06-22T08:25:46Z</time>
      </trkpt>
      <trkpt lat="45.96509" lon="4.84298">
        <ele>250</ele>
        <time>2017-06-22T08:25:47Z</time>
      </trkpt>
      <trkpt lat="45.96511" lon="4.84305">
        <ele>250</ele>
        <time>2017-06-22T08:25:48Z</time>
      </trkpt>
      <trkpt lat="45.96513" lon="4.84312">
        <ele>250</ele>
        <time>2017-06-22T08:25:49Z</time>
      </trkpt>
      <trkpt lat="45.96515" lon="4.8432">
        <ele>250</ele>
        <time>2017-06-22T08:25:50Z</time>
      </trkpt>
      <trkpt lat="45.96516" lon="4.84327">
        <ele>251</ele>
        <time>2017-06-22T08:25:51Z</time>
      </trkpt>
      <trkpt lat="45.96518" lon="4.84335">
        <ele>251</ele>
        <time>2017-06-22T08:25:52Z</time>
      </trkpt>
      <trkpt lat="45.9652" lon="4.84342">
        <ele>251</ele>
        <time>2017-06-22T08:25:53Z</time>
      </trkpt>
      <trkpt lat="45.96522" lon="4.84349">
        <ele>251</ele>
        <time>2017-06-22T08:25:54Z</time>
      </trkpt>
      <trkpt lat="45.96523" lon="4.84356">
        <ele>251</ele>
        <time>2017-06-22T08:25:55Z</time>
      </trkpt>
      <trkpt lat="45.96525" lon="4.84363">
        <ele>251</ele>
        <time>2017-06-22T08:25:56Z</time>
      </trkpt>
      <trkpt lat="45.96526" lon="4.8437">
        <ele>251</ele>
        <time>2017-06-22T08:25:57Z</time>
      </trkpt>
      <trkpt lat="45.96527" lon="4.84377">
        <ele>251</ele>
        <time>2017-06-22T08:25:58Z</time>
      </trkpt>
      <trkpt lat="45.96527" lon="4.84384">
        <ele>251</ele>
        <time>2017-06-22T08:25:59Z</time>
      </trkpt>
      <trkpt lat="45.96527" lon="4.84396">
        <ele>252</ele>
        <time>2017-06-22T08:26:01Z</time>
      </trkpt>
      <trkpt lat="45.96527" lon="4.84403">
        <ele>252</ele>
        <time>2017-06-22T08:26:02Z</time>
      </trkpt>
      <trkpt lat="45.96527" lon="4.84414">
        <ele>252</ele>
        <time>2017-06-22T08:26:04Z</time>
      </trkpt>
      <trkpt lat="45.96527" lon="4.84421">
        <ele>253</ele>
        <time>2017-06-22T08:26:05Z</time>
      </trkpt>
      <trkpt lat="45.96526" lon="4.84433">
        <ele>253</ele>
        <time>2017-06-22T08:26:07Z</time>
      </trkpt>
      <trkpt lat="45.96525" lon="4.84439">
        <ele>253</ele>
        <time>2017-06-22T08:26:08Z</time>
      </trkpt>
      <trkpt lat="45.96524" lon="4.84452">
        <ele>253</ele>
        <time>2017-06-22T08:26:10Z</time>
      </trkpt>
      <trkpt lat="45.96524" lon="4.84459">
        <ele>253</ele>
        <time>2017-06-22T08:26:11Z</time>
      </trkpt>
      <trkpt lat="45.96524" lon="4.84466">
        <ele>253</ele>
        <time>2017-06-22T08:26:12Z</time>
      </trkpt>
      <trkpt lat="45.96523" lon="4.84472">
        <ele>253</ele>
        <time>2017-06-22T08:26:13Z</time>
      </trkpt>
      <trkpt lat="45.96523" lon="4.84485">
        <ele>253</ele>
        <time>2017-06-22T08:26:15Z</time>
      </trkpt>
      <trkpt lat="45.96522" lon="4.84491">
        <ele>253</ele>
        <time>2017-06-22T08:26:16Z</time>
      </trkpt>
      <trkpt lat="45.96521" lon="4.84503">
        <ele>253</ele>
        <time>2017-06-22T08:26:18Z</time>
      </trkpt>
      <trkpt lat="45.96521" lon="4.8451">
        <ele>253</ele>
        <time>2017-06-22T08:26:19Z</time>
      </trkpt>
      <trkpt lat="45.96521" lon="4.84516">
        <ele>253</ele>
        <time>2017-06-22T08:26:20Z</time>
      </trkpt>
      <trkpt lat="45.96521" lon="4.84523">
        <ele>253</ele>
        <time>2017-06-22T08:26:21Z</time>
      </trkpt>
      <trkpt lat="45.9652" lon="4.8453">
        <ele>253</ele>
        <time>2017-06-22T08:26:22Z</time>
      </trkpt>
      <trkpt lat="45.9652" lon="4.84537">
        <ele>253</ele>
        <time>2017-06-22T08:26:23Z</time>
      </trkpt>
      <trkpt lat="45.9652" lon="4.84544">
        <ele>253</ele>
        <time>2017-06-22T08:26:24Z</time>
      </trkpt>
      <trkpt lat="45.9652" lon="4.84551">
        <ele>253</ele>
        <time>2017-06-22T08:26:25Z</time>
      </trkpt>
      <trkpt lat="45.96519" lon="4.84563">
        <ele>253</ele>
        <time>2017-06-22T08:26:27Z</time>
      </trkpt>
      <trkpt lat="45.96518" lon="4.84568">
        <ele>253</ele>
        <time>2017-06-22T08:26:28Z</time>
      </trkpt>
      <trkpt lat="45.96518" lon="4.8458">
        <ele>252</ele>
        <time>2017-06-22T08:26:30Z</time>
      </trkpt>
      <trkpt lat="45.96518" lon="4.84585">
        <ele>252</ele>
        <time>2017-06-22T08:26:31Z</time>
      </trkpt>
      <trkpt lat="45.96518" lon="4.84598">
        <ele>252</ele>
        <time>2017-06-22T08:26:33Z</time>
      </trkpt>
      <trkpt lat="45.96518" lon="4.84604">
        <ele>252</ele>
        <time>2017-06-22T08:26:34Z</time>
      </trkpt>
      <trkpt lat="45.96518" lon="4.84611">
        <ele>252</ele>
        <time>2017-06-22T08:26:35Z</time>
      </trkpt>
      <trkpt lat="45.96518" lon="4.84617">
        <ele>252</ele>
        <time>2017-06-22T08:26:36Z</time>
      </trkpt>
      <trkpt lat="45.96517" lon="4.84629">
        <ele>252</ele>
        <time>2017-06-22T08:26:38Z</time>
      </trkpt>
      <trkpt lat="45.96517" lon="4.84634">
        <ele>252</ele>
        <time>2017-06-22T08:26:39Z</time>
      </trkpt>
      <trkpt lat="45.96517" lon="4.84645">
        <ele>252</ele>
        <time>2017-06-22T08:26:41Z</time>
      </trkpt>
      <trkpt lat="45.96517" lon="4.84651">
        <ele>252</ele>
        <time>2017-06-22T08:26:42Z</time>
      </trkpt>
      <trkpt lat="45.96519" lon="4.84663">
        <ele>252</ele>
        <time>2017-06-22T08:26:44Z</time>
      </trkpt>
      <trkpt lat="45.96519" lon="4.84669">
        <ele>252</ele>
        <time>2017-06-22T08:26:45Z</time>
      </trkpt>
      <trkpt lat="45.96522" lon="4.84681">
        <ele>252</ele>
        <time>2017-06-22T08:26:47Z</time>
      </trkpt>
      <trkpt lat="45.96523" lon="4.84688">
        <ele>252</ele>
        <time>2017-06-22T08:26:48Z</time>
      </trkpt>
      <trkpt lat="45.96524" lon="4.84695">
        <ele>253</ele>
        <time>2017-06-22T08:26:49Z</time>
      </trkpt>
      <trkpt lat="45.96525" lon="4.84702">
        <ele>253</ele>
        <time>2017-06-22T08:26:50Z</time>
      </trkpt>
      <trkpt lat="45.96525" lon="4.84714">
        <ele>253</ele>
        <time>2017-06-22T08:26:52Z</time>
      </trkpt>
      <trkpt lat="45.96525" lon="4.8472">
        <ele>253</ele>
        <time>2017-06-22T08:26:53Z</time>
      </trkpt>
      <trkpt lat="45.96523" lon="4.84732">
        <ele>252</ele>
        <time>2017-06-22T08:26:55Z</time>
      </trkpt>
      <trkpt lat="45.96522" lon="4.84738">
        <ele>252</ele>
        <time>2017-06-22T08:26:56Z</time>
      </trkpt>
      <trkpt lat="45.9652" lon="4.8475">
        <ele>253</ele>
        <time>2017-06-22T08:26:58Z</time>
      </trkpt>
      <trkpt lat="45.96519" lon="4.84756">
        <ele>253</ele>
        <time>2017-06-22T08:26:59Z</time>
      </trkpt>
      <trkpt lat="45.96516" lon="4.84767">
        <ele>253</ele>
        <time>2017-06-22T08:27:01Z</time>
      </trkpt>
      <trkpt lat="45.96515" lon="4.84773">
        <ele>253</ele>
        <time>2017-06-22T08:27:02Z</time>
      </trkpt>
      <trkpt lat="45.96512" lon="4.84784">
        <ele>254</ele>
        <time>2017-06-22T08:27:04Z</time>
      </trkpt>
      <trkpt lat="45.9651" lon="4.84789">
        <ele>254</ele>
        <time>2017-06-22T08:27:05Z</time>
      </trkpt>
      <trkpt lat="45.96508" lon="4.84799">
        <ele>254</ele>
        <time>2017-06-22T08:27:07Z</time>
      </trkpt>
      <trkpt lat="45.96507" lon="4.84804">
        <ele>254</ele>
        <time>2017-06-22T08:27:08Z</time>
      </trkpt>
      <trkpt lat="45.96506" lon="4.84814">
        <ele>254</ele>
        <time>2017-06-22T08:27:10Z</time>
      </trkpt>
      <trkpt lat="45.96505" lon="4.84819">
        <ele>254</ele>
        <time>2017-06-22T08:27:11Z</time>
      </trkpt>
      <trkpt lat="45.96503" lon="4.8483">
        <ele>253</ele>
        <time>2017-06-22T08:27:14Z</time>
      </trkpt>
      <trkpt lat="45.96502" lon="4.84834">
        <ele>253</ele>
        <time>2017-06-22T08:27:15Z</time>
      </trkpt>
      <trkpt lat="45.965" lon="4.84844">
        <ele>254</ele>
        <time>2017-06-22T08:27:18Z</time>
      </trkpt>
      <trkpt lat="45.96499" lon="4.84847">
        <ele>254</ele>
        <time>2017-06-22T08:27:19Z</time>
      </trkpt>
      <trkpt lat="45.96496" lon="4.84857">
        <ele>254</ele>
        <time>2017-06-22T08:27:22Z</time>
      </trkpt>
      <trkpt lat="45.96494" lon="4.84861">
        <ele>254</ele>
        <time>2017-06-22T08:27:23Z</time>
      </trkpt>
      <trkpt lat="45.96491" lon="4.84872">
        <ele>255</ele>
        <time>2017-06-22T08:27:26Z</time>
      </trkpt>
      <trkpt lat="45.9649" lon="4.84876">
        <ele>255</ele>
        <time>2017-06-22T08:27:27Z</time>
      </trkpt>
      <trkpt lat="45.96487" lon="4.84886">
        <ele>255</ele>
        <time>2017-06-22T08:27:29Z</time>
      </trkpt>
      <trkpt lat="45.96486" lon="4.84891">
        <ele>256</ele>
        <time>2017-06-22T08:27:30Z</time>
      </trkpt>
      <trkpt lat="45.96483" lon="4.849">
        <ele>256</ele>
        <time>2017-06-22T08:27:32Z</time>
      </trkpt>
      <trkpt lat="45.96482" lon="4.84904">
        <ele>256</ele>
        <time>2017-06-22T08:27:33Z</time>
      </trkpt>
      <trkpt lat="45.9648" lon="4.84913">
        <ele>256</ele>
        <time>2017-06-22T08:27:35Z</time>
      </trkpt>
      <trkpt lat="45.96479" lon="4.84917">
        <ele>256</ele>
        <time>2017-06-22T08:27:36Z</time>
      </trkpt>
      <trkpt lat="45.96477" lon="4.84925">
        <ele>259</ele>
        <time>2017-06-22T08:27:38Z</time>
      </trkpt>
      <trkpt lat="45.96477" lon="4.84929">
        <ele>259</ele>
        <time>2017-06-22T08:27:39Z</time>
      </trkpt>
      <trkpt lat="45.96474" lon="4.84941">
        <ele>260</ele>
        <time>2017-06-22T08:27:42Z</time>
      </trkpt>
      <trkpt lat="45.96473" lon="4.84945">
        <ele>260</ele>
        <time>2017-06-22T08:27:43Z</time>
      </trkpt>
      <trkpt lat="45.96472" lon="4.84954">
        <ele>261</ele>
        <time>2017-06-22T08:27:45Z</time>
      </trkpt>
      <trkpt lat="45.96471" lon="4.84958">
        <ele>261</ele>
        <time>2017-06-22T08:27:46Z</time>
      </trkpt>
      <trkpt lat="45.9647" lon="4.84967">
        <ele>261</ele>
        <time>2017-06-22T08:27:48Z</time>
      </trkpt>
      <trkpt lat="45.96469" lon="4.84971">
        <ele>262</ele>
        <time>2017-06-22T08:27:49Z</time>
      </trkpt>
      <trkpt lat="45.96468" lon="4.84983">
        <ele>262</ele>
        <time>2017-06-22T08:27:52Z</time>
      </trkpt>
      <trkpt lat="45.96468" lon="4.84988">
        <ele>262</ele>
        <time>2017-06-22T08:27:53Z</time>
      </trkpt>
      <trkpt lat="45.96465" lon="4.85">
        <ele>266</ele>
        <time>2017-06-22T08:27:56Z</time>
      </trkpt>
      <trkpt lat="45.96465" lon="4.85004">
        <ele>266</ele>
        <time>2017-06-22T08:27:57Z</time>
      </trkpt>
      <trkpt lat="45.96463" lon="4.85015">
        <ele>266</ele>
        <time>2017-06-22T08:28:00Z</time>
      </trkpt>
      <trkpt lat="45.96463" lon="4.85019">
        <ele>266</ele>
        <time>2017-06-22T08:28:01Z</time>
      </trkpt>
      <trkpt lat="45.96462" lon="4.85032">
        <ele>266</ele>
        <time>2017-06-22T08:28:04Z</time>
      </trkpt>
      <trkpt lat="45.96462" lon="4.85035">
        <ele>266</ele>
        <time>2017-06-22T08:28:05Z</time>
      </trkpt>
      <trkpt lat="45.96463" lon="4.85048">
        <ele>266</ele>
        <time>2017-06-22T08:28:08Z</time>
      </trkpt>
      <trkpt lat="45.96462" lon="4.85052">
        <ele>266</ele>
        <time>2017-06-22T08:28:09Z</time>
      </trkpt>
      <trkpt lat="45.96462" lon="4.85061">
        <ele>266</ele>
        <time>2017-06-22T08:28:11Z</time>
      </trkpt>
      <trkpt lat="45.96462" lon="4.85065">
        <ele>266</ele>
        <time>2017-06-22T08:28:12Z</time>
      </trkpt>
      <trkpt lat="45.96462" lon="4.85075">
        <ele>266</ele>
        <time>2017-06-22T08:28:14Z</time>
      </trkpt>
      <trkpt lat="45.96461" lon="4.8508">
        <ele>266</ele>
        <time>2017-06-22T08:28:15Z</time>
      </trkpt>
      <trkpt lat="45.96462" lon="4.85091">
        <ele>268</ele>
        <time>2017-06-22T08:28:17Z</time>
      </trkpt>
      <trkpt lat="45.96462" lon="4.85095">
        <ele>268</ele>
        <time>2017-06-22T08:28:18Z</time>
      </trkpt>
      <trkpt lat="45.96462" lon="4.85107">
        <ele>268</ele>
        <time>2017-06-22T08:28:21Z</time>
      </trkpt>
      <trkpt lat="45.9646" lon="4.8511">
        <ele>268</ele>
        <time>2017-06-22T08:28:22Z</time>
      </trkpt>
      <trkpt lat="45.96459" lon="4.85119">
        <ele>268</ele>
        <time>2017-06-22T08:28:24Z</time>
      </trkpt>
      <trkpt lat="45.96459" lon="4.85124">
        <ele>268</ele>
        <time>2017-06-22T08:28:25Z</time>
      </trkpt>
      <trkpt lat="45.96457" lon="4.85136">
        <ele>268</ele>
        <time>2017-06-22T08:28:28Z</time>
      </trkpt>
      <trkpt lat="45.96456" lon="4.8514">
        <ele>268</ele>
        <time>2017-06-22T08:28:29Z</time>
      </trkpt>
      <trkpt lat="45.96454" lon="4.85151">
        <ele>268</ele>
        <time>2017-06-22T08:28:32Z</time>
      </trkpt>
      <trkpt lat="45.96453" lon="4.85154">
        <ele>268</ele>
        <time>2017-06-22T08:28:33Z</time>
      </trkpt>
      <trkpt lat="45.96452" lon="4.85167">
        <ele>268</ele>
        <time>2017-06-22T08:28:37Z</time>
      </trkpt>
      <trkpt lat="45.96451" lon="4.8517">
        <ele>269</ele>
        <time>2017-06-22T08:28:38Z</time>
      </trkpt>
      <trkpt lat="45.9645" lon="4.85182">
        <ele>269</ele>
        <time>2017-06-22T08:28:42Z</time>
      </trkpt>
      <trkpt lat="45.96449" lon="4.85185">
        <ele>269</ele>
        <time>2017-06-22T08:28:43Z</time>
      </trkpt>
      <trkpt lat="45.96447" lon="4.85197">
        <ele>269</ele>
        <time>2017-06-22T08:28:47Z</time>
      </trkpt>
      <trkpt lat="45.96447" lon="4.85201">
        <ele>269</ele>
        <time>2017-06-22T08:28:48Z</time>
      </trkpt>
      <trkpt lat="45.96447" lon="4.85213">
        <ele>269</ele>
        <time>2017-06-22T08:28:51Z</time>
      </trkpt>
      <trkpt lat="45.96447" lon="4.85216">
        <ele>269</ele>
        <time>2017-06-22T08:28:52Z</time>
      </trkpt>
      <trkpt lat="45.96447" lon="4.85226">
        <ele>269</ele>
        <time>2017-06-22T08:28:55Z</time>
      </trkpt>
      <trkpt lat="45.96446" lon="4.8523">
        <ele>269</ele>
        <time>2017-06-22T08:28:56Z</time>
      </trkpt>
      <trkpt lat="45.96446" lon="4.85241">
        <ele>269</ele>
        <time>2017-06-22T08:28:59Z</time>
      </trkpt>
      <trkpt lat="45.96446" lon="4.85244">
        <ele>269</ele>
        <time>2017-06-22T08:29:00Z</time>
      </trkpt>
      <trkpt lat="45.96445" lon="4.85256">
        <ele>270</ele>
        <time>2017-06-22T08:29:03Z</time>
      </trkpt>
      <trkpt lat="45.96446" lon="4.85259">
        <ele>270</ele>
        <time>2017-06-22T08:29:04Z</time>
      </trkpt>
      <trkpt lat="45.96446" lon="4.8527">
        <ele>270</ele>
        <time>2017-06-22T08:29:07Z</time>
      </trkpt>
      <trkpt lat="45.96446" lon="4.85274">
        <ele>270</ele>
        <time>2017-06-22T08:29:08Z</time>
      </trkpt>
      <trkpt lat="45.96446" lon="4.85285">
        <ele>270</ele>
        <time>2017-06-22T08:29:11Z</time>
      </trkpt>
      <trkpt lat="45.96446" lon="4.85288">
        <ele>270</ele>
        <time>2017-06-22T08:29:12Z</time>
      </trkpt>
      <trkpt lat="45.96446" lon="4.85299">
        <ele>270</ele>
        <time>2017-06-22T08:29:15Z</time>
      </trkpt>
      <trkpt lat="45.96447" lon="4.85302">
        <ele>270</ele>
        <time>2017-06-22T08:29:16Z</time>
      </trkpt>
      <trkpt lat="45.96446" lon="4.85314">
        <ele>270</ele>
        <time>2017-06-22T08:29:19Z</time>
      </trkpt>
      <trkpt lat="45.96446" lon="4.85318">
        <ele>271</ele>
        <time>2017-06-22T08:29:20Z</time>
      </trkpt>
      <trkpt lat="45.96447" lon="4.8533">
        <ele>271</ele>
        <time>2017-06-22T08:29:23Z</time>
      </trkpt>
      <trkpt lat="45.96448" lon="4.85334">
        <ele>271</ele>
        <time>2017-06-22T08:29:24Z</time>
      </trkpt>
      <trkpt lat="45.96449" lon="4.85345">
        <ele>271</ele>
        <time>2017-06-22T08:29:27Z</time>
      </trkpt>
      <trkpt lat="45.96449" lon="4.85349">
        <ele>271</ele>
        <time>2017-06-22T08:29:28Z</time>
      </trkpt>
      <trkpt lat="45.9645" lon="4.85361">
        <ele>272</ele>
        <time>2017-06-22T08:29:31Z</time>
      </trkpt>
      <trkpt lat="45.96451" lon="4.85365">
        <ele>272</ele>
        <time>2017-06-22T08:29:32Z</time>
      </trkpt>
      <trkpt lat="45.96452" lon="4.85377">
        <ele>272</ele>
        <time>2017-06-22T08:29:35Z</time>
      </trkpt>
      <trkpt lat="45.96453" lon="4.85381">
        <ele>272</ele>
        <time>2017-06-22T08:29:36Z</time>
      </trkpt>
      <trkpt lat="45.96454" lon="4.85389">
        <ele>272</ele>
        <time>2017-06-22T08:29:38Z</time>
      </trkpt>
      <trkpt lat="45.96454" lon="4.85394">
        <ele>272</ele>
        <time>2017-06-22T08:29:39Z</time>
      </trkpt>
      <trkpt lat="45.96456" lon="4.85404">
        <ele>272</ele>
        <time>2017-06-22T08:29:41Z</time>
      </trkpt>
      <trkpt lat="45.96456" lon="4.85409">
        <ele>272</ele>
        <time>2017-06-22T08:29:42Z</time>
      </trkpt>
      <trkpt lat="45.96458" lon="4.85418">
        <ele>272</ele>
        <time>2017-06-22T08:29:44Z</time>
      </trkpt>
      <trkpt lat="45.96458" lon="4.85422">
        <ele>272</ele>
        <time>2017-06-22T08:29:45Z</time>
      </trkpt>
      <trkpt lat="45.96457" lon="4.85431">
        <ele>272</ele>
        <time>2017-06-22T08:29:47Z</time>
      </trkpt>
      <trkpt lat="45.96457" lon="4.85435">
        <ele>272</ele>
        <time>2017-06-22T08:29:48Z</time>
      </trkpt>
      <trkpt lat="45.96458" lon="4.85445">
        <ele>272</ele>
        <time>2017-06-22T08:29:50Z</time>
      </trkpt>
      <trkpt lat="45.96458" lon="4.85451">
        <ele>272</ele>
        <time>2017-06-22T08:29:51Z</time>
      </trkpt>
      <trkpt lat="45.96457" lon="4.85463">
        <ele>272</ele>
        <time>2017-06-22T08:29:53Z</time>
      </trkpt>
      <trkpt lat="45.96457" lon="4.85469">
        <ele>272</ele>
        <time>2017-06-22T08:29:54Z</time>
      </trkpt>
      <trkpt lat="45.96458" lon="4.85481">
        <ele>272</ele>
        <time>2017-06-22T08:29:56Z</time>
      </trkpt>
      <trkpt lat="45.96458" lon="4.85487">
        <ele>272</ele>
        <time>2017-06-22T08:29:57Z</time>
      </trkpt>
      <trkpt lat="45.96458" lon="4.85497">
        <ele>272</ele>
        <time>2017-06-22T08:29:59Z</time>
      </trkpt>
      <trkpt lat="45.96458" lon="4.85502">
        <ele>272</ele>
        <time>2017-06-22T08:30:00Z</time>
      </trkpt>
      <trkpt lat="45.96459" lon="4.85512">
        <ele>272</ele>
        <time>2017-06-22T08:30:02Z</time>
      </trkpt>
      <trkpt lat="45.96458" lon="4.85517">
        <ele>272</ele>
        <time>2017-06-22T08:30:03Z</time>
      </trkpt>
      <trkpt lat="45.96458" lon="4.85527">
        <ele>272</ele>
        <time>2017-06-22T08:30:05Z</time>
      </trkpt>
      <trkpt lat="45.9646" lon="4.85532">
        <ele>272</ele>
        <time>2017-06-22T08:30:06Z</time>
      </trkpt>
      <trkpt lat="45.9646" lon="4.85544">
        <ele>272</ele>
        <time>2017-06-22T08:30:08Z</time>
      </trkpt>
      <trkpt lat="45.96461" lon="4.85551">
        <ele>271</ele>
        <time>2017-06-22T08:30:09Z</time>
      </trkpt>
      <trkpt lat="45.96462" lon="4.85563">
        <ele>271</ele>
        <time>2017-06-22T08:30:11Z</time>
      </trkpt>
      <trkpt lat="45.96462" lon="4.85569">
        <ele>271</ele>
        <time>2017-06-22T08:30:12Z</time>
      </trkpt>
      <trkpt lat="45.96463" lon="4.8558">
        <ele>271</ele>
        <time>2017-06-22T08:30:14Z</time>
      </trkpt>
      <trkpt lat="45.96463" lon="4.85585">
        <ele>271</ele>
        <time>2017-06-22T08:30:15Z</time>
      </trkpt>
      <trkpt lat="45.96465" lon="4.85595">
        <ele>271</ele>
        <time>2017-06-22T08:30:17Z</time>
      </trkpt>
      <trkpt lat="45.96465" lon="4.856">
        <ele>271</ele>
        <time>2017-06-22T08:30:18Z</time>
      </trkpt>
      <trkpt lat="45.96467" lon="4.85609">
        <ele>271</ele>
        <time>2017-06-22T08:30:20Z</time>
      </trkpt>
      <trkpt lat="45.96467" lon="4.85615">
        <ele>271</ele>
        <time>2017-06-22T08:30:21Z</time>
      </trkpt>
      <trkpt lat="45.96467" lon="4.85626">
        <ele>271</ele>
        <time>2017-06-22T08:30:23Z</time>
      </trkpt>
      <trkpt lat="45.96467" lon="4.85633">
        <ele>271</ele>
        <time>2017-06-22T08:30:24Z</time>
      </trkpt>
      <trkpt lat="45.96468" lon="4.85644">
        <ele>271</ele>
        <time>2017-06-22T08:30:26Z</time>
      </trkpt>
      <trkpt lat="45.96469" lon="4.85648">
        <ele>271</ele>
        <time>2017-06-22T08:30:27Z</time>
      </trkpt>
      <trkpt lat="45.9647" lon="4.85659">
        <ele>271</ele>
        <time>2017-06-22T08:30:29Z</time>
      </trkpt>
      <trkpt lat="45.96471" lon="4.85664">
        <ele>271</ele>
        <time>2017-06-22T08:30:30Z</time>
      </trkpt>
      <trkpt lat="45.96473" lon="4.85675">
        <ele>272</ele>
        <time>2017-06-22T08:30:32Z</time>
      </trkpt>
      <trkpt lat="45.96474" lon="4.85681">
        <ele>272</ele>
        <time>2017-06-22T08:30:33Z</time>
      </trkpt>
      <trkpt lat="45.96476" lon="4.85692">
        <ele>272</ele>
        <time>2017-06-22T08:30:35Z</time>
      </trkpt>
      <trkpt lat="45.96477" lon="4.85697">
        <ele>272</ele>
        <time>2017-06-22T08:30:36Z</time>
      </trkpt>
      <trkpt lat="45.96479" lon="4.85707">
        <ele>272</ele>
        <time>2017-06-22T08:30:38Z</time>
      </trkpt>
      <trkpt lat="45.9648" lon="4.85712">
        <ele>272</ele>
        <time>2017-06-22T08:30:39Z</time>
      </trkpt>
      <trkpt lat="45.96481" lon="4.85721">
        <ele>272</ele>
        <time>2017-06-22T08:30:41Z</time>
      </trkpt>
      <trkpt lat="45.96481" lon="4.85725">
        <ele>272</ele>
        <time>2017-06-22T08:30:42Z</time>
      </trkpt>
      <trkpt lat="45.96483" lon="4.85736">
        <ele>273</ele>
        <time>2017-06-22T08:30:44Z</time>
      </trkpt>
      <trkpt lat="45.96483" lon="4.85741">
        <ele>273</ele>
        <time>2017-06-22T08:30:45Z</time>
      </trkpt>
      <trkpt lat="45.96484" lon="4.8575">
        <ele>273</ele>
        <time>2017-06-22T08:30:47Z</time>
      </trkpt>
      <trkpt lat="45.96484" lon="4.85755">
        <ele>274</ele>
        <time>2017-06-22T08:30:48Z</time>
      </trkpt>
      <trkpt lat="45.96485" lon="4.85764">
        <ele>274</ele>
        <time>2017-06-22T08:30:50Z</time>
      </trkpt>
      <trkpt lat="45.96485" lon="4.85769">
        <ele>274</ele>
        <time>2017-06-22T08:30:51Z</time>
      </trkpt>
      <trkpt lat="45.96486" lon="4.8578">
        <ele>274</ele>
        <time>2017-06-22T08:30:53Z</time>
      </trkpt>
      <trkpt lat="45.96487" lon="4.85786">
        <ele>274</ele>
        <time>2017-06-22T08:30:54Z</time>
      </trkpt>
      <trkpt lat="45.96489" lon="4.85797">
        <ele>274</ele>
        <time>2017-06-22T08:30:56Z</time>
      </trkpt>
      <trkpt lat="45.96491" lon="4.85803">
        <ele>274</ele>
        <time>2017-06-22T08:30:57Z</time>
      </trkpt>
      <trkpt lat="45.96492" lon="4.85813">
        <ele>274</ele>
        <time>2017-06-22T08:30:59Z</time>
      </trkpt>
      <trkpt lat="45.96493" lon="4.85818">
        <ele>274</ele>
        <time>2017-06-22T08:31:00Z</time>
      </trkpt>
      <trkpt lat="45.96494" lon="4.85826">
        <ele>275</ele>
        <time>2017-06-22T08:31:02Z</time>
      </trkpt>
      <trkpt lat="45.96495" lon="4.85831">
        <ele>275</ele>
        <time>2017-06-22T08:31:03Z</time>
      </trkpt>
      <trkpt lat="45.96498" lon="4.8584">
        <ele>275</ele>
        <time>2017-06-22T08:31:05Z</time>
      </trkpt>
      <trkpt lat="45.96499" lon="4.85846">
        <ele>275</ele>
        <time>2017-06-22T08:31:06Z</time>
      </trkpt>
      <trkpt lat="45.96501" lon="4.85856">
        <ele>275</ele>
        <time>2017-06-22T08:31:08Z</time>
      </trkpt>
      <trkpt lat="45.96501" lon="4.85862">
        <ele>275</ele>
        <time>2017-06-22T08:31:09Z</time>
      </trkpt>
      <trkpt lat="45.96503" lon="4.85871">
        <ele>275</ele>
        <time>2017-06-22T08:31:11Z</time>
      </trkpt>
      <trkpt lat="45.96503" lon="4.85876">
        <ele>275</ele>
        <time>2017-06-22T08:31:12Z</time>
      </trkpt>
      <trkpt lat="45.96504" lon="4.85887">
        <ele>275</ele>
        <time>2017-06-22T08:31:14Z</time>
      </trkpt>
      <trkpt lat="45.96504" lon="4.85892">
        <ele>275</ele>
        <time>2017-06-22T08:31:15Z</time>
      </trkpt>
      <trkpt lat="45.96505" lon="4.85903">
        <ele>275</ele>
        <time>2017-06-22T08:31:17Z</time>
      </trkpt>
      <trkpt lat="45.96506" lon="4.85908">
        <ele>274</ele>
        <time>2017-06-22T08:31:18Z</time>
      </trkpt>
      <trkpt lat="45.96509" lon="4.85917">
        <ele>274</ele>
        <time>2017-06-22T08:31:20Z</time>
      </trkpt>
      <trkpt lat="45.9651" lon="4.85922">
        <ele>274</ele>
        <time>2017-06-22T08:31:21Z</time>
      </trkpt>
      <trkpt lat="45.96514" lon="4.8593">
        <ele>275</ele>
        <time>2017-06-22T08:31:23Z</time>
      </trkpt>
      <trkpt lat="45.96515" lon="4.85934">
        <ele>275</ele>
        <time>2017-06-22T08:31:24Z</time>
      </trkpt>
      <trkpt lat="45.96519" lon="4.85944">
        <ele>275</ele>
        <time>2017-06-22T08:31:26Z</time>
      </trkpt>
      <trkpt lat="45.96521" lon="4.85949">
        <ele>275</ele>
        <time>2017-06-22T08:31:27Z</time>
      </trkpt>
      <trkpt lat="45.96525" lon="4.85958">
        <ele>275</ele>
        <time>2017-06-22T08:31:29Z</time>
      </trkpt>
      <trkpt lat="45.96527" lon="4.85963">
        <ele>275</ele>
        <time>2017-06-22T08:31:30Z</time>
      </trkpt>
      <trkpt lat="45.96531" lon="4.85972">
        <ele>275</ele>
        <time>2017-06-22T08:31:32Z</time>
      </trkpt>
      <trkpt lat="45.96533" lon="4.85975">
        <ele>275</ele>
        <time>2017-06-22T08:31:33Z</time>
      </trkpt>
      <trkpt lat="45.96536" lon="4.85983">
        <ele>275</ele>
        <time>2017-06-22T08:31:35Z</time>
      </trkpt>
      <trkpt lat="45.96538" lon="4.85987">
        <ele>275</ele>
        <time>2017-06-22T08:31:36Z</time>
      </trkpt>
      <trkpt lat="45.96542" lon="4.85995">
        <ele>275</ele>
        <time>2017-06-22T08:31:38Z</time>
      </trkpt>
      <trkpt lat="45.96544" lon="4.86">
        <ele>275</ele>
        <time>2017-06-22T08:31:39Z</time>
      </trkpt>
      <trkpt lat="45.9655" lon="4.86009">
        <ele>276</ele>
        <time>2017-06-22T08:31:41Z</time>
      </trkpt>
      <trkpt lat="45.96553" lon="4.86014">
        <ele>276</ele>
        <time>2017-06-22T08:31:42Z</time>
      </trkpt>
      <trkpt lat="45.96556" lon="4.8602">
        <ele>276</ele>
        <time>2017-06-22T08:31:43Z</time>
      </trkpt>
      <trkpt lat="45.96559" lon="4.86025">
        <ele>276</ele>
        <time>2017-06-22T08:31:44Z</time>
      </trkpt>
      <trkpt lat="45.96564" lon="4.86033">
        <ele>276</ele>
        <time>2017-06-22T08:31:46Z</time>
      </trkpt>
      <trkpt lat="45.96566" lon="4.86037">
        <ele>276</ele>
        <time>2017-06-22T08:31:47Z</time>
      </trkpt>
      <trkpt lat="45.96571" lon="4.86046">
        <ele>276</ele>
        <time>2017-06-22T08:31:50Z</time>
      </trkpt>
      <trkpt lat="45.96573" lon="4.86049">
        <ele>276</ele>
        <time>2017-06-22T08:31:51Z</time>
      </trkpt>
      <trkpt lat="45.96578" lon="4.86057">
        <ele>277</ele>
        <time>2017-06-22T08:31:54Z</time>
      </trkpt>
      <trkpt lat="45.96579" lon="4.8606">
        <ele>277</ele>
        <time>2017-06-22T08:31:55Z</time>
      </trkpt>
      <trkpt lat="45.96584" lon="4.86071">
        <ele>279</ele>
        <time>2017-06-22T08:31:58Z</time>
      </trkpt>
      <trkpt lat="45.96585" lon="4.86075">
        <ele>279</ele>
        <time>2017-06-22T08:31:59Z</time>
      </trkpt>
      <trkpt lat="45.96587" lon="4.86083">
        <ele>278</ele>
        <time>2017-06-22T08:32:01Z</time>
      </trkpt>
      <trkpt lat="45.96588" lon="4.86088">
        <ele>279</ele>
        <time>2017-06-22T08:32:02Z</time>
      </trkpt>
      <trkpt lat="45.96589" lon="4.86097">
        <ele>280</ele>
        <time>2017-06-22T08:32:04Z</time>
      </trkpt>
      <trkpt lat="45.9659" lon="4.86101">
        <ele>280</ele>
        <time>2017-06-22T08:32:05Z</time>
      </trkpt>
      <trkpt lat="45.96591" lon="4.8611">
        <ele>281</ele>
        <time>2017-06-22T08:32:07Z</time>
      </trkpt>
      <trkpt lat="45.96591" lon="4.86114">
        <ele>281</ele>
        <time>2017-06-22T08:32:08Z</time>
      </trkpt>
      <trkpt lat="45.96591" lon="4.86127">
        <ele>281</ele>
        <time>2017-06-22T08:32:11Z</time>
      </trkpt>
      <trkpt lat="45.96591" lon="4.86131">
        <ele>281</ele>
        <time>2017-06-22T08:32:12Z</time>
      </trkpt>
      <trkpt lat="45.9659" lon="4.86143">
        <ele>281</ele>
        <time>2017-06-22T08:32:15Z</time>
      </trkpt>
      <trkpt lat="45.96589" lon="4.86147">
        <ele>281</ele>
        <time>2017-06-22T08:32:16Z</time>
      </trkpt>
      <trkpt lat="45.96588" lon="4.8616">
        <ele>281</ele>
        <time>2017-06-22T08:32:19Z</time>
      </trkpt>
      <trkpt lat="45.96588" lon="4.86164">
        <ele>280</ele>
        <time>2017-06-22T08:32:20Z</time>
      </trkpt>
      <trkpt lat="45.96587" lon="4.86175">
        <ele>281</ele>
        <time>2017-06-22T08:32:23Z</time>
      </trkpt>
      <trkpt lat="45.96586" lon="4.86179">
        <ele>281</ele>
        <time>2017-06-22T08:32:24Z</time>
      </trkpt>
      <trkpt lat="45.96585" lon="4.8619">
        <ele>282</ele>
        <time>2017-06-22T08:32:27Z</time>
      </trkpt>
      <trkpt lat="45.96585" lon="4.86194">
        <ele>282</ele>
        <time>2017-06-22T08:32:28Z</time>
      </trkpt>
      <trkpt lat="45.96584" lon="4.86205">
        <ele>282</ele>
        <time>2017-06-22T08:32:31Z</time>
      </trkpt>
      <trkpt lat="45.96583" lon="4.86209">
        <ele>280</ele>
        <time>2017-06-22T08:32:32Z</time>
      </trkpt>
      <trkpt lat="45.96582" lon="4.86219">
        <ele>280</ele>
        <time>2017-06-22T08:32:35Z</time>
      </trkpt>
      <trkpt lat="45.96582" lon="4.86223">
        <ele>280</ele>
        <time>2017-06-22T08:32:36Z</time>
      </trkpt>
      <trkpt lat="45.9658" lon="4.86235">
        <ele>280</ele>
        <time>2017-06-22T08:32:39Z</time>
      </trkpt>
      <trkpt lat="45.96579" lon="4.86238">
        <ele>280</ele>
        <time>2017-06-22T08:32:40Z</time>
      </trkpt>
      <trkpt lat="45.96579" lon="4.86249">
        <ele>281</ele>
        <time>2017-06-22T08:32:43Z</time>
      </trkpt>
      <trkpt lat="45.96579" lon="4.86253">
        <ele>281</ele>
        <time>2017-06-22T08:32:44Z</time>
      </trkpt>
      <trkpt lat="45.96578" lon="4.86264">
        <ele>281</ele>
        <time>2017-06-22T08:32:47Z</time>
      </trkpt>
      <trkpt lat="45.96578" lon="4.86267">
        <ele>281</ele>
        <time>2017-06-22T08:32:48Z</time>
      </trkpt>
      <trkpt lat="45.96577" lon="4.86278">
        <ele>282</ele>
        <time>2017-06-22T08:32:51Z</time>
      </trkpt>
      <trkpt lat="45.96577" lon="4.86281">
        <ele>282</ele>
        <time>2017-06-22T08:32:52Z</time>
      </trkpt>
      <trkpt lat="45.96577" lon="4.86292">
        <ele>282</ele>
        <time>2017-06-22T08:32:55Z</time>
      </trkpt>
      <trkpt lat="45.96576" lon="4.86295">
        <ele>282</ele>
        <time>2017-06-22T08:32:56Z</time>
      </trkpt>
      <trkpt lat="45.96575" lon="4.86305">
        <ele>283</ele>
        <time>2017-06-22T08:32:59Z</time>
      </trkpt>
      <trkpt lat="45.96575" lon="4.86309">
        <ele>283</ele>
        <time>2017-06-22T08:33:00Z</time>
      </trkpt>
      <trkpt lat="45.96573" lon="4.86319">
        <ele>283</ele>
        <time>2017-06-22T08:33:03Z</time>
      </trkpt>
      <trkpt lat="45.96573" lon="4.86322">
        <ele>284</ele>
        <time>2017-06-22T08:33:04Z</time>
      </trkpt>
      <trkpt lat="45.96573" lon="4.86332">
        <ele>284</ele>
        <time>2017-06-22T08:33:07Z</time>
      </trkpt>
      <trkpt lat="45.96573" lon="4.86335">
        <ele>285</ele>
        <time>2017-06-22T08:33:08Z</time>
      </trkpt>
      <trkpt lat="45.96572" lon="4.86346">
        <ele>285</ele>
        <time>2017-06-22T08:33:11Z</time>
      </trkpt>
      <trkpt lat="45.96572" lon="4.86349">
        <ele>285</ele>
        <time>2017-06-22T08:33:12Z</time>
      </trkpt>
      <trkpt lat="45.96571" lon="4.8636">
        <ele>285</ele>
        <time>2017-06-22T08:33:15Z</time>
      </trkpt>
      <trkpt lat="45.96571" lon="4.86364">
        <ele>286</ele>
        <time>2017-06-22T08:33:16Z</time>
      </trkpt>
      <trkpt lat="45.96571" lon="4.86374">
        <ele>286</ele>
        <time>2017-06-22T08:33:19Z</time>
      </trkpt>
      <trkpt lat="45.9657" lon="4.86377">
        <ele>286</ele>
        <time>2017-06-22T08:33:20Z</time>
      </trkpt>
      <trkpt lat="45.96571" lon="4.86387">
        <ele>286</ele>
        <time>2017-06-22T08:33:23Z</time>
      </trkpt>
      <trkpt lat="45.96571" lon="4.86391">
        <ele>287</ele>
        <time>2017-06-22T08:33:24Z</time>
      </trkpt>
      <trkpt lat="45.96571" lon="4.86402">
        <ele>287</ele>
        <time>2017-06-22T08:33:27Z</time>
      </trkpt>
      <trkpt lat="45.96571" lon="4.86406">
        <ele>288</ele>
        <time>2017-06-22T08:33:28Z</time>
      </trkpt>
      <trkpt lat="45.96572" lon="4.86414">
        <ele>288</ele>
        <time>2017-06-22T08:33:30Z</time>
      </trkpt>
      <trkpt lat="45.96572" lon="4.86419">
        <ele>289</ele>
        <time>2017-06-22T08:33:31Z</time>
      </trkpt>
      <trkpt lat="45.96573" lon="4.8643">
        <ele>289</ele>
        <time>2017-06-22T08:33:34Z</time>
      </trkpt>
      <trkpt lat="45.96574" lon="4.86433">
        <ele>289</ele>
        <time>2017-06-22T08:33:35Z</time>
      </trkpt>
      <trkpt lat="45.96574" lon="4.86444">
        <ele>289</ele>
        <time>2017-06-22T08:33:38Z</time>
      </trkpt>
      <trkpt lat="45.96574" lon="4.86448">
        <ele>289</ele>
        <time>2017-06-22T08:33:39Z</time>
      </trkpt>
      <trkpt lat="45.96574" lon="4.86458">
        <ele>289</ele>
        <time>2017-06-22T08:33:42Z</time>
      </trkpt>
      <trkpt lat="45.96574" lon="4.86461">
        <ele>289</ele>
        <time>2017-06-22T08:33:43Z</time>
      </trkpt>
      <trkpt lat="45.96576" lon="4.86473">
        <ele>289</ele>
        <time>2017-06-22T08:33:47Z</time>
      </trkpt>
      <trkpt lat="45.96575" lon="4.86477">
        <ele>290</ele>
        <time>2017-06-22T08:33:48Z</time>
      </trkpt>
      <trkpt lat="45.96577" lon="4.86487">
        <ele>290</ele>
        <time>2017-06-22T08:33:51Z</time>
      </trkpt>
      <trkpt lat="45.96579" lon="4.8649">
        <ele>291</ele>
        <time>2017-06-22T08:33:52Z</time>
      </trkpt>
      <trkpt lat="45.96584" lon="4.86498">
        <ele>292</ele>
        <time>2017-06-22T08:33:55Z</time>
      </trkpt>
      <trkpt lat="45.96586" lon="4.86501">
        <ele>292</ele>
        <time>2017-06-22T08:33:56Z</time>
      </trkpt>
      <trkpt lat="45.96592" lon="4.86509">
        <ele>291</ele>
        <time>2017-06-22T08:33:59Z</time>
      </trkpt>
      <trkpt lat="45.96594" lon="4.86512">
        <ele>291</ele>
        <time>2017-06-22T08:34:00Z</time>
      </trkpt>
      <trkpt lat="45.96602" lon="4.86519">
        <ele>291</ele>
        <time>2017-06-22T08:34:03Z</time>
      </trkpt>
      <trkpt lat="45.96604" lon="4.86522">
        <ele>291</ele>
        <time>2017-06-22T08:34:04Z</time>
      </trkpt>
      <trkpt lat="45.96611" lon="4.86529">
        <ele>291</ele>
        <time>2017-06-22T08:34:07Z</time>
      </trkpt>
      <trkpt lat="45.96614" lon="4.86531">
        <ele>291</ele>
        <time>2017-06-22T08:34:08Z</time>
      </trkpt>
      <trkpt lat="45.9662" lon="4.86536">
        <ele>291</ele>
        <time>2017-06-22T08:34:10Z</time>
      </trkpt>
      <trkpt lat="45.96622" lon="4.86538">
        <ele>291</ele>
        <time>2017-06-22T08:34:11Z</time>
      </trkpt>
      <trkpt lat="45.96628" lon="4.86542">
        <ele>291</ele>
        <time>2017-06-22T08:34:13Z</time>
      </trkpt>
      <trkpt lat="45.9663" lon="4.86545">
        <ele>291</ele>
        <time>2017-06-22T08:34:14Z</time>
      </trkpt>
      <trkpt lat="45.96637" lon="4.86552">
        <ele>291</ele>
        <time>2017-06-22T08:34:17Z</time>
      </trkpt>
      <trkpt lat="45.96639" lon="4.86554">
        <ele>291</ele>
        <time>2017-06-22T08:34:18Z</time>
      </trkpt>
      <trkpt lat="45.96644" lon="4.86559">
        <ele>291</ele>
        <time>2017-06-22T08:34:20Z</time>
      </trkpt>
      <trkpt lat="45.96646" lon="4.86562">
        <ele>291</ele>
        <time>2017-06-22T08:34:21Z</time>
      </trkpt>
      <trkpt lat="45.96652" lon="4.86567">
        <ele>290</ele>
        <time>2017-06-22T08:34:23Z</time>
      </trkpt>
      <trkpt lat="45.96655" lon="4.8657">
        <ele>290</ele>
        <time>2017-06-22T08:34:24Z</time>
      </trkpt>
      <trkpt lat="45.9666" lon="4.86575">
        <ele>290</ele>
        <time>2017-06-22T08:34:26Z</time>
      </trkpt>
      <trkpt lat="45.96663" lon="4.86578">
        <ele>290</ele>
        <time>2017-06-22T08:34:27Z</time>
      </trkpt>
      <trkpt lat="45.96669" lon="4.86584">
        <ele>290</ele>
        <time>2017-06-22T08:34:29Z</time>
      </trkpt>
      <trkpt lat="45.96672" lon="4.86587">
        <ele>290</ele>
        <time>2017-06-22T08:34:30Z</time>
      </trkpt>
      <trkpt lat="45.96678" lon="4.86593">
        <ele>290</ele>
        <time>2017-06-22T08:34:32Z</time>
      </trkpt>
      <trkpt lat="45.96682" lon="4.86596">
        <ele>290</ele>
        <time>2017-06-22T08:34:33Z</time>
      </trkpt>
      <trkpt lat="45.96689" lon="4.86603">
        <ele>290</ele>
        <time>2017-06-22T08:34:35Z</time>
      </trkpt>
      <trkpt lat="45.96693" lon="4.86607">
        <ele>290</ele>
        <time>2017-06-22T08:34:36Z</time>
      </trkpt>
      <trkpt lat="45.967" lon="4.86614">
        <ele>290</ele>
        <time>2017-06-22T08:34:38Z</time>
      </trkpt>
      <trkpt lat="45.96704" lon="4.86617">
        <ele>290</ele>
        <time>2017-06-22T08:34:39Z</time>
      </trkpt>
      <trkpt lat="45.96708" lon="4.86621">
        <ele>290</ele>
        <time>2017-06-22T08:34:40Z</time>
      </trkpt>
      <trkpt lat="45.96712" lon="4.86624">
        <ele>290</ele>
        <time>2017-06-22T08:34:41Z</time>
      </trkpt>
      <trkpt lat="45.96716" lon="4.86627">
        <ele>290</ele>
        <time>2017-06-22T08:34:42Z</time>
      </trkpt>
      <trkpt lat="45.96721" lon="4.86629">
        <ele>290</ele>
        <time>2017-06-22T08:34:43Z</time>
      </trkpt>
      <trkpt lat="45.96725" lon="4.86632">
        <ele>290</ele>
        <time>2017-06-22T08:34:44Z</time>
      </trkpt>
      <trkpt lat="45.9673" lon="4.86635">
        <ele>290</ele>
        <time>2017-06-22T08:34:45Z</time>
      </trkpt>
      <trkpt lat="45.96734" lon="4.86638">
        <ele>290</ele>
        <time>2017-06-22T08:34:46Z</time>
      </trkpt>
      <trkpt lat="45.96738" lon="4.86643">
        <ele>290</ele>
        <time>2017-06-22T08:34:47Z</time>
      </trkpt>
      <trkpt lat="45.9674" lon="4.86648">
        <ele>290</ele>
        <time>2017-06-22T08:34:48Z</time>
      </trkpt>
      <trkpt lat="45.96742" lon="4.86655">
        <ele>290</ele>
        <time>2017-06-22T08:34:49Z</time>
      </trkpt>
      <trkpt lat="45.96741" lon="4.86662">
        <ele>290</ele>
        <time>2017-06-22T08:34:50Z</time>
      </trkpt>
      <trkpt lat="45.96738" lon="4.86668">
        <ele>290</ele>
        <time>2017-06-22T08:34:51Z</time>
      </trkpt>
      <trkpt lat="45.96735" lon="4.86674">
        <ele>290</ele>
        <time>2017-06-22T08:34:52Z</time>
      </trkpt>
      <trkpt lat="45.96731" lon="4.86679">
        <ele>290</ele>
        <time>2017-06-22T08:34:53Z</time>
      </trkpt>
      <trkpt lat="45.96727" lon="4.86684">
        <ele>289</ele>
        <time>2017-06-22T08:34:54Z</time>
      </trkpt>
      <trkpt lat="45.96724" lon="4.86689">
        <ele>289</ele>
        <time>2017-06-22T08:34:55Z</time>
      </trkpt>
      <trkpt lat="45.96721" lon="4.86695">
        <ele>289</ele>
        <time>2017-06-22T08:34:56Z</time>
      </trkpt>
      <trkpt lat="45.96718" lon="4.867">
        <ele>289</ele>
        <time>2017-06-22T08:34:57Z</time>
      </trkpt>
      <trkpt lat="45.96715" lon="4.86705">
        <ele>289</ele>
        <time>2017-06-22T08:34:58Z</time>
      </trkpt>
      <trkpt lat="45.96711" lon="4.86711">
        <ele>289</ele>
        <time>2017-06-22T08:34:59Z</time>
      </trkpt>
      <trkpt lat="45.96708" lon="4.86716">
        <ele>289</ele>
        <time>2017-06-22T08:35:00Z</time>
      </trkpt>
      <trkpt lat="45.96705" lon="4.86721">
        <ele>289</ele>
        <time>2017-06-22T08:35:01Z</time>
      </trkpt>
      <trkpt lat="45.96701" lon="4.86727">
        <ele>289</ele>
        <time>2017-06-22T08:35:02Z</time>
      </trkpt>
      <trkpt lat="45.96698" lon="4.86732">
        <ele>289</ele>
        <time>2017-06-22T08:35:03Z</time>
      </trkpt>
      <trkpt lat="45.96695" lon="4.86737">
        <ele>289</ele>
        <time>2017-06-22T08:35:04Z</time>
      </trkpt>
      <trkpt lat="45.96691" lon="4.86743">
        <ele>289</ele>
        <time>2017-06-22T08:35:05Z</time>
      </trkpt>
      <trkpt lat="45.96688" lon="4.86748">
        <ele>289</ele>
        <time>2017-06-22T08:35:06Z</time>
      </trkpt>
      <trkpt lat="45.96685" lon="4.86753">
        <ele>289</ele>
        <time>2017-06-22T08:35:07Z</time>
      </trkpt>
      <trkpt lat="45.96682" lon="4.86758">
        <ele>289</ele>
        <time>2017-06-22T08:35:08Z</time>
      </trkpt>
      <trkpt lat="45.96679" lon="4.86762">
        <ele>289</ele>
        <time>2017-06-22T08:35:09Z</time>
      </trkpt>
      <trkpt lat="45.96674" lon="4.86772">
        <ele>289</ele>
        <time>2017-06-22T08:35:11Z</time>
      </trkpt>
      <trkpt lat="45.96671" lon="4.86777">
        <ele>289</ele>
        <time>2017-06-22T08:35:12Z</time>
      </trkpt>
      <trkpt lat="45.96665" lon="4.86786">
        <ele>288</ele>
        <time>2017-06-22T08:35:14Z</time>
      </trkpt>
      <trkpt lat="45.96663" lon="4.8679">
        <ele>288</ele>
        <time>2017-06-22T08:35:15Z</time>
      </trkpt>
      <trkpt lat="45.96658" lon="4.86799">
        <ele>288</ele>
        <time>2017-06-22T08:35:17Z</time>
      </trkpt>
      <trkpt lat="45.96655" lon="4.86803">
        <ele>288</ele>
        <time>2017-06-22T08:35:18Z</time>
      </trkpt>
      <trkpt lat="45.96652" lon="4.86808">
        <ele>288</ele>
        <time>2017-06-22T08:35:19Z</time>
      </trkpt>
      <trkpt lat="45.96649" lon="4.86813">
        <ele>288</ele>
        <time>2017-06-22T08:35:20Z</time>
      </trkpt>
      <trkpt lat="45.96646" lon="4.86818">
        <ele>288</ele>
        <time>2017-06-22T08:35:21Z</time>
      </trkpt>
      <trkpt lat="45.96643" lon="4.86823">
        <ele>288</ele>
        <time>2017-06-22T08:35:22Z</time>
      </trkpt>
      <trkpt lat="45.9664" lon="4.86828">
        <ele>288</ele>
        <time>2017-06-22T08:35:23Z</time>
      </trkpt>
      <trkpt lat="45.96637" lon="4.86833">
        <ele>288</ele>
        <time>2017-06-22T08:35:24Z</time>
      </trkpt>
      <trkpt lat="45.96634" lon="4.86838">
        <ele>287</ele>
        <time>2017-06-22T08:35:25Z</time>
      </trkpt>
      <trkpt lat="45.96631" lon="4.86843">
        <ele>287</ele>
        <time>2017-06-22T08:35:26Z</time>
      </trkpt>
      <trkpt lat="45.96625" lon="4.86852">
        <ele>287</ele>
        <time>2017-06-22T08:35:28Z</time>
      </trkpt>
      <trkpt lat="45.96622" lon="4.86857">
        <ele>287</ele>
        <time>2017-06-22T08:35:29Z</time>
      </trkpt>
      <trkpt lat="45.96619" lon="4.86862">
        <ele>287</ele>
        <time>2017-06-22T08:35:30Z</time>
      </trkpt>
      <trkpt lat="45.96616" lon="4.86867">
        <ele>287</ele>
        <time>2017-06-22T08:35:31Z</time>
      </trkpt>
      <trkpt lat="45.96613" lon="4.86872">
        <ele>287</ele>
        <time>2017-06-22T08:35:32Z</time>
      </trkpt>
      <trkpt lat="45.96609" lon="4.86877">
        <ele>287</ele>
        <time>2017-06-22T08:35:33Z</time>
      </trkpt>
      <trkpt lat="45.96603" lon="4.86887">
        <ele>287</ele>
        <time>2017-06-22T08:35:35Z</time>
      </trkpt>
      <trkpt lat="45.966" lon="4.86892">
        <ele>286</ele>
        <time>2017-06-22T08:35:36Z</time>
      </trkpt>
      <trkpt lat="45.96597" lon="4.86897">
        <ele>286</ele>
        <time>2017-06-22T08:35:37Z</time>
      </trkpt>
      <trkpt lat="45.96593" lon="4.86902">
        <ele>286</ele>
        <time>2017-06-22T08:35:38Z</time>
      </trkpt>
      <trkpt lat="45.9659" lon="4.86907">
        <ele>286</ele>
        <time>2017-06-22T08:35:39Z</time>
      </trkpt>
      <trkpt lat="45.96586" lon="4.86912">
        <ele>285</ele>
        <time>2017-06-22T08:35:40Z</time>
      </trkpt>
      <trkpt lat="45.96582" lon="4.86918">
        <ele>285</ele>
        <time>2017-06-22T08:35:41Z</time>
      </trkpt>
      <trkpt lat="45.96579" lon="4.86924">
        <ele>284</ele>
        <time>2017-06-22T08:35:42Z</time>
      </trkpt>
      <trkpt lat="45.96575" lon="4.86929">
        <ele>284</ele>
        <time>2017-06-22T08:35:43Z</time>
      </trkpt>
      <trkpt lat="45.96571" lon="4.86935">
        <ele>284</ele>
        <time>2017-06-22T08:35:44Z</time>
      </trkpt>
      <trkpt lat="45.96568" lon="4.86941">
        <ele>284</ele>
        <time>2017-06-22T08:35:45Z</time>
      </trkpt>
      <trkpt lat="45.96564" lon="4.86947">
        <ele>284</ele>
        <time>2017-06-22T08:35:46Z</time>
      </trkpt>
      <trkpt lat="45.96561" lon="4.86953">
        <ele>283</ele>
        <time>2017-06-22T08:35:47Z</time>
      </trkpt>
      <trkpt lat="45.96557" lon="4.86959">
        <ele>283</ele>
        <time>2017-06-22T08:35:48Z</time>
      </trkpt>
      <trkpt lat="45.96554" lon="4.86964">
        <ele>283</ele>
        <time>2017-06-22T08:35:49Z</time>
      </trkpt>
      <trkpt lat="45.96551" lon="4.86969">
        <ele>283</ele>
        <time>2017-06-22T08:35:50Z</time>
      </trkpt>
      <trkpt lat="45.96545" lon="4.86979">
        <ele>283</ele>
        <time>2017-06-22T08:35:52Z</time>
      </trkpt>
      <trkpt lat="45.96543" lon="4.86983">
        <ele>283</ele>
        <time>2017-06-22T08:35:53Z</time>
      </trkpt>
      <trkpt lat="45.9654" lon="4.86992">
        <ele>283</ele>
        <time>2017-06-22T08:35:55Z</time>
      </trkpt>
      <trkpt lat="45.96538" lon="4.86996">
        <ele>283</ele>
        <time>2017-06-22T08:35:56Z</time>
      </trkpt>
      <trkpt lat="45.96535" lon="4.87005">
        <ele>283</ele>
        <time>2017-06-22T08:35:58Z</time>
      </trkpt>
      <trkpt lat="45.96534" lon="4.87009">
        <ele>283</ele>
        <time>2017-06-22T08:35:59Z</time>
      </trkpt>
      <trkpt lat="45.96535" lon="4.8702">
        <ele>283</ele>
        <time>2017-06-22T08:36:02Z</time>
      </trkpt>
      <trkpt lat="45.96537" lon="4.87023">
        <ele>283</ele>
        <time>2017-06-22T08:36:03Z</time>
      </trkpt>
      <trkpt lat="45.96543" lon="4.8703">
        <ele>283</ele>
        <time>2017-06-22T08:36:06Z</time>
      </trkpt>
      <trkpt lat="45.96544" lon="4.87031">
        <ele>283</ele>
        <time>2017-06-22T08:36:07Z</time>
      </trkpt>
      <trkpt lat="45.96545" lon="4.87031">
        <ele>283</ele>
        <time>2017-06-22T08:36:08Z</time>
      </trkpt>
      <trkpt lat="45.96546" lon="4.87031">
        <ele>283</ele>
        <time>2017-06-22T08:41:41Z</time>
      </trkpt>
      <trkpt lat="45.96551" lon="4.87032">
        <ele>283</ele>
        <time>2017-06-22T08:41:42Z</time>
      </trkpt>
      <trkpt lat="45.96555" lon="4.87041">
        <ele>283</ele>
        <time>2017-06-22T08:42:26Z</time>
      </trkpt>
      <trkpt lat="45.96555" lon="4.87044">
        <ele>283</ele>
        <time>2017-06-22T08:42:27Z</time>
      </trkpt>
      <trkpt lat="45.96556" lon="4.87056">
        <ele>283</ele>
        <time>2017-06-22T08:42:30Z</time>
      </trkpt>
      <trkpt lat="45.96556" lon="4.87059">
        <ele>283</ele>
        <time>2017-06-22T08:42:31Z</time>
      </trkpt>
      <trkpt lat="45.96553" lon="4.8707">
        <ele>283</ele>
        <time>2017-06-22T08:42:37Z</time>
      </trkpt>
      <trkpt lat="45.96551" lon="4.8707">
        <ele>283</ele>
        <time>2017-06-22T08:42:38Z</time>
      </trkpt>
      <trkpt lat="45.96544" lon="4.87064">
        <ele>283</ele>
        <time>2017-06-22T08:42:45Z</time>
      </trkpt>
      <trkpt lat="45.96543" lon="4.8706">
        <ele>283</ele>
        <time>2017-06-22T08:42:46Z</time>
      </trkpt>
      <trkpt lat="45.96542" lon="4.8705">
        <ele>283</ele>
        <time>2017-06-22T08:42:49Z</time>
      </trkpt>
      <trkpt lat="45.96541" lon="4.87047">
        <ele>283</ele>
        <time>2017-06-22T08:42:50Z</time>
      </trkpt>
      <trkpt lat="45.9654" lon="4.87036">
        <ele>283</ele>
        <time>2017-06-22T08:42:53Z</time>
      </trkpt>
      <trkpt lat="45.96539" lon="4.87033">
        <ele>283</ele>
        <time>2017-06-22T08:42:54Z</time>
      </trkpt>
      <trkpt lat="45.96534" lon="4.87022">
        <ele>283</ele>
        <time>2017-06-22T08:43:22Z</time>
      </trkpt>
      <trkpt lat="45.96535" lon="4.8702">
        <ele>283</ele>
        <time>2017-06-22T08:43:23Z</time>
      </trkpt>
      <trkpt lat="45.96539" lon="4.87009">
        <ele>283</ele>
        <time>2017-06-22T08:43:29Z</time>
      </trkpt>
      <trkpt lat="45.9654" lon="4.87006">
        <ele>283</ele>
        <time>2017-06-22T08:43:30Z</time>
      </trkpt>
      <trkpt lat="45.96545" lon="4.86996">
        <ele>283</ele>
        <time>2017-06-22T08:43:33Z</time>
      </trkpt>
      <trkpt lat="45.96546" lon="4.86993">
        <ele>283</ele>
        <time>2017-06-22T08:43:34Z</time>
      </trkpt>
      <trkpt lat="45.96551" lon="4.86986">
        <ele>283</ele>
        <time>2017-06-22T08:43:36Z</time>
      </trkpt>
      <trkpt lat="45.96553" lon="4.86983">
        <ele>283</ele>
        <time>2017-06-22T08:43:37Z</time>
      </trkpt>
      <trkpt lat="45.96558" lon="4.86975">
        <ele>283</ele>
        <time>2017-06-22T08:43:39Z</time>
      </trkpt>
      <trkpt lat="45.9656" lon="4.86971">
        <ele>283</ele>
        <time>2017-06-22T08:43:40Z</time>
      </trkpt>
      <trkpt lat="45.96564" lon="4.86964">
        <ele>284</ele>
        <time>2017-06-22T08:43:42Z</time>
      </trkpt>
      <trkpt lat="45.96567" lon="4.8696">
        <ele>284</ele>
        <time>2017-06-22T08:43:43Z</time>
      </trkpt>
      <trkpt lat="45.96571" lon="4.86953">
        <ele>284</ele>
        <time>2017-06-22T08:43:45Z</time>
      </trkpt>
      <trkpt lat="45.96573" lon="4.86949">
        <ele>284</ele>
        <time>2017-06-22T08:43:46Z</time>
      </trkpt>
      <trkpt lat="45.96577" lon="4.86941">
        <ele>284</ele>
        <time>2017-06-22T08:43:48Z</time>
      </trkpt>
      <trkpt lat="45.9658" lon="4.86937">
        <ele>284</ele>
        <time>2017-06-22T08:43:49Z</time>
      </trkpt>
      <trkpt lat="45.96585" lon="4.86929">
        <ele>285</ele>
        <time>2017-06-22T08:43:51Z</time>
      </trkpt>
      <trkpt lat="45.96588" lon="4.86925">
        <ele>285</ele>
        <time>2017-06-22T08:43:52Z</time>
      </trkpt>
      <trkpt lat="45.96593" lon="4.86917">
        <ele>286</ele>
        <time>2017-06-22T08:43:54Z</time>
      </trkpt>
      <trkpt lat="45.96595" lon="4.86913">
        <ele>286</ele>
        <time>2017-06-22T08:43:55Z</time>
      </trkpt>
      <trkpt lat="45.966" lon="4.86905">
        <ele>286</ele>
        <time>2017-06-22T08:43:57Z</time>
      </trkpt>
      <trkpt lat="45.96602" lon="4.86901">
        <ele>286</ele>
        <time>2017-06-22T08:43:58Z</time>
      </trkpt>
      <trkpt lat="45.96606" lon="4.86894">
        <ele>287</ele>
        <time>2017-06-22T08:44:00Z</time>
      </trkpt>
      <trkpt lat="45.96608" lon="4.86891">
        <ele>287</ele>
        <time>2017-06-22T08:44:01Z</time>
      </trkpt>
      <trkpt lat="45.96613" lon="4.86883">
        <ele>287</ele>
        <time>2017-06-22T08:44:03Z</time>
      </trkpt>
      <trkpt lat="45.96615" lon="4.86879">
        <ele>287</ele>
        <time>2017-06-22T08:44:04Z</time>
      </trkpt>
      <trkpt lat="45.9662" lon="4.8687">
        <ele>287</ele>
        <time>2017-06-22T08:44:06Z</time>
      </trkpt>
      <trkpt lat="45.96622" lon="4.86866">
        <ele>287</ele>
        <time>2017-06-22T08:44:07Z</time>
      </trkpt>
      <trkpt lat="45.96628" lon="4.86856">
        <ele>287</ele>
        <time>2017-06-22T08:44:09Z</time>
      </trkpt>
      <trkpt lat="45.96631" lon="4.86851">
        <ele>287</ele>
        <time>2017-06-22T08:44:10Z</time>
      </trkpt>
      <trkpt lat="45.96636" lon="4.86842">
        <ele>287</ele>
        <time>2017-06-22T08:44:12Z</time>
      </trkpt>
      <trkpt lat="45.96639" lon="4.86837">
        <ele>287</ele>
        <time>2017-06-22T08:44:13Z</time>
      </trkpt>
      <trkpt lat="45.96642" lon="4.86832">
        <ele>288</ele>
        <time>2017-06-22T08:44:14Z</time>
      </trkpt>
      <trkpt lat="45.96645" lon="4.86826">
        <ele>288</ele>
        <time>2017-06-22T08:44:15Z</time>
      </trkpt>
      <trkpt lat="45.9665" lon="4.86818">
        <ele>288</ele>
        <time>2017-06-22T08:44:17Z</time>
      </trkpt>
      <trkpt lat="45.96653" lon="4.86813">
        <ele>288</ele>
        <time>2017-06-22T08:44:18Z</time>
      </trkpt>
      <trkpt lat="45.96658" lon="4.86803">
        <ele>288</ele>
        <time>2017-06-22T08:44:20Z</time>
      </trkpt>
      <trkpt lat="45.96661" lon="4.86798">
        <ele>288</ele>
        <time>2017-06-22T08:44:21Z</time>
      </trkpt>
      <trkpt lat="45.96665" lon="4.86793">
        <ele>288</ele>
        <time>2017-06-22T08:44:22Z</time>
      </trkpt>
      <trkpt lat="45.96668" lon="4.86788">
        <ele>289</ele>
        <time>2017-06-22T08:44:23Z</time>
      </trkpt>
      <trkpt lat="45.96673" lon="4.86779">
        <ele>289</ele>
        <time>2017-06-22T08:44:25Z</time>
      </trkpt>
      <trkpt lat="45.96675" lon="4.86774">
        <ele>289</ele>
        <time>2017-06-22T08:44:26Z</time>
      </trkpt>
      <trkpt lat="45.96682" lon="4.86765">
        <ele>289</ele>
        <time>2017-06-22T08:44:28Z</time>
      </trkpt>
      <trkpt lat="45.96685" lon="4.86761">
        <ele>289</ele>
        <time>2017-06-22T08:44:29Z</time>
      </trkpt>
      <trkpt lat="45.96691" lon="4.86751">
        <ele>289</ele>
        <time>2017-06-22T08:44:31Z</time>
      </trkpt>
      <trkpt lat="45.96694" lon="4.86747">
        <ele>289</ele>
        <time>2017-06-22T08:44:32Z</time>
      </trkpt>
      <trkpt lat="45.96699" lon="4.86737">
        <ele>289</ele>
        <time>2017-06-22T08:44:34Z</time>
      </trkpt>
      <trkpt lat="45.96701" lon="4.86733">
        <ele>289</ele>
        <time>2017-06-22T08:44:35Z</time>
      </trkpt>
      <trkpt lat="45.96706" lon="4.86724">
        <ele>289</ele>
        <time>2017-06-22T08:44:37Z</time>
      </trkpt>
      <trkpt lat="45.96709" lon="4.86719">
        <ele>289</ele>
        <time>2017-06-22T08:44:38Z</time>
      </trkpt>
      <trkpt lat="45.96713" lon="4.86713">
        <ele>289</ele>
        <time>2017-06-22T08:44:39Z</time>
      </trkpt>
      <trkpt lat="45.96716" lon="4.86707">
        <ele>289</ele>
        <time>2017-06-22T08:44:40Z</time>
      </trkpt>
      <trkpt lat="45.96719" lon="4.86702">
        <ele>289</ele>
        <time>2017-06-22T08:44:41Z</time>
      </trkpt>
      <trkpt lat="45.96722" lon="4.86697">
        <ele>289</ele>
        <time>2017-06-22T08:44:42Z</time>
      </trkpt>
      <trkpt lat="45.96727" lon="4.86688">
        <ele>289</ele>
        <time>2017-06-22T08:44:44Z</time>
      </trkpt>
      <trkpt lat="45.9673" lon="4.86684">
        <ele>289</ele>
        <time>2017-06-22T08:44:45Z</time>
      </trkpt>
      <trkpt lat="45.96735" lon="4.86676">
        <ele>290</ele>
        <time>2017-06-22T08:44:47Z</time>
      </trkpt>
      <trkpt lat="45.96738" lon="4.86671">
        <ele>290</ele>
        <time>2017-06-22T08:44:48Z</time>
      </trkpt>
      <trkpt lat="45.96743" lon="4.86663">
        <ele>290</ele>
        <time>2017-06-22T08:44:50Z</time>
      </trkpt>
      <trkpt lat="45.96746" lon="4.86661">
        <ele>290</ele>
        <time>2017-06-22T08:44:51Z</time>
      </trkpt>
      <trkpt lat="45.96754" lon="4.86662">
        <ele>290</ele>
        <time>2017-06-22T08:44:53Z</time>
      </trkpt>
      <trkpt lat="45.96758" lon="4.86664">
        <ele>290</ele>
        <time>2017-06-22T08:44:54Z</time>
      </trkpt>
      <trkpt lat="45.96765" lon="4.86671">
        <ele>290</ele>
        <time>2017-06-22T08:44:56Z</time>
      </trkpt>
      <trkpt lat="45.96768" lon="4.86674">
        <ele>290</ele>
        <time>2017-06-22T08:44:57Z</time>
      </trkpt>
      <trkpt lat="45.96776" lon="4.86681">
        <ele>289</ele>
        <time>2017-06-22T08:44:59Z</time>
      </trkpt>
      <trkpt lat="45.96779" lon="4.86684">
        <ele>289</ele>
        <time>2017-06-22T08:45:00Z</time>
      </trkpt>
      <trkpt lat="45.96787" lon="4.86692">
        <ele>289</ele>
        <time>2017-06-22T08:45:02Z</time>
      </trkpt>
      <trkpt lat="45.9679" lon="4.86695">
        <ele>289</ele>
        <time>2017-06-22T08:45:03Z</time>
      </trkpt>
      <trkpt lat="45.96794" lon="4.86699">
        <ele>289</ele>
        <time>2017-06-22T08:45:04Z</time>
      </trkpt>
      <trkpt lat="45.96798" lon="4.86703">
        <ele>289</ele>
        <time>2017-06-22T08:45:05Z</time>
      </trkpt>
      <trkpt lat="45.96802" lon="4.86706">
        <ele>289</ele>
        <time>2017-06-22T08:45:06Z</time>
      </trkpt>
      <trkpt lat="45.96807" lon="4.8671">
        <ele>289</ele>
        <time>2017-06-22T08:45:07Z</time>
      </trkpt>
      <trkpt lat="45.96811" lon="4.86714">
        <ele>289</ele>
        <time>2017-06-22T08:45:08Z</time>
      </trkpt>
      <trkpt lat="45.96815" lon="4.86718">
        <ele>289</ele>
        <time>2017-06-22T08:45:09Z</time>
      </trkpt>
      <trkpt lat="45.96819" lon="4.86722">
        <ele>289</ele>
        <time>2017-06-22T08:45:10Z</time>
      </trkpt>
      <trkpt lat="45.96823" lon="4.86726">
        <ele>289</ele>
        <time>2017-06-22T08:45:11Z</time>
      </trkpt>
      <trkpt lat="45.96826" lon="4.86731">
        <ele>289</ele>
        <time>2017-06-22T08:45:12Z</time>
      </trkpt>
      <trkpt lat="45.9683" lon="4.86734">
        <ele>289</ele>
        <time>2017-06-22T08:45:13Z</time>
      </trkpt>
      <trkpt lat="45.96838" lon="4.86741">
        <ele>289</ele>
        <time>2017-06-22T08:45:15Z</time>
      </trkpt>
      <trkpt lat="45.96841" lon="4.86744">
        <ele>289</ele>
        <time>2017-06-22T08:45:16Z</time>
      </trkpt>
      <trkpt lat="45.96845" lon="4.86747">
        <ele>289</ele>
        <time>2017-06-22T08:45:17Z</time>
      </trkpt>
      <trkpt lat="45.96849" lon="4.86751">
        <ele>289</ele>
        <time>2017-06-22T08:45:18Z</time>
      </trkpt>
      <trkpt lat="45.96853" lon="4.86755">
        <ele>289</ele>
        <time>2017-06-22T08:45:19Z</time>
      </trkpt>
      <trkpt lat="45.96857" lon="4.86758">
        <ele>289</ele>
        <time>2017-06-22T08:45:20Z</time>
      </trkpt>
      <trkpt lat="45.96864" lon="4.86765">
        <ele>289</ele>
        <time>2017-06-22T08:45:22Z</time>
      </trkpt>
      <trkpt lat="45.96868" lon="4.86769">
        <ele>289</ele>
        <time>2017-06-22T08:45:23Z</time>
      </trkpt>
      <trkpt lat="45.96873" lon="4.86772">
        <ele>289</ele>
        <time>2017-06-22T08:45:24Z</time>
      </trkpt>
      <trkpt lat="45.96877" lon="4.86775">
        <ele>289</ele>
        <time>2017-06-22T08:45:25Z</time>
      </trkpt>
      <trkpt lat="45.96881" lon="4.86779">
        <ele>289</ele>
        <time>2017-06-22T08:45:26Z</time>
      </trkpt>
      <trkpt lat="45.96886" lon="4.86783">
        <ele>289</ele>
        <time>2017-06-22T08:45:27Z</time>
      </trkpt>
      <trkpt lat="45.9689" lon="4.86787">
        <ele>289</ele>
        <time>2017-06-22T08:45:28Z</time>
      </trkpt>
      <trkpt lat="45.96895" lon="4.8679">
        <ele>289</ele>
        <time>2017-06-22T08:45:29Z</time>
      </trkpt>
      <trkpt lat="45.969" lon="4.86795">
        <ele>289</ele>
        <time>2017-06-22T08:45:30Z</time>
      </trkpt>
      <trkpt lat="45.96904" lon="4.86801">
        <ele>289</ele>
        <time>2017-06-22T08:45:31Z</time>
      </trkpt>
      <trkpt lat="45.9691" lon="4.86806">
        <ele>288</ele>
        <time>2017-06-22T08:45:32Z</time>
      </trkpt>
      <trkpt lat="45.96915" lon="4.8681">
        <ele>288</ele>
        <time>2017-06-22T08:45:33Z</time>
      </trkpt>
      <trkpt lat="45.96921" lon="4.86814">
        <ele>287</ele>
        <time>2017-06-22T08:45:34Z</time>
      </trkpt>
      <trkpt lat="45.96927" lon="4.86818">
        <ele>287</ele>
        <time>2017-06-22T08:45:35Z</time>
      </trkpt>
      <trkpt lat="45.96933" lon="4.86822">
        <ele>287</ele>
        <time>2017-06-22T08:45:36Z</time>
      </trkpt>
      <trkpt lat="45.9694" lon="4.86825">
        <ele>287</ele>
        <time>2017-06-22T08:45:37Z</time>
      </trkpt>
      <trkpt lat="45.96946" lon="4.86829">
        <ele>287</ele>
        <time>2017-06-22T08:45:38Z</time>
      </trkpt>
      <trkpt lat="45.96953" lon="4.86833">
        <ele>287</ele>
        <time>2017-06-22T08:45:39Z</time>
      </trkpt>
      <trkpt lat="45.9696" lon="4.86836">
        <ele>287</ele>
        <time>2017-06-22T08:45:40Z</time>
      </trkpt>
      <trkpt lat="45.96967" lon="4.86839">
        <ele>286</ele>
        <time>2017-06-22T08:45:41Z</time>
      </trkpt>
      <trkpt lat="45.96974" lon="4.86842">
        <ele>286</ele>
        <time>2017-06-22T08:45:42Z</time>
      </trkpt>
      <trkpt lat="45.96981" lon="4.86844">
        <ele>286</ele>
        <time>2017-06-22T08:45:43Z</time>
      </trkpt>
      <trkpt lat="45.96988" lon="4.86846">
        <ele>286</ele>
        <time>2017-06-22T08:45:44Z</time>
      </trkpt>
      <trkpt lat="45.96995" lon="4.86848">
        <ele>286</ele>
        <time>2017-06-22T08:45:45Z</time>
      </trkpt>
      <trkpt lat="45.97002" lon="4.86848">
        <ele>285</ele>
        <time>2017-06-22T08:45:46Z</time>
      </trkpt>
      <trkpt lat="45.97009" lon="4.86848">
        <ele>285</ele>
        <time>2017-06-22T08:45:47Z</time>
      </trkpt>
      <trkpt lat="45.97016" lon="4.86848">
        <ele>285</ele>
        <time>2017-06-22T08:45:48Z</time>
      </trkpt>
      <trkpt lat="45.97023" lon="4.86847">
        <ele>285</ele>
        <time>2017-06-22T08:45:49Z</time>
      </trkpt>
      <trkpt lat="45.9703" lon="4.86846">
        <ele>285</ele>
        <time>2017-06-22T08:45:50Z</time>
      </trkpt>
      <trkpt lat="45.97037" lon="4.86845">
        <ele>285</ele>
        <time>2017-06-22T08:45:51Z</time>
      </trkpt>
      <trkpt lat="45.97044" lon="4.86844">
        <ele>285</ele>
        <time>2017-06-22T08:45:52Z</time>
      </trkpt>
      <trkpt lat="45.97051" lon="4.86843">
        <ele>285</ele>
        <time>2017-06-22T08:45:53Z</time>
      </trkpt>
      <trkpt lat="45.97058" lon="4.86842">
        <ele>284</ele>
        <time>2017-06-22T08:45:54Z</time>
      </trkpt>
      <trkpt lat="45.97065" lon="4.86842">
        <ele>284</ele>
        <time>2017-06-22T08:45:55Z</time>
      </trkpt>
      <trkpt lat="45.97071" lon="4.86841">
        <ele>284</ele>
        <time>2017-06-22T08:45:56Z</time>
      </trkpt>
      <trkpt lat="45.97078" lon="4.8684">
        <ele>284</ele>
        <time>2017-06-22T08:45:57Z</time>
      </trkpt>
      <trkpt lat="45.97084" lon="4.86839">
        <ele>284</ele>
        <time>2017-06-22T08:45:58Z</time>
      </trkpt>
      <trkpt lat="45.9709" lon="4.86838">
        <ele>284</ele>
        <time>2017-06-22T08:45:59Z</time>
      </trkpt>
      <trkpt lat="45.97096" lon="4.86837">
        <ele>284</ele>
        <time>2017-06-22T08:46:00Z</time>
      </trkpt>
      <trkpt lat="45.97101" lon="4.86837">
        <ele>284</ele>
        <time>2017-06-22T08:46:01Z</time>
      </trkpt>
      <trkpt lat="45.97107" lon="4.86835">
        <ele>284</ele>
        <time>2017-06-22T08:46:02Z</time>
      </trkpt>
      <trkpt lat="45.97113" lon="4.86833">
        <ele>283</ele>
        <time>2017-06-22T08:46:03Z</time>
      </trkpt>
      <trkpt lat="45.97119" lon="4.86831">
        <ele>283</ele>
        <time>2017-06-22T08:46:04Z</time>
      </trkpt>
      <trkpt lat="45.97125" lon="4.86829">
        <ele>283</ele>
        <time>2017-06-22T08:46:05Z</time>
      </trkpt>
      <trkpt lat="45.97131" lon="4.86827">
        <ele>283</ele>
        <time>2017-06-22T08:46:06Z</time>
      </trkpt>
      <trkpt lat="45.97137" lon="4.86825">
        <ele>283</ele>
        <time>2017-06-22T08:46:07Z</time>
      </trkpt>
      <trkpt lat="45.97143" lon="4.86822">
        <ele>283</ele>
        <time>2017-06-22T08:46:08Z</time>
      </trkpt>
      <trkpt lat="45.97149" lon="4.86819">
        <ele>283</ele>
        <time>2017-06-22T08:46:09Z</time>
      </trkpt>
      <trkpt lat="45.97156" lon="4.86816">
        <ele>283</ele>
        <time>2017-06-22T08:46:10Z</time>
      </trkpt>
      <trkpt lat="45.97162" lon="4.86814">
        <ele>283</ele>
        <time>2017-06-22T08:46:11Z</time>
      </trkpt>
      <trkpt lat="45.97168" lon="4.86811">
        <ele>283</ele>
        <time>2017-06-22T08:46:12Z</time>
      </trkpt>
      <trkpt lat="45.97174" lon="4.86808">
        <ele>283</ele>
        <time>2017-06-22T08:46:13Z</time>
      </trkpt>
      <trkpt lat="45.9718" lon="4.86806">
        <ele>284</ele>
        <time>2017-06-22T08:46:14Z</time>
      </trkpt>
      <trkpt lat="45.97185" lon="4.86803">
        <ele>284</ele>
        <time>2017-06-22T08:46:15Z</time>
      </trkpt>
      <trkpt lat="45.97191" lon="4.86801">
        <ele>284</ele>
        <time>2017-06-22T08:46:16Z</time>
      </trkpt>
      <trkpt lat="45.97197" lon="4.86799">
        <ele>284</ele>
        <time>2017-06-22T08:46:17Z</time>
      </trkpt>
      <trkpt lat="45.97203" lon="4.86796">
        <ele>284</ele>
        <time>2017-06-22T08:46:18Z</time>
      </trkpt>
      <trkpt lat="45.9721" lon="4.86794">
        <ele>284</ele>
        <time>2017-06-22T08:46:19Z</time>
      </trkpt>
      <trkpt lat="45.97216" lon="4.86793">
        <ele>284</ele>
        <time>2017-06-22T08:46:20Z</time>
      </trkpt>
      <trkpt lat="45.97222" lon="4.86792">
        <ele>284</ele>
        <time>2017-06-22T08:46:21Z</time>
      </trkpt>
      <trkpt lat="45.97229" lon="4.86792">
        <ele>284</ele>
        <time>2017-06-22T08:46:22Z</time>
      </trkpt>
      <trkpt lat="45.97235" lon="4.86794">
        <ele>284</ele>
        <time>2017-06-22T08:46:23Z</time>
      </trkpt>
      <trkpt lat="45.97241" lon="4.86797">
        <ele>284</ele>
        <time>2017-06-22T08:46:24Z</time>
      </trkpt>
      <trkpt lat="45.97246" lon="4.86801">
        <ele>284</ele>
        <time>2017-06-22T08:46:25Z</time>
      </trkpt>
      <trkpt lat="45.97251" lon="4.86806">
        <ele>285</ele>
        <time>2017-06-22T08:46:26Z</time>
      </trkpt>
      <trkpt lat="45.97255" lon="4.86811">
        <ele>285</ele>
        <time>2017-06-22T08:46:27Z</time>
      </trkpt>
      <trkpt lat="45.97259" lon="4.86816">
        <ele>285</ele>
        <time>2017-06-22T08:46:28Z</time>
      </trkpt>
      <trkpt lat="45.97262" lon="4.86823">
        <ele>285</ele>
        <time>2017-06-22T08:46:29Z</time>
      </trkpt>
      <trkpt lat="45.97266" lon="4.86829">
        <ele>285</ele>
        <time>2017-06-22T08:46:30Z</time>
      </trkpt>
      <trkpt lat="45.97271" lon="4.86836">
        <ele>285</ele>
        <time>2017-06-22T08:46:31Z</time>
      </trkpt>
      <trkpt lat="45.97275" lon="4.86844">
        <ele>285</ele>
        <time>2017-06-22T08:46:32Z</time>
      </trkpt>
      <trkpt lat="45.97279" lon="4.86852">
        <ele>285</ele>
        <time>2017-06-22T08:46:33Z</time>
      </trkpt>
      <trkpt lat="45.97283" lon="4.86859">
        <ele>285</ele>
        <time>2017-06-22T08:46:34Z</time>
      </trkpt>
      <trkpt lat="45.97287" lon="4.86866">
        <ele>285</ele>
        <time>2017-06-22T08:46:35Z</time>
      </trkpt>
      <trkpt lat="45.97292" lon="4.86872">
        <ele>285</ele>
        <time>2017-06-22T08:46:36Z</time>
      </trkpt>
      <trkpt lat="45.97296" lon="4.86878">
        <ele>284</ele>
        <time>2017-06-22T08:46:37Z</time>
      </trkpt>
      <trkpt lat="45.973" lon="4.86884">
        <ele>284</ele>
        <time>2017-06-22T08:46:38Z</time>
      </trkpt>
      <trkpt lat="45.97304" lon="4.8689">
        <ele>284</ele>
        <time>2017-06-22T08:46:39Z</time>
      </trkpt>
      <trkpt lat="45.97308" lon="4.86896">
        <ele>284</ele>
        <time>2017-06-22T08:46:40Z</time>
      </trkpt>
      <trkpt lat="45.97311" lon="4.86901">
        <ele>284</ele>
        <time>2017-06-22T08:46:41Z</time>
      </trkpt>
      <trkpt lat="45.97315" lon="4.86906">
        <ele>284</ele>
        <time>2017-06-22T08:46:42Z</time>
      </trkpt>
      <trkpt lat="45.9732" lon="4.86911">
        <ele>284</ele>
        <time>2017-06-22T08:46:43Z</time>
      </trkpt>
      <trkpt lat="45.97324" lon="4.86916">
        <ele>284</ele>
        <time>2017-06-22T08:46:44Z</time>
      </trkpt>
      <trkpt lat="45.97328" lon="4.86922">
        <ele>284</ele>
        <time>2017-06-22T08:46:45Z</time>
      </trkpt>
      <trkpt lat="45.97332" lon="4.86928">
        <ele>284</ele>
        <time>2017-06-22T08:46:46Z</time>
      </trkpt>
      <trkpt lat="45.97336" lon="4.86934">
        <ele>284</ele>
        <time>2017-06-22T08:46:47Z</time>
      </trkpt>
      <trkpt lat="45.9734" lon="4.8694">
        <ele>284</ele>
        <time>2017-06-22T08:46:48Z</time>
      </trkpt>
      <trkpt lat="45.97344" lon="4.86947">
        <ele>284</ele>
        <time>2017-06-22T08:46:49Z</time>
      </trkpt>
      <trkpt lat="45.97349" lon="4.86953">
        <ele>284</ele>
        <time>2017-06-22T08:46:50Z</time>
      </trkpt>
      <trkpt lat="45.97354" lon="4.86959">
        <ele>285</ele>
        <time>2017-06-22T08:46:51Z</time>
      </trkpt>
      <trkpt lat="45.97359" lon="4.86965">
        <ele>285</ele>
        <time>2017-06-22T08:46:52Z</time>
      </trkpt>
      <trkpt lat="45.97364" lon="4.86971">
        <ele>285</ele>
        <time>2017-06-22T08:46:53Z</time>
      </trkpt>
      <trkpt lat="45.97369" lon="4.86976">
        <ele>285</ele>
        <time>2017-06-22T08:46:54Z</time>
      </trkpt>
      <trkpt lat="45.97373" lon="4.86981">
        <ele>285</ele>
        <time>2017-06-22T08:46:55Z</time>
      </trkpt>
      <trkpt lat="45.97377" lon="4.86985">
        <ele>285</ele>
        <time>2017-06-22T08:46:56Z</time>
      </trkpt>
      <trkpt lat="45.97381" lon="4.8699">
        <ele>285</ele>
        <time>2017-06-22T08:46:57Z</time>
      </trkpt>
      <trkpt lat="45.97386" lon="4.86994">
        <ele>285</ele>
        <time>2017-06-22T08:46:58Z</time>
      </trkpt>
      <trkpt lat="45.97391" lon="4.86998">
        <ele>285</ele>
        <time>2017-06-22T08:46:59Z</time>
      </trkpt>
      <trkpt lat="45.97396" lon="4.87003">
        <ele>285</ele>
        <time>2017-06-22T08:47:00Z</time>
      </trkpt>
      <trkpt lat="45.97401" lon="4.87008">
        <ele>285</ele>
        <time>2017-06-22T08:47:01Z</time>
      </trkpt>
      <trkpt lat="45.97406" lon="4.87013">
        <ele>285</ele>
        <time>2017-06-22T08:47:02Z</time>
      </trkpt>
      <trkpt lat="45.97411" lon="4.87019">
        <ele>285</ele>
        <time>2017-06-22T08:47:03Z</time>
      </trkpt>
      <trkpt lat="45.97417" lon="4.87026">
        <ele>284</ele>
        <time>2017-06-22T08:47:04Z</time>
      </trkpt>
      <trkpt lat="45.97422" lon="4.87032">
        <ele>284</ele>
        <time>2017-06-22T08:47:05Z</time>
      </trkpt>
      <trkpt lat="45.97428" lon="4.87038">
        <ele>284</ele>
        <time>2017-06-22T08:47:06Z</time>
      </trkpt>
      <trkpt lat="45.97433" lon="4.87043">
        <ele>284</ele>
        <time>2017-06-22T08:47:07Z</time>
      </trkpt>
      <trkpt lat="45.97438" lon="4.87048">
        <ele>284</ele>
        <time>2017-06-22T08:47:08Z</time>
      </trkpt>
      <trkpt lat="45.97443" lon="4.87053">
        <ele>284</ele>
        <time>2017-06-22T08:47:09Z</time>
      </trkpt>
      <trkpt lat="45.97447" lon="4.87058">
        <ele>284</ele>
        <time>2017-06-22T08:47:10Z</time>
      </trkpt>
      <trkpt lat="45.97452" lon="4.87062">
        <ele>284</ele>
        <time>2017-06-22T08:47:11Z</time>
      </trkpt>
      <trkpt lat="45.97456" lon="4.87067">
        <ele>284</ele>
        <time>2017-06-22T08:47:12Z</time>
      </trkpt>
      <trkpt lat="45.97461" lon="4.87071">
        <ele>284</ele>
        <time>2017-06-22T08:47:13Z</time>
      </trkpt>
      <trkpt lat="45.97464" lon="4.87076">
        <ele>284</ele>
        <time>2017-06-22T08:47:14Z</time>
      </trkpt>
      <trkpt lat="45.97468" lon="4.87081">
        <ele>284</ele>
        <time>2017-06-22T08:47:15Z</time>
      </trkpt>
      <trkpt lat="45.97472" lon="4.87085">
        <ele>283</ele>
        <time>2017-06-22T08:47:16Z</time>
      </trkpt>
      <trkpt lat="45.97476" lon="4.8709">
        <ele>283</ele>
        <time>2017-06-22T08:47:17Z</time>
      </trkpt>
      <trkpt lat="45.97481" lon="4.87095">
        <ele>283</ele>
        <time>2017-06-22T08:47:18Z</time>
      </trkpt>
      <trkpt lat="45.97485" lon="4.871">
        <ele>283</ele>
        <time>2017-06-22T08:47:19Z</time>
      </trkpt>
      <trkpt lat="45.9749" lon="4.87105">
        <ele>283</ele>
        <time>2017-06-22T08:47:20Z</time>
      </trkpt>
      <trkpt lat="45.97495" lon="4.87109">
        <ele>283</ele>
        <time>2017-06-22T08:47:21Z</time>
      </trkpt>
      <trkpt lat="45.97499" lon="4.87114">
        <ele>283</ele>
        <time>2017-06-22T08:47:22Z</time>
      </trkpt>
      <trkpt lat="45.97504" lon="4.87119">
        <ele>283</ele>
        <time>2017-06-22T08:47:23Z</time>
      </trkpt>
      <trkpt lat="45.97508" lon="4.87123">
        <ele>283</ele>
        <time>2017-06-22T08:47:24Z</time>
      </trkpt>
      <trkpt lat="45.97513" lon="4.87127">
        <ele>283</ele>
        <time>2017-06-22T08:47:25Z</time>
      </trkpt>
      <trkpt lat="45.97517" lon="4.87131">
        <ele>283</ele>
        <time>2017-06-22T08:47:26Z</time>
      </trkpt>
      <trkpt lat="45.97522" lon="4.87136">
        <ele>283</ele>
        <time>2017-06-22T08:47:27Z</time>
      </trkpt>
      <trkpt lat="45.97526" lon="4.87139">
        <ele>283</ele>
        <time>2017-06-22T08:47:28Z</time>
      </trkpt>
      <trkpt lat="45.9753" lon="4.87143">
        <ele>283</ele>
        <time>2017-06-22T08:47:29Z</time>
      </trkpt>
      <trkpt lat="45.97534" lon="4.87147">
        <ele>283</ele>
        <time>2017-06-22T08:47:30Z</time>
      </trkpt>
      <trkpt lat="45.97538" lon="4.87151">
        <ele>283</ele>
        <time>2017-06-22T08:47:31Z</time>
      </trkpt>
      <trkpt lat="45.97542" lon="4.87154">
        <ele>283</ele>
        <time>2017-06-22T08:47:32Z</time>
      </trkpt>
      <trkpt lat="45.97547" lon="4.87157">
        <ele>283</ele>
        <time>2017-06-22T08:47:33Z</time>
      </trkpt>
      <trkpt lat="45.97552" lon="4.87161">
        <ele>283</ele>
        <time>2017-06-22T08:47:34Z</time>
      </trkpt>
      <trkpt lat="45.97556" lon="4.87164">
        <ele>283</ele>
        <time>2017-06-22T08:47:35Z</time>
      </trkpt>
      <trkpt lat="45.97561" lon="4.87167">
        <ele>283</ele>
        <time>2017-06-22T08:47:36Z</time>
      </trkpt>
      <trkpt lat="45.97565" lon="4.87171">
        <ele>283</ele>
        <time>2017-06-22T08:47:37Z</time>
      </trkpt>
      <trkpt lat="45.97569" lon="4.87176">
        <ele>283</ele>
        <time>2017-06-22T08:47:38Z</time>
      </trkpt>
      <trkpt lat="45.97573" lon="4.8718">
        <ele>283</ele>
        <time>2017-06-22T08:47:39Z</time>
      </trkpt>
      <trkpt lat="45.97577" lon="4.87184">
        <ele>283</ele>
        <time>2017-06-22T08:47:40Z</time>
      </trkpt>
      <trkpt lat="45.97582" lon="4.87189">
        <ele>283</ele>
        <time>2017-06-22T08:47:41Z</time>
      </trkpt>
      <trkpt lat="45.97586" lon="4.87193">
        <ele>283</ele>
        <time>2017-06-22T08:47:42Z</time>
      </trkpt>
      <trkpt lat="45.97591" lon="4.87197">
        <ele>283</ele>
        <time>2017-06-22T08:47:43Z</time>
      </trkpt>
      <trkpt lat="45.97595" lon="4.87202">
        <ele>283</ele>
        <time>2017-06-22T08:47:44Z</time>
      </trkpt>
      <trkpt lat="45.97599" lon="4.87207">
        <ele>284</ele>
        <time>2017-06-22T08:47:45Z</time>
      </trkpt>
      <trkpt lat="45.97604" lon="4.87212">
        <ele>284</ele>
        <time>2017-06-22T08:47:46Z</time>
      </trkpt>
      <trkpt lat="45.97609" lon="4.87217">
        <ele>284</ele>
        <time>2017-06-22T08:47:47Z</time>
      </trkpt>
      <trkpt lat="45.97614" lon="4.87222">
        <ele>284</ele>
        <time>2017-06-22T08:47:48Z</time>
      </trkpt>
      <trkpt lat="45.97619" lon="4.87226">
        <ele>284</ele>
        <time>2017-06-22T08:47:49Z</time>
      </trkpt>
      <trkpt lat="45.97624" lon="4.87231">
        <ele>284</ele>
        <time>2017-06-22T08:47:50Z</time>
      </trkpt>
      <trkpt lat="45.97628" lon="4.87235">
        <ele>284</ele>
        <time>2017-06-22T08:47:51Z</time>
      </trkpt>
      <trkpt lat="45.97633" lon="4.8724">
        <ele>284</ele>
        <time>2017-06-22T08:47:52Z</time>
      </trkpt>
      <trkpt lat="45.97637" lon="4.87244">
        <ele>284</ele>
        <time>2017-06-22T08:47:53Z</time>
      </trkpt>
      <trkpt lat="45.97641" lon="4.87248">
        <ele>285</ele>
        <time>2017-06-22T08:47:54Z</time>
      </trkpt>
      <trkpt lat="45.97646" lon="4.87253">
        <ele>285</ele>
        <time>2017-06-22T08:47:55Z</time>
      </trkpt>
      <trkpt lat="45.9765" lon="4.87257">
        <ele>285</ele>
        <time>2017-06-22T08:47:56Z</time>
      </trkpt>
      <trkpt lat="45.97655" lon="4.87261">
        <ele>285</ele>
        <time>2017-06-22T08:47:57Z</time>
      </trkpt>
      <trkpt lat="45.9766" lon="4.87265">
        <ele>285</ele>
        <time>2017-06-22T08:47:58Z</time>
      </trkpt>
      <trkpt lat="45.97665" lon="4.8727">
        <ele>285</ele>
        <time>2017-06-22T08:47:59Z</time>
      </trkpt>
      <trkpt lat="45.9767" lon="4.87275">
        <ele>286</ele>
        <time>2017-06-22T08:48:00Z</time>
      </trkpt>
      <trkpt lat="45.97675" lon="4.8728">
        <ele>286</ele>
        <time>2017-06-22T08:48:01Z</time>
      </trkpt>
      <trkpt lat="45.9768" lon="4.87286">
        <ele>286</ele>
        <time>2017-06-22T08:48:02Z</time>
      </trkpt>
      <trkpt lat="45.97686" lon="4.87291">
        <ele>286</ele>
        <time>2017-06-22T08:48:03Z</time>
      </trkpt>
      <trkpt lat="45.97691" lon="4.87298">
        <ele>286</ele>
        <time>2017-06-22T08:48:04Z</time>
      </trkpt>
      <trkpt lat="45.97696" lon="4.87304">
        <ele>286</ele>
        <time>2017-06-22T08:48:05Z</time>
      </trkpt>
      <trkpt lat="45.97701" lon="4.8731">
        <ele>286</ele>
        <time>2017-06-22T08:48:06Z</time>
      </trkpt>
      <trkpt lat="45.97705" lon="4.87315">
        <ele>286</ele>
        <time>2017-06-22T08:48:07Z</time>
      </trkpt>
      <trkpt lat="45.9771" lon="4.87321">
        <ele>286</ele>
        <time>2017-06-22T08:48:08Z</time>
      </trkpt>
      <trkpt lat="45.97714" lon="4.87326">
        <ele>286</ele>
        <time>2017-06-22T08:48:09Z</time>
      </trkpt>
      <trkpt lat="45.97718" lon="4.87332">
        <ele>286</ele>
        <time>2017-06-22T08:48:10Z</time>
      </trkpt>
      <trkpt lat="45.97722" lon="4.87337">
        <ele>285</ele>
        <time>2017-06-22T08:48:11Z</time>
      </trkpt>
      <trkpt lat="45.97726" lon="4.87343">
        <ele>285</ele>
        <time>2017-06-22T08:48:12Z</time>
      </trkpt>
      <trkpt lat="45.9773" lon="4.87348">
        <ele>285</ele>
        <time>2017-06-22T08:48:13Z</time>
      </trkpt>
      <trkpt lat="45.97734" lon="4.87353">
        <ele>285</ele>
        <time>2017-06-22T08:48:14Z</time>
      </trkpt>
      <trkpt lat="45.97738" lon="4.87358">
        <ele>285</ele>
        <time>2017-06-22T08:48:15Z</time>
      </trkpt>
      <trkpt lat="45.97742" lon="4.87362">
        <ele>285</ele>
        <time>2017-06-22T08:48:16Z</time>
      </trkpt>
      <trkpt lat="45.97745" lon="4.87368">
        <ele>285</ele>
        <time>2017-06-22T08:48:17Z</time>
      </trkpt>
      <trkpt lat="45.97749" lon="4.87373">
        <ele>285</ele>
        <time>2017-06-22T08:48:18Z</time>
      </trkpt>
      <trkpt lat="45.97753" lon="4.87378">
        <ele>285</ele>
        <time>2017-06-22T08:48:19Z</time>
      </trkpt>
      <trkpt lat="45.97757" lon="4.87383">
        <ele>284</ele>
        <time>2017-06-22T08:48:20Z</time>
      </trkpt>
      <trkpt lat="45.97761" lon="4.87388">
        <ele>284</ele>
        <time>2017-06-22T08:48:21Z</time>
      </trkpt>
      <trkpt lat="45.97765" lon="4.87394">
        <ele>284</ele>
        <time>2017-06-22T08:48:22Z</time>
      </trkpt>
      <trkpt lat="45.97769" lon="4.87399">
        <ele>284</ele>
        <time>2017-06-22T08:48:23Z</time>
      </trkpt>
      <trkpt lat="45.97773" lon="4.87404">
        <ele>284</ele>
        <time>2017-06-22T08:48:24Z</time>
      </trkpt>
      <trkpt lat="45.97778" lon="4.87409">
        <ele>284</ele>
        <time>2017-06-22T08:48:25Z</time>
      </trkpt>
      <trkpt lat="45.97782" lon="4.87414">
        <ele>284</ele>
        <time>2017-06-22T08:48:26Z</time>
      </trkpt>
      <trkpt lat="45.97786" lon="4.87419">
        <ele>283</ele>
        <time>2017-06-22T08:48:27Z</time>
      </trkpt>
      <trkpt lat="45.97789" lon="4.87424">
        <ele>283</ele>
        <time>2017-06-22T08:48:28Z</time>
      </trkpt>
      <trkpt lat="45.97794" lon="4.87428">
        <ele>283</ele>
        <time>2017-06-22T08:48:29Z</time>
      </trkpt>
      <trkpt lat="45.97798" lon="4.87432">
        <ele>283</ele>
        <time>2017-06-22T08:48:30Z</time>
      </trkpt>
      <trkpt lat="45.97803" lon="4.87437">
        <ele>283</ele>
        <time>2017-06-22T08:48:31Z</time>
      </trkpt>
      <trkpt lat="45.97808" lon="4.87442">
        <ele>282</ele>
        <time>2017-06-22T08:48:32Z</time>
      </trkpt>
      <trkpt lat="45.97814" lon="4.87448">
        <ele>282</ele>
        <time>2017-06-22T08:48:33Z</time>
      </trkpt>
      <trkpt lat="45.97819" lon="4.87453">
        <ele>282</ele>
        <time>2017-06-22T08:48:34Z</time>
      </trkpt>
      <trkpt lat="45.97824" lon="4.87458">
        <ele>282</ele>
        <time>2017-06-22T08:48:35Z</time>
      </trkpt>
      <trkpt lat="45.9783" lon="4.87463">
        <ele>282</ele>
        <time>2017-06-22T08:48:36Z</time>
      </trkpt>
      <trkpt lat="45.97835" lon="4.87468">
        <ele>281</ele>
        <time>2017-06-22T08:48:37Z</time>
      </trkpt>
      <trkpt lat="45.9784" lon="4.87474">
        <ele>281</ele>
        <time>2017-06-22T08:48:38Z</time>
      </trkpt>
      <trkpt lat="45.97845" lon="4.8748">
        <ele>281</ele>
        <time>2017-06-22T08:48:39Z</time>
      </trkpt>
      <trkpt lat="45.9785" lon="4.87486">
        <ele>281</ele>
        <time>2017-06-22T08:48:40Z</time>
      </trkpt>
      <trkpt lat="45.97856" lon="4.87491">
        <ele>281</ele>
        <time>2017-06-22T08:48:41Z</time>
      </trkpt>
      <trkpt lat="45.97862" lon="4.87496">
        <ele>281</ele>
        <time>2017-06-22T08:48:42Z</time>
      </trkpt>
      <trkpt lat="45.97868" lon="4.87501">
        <ele>281</ele>
        <time>2017-06-22T08:48:43Z</time>
      </trkpt>
      <trkpt lat="45.97874" lon="4.87505">
        <ele>281</ele>
        <time>2017-06-22T08:48:44Z</time>
      </trkpt>
      <trkpt lat="45.9788" lon="4.87509">
        <ele>281</ele>
        <time>2017-06-22T08:48:45Z</time>
      </trkpt>
      <trkpt lat="45.97887" lon="4.87513">
        <ele>281</ele>
        <time>2017-06-22T08:48:46Z</time>
      </trkpt>
      <trkpt lat="45.97893" lon="4.87516">
        <ele>280</ele>
        <time>2017-06-22T08:48:47Z</time>
      </trkpt>
      <trkpt lat="45.979" lon="4.87519">
        <ele>280</ele>
        <time>2017-06-22T08:48:48Z</time>
      </trkpt>
      <trkpt lat="45.97906" lon="4.87522">
        <ele>280</ele>
        <time>2017-06-22T08:48:49Z</time>
      </trkpt>
      <trkpt lat="45.97912" lon="4.87525">
        <ele>280</ele>
        <time>2017-06-22T08:48:50Z</time>
      </trkpt>
      <trkpt lat="45.97918" lon="4.87528">
        <ele>279</ele>
        <time>2017-06-22T08:48:51Z</time>
      </trkpt>
      <trkpt lat="45.97924" lon="4.8753">
        <ele>279</ele>
        <time>2017-06-22T08:48:52Z</time>
      </trkpt>
      <trkpt lat="45.9793" lon="4.87533">
        <ele>279</ele>
        <time>2017-06-22T08:48:53Z</time>
      </trkpt>
      <trkpt lat="45.97936" lon="4.87535">
        <ele>279</ele>
        <time>2017-06-22T08:48:54Z</time>
      </trkpt>
      <trkpt lat="45.97941" lon="4.87538">
        <ele>279</ele>
        <time>2017-06-22T08:48:55Z</time>
      </trkpt>
      <trkpt lat="45.97947" lon="4.87541">
        <ele>279</ele>
        <time>2017-06-22T08:48:56Z</time>
      </trkpt>
      <trkpt lat="45.97952" lon="4.87543">
        <ele>279</ele>
        <time>2017-06-22T08:48:57Z</time>
      </trkpt>
      <trkpt lat="45.97958" lon="4.87546">
        <ele>279</ele>
        <time>2017-06-22T08:48:58Z</time>
      </trkpt>
      <trkpt lat="45.97963" lon="4.87549">
        <ele>279</ele>
        <time>2017-06-22T08:48:59Z</time>
      </trkpt>
      <trkpt lat="45.97968" lon="4.87552">
        <ele>279</ele>
        <time>2017-06-22T08:49:00Z</time>
      </trkpt>
      <trkpt lat="45.97972" lon="4.87556">
        <ele>279</ele>
        <time>2017-06-22T08:49:01Z</time>
      </trkpt>
      <trkpt lat="45.97976" lon="4.8756">
        <ele>279</ele>
        <time>2017-06-22T08:49:02Z</time>
      </trkpt>
      <trkpt lat="45.9798" lon="4.87565">
        <ele>279</ele>
        <time>2017-06-22T08:49:03Z</time>
      </trkpt>
      <trkpt lat="45.97983" lon="4.8757">
        <ele>280</ele>
        <time>2017-06-22T08:49:04Z</time>
      </trkpt>
      <trkpt lat="45.97986" lon="4.87575">
        <ele>280</ele>
        <time>2017-06-22T08:49:05Z</time>
      </trkpt>
      <trkpt lat="45.9799" lon="4.87579">
        <ele>280</ele>
        <time>2017-06-22T08:49:06Z</time>
      </trkpt>
      <trkpt lat="45.97992" lon="4.87585">
        <ele>280</ele>
        <time>2017-06-22T08:49:07Z</time>
      </trkpt>
      <trkpt lat="45.97995" lon="4.87591">
        <ele>280</ele>
        <time>2017-06-22T08:49:08Z</time>
      </trkpt>
      <trkpt lat="45.97998" lon="4.87597">
        <ele>280</ele>
        <time>2017-06-22T08:49:09Z</time>
      </trkpt>
      <trkpt lat="45.98001" lon="4.87604">
        <ele>280</ele>
        <time>2017-06-22T08:49:10Z</time>
      </trkpt>
      <trkpt lat="45.98003" lon="4.87611">
        <ele>280</ele>
        <time>2017-06-22T08:49:11Z</time>
      </trkpt>
      <trkpt lat="45.98006" lon="4.87618">
        <ele>280</ele>
        <time>2017-06-22T08:49:12Z</time>
      </trkpt>
      <trkpt lat="45.98009" lon="4.87626">
        <ele>280</ele>
        <time>2017-06-22T08:49:13Z</time>
      </trkpt>
      <trkpt lat="45.98011" lon="4.87634">
        <ele>280</ele>
        <time>2017-06-22T08:49:14Z</time>
      </trkpt>
      <trkpt lat="45.98013" lon="4.87642">
        <ele>280</ele>
        <time>2017-06-22T08:49:15Z</time>
      </trkpt>
      <trkpt lat="45.98015" lon="4.8765">
        <ele>280</ele>
        <time>2017-06-22T08:49:16Z</time>
      </trkpt>
      <trkpt lat="45.98018" lon="4.87659">
        <ele>280</ele>
        <time>2017-06-22T08:49:17Z</time>
      </trkpt>
      <trkpt lat="45.9802" lon="4.87666">
        <ele>280</ele>
        <time>2017-06-22T08:49:18Z</time>
      </trkpt>
      <trkpt lat="45.98023" lon="4.87674">
        <ele>280</ele>
        <time>2017-06-22T08:49:19Z</time>
      </trkpt>
      <trkpt lat="45.98025" lon="4.87682">
        <ele>280</ele>
        <time>2017-06-22T08:49:20Z</time>
      </trkpt>
      <trkpt lat="45.98027" lon="4.87689">
        <ele>280</ele>
        <time>2017-06-22T08:49:21Z</time>
      </trkpt>
      <trkpt lat="45.9803" lon="4.87697">
        <ele>280</ele>
        <time>2017-06-22T08:49:22Z</time>
      </trkpt>
      <trkpt lat="45.98032" lon="4.87705">
        <ele>280</ele>
        <time>2017-06-22T08:49:23Z</time>
      </trkpt>
      <trkpt lat="45.98034" lon="4.87713">
        <ele>279</ele>
        <time>2017-06-22T08:49:24Z</time>
      </trkpt>
      <trkpt lat="45.98036" lon="4.8772">
        <ele>279</ele>
        <time>2017-06-22T08:49:25Z</time>
      </trkpt>
      <trkpt lat="45.98039" lon="4.87728">
        <ele>279</ele>
        <time>2017-06-22T08:49:26Z</time>
      </trkpt>
      <trkpt lat="45.98041" lon="4.87736">
        <ele>279</ele>
        <time>2017-06-22T08:49:27Z</time>
      </trkpt>
      <trkpt lat="45.98043" lon="4.87743">
        <ele>280</ele>
        <time>2017-06-22T08:49:28Z</time>
      </trkpt>
      <trkpt lat="45.98046" lon="4.87751">
        <ele>280</ele>
        <time>2017-06-22T08:49:29Z</time>
      </trkpt>
      <trkpt lat="45.98048" lon="4.87759">
        <ele>280</ele>
        <time>2017-06-22T08:49:30Z</time>
      </trkpt>
      <trkpt lat="45.9805" lon="4.87766">
        <ele>280</ele>
        <time>2017-06-22T08:49:31Z</time>
      </trkpt>
      <trkpt lat="45.98052" lon="4.87773">
        <ele>280</ele>
        <time>2017-06-22T08:49:32Z</time>
      </trkpt>
      <trkpt lat="45.98054" lon="4.87781">
        <ele>280</ele>
        <time>2017-06-22T08:49:33Z</time>
      </trkpt>
      <trkpt lat="45.98057" lon="4.87789">
        <ele>280</ele>
        <time>2017-06-22T08:49:34Z</time>
      </trkpt>
      <trkpt lat="45.98059" lon="4.87796">
        <ele>280</ele>
        <time>2017-06-22T08:49:35Z</time>
      </trkpt>
      <trkpt lat="45.98062" lon="4.87804">
        <ele>280</ele>
        <time>2017-06-22T08:49:36Z</time>
      </trkpt>
      <trkpt lat="45.98065" lon="4.87811">
        <ele>280</ele>
        <time>2017-06-22T08:49:37Z</time>
      </trkpt>
      <trkpt lat="45.98067" lon="4.87818">
        <ele>280</ele>
        <time>2017-06-22T08:49:38Z</time>
      </trkpt>
      <trkpt lat="45.98069" lon="4.87825">
        <ele>279</ele>
        <time>2017-06-22T08:49:39Z</time>
      </trkpt>
      <trkpt lat="45.98072" lon="4.87833">
        <ele>279</ele>
        <time>2017-06-22T08:49:40Z</time>
      </trkpt>
      <trkpt lat="45.98074" lon="4.8784">
        <ele>279</ele>
        <time>2017-06-22T08:49:41Z</time>
      </trkpt>
      <trkpt lat="45.98077" lon="4.87848">
        <ele>280</ele>
        <time>2017-06-22T08:49:42Z</time>
      </trkpt>
      <trkpt lat="45.98079" lon="4.87857">
        <ele>280</ele>
        <time>2017-06-22T08:49:43Z</time>
      </trkpt>
      <trkpt lat="45.98082" lon="4.87866">
        <ele>280</ele>
        <time>2017-06-22T08:49:44Z</time>
      </trkpt>
      <trkpt lat="45.98084" lon="4.87875">
        <ele>278</ele>
        <time>2017-06-22T08:49:45Z</time>
      </trkpt>
      <trkpt lat="45.98087" lon="4.87884">
        <ele>278</ele>
        <time>2017-06-22T08:49:46Z</time>
      </trkpt>
      <trkpt lat="45.9809" lon="4.87893">
        <ele>278</ele>
        <time>2017-06-22T08:49:47Z</time>
      </trkpt>
      <trkpt lat="45.98093" lon="4.87902">
        <ele>278</ele>
        <time>2017-06-22T08:49:48Z</time>
      </trkpt>
      <trkpt lat="45.98096" lon="4.87911">
        <ele>278</ele>
        <time>2017-06-22T08:49:49Z</time>
      </trkpt>
      <trkpt lat="45.98098" lon="4.8792">
        <ele>278</ele>
        <time>2017-06-22T08:49:50Z</time>
      </trkpt>
      <trkpt lat="45.98101" lon="4.87929">
        <ele>277</ele>
        <time>2017-06-22T08:49:51Z</time>
      </trkpt>
      <trkpt lat="45.98104" lon="4.87938">
        <ele>277</ele>
        <time>2017-06-22T08:49:52Z</time>
      </trkpt>
      <trkpt lat="45.98107" lon="4.87946">
        <ele>277</ele>
        <time>2017-06-22T08:49:53Z</time>
      </trkpt>
      <trkpt lat="45.98109" lon="4.87955">
        <ele>277</ele>
        <time>2017-06-22T08:49:54Z</time>
      </trkpt>
      <trkpt lat="45.98111" lon="4.87964">
        <ele>277</ele>
        <time>2017-06-22T08:49:55Z</time>
      </trkpt>
      <trkpt lat="45.98114" lon="4.87972">
        <ele>277</ele>
        <time>2017-06-22T08:49:56Z</time>
      </trkpt>
      <trkpt lat="45.98116" lon="4.87981">
        <ele>277</ele>
        <time>2017-06-22T08:49:57Z</time>
      </trkpt>
      <trkpt lat="45.98119" lon="4.87989">
        <ele>277</ele>
        <time>2017-06-22T08:49:58Z</time>
      </trkpt>
      <trkpt lat="45.98121" lon="4.87998">
        <ele>277</ele>
        <time>2017-06-22T08:49:59Z</time>
      </trkpt>
      <trkpt lat="45.98124" lon="4.88006">
        <ele>276</ele>
        <time>2017-06-22T08:50:00Z</time>
      </trkpt>
      <trkpt lat="45.98126" lon="4.88015">
        <ele>276</ele>
        <time>2017-06-22T08:50:01Z</time>
      </trkpt>
      <trkpt lat="45.98129" lon="4.88024">
        <ele>276</ele>
        <time>2017-06-22T08:50:02Z</time>
      </trkpt>
      <trkpt lat="45.98131" lon="4.88033">
        <ele>276</ele>
        <time>2017-06-22T08:50:03Z</time>
      </trkpt>
      <trkpt lat="45.98134" lon="4.88041">
        <ele>276</ele>
        <time>2017-06-22T08:50:04Z</time>
      </trkpt>
      <trkpt lat="45.98136" lon="4.8805">
        <ele>275</ele>
        <time>2017-06-22T08:50:05Z</time>
      </trkpt>
      <trkpt lat="45.98139" lon="4.88059">
        <ele>275</ele>
        <time>2017-06-22T08:50:06Z</time>
      </trkpt>
      <trkpt lat="45.98141" lon="4.88067">
        <ele>275</ele>
        <time>2017-06-22T08:50:07Z</time>
      </trkpt>
      <trkpt lat="45.98144" lon="4.88076">
        <ele>275</ele>
        <time>2017-06-22T08:50:08Z</time>
      </trkpt>
      <trkpt lat="45.98146" lon="4.88085">
        <ele>274</ele>
        <time>2017-06-22T08:50:09Z</time>
      </trkpt>
      <trkpt lat="45.9815" lon="4.88094">
        <ele>274</ele>
        <time>2017-06-22T08:50:10Z</time>
      </trkpt>
      <trkpt lat="45.98152" lon="4.88103">
        <ele>274</ele>
        <time>2017-06-22T08:50:11Z</time>
      </trkpt>
      <trkpt lat="45.98155" lon="4.88111">
        <ele>274</ele>
        <time>2017-06-22T08:50:12Z</time>
      </trkpt>
      <trkpt lat="45.98158" lon="4.8812">
        <ele>274</ele>
        <time>2017-06-22T08:50:13Z</time>
      </trkpt>
      <trkpt lat="45.98161" lon="4.88129">
        <ele>274</ele>
        <time>2017-06-22T08:50:14Z</time>
      </trkpt>
      <trkpt lat="45.98163" lon="4.88137">
        <ele>274</ele>
        <time>2017-06-22T08:50:15Z</time>
      </trkpt>
      <trkpt lat="45.98166" lon="4.88146">
        <ele>274</ele>
        <time>2017-06-22T08:50:16Z</time>
      </trkpt>
      <trkpt lat="45.98168" lon="4.88154">
        <ele>273</ele>
        <time>2017-06-22T08:50:17Z</time>
      </trkpt>
      <trkpt lat="45.9817" lon="4.88163">
        <ele>273</ele>
        <time>2017-06-22T08:50:18Z</time>
      </trkpt>
      <trkpt lat="45.98173" lon="4.88172">
        <ele>273</ele>
        <time>2017-06-22T08:50:19Z</time>
      </trkpt>
      <trkpt lat="45.98176" lon="4.88181">
        <ele>273</ele>
        <time>2017-06-22T08:50:20Z</time>
      </trkpt>
      <trkpt lat="45.98179" lon="4.8819">
        <ele>273</ele>
        <time>2017-06-22T08:50:21Z</time>
      </trkpt>
      <trkpt lat="45.98182" lon="4.882">
        <ele>273</ele>
        <time>2017-06-22T08:50:22Z</time>
      </trkpt>
      <trkpt lat="45.98184" lon="4.88209">
        <ele>273</ele>
        <time>2017-06-22T08:50:23Z</time>
      </trkpt>
      <trkpt lat="45.98187" lon="4.88219">
        <ele>273</ele>
        <time>2017-06-22T08:50:24Z</time>
      </trkpt>
      <trkpt lat="45.9819" lon="4.88229">
        <ele>273</ele>
        <time>2017-06-22T08:50:25Z</time>
      </trkpt>
      <trkpt lat="45.98192" lon="4.88238">
        <ele>273</ele>
        <time>2017-06-22T08:50:26Z</time>
      </trkpt>
      <trkpt lat="45.98195" lon="4.88247">
        <ele>273</ele>
        <time>2017-06-22T08:50:27Z</time>
      </trkpt>
      <trkpt lat="45.98197" lon="4.88256">
        <ele>274</ele>
        <time>2017-06-22T08:50:28Z</time>
      </trkpt>
      <trkpt lat="45.982" lon="4.88264">
        <ele>274</ele>
        <time>2017-06-22T08:50:29Z</time>
      </trkpt>
      <trkpt lat="45.98202" lon="4.88272">
        <ele>274</ele>
        <time>2017-06-22T08:50:30Z</time>
      </trkpt>
      <trkpt lat="45.98204" lon="4.8828">
        <ele>274</ele>
        <time>2017-06-22T08:50:31Z</time>
      </trkpt>
      <trkpt lat="45.98206" lon="4.88288">
        <ele>274</ele>
        <time>2017-06-22T08:50:32Z</time>
      </trkpt>
      <trkpt lat="45.98207" lon="4.88296">
        <ele>274</ele>
        <time>2017-06-22T08:50:33Z</time>
      </trkpt>
      <trkpt lat="45.98208" lon="4.88305">
        <ele>274</ele>
        <time>2017-06-22T08:50:34Z</time>
      </trkpt>
      <trkpt lat="45.98209" lon="4.88313">
        <ele>274</ele>
        <time>2017-06-22T08:50:35Z</time>
      </trkpt>
      <trkpt lat="45.9821" lon="4.88321">
        <ele>274</ele>
        <time>2017-06-22T08:50:36Z</time>
      </trkpt>
      <trkpt lat="45.98211" lon="4.88329">
        <ele>274</ele>
        <time>2017-06-22T08:50:37Z</time>
      </trkpt>
      <trkpt lat="45.98211" lon="4.88337">
        <ele>275</ele>
        <time>2017-06-22T08:50:38Z</time>
      </trkpt>
      <trkpt lat="45.98212" lon="4.88345">
        <ele>275</ele>
        <time>2017-06-22T08:50:39Z</time>
      </trkpt>
      <trkpt lat="45.98212" lon="4.88353">
        <ele>275</ele>
        <time>2017-06-22T08:50:40Z</time>
      </trkpt>
      <trkpt lat="45.98213" lon="4.88361">
        <ele>275</ele>
        <time>2017-06-22T08:50:41Z</time>
      </trkpt>
      <trkpt lat="45.98214" lon="4.8837">
        <ele>275</ele>
        <time>2017-06-22T08:50:42Z</time>
      </trkpt>
      <trkpt lat="45.98215" lon="4.88379">
        <ele>275</ele>
        <time>2017-06-22T08:50:43Z</time>
      </trkpt>
      <trkpt lat="45.98216" lon="4.88387">
        <ele>275</ele>
        <time>2017-06-22T08:50:44Z</time>
      </trkpt>
      <trkpt lat="45.98218" lon="4.88396">
        <ele>275</ele>
        <time>2017-06-22T08:50:45Z</time>
      </trkpt>
      <trkpt lat="45.98219" lon="4.88404">
        <ele>275</ele>
        <time>2017-06-22T08:50:46Z</time>
      </trkpt>
      <trkpt lat="45.98221" lon="4.88412">
        <ele>275</ele>
        <time>2017-06-22T08:50:47Z</time>
      </trkpt>
      <trkpt lat="45.98223" lon="4.88419">
        <ele>276</ele>
        <time>2017-06-22T08:50:48Z</time>
      </trkpt>
      <trkpt lat="45.98225" lon="4.88428">
        <ele>276</ele>
        <time>2017-06-22T08:50:49Z</time>
      </trkpt>
      <trkpt lat="45.98227" lon="4.88437">
        <ele>276</ele>
        <time>2017-06-22T08:50:50Z</time>
      </trkpt>
      <trkpt lat="45.98229" lon="4.88445">
        <ele>276</ele>
        <time>2017-06-22T08:50:51Z</time>
      </trkpt>
      <trkpt lat="45.98232" lon="4.88454">
        <ele>276</ele>
        <time>2017-06-22T08:50:52Z</time>
      </trkpt>
      <trkpt lat="45.98234" lon="4.88461">
        <ele>276</ele>
        <time>2017-06-22T08:50:53Z</time>
      </trkpt>
      <trkpt lat="45.98236" lon="4.88469">
        <ele>276</ele>
        <time>2017-06-22T08:50:54Z</time>
      </trkpt>
      <trkpt lat="45.98238" lon="4.88476">
        <ele>276</ele>
        <time>2017-06-22T08:50:55Z</time>
      </trkpt>
      <trkpt lat="45.98239" lon="4.88483">
        <ele>276</ele>
        <time>2017-06-22T08:50:56Z</time>
      </trkpt>
      <trkpt lat="45.98241" lon="4.8849">
        <ele>276</ele>
        <time>2017-06-22T08:50:57Z</time>
      </trkpt>
      <trkpt lat="45.98243" lon="4.88497">
        <ele>277</ele>
        <time>2017-06-22T08:50:58Z</time>
      </trkpt>
      <trkpt lat="45.98244" lon="4.88504">
        <ele>277</ele>
        <time>2017-06-22T08:50:59Z</time>
      </trkpt>
      <trkpt lat="45.98246" lon="4.88511">
        <ele>276</ele>
        <time>2017-06-22T08:51:00Z</time>
      </trkpt>
      <trkpt lat="45.98247" lon="4.88517">
        <ele>276</ele>
        <time>2017-06-22T08:51:01Z</time>
      </trkpt>
      <trkpt lat="45.98248" lon="4.88524">
        <ele>276</ele>
        <time>2017-06-22T08:51:02Z</time>
      </trkpt>
      <trkpt lat="45.9825" lon="4.88531">
        <ele>276</ele>
        <time>2017-06-22T08:51:03Z</time>
      </trkpt>
      <trkpt lat="45.98251" lon="4.88537">
        <ele>276</ele>
        <time>2017-06-22T08:51:04Z</time>
      </trkpt>
      <trkpt lat="45.98253" lon="4.88544">
        <ele>276</ele>
        <time>2017-06-22T08:51:05Z</time>
      </trkpt>
      <trkpt lat="45.98255" lon="4.88551">
        <ele>276</ele>
        <time>2017-06-22T08:51:06Z</time>
      </trkpt>
      <trkpt lat="45.98257" lon="4.88558">
        <ele>276</ele>
        <time>2017-06-22T08:51:07Z</time>
      </trkpt>
      <trkpt lat="45.98258" lon="4.88565">
        <ele>276</ele>
        <time>2017-06-22T08:51:08Z</time>
      </trkpt>
      <trkpt lat="45.9826" lon="4.88572">
        <ele>276</ele>
        <time>2017-06-22T08:51:09Z</time>
      </trkpt>
      <trkpt lat="45.98262" lon="4.88578">
        <ele>276</ele>
        <time>2017-06-22T08:51:10Z</time>
      </trkpt>
      <trkpt lat="45.98264" lon="4.88586">
        <ele>275</ele>
        <time>2017-06-22T08:51:11Z</time>
      </trkpt>
      <trkpt lat="45.98266" lon="4.88593">
        <ele>275</ele>
        <time>2017-06-22T08:51:12Z</time>
      </trkpt>
      <trkpt lat="45.98267" lon="4.88599">
        <ele>275</ele>
        <time>2017-06-22T08:51:13Z</time>
      </trkpt>
      <trkpt lat="45.98268" lon="4.88605">
        <ele>276</ele>
        <time>2017-06-22T08:51:14Z</time>
      </trkpt>
      <trkpt lat="45.9827" lon="4.88612">
        <ele>276</ele>
        <time>2017-06-22T08:51:15Z</time>
      </trkpt>
      <trkpt lat="45.98271" lon="4.88617">
        <ele>276</ele>
        <time>2017-06-22T08:51:16Z</time>
      </trkpt>
      <trkpt lat="45.98273" lon="4.88624">
        <ele>276</ele>
        <time>2017-06-22T08:51:17Z</time>
      </trkpt>
      <trkpt lat="45.98274" lon="4.8863">
        <ele>276</ele>
        <time>2017-06-22T08:51:18Z</time>
      </trkpt>
      <trkpt lat="45.98275" lon="4.88637">
        <ele>276</ele>
        <time>2017-06-22T08:51:19Z</time>
      </trkpt>
      <trkpt lat="45.98277" lon="4.88644">
        <ele>276</ele>
        <time>2017-06-22T08:51:20Z</time>
      </trkpt>
      <trkpt lat="45.98279" lon="4.88651">
        <ele>276</ele>
        <time>2017-06-22T08:51:21Z</time>
      </trkpt>
      <trkpt lat="45.9828" lon="4.88658">
        <ele>276</ele>
        <time>2017-06-22T08:51:22Z</time>
      </trkpt>
      <trkpt lat="45.98282" lon="4.88665">
        <ele>276</ele>
        <time>2017-06-22T08:51:23Z</time>
      </trkpt>
      <trkpt lat="45.98284" lon="4.88671">
        <ele>276</ele>
        <time>2017-06-22T08:51:24Z</time>
      </trkpt>
      <trkpt lat="45.98285" lon="4.88679">
        <ele>276</ele>
        <time>2017-06-22T08:51:25Z</time>
      </trkpt>
      <trkpt lat="45.98288" lon="4.8869">
        <ele>276</ele>
        <time>2017-06-22T08:51:27Z</time>
      </trkpt>
      <trkpt lat="45.98289" lon="4.88697">
        <ele>276</ele>
        <time>2017-06-22T08:51:28Z</time>
      </trkpt>
      <trkpt lat="45.9829" lon="4.88703">
        <ele>276</ele>
        <time>2017-06-22T08:51:29Z</time>
      </trkpt>
      <trkpt lat="45.98292" lon="4.88709">
        <ele>276</ele>
        <time>2017-06-22T08:51:30Z</time>
      </trkpt>
      <trkpt lat="45.98294" lon="4.88715">
        <ele>276</ele>
        <time>2017-06-22T08:51:31Z</time>
      </trkpt>
      <trkpt lat="45.98295" lon="4.88721">
        <ele>276</ele>
        <time>2017-06-22T08:51:32Z</time>
      </trkpt>
      <trkpt lat="45.98297" lon="4.88727">
        <ele>276</ele>
        <time>2017-06-22T08:51:33Z</time>
      </trkpt>
      <trkpt lat="45.98299" lon="4.88733">
        <ele>276</ele>
        <time>2017-06-22T08:51:34Z</time>
      </trkpt>
      <trkpt lat="45.983" lon="4.8874">
        <ele>276</ele>
        <time>2017-06-22T08:51:35Z</time>
      </trkpt>
      <trkpt lat="45.98302" lon="4.88746">
        <ele>276</ele>
        <time>2017-06-22T08:51:36Z</time>
      </trkpt>
      <trkpt lat="45.98303" lon="4.88753">
        <ele>276</ele>
        <time>2017-06-22T08:51:37Z</time>
      </trkpt>
      <trkpt lat="45.98305" lon="4.88759">
        <ele>276</ele>
        <time>2017-06-22T08:51:38Z</time>
      </trkpt>
      <trkpt lat="45.98308" lon="4.8877">
        <ele>277</ele>
        <time>2017-06-22T08:51:40Z</time>
      </trkpt>
      <trkpt lat="45.98308" lon="4.88775">
        <ele>277</ele>
        <time>2017-06-22T08:51:41Z</time>
      </trkpt>
      <trkpt lat="45.98311" lon="4.88786">
        <ele>277</ele>
        <time>2017-06-22T08:51:43Z</time>
      </trkpt>
      <trkpt lat="45.98313" lon="4.88792">
        <ele>277</ele>
        <time>2017-06-22T08:51:44Z</time>
      </trkpt>
      <trkpt lat="45.98315" lon="4.88799">
        <ele>277</ele>
        <time>2017-06-22T08:51:45Z</time>
      </trkpt>
      <trkpt lat="45.98317" lon="4.88806">
        <ele>277</ele>
        <time>2017-06-22T08:51:46Z</time>
      </trkpt>
      <trkpt lat="45.98319" lon="4.88814">
        <ele>277</ele>
        <time>2017-06-22T08:51:47Z</time>
      </trkpt>
      <trkpt lat="45.98321" lon="4.88821">
        <ele>277</ele>
        <time>2017-06-22T08:51:48Z</time>
      </trkpt>
      <trkpt lat="45.98323" lon="4.88829">
        <ele>278</ele>
        <time>2017-06-22T08:51:49Z</time>
      </trkpt>
      <trkpt lat="45.98324" lon="4.88836">
        <ele>278</ele>
        <time>2017-06-22T08:51:50Z</time>
      </trkpt>
      <trkpt lat="45.98326" lon="4.88842">
        <ele>278</ele>
        <time>2017-06-22T08:51:51Z</time>
      </trkpt>
      <trkpt lat="45.98327" lon="4.88849">
        <ele>278</ele>
        <time>2017-06-22T08:51:52Z</time>
      </trkpt>
      <trkpt lat="45.98329" lon="4.88855">
        <ele>278</ele>
        <time>2017-06-22T08:51:53Z</time>
      </trkpt>
      <trkpt lat="45.9833" lon="4.88861">
        <ele>278</ele>
        <time>2017-06-22T08:51:54Z</time>
      </trkpt>
      <trkpt lat="45.98332" lon="4.88868">
        <ele>278</ele>
        <time>2017-06-22T08:51:55Z</time>
      </trkpt>
      <trkpt lat="45.98333" lon="4.88874">
        <ele>278</ele>
        <time>2017-06-22T08:51:56Z</time>
      </trkpt>
      <trkpt lat="45.98335" lon="4.8888">
        <ele>280</ele>
        <time>2017-06-22T08:51:57Z</time>
      </trkpt>
      <trkpt lat="45.98336" lon="4.88886">
        <ele>280</ele>
        <time>2017-06-22T08:51:58Z</time>
      </trkpt>
      <trkpt lat="45.98339" lon="4.88897">
        <ele>280</ele>
        <time>2017-06-22T08:52:00Z</time>
      </trkpt>
      <trkpt lat="45.98341" lon="4.88903">
        <ele>280</ele>
        <time>2017-06-22T08:52:01Z</time>
      </trkpt>
      <trkpt lat="45.98343" lon="4.88913">
        <ele>280</ele>
        <time>2017-06-22T08:52:03Z</time>
      </trkpt>
      <trkpt lat="45.98344" lon="4.88918">
        <ele>280</ele>
        <time>2017-06-22T08:52:04Z</time>
      </trkpt>
      <trkpt lat="45.98346" lon="4.88927">
        <ele>281</ele>
        <time>2017-06-22T08:52:06Z</time>
      </trkpt>
      <trkpt lat="45.98347" lon="4.8893">
        <ele>281</ele>
        <time>2017-06-22T08:52:07Z</time>
      </trkpt>
      <trkpt lat="45.9835" lon="4.88939">
        <ele>281</ele>
        <time>2017-06-22T08:52:09Z</time>
      </trkpt>
      <trkpt lat="45.98351" lon="4.88944">
        <ele>282</ele>
        <time>2017-06-22T08:52:10Z</time>
      </trkpt>
      <trkpt lat="45.98351" lon="4.8895">
        <ele>282</ele>
        <time>2017-06-22T08:52:11Z</time>
      </trkpt>
      <trkpt lat="45.98352" lon="4.88957">
        <ele>282</ele>
        <time>2017-06-22T08:52:12Z</time>
      </trkpt>
      <trkpt lat="45.98354" lon="4.88964">
        <ele>282</ele>
        <time>2017-06-22T08:52:13Z</time>
      </trkpt>
      <trkpt lat="45.98355" lon="4.88971">
        <ele>282</ele>
        <time>2017-06-22T08:52:14Z</time>
      </trkpt>
      <trkpt lat="45.98357" lon="4.88978">
        <ele>282</ele>
        <time>2017-06-22T08:52:15Z</time>
      </trkpt>
      <trkpt lat="45.98359" lon="4.88985">
        <ele>282</ele>
        <time>2017-06-22T08:52:16Z</time>
      </trkpt>
      <trkpt lat="45.98361" lon="4.88993">
        <ele>282</ele>
        <time>2017-06-22T08:52:17Z</time>
      </trkpt>
      <trkpt lat="45.98363" lon="4.89">
        <ele>282</ele>
        <time>2017-06-22T08:52:18Z</time>
      </trkpt>
      <trkpt lat="45.98364" lon="4.89007">
        <ele>283</ele>
        <time>2017-06-22T08:52:19Z</time>
      </trkpt>
      <trkpt lat="45.98365" lon="4.89013">
        <ele>283</ele>
        <time>2017-06-22T08:52:20Z</time>
      </trkpt>
      <trkpt lat="45.98368" lon="4.89024">
        <ele>284</ele>
        <time>2017-06-22T08:52:22Z</time>
      </trkpt>
      <trkpt lat="45.98369" lon="4.89029">
        <ele>284</ele>
        <time>2017-06-22T08:52:23Z</time>
      </trkpt>
      <trkpt lat="45.98372" lon="4.89039">
        <ele>284</ele>
        <time>2017-06-22T08:52:25Z</time>
      </trkpt>
      <trkpt lat="45.98374" lon="4.89044">
        <ele>284</ele>
        <time>2017-06-22T08:52:26Z</time>
      </trkpt>
      <trkpt lat="45.98376" lon="4.89054">
        <ele>284</ele>
        <time>2017-06-22T08:52:28Z</time>
      </trkpt>
      <trkpt lat="45.98378" lon="4.89059">
        <ele>284</ele>
        <time>2017-06-22T08:52:29Z</time>
      </trkpt>
      <trkpt lat="45.98381" lon="4.89067">
        <ele>284</ele>
        <time>2017-06-22T08:52:31Z</time>
      </trkpt>
      <trkpt lat="45.98383" lon="4.89071">
        <ele>285</ele>
        <time>2017-06-22T08:52:32Z</time>
      </trkpt>
      <trkpt lat="45.98387" lon="4.89081">
        <ele>285</ele>
        <time>2017-06-22T08:52:34Z</time>
      </trkpt>
      <trkpt lat="45.98388" lon="4.89085">
        <ele>285</ele>
        <time>2017-06-22T08:52:35Z</time>
      </trkpt>
      <trkpt lat="45.98391" lon="4.89093">
        <ele>285</ele>
        <time>2017-06-22T08:52:37Z</time>
      </trkpt>
      <trkpt lat="45.98394" lon="4.89097">
        <ele>285</ele>
        <time>2017-06-22T08:52:38Z</time>
      </trkpt>
      <trkpt lat="45.98398" lon="4.89105">
        <ele>285</ele>
        <time>2017-06-22T08:52:40Z</time>
      </trkpt>
      <trkpt lat="45.98401" lon="4.89109">
        <ele>285</ele>
        <time>2017-06-22T08:52:41Z</time>
      </trkpt>
      <trkpt lat="45.98405" lon="4.89118">
        <ele>285</ele>
        <time>2017-06-22T08:52:43Z</time>
      </trkpt>
      <trkpt lat="45.98407" lon="4.89122">
        <ele>285</ele>
        <time>2017-06-22T08:52:44Z</time>
      </trkpt>
      <trkpt lat="45.98412" lon="4.8913">
        <ele>285</ele>
        <time>2017-06-22T08:52:46Z</time>
      </trkpt>
      <trkpt lat="45.98414" lon="4.89134">
        <ele>285</ele>
        <time>2017-06-22T08:52:47Z</time>
      </trkpt>
      <trkpt lat="45.98419" lon="4.89141">
        <ele>288</ele>
        <time>2017-06-22T08:52:49Z</time>
      </trkpt>
      <trkpt lat="45.9842" lon="4.89145">
        <ele>288</ele>
        <time>2017-06-22T08:52:50Z</time>
      </trkpt>
      <trkpt lat="45.98424" lon="4.89153">
        <ele>288</ele>
        <time>2017-06-22T08:52:52Z</time>
      </trkpt>
      <trkpt lat="45.98427" lon="4.89156">
        <ele>288</ele>
        <time>2017-06-22T08:52:53Z</time>
      </trkpt>
      <trkpt lat="45.98431" lon="4.89164">
        <ele>288</ele>
        <time>2017-06-22T08:52:55Z</time>
      </trkpt>
      <trkpt lat="45.98433" lon="4.89168">
        <ele>288</ele>
        <time>2017-06-22T08:52:56Z</time>
      </trkpt>
      <trkpt lat="45.98437" lon="4.89176">
        <ele>288</ele>
        <time>2017-06-22T08:52:58Z</time>
      </trkpt>
      <trkpt lat="45.98439" lon="4.8918">
        <ele>288</ele>
        <time>2017-06-22T08:52:59Z</time>
      </trkpt>
      <trkpt lat="45.98444" lon="4.89188">
        <ele>288</ele>
        <time>2017-06-22T08:53:01Z</time>
      </trkpt>
      <trkpt lat="45.98446" lon="4.89192">
        <ele>288</ele>
        <time>2017-06-22T08:53:02Z</time>
      </trkpt>
      <trkpt lat="45.9845" lon="4.892">
        <ele>289</ele>
        <time>2017-06-22T08:53:04Z</time>
      </trkpt>
      <trkpt lat="45.98452" lon="4.89203">
        <ele>289</ele>
        <time>2017-06-22T08:53:05Z</time>
      </trkpt>
      <trkpt lat="45.98457" lon="4.89211">
        <ele>289</ele>
        <time>2017-06-22T08:53:07Z</time>
      </trkpt>
      <trkpt lat="45.98459" lon="4.89214">
        <ele>289</ele>
        <time>2017-06-22T08:53:08Z</time>
      </trkpt>
      <trkpt lat="45.98464" lon="4.89224">
        <ele>289</ele>
        <time>2017-06-22T08:53:11Z</time>
      </trkpt>
      <trkpt lat="45.98465" lon="4.89227">
        <ele>289</ele>
        <time>2017-06-22T08:53:12Z</time>
      </trkpt>
      <trkpt lat="45.98469" lon="4.89233">
        <ele>289</ele>
        <time>2017-06-22T08:53:14Z</time>
      </trkpt>
      <trkpt lat="45.98471" lon="4.89236">
        <ele>289</ele>
        <time>2017-06-22T08:53:15Z</time>
      </trkpt>
      <trkpt lat="45.98475" lon="4.89246">
        <ele>289</ele>
        <time>2017-06-22T08:53:18Z</time>
      </trkpt>
      <trkpt lat="45.98477" lon="4.89249">
        <ele>289</ele>
        <time>2017-06-22T08:53:19Z</time>
      </trkpt>
      <trkpt lat="45.98482" lon="4.89257">
        <ele>291</ele>
        <time>2017-06-22T08:53:22Z</time>
      </trkpt>
      <trkpt lat="45.98484" lon="4.8926">
        <ele>291</ele>
        <time>2017-06-22T08:53:23Z</time>
      </trkpt>
      <trkpt lat="45.9849" lon="4.89269">
        <ele>292</ele>
        <time>2017-06-22T08:53:26Z</time>
      </trkpt>
      <trkpt lat="45.98492" lon="4.89274">
        <ele>292</ele>
        <time>2017-06-22T08:53:27Z</time>
      </trkpt>
      <trkpt lat="45.98496" lon="4.89281">
        <ele>292</ele>
        <time>2017-06-22T08:53:29Z</time>
      </trkpt>
      <trkpt lat="45.98498" lon="4.89285">
        <ele>292</ele>
        <time>2017-06-22T08:53:30Z</time>
      </trkpt>
      <trkpt lat="45.98501" lon="4.89293">
        <ele>292</ele>
        <time>2017-06-22T08:53:32Z</time>
      </trkpt>
      <trkpt lat="45.98503" lon="4.89297">
        <ele>293</ele>
        <time>2017-06-22T08:53:33Z</time>
      </trkpt>
      <trkpt lat="45.98508" lon="4.89306">
        <ele>293</ele>
        <time>2017-06-22T08:53:35Z</time>
      </trkpt>
      <trkpt lat="45.98511" lon="4.8931">
        <ele>293</ele>
        <time>2017-06-22T08:53:36Z</time>
      </trkpt>
      <trkpt lat="45.98517" lon="4.89317">
        <ele>293</ele>
        <time>2017-06-22T08:53:38Z</time>
      </trkpt>
      <trkpt lat="45.98519" lon="4.8932">
        <ele>293</ele>
        <time>2017-06-22T08:53:39Z</time>
      </trkpt>
      <trkpt lat="45.98524" lon="4.89328">
        <ele>293</ele>
        <time>2017-06-22T08:53:41Z</time>
      </trkpt>
      <trkpt lat="45.98527" lon="4.89332">
        <ele>293</ele>
        <time>2017-06-22T08:53:42Z</time>
      </trkpt>
      <trkpt lat="45.98533" lon="4.89339">
        <ele>295</ele>
        <time>2017-06-22T08:53:44Z</time>
      </trkpt>
      <trkpt lat="45.98535" lon="4.89343">
        <ele>295</ele>
        <time>2017-06-22T08:53:45Z</time>
      </trkpt>
      <trkpt lat="45.9854" lon="4.89349">
        <ele>295</ele>
        <time>2017-06-22T08:53:47Z</time>
      </trkpt>
      <trkpt lat="45.98543" lon="4.89353">
        <ele>295</ele>
        <time>2017-06-22T08:53:48Z</time>
      </trkpt>
      <trkpt lat="45.98548" lon="4.89359">
        <ele>295</ele>
        <time>2017-06-22T08:53:50Z</time>
      </trkpt>
      <trkpt lat="45.98551" lon="4.89363">
        <ele>295</ele>
        <time>2017-06-22T08:53:51Z</time>
      </trkpt>
      <trkpt lat="45.98557" lon="4.89371">
        <ele>295</ele>
        <time>2017-06-22T08:53:53Z</time>
      </trkpt>
      <trkpt lat="45.98559" lon="4.89375">
        <ele>295</ele>
        <time>2017-06-22T08:53:54Z</time>
      </trkpt>
      <trkpt lat="45.98566" lon="4.89383">
        <ele>295</ele>
        <time>2017-06-22T08:53:56Z</time>
      </trkpt>
      <trkpt lat="45.98569" lon="4.89387">
        <ele>295</ele>
        <time>2017-06-22T08:53:57Z</time>
      </trkpt>
      <trkpt lat="45.98575" lon="4.89395">
        <ele>295</ele>
        <time>2017-06-22T08:53:59Z</time>
      </trkpt>
      <trkpt lat="45.98578" lon="4.89399">
        <ele>295</ele>
        <time>2017-06-22T08:54:00Z</time>
      </trkpt>
      <trkpt lat="45.98584" lon="4.89407">
        <ele>293</ele>
        <time>2017-06-22T08:54:02Z</time>
      </trkpt>
      <trkpt lat="45.98588" lon="4.89412">
        <ele>293</ele>
        <time>2017-06-22T08:54:03Z</time>
      </trkpt>
      <trkpt lat="45.98593" lon="4.89416">
        <ele>293</ele>
        <time>2017-06-22T08:54:04Z</time>
      </trkpt>
      <trkpt lat="45.98596" lon="4.8942">
        <ele>293</ele>
        <time>2017-06-22T08:54:05Z</time>
      </trkpt>
      <trkpt lat="45.986" lon="4.89426">
        <ele>292</ele>
        <time>2017-06-22T08:54:06Z</time>
      </trkpt>
      <trkpt lat="45.98605" lon="4.8943">
        <ele>292</ele>
        <time>2017-06-22T08:54:07Z</time>
      </trkpt>
      <trkpt lat="45.9861" lon="4.89435">
        <ele>292</ele>
        <time>2017-06-22T08:54:08Z</time>
      </trkpt>
      <trkpt lat="45.98615" lon="4.8944">
        <ele>292</ele>
        <time>2017-06-22T08:54:09Z</time>
      </trkpt>
      <trkpt lat="45.98619" lon="4.89445">
        <ele>291</ele>
        <time>2017-06-22T08:54:10Z</time>
      </trkpt>
      <trkpt lat="45.98624" lon="4.8945">
        <ele>291</ele>
        <time>2017-06-22T08:54:11Z</time>
      </trkpt>
      <trkpt lat="45.98628" lon="4.89454">
        <ele>291</ele>
        <time>2017-06-22T08:54:12Z</time>
      </trkpt>
      <trkpt lat="45.98632" lon="4.89458">
        <ele>291</ele>
        <time>2017-06-22T08:54:13Z</time>
      </trkpt>
      <trkpt lat="45.98636" lon="4.89462">
        <ele>291</ele>
        <time>2017-06-22T08:54:14Z</time>
      </trkpt>
      <trkpt lat="45.98641" lon="4.89465">
        <ele>291</ele>
        <time>2017-06-22T08:54:15Z</time>
      </trkpt>
      <trkpt lat="45.98647" lon="4.89471">
        <ele>291</ele>
        <time>2017-06-22T08:54:17Z</time>
      </trkpt>
      <trkpt lat="45.9865" lon="4.89473">
        <ele>290</ele>
        <time>2017-06-22T08:54:18Z</time>
      </trkpt>
      <trkpt lat="45.98656" lon="4.8948">
        <ele>290</ele>
        <time>2017-06-22T08:54:20Z</time>
      </trkpt>
      <trkpt lat="45.9866" lon="4.89483">
        <ele>290</ele>
        <time>2017-06-22T08:54:21Z</time>
      </trkpt>
      <trkpt lat="45.98667" lon="4.89491">
        <ele>289</ele>
        <time>2017-06-22T08:54:23Z</time>
      </trkpt>
      <trkpt lat="45.9867" lon="4.89493">
        <ele>289</ele>
        <time>2017-06-22T08:54:24Z</time>
      </trkpt>
      <trkpt lat="45.98676" lon="4.89501">
        <ele>289</ele>
        <time>2017-06-22T08:54:26Z</time>
      </trkpt>
      <trkpt lat="45.9868" lon="4.89505">
        <ele>289</ele>
        <time>2017-06-22T08:54:27Z</time>
      </trkpt>
      <trkpt lat="45.98686" lon="4.89512">
        <ele>289</ele>
        <time>2017-06-22T08:54:29Z</time>
      </trkpt>
      <trkpt lat="45.9869" lon="4.89516">
        <ele>289</ele>
        <time>2017-06-22T08:54:30Z</time>
      </trkpt>
      <trkpt lat="45.98696" lon="4.89525">
        <ele>289</ele>
        <time>2017-06-22T08:54:32Z</time>
      </trkpt>
      <trkpt lat="45.98699" lon="4.89529">
        <ele>289</ele>
        <time>2017-06-22T08:54:33Z</time>
      </trkpt>
      <trkpt lat="45.98702" lon="4.89533">
        <ele>289</ele>
        <time>2017-06-22T08:54:34Z</time>
      </trkpt>
      <trkpt lat="45.98706" lon="4.89538">
        <ele>289</ele>
        <time>2017-06-22T08:54:35Z</time>
      </trkpt>
      <trkpt lat="45.9871" lon="4.89542">
        <ele>290</ele>
        <time>2017-06-22T08:54:36Z</time>
      </trkpt>
      <trkpt lat="45.98713" lon="4.89547">
        <ele>290</ele>
        <time>2017-06-22T08:54:37Z</time>
      </trkpt>
      <trkpt lat="45.98717" lon="4.89552">
        <ele>290</ele>
        <time>2017-06-22T08:54:38Z</time>
      </trkpt>
      <trkpt lat="45.98721" lon="4.89557">
        <ele>290</ele>
        <time>2017-06-22T08:54:39Z</time>
      </trkpt>
      <trkpt lat="45.98725" lon="4.89562">
        <ele>290</ele>
        <time>2017-06-22T08:54:40Z</time>
      </trkpt>
      <trkpt lat="45.98728" lon="4.89567">
        <ele>290</ele>
        <time>2017-06-22T08:54:41Z</time>
      </trkpt>
      <trkpt lat="45.98732" lon="4.89572">
        <ele>290</ele>
        <time>2017-06-22T08:54:42Z</time>
      </trkpt>
      <trkpt lat="45.98735" lon="4.89577">
        <ele>290</ele>
        <time>2017-06-22T08:54:43Z</time>
      </trkpt>
      <trkpt lat="45.98741" lon="4.89586">
        <ele>291</ele>
        <time>2017-06-22T08:54:45Z</time>
      </trkpt>
      <trkpt lat="45.98744" lon="4.8959">
        <ele>291</ele>
        <time>2017-06-22T08:54:46Z</time>
      </trkpt>
      <trkpt lat="45.98748" lon="4.89595">
        <ele>291</ele>
        <time>2017-06-22T08:54:47Z</time>
      </trkpt>
      <trkpt lat="45.98752" lon="4.896">
        <ele>291</ele>
        <time>2017-06-22T08:54:48Z</time>
      </trkpt>
      <trkpt lat="45.98755" lon="4.89605">
        <ele>291</ele>
        <time>2017-06-22T08:54:49Z</time>
      </trkpt>
      <trkpt lat="45.98759" lon="4.8961">
        <ele>291</ele>
        <time>2017-06-22T08:54:50Z</time>
      </trkpt>
      <trkpt lat="45.98765" lon="4.89619">
        <ele>291</ele>
        <time>2017-06-22T08:54:52Z</time>
      </trkpt>
      <trkpt lat="45.98767" lon="4.89624">
        <ele>291</ele>
        <time>2017-06-22T08:54:53Z</time>
      </trkpt>
      <trkpt lat="45.98774" lon="4.89632">
        <ele>291</ele>
        <time>2017-06-22T08:54:55Z</time>
      </trkpt>
      <trkpt lat="45.98777" lon="4.89637">
        <ele>291</ele>
        <time>2017-06-22T08:54:56Z</time>
      </trkpt>
      <trkpt lat="45.98783" lon="4.89646">
        <ele>291</ele>
        <time>2017-06-22T08:54:58Z</time>
      </trkpt>
      <trkpt lat="45.98786" lon="4.8965">
        <ele>291</ele>
        <time>2017-06-22T08:54:59Z</time>
      </trkpt>
      <trkpt lat="45.9879" lon="4.89654">
        <ele>291</ele>
        <time>2017-06-22T08:55:00Z</time>
      </trkpt>
      <trkpt lat="45.98793" lon="4.89659">
        <ele>291</ele>
        <time>2017-06-22T08:55:01Z</time>
      </trkpt>
      <trkpt lat="45.98799" lon="4.89666">
        <ele>291</ele>
        <time>2017-06-22T08:55:03Z</time>
      </trkpt>
      <trkpt lat="45.98803" lon="4.8967">
        <ele>291</ele>
        <time>2017-06-22T08:55:04Z</time>
      </trkpt>
      <trkpt lat="45.98806" lon="4.89674">
        <ele>292</ele>
        <time>2017-06-22T08:55:05Z</time>
      </trkpt>
      <trkpt lat="45.9881" lon="4.89678">
        <ele>292</ele>
        <time>2017-06-22T08:55:06Z</time>
      </trkpt>
      <trkpt lat="45.98814" lon="4.89681">
        <ele>292</ele>
        <time>2017-06-22T08:55:07Z</time>
      </trkpt>
      <trkpt lat="45.98818" lon="4.89685">
        <ele>292</ele>
        <time>2017-06-22T08:55:08Z</time>
      </trkpt>
      <trkpt lat="45.98822" lon="4.89689">
        <ele>292</ele>
        <time>2017-06-22T08:55:09Z</time>
      </trkpt>
      <trkpt lat="45.98826" lon="4.89694">
        <ele>292</ele>
        <time>2017-06-22T08:55:10Z</time>
      </trkpt>
      <trkpt lat="45.98829" lon="4.89697">
        <ele>292</ele>
        <time>2017-06-22T08:55:11Z</time>
      </trkpt>
      <trkpt lat="45.98833" lon="4.89701">
        <ele>292</ele>
        <time>2017-06-22T08:55:12Z</time>
      </trkpt>
      <trkpt lat="45.9884" lon="4.89707">
        <ele>292</ele>
        <time>2017-06-22T08:55:14Z</time>
      </trkpt>
      <trkpt lat="45.98844" lon="4.89711">
        <ele>293</ele>
        <time>2017-06-22T08:55:15Z</time>
      </trkpt>
      <trkpt lat="45.98848" lon="4.89714">
        <ele>293</ele>
        <time>2017-06-22T08:55:16Z</time>
      </trkpt>
      <trkpt lat="45.98852" lon="4.89717">
        <ele>293</ele>
        <time>2017-06-22T08:55:17Z</time>
      </trkpt>
      <trkpt lat="45.98856" lon="4.89721">
        <ele>293</ele>
        <time>2017-06-22T08:55:18Z</time>
      </trkpt>
      <trkpt lat="45.98859" lon="4.89725">
        <ele>293</ele>
        <time>2017-06-22T08:55:19Z</time>
      </trkpt>
      <trkpt lat="45.98863" lon="4.89729">
        <ele>293</ele>
        <time>2017-06-22T08:55:20Z</time>
      </trkpt>
      <trkpt lat="45.98868" lon="4.89732">
        <ele>293</ele>
        <time>2017-06-22T08:55:21Z</time>
      </trkpt>
      <trkpt lat="45.98875" lon="4.89738">
        <ele>293</ele>
        <time>2017-06-22T08:55:23Z</time>
      </trkpt>
      <trkpt lat="45.98879" lon="4.89741">
        <ele>293</ele>
        <time>2017-06-22T08:55:24Z</time>
      </trkpt>
      <trkpt lat="45.98885" lon="4.89746">
        <ele>293</ele>
        <time>2017-06-22T08:55:26Z</time>
      </trkpt>
      <trkpt lat="45.98889" lon="4.89748">
        <ele>293</ele>
        <time>2017-06-22T08:55:27Z</time>
      </trkpt>
      <trkpt lat="45.98896" lon="4.89753">
        <ele>293</ele>
        <time>2017-06-22T08:55:29Z</time>
      </trkpt>
      <trkpt lat="45.989" lon="4.89756">
        <ele>293</ele>
        <time>2017-06-22T08:55:30Z</time>
      </trkpt>
      <trkpt lat="45.98905" lon="4.89758">
        <ele>293</ele>
        <time>2017-06-22T08:55:31Z</time>
      </trkpt>
      <trkpt lat="45.98909" lon="4.89762">
        <ele>293</ele>
        <time>2017-06-22T08:55:32Z</time>
      </trkpt>
      <trkpt lat="45.98913" lon="4.89765">
        <ele>293</ele>
        <time>2017-06-22T08:55:33Z</time>
      </trkpt>
      <trkpt lat="45.98917" lon="4.89768">
        <ele>293</ele>
        <time>2017-06-22T08:55:34Z</time>
      </trkpt>
      <trkpt lat="45.98921" lon="4.89771">
        <ele>293</ele>
        <time>2017-06-22T08:55:35Z</time>
      </trkpt>
      <trkpt lat="45.98925" lon="4.89774">
        <ele>293</ele>
        <time>2017-06-22T08:55:36Z</time>
      </trkpt>
      <trkpt lat="45.98929" lon="4.89777">
        <ele>293</ele>
        <time>2017-06-22T08:55:37Z</time>
      </trkpt>
      <trkpt lat="45.98933" lon="4.8978">
        <ele>293</ele>
        <time>2017-06-22T08:55:38Z</time>
      </trkpt>
      <trkpt lat="45.98937" lon="4.89783">
        <ele>293</ele>
        <time>2017-06-22T08:55:39Z</time>
      </trkpt>
      <trkpt lat="45.98941" lon="4.89786">
        <ele>293</ele>
        <time>2017-06-22T08:55:40Z</time>
      </trkpt>
      <trkpt lat="45.98949" lon="4.89792">
        <ele>293</ele>
        <time>2017-06-22T08:55:42Z</time>
      </trkpt>
      <trkpt lat="45.98953" lon="4.89795">
        <ele>293</ele>
        <time>2017-06-22T08:55:43Z</time>
      </trkpt>
      <trkpt lat="45.9896" lon="4.89802">
        <ele>293</ele>
        <time>2017-06-22T08:55:45Z</time>
      </trkpt>
      <trkpt lat="45.98963" lon="4.89805">
        <ele>293</ele>
        <time>2017-06-22T08:55:46Z</time>
      </trkpt>
      <trkpt lat="45.9897" lon="4.89812">
        <ele>293</ele>
        <time>2017-06-22T08:55:48Z</time>
      </trkpt>
      <trkpt lat="45.98975" lon="4.89816">
        <ele>293</ele>
        <time>2017-06-22T08:55:49Z</time>
      </trkpt>
      <trkpt lat="45.98978" lon="4.8982">
        <ele>293</ele>
        <time>2017-06-22T08:55:50Z</time>
      </trkpt>
      <trkpt lat="45.98982" lon="4.89825">
        <ele>293</ele>
        <time>2017-06-22T08:55:51Z</time>
      </trkpt>
      <trkpt lat="45.98986" lon="4.8983">
        <ele>293</ele>
        <time>2017-06-22T08:55:52Z</time>
      </trkpt>
      <trkpt lat="45.9899" lon="4.89835">
        <ele>293</ele>
        <time>2017-06-22T08:55:53Z</time>
      </trkpt>
      <trkpt lat="45.98993" lon="4.89839">
        <ele>293</ele>
        <time>2017-06-22T08:55:54Z</time>
      </trkpt>
      <trkpt lat="45.98997" lon="4.89843">
        <ele>293</ele>
        <time>2017-06-22T08:55:55Z</time>
      </trkpt>
      <trkpt lat="45.99004" lon="4.89851">
        <ele>293</ele>
        <time>2017-06-22T08:55:57Z</time>
      </trkpt>
      <trkpt lat="45.99007" lon="4.89855">
        <ele>293</ele>
        <time>2017-06-22T08:55:58Z</time>
      </trkpt>
      <trkpt lat="45.99013" lon="4.89864">
        <ele>293</ele>
        <time>2017-06-22T08:56:00Z</time>
      </trkpt>
      <trkpt lat="45.99016" lon="4.89868">
        <ele>293</ele>
        <time>2017-06-22T08:56:01Z</time>
      </trkpt>
      <trkpt lat="45.99022" lon="4.89877">
        <ele>293</ele>
        <time>2017-06-22T08:56:03Z</time>
      </trkpt>
      <trkpt lat="45.99025" lon="4.89882">
        <ele>293</ele>
        <time>2017-06-22T08:56:04Z</time>
      </trkpt>
      <trkpt lat="45.99031" lon="4.89891">
        <ele>293</ele>
        <time>2017-06-22T08:56:06Z</time>
      </trkpt>
      <trkpt lat="45.99034" lon="4.89895">
        <ele>293</ele>
        <time>2017-06-22T08:56:07Z</time>
      </trkpt>
      <trkpt lat="45.99041" lon="4.89903">
        <ele>293</ele>
        <time>2017-06-22T08:56:09Z</time>
      </trkpt>
      <trkpt lat="45.99044" lon="4.89907">
        <ele>293</ele>
        <time>2017-06-22T08:56:10Z</time>
      </trkpt>
      <trkpt lat="45.99047" lon="4.89912">
        <ele>293</ele>
        <time>2017-06-22T08:56:11Z</time>
      </trkpt>
      <trkpt lat="45.9905" lon="4.89916">
        <ele>293</ele>
        <time>2017-06-22T08:56:12Z</time>
      </trkpt>
      <trkpt lat="45.99054" lon="4.89921">
        <ele>294</ele>
        <time>2017-06-22T08:56:13Z</time>
      </trkpt>
      <trkpt lat="45.99058" lon="4.89926">
        <ele>294</ele>
        <time>2017-06-22T08:56:14Z</time>
      </trkpt>
      <trkpt lat="45.99061" lon="4.89931">
        <ele>294</ele>
        <time>2017-06-22T08:56:15Z</time>
      </trkpt>
      <trkpt lat="45.99065" lon="4.89936">
        <ele>294</ele>
        <time>2017-06-22T08:56:16Z</time>
      </trkpt>
      <trkpt lat="45.99069" lon="4.89941">
        <ele>294</ele>
        <time>2017-06-22T08:56:17Z</time>
      </trkpt>
      <trkpt lat="45.99072" lon="4.89947">
        <ele>294</ele>
        <time>2017-06-22T08:56:18Z</time>
      </trkpt>
      <trkpt lat="45.99076" lon="4.89952">
        <ele>294</ele>
        <time>2017-06-22T08:56:19Z</time>
      </trkpt>
      <trkpt lat="45.99079" lon="4.89957">
        <ele>294</ele>
        <time>2017-06-22T08:56:20Z</time>
      </trkpt>
      <trkpt lat="45.99082" lon="4.89961">
        <ele>294</ele>
        <time>2017-06-22T08:56:21Z</time>
      </trkpt>
      <trkpt lat="45.99085" lon="4.89966">
        <ele>295</ele>
        <time>2017-06-22T08:56:22Z</time>
      </trkpt>
      <trkpt lat="45.99091" lon="4.89976">
        <ele>295</ele>
        <time>2017-06-22T08:56:24Z</time>
      </trkpt>
      <trkpt lat="45.99094" lon="4.89979">
        <ele>295</ele>
        <time>2017-06-22T08:56:25Z</time>
      </trkpt>
      <trkpt lat="45.99101" lon="4.89986">
        <ele>295</ele>
        <time>2017-06-22T08:56:27Z</time>
      </trkpt>
      <trkpt lat="45.99104" lon="4.8999">
        <ele>295</ele>
        <time>2017-06-22T08:56:28Z</time>
      </trkpt>
      <trkpt lat="45.99109" lon="4.89999">
        <ele>295</ele>
        <time>2017-06-22T08:56:30Z</time>
      </trkpt>
      <trkpt lat="45.99113" lon="4.90003">
        <ele>296</ele>
        <time>2017-06-22T08:56:31Z</time>
      </trkpt>
      <trkpt lat="45.9912" lon="4.90011">
        <ele>296</ele>
        <time>2017-06-22T08:56:33Z</time>
      </trkpt>
      <trkpt lat="45.99123" lon="4.90015">
        <ele>296</ele>
        <time>2017-06-22T08:56:34Z</time>
      </trkpt>
      <trkpt lat="45.99127" lon="4.90019">
        <ele>296</ele>
        <time>2017-06-22T08:56:35Z</time>
      </trkpt>
      <trkpt lat="45.9913" lon="4.90024">
        <ele>296</ele>
        <time>2017-06-22T08:56:36Z</time>
      </trkpt>
      <trkpt lat="45.99134" lon="4.90028">
        <ele>297</ele>
        <time>2017-06-22T08:56:37Z</time>
      </trkpt>
      <trkpt lat="45.99138" lon="4.90033">
        <ele>297</ele>
        <time>2017-06-22T08:56:38Z</time>
      </trkpt>
      <trkpt lat="45.99142" lon="4.90038">
        <ele>297</ele>
        <time>2017-06-22T08:56:39Z</time>
      </trkpt>
      <trkpt lat="45.99145" lon="4.90042">
        <ele>297</ele>
        <time>2017-06-22T08:56:40Z</time>
      </trkpt>
      <trkpt lat="45.99149" lon="4.90047">
        <ele>297</ele>
        <time>2017-06-22T08:56:41Z</time>
      </trkpt>
      <trkpt lat="45.99152" lon="4.90051">
        <ele>297</ele>
        <time>2017-06-22T08:56:42Z</time>
      </trkpt>
      <trkpt lat="45.99156" lon="4.90055">
        <ele>297</ele>
        <time>2017-06-22T08:56:43Z</time>
      </trkpt>
      <trkpt lat="45.99159" lon="4.9006">
        <ele>297</ele>
        <time>2017-06-22T08:56:44Z</time>
      </trkpt>
      <trkpt lat="45.99163" lon="4.90064">
        <ele>297</ele>
        <time>2017-06-22T08:56:45Z</time>
      </trkpt>
      <trkpt lat="45.99166" lon="4.90068">
        <ele>297</ele>
        <time>2017-06-22T08:56:46Z</time>
      </trkpt>
      <trkpt lat="45.99169" lon="4.90073">
        <ele>297</ele>
        <time>2017-06-22T08:56:47Z</time>
      </trkpt>
      <trkpt lat="45.99173" lon="4.90078">
        <ele>298</ele>
        <time>2017-06-22T08:56:48Z</time>
      </trkpt>
      <trkpt lat="45.99176" lon="4.90083">
        <ele>298</ele>
        <time>2017-06-22T08:56:49Z</time>
      </trkpt>
      <trkpt lat="45.9918" lon="4.90089">
        <ele>297</ele>
        <time>2017-06-22T08:56:50Z</time>
      </trkpt>
      <trkpt lat="45.99183" lon="4.90094">
        <ele>297</ele>
        <time>2017-06-22T08:56:51Z</time>
      </trkpt>
      <trkpt lat="45.99186" lon="4.90099">
        <ele>297</ele>
        <time>2017-06-22T08:56:52Z</time>
      </trkpt>
      <trkpt lat="45.9919" lon="4.90104">
        <ele>297</ele>
        <time>2017-06-22T08:56:53Z</time>
      </trkpt>
      <trkpt lat="45.99193" lon="4.90109">
        <ele>297</ele>
        <time>2017-06-22T08:56:54Z</time>
      </trkpt>
      <trkpt lat="45.99197" lon="4.90113">
        <ele>297</ele>
        <time>2017-06-22T08:56:55Z</time>
      </trkpt>
      <trkpt lat="45.992" lon="4.90118">
        <ele>297</ele>
        <time>2017-06-22T08:56:56Z</time>
      </trkpt>
      <trkpt lat="45.99204" lon="4.90123">
        <ele>297</ele>
        <time>2017-06-22T08:56:57Z</time>
      </trkpt>
      <trkpt lat="45.99208" lon="4.90128">
        <ele>297</ele>
        <time>2017-06-22T08:56:58Z</time>
      </trkpt>
      <trkpt lat="45.99211" lon="4.90133">
        <ele>297</ele>
        <time>2017-06-22T08:56:59Z</time>
      </trkpt>
      <trkpt lat="45.99214" lon="4.90138">
        <ele>297</ele>
        <time>2017-06-22T08:57:00Z</time>
      </trkpt>
      <trkpt lat="45.9922" lon="4.90146">
        <ele>297</ele>
        <time>2017-06-22T08:57:02Z</time>
      </trkpt>
      <trkpt lat="45.99223" lon="4.9015">
        <ele>297</ele>
        <time>2017-06-22T08:57:03Z</time>
      </trkpt>
      <trkpt lat="45.99229" lon="4.90158">
        <ele>297</ele>
        <time>2017-06-22T08:57:05Z</time>
      </trkpt>
      <trkpt lat="45.99232" lon="4.90162">
        <ele>297</ele>
        <time>2017-06-22T08:57:06Z</time>
      </trkpt>
      <trkpt lat="45.99238" lon="4.90171">
        <ele>297</ele>
        <time>2017-06-22T08:57:08Z</time>
      </trkpt>
      <trkpt lat="45.99241" lon="4.90175">
        <ele>297</ele>
        <time>2017-06-22T08:57:09Z</time>
      </trkpt>
      <trkpt lat="45.99245" lon="4.9018">
        <ele>297</ele>
        <time>2017-06-22T08:57:10Z</time>
      </trkpt>
      <trkpt lat="45.99248" lon="4.90184">
        <ele>297</ele>
        <time>2017-06-22T08:57:11Z</time>
      </trkpt>
      <trkpt lat="45.99254" lon="4.90193">
        <ele>298</ele>
        <time>2017-06-22T08:57:13Z</time>
      </trkpt>
      <trkpt lat="45.99257" lon="4.90198">
        <ele>298</ele>
        <time>2017-06-22T08:57:14Z</time>
      </trkpt>
      <trkpt lat="45.99261" lon="4.90203">
        <ele>298</ele>
        <time>2017-06-22T08:57:15Z</time>
      </trkpt>
      <trkpt lat="45.99265" lon="4.90208">
        <ele>298</ele>
        <time>2017-06-22T08:57:16Z</time>
      </trkpt>
      <trkpt lat="45.99269" lon="4.90214">
        <ele>298</ele>
        <time>2017-06-22T08:57:17Z</time>
      </trkpt>
      <trkpt lat="45.99273" lon="4.90219">
        <ele>298</ele>
        <time>2017-06-22T08:57:18Z</time>
      </trkpt>
      <trkpt lat="45.99277" lon="4.90224">
        <ele>298</ele>
        <time>2017-06-22T08:57:19Z</time>
      </trkpt>
      <trkpt lat="45.99281" lon="4.90229">
        <ele>298</ele>
        <time>2017-06-22T08:57:20Z</time>
      </trkpt>
      <trkpt lat="45.99284" lon="4.90234">
        <ele>298</ele>
        <time>2017-06-22T08:57:21Z</time>
      </trkpt>
      <trkpt lat="45.99288" lon="4.90239">
        <ele>298</ele>
        <time>2017-06-22T08:57:22Z</time>
      </trkpt>
      <trkpt lat="45.99292" lon="4.90245">
        <ele>298</ele>
        <time>2017-06-22T08:57:23Z</time>
      </trkpt>
      <trkpt lat="45.99295" lon="4.9025">
        <ele>298</ele>
        <time>2017-06-22T08:57:24Z</time>
      </trkpt>
      <trkpt lat="45.99299" lon="4.90254">
        <ele>299</ele>
        <time>2017-06-22T08:57:25Z</time>
      </trkpt>
      <trkpt lat="45.99302" lon="4.90259">
        <ele>299</ele>
        <time>2017-06-22T08:57:26Z</time>
      </trkpt>
      <trkpt lat="45.99307" lon="4.90267">
        <ele>299</ele>
        <time>2017-06-22T08:57:28Z</time>
      </trkpt>
      <trkpt lat="45.99309" lon="4.90271">
        <ele>299</ele>
        <time>2017-06-22T08:57:29Z</time>
      </trkpt>
      <trkpt lat="45.9931" lon="4.90283">
        <ele>299</ele>
        <time>2017-06-22T08:57:32Z</time>
      </trkpt>
      <trkpt lat="45.99312" lon="4.90286">
        <ele>299</ele>
        <time>2017-06-22T08:57:33Z</time>
      </trkpt>
      <trkpt lat="45.99318" lon="4.90292">
        <ele>299</ele>
        <time>2017-06-22T08:57:35Z</time>
      </trkpt>
      <trkpt lat="45.99323" lon="4.90294">
        <ele>299</ele>
        <time>2017-06-22T08:57:36Z</time>
      </trkpt>
      <trkpt lat="45.99332" lon="4.90295">
        <ele>299</ele>
        <time>2017-06-22T08:57:38Z</time>
      </trkpt>
      <trkpt lat="45.99336" lon="4.90295">
        <ele>300</ele>
        <time>2017-06-22T08:57:39Z</time>
      </trkpt>
      <trkpt lat="45.99344" lon="4.90298">
        <ele>300</ele>
        <time>2017-06-22T08:57:41Z</time>
      </trkpt>
      <trkpt lat="45.99348" lon="4.90298">
        <ele>300</ele>
        <time>2017-06-22T08:57:42Z</time>
      </trkpt>
      <trkpt lat="45.99356" lon="4.90299">
        <ele>300</ele>
        <time>2017-06-22T08:57:44Z</time>
      </trkpt>
      <trkpt lat="45.99361" lon="4.90299">
        <ele>300</ele>
        <time>2017-06-22T08:57:45Z</time>
      </trkpt>
      <trkpt lat="45.99365" lon="4.903">
        <ele>300</ele>
        <time>2017-06-22T08:57:46Z</time>
      </trkpt>
      <trkpt lat="45.9937" lon="4.903">
        <ele>300</ele>
        <time>2017-06-22T08:57:47Z</time>
      </trkpt>
      <trkpt lat="45.99375" lon="4.90301">
        <ele>300</ele>
        <time>2017-06-22T08:57:48Z</time>
      </trkpt>
      <trkpt lat="45.9938" lon="4.90301">
        <ele>300</ele>
        <time>2017-06-22T08:57:49Z</time>
      </trkpt>
      <trkpt lat="45.99385" lon="4.90302">
        <ele>300</ele>
        <time>2017-06-22T08:57:50Z</time>
      </trkpt>
      <trkpt lat="45.9939" lon="4.90303">
        <ele>300</ele>
        <time>2017-06-22T08:57:51Z</time>
      </trkpt>
      <trkpt lat="45.99394" lon="4.90303">
        <ele>300</ele>
        <time>2017-06-22T08:57:52Z</time>
      </trkpt>
      <trkpt lat="45.99399" lon="4.90303">
        <ele>300</ele>
        <time>2017-06-22T08:57:53Z</time>
      </trkpt>
      <trkpt lat="45.99407" lon="4.90303">
        <ele>300</ele>
        <time>2017-06-22T08:57:55Z</time>
      </trkpt>
      <trkpt lat="45.99411" lon="4.90304">
        <ele>300</ele>
        <time>2017-06-22T08:57:56Z</time>
      </trkpt>
      <trkpt lat="45.9942" lon="4.90305">
        <ele>300</ele>
        <time>2017-06-22T08:57:58Z</time>
      </trkpt>
      <trkpt lat="45.99424" lon="4.90307">
        <ele>300</ele>
        <time>2017-06-22T08:57:59Z</time>
      </trkpt>
      <trkpt lat="45.99432" lon="4.90308">
        <ele>300</ele>
        <time>2017-06-22T08:58:01Z</time>
      </trkpt>
      <trkpt lat="45.99437" lon="4.90308">
        <ele>300</ele>
        <time>2017-06-22T08:58:02Z</time>
      </trkpt>
      <trkpt lat="45.99442" lon="4.90309">
        <ele>300</ele>
        <time>2017-06-22T08:58:03Z</time>
      </trkpt>
      <trkpt lat="45.99446" lon="4.90309">
        <ele>300</ele>
        <time>2017-06-22T08:58:04Z</time>
      </trkpt>
      <trkpt lat="45.99451" lon="4.9031">
        <ele>300</ele>
        <time>2017-06-22T08:58:05Z</time>
      </trkpt>
      <trkpt lat="45.99456" lon="4.90311">
        <ele>300</ele>
        <time>2017-06-22T08:58:06Z</time>
      </trkpt>
      <trkpt lat="45.99461" lon="4.90312">
        <ele>300</ele>
        <time>2017-06-22T08:58:07Z</time>
      </trkpt>
      <trkpt lat="45.99465" lon="4.90312">
        <ele>300</ele>
        <time>2017-06-22T08:58:08Z</time>
      </trkpt>
      <trkpt lat="45.99474" lon="4.90313">
        <ele>300</ele>
        <time>2017-06-22T08:58:10Z</time>
      </trkpt>
      <trkpt lat="45.99478" lon="4.90314">
        <ele>300</ele>
        <time>2017-06-22T08:58:11Z</time>
      </trkpt>
      <trkpt lat="45.99483" lon="4.90314">
        <ele>300</ele>
        <time>2017-06-22T08:58:12Z</time>
      </trkpt>
      <trkpt lat="45.99488" lon="4.90315">
        <ele>300</ele>
        <time>2017-06-22T08:58:13Z</time>
      </trkpt>
      <trkpt lat="45.99494" lon="4.90315">
        <ele>300</ele>
        <time>2017-06-22T08:58:14Z</time>
      </trkpt>
      <trkpt lat="45.995" lon="4.90315">
        <ele>301</ele>
        <time>2017-06-22T08:58:15Z</time>
      </trkpt>
      <trkpt lat="45.99507" lon="4.90316">
        <ele>301</ele>
        <time>2017-06-22T08:58:16Z</time>
      </trkpt>
      <trkpt lat="45.99513" lon="4.90316">
        <ele>301</ele>
        <time>2017-06-22T08:58:17Z</time>
      </trkpt>
      <trkpt lat="45.99518" lon="4.90316">
        <ele>301</ele>
        <time>2017-06-22T08:58:18Z</time>
      </trkpt>
      <trkpt lat="45.99523" lon="4.90316">
        <ele>300</ele>
        <time>2017-06-22T08:58:19Z</time>
      </trkpt>
      <trkpt lat="45.99532" lon="4.90318">
        <ele>300</ele>
        <time>2017-06-22T08:58:21Z</time>
      </trkpt>
      <trkpt lat="45.99536" lon="4.90319">
        <ele>300</ele>
        <time>2017-06-22T08:58:22Z</time>
      </trkpt>
      <trkpt lat="45.99542" lon="4.90322">
        <ele>300</ele>
        <time>2017-06-22T08:58:24Z</time>
      </trkpt>
      <trkpt lat="45.99546" lon="4.90323">
        <ele>300</ele>
        <time>2017-06-22T08:58:25Z</time>
      </trkpt>
      <trkpt lat="45.99552" lon="4.90326">
        <ele>301</ele>
        <time>2017-06-22T08:58:27Z</time>
      </trkpt>
      <trkpt lat="45.99556" lon="4.90326">
        <ele>301</ele>
        <time>2017-06-22T08:58:28Z</time>
      </trkpt>
      <trkpt lat="45.99563" lon="4.90327">
        <ele>301</ele>
        <time>2017-06-22T08:58:30Z</time>
      </trkpt>
      <trkpt lat="45.99568" lon="4.90328">
        <ele>301</ele>
        <time>2017-06-22T08:58:31Z</time>
      </trkpt>
      <trkpt lat="45.99574" lon="4.9033">
        <ele>301</ele>
        <time>2017-06-22T08:58:32Z</time>
      </trkpt>
      <trkpt lat="45.99579" lon="4.90329">
        <ele>301</ele>
        <time>2017-06-22T08:58:33Z</time>
      </trkpt>
      <trkpt lat="45.99583" lon="4.90329">
        <ele>301</ele>
        <time>2017-06-22T08:58:34Z</time>
      </trkpt>
      <trkpt lat="45.99588" lon="4.90329">
        <ele>301</ele>
        <time>2017-06-22T08:58:35Z</time>
      </trkpt>
      <trkpt lat="45.99596" lon="4.90328">
        <ele>301</ele>
        <time>2017-06-22T08:58:37Z</time>
      </trkpt>
      <trkpt lat="45.996" lon="4.90328">
        <ele>301</ele>
        <time>2017-06-22T08:58:38Z</time>
      </trkpt>
      <trkpt lat="45.99609" lon="4.90328">
        <ele>301</ele>
        <time>2017-06-22T08:58:40Z</time>
      </trkpt>
      <trkpt lat="45.99613" lon="4.90329">
        <ele>302</ele>
        <time>2017-06-22T08:58:41Z</time>
      </trkpt>
      <trkpt lat="45.99622" lon="4.9033">
        <ele>302</ele>
        <time>2017-06-22T08:58:43Z</time>
      </trkpt>
      <trkpt lat="45.99626" lon="4.9033">
        <ele>302</ele>
        <time>2017-06-22T08:58:44Z</time>
      </trkpt>
      <trkpt lat="45.99634" lon="4.9033">
        <ele>302</ele>
        <time>2017-06-22T08:58:46Z</time>
      </trkpt>
      <trkpt lat="45.99638" lon="4.9033">
        <ele>302</ele>
        <time>2017-06-22T08:58:47Z</time>
      </trkpt>
      <trkpt lat="45.99644" lon="4.90331">
        <ele>302</ele>
        <time>2017-06-22T08:58:49Z</time>
      </trkpt>
      <trkpt lat="45.99647" lon="4.90331">
        <ele>302</ele>
        <time>2017-06-22T08:58:50Z</time>
      </trkpt>
      <trkpt lat="45.99655" lon="4.9033">
        <ele>302</ele>
        <time>2017-06-22T08:58:53Z</time>
      </trkpt>
      <trkpt lat="45.99658" lon="4.9033">
        <ele>302</ele>
        <time>2017-06-22T08:58:54Z</time>
      </trkpt>
      <trkpt lat="45.99666" lon="4.90327">
        <ele>302</ele>
        <time>2017-06-22T08:58:57Z</time>
      </trkpt>
      <trkpt lat="45.99667" lon="4.90324">
        <ele>303</ele>
        <time>2017-06-22T08:58:58Z</time>
      </trkpt>
      <trkpt lat="45.99669" lon="4.90312">
        <ele>304</ele>
        <time>2017-06-22T08:59:01Z</time>
      </trkpt>
      <trkpt lat="45.9967" lon="4.90307">
        <ele>304</ele>
        <time>2017-06-22T08:59:02Z</time>
      </trkpt>
      <trkpt lat="45.99671" lon="4.90298">
        <ele>304</ele>
        <time>2017-06-22T08:59:04Z</time>
      </trkpt>
      <trkpt lat="45.99672" lon="4.90293">
        <ele>304</ele>
        <time>2017-06-22T08:59:05Z</time>
      </trkpt>
      <trkpt lat="45.99674" lon="4.90283">
        <ele>304</ele>
        <time>2017-06-22T08:59:07Z</time>
      </trkpt>
      <trkpt lat="45.99675" lon="4.90278">
        <ele>304</ele>
        <time>2017-06-22T08:59:08Z</time>
      </trkpt>
      <trkpt lat="45.99678" lon="4.90267">
        <ele>304</ele>
        <time>2017-06-22T08:59:10Z</time>
      </trkpt>
      <trkpt lat="45.99679" lon="4.90262">
        <ele>304</ele>
        <time>2017-06-22T08:59:11Z</time>
      </trkpt>
      <trkpt lat="45.99678" lon="4.90252">
        <ele>304</ele>
        <time>2017-06-22T08:59:13Z</time>
      </trkpt>
      <trkpt lat="45.99677" lon="4.90247">
        <ele>304</ele>
        <time>2017-06-22T08:59:14Z</time>
      </trkpt>
      <trkpt lat="45.99675" lon="4.90236">
        <ele>304</ele>
        <time>2017-06-22T08:59:16Z</time>
      </trkpt>
      <trkpt lat="45.99674" lon="4.9023">
        <ele>304</ele>
        <time>2017-06-22T08:59:17Z</time>
      </trkpt>
      <trkpt lat="45.99672" lon="4.90218">
        <ele>303</ele>
        <time>2017-06-22T08:59:19Z</time>
      </trkpt>
      <trkpt lat="45.99672" lon="4.90211">
        <ele>303</ele>
        <time>2017-06-22T08:59:20Z</time>
      </trkpt>
      <trkpt lat="45.99671" lon="4.90203">
        <ele>303</ele>
        <time>2017-06-22T08:59:21Z</time>
      </trkpt>
      <trkpt lat="45.99669" lon="4.90195">
        <ele>303</ele>
        <time>2017-06-22T08:59:22Z</time>
      </trkpt>
      <trkpt lat="45.99667" lon="4.90186">
        <ele>302</ele>
        <time>2017-06-22T08:59:23Z</time>
      </trkpt>
      <trkpt lat="45.99666" lon="4.90177">
        <ele>301</ele>
        <time>2017-06-22T08:59:24Z</time>
      </trkpt>
      <trkpt lat="45.99665" lon="4.90168">
        <ele>301</ele>
        <time>2017-06-22T08:59:25Z</time>
      </trkpt>
      <trkpt lat="45.99663" lon="4.90157">
        <ele>300</ele>
        <time>2017-06-22T08:59:26Z</time>
      </trkpt>
      <trkpt lat="45.99662" lon="4.90146">
        <ele>300</ele>
        <time>2017-06-22T08:59:27Z</time>
      </trkpt>
      <trkpt lat="45.99659" lon="4.90134">
        <ele>299</ele>
        <time>2017-06-22T08:59:28Z</time>
      </trkpt>
      <trkpt lat="45.99656" lon="4.90122">
        <ele>299</ele>
        <time>2017-06-22T08:59:29Z</time>
      </trkpt>
      <trkpt lat="45.99654" lon="4.9011">
        <ele>299</ele>
        <time>2017-06-22T08:59:30Z</time>
      </trkpt>
      <trkpt lat="45.99652" lon="4.90099">
        <ele>299</ele>
        <time>2017-06-22T08:59:31Z</time>
      </trkpt>
      <trkpt lat="45.99649" lon="4.90087">
        <ele>298</ele>
        <time>2017-06-22T08:59:32Z</time>
      </trkpt>
      <trkpt lat="45.99646" lon="4.90076">
        <ele>297</ele>
        <time>2017-06-22T08:59:33Z</time>
      </trkpt>
      <trkpt lat="45.99643" lon="4.90066">
        <ele>297</ele>
        <time>2017-06-22T08:59:34Z</time>
      </trkpt>
      <trkpt lat="45.99641" lon="4.90055">
        <ele>297</ele>
        <time>2017-06-22T08:59:35Z</time>
      </trkpt>
      <trkpt lat="45.99636" lon="4.90045">
        <ele>297</ele>
        <time>2017-06-22T08:59:36Z</time>
      </trkpt>
      <trkpt lat="45.99632" lon="4.90035">
        <ele>296</ele>
        <time>2017-06-22T08:59:37Z</time>
      </trkpt>
      <trkpt lat="45.99627" lon="4.90025">
        <ele>296</ele>
        <time>2017-06-22T08:59:38Z</time>
      </trkpt>
      <trkpt lat="45.99624" lon="4.90015">
        <ele>296</ele>
        <time>2017-06-22T08:59:39Z</time>
      </trkpt>
      <trkpt lat="45.99622" lon="4.90004">
        <ele>296</ele>
        <time>2017-06-22T08:59:40Z</time>
      </trkpt>
      <trkpt lat="45.99619" lon="4.89993">
        <ele>294</ele>
        <time>2017-06-22T08:59:41Z</time>
      </trkpt>
      <trkpt lat="45.99617" lon="4.89982">
        <ele>294</ele>
        <time>2017-06-22T08:59:42Z</time>
      </trkpt>
      <trkpt lat="45.99615" lon="4.8997">
        <ele>294</ele>
        <time>2017-06-22T08:59:43Z</time>
      </trkpt>
      <trkpt lat="45.99614" lon="4.89958">
        <ele>294</ele>
        <time>2017-06-22T08:59:44Z</time>
      </trkpt>
      <trkpt lat="45.99613" lon="4.89947">
        <ele>294</ele>
        <time>2017-06-22T08:59:45Z</time>
      </trkpt>
      <trkpt lat="45.99612" lon="4.89936">
        <ele>293</ele>
        <time>2017-06-22T08:59:46Z</time>
      </trkpt>
      <trkpt lat="45.99611" lon="4.89925">
        <ele>293</ele>
        <time>2017-06-22T08:59:47Z</time>
      </trkpt>
      <trkpt lat="45.99611" lon="4.89914">
        <ele>292</ele>
        <time>2017-06-22T08:59:48Z</time>
      </trkpt>
      <trkpt lat="45.99611" lon="4.89903">
        <ele>292</ele>
        <time>2017-06-22T08:59:49Z</time>
      </trkpt>
      <trkpt lat="45.99611" lon="4.89892">
        <ele>292</ele>
        <time>2017-06-22T08:59:50Z</time>
      </trkpt>
      <trkpt lat="45.99611" lon="4.89881">
        <ele>292</ele>
        <time>2017-06-22T08:59:51Z</time>
      </trkpt>
      <trkpt lat="45.99611" lon="4.8987">
        <ele>293</ele>
        <time>2017-06-22T08:59:52Z</time>
      </trkpt>
      <trkpt lat="45.99611" lon="4.8986">
        <ele>293</ele>
        <time>2017-06-22T08:59:53Z</time>
      </trkpt>
      <trkpt lat="45.9961" lon="4.89851">
        <ele>293</ele>
        <time>2017-06-22T08:59:54Z</time>
      </trkpt>
      <trkpt lat="45.99611" lon="4.89842">
        <ele>293</ele>
        <time>2017-06-22T08:59:55Z</time>
      </trkpt>
      <trkpt lat="45.99611" lon="4.89833">
        <ele>292</ele>
        <time>2017-06-22T08:59:56Z</time>
      </trkpt>
      <trkpt lat="45.9961" lon="4.89823">
        <ele>292</ele>
        <time>2017-06-22T08:59:57Z</time>
      </trkpt>
      <trkpt lat="45.9961" lon="4.89814">
        <ele>292</ele>
        <time>2017-06-22T08:59:58Z</time>
      </trkpt>
      <trkpt lat="45.9961" lon="4.89805">
        <ele>292</ele>
        <time>2017-06-22T08:59:59Z</time>
      </trkpt>
      <trkpt lat="45.99609" lon="4.89796">
        <ele>292</ele>
        <time>2017-06-22T09:00:00Z</time>
      </trkpt>
      <trkpt lat="45.99609" lon="4.89787">
        <ele>292</ele>
        <time>2017-06-22T09:00:01Z</time>
      </trkpt>
      <trkpt lat="45.99609" lon="4.89778">
        <ele>292</ele>
        <time>2017-06-22T09:00:02Z</time>
      </trkpt>
      <trkpt lat="45.99608" lon="4.89769">
        <ele>292</ele>
        <time>2017-06-22T09:00:03Z</time>
      </trkpt>
      <trkpt lat="45.99608" lon="4.8976">
        <ele>292</ele>
        <time>2017-06-22T09:00:04Z</time>
      </trkpt>
      <trkpt lat="45.99608" lon="4.89751">
        <ele>292</ele>
        <time>2017-06-22T09:00:05Z</time>
      </trkpt>
      <trkpt lat="45.99609" lon="4.89741">
        <ele>292</ele>
        <time>2017-06-22T09:00:06Z</time>
      </trkpt>
      <trkpt lat="45.99609" lon="4.89732">
        <ele>292</ele>
        <time>2017-06-22T09:00:07Z</time>
      </trkpt>
      <trkpt lat="45.99609" lon="4.89724">
        <ele>292</ele>
        <time>2017-06-22T09:00:08Z</time>
      </trkpt>
      <trkpt lat="45.9961" lon="4.89713">
        <ele>291</ele>
        <time>2017-06-22T09:00:09Z</time>
      </trkpt>
      <trkpt lat="45.99611" lon="4.89704">
        <ele>291</ele>
        <time>2017-06-22T09:00:10Z</time>
      </trkpt>
      <trkpt lat="45.99611" lon="4.89696">
        <ele>291</ele>
        <time>2017-06-22T09:00:11Z</time>
      </trkpt>
      <trkpt lat="45.99611" lon="4.89686">
        <ele>291</ele>
        <time>2017-06-22T09:00:12Z</time>
      </trkpt>
      <trkpt lat="45.99611" lon="4.89677">
        <ele>291</ele>
        <time>2017-06-22T09:00:13Z</time>
      </trkpt>
      <trkpt lat="45.99611" lon="4.89668">
        <ele>291</ele>
        <time>2017-06-22T09:00:14Z</time>
      </trkpt>
      <trkpt lat="45.99611" lon="4.8966">
        <ele>291</ele>
        <time>2017-06-22T09:00:15Z</time>
      </trkpt>
      <trkpt lat="45.99611" lon="4.89651">
        <ele>291</ele>
        <time>2017-06-22T09:00:16Z</time>
      </trkpt>
      <trkpt lat="45.99611" lon="4.89643">
        <ele>291</ele>
        <time>2017-06-22T09:00:17Z</time>
      </trkpt>
      <trkpt lat="45.99611" lon="4.89634">
        <ele>291</ele>
        <time>2017-06-22T09:00:18Z</time>
      </trkpt>
      <trkpt lat="45.99611" lon="4.89626">
        <ele>291</ele>
        <time>2017-06-22T09:00:19Z</time>
      </trkpt>
      <trkpt lat="45.99611" lon="4.89618">
        <ele>291</ele>
        <time>2017-06-22T09:00:20Z</time>
      </trkpt>
      <trkpt lat="45.99611" lon="4.8961">
        <ele>291</ele>
        <time>2017-06-22T09:00:21Z</time>
      </trkpt>
      <trkpt lat="45.9961" lon="4.89603">
        <ele>291</ele>
        <time>2017-06-22T09:00:22Z</time>
      </trkpt>
      <trkpt lat="45.9961" lon="4.89596">
        <ele>291</ele>
        <time>2017-06-22T09:00:23Z</time>
      </trkpt>
      <trkpt lat="45.99609" lon="4.89588">
        <ele>292</ele>
        <time>2017-06-22T09:00:24Z</time>
      </trkpt>
      <trkpt lat="45.99609" lon="4.89581">
        <ele>291</ele>
        <time>2017-06-22T09:00:25Z</time>
      </trkpt>
      <trkpt lat="45.99608" lon="4.89574">
        <ele>291</ele>
        <time>2017-06-22T09:00:26Z</time>
      </trkpt>
      <trkpt lat="45.99608" lon="4.89567">
        <ele>291</ele>
        <time>2017-06-22T09:00:27Z</time>
      </trkpt>
      <trkpt lat="45.99608" lon="4.89559">
        <ele>291</ele>
        <time>2017-06-22T09:00:28Z</time>
      </trkpt>
      <trkpt lat="45.99607" lon="4.89552">
        <ele>291</ele>
        <time>2017-06-22T09:00:29Z</time>
      </trkpt>
      <trkpt lat="45.99606" lon="4.89544">
        <ele>291</ele>
        <time>2017-06-22T09:00:30Z</time>
      </trkpt>
      <trkpt lat="45.99604" lon="4.89535">
        <ele>291</ele>
        <time>2017-06-22T09:00:31Z</time>
      </trkpt>
      <trkpt lat="45.99603" lon="4.89527">
        <ele>291</ele>
        <time>2017-06-22T09:00:32Z</time>
      </trkpt>
      <trkpt lat="45.99602" lon="4.89518">
        <ele>291</ele>
        <time>2017-06-22T09:00:33Z</time>
      </trkpt>
      <trkpt lat="45.99601" lon="4.8951">
        <ele>290</ele>
        <time>2017-06-22T09:00:34Z</time>
      </trkpt>
      <trkpt lat="45.99601" lon="4.89501">
        <ele>290</ele>
        <time>2017-06-22T09:00:35Z</time>
      </trkpt>
      <trkpt lat="45.996" lon="4.89494">
        <ele>290</ele>
        <time>2017-06-22T09:00:36Z</time>
      </trkpt>
      <trkpt lat="45.996" lon="4.89486">
        <ele>290</ele>
        <time>2017-06-22T09:00:37Z</time>
      </trkpt>
      <trkpt lat="45.996" lon="4.89479">
        <ele>290</ele>
        <time>2017-06-22T09:00:38Z</time>
      </trkpt>
      <trkpt lat="45.99599" lon="4.89471">
        <ele>290</ele>
        <time>2017-06-22T09:00:39Z</time>
      </trkpt>
      <trkpt lat="45.99599" lon="4.89464">
        <ele>290</ele>
        <time>2017-06-22T09:00:40Z</time>
      </trkpt>
      <trkpt lat="45.99598" lon="4.89456">
        <ele>290</ele>
        <time>2017-06-22T09:00:41Z</time>
      </trkpt>
      <trkpt lat="45.99598" lon="4.89447">
        <ele>290</ele>
        <time>2017-06-22T09:00:42Z</time>
      </trkpt>
      <trkpt lat="45.99597" lon="4.89438">
        <ele>290</ele>
        <time>2017-06-22T09:00:43Z</time>
      </trkpt>
      <trkpt lat="45.99597" lon="4.89429">
        <ele>290</ele>
        <time>2017-06-22T09:00:44Z</time>
      </trkpt>
      <trkpt lat="45.99596" lon="4.89419">
        <ele>290</ele>
        <time>2017-06-22T09:00:45Z</time>
      </trkpt>
      <trkpt lat="45.99596" lon="4.89409">
        <ele>290</ele>
        <time>2017-06-22T09:00:46Z</time>
      </trkpt>
      <trkpt lat="45.99595" lon="4.89399">
        <ele>290</ele>
        <time>2017-06-22T09:00:47Z</time>
      </trkpt>
      <trkpt lat="45.99594" lon="4.89389">
        <ele>290</ele>
        <time>2017-06-22T09:00:48Z</time>
      </trkpt>
      <trkpt lat="45.99594" lon="4.8938">
        <ele>290</ele>
        <time>2017-06-22T09:00:49Z</time>
      </trkpt>
      <trkpt lat="45.99593" lon="4.8937">
        <ele>289</ele>
        <time>2017-06-22T09:00:50Z</time>
      </trkpt>
      <trkpt lat="45.99592" lon="4.89361">
        <ele>289</ele>
        <time>2017-06-22T09:00:51Z</time>
      </trkpt>
      <trkpt lat="45.99592" lon="4.89352">
        <ele>289</ele>
        <time>2017-06-22T09:00:52Z</time>
      </trkpt>
      <trkpt lat="45.99591" lon="4.89343">
        <ele>289</ele>
        <time>2017-06-22T09:00:53Z</time>
      </trkpt>
      <trkpt lat="45.9959" lon="4.89335">
        <ele>289</ele>
        <time>2017-06-22T09:00:54Z</time>
      </trkpt>
      <trkpt lat="45.9959" lon="4.89326">
        <ele>289</ele>
        <time>2017-06-22T09:00:55Z</time>
      </trkpt>
      <trkpt lat="45.99589" lon="4.89318">
        <ele>289</ele>
        <time>2017-06-22T09:00:56Z</time>
      </trkpt>
      <trkpt lat="45.99589" lon="4.89309">
        <ele>289</ele>
        <time>2017-06-22T09:00:57Z</time>
      </trkpt>
      <trkpt lat="45.99588" lon="4.89301">
        <ele>289</ele>
        <time>2017-06-22T09:00:58Z</time>
      </trkpt>
      <trkpt lat="45.99588" lon="4.89294">
        <ele>289</ele>
        <time>2017-06-22T09:00:59Z</time>
      </trkpt>
      <trkpt lat="45.99587" lon="4.89285">
        <ele>289</ele>
        <time>2017-06-22T09:01:00Z</time>
      </trkpt>
      <trkpt lat="45.99587" lon="4.89277">
        <ele>289</ele>
        <time>2017-06-22T09:01:01Z</time>
      </trkpt>
      <trkpt lat="45.99586" lon="4.89268">
        <ele>288</ele>
        <time>2017-06-22T09:01:02Z</time>
      </trkpt>
      <trkpt lat="45.99586" lon="4.8926">
        <ele>288</ele>
        <time>2017-06-22T09:01:03Z</time>
      </trkpt>
      <trkpt lat="45.99586" lon="4.89251">
        <ele>288</ele>
        <time>2017-06-22T09:01:04Z</time>
      </trkpt>
      <trkpt lat="45.99585" lon="4.89243">
        <ele>288</ele>
        <time>2017-06-22T09:01:05Z</time>
      </trkpt>
      <trkpt lat="45.99585" lon="4.89235">
        <ele>288</ele>
        <time>2017-06-22T09:01:06Z</time>
      </trkpt>
      <trkpt lat="45.99584" lon="4.89227">
        <ele>288</ele>
        <time>2017-06-22T09:01:07Z</time>
      </trkpt>
      <trkpt lat="45.99584" lon="4.89219">
        <ele>288</ele>
        <time>2017-06-22T09:01:08Z</time>
      </trkpt>
      <trkpt lat="45.99584" lon="4.89211">
        <ele>288</ele>
        <time>2017-06-22T09:01:09Z</time>
      </trkpt>
      <trkpt lat="45.99583" lon="4.89203">
        <ele>288</ele>
        <time>2017-06-22T09:01:10Z</time>
      </trkpt>
      <trkpt lat="45.99583" lon="4.89196">
        <ele>288</ele>
        <time>2017-06-22T09:01:11Z</time>
      </trkpt>
      <trkpt lat="45.99583" lon="4.89188">
        <ele>288</ele>
        <time>2017-06-22T09:01:12Z</time>
      </trkpt>
      <trkpt lat="45.99582" lon="4.8918">
        <ele>288</ele>
        <time>2017-06-22T09:01:13Z</time>
      </trkpt>
      <trkpt lat="45.99581" lon="4.89172">
        <ele>288</ele>
        <time>2017-06-22T09:01:14Z</time>
      </trkpt>
      <trkpt lat="45.99581" lon="4.89164">
        <ele>288</ele>
        <time>2017-06-22T09:01:15Z</time>
      </trkpt>
      <trkpt lat="45.9958" lon="4.89156">
        <ele>288</ele>
        <time>2017-06-22T09:01:16Z</time>
      </trkpt>
      <trkpt lat="45.9958" lon="4.89148">
        <ele>289</ele>
        <time>2017-06-22T09:01:17Z</time>
      </trkpt>
      <trkpt lat="45.9958" lon="4.89139">
        <ele>289</ele>
        <time>2017-06-22T09:01:18Z</time>
      </trkpt>
      <trkpt lat="45.9958" lon="4.8913">
        <ele>289</ele>
        <time>2017-06-22T09:01:19Z</time>
      </trkpt>
      <trkpt lat="45.9958" lon="4.89122">
        <ele>289</ele>
        <time>2017-06-22T09:01:20Z</time>
      </trkpt>
      <trkpt lat="45.9958" lon="4.89113">
        <ele>289</ele>
        <time>2017-06-22T09:01:21Z</time>
      </trkpt>
      <trkpt lat="45.99581" lon="4.89105">
        <ele>289</ele>
        <time>2017-06-22T09:01:22Z</time>
      </trkpt>
      <trkpt lat="45.99581" lon="4.89096">
        <ele>289</ele>
        <time>2017-06-22T09:01:23Z</time>
      </trkpt>
      <trkpt lat="45.99582" lon="4.89087">
        <ele>289</ele>
        <time>2017-06-22T09:01:24Z</time>
      </trkpt>
      <trkpt lat="45.99582" lon="4.89079">
        <ele>289</ele>
        <time>2017-06-22T09:01:25Z</time>
      </trkpt>
      <trkpt lat="45.99583" lon="4.89071">
        <ele>289</ele>
        <time>2017-06-22T09:01:26Z</time>
      </trkpt>
      <trkpt lat="45.99583" lon="4.89062">
        <ele>289</ele>
        <time>2017-06-22T09:01:27Z</time>
      </trkpt>
      <trkpt lat="45.99584" lon="4.89054">
        <ele>289</ele>
        <time>2017-06-22T09:01:28Z</time>
      </trkpt>
      <trkpt lat="45.99585" lon="4.89046">
        <ele>289</ele>
        <time>2017-06-22T09:01:29Z</time>
      </trkpt>
      <trkpt lat="45.99585" lon="4.89039">
        <ele>289</ele>
        <time>2017-06-22T09:01:30Z</time>
      </trkpt>
      <trkpt lat="45.99585" lon="4.89031">
        <ele>289</ele>
        <time>2017-06-22T09:01:31Z</time>
      </trkpt>
      <trkpt lat="45.99586" lon="4.89023">
        <ele>288</ele>
        <time>2017-06-22T09:01:32Z</time>
      </trkpt>
      <trkpt lat="45.99586" lon="4.89017">
        <ele>288</ele>
        <time>2017-06-22T09:01:33Z</time>
      </trkpt>
      <trkpt lat="45.99585" lon="4.8901">
        <ele>288</ele>
        <time>2017-06-22T09:01:34Z</time>
      </trkpt>
      <trkpt lat="45.99585" lon="4.89004">
        <ele>288</ele>
        <time>2017-06-22T09:01:35Z</time>
      </trkpt>
      <trkpt lat="45.99585" lon="4.88997">
        <ele>288</ele>
        <time>2017-06-22T09:01:36Z</time>
      </trkpt>
      <trkpt lat="45.99585" lon="4.88989">
        <ele>288</ele>
        <time>2017-06-22T09:01:37Z</time>
      </trkpt>
      <trkpt lat="45.99585" lon="4.88981">
        <ele>288</ele>
        <time>2017-06-22T09:01:38Z</time>
      </trkpt>
      <trkpt lat="45.99585" lon="4.88973">
        <ele>288</ele>
        <time>2017-06-22T09:01:39Z</time>
      </trkpt>
      <trkpt lat="45.99585" lon="4.88965">
        <ele>288</ele>
        <time>2017-06-22T09:01:40Z</time>
      </trkpt>
      <trkpt lat="45.99584" lon="4.88958">
        <ele>287</ele>
        <time>2017-06-22T09:01:41Z</time>
      </trkpt>
      <trkpt lat="45.99583" lon="4.8895">
        <ele>287</ele>
        <time>2017-06-22T09:01:42Z</time>
      </trkpt>
      <trkpt lat="45.99583" lon="4.88942">
        <ele>287</ele>
        <time>2017-06-22T09:01:43Z</time>
      </trkpt>
      <trkpt lat="45.99582" lon="4.88934">
        <ele>287</ele>
        <time>2017-06-22T09:01:44Z</time>
      </trkpt>
      <trkpt lat="45.99581" lon="4.88927">
        <ele>287</ele>
        <time>2017-06-22T09:01:45Z</time>
      </trkpt>
      <trkpt lat="45.99581" lon="4.88919">
        <ele>287</ele>
        <time>2017-06-22T09:01:46Z</time>
      </trkpt>
      <trkpt lat="45.9958" lon="4.88911">
        <ele>287</ele>
        <time>2017-06-22T09:01:47Z</time>
      </trkpt>
      <trkpt lat="45.9958" lon="4.88904">
        <ele>287</ele>
        <time>2017-06-22T09:01:48Z</time>
      </trkpt>
      <trkpt lat="45.99579" lon="4.88896">
        <ele>287</ele>
        <time>2017-06-22T09:01:49Z</time>
      </trkpt>
      <trkpt lat="45.99579" lon="4.88888">
        <ele>287</ele>
        <time>2017-06-22T09:01:50Z</time>
      </trkpt>
      <trkpt lat="45.99579" lon="4.88879">
        <ele>287</ele>
        <time>2017-06-22T09:01:51Z</time>
      </trkpt>
      <trkpt lat="45.99578" lon="4.88869">
        <ele>287</ele>
        <time>2017-06-22T09:01:52Z</time>
      </trkpt>
      <trkpt lat="45.99577" lon="4.88859">
        <ele>287</ele>
        <time>2017-06-22T09:01:53Z</time>
      </trkpt>
      <trkpt lat="45.99576" lon="4.88849">
        <ele>287</ele>
        <time>2017-06-22T09:01:54Z</time>
      </trkpt>
      <trkpt lat="45.99575" lon="4.88839">
        <ele>287</ele>
        <time>2017-06-22T09:01:55Z</time>
      </trkpt>
      <trkpt lat="45.99574" lon="4.8883">
        <ele>287</ele>
        <time>2017-06-22T09:01:56Z</time>
      </trkpt>
      <trkpt lat="45.99573" lon="4.88821">
        <ele>287</ele>
        <time>2017-06-22T09:01:57Z</time>
      </trkpt>
      <trkpt lat="45.99573" lon="4.88813">
        <ele>287</ele>
        <time>2017-06-22T09:01:58Z</time>
      </trkpt>
      <trkpt lat="45.99572" lon="4.88804">
        <ele>287</ele>
        <time>2017-06-22T09:01:59Z</time>
      </trkpt>
      <trkpt lat="45.99571" lon="4.88796">
        <ele>287</ele>
        <time>2017-06-22T09:02:00Z</time>
      </trkpt>
      <trkpt lat="45.9957" lon="4.88786">
        <ele>287</ele>
        <time>2017-06-22T09:02:01Z</time>
      </trkpt>
      <trkpt lat="45.99569" lon="4.88777">
        <ele>287</ele>
        <time>2017-06-22T09:02:02Z</time>
      </trkpt>
      <trkpt lat="45.99567" lon="4.88769">
        <ele>287</ele>
        <time>2017-06-22T09:02:03Z</time>
      </trkpt>
      <trkpt lat="45.99566" lon="4.8876">
        <ele>287</ele>
        <time>2017-06-22T09:02:04Z</time>
      </trkpt>
      <trkpt lat="45.99565" lon="4.88752">
        <ele>287</ele>
        <time>2017-06-22T09:02:05Z</time>
      </trkpt>
      <trkpt lat="45.99565" lon="4.88744">
        <ele>287</ele>
        <time>2017-06-22T09:02:06Z</time>
      </trkpt>
      <trkpt lat="45.99564" lon="4.88736">
        <ele>287</ele>
        <time>2017-06-22T09:02:07Z</time>
      </trkpt>
      <trkpt lat="45.99563" lon="4.88728">
        <ele>287</ele>
        <time>2017-06-22T09:02:08Z</time>
      </trkpt>
      <trkpt lat="45.99563" lon="4.8872">
        <ele>286</ele>
        <time>2017-06-22T09:02:09Z</time>
      </trkpt>
      <trkpt lat="45.99562" lon="4.88712">
        <ele>286</ele>
        <time>2017-06-22T09:02:10Z</time>
      </trkpt>
      <trkpt lat="45.99562" lon="4.88704">
        <ele>286</ele>
        <time>2017-06-22T09:02:11Z</time>
      </trkpt>
      <trkpt lat="45.99561" lon="4.88696">
        <ele>286</ele>
        <time>2017-06-22T09:02:12Z</time>
      </trkpt>
      <trkpt lat="45.9956" lon="4.88687">
        <ele>286</ele>
        <time>2017-06-22T09:02:13Z</time>
      </trkpt>
      <trkpt lat="45.99559" lon="4.8868">
        <ele>286</ele>
        <time>2017-06-22T09:02:14Z</time>
      </trkpt>
      <trkpt lat="45.99558" lon="4.88672">
        <ele>286</ele>
        <time>2017-06-22T09:02:15Z</time>
      </trkpt>
      <trkpt lat="45.99557" lon="4.88665">
        <ele>286</ele>
        <time>2017-06-22T09:02:16Z</time>
      </trkpt>
      <trkpt lat="45.99556" lon="4.88658">
        <ele>286</ele>
        <time>2017-06-22T09:02:17Z</time>
      </trkpt>
      <trkpt lat="45.99555" lon="4.8865">
        <ele>286</ele>
        <time>2017-06-22T09:02:18Z</time>
      </trkpt>
      <trkpt lat="45.99554" lon="4.88643">
        <ele>286</ele>
        <time>2017-06-22T09:02:19Z</time>
      </trkpt>
      <trkpt lat="45.99554" lon="4.88635">
        <ele>286</ele>
        <time>2017-06-22T09:02:20Z</time>
      </trkpt>
      <trkpt lat="45.99553" lon="4.88627">
        <ele>286</ele>
        <time>2017-06-22T09:02:21Z</time>
      </trkpt>
      <trkpt lat="45.99552" lon="4.88618">
        <ele>286</ele>
        <time>2017-06-22T09:02:22Z</time>
      </trkpt>
      <trkpt lat="45.99551" lon="4.88609">
        <ele>286</ele>
        <time>2017-06-22T09:02:23Z</time>
      </trkpt>
      <trkpt lat="45.99549" lon="4.886">
        <ele>286</ele>
        <time>2017-06-22T09:02:24Z</time>
      </trkpt>
      <trkpt lat="45.99547" lon="4.8859">
        <ele>286</ele>
        <time>2017-06-22T09:02:25Z</time>
      </trkpt>
      <trkpt lat="45.99546" lon="4.8858">
        <ele>286</ele>
        <time>2017-06-22T09:02:26Z</time>
      </trkpt>
      <trkpt lat="45.99544" lon="4.88571">
        <ele>286</ele>
        <time>2017-06-22T09:02:27Z</time>
      </trkpt>
      <trkpt lat="45.99541" lon="4.88562">
        <ele>285</ele>
        <time>2017-06-22T09:02:28Z</time>
      </trkpt>
      <trkpt lat="45.99538" lon="4.88553">
        <ele>285</ele>
        <time>2017-06-22T09:02:29Z</time>
      </trkpt>
      <trkpt lat="45.99535" lon="4.88545">
        <ele>285</ele>
        <time>2017-06-22T09:02:30Z</time>
      </trkpt>
      <trkpt lat="45.99531" lon="4.88538">
        <ele>285</ele>
        <time>2017-06-22T09:02:31Z</time>
      </trkpt>
      <trkpt lat="45.99528" lon="4.8853">
        <ele>285</ele>
        <time>2017-06-22T09:02:32Z</time>
      </trkpt>
      <trkpt lat="45.99524" lon="4.88522">
        <ele>285</ele>
        <time>2017-06-22T09:02:33Z</time>
      </trkpt>
      <trkpt lat="45.99521" lon="4.88515">
        <ele>285</ele>
        <time>2017-06-22T09:02:34Z</time>
      </trkpt>
      <trkpt lat="45.99518" lon="4.88508">
        <ele>285</ele>
        <time>2017-06-22T09:02:35Z</time>
      </trkpt>
      <trkpt lat="45.99515" lon="4.88502">
        <ele>285</ele>
        <time>2017-06-22T09:02:36Z</time>
      </trkpt>
      <trkpt lat="45.99512" lon="4.88495">
        <ele>284</ele>
        <time>2017-06-22T09:02:37Z</time>
      </trkpt>
      <trkpt lat="45.99509" lon="4.88489">
        <ele>284</ele>
        <time>2017-06-22T09:02:38Z</time>
      </trkpt>
      <trkpt lat="45.99505" lon="4.88483">
        <ele>284</ele>
        <time>2017-06-22T09:02:39Z</time>
      </trkpt>
      <trkpt lat="45.99502" lon="4.88477">
        <ele>284</ele>
        <time>2017-06-22T09:02:40Z</time>
      </trkpt>
      <trkpt lat="45.99499" lon="4.88471">
        <ele>284</ele>
        <time>2017-06-22T09:02:41Z</time>
      </trkpt>
      <trkpt lat="45.99496" lon="4.88464">
        <ele>284</ele>
        <time>2017-06-22T09:02:42Z</time>
      </trkpt>
      <trkpt lat="45.99493" lon="4.88458">
        <ele>284</ele>
        <time>2017-06-22T09:02:43Z</time>
      </trkpt>
      <trkpt lat="45.99489" lon="4.88452">
        <ele>284</ele>
        <time>2017-06-22T09:02:44Z</time>
      </trkpt>
      <trkpt lat="45.99486" lon="4.88447">
        <ele>284</ele>
        <time>2017-06-22T09:02:45Z</time>
      </trkpt>
      <trkpt lat="45.99482" lon="4.88442">
        <ele>284</ele>
        <time>2017-06-22T09:02:46Z</time>
      </trkpt>
      <trkpt lat="45.99478" lon="4.88437">
        <ele>284</ele>
        <time>2017-06-22T09:02:47Z</time>
      </trkpt>
      <trkpt lat="45.99474" lon="4.88433">
        <ele>284</ele>
        <time>2017-06-22T09:02:48Z</time>
      </trkpt>
      <trkpt lat="45.99469" lon="4.88428">
        <ele>284</ele>
        <time>2017-06-22T09:02:49Z</time>
      </trkpt>
      <trkpt lat="45.99465" lon="4.88423">
        <ele>284</ele>
        <time>2017-06-22T09:02:50Z</time>
      </trkpt>
      <trkpt lat="45.9946" lon="4.88419">
        <ele>284</ele>
        <time>2017-06-22T09:02:51Z</time>
      </trkpt>
      <trkpt lat="45.99456" lon="4.88415">
        <ele>283</ele>
        <time>2017-06-22T09:02:52Z</time>
      </trkpt>
      <trkpt lat="45.99451" lon="4.88411">
        <ele>283</ele>
        <time>2017-06-22T09:02:53Z</time>
      </trkpt>
      <trkpt lat="45.99447" lon="4.88406">
        <ele>283</ele>
        <time>2017-06-22T09:02:54Z</time>
      </trkpt>
      <trkpt lat="45.99442" lon="4.884">
        <ele>283</ele>
        <time>2017-06-22T09:02:55Z</time>
      </trkpt>
      <trkpt lat="45.99439" lon="4.88394">
        <ele>283</ele>
        <time>2017-06-22T09:02:56Z</time>
      </trkpt>
      <trkpt lat="45.99436" lon="4.88388">
        <ele>283</ele>
        <time>2017-06-22T09:02:57Z</time>
      </trkpt>
      <trkpt lat="45.99433" lon="4.88382">
        <ele>283</ele>
        <time>2017-06-22T09:02:58Z</time>
      </trkpt>
      <trkpt lat="45.9943" lon="4.88375">
        <ele>283</ele>
        <time>2017-06-22T09:02:59Z</time>
      </trkpt>
      <trkpt lat="45.99427" lon="4.88369">
        <ele>283</ele>
        <time>2017-06-22T09:03:00Z</time>
      </trkpt>
      <trkpt lat="45.99425" lon="4.88362">
        <ele>283</ele>
        <time>2017-06-22T09:03:01Z</time>
      </trkpt>
      <trkpt lat="45.99423" lon="4.88356">
        <ele>283</ele>
        <time>2017-06-22T09:03:02Z</time>
      </trkpt>
      <trkpt lat="45.99421" lon="4.88349">
        <ele>282</ele>
        <time>2017-06-22T09:03:03Z</time>
      </trkpt>
      <trkpt lat="45.99418" lon="4.88341">
        <ele>282</ele>
        <time>2017-06-22T09:03:04Z</time>
      </trkpt>
      <trkpt lat="45.99415" lon="4.88334">
        <ele>282</ele>
        <time>2017-06-22T09:03:05Z</time>
      </trkpt>
      <trkpt lat="45.99412" lon="4.88325">
        <ele>283</ele>
        <time>2017-06-22T09:03:06Z</time>
      </trkpt>
      <trkpt lat="45.99409" lon="4.88317">
        <ele>283</ele>
        <time>2017-06-22T09:03:07Z</time>
      </trkpt>
      <trkpt lat="45.99406" lon="4.88309">
        <ele>283</ele>
        <time>2017-06-22T09:03:08Z</time>
      </trkpt>
      <trkpt lat="45.99403" lon="4.883">
        <ele>284</ele>
        <time>2017-06-22T09:03:09Z</time>
      </trkpt>
      <trkpt lat="45.994" lon="4.88292">
        <ele>284</ele>
        <time>2017-06-22T09:03:10Z</time>
      </trkpt>
      <trkpt lat="45.99396" lon="4.88284">
        <ele>284</ele>
        <time>2017-06-22T09:03:11Z</time>
      </trkpt>
      <trkpt lat="45.99393" lon="4.88276">
        <ele>284</ele>
        <time>2017-06-22T09:03:12Z</time>
      </trkpt>
      <trkpt lat="45.9939" lon="4.88268">
        <ele>285</ele>
        <time>2017-06-22T09:03:13Z</time>
      </trkpt>
      <trkpt lat="45.99386" lon="4.88261">
        <ele>285</ele>
        <time>2017-06-22T09:03:14Z</time>
      </trkpt>
      <trkpt lat="45.99382" lon="4.88254">
        <ele>285</ele>
        <time>2017-06-22T09:03:15Z</time>
      </trkpt>
      <trkpt lat="45.99377" lon="4.88249">
        <ele>287</ele>
        <time>2017-06-22T09:03:16Z</time>
      </trkpt>
      <trkpt lat="45.99374" lon="4.88243">
        <ele>287</ele>
        <time>2017-06-22T09:03:17Z</time>
      </trkpt>
      <trkpt lat="45.9937" lon="4.88239">
        <ele>287</ele>
        <time>2017-06-22T09:03:18Z</time>
      </trkpt>
      <trkpt lat="45.99365" lon="4.88234">
        <ele>287</ele>
        <time>2017-06-22T09:03:19Z</time>
      </trkpt>
      <trkpt lat="45.99361" lon="4.88229">
        <ele>287</ele>
        <time>2017-06-22T09:03:20Z</time>
      </trkpt>
      <trkpt lat="45.99357" lon="4.88225">
        <ele>287</ele>
        <time>2017-06-22T09:03:21Z</time>
      </trkpt>
      <trkpt lat="45.99353" lon="4.88221">
        <ele>287</ele>
        <time>2017-06-22T09:03:22Z</time>
      </trkpt>
      <trkpt lat="45.99349" lon="4.88217">
        <ele>287</ele>
        <time>2017-06-22T09:03:23Z</time>
      </trkpt>
      <trkpt lat="45.99345" lon="4.88213">
        <ele>287</ele>
        <time>2017-06-22T09:03:24Z</time>
      </trkpt>
      <trkpt lat="45.9934" lon="4.88208">
        <ele>287</ele>
        <time>2017-06-22T09:03:25Z</time>
      </trkpt>
      <trkpt lat="45.99336" lon="4.88203">
        <ele>288</ele>
        <time>2017-06-22T09:03:26Z</time>
      </trkpt>
      <trkpt lat="45.99331" lon="4.88199">
        <ele>285</ele>
        <time>2017-06-22T09:03:27Z</time>
      </trkpt>
      <trkpt lat="45.99326" lon="4.88194">
        <ele>285</ele>
        <time>2017-06-22T09:03:28Z</time>
      </trkpt>
      <trkpt lat="45.9932" lon="4.88189">
        <ele>285</ele>
        <time>2017-06-22T09:03:29Z</time>
      </trkpt>
      <trkpt lat="45.99315" lon="4.88183">
        <ele>285</ele>
        <time>2017-06-22T09:03:30Z</time>
      </trkpt>
      <trkpt lat="45.9931" lon="4.88178">
        <ele>285</ele>
        <time>2017-06-22T09:03:31Z</time>
      </trkpt>
      <trkpt lat="45.99304" lon="4.88172">
        <ele>285</ele>
        <time>2017-06-22T09:03:32Z</time>
      </trkpt>
      <trkpt lat="45.99299" lon="4.88168">
        <ele>284</ele>
        <time>2017-06-22T09:03:33Z</time>
      </trkpt>
      <trkpt lat="45.99294" lon="4.88163">
        <ele>284</ele>
        <time>2017-06-22T09:03:34Z</time>
      </trkpt>
      <trkpt lat="45.99289" lon="4.88158">
        <ele>284</ele>
        <time>2017-06-22T09:03:35Z</time>
      </trkpt>
      <trkpt lat="45.99285" lon="4.88153">
        <ele>284</ele>
        <time>2017-06-22T09:03:36Z</time>
      </trkpt>
      <trkpt lat="45.9928" lon="4.88148">
        <ele>284</ele>
        <time>2017-06-22T09:03:37Z</time>
      </trkpt>
      <trkpt lat="45.99275" lon="4.88144">
        <ele>283</ele>
        <time>2017-06-22T09:03:38Z</time>
      </trkpt>
      <trkpt lat="45.9927" lon="4.8814">
        <ele>283</ele>
        <time>2017-06-22T09:03:39Z</time>
      </trkpt>
      <trkpt lat="45.99265" lon="4.88135">
        <ele>283</ele>
        <time>2017-06-22T09:03:40Z</time>
      </trkpt>
      <trkpt lat="45.9926" lon="4.88131">
        <ele>283</ele>
        <time>2017-06-22T09:03:41Z</time>
      </trkpt>
      <trkpt lat="45.99255" lon="4.88127">
        <ele>283</ele>
        <time>2017-06-22T09:03:42Z</time>
      </trkpt>
      <trkpt lat="45.9925" lon="4.88123">
        <ele>283</ele>
        <time>2017-06-22T09:03:43Z</time>
      </trkpt>
      <trkpt lat="45.99246" lon="4.88118">
        <ele>280</ele>
        <time>2017-06-22T09:03:44Z</time>
      </trkpt>
      <trkpt lat="45.99241" lon="4.88114">
        <ele>280</ele>
        <time>2017-06-22T09:03:45Z</time>
      </trkpt>
      <trkpt lat="45.99236" lon="4.8811">
        <ele>280</ele>
        <time>2017-06-22T09:03:46Z</time>
      </trkpt>
      <trkpt lat="45.99232" lon="4.88106">
        <ele>280</ele>
        <time>2017-06-22T09:03:47Z</time>
      </trkpt>
      <trkpt lat="45.99227" lon="4.88102">
        <ele>280</ele>
        <time>2017-06-22T09:03:48Z</time>
      </trkpt>
      <trkpt lat="45.99223" lon="4.88098">
        <ele>280</ele>
        <time>2017-06-22T09:03:49Z</time>
      </trkpt>
      <trkpt lat="45.99218" lon="4.88093">
        <ele>280</ele>
        <time>2017-06-22T09:03:50Z</time>
      </trkpt>
      <trkpt lat="45.99213" lon="4.88089">
        <ele>280</ele>
        <time>2017-06-22T09:03:51Z</time>
      </trkpt>
      <trkpt lat="45.99207" lon="4.88085">
        <ele>280</ele>
        <time>2017-06-22T09:03:52Z</time>
      </trkpt>
      <trkpt lat="45.99202" lon="4.8808">
        <ele>280</ele>
        <time>2017-06-22T09:03:53Z</time>
      </trkpt>
      <trkpt lat="45.99197" lon="4.88076">
        <ele>280</ele>
        <time>2017-06-22T09:03:54Z</time>
      </trkpt>
      <trkpt lat="45.99191" lon="4.88071">
        <ele>280</ele>
        <time>2017-06-22T09:03:55Z</time>
      </trkpt>
      <trkpt lat="45.99186" lon="4.88066">
        <ele>280</ele>
        <time>2017-06-22T09:03:56Z</time>
      </trkpt>
      <trkpt lat="45.99181" lon="4.88062">
        <ele>279</ele>
        <time>2017-06-22T09:03:57Z</time>
      </trkpt>
      <trkpt lat="45.99176" lon="4.88057">
        <ele>279</ele>
        <time>2017-06-22T09:03:58Z</time>
      </trkpt>
      <trkpt lat="45.99171" lon="4.88053">
        <ele>279</ele>
        <time>2017-06-22T09:03:59Z</time>
      </trkpt>
      <trkpt lat="45.99165" lon="4.88049">
        <ele>279</ele>
        <time>2017-06-22T09:04:00Z</time>
      </trkpt>
      <trkpt lat="45.9916" lon="4.88046">
        <ele>279</ele>
        <time>2017-06-22T09:04:01Z</time>
      </trkpt>
      <trkpt lat="45.99154" lon="4.88042">
        <ele>279</ele>
        <time>2017-06-22T09:04:02Z</time>
      </trkpt>
      <trkpt lat="45.99149" lon="4.88039">
        <ele>279</ele>
        <time>2017-06-22T09:04:03Z</time>
      </trkpt>
      <trkpt lat="45.99143" lon="4.88036">
        <ele>279</ele>
        <time>2017-06-22T09:04:04Z</time>
      </trkpt>
      <trkpt lat="45.99137" lon="4.88033">
        <ele>279</ele>
        <time>2017-06-22T09:04:05Z</time>
      </trkpt>
      <trkpt lat="45.99131" lon="4.8803">
        <ele>279</ele>
        <time>2017-06-22T09:04:06Z</time>
      </trkpt>
      <trkpt lat="45.99126" lon="4.88027">
        <ele>279</ele>
        <time>2017-06-22T09:04:07Z</time>
      </trkpt>
      <trkpt lat="45.9912" lon="4.88024">
        <ele>278</ele>
        <time>2017-06-22T09:04:08Z</time>
      </trkpt>
      <trkpt lat="45.99115" lon="4.88021">
        <ele>278</ele>
        <time>2017-06-22T09:04:09Z</time>
      </trkpt>
      <trkpt lat="45.99109" lon="4.88017">
        <ele>278</ele>
        <time>2017-06-22T09:04:10Z</time>
      </trkpt>
      <trkpt lat="45.99104" lon="4.88014">
        <ele>278</ele>
        <time>2017-06-22T09:04:11Z</time>
      </trkpt>
      <trkpt lat="45.99098" lon="4.88011">
        <ele>278</ele>
        <time>2017-06-22T09:04:12Z</time>
      </trkpt>
      <trkpt lat="45.99092" lon="4.88007">
        <ele>278</ele>
        <time>2017-06-22T09:04:13Z</time>
      </trkpt>
      <trkpt lat="45.99087" lon="4.88004">
        <ele>278</ele>
        <time>2017-06-22T09:04:14Z</time>
      </trkpt>
      <trkpt lat="45.99081" lon="4.88">
        <ele>278</ele>
        <time>2017-06-22T09:04:15Z</time>
      </trkpt>
      <trkpt lat="45.99076" lon="4.87997">
        <ele>278</ele>
        <time>2017-06-22T09:04:16Z</time>
      </trkpt>
      <trkpt lat="45.9907" lon="4.87994">
        <ele>277</ele>
        <time>2017-06-22T09:04:17Z</time>
      </trkpt>
      <trkpt lat="45.99065" lon="4.8799">
        <ele>277</ele>
        <time>2017-06-22T09:04:18Z</time>
      </trkpt>
      <trkpt lat="45.9906" lon="4.87987">
        <ele>277</ele>
        <time>2017-06-22T09:04:19Z</time>
      </trkpt>
      <trkpt lat="45.99055" lon="4.87983">
        <ele>277</ele>
        <time>2017-06-22T09:04:20Z</time>
      </trkpt>
      <trkpt lat="45.9905" lon="4.8798">
        <ele>277</ele>
        <time>2017-06-22T09:04:21Z</time>
      </trkpt>
      <trkpt lat="45.99044" lon="4.87976">
        <ele>277</ele>
        <time>2017-06-22T09:04:22Z</time>
      </trkpt>
      <trkpt lat="45.99038" lon="4.87973">
        <ele>276</ele>
        <time>2017-06-22T09:04:23Z</time>
      </trkpt>
      <trkpt lat="45.99033" lon="4.87969">
        <ele>276</ele>
        <time>2017-06-22T09:04:24Z</time>
      </trkpt>
      <trkpt lat="45.99028" lon="4.87966">
        <ele>276</ele>
        <time>2017-06-22T09:04:25Z</time>
      </trkpt>
      <trkpt lat="45.99022" lon="4.87963">
        <ele>276</ele>
        <time>2017-06-22T09:04:26Z</time>
      </trkpt>
      <trkpt lat="45.99016" lon="4.87959">
        <ele>276</ele>
        <time>2017-06-22T09:04:27Z</time>
      </trkpt>
      <trkpt lat="45.99011" lon="4.87956">
        <ele>276</ele>
        <time>2017-06-22T09:04:28Z</time>
      </trkpt>
      <trkpt lat="45.99005" lon="4.87953">
        <ele>276</ele>
        <time>2017-06-22T09:04:29Z</time>
      </trkpt>
      <trkpt lat="45.98999" lon="4.8795">
        <ele>274</ele>
        <time>2017-06-22T09:04:30Z</time>
      </trkpt>
      <trkpt lat="45.98994" lon="4.87947">
        <ele>274</ele>
        <time>2017-06-22T09:04:31Z</time>
      </trkpt>
      <trkpt lat="45.98987" lon="4.87944">
        <ele>274</ele>
        <time>2017-06-22T09:04:32Z</time>
      </trkpt>
      <trkpt lat="45.98981" lon="4.8794">
        <ele>274</ele>
        <time>2017-06-22T09:04:33Z</time>
      </trkpt>
      <trkpt lat="45.98974" lon="4.87936">
        <ele>274</ele>
        <time>2017-06-22T09:04:34Z</time>
      </trkpt>
      <trkpt lat="45.98967" lon="4.87933">
        <ele>274</ele>
        <time>2017-06-22T09:04:35Z</time>
      </trkpt>
      <trkpt lat="45.9896" lon="4.87929">
        <ele>273</ele>
        <time>2017-06-22T09:04:36Z</time>
      </trkpt>
      <trkpt lat="45.98953" lon="4.87924">
        <ele>273</ele>
        <time>2017-06-22T09:04:37Z</time>
      </trkpt>
      <trkpt lat="45.98945" lon="4.87919">
        <ele>273</ele>
        <time>2017-06-22T09:04:38Z</time>
      </trkpt>
      <trkpt lat="45.98939" lon="4.87912">
        <ele>273</ele>
        <time>2017-06-22T09:04:39Z</time>
      </trkpt>
      <trkpt lat="45.98932" lon="4.87905">
        <ele>273</ele>
        <time>2017-06-22T09:04:40Z</time>
      </trkpt>
      <trkpt lat="45.98924" lon="4.87898">
        <ele>273</ele>
        <time>2017-06-22T09:04:41Z</time>
      </trkpt>
      <trkpt lat="45.98917" lon="4.8789">
        <ele>273</ele>
        <time>2017-06-22T09:04:42Z</time>
      </trkpt>
      <trkpt lat="45.98911" lon="4.87882">
        <ele>272</ele>
        <time>2017-06-22T09:04:43Z</time>
      </trkpt>
      <trkpt lat="45.98905" lon="4.87873">
        <ele>272</ele>
        <time>2017-06-22T09:04:44Z</time>
      </trkpt>
      <trkpt lat="45.98899" lon="4.87864">
        <ele>272</ele>
        <time>2017-06-22T09:04:45Z</time>
      </trkpt>
      <trkpt lat="45.98894" lon="4.87856">
        <ele>272</ele>
        <time>2017-06-22T09:04:46Z</time>
      </trkpt>
      <trkpt lat="45.9889" lon="4.87846">
        <ele>272</ele>
        <time>2017-06-22T09:04:47Z</time>
      </trkpt>
      <trkpt lat="45.98886" lon="4.87836">
        <ele>272</ele>
        <time>2017-06-22T09:04:48Z</time>
      </trkpt>
      <trkpt lat="45.98882" lon="4.87828">
        <ele>273</ele>
        <time>2017-06-22T09:04:49Z</time>
      </trkpt>
      <trkpt lat="45.98878" lon="4.87818">
        <ele>273</ele>
        <time>2017-06-22T09:04:50Z</time>
      </trkpt>
      <trkpt lat="45.98875" lon="4.87808">
        <ele>273</ele>
        <time>2017-06-22T09:04:51Z</time>
      </trkpt>
      <trkpt lat="45.98872" lon="4.87798">
        <ele>273</ele>
        <time>2017-06-22T09:04:52Z</time>
      </trkpt>
      <trkpt lat="45.98869" lon="4.87788">
        <ele>273</ele>
        <time>2017-06-22T09:04:53Z</time>
      </trkpt>
      <trkpt lat="45.98867" lon="4.87778">
        <ele>273</ele>
        <time>2017-06-22T09:04:54Z</time>
      </trkpt>
      <trkpt lat="45.98864" lon="4.87768">
        <ele>273</ele>
        <time>2017-06-22T09:04:55Z</time>
      </trkpt>
      <trkpt lat="45.98862" lon="4.87758">
        <ele>273</ele>
        <time>2017-06-22T09:04:56Z</time>
      </trkpt>
      <trkpt lat="45.98859" lon="4.87749">
        <ele>273</ele>
        <time>2017-06-22T09:04:57Z</time>
      </trkpt>
      <trkpt lat="45.98857" lon="4.87739">
        <ele>273</ele>
        <time>2017-06-22T09:04:58Z</time>
      </trkpt>
      <trkpt lat="45.98855" lon="4.87729">
        <ele>273</ele>
        <time>2017-06-22T09:04:59Z</time>
      </trkpt>
      <trkpt lat="45.98853" lon="4.8772">
        <ele>273</ele>
        <time>2017-06-22T09:05:00Z</time>
      </trkpt>
      <trkpt lat="45.9885" lon="4.87711">
        <ele>273</ele>
        <time>2017-06-22T09:05:01Z</time>
      </trkpt>
      <trkpt lat="45.98848" lon="4.87701">
        <ele>273</ele>
        <time>2017-06-22T09:05:02Z</time>
      </trkpt>
      <trkpt lat="45.98846" lon="4.87692">
        <ele>273</ele>
        <time>2017-06-22T09:05:03Z</time>
      </trkpt>
      <trkpt lat="45.98844" lon="4.87683">
        <ele>273</ele>
        <time>2017-06-22T09:05:04Z</time>
      </trkpt>
      <trkpt lat="45.98842" lon="4.87674">
        <ele>273</ele>
        <time>2017-06-22T09:05:05Z</time>
      </trkpt>
      <trkpt lat="45.9884" lon="4.87665">
        <ele>273</ele>
        <time>2017-06-22T09:05:06Z</time>
      </trkpt>
      <trkpt lat="45.98838" lon="4.87658">
        <ele>273</ele>
        <time>2017-06-22T09:05:07Z</time>
      </trkpt>
      <trkpt lat="45.98836" lon="4.8765">
        <ele>273</ele>
        <time>2017-06-22T09:05:08Z</time>
      </trkpt>
      <trkpt lat="45.98833" lon="4.87642">
        <ele>272</ele>
        <time>2017-06-22T09:05:09Z</time>
      </trkpt>
      <trkpt lat="45.98831" lon="4.87634">
        <ele>272</ele>
        <time>2017-06-22T09:05:10Z</time>
      </trkpt>
      <trkpt lat="45.98829" lon="4.87627">
        <ele>272</ele>
        <time>2017-06-22T09:05:11Z</time>
      </trkpt>
      <trkpt lat="45.98827" lon="4.87621">
        <ele>271</ele>
        <time>2017-06-22T09:05:12Z</time>
      </trkpt>
      <trkpt lat="45.98824" lon="4.87614">
        <ele>271</ele>
        <time>2017-06-22T09:05:13Z</time>
      </trkpt>
      <trkpt lat="45.9882" lon="4.87609">
        <ele>271</ele>
        <time>2017-06-22T09:05:14Z</time>
      </trkpt>
      <trkpt lat="45.98816" lon="4.87603">
        <ele>271</ele>
        <time>2017-06-22T09:05:15Z</time>
      </trkpt>
      <trkpt lat="45.98811" lon="4.87597">
        <ele>271</ele>
        <time>2017-06-22T09:05:16Z</time>
      </trkpt>
      <trkpt lat="45.98807" lon="4.87591">
        <ele>271</ele>
        <time>2017-06-22T09:05:17Z</time>
      </trkpt>
      <trkpt lat="45.98801" lon="4.87586">
        <ele>271</ele>
        <time>2017-06-22T09:05:18Z</time>
      </trkpt>
      <trkpt lat="45.98796" lon="4.8758">
        <ele>270</ele>
        <time>2017-06-22T09:05:19Z</time>
      </trkpt>
      <trkpt lat="45.98791" lon="4.87575">
        <ele>269</ele>
        <time>2017-06-22T09:05:20Z</time>
      </trkpt>
      <trkpt lat="45.98787" lon="4.8757">
        <ele>269</ele>
        <time>2017-06-22T09:05:21Z</time>
      </trkpt>
      <trkpt lat="45.98782" lon="4.87565">
        <ele>269</ele>
        <time>2017-06-22T09:05:22Z</time>
      </trkpt>
      <trkpt lat="45.98776" lon="4.87561">
        <ele>269</ele>
        <time>2017-06-22T09:05:23Z</time>
      </trkpt>
      <trkpt lat="45.98771" lon="4.87558">
        <ele>269</ele>
        <time>2017-06-22T09:05:24Z</time>
      </trkpt>
      <trkpt lat="45.98766" lon="4.87555">
        <ele>269</ele>
        <time>2017-06-22T09:05:25Z</time>
      </trkpt>
      <trkpt lat="45.98761" lon="4.87554">
        <ele>269</ele>
        <time>2017-06-22T09:05:26Z</time>
      </trkpt>
      <trkpt lat="45.98756" lon="4.87553">
        <ele>269</ele>
        <time>2017-06-22T09:05:27Z</time>
      </trkpt>
      <trkpt lat="45.98744" lon="4.87551">
        <ele>267</ele>
        <time>2017-06-22T09:05:28Z</time>
      </trkpt>
      <trkpt lat="45.98738" lon="4.87552">
        <ele>267</ele>
        <time>2017-06-22T09:05:29Z</time>
      </trkpt>
      <trkpt lat="45.98732" lon="4.87553">
        <ele>267</ele>
        <time>2017-06-22T09:05:30Z</time>
      </trkpt>
      <trkpt lat="45.98727" lon="4.87554">
        <ele>267</ele>
        <time>2017-06-22T09:05:31Z</time>
      </trkpt>
      <trkpt lat="45.98722" lon="4.87554">
        <ele>267</ele>
        <time>2017-06-22T09:05:32Z</time>
      </trkpt>
      <trkpt lat="45.98717" lon="4.87556">
        <ele>267</ele>
        <time>2017-06-22T09:05:33Z</time>
      </trkpt>
      <trkpt lat="45.98712" lon="4.87557">
        <ele>267</ele>
        <time>2017-06-22T09:05:34Z</time>
      </trkpt>
      <trkpt lat="45.98707" lon="4.87559">
        <ele>267</ele>
        <time>2017-06-22T09:05:35Z</time>
      </trkpt>
      <trkpt lat="45.98702" lon="4.87561">
        <ele>267</ele>
        <time>2017-06-22T09:05:36Z</time>
      </trkpt>
      <trkpt lat="45.98697" lon="4.87561">
        <ele>267</ele>
        <time>2017-06-22T09:05:37Z</time>
      </trkpt>
      <trkpt lat="45.98689" lon="4.87561">
        <ele>267</ele>
        <time>2017-06-22T09:05:38Z</time>
      </trkpt>
      <trkpt lat="45.98684" lon="4.8756">
        <ele>267</ele>
        <time>2017-06-22T09:05:39Z</time>
      </trkpt>
      <trkpt lat="45.9868" lon="4.8756">
        <ele>267</ele>
        <time>2017-06-22T09:05:40Z</time>
      </trkpt>
      <trkpt lat="45.98673" lon="4.87559">
        <ele>267</ele>
        <time>2017-06-22T09:05:41Z</time>
      </trkpt>
      <trkpt lat="45.9867" lon="4.87558">
        <ele>267</ele>
        <time>2017-06-22T09:05:42Z</time>
      </trkpt>
      <trkpt lat="45.98663" lon="4.87551">
        <ele>267</ele>
        <time>2017-06-22T09:05:44Z</time>
      </trkpt>
      <trkpt lat="45.98661" lon="4.87547">
        <ele>267</ele>
        <time>2017-06-22T09:05:45Z</time>
      </trkpt>
      <trkpt lat="45.98656" lon="4.8754">
        <ele>267</ele>
        <time>2017-06-22T09:05:47Z</time>
      </trkpt>
      <trkpt lat="45.98655" lon="4.87533">
        <ele>267</ele>
        <time>2017-06-22T09:05:48Z</time>
      </trkpt>
      <trkpt lat="45.98653" lon="4.87528">
        <ele>266</ele>
        <time>2017-06-22T09:05:49Z</time>
      </trkpt>
      <trkpt lat="45.98651" lon="4.8752">
        <ele>266</ele>
        <time>2017-06-22T09:05:50Z</time>
      </trkpt>
      <trkpt lat="45.98649" lon="4.87512">
        <ele>266</ele>
        <time>2017-06-22T09:05:51Z</time>
      </trkpt>
      <trkpt lat="45.98647" lon="4.87504">
        <ele>266</ele>
        <time>2017-06-22T09:05:52Z</time>
      </trkpt>
      <trkpt lat="45.98644" lon="4.87496">
        <ele>267</ele>
        <time>2017-06-22T09:05:53Z</time>
      </trkpt>
      <trkpt lat="45.98642" lon="4.8749">
        <ele>267</ele>
        <time>2017-06-22T09:05:54Z</time>
      </trkpt>
      <trkpt lat="45.9864" lon="4.87484">
        <ele>267</ele>
        <time>2017-06-22T09:05:55Z</time>
      </trkpt>
      <trkpt lat="45.98638" lon="4.87478">
        <ele>268</ele>
        <time>2017-06-22T09:05:56Z</time>
      </trkpt>
      <trkpt lat="45.98636" lon="4.8747">
        <ele>268</ele>
        <time>2017-06-22T09:05:57Z</time>
      </trkpt>
      <trkpt lat="45.98634" lon="4.87463">
        <ele>268</ele>
        <time>2017-06-22T09:05:58Z</time>
      </trkpt>
      <trkpt lat="45.98633" lon="4.87456">
        <ele>268</ele>
        <time>2017-06-22T09:05:59Z</time>
      </trkpt>
      <trkpt lat="45.98631" lon="4.87448">
        <ele>268</ele>
        <time>2017-06-22T09:06:00Z</time>
      </trkpt>
      <trkpt lat="45.9863" lon="4.87441">
        <ele>268</ele>
        <time>2017-06-22T09:06:01Z</time>
      </trkpt>
      <trkpt lat="45.98629" lon="4.87433">
        <ele>268</ele>
        <time>2017-06-22T09:06:02Z</time>
      </trkpt>
      <trkpt lat="45.98627" lon="4.87425">
        <ele>269</ele>
        <time>2017-06-22T09:06:03Z</time>
      </trkpt>
      <trkpt lat="45.98625" lon="4.87417">
        <ele>269</ele>
        <time>2017-06-22T09:06:04Z</time>
      </trkpt>
      <trkpt lat="45.98624" lon="4.8741">
        <ele>271</ele>
        <time>2017-06-22T09:06:05Z</time>
      </trkpt>
      <trkpt lat="45.98622" lon="4.87402">
        <ele>271</ele>
        <time>2017-06-22T09:06:06Z</time>
      </trkpt>
      <trkpt lat="45.98621" lon="4.87394">
        <ele>271</ele>
        <time>2017-06-22T09:06:07Z</time>
      </trkpt>
      <trkpt lat="45.9862" lon="4.87386">
        <ele>271</ele>
        <time>2017-06-22T09:06:08Z</time>
      </trkpt>
      <trkpt lat="45.98619" lon="4.87379">
        <ele>271</ele>
        <time>2017-06-22T09:06:09Z</time>
      </trkpt>
      <trkpt lat="45.98617" lon="4.87372">
        <ele>271</ele>
        <time>2017-06-22T09:06:10Z</time>
      </trkpt>
      <trkpt lat="45.98615" lon="4.87365">
        <ele>271</ele>
        <time>2017-06-22T09:06:11Z</time>
      </trkpt>
      <trkpt lat="45.98614" lon="4.87358">
        <ele>272</ele>
        <time>2017-06-22T09:06:12Z</time>
      </trkpt>
      <trkpt lat="45.98613" lon="4.87351">
        <ele>272</ele>
        <time>2017-06-22T09:06:13Z</time>
      </trkpt>
      <trkpt lat="45.98613" lon="4.87345">
        <ele>272</ele>
        <time>2017-06-22T09:06:14Z</time>
      </trkpt>
      <trkpt lat="45.9861" lon="4.87333">
        <ele>274</ele>
        <time>2017-06-22T09:06:16Z</time>
      </trkpt>
      <trkpt lat="45.9861" lon="4.87327">
        <ele>274</ele>
        <time>2017-06-22T09:06:17Z</time>
      </trkpt>
      <trkpt lat="45.98608" lon="4.87316">
        <ele>274</ele>
        <time>2017-06-22T09:06:19Z</time>
      </trkpt>
      <trkpt lat="45.98607" lon="4.87311">
        <ele>274</ele>
        <time>2017-06-22T09:06:20Z</time>
      </trkpt>
      <trkpt lat="45.98608" lon="4.87301">
        <ele>274</ele>
        <time>2017-06-22T09:06:22Z</time>
      </trkpt>
      <trkpt lat="45.98609" lon="4.87296">
        <ele>275</ele>
        <time>2017-06-22T09:06:23Z</time>
      </trkpt>
      <trkpt lat="45.98606" lon="4.87285">
        <ele>275</ele>
        <time>2017-06-22T09:06:25Z</time>
      </trkpt>
      <trkpt lat="45.98605" lon="4.8728">
        <ele>275</ele>
        <time>2017-06-22T09:06:26Z</time>
      </trkpt>
      <trkpt lat="45.98605" lon="4.87268">
        <ele>275</ele>
        <time>2017-06-22T09:06:28Z</time>
      </trkpt>
      <trkpt lat="45.98604" lon="4.87261">
        <ele>275</ele>
        <time>2017-06-22T09:06:29Z</time>
      </trkpt>
      <trkpt lat="45.98604" lon="4.87248">
        <ele>277</ele>
        <time>2017-06-22T09:06:31Z</time>
      </trkpt>
      <trkpt lat="45.98604" lon="4.87243">
        <ele>277</ele>
        <time>2017-06-22T09:06:32Z</time>
      </trkpt>
      <trkpt lat="45.98606" lon="4.87233">
        <ele>277</ele>
        <time>2017-06-22T09:06:34Z</time>
      </trkpt>
      <trkpt lat="45.98607" lon="4.87229">
        <ele>277</ele>
        <time>2017-06-22T09:06:35Z</time>
      </trkpt>
      <trkpt lat="45.98608" lon="4.87217">
        <ele>277</ele>
        <time>2017-06-22T09:06:37Z</time>
      </trkpt>
      <trkpt lat="45.98608" lon="4.87211">
        <ele>277</ele>
        <time>2017-06-22T09:06:38Z</time>
      </trkpt>
      <trkpt lat="45.98609" lon="4.872">
        <ele>277</ele>
        <time>2017-06-22T09:06:40Z</time>
      </trkpt>
      <trkpt lat="45.98609" lon="4.87194">
        <ele>277</ele>
        <time>2017-06-22T09:06:41Z</time>
      </trkpt>
      <trkpt lat="45.98611" lon="4.87182">
        <ele>278</ele>
        <time>2017-06-22T09:06:43Z</time>
      </trkpt>
      <trkpt lat="45.98612" lon="4.87175">
        <ele>278</ele>
        <time>2017-06-22T09:06:44Z</time>
      </trkpt>
      <trkpt lat="45.98613" lon="4.87167">
        <ele>278</ele>
        <time>2017-06-22T09:06:45Z</time>
      </trkpt>
      <trkpt lat="45.98614" lon="4.8716">
        <ele>278</ele>
        <time>2017-06-22T09:06:46Z</time>
      </trkpt>
      <trkpt lat="45.98614" lon="4.87152">
        <ele>278</ele>
        <time>2017-06-22T09:06:47Z</time>
      </trkpt>
      <trkpt lat="45.98615" lon="4.87143">
        <ele>279</ele>
        <time>2017-06-22T09:06:48Z</time>
      </trkpt>
      <trkpt lat="45.98615" lon="4.8713">
        <ele>279</ele>
        <time>2017-06-22T09:06:50Z</time>
      </trkpt>
      <trkpt lat="45.98616" lon="4.87123">
        <ele>279</ele>
        <time>2017-06-22T09:06:51Z</time>
      </trkpt>
      <trkpt lat="45.98615" lon="4.8711">
        <ele>279</ele>
        <time>2017-06-22T09:06:53Z</time>
      </trkpt>
      <trkpt lat="45.98615" lon="4.87104">
        <ele>279</ele>
        <time>2017-06-22T09:06:54Z</time>
      </trkpt>
      <trkpt lat="45.98616" lon="4.87097">
        <ele>279</ele>
        <time>2017-06-22T09:06:55Z</time>
      </trkpt>
      <trkpt lat="45.98615" lon="4.8709">
        <ele>279</ele>
        <time>2017-06-22T09:06:56Z</time>
      </trkpt>
      <trkpt lat="45.98614" lon="4.87083">
        <ele>279</ele>
        <time>2017-06-22T09:06:57Z</time>
      </trkpt>
      <trkpt lat="45.98614" lon="4.87076">
        <ele>279</ele>
        <time>2017-06-22T09:06:58Z</time>
      </trkpt>
      <trkpt lat="45.98614" lon="4.87068">
        <ele>279</ele>
        <time>2017-06-22T09:06:59Z</time>
      </trkpt>
      <trkpt lat="45.98614" lon="4.87062">
        <ele>279</ele>
        <time>2017-06-22T09:07:00Z</time>
      </trkpt>
      <trkpt lat="45.98613" lon="4.87049">
        <ele>279</ele>
        <time>2017-06-22T09:07:02Z</time>
      </trkpt>
      <trkpt lat="45.98612" lon="4.87043">
        <ele>279</ele>
        <time>2017-06-22T09:07:03Z</time>
      </trkpt>
      <trkpt lat="45.98611" lon="4.87036">
        <ele>279</ele>
        <time>2017-06-22T09:07:04Z</time>
      </trkpt>
      <trkpt lat="45.9861" lon="4.87029">
        <ele>279</ele>
        <time>2017-06-22T09:07:05Z</time>
      </trkpt>
      <trkpt lat="45.98609" lon="4.87022">
        <ele>279</ele>
        <time>2017-06-22T09:07:06Z</time>
      </trkpt>
      <trkpt lat="45.98608" lon="4.87016">
        <ele>279</ele>
        <time>2017-06-22T09:07:07Z</time>
      </trkpt>
      <trkpt lat="45.98606" lon="4.87009">
        <ele>279</ele>
        <time>2017-06-22T09:07:08Z</time>
      </trkpt>
      <trkpt lat="45.98605" lon="4.87002">
        <ele>279</ele>
        <time>2017-06-22T09:07:09Z</time>
      </trkpt>
      <trkpt lat="45.98604" lon="4.86996">
        <ele>279</ele>
        <time>2017-06-22T09:07:10Z</time>
      </trkpt>
      <trkpt lat="45.98603" lon="4.86989">
        <ele>279</ele>
        <time>2017-06-22T09:07:11Z</time>
      </trkpt>
      <trkpt lat="45.98603" lon="4.86983">
        <ele>279</ele>
        <time>2017-06-22T09:07:12Z</time>
      </trkpt>
      <trkpt lat="45.98602" lon="4.86976">
        <ele>279</ele>
        <time>2017-06-22T09:07:13Z</time>
      </trkpt>
      <trkpt lat="45.98602" lon="4.8697">
        <ele>278</ele>
        <time>2017-06-22T09:07:14Z</time>
      </trkpt>
      <trkpt lat="45.98602" lon="4.86963">
        <ele>278</ele>
        <time>2017-06-22T09:07:15Z</time>
      </trkpt>
      <trkpt lat="45.98601" lon="4.86956">
        <ele>278</ele>
        <time>2017-06-22T09:07:16Z</time>
      </trkpt>
      <trkpt lat="45.98602" lon="4.86949">
        <ele>278</ele>
        <time>2017-06-22T09:07:17Z</time>
      </trkpt>
      <trkpt lat="45.98602" lon="4.86942">
        <ele>278</ele>
        <time>2017-06-22T09:07:18Z</time>
      </trkpt>
      <trkpt lat="45.98601" lon="4.86935">
        <ele>278</ele>
        <time>2017-06-22T09:07:19Z</time>
      </trkpt>
      <trkpt lat="45.98601" lon="4.86928">
        <ele>278</ele>
        <time>2017-06-22T09:07:20Z</time>
      </trkpt>
      <trkpt lat="45.98601" lon="4.86921">
        <ele>278</ele>
        <time>2017-06-22T09:07:21Z</time>
      </trkpt>
      <trkpt lat="45.98601" lon="4.86909">
        <ele>278</ele>
        <time>2017-06-22T09:07:23Z</time>
      </trkpt>
      <trkpt lat="45.98602" lon="4.86903">
        <ele>278</ele>
        <time>2017-06-22T09:07:24Z</time>
      </trkpt>
      <trkpt lat="45.98603" lon="4.86892">
        <ele>278</ele>
        <time>2017-06-22T09:07:26Z</time>
      </trkpt>
      <trkpt lat="45.98604" lon="4.86886">
        <ele>277</ele>
        <time>2017-06-22T09:07:27Z</time>
      </trkpt>
      <trkpt lat="45.98604" lon="4.86873">
        <ele>277</ele>
        <time>2017-06-22T09:07:29Z</time>
      </trkpt>
      <trkpt lat="45.98605" lon="4.86866">
        <ele>277</ele>
        <time>2017-06-22T09:07:30Z</time>
      </trkpt>
      <trkpt lat="45.98605" lon="4.8686">
        <ele>277</ele>
        <time>2017-06-22T09:07:31Z</time>
      </trkpt>
      <trkpt lat="45.98606" lon="4.86853">
        <ele>277</ele>
        <time>2017-06-22T09:07:32Z</time>
      </trkpt>
      <trkpt lat="45.98606" lon="4.86847">
        <ele>277</ele>
        <time>2017-06-22T09:07:33Z</time>
      </trkpt>
      <trkpt lat="45.98606" lon="4.8684">
        <ele>277</ele>
        <time>2017-06-22T09:07:34Z</time>
      </trkpt>
      <trkpt lat="45.98605" lon="4.86833">
        <ele>276</ele>
        <time>2017-06-22T09:07:35Z</time>
      </trkpt>
      <trkpt lat="45.98605" lon="4.86827">
        <ele>276</ele>
        <time>2017-06-22T09:07:36Z</time>
      </trkpt>
      <trkpt lat="45.98604" lon="4.8682">
        <ele>276</ele>
        <time>2017-06-22T09:07:37Z</time>
      </trkpt>
      <trkpt lat="45.98603" lon="4.86813">
        <ele>276</ele>
        <time>2017-06-22T09:07:38Z</time>
      </trkpt>
      <trkpt lat="45.98602" lon="4.86807">
        <ele>276</ele>
        <time>2017-06-22T09:07:39Z</time>
      </trkpt>
      <trkpt lat="45.98601" lon="4.868">
        <ele>276</ele>
        <time>2017-06-22T09:07:40Z</time>
      </trkpt>
      <trkpt lat="45.98599" lon="4.86794">
        <ele>276</ele>
        <time>2017-06-22T09:07:41Z</time>
      </trkpt>
      <trkpt lat="45.98598" lon="4.86787">
        <ele>276</ele>
        <time>2017-06-22T09:07:42Z</time>
      </trkpt>
      <trkpt lat="45.98597" lon="4.86781">
        <ele>276</ele>
        <time>2017-06-22T09:07:43Z</time>
      </trkpt>
      <trkpt lat="45.98595" lon="4.86774">
        <ele>276</ele>
        <time>2017-06-22T09:07:44Z</time>
      </trkpt>
      <trkpt lat="45.98594" lon="4.86767">
        <ele>276</ele>
        <time>2017-06-22T09:07:45Z</time>
      </trkpt>
      <trkpt lat="45.98592" lon="4.8676">
        <ele>276</ele>
        <time>2017-06-22T09:07:46Z</time>
      </trkpt>
      <trkpt lat="45.98591" lon="4.86753">
        <ele>276</ele>
        <time>2017-06-22T09:07:47Z</time>
      </trkpt>
      <trkpt lat="45.9859" lon="4.86747">
        <ele>276</ele>
        <time>2017-06-22T09:07:48Z</time>
      </trkpt>
      <trkpt lat="45.98589" lon="4.8674">
        <ele>276</ele>
        <time>2017-06-22T09:07:49Z</time>
      </trkpt>
      <trkpt lat="45.98588" lon="4.86734">
        <ele>276</ele>
        <time>2017-06-22T09:07:50Z</time>
      </trkpt>
      <trkpt lat="45.98586" lon="4.86721">
        <ele>275</ele>
        <time>2017-06-22T09:07:52Z</time>
      </trkpt>
      <trkpt lat="45.98586" lon="4.86715">
        <ele>275</ele>
        <time>2017-06-22T09:07:53Z</time>
      </trkpt>
      <trkpt lat="45.98586" lon="4.86703">
        <ele>275</ele>
        <time>2017-06-22T09:07:55Z</time>
      </trkpt>
      <trkpt lat="45.98584" lon="4.86696">
        <ele>275</ele>
        <time>2017-06-22T09:07:56Z</time>
      </trkpt>
      <trkpt lat="45.98584" lon="4.86689">
        <ele>275</ele>
        <time>2017-06-22T09:07:57Z</time>
      </trkpt>
      <trkpt lat="45.98584" lon="4.86682">
        <ele>275</ele>
        <time>2017-06-22T09:07:58Z</time>
      </trkpt>
      <trkpt lat="45.98583" lon="4.86675">
        <ele>276</ele>
        <time>2017-06-22T09:07:59Z</time>
      </trkpt>
      <trkpt lat="45.98583" lon="4.86668">
        <ele>275</ele>
        <time>2017-06-22T09:08:00Z</time>
      </trkpt>
      <trkpt lat="45.98582" lon="4.86661">
        <ele>276</ele>
        <time>2017-06-22T09:08:01Z</time>
      </trkpt>
      <trkpt lat="45.9858" lon="4.86654">
        <ele>276</ele>
        <time>2017-06-22T09:08:02Z</time>
      </trkpt>
      <trkpt lat="45.98579" lon="4.86648">
        <ele>277</ele>
        <time>2017-06-22T09:08:03Z</time>
      </trkpt>
      <trkpt lat="45.98578" lon="4.86641">
        <ele>277</ele>
        <time>2017-06-22T09:08:04Z</time>
      </trkpt>
      <trkpt lat="45.98577" lon="4.86635">
        <ele>277</ele>
        <time>2017-06-22T09:08:05Z</time>
      </trkpt>
      <trkpt lat="45.98576" lon="4.86628">
        <ele>277</ele>
        <time>2017-06-22T09:08:06Z</time>
      </trkpt>
      <trkpt lat="45.98575" lon="4.86621">
        <ele>277</ele>
        <time>2017-06-22T09:08:07Z</time>
      </trkpt>
      <trkpt lat="45.98573" lon="4.86615">
        <ele>277</ele>
        <time>2017-06-22T09:08:08Z</time>
      </trkpt>
      <trkpt lat="45.98571" lon="4.86608">
        <ele>277</ele>
        <time>2017-06-22T09:08:09Z</time>
      </trkpt>
      <trkpt lat="45.98569" lon="4.86601">
        <ele>277</ele>
        <time>2017-06-22T09:08:10Z</time>
      </trkpt>
      <trkpt lat="45.98567" lon="4.86593">
        <ele>277</ele>
        <time>2017-06-22T09:08:11Z</time>
      </trkpt>
      <trkpt lat="45.98565" lon="4.86586">
        <ele>277</ele>
        <time>2017-06-22T09:08:12Z</time>
      </trkpt>
      <trkpt lat="45.98562" lon="4.86578">
        <ele>277</ele>
        <time>2017-06-22T09:08:13Z</time>
      </trkpt>
      <trkpt lat="45.9856" lon="4.86571">
        <ele>278</ele>
        <time>2017-06-22T09:08:14Z</time>
      </trkpt>
      <trkpt lat="45.98557" lon="4.86565">
        <ele>278</ele>
        <time>2017-06-22T09:08:15Z</time>
      </trkpt>
      <trkpt lat="45.98555" lon="4.86559">
        <ele>278</ele>
        <time>2017-06-22T09:08:16Z</time>
      </trkpt>
      <trkpt lat="45.98552" lon="4.86554">
        <ele>278</ele>
        <time>2017-06-22T09:08:17Z</time>
      </trkpt>
      <trkpt lat="45.98549" lon="4.86548">
        <ele>278</ele>
        <time>2017-06-22T09:08:18Z</time>
      </trkpt>
      <trkpt lat="45.98546" lon="4.86542">
        <ele>278</ele>
        <time>2017-06-22T09:08:19Z</time>
      </trkpt>
      <trkpt lat="45.98543" lon="4.86537">
        <ele>278</ele>
        <time>2017-06-22T09:08:20Z</time>
      </trkpt>
      <trkpt lat="45.98539" lon="4.86532">
        <ele>278</ele>
        <time>2017-06-22T09:08:21Z</time>
      </trkpt>
      <trkpt lat="45.98535" lon="4.86526">
        <ele>278</ele>
        <time>2017-06-22T09:08:22Z</time>
      </trkpt>
      <trkpt lat="45.98532" lon="4.86519">
        <ele>278</ele>
        <time>2017-06-22T09:08:23Z</time>
      </trkpt>
      <trkpt lat="45.9853" lon="4.86513">
        <ele>279</ele>
        <time>2017-06-22T09:08:24Z</time>
      </trkpt>
      <trkpt lat="45.98526" lon="4.86506">
        <ele>279</ele>
        <time>2017-06-22T09:08:25Z</time>
      </trkpt>
      <trkpt lat="45.98523" lon="4.865">
        <ele>279</ele>
        <time>2017-06-22T09:08:26Z</time>
      </trkpt>
      <trkpt lat="45.98521" lon="4.86494">
        <ele>278</ele>
        <time>2017-06-22T09:08:27Z</time>
      </trkpt>
      <trkpt lat="45.98518" lon="4.86488">
        <ele>278</ele>
        <time>2017-06-22T09:08:28Z</time>
      </trkpt>
      <trkpt lat="45.98515" lon="4.86481">
        <ele>278</ele>
        <time>2017-06-22T09:08:29Z</time>
      </trkpt>
      <trkpt lat="45.98513" lon="4.86475">
        <ele>278</ele>
        <time>2017-06-22T09:08:30Z</time>
      </trkpt>
      <trkpt lat="45.9851" lon="4.86469">
        <ele>278</ele>
        <time>2017-06-22T09:08:31Z</time>
      </trkpt>
      <trkpt lat="45.98508" lon="4.86463">
        <ele>278</ele>
        <time>2017-06-22T09:08:32Z</time>
      </trkpt>
      <trkpt lat="45.98506" lon="4.86457">
        <ele>278</ele>
        <time>2017-06-22T09:08:33Z</time>
      </trkpt>
      <trkpt lat="45.98502" lon="4.86452">
        <ele>278</ele>
        <time>2017-06-22T09:08:34Z</time>
      </trkpt>
      <trkpt lat="45.98497" lon="4.86442">
        <ele>278</ele>
        <time>2017-06-22T09:08:36Z</time>
      </trkpt>
      <trkpt lat="45.98495" lon="4.86437">
        <ele>278</ele>
        <time>2017-06-22T09:08:37Z</time>
      </trkpt>
      <trkpt lat="45.9849" lon="4.86426">
        <ele>278</ele>
        <time>2017-06-22T09:08:39Z</time>
      </trkpt>
      <trkpt lat="45.98487" lon="4.86419">
        <ele>278</ele>
        <time>2017-06-22T09:08:40Z</time>
      </trkpt>
      <trkpt lat="45.98484" lon="4.86411">
        <ele>278</ele>
        <time>2017-06-22T09:08:41Z</time>
      </trkpt>
      <trkpt lat="45.98481" lon="4.86404">
        <ele>277</ele>
        <time>2017-06-22T09:08:42Z</time>
      </trkpt>
      <trkpt lat="45.98477" lon="4.86397">
        <ele>277</ele>
        <time>2017-06-22T09:08:43Z</time>
      </trkpt>
      <trkpt lat="45.98474" lon="4.86391">
        <ele>277</ele>
        <time>2017-06-22T09:08:44Z</time>
      </trkpt>
      <trkpt lat="45.98471" lon="4.86385">
        <ele>277</ele>
        <time>2017-06-22T09:08:45Z</time>
      </trkpt>
      <trkpt lat="45.98467" lon="4.86379">
        <ele>277</ele>
        <time>2017-06-22T09:08:46Z</time>
      </trkpt>
      <trkpt lat="45.98465" lon="4.86373">
        <ele>277</ele>
        <time>2017-06-22T09:08:47Z</time>
      </trkpt>
      <trkpt lat="45.98463" lon="4.86367">
        <ele>277</ele>
        <time>2017-06-22T09:08:48Z</time>
      </trkpt>
      <trkpt lat="45.98462" lon="4.8636">
        <ele>277</ele>
        <time>2017-06-22T09:08:49Z</time>
      </trkpt>
      <trkpt lat="45.9846" lon="4.86354">
        <ele>277</ele>
        <time>2017-06-22T09:08:50Z</time>
      </trkpt>
      <trkpt lat="45.98456" lon="4.86344">
        <ele>277</ele>
        <time>2017-06-22T09:08:52Z</time>
      </trkpt>
      <trkpt lat="45.98454" lon="4.86338">
        <ele>277</ele>
        <time>2017-06-22T09:08:53Z</time>
      </trkpt>
      <trkpt lat="45.98452" lon="4.86332">
        <ele>276</ele>
        <time>2017-06-22T09:08:54Z</time>
      </trkpt>
      <trkpt lat="45.9845" lon="4.86326">
        <ele>276</ele>
        <time>2017-06-22T09:08:55Z</time>
      </trkpt>
      <trkpt lat="45.98448" lon="4.86319">
        <ele>276</ele>
        <time>2017-06-22T09:08:56Z</time>
      </trkpt>
      <trkpt lat="45.98447" lon="4.86312">
        <ele>276</ele>
        <time>2017-06-22T09:08:57Z</time>
      </trkpt>
      <trkpt lat="45.98446" lon="4.86306">
        <ele>276</ele>
        <time>2017-06-22T09:08:58Z</time>
      </trkpt>
      <trkpt lat="45.98445" lon="4.86299">
        <ele>276</ele>
        <time>2017-06-22T09:08:59Z</time>
      </trkpt>
      <trkpt lat="45.98444" lon="4.86292">
        <ele>276</ele>
        <time>2017-06-22T09:09:00Z</time>
      </trkpt>
      <trkpt lat="45.98443" lon="4.86285">
        <ele>276</ele>
        <time>2017-06-22T09:09:01Z</time>
      </trkpt>
      <trkpt lat="45.98442" lon="4.86278">
        <ele>276</ele>
        <time>2017-06-22T09:09:02Z</time>
      </trkpt>
      <trkpt lat="45.98441" lon="4.86271">
        <ele>276</ele>
        <time>2017-06-22T09:09:03Z</time>
      </trkpt>
      <trkpt lat="45.9844" lon="4.86264">
        <ele>275</ele>
        <time>2017-06-22T09:09:04Z</time>
      </trkpt>
      <trkpt lat="45.98439" lon="4.86257">
        <ele>275</ele>
        <time>2017-06-22T09:09:05Z</time>
      </trkpt>
      <trkpt lat="45.98437" lon="4.86249">
        <ele>275</ele>
        <time>2017-06-22T09:09:06Z</time>
      </trkpt>
      <trkpt lat="45.98436" lon="4.86242">
        <ele>275</ele>
        <time>2017-06-22T09:09:07Z</time>
      </trkpt>
      <trkpt lat="45.98434" lon="4.86234">
        <ele>275</ele>
        <time>2017-06-22T09:09:08Z</time>
      </trkpt>
      <trkpt lat="45.98433" lon="4.86227">
        <ele>275</ele>
        <time>2017-06-22T09:09:09Z</time>
      </trkpt>
      <trkpt lat="45.98431" lon="4.8622">
        <ele>275</ele>
        <time>2017-06-22T09:09:10Z</time>
      </trkpt>
      <trkpt lat="45.9843" lon="4.86213">
        <ele>275</ele>
        <time>2017-06-22T09:09:11Z</time>
      </trkpt>
      <trkpt lat="45.98428" lon="4.86206">
        <ele>275</ele>
        <time>2017-06-22T09:09:12Z</time>
      </trkpt>
      <trkpt lat="45.98427" lon="4.86199">
        <ele>275</ele>
        <time>2017-06-22T09:09:13Z</time>
      </trkpt>
      <trkpt lat="45.98425" lon="4.86187">
        <ele>275</ele>
        <time>2017-06-22T09:09:15Z</time>
      </trkpt>
      <trkpt lat="45.98425" lon="4.86181">
        <ele>275</ele>
        <time>2017-06-22T09:09:16Z</time>
      </trkpt>
      <trkpt lat="45.98423" lon="4.8617">
        <ele>276</ele>
        <time>2017-06-22T09:09:18Z</time>
      </trkpt>
      <trkpt lat="45.98422" lon="4.86164">
        <ele>276</ele>
        <time>2017-06-22T09:09:19Z</time>
      </trkpt>
      <trkpt lat="45.9842" lon="4.86153">
        <ele>276</ele>
        <time>2017-06-22T09:09:21Z</time>
      </trkpt>
      <trkpt lat="45.98419" lon="4.86147">
        <ele>276</ele>
        <time>2017-06-22T09:09:22Z</time>
      </trkpt>
      <trkpt lat="45.98416" lon="4.86135">
        <ele>276</ele>
        <time>2017-06-22T09:09:24Z</time>
      </trkpt>
      <trkpt lat="45.98415" lon="4.86128">
        <ele>276</ele>
        <time>2017-06-22T09:09:25Z</time>
      </trkpt>
      <trkpt lat="45.98414" lon="4.86121">
        <ele>277</ele>
        <time>2017-06-22T09:09:26Z</time>
      </trkpt>
      <trkpt lat="45.98413" lon="4.86114">
        <ele>277</ele>
        <time>2017-06-22T09:09:27Z</time>
      </trkpt>
      <trkpt lat="45.98412" lon="4.86106">
        <ele>277</ele>
        <time>2017-06-22T09:09:28Z</time>
      </trkpt>
      <trkpt lat="45.98411" lon="4.86097">
        <ele>277</ele>
        <time>2017-06-22T09:09:29Z</time>
      </trkpt>
      <trkpt lat="45.98409" lon="4.86089">
        <ele>277</ele>
        <time>2017-06-22T09:09:30Z</time>
      </trkpt>
      <trkpt lat="45.98407" lon="4.8608">
        <ele>277</ele>
        <time>2017-06-22T09:09:31Z</time>
      </trkpt>
      <trkpt lat="45.98405" lon="4.86071">
        <ele>277</ele>
        <time>2017-06-22T09:09:32Z</time>
      </trkpt>
      <trkpt lat="45.98403" lon="4.86061">
        <ele>277</ele>
        <time>2017-06-22T09:09:33Z</time>
      </trkpt>
      <trkpt lat="45.984" lon="4.86052">
        <ele>277</ele>
        <time>2017-06-22T09:09:34Z</time>
      </trkpt>
      <trkpt lat="45.98397" lon="4.86042">
        <ele>277</ele>
        <time>2017-06-22T09:09:35Z</time>
      </trkpt>
      <trkpt lat="45.98393" lon="4.86033">
        <ele>277</ele>
        <time>2017-06-22T09:09:36Z</time>
      </trkpt>
      <trkpt lat="45.9839" lon="4.86024">
        <ele>277</ele>
        <time>2017-06-22T09:09:37Z</time>
      </trkpt>
      <trkpt lat="45.98386" lon="4.86015">
        <ele>277</ele>
        <time>2017-06-22T09:09:38Z</time>
      </trkpt>
      <trkpt lat="45.98383" lon="4.86007">
        <ele>277</ele>
        <time>2017-06-22T09:09:39Z</time>
      </trkpt>
      <trkpt lat="45.9838" lon="4.85998">
        <ele>277</ele>
        <time>2017-06-22T09:09:40Z</time>
      </trkpt>
      <trkpt lat="45.98378" lon="4.85991">
        <ele>276</ele>
        <time>2017-06-22T09:09:41Z</time>
      </trkpt>
      <trkpt lat="45.98374" lon="4.85983">
        <ele>276</ele>
        <time>2017-06-22T09:09:42Z</time>
      </trkpt>
      <trkpt lat="45.98371" lon="4.85975">
        <ele>276</ele>
        <time>2017-06-22T09:09:43Z</time>
      </trkpt>
      <trkpt lat="45.98368" lon="4.85967">
        <ele>276</ele>
        <time>2017-06-22T09:09:44Z</time>
      </trkpt>
      <trkpt lat="45.98365" lon="4.85959">
        <ele>276</ele>
        <time>2017-06-22T09:09:45Z</time>
      </trkpt>
      <trkpt lat="45.98362" lon="4.85952">
        <ele>276</ele>
        <time>2017-06-22T09:09:46Z</time>
      </trkpt>
      <trkpt lat="45.9836" lon="4.85945">
        <ele>276</ele>
        <time>2017-06-22T09:09:47Z</time>
      </trkpt>
      <trkpt lat="45.98358" lon="4.85939">
        <ele>276</ele>
        <time>2017-06-22T09:09:48Z</time>
      </trkpt>
      <trkpt lat="45.98356" lon="4.85933">
        <ele>276</ele>
        <time>2017-06-22T09:09:49Z</time>
      </trkpt>
      <trkpt lat="45.98354" lon="4.85926">
        <ele>276</ele>
        <time>2017-06-22T09:09:50Z</time>
      </trkpt>
      <trkpt lat="45.98351" lon="4.8592">
        <ele>276</ele>
        <time>2017-06-22T09:09:51Z</time>
      </trkpt>
      <trkpt lat="45.98349" lon="4.85913">
        <ele>276</ele>
        <time>2017-06-22T09:09:52Z</time>
      </trkpt>
      <trkpt lat="45.98347" lon="4.85907">
        <ele>276</ele>
        <time>2017-06-22T09:09:53Z</time>
      </trkpt>
      <trkpt lat="45.98346" lon="4.859">
        <ele>276</ele>
        <time>2017-06-22T09:09:54Z</time>
      </trkpt>
      <trkpt lat="45.98344" lon="4.85894">
        <ele>276</ele>
        <time>2017-06-22T09:09:55Z</time>
      </trkpt>
      <trkpt lat="45.98342" lon="4.85888">
        <ele>276</ele>
        <time>2017-06-22T09:09:56Z</time>
      </trkpt>
      <trkpt lat="45.9834" lon="4.85882">
        <ele>276</ele>
        <time>2017-06-22T09:09:57Z</time>
      </trkpt>
      <trkpt lat="45.98337" lon="4.85876">
        <ele>276</ele>
        <time>2017-06-22T09:09:58Z</time>
      </trkpt>
      <trkpt lat="45.98335" lon="4.8587">
        <ele>276</ele>
        <time>2017-06-22T09:09:59Z</time>
      </trkpt>
      <trkpt lat="45.98332" lon="4.85864">
        <ele>276</ele>
        <time>2017-06-22T09:10:00Z</time>
      </trkpt>
      <trkpt lat="45.9833" lon="4.85858">
        <ele>276</ele>
        <time>2017-06-22T09:10:01Z</time>
      </trkpt>
      <trkpt lat="45.98327" lon="4.85853">
        <ele>276</ele>
        <time>2017-06-22T09:10:02Z</time>
      </trkpt>
      <trkpt lat="45.98325" lon="4.85846">
        <ele>276</ele>
        <time>2017-06-22T09:10:03Z</time>
      </trkpt>
      <trkpt lat="45.98323" lon="4.8584">
        <ele>276</ele>
        <time>2017-06-22T09:10:04Z</time>
      </trkpt>
      <trkpt lat="45.98321" lon="4.85834">
        <ele>276</ele>
        <time>2017-06-22T09:10:05Z</time>
      </trkpt>
      <trkpt lat="45.98319" lon="4.85828">
        <ele>276</ele>
        <time>2017-06-22T09:10:06Z</time>
      </trkpt>
      <trkpt lat="45.98317" lon="4.85822">
        <ele>275</ele>
        <time>2017-06-22T09:10:07Z</time>
      </trkpt>
      <trkpt lat="45.98314" lon="4.85816">
        <ele>275</ele>
        <time>2017-06-22T09:10:08Z</time>
      </trkpt>
      <trkpt lat="45.98311" lon="4.8581">
        <ele>275</ele>
        <time>2017-06-22T09:10:09Z</time>
      </trkpt>
      <trkpt lat="45.98309" lon="4.85803">
        <ele>275</ele>
        <time>2017-06-22T09:10:10Z</time>
      </trkpt>
      <trkpt lat="45.98306" lon="4.85797">
        <ele>275</ele>
        <time>2017-06-22T09:10:11Z</time>
      </trkpt>
      <trkpt lat="45.98303" lon="4.8579">
        <ele>275</ele>
        <time>2017-06-22T09:10:12Z</time>
      </trkpt>
      <trkpt lat="45.983" lon="4.85784">
        <ele>275</ele>
        <time>2017-06-22T09:10:13Z</time>
      </trkpt>
      <trkpt lat="45.98298" lon="4.85777">
        <ele>275</ele>
        <time>2017-06-22T09:10:14Z</time>
      </trkpt>
      <trkpt lat="45.98295" lon="4.85771">
        <ele>275</ele>
        <time>2017-06-22T09:10:15Z</time>
      </trkpt>
      <trkpt lat="45.98293" lon="4.85764">
        <ele>275</ele>
        <time>2017-06-22T09:10:16Z</time>
      </trkpt>
      <trkpt lat="45.98291" lon="4.85757">
        <ele>275</ele>
        <time>2017-06-22T09:10:17Z</time>
      </trkpt>
      <trkpt lat="45.98288" lon="4.85751">
        <ele>275</ele>
        <time>2017-06-22T09:10:18Z</time>
      </trkpt>
      <trkpt lat="45.98285" lon="4.85744">
        <ele>274</ele>
        <time>2017-06-22T09:10:19Z</time>
      </trkpt>
      <trkpt lat="45.98283" lon="4.85738">
        <ele>274</ele>
        <time>2017-06-22T09:10:20Z</time>
      </trkpt>
      <trkpt lat="45.98281" lon="4.85731">
        <ele>274</ele>
        <time>2017-06-22T09:10:21Z</time>
      </trkpt>
      <trkpt lat="45.98278" lon="4.85725">
        <ele>274</ele>
        <time>2017-06-22T09:10:22Z</time>
      </trkpt>
      <trkpt lat="45.98276" lon="4.85718">
        <ele>274</ele>
        <time>2017-06-22T09:10:23Z</time>
      </trkpt>
      <trkpt lat="45.98274" lon="4.85712">
        <ele>274</ele>
        <time>2017-06-22T09:10:24Z</time>
      </trkpt>
      <trkpt lat="45.98272" lon="4.85706">
        <ele>275</ele>
        <time>2017-06-22T09:10:25Z</time>
      </trkpt>
      <trkpt lat="45.98269" lon="4.857">
        <ele>275</ele>
        <time>2017-06-22T09:10:26Z</time>
      </trkpt>
      <trkpt lat="45.98266" lon="4.85693">
        <ele>275</ele>
        <time>2017-06-22T09:10:27Z</time>
      </trkpt>
      <trkpt lat="45.98264" lon="4.85687">
        <ele>275</ele>
        <time>2017-06-22T09:10:28Z</time>
      </trkpt>
      <trkpt lat="45.98261" lon="4.85681">
        <ele>275</ele>
        <time>2017-06-22T09:10:29Z</time>
      </trkpt>
      <trkpt lat="45.98258" lon="4.85674">
        <ele>275</ele>
        <time>2017-06-22T09:10:30Z</time>
      </trkpt>
      <trkpt lat="45.98255" lon="4.85668">
        <ele>276</ele>
        <time>2017-06-22T09:10:31Z</time>
      </trkpt>
      <trkpt lat="45.98252" lon="4.85662">
        <ele>276</ele>
        <time>2017-06-22T09:10:32Z</time>
      </trkpt>
      <trkpt lat="45.9825" lon="4.85656">
        <ele>276</ele>
        <time>2017-06-22T09:10:33Z</time>
      </trkpt>
      <trkpt lat="45.98248" lon="4.8565">
        <ele>276</ele>
        <time>2017-06-22T09:10:34Z</time>
      </trkpt>
      <trkpt lat="45.98246" lon="4.85644">
        <ele>276</ele>
        <time>2017-06-22T09:10:35Z</time>
      </trkpt>
      <trkpt lat="45.98243" lon="4.85639">
        <ele>277</ele>
        <time>2017-06-22T09:10:36Z</time>
      </trkpt>
      <trkpt lat="45.9824" lon="4.85633">
        <ele>277</ele>
        <time>2017-06-22T09:10:37Z</time>
      </trkpt>
      <trkpt lat="45.98238" lon="4.85627">
        <ele>277</ele>
        <time>2017-06-22T09:10:38Z</time>
      </trkpt>
      <trkpt lat="45.98235" lon="4.8562">
        <ele>277</ele>
        <time>2017-06-22T09:10:39Z</time>
      </trkpt>
      <trkpt lat="45.98233" lon="4.85614">
        <ele>277</ele>
        <time>2017-06-22T09:10:40Z</time>
      </trkpt>
      <trkpt lat="45.9823" lon="4.85607">
        <ele>277</ele>
        <time>2017-06-22T09:10:41Z</time>
      </trkpt>
      <trkpt lat="45.98227" lon="4.85601">
        <ele>277</ele>
        <time>2017-06-22T09:10:42Z</time>
      </trkpt>
      <trkpt lat="45.98224" lon="4.85594">
        <ele>277</ele>
        <time>2017-06-22T09:10:43Z</time>
      </trkpt>
      <trkpt lat="45.98222" lon="4.85588">
        <ele>277</ele>
        <time>2017-06-22T09:10:44Z</time>
      </trkpt>
      <trkpt lat="45.98219" lon="4.85582">
        <ele>276</ele>
        <time>2017-06-22T09:10:45Z</time>
      </trkpt>
      <trkpt lat="45.98217" lon="4.85576">
        <ele>276</ele>
        <time>2017-06-22T09:10:46Z</time>
      </trkpt>
      <trkpt lat="45.98214" lon="4.8557">
        <ele>276</ele>
        <time>2017-06-22T09:10:47Z</time>
      </trkpt>
      <trkpt lat="45.98211" lon="4.85564">
        <ele>276</ele>
        <time>2017-06-22T09:10:48Z</time>
      </trkpt>
      <trkpt lat="45.98208" lon="4.85558">
        <ele>276</ele>
        <time>2017-06-22T09:10:49Z</time>
      </trkpt>
      <trkpt lat="45.98205" lon="4.85552">
        <ele>276</ele>
        <time>2017-06-22T09:10:50Z</time>
      </trkpt>
      <trkpt lat="45.98203" lon="4.85547">
        <ele>276</ele>
        <time>2017-06-22T09:10:51Z</time>
      </trkpt>
      <trkpt lat="45.98201" lon="4.85541">
        <ele>276</ele>
        <time>2017-06-22T09:10:52Z</time>
      </trkpt>
      <trkpt lat="45.98198" lon="4.85535">
        <ele>276</ele>
        <time>2017-06-22T09:10:53Z</time>
      </trkpt>
      <trkpt lat="45.98196" lon="4.85528">
        <ele>276</ele>
        <time>2017-06-22T09:10:54Z</time>
      </trkpt>
      <trkpt lat="45.98193" lon="4.85522">
        <ele>276</ele>
        <time>2017-06-22T09:10:55Z</time>
      </trkpt>
      <trkpt lat="45.9819" lon="4.85516">
        <ele>275</ele>
        <time>2017-06-22T09:10:56Z</time>
      </trkpt>
      <trkpt lat="45.98187" lon="4.8551">
        <ele>275</ele>
        <time>2017-06-22T09:10:57Z</time>
      </trkpt>
      <trkpt lat="45.98185" lon="4.85504">
        <ele>275</ele>
        <time>2017-06-22T09:10:58Z</time>
      </trkpt>
      <trkpt lat="45.98183" lon="4.85498">
        <ele>275</ele>
        <time>2017-06-22T09:10:59Z</time>
      </trkpt>
      <trkpt lat="45.98181" lon="4.85492">
        <ele>275</ele>
        <time>2017-06-22T09:11:00Z</time>
      </trkpt>
      <trkpt lat="45.98178" lon="4.85486">
        <ele>275</ele>
        <time>2017-06-22T09:11:01Z</time>
      </trkpt>
      <trkpt lat="45.98175" lon="4.8548">
        <ele>275</ele>
        <time>2017-06-22T09:11:02Z</time>
      </trkpt>
      <trkpt lat="45.98172" lon="4.85474">
        <ele>275</ele>
        <time>2017-06-22T09:11:03Z</time>
      </trkpt>
      <trkpt lat="45.9817" lon="4.85467">
        <ele>275</ele>
        <time>2017-06-22T09:11:04Z</time>
      </trkpt>
      <trkpt lat="45.98167" lon="4.85461">
        <ele>275</ele>
        <time>2017-06-22T09:11:05Z</time>
      </trkpt>
      <trkpt lat="45.98164" lon="4.85456">
        <ele>276</ele>
        <time>2017-06-22T09:11:06Z</time>
      </trkpt>
      <trkpt lat="45.98162" lon="4.8545">
        <ele>276</ele>
        <time>2017-06-22T09:11:07Z</time>
      </trkpt>
      <trkpt lat="45.98159" lon="4.85444">
        <ele>276</ele>
        <time>2017-06-22T09:11:08Z</time>
      </trkpt>
      <trkpt lat="45.98157" lon="4.85438">
        <ele>276</ele>
        <time>2017-06-22T09:11:09Z</time>
      </trkpt>
      <trkpt lat="45.98154" lon="4.85432">
        <ele>276</ele>
        <time>2017-06-22T09:11:10Z</time>
      </trkpt>
      <trkpt lat="45.98151" lon="4.85426">
        <ele>276</ele>
        <time>2017-06-22T09:11:11Z</time>
      </trkpt>
      <trkpt lat="45.98149" lon="4.8542">
        <ele>276</ele>
        <time>2017-06-22T09:11:12Z</time>
      </trkpt>
      <trkpt lat="45.98146" lon="4.85414">
        <ele>276</ele>
        <time>2017-06-22T09:11:13Z</time>
      </trkpt>
      <trkpt lat="45.98144" lon="4.85408">
        <ele>276</ele>
        <time>2017-06-22T09:11:14Z</time>
      </trkpt>
      <trkpt lat="45.98142" lon="4.85402">
        <ele>276</ele>
        <time>2017-06-22T09:11:15Z</time>
      </trkpt>
      <trkpt lat="45.9814" lon="4.85396">
        <ele>276</ele>
        <time>2017-06-22T09:11:16Z</time>
      </trkpt>
      <trkpt lat="45.98138" lon="4.8539">
        <ele>276</ele>
        <time>2017-06-22T09:11:17Z</time>
      </trkpt>
      <trkpt lat="45.98135" lon="4.85384">
        <ele>276</ele>
        <time>2017-06-22T09:11:18Z</time>
      </trkpt>
      <trkpt lat="45.98133" lon="4.85378">
        <ele>276</ele>
        <time>2017-06-22T09:11:19Z</time>
      </trkpt>
      <trkpt lat="45.9813" lon="4.85372">
        <ele>276</ele>
        <time>2017-06-22T09:11:20Z</time>
      </trkpt>
      <trkpt lat="45.98128" lon="4.85366">
        <ele>276</ele>
        <time>2017-06-22T09:11:21Z</time>
      </trkpt>
      <trkpt lat="45.98126" lon="4.8536">
        <ele>276</ele>
        <time>2017-06-22T09:11:22Z</time>
      </trkpt>
      <trkpt lat="45.98124" lon="4.85354">
        <ele>276</ele>
        <time>2017-06-22T09:11:23Z</time>
      </trkpt>
      <trkpt lat="45.9812" lon="4.85343">
        <ele>276</ele>
        <time>2017-06-22T09:11:25Z</time>
      </trkpt>
      <trkpt lat="45.98117" lon="4.85337">
        <ele>276</ele>
        <time>2017-06-22T09:11:26Z</time>
      </trkpt>
      <trkpt lat="45.98114" lon="4.8533">
        <ele>276</ele>
        <time>2017-06-22T09:11:27Z</time>
      </trkpt>
      <trkpt lat="45.98112" lon="4.85325">
        <ele>276</ele>
        <time>2017-06-22T09:11:28Z</time>
      </trkpt>
      <trkpt lat="45.98108" lon="4.85314">
        <ele>276</ele>
        <time>2017-06-22T09:11:30Z</time>
      </trkpt>
      <trkpt lat="45.98106" lon="4.85308">
        <ele>276</ele>
        <time>2017-06-22T09:11:31Z</time>
      </trkpt>
      <trkpt lat="45.98104" lon="4.85303">
        <ele>276</ele>
        <time>2017-06-22T09:11:32Z</time>
      </trkpt>
      <trkpt lat="45.98102" lon="4.85297">
        <ele>276</ele>
        <time>2017-06-22T09:11:33Z</time>
      </trkpt>
      <trkpt lat="45.98099" lon="4.85291">
        <ele>276</ele>
        <time>2017-06-22T09:11:34Z</time>
      </trkpt>
      <trkpt lat="45.98097" lon="4.85285">
        <ele>276</ele>
        <time>2017-06-22T09:11:35Z</time>
      </trkpt>
      <trkpt lat="45.98094" lon="4.85279">
        <ele>276</ele>
        <time>2017-06-22T09:11:36Z</time>
      </trkpt>
      <trkpt lat="45.98091" lon="4.85274">
        <ele>276</ele>
        <time>2017-06-22T09:11:37Z</time>
      </trkpt>
      <trkpt lat="45.98085" lon="4.85264">
        <ele>276</ele>
        <time>2017-06-22T09:11:39Z</time>
      </trkpt>
      <trkpt lat="45.98083" lon="4.85259">
        <ele>276</ele>
        <time>2017-06-22T09:11:40Z</time>
      </trkpt>
      <trkpt lat="45.98078" lon="4.85251">
        <ele>276</ele>
        <time>2017-06-22T09:11:42Z</time>
      </trkpt>
      <trkpt lat="45.98075" lon="4.85247">
        <ele>276</ele>
        <time>2017-06-22T09:11:43Z</time>
      </trkpt>
      <trkpt lat="45.98071" lon="4.8524">
        <ele>276</ele>
        <time>2017-06-22T09:11:45Z</time>
      </trkpt>
      <trkpt lat="45.98068" lon="4.85236">
        <ele>276</ele>
        <time>2017-06-22T09:11:46Z</time>
      </trkpt>
      <trkpt lat="45.98065" lon="4.85229">
        <ele>276</ele>
        <time>2017-06-22T09:11:48Z</time>
      </trkpt>
      <trkpt lat="45.98063" lon="4.85224">
        <ele>276</ele>
        <time>2017-06-22T09:11:49Z</time>
      </trkpt>
      <trkpt lat="45.98059" lon="4.85213">
        <ele>276</ele>
        <time>2017-06-22T09:11:51Z</time>
      </trkpt>
      <trkpt lat="45.98057" lon="4.85207">
        <ele>276</ele>
        <time>2017-06-22T09:11:52Z</time>
      </trkpt>
      <trkpt lat="45.98054" lon="4.85201">
        <ele>276</ele>
        <time>2017-06-22T09:11:53Z</time>
      </trkpt>
      <trkpt lat="45.98051" lon="4.85194">
        <ele>276</ele>
        <time>2017-06-22T09:11:54Z</time>
      </trkpt>
      <trkpt lat="45.98049" lon="4.85186">
        <ele>276</ele>
        <time>2017-06-22T09:11:55Z</time>
      </trkpt>
      <trkpt lat="45.98047" lon="4.85179">
        <ele>276</ele>
        <time>2017-06-22T09:11:56Z</time>
      </trkpt>
      <trkpt lat="45.98044" lon="4.85171">
        <ele>275</ele>
        <time>2017-06-22T09:11:57Z</time>
      </trkpt>
      <trkpt lat="45.98042" lon="4.85163">
        <ele>275</ele>
        <time>2017-06-22T09:11:58Z</time>
      </trkpt>
      <trkpt lat="45.98039" lon="4.85155">
        <ele>275</ele>
        <time>2017-06-22T09:11:59Z</time>
      </trkpt>
      <trkpt lat="45.98037" lon="4.85148">
        <ele>275</ele>
        <time>2017-06-22T09:12:00Z</time>
      </trkpt>
      <trkpt lat="45.98034" lon="4.8514">
        <ele>275</ele>
        <time>2017-06-22T09:12:01Z</time>
      </trkpt>
      <trkpt lat="45.98033" lon="4.85133">
        <ele>275</ele>
        <time>2017-06-22T09:12:02Z</time>
      </trkpt>
      <trkpt lat="45.98031" lon="4.85125">
        <ele>274</ele>
        <time>2017-06-22T09:12:03Z</time>
      </trkpt>
      <trkpt lat="45.98029" lon="4.85117">
        <ele>274</ele>
        <time>2017-06-22T09:12:04Z</time>
      </trkpt>
      <trkpt lat="45.98027" lon="4.85109">
        <ele>274</ele>
        <time>2017-06-22T09:12:05Z</time>
      </trkpt>
      <trkpt lat="45.98025" lon="4.85102">
        <ele>274</ele>
        <time>2017-06-22T09:12:06Z</time>
      </trkpt>
      <trkpt lat="45.98024" lon="4.85094">
        <ele>274</ele>
        <time>2017-06-22T09:12:07Z</time>
      </trkpt>
      <trkpt lat="45.98023" lon="4.85086">
        <ele>274</ele>
        <time>2017-06-22T09:12:08Z</time>
      </trkpt>
      <trkpt lat="45.98023" lon="4.85078">
        <ele>273</ele>
        <time>2017-06-22T09:12:09Z</time>
      </trkpt>
      <trkpt lat="45.98022" lon="4.85071">
        <ele>273</ele>
        <time>2017-06-22T09:12:10Z</time>
      </trkpt>
      <trkpt lat="45.98022" lon="4.85063">
        <ele>273</ele>
        <time>2017-06-22T09:12:11Z</time>
      </trkpt>
      <trkpt lat="45.98022" lon="4.85056">
        <ele>273</ele>
        <time>2017-06-22T09:12:12Z</time>
      </trkpt>
      <trkpt lat="45.98022" lon="4.85048">
        <ele>273</ele>
        <time>2017-06-22T09:12:13Z</time>
      </trkpt>
      <trkpt lat="45.98021" lon="4.8504">
        <ele>273</ele>
        <time>2017-06-22T09:12:14Z</time>
      </trkpt>
      <trkpt lat="45.98021" lon="4.85032">
        <ele>273</ele>
        <time>2017-06-22T09:12:15Z</time>
      </trkpt>
      <trkpt lat="45.9802" lon="4.85023">
        <ele>273</ele>
        <time>2017-06-22T09:12:16Z</time>
      </trkpt>
      <trkpt lat="45.9802" lon="4.85014">
        <ele>273</ele>
        <time>2017-06-22T09:12:17Z</time>
      </trkpt>
      <trkpt lat="45.98019" lon="4.85006">
        <ele>272</ele>
        <time>2017-06-22T09:12:18Z</time>
      </trkpt>
      <trkpt lat="45.98018" lon="4.84997">
        <ele>272</ele>
        <time>2017-06-22T09:12:19Z</time>
      </trkpt>
      <trkpt lat="45.98017" lon="4.84989">
        <ele>272</ele>
        <time>2017-06-22T09:12:20Z</time>
      </trkpt>
      <trkpt lat="45.98016" lon="4.84981">
        <ele>272</ele>
        <time>2017-06-22T09:12:21Z</time>
      </trkpt>
      <trkpt lat="45.98015" lon="4.84973">
        <ele>272</ele>
        <time>2017-06-22T09:12:22Z</time>
      </trkpt>
      <trkpt lat="45.98015" lon="4.84964">
        <ele>272</ele>
        <time>2017-06-22T09:12:23Z</time>
      </trkpt>
      <trkpt lat="45.98014" lon="4.84955">
        <ele>272</ele>
        <time>2017-06-22T09:12:24Z</time>
      </trkpt>
      <trkpt lat="45.98013" lon="4.84947">
        <ele>272</ele>
        <time>2017-06-22T09:12:25Z</time>
      </trkpt>
      <trkpt lat="45.98012" lon="4.84938">
        <ele>272</ele>
        <time>2017-06-22T09:12:26Z</time>
      </trkpt>
      <trkpt lat="45.98011" lon="4.8493">
        <ele>272</ele>
        <time>2017-06-22T09:12:27Z</time>
      </trkpt>
      <trkpt lat="45.98011" lon="4.84923">
        <ele>272</ele>
        <time>2017-06-22T09:12:28Z</time>
      </trkpt>
      <trkpt lat="45.9801" lon="4.84915">
        <ele>272</ele>
        <time>2017-06-22T09:12:29Z</time>
      </trkpt>
      <trkpt lat="45.9801" lon="4.84908">
        <ele>272</ele>
        <time>2017-06-22T09:12:30Z</time>
      </trkpt>
      <trkpt lat="45.9801" lon="4.84901">
        <ele>272</ele>
        <time>2017-06-22T09:12:31Z</time>
      </trkpt>
      <trkpt lat="45.9801" lon="4.84894">
        <ele>272</ele>
        <time>2017-06-22T09:12:32Z</time>
      </trkpt>
      <trkpt lat="45.98009" lon="4.84887">
        <ele>272</ele>
        <time>2017-06-22T09:12:33Z</time>
      </trkpt>
      <trkpt lat="45.98009" lon="4.8488">
        <ele>272</ele>
        <time>2017-06-22T09:12:34Z</time>
      </trkpt>
      <trkpt lat="45.98008" lon="4.84873">
        <ele>272</ele>
        <time>2017-06-22T09:12:35Z</time>
      </trkpt>
      <trkpt lat="45.98007" lon="4.84866">
        <ele>272</ele>
        <time>2017-06-22T09:12:36Z</time>
      </trkpt>
      <trkpt lat="45.98007" lon="4.84859">
        <ele>272</ele>
        <time>2017-06-22T09:12:37Z</time>
      </trkpt>
      <trkpt lat="45.98006" lon="4.84853">
        <ele>272</ele>
        <time>2017-06-22T09:12:38Z</time>
      </trkpt>
      <trkpt lat="45.98006" lon="4.8484">
        <ele>272</ele>
        <time>2017-06-22T09:12:40Z</time>
      </trkpt>
      <trkpt lat="45.98006" lon="4.84834">
        <ele>272</ele>
        <time>2017-06-22T09:12:41Z</time>
      </trkpt>
      <trkpt lat="45.98006" lon="4.84826">
        <ele>272</ele>
        <time>2017-06-22T09:12:42Z</time>
      </trkpt>
      <trkpt lat="45.98006" lon="4.84819">
        <ele>272</ele>
        <time>2017-06-22T09:12:43Z</time>
      </trkpt>
      <trkpt lat="45.98005" lon="4.84812">
        <ele>273</ele>
        <time>2017-06-22T09:12:44Z</time>
      </trkpt>
      <trkpt lat="45.98004" lon="4.84806">
        <ele>273</ele>
        <time>2017-06-22T09:12:45Z</time>
      </trkpt>
      <trkpt lat="45.98003" lon="4.84799">
        <ele>273</ele>
        <time>2017-06-22T09:12:46Z</time>
      </trkpt>
      <trkpt lat="45.98002" lon="4.84793">
        <ele>273</ele>
        <time>2017-06-22T09:12:47Z</time>
      </trkpt>
      <trkpt lat="45.98001" lon="4.84787">
        <ele>273</ele>
        <time>2017-06-22T09:12:48Z</time>
      </trkpt>
      <trkpt lat="45.98" lon="4.8478">
        <ele>273</ele>
        <time>2017-06-22T09:12:49Z</time>
      </trkpt>
      <trkpt lat="45.97999" lon="4.84773">
        <ele>274</ele>
        <time>2017-06-22T09:12:50Z</time>
      </trkpt>
      <trkpt lat="45.97999" lon="4.84766">
        <ele>275</ele>
        <time>2017-06-22T09:12:51Z</time>
      </trkpt>
      <trkpt lat="45.97999" lon="4.8476">
        <ele>275</ele>
        <time>2017-06-22T09:12:52Z</time>
      </trkpt>
      <trkpt lat="45.97999" lon="4.84753">
        <ele>275</ele>
        <time>2017-06-22T09:12:53Z</time>
      </trkpt>
      <trkpt lat="45.97998" lon="4.84747">
        <ele>275</ele>
        <time>2017-06-22T09:12:54Z</time>
      </trkpt>
      <trkpt lat="45.97998" lon="4.8474">
        <ele>275</ele>
        <time>2017-06-22T09:12:55Z</time>
      </trkpt>
      <trkpt lat="45.97998" lon="4.84733">
        <ele>275</ele>
        <time>2017-06-22T09:12:56Z</time>
      </trkpt>
      <trkpt lat="45.97997" lon="4.84727">
        <ele>275</ele>
        <time>2017-06-22T09:12:57Z</time>
      </trkpt>
      <trkpt lat="45.97996" lon="4.8472">
        <ele>275</ele>
        <time>2017-06-22T09:12:58Z</time>
      </trkpt>
      <trkpt lat="45.97996" lon="4.84713">
        <ele>275</ele>
        <time>2017-06-22T09:12:59Z</time>
      </trkpt>
      <trkpt lat="45.97996" lon="4.84707">
        <ele>275</ele>
        <time>2017-06-22T09:13:00Z</time>
      </trkpt>
      <trkpt lat="45.97995" lon="4.847">
        <ele>275</ele>
        <time>2017-06-22T09:13:01Z</time>
      </trkpt>
      <trkpt lat="45.97995" lon="4.84693">
        <ele>275</ele>
        <time>2017-06-22T09:13:02Z</time>
      </trkpt>
      <trkpt lat="45.97994" lon="4.84687">
        <ele>275</ele>
        <time>2017-06-22T09:13:03Z</time>
      </trkpt>
      <trkpt lat="45.97992" lon="4.84674">
        <ele>274</ele>
        <time>2017-06-22T09:13:05Z</time>
      </trkpt>
      <trkpt lat="45.9799" lon="4.84668">
        <ele>274</ele>
        <time>2017-06-22T09:13:06Z</time>
      </trkpt>
      <trkpt lat="45.97989" lon="4.84662">
        <ele>274</ele>
        <time>2017-06-22T09:13:07Z</time>
      </trkpt>
      <trkpt lat="45.97988" lon="4.84655">
        <ele>274</ele>
        <time>2017-06-22T09:13:08Z</time>
      </trkpt>
      <trkpt lat="45.97986" lon="4.84648">
        <ele>274</ele>
        <time>2017-06-22T09:13:09Z</time>
      </trkpt>
      <trkpt lat="45.97985" lon="4.8464">
        <ele>275</ele>
        <time>2017-06-22T09:13:10Z</time>
      </trkpt>
      <trkpt lat="45.97984" lon="4.84632">
        <ele>275</ele>
        <time>2017-06-22T09:13:11Z</time>
      </trkpt>
      <trkpt lat="45.97982" lon="4.84624">
        <ele>275</ele>
        <time>2017-06-22T09:13:12Z</time>
      </trkpt>
      <trkpt lat="45.97981" lon="4.84616">
        <ele>275</ele>
        <time>2017-06-22T09:13:13Z</time>
      </trkpt>
      <trkpt lat="45.9798" lon="4.84608">
        <ele>275</ele>
        <time>2017-06-22T09:13:14Z</time>
      </trkpt>
      <trkpt lat="45.97979" lon="4.846">
        <ele>274</ele>
        <time>2017-06-22T09:13:15Z</time>
      </trkpt>
      <trkpt lat="45.97978" lon="4.84593">
        <ele>274</ele>
        <time>2017-06-22T09:13:16Z</time>
      </trkpt>
      <trkpt lat="45.97976" lon="4.84586">
        <ele>274</ele>
        <time>2017-06-22T09:13:17Z</time>
      </trkpt>
      <trkpt lat="45.97975" lon="4.84578">
        <ele>275</ele>
        <time>2017-06-22T09:13:18Z</time>
      </trkpt>
      <trkpt lat="45.97973" lon="4.84571">
        <ele>275</ele>
        <time>2017-06-22T09:13:19Z</time>
      </trkpt>
      <trkpt lat="45.97972" lon="4.84564">
        <ele>275</ele>
        <time>2017-06-22T09:13:20Z</time>
      </trkpt>
      <trkpt lat="45.97971" lon="4.84557">
        <ele>275</ele>
        <time>2017-06-22T09:13:21Z</time>
      </trkpt>
      <trkpt lat="45.9797" lon="4.8455">
        <ele>275</ele>
        <time>2017-06-22T09:13:22Z</time>
      </trkpt>
      <trkpt lat="45.97969" lon="4.84542">
        <ele>275</ele>
        <time>2017-06-22T09:13:23Z</time>
      </trkpt>
      <trkpt lat="45.97967" lon="4.84535">
        <ele>275</ele>
        <time>2017-06-22T09:13:24Z</time>
      </trkpt>
      <trkpt lat="45.97966" lon="4.84528">
        <ele>275</ele>
        <time>2017-06-22T09:13:25Z</time>
      </trkpt>
      <trkpt lat="45.97965" lon="4.8452">
        <ele>275</ele>
        <time>2017-06-22T09:13:26Z</time>
      </trkpt>
      <trkpt lat="45.97963" lon="4.84512">
        <ele>275</ele>
        <time>2017-06-22T09:13:27Z</time>
      </trkpt>
      <trkpt lat="45.97962" lon="4.84505">
        <ele>275</ele>
        <time>2017-06-22T09:13:28Z</time>
      </trkpt>
      <trkpt lat="45.97961" lon="4.84497">
        <ele>275</ele>
        <time>2017-06-22T09:13:29Z</time>
      </trkpt>
      <trkpt lat="45.97959" lon="4.84489">
        <ele>275</ele>
        <time>2017-06-22T09:13:30Z</time>
      </trkpt>
      <trkpt lat="45.97958" lon="4.84482">
        <ele>275</ele>
        <time>2017-06-22T09:13:31Z</time>
      </trkpt>
      <trkpt lat="45.97957" lon="4.84475">
        <ele>275</ele>
        <time>2017-06-22T09:13:32Z</time>
      </trkpt>
      <trkpt lat="45.97956" lon="4.84468">
        <ele>275</ele>
        <time>2017-06-22T09:13:33Z</time>
      </trkpt>
      <trkpt lat="45.97955" lon="4.84462">
        <ele>275</ele>
        <time>2017-06-22T09:13:34Z</time>
      </trkpt>
      <trkpt lat="45.97954" lon="4.84455">
        <ele>275</ele>
        <time>2017-06-22T09:13:35Z</time>
      </trkpt>
      <trkpt lat="45.97953" lon="4.84448">
        <ele>275</ele>
        <time>2017-06-22T09:13:36Z</time>
      </trkpt>
      <trkpt lat="45.97951" lon="4.84441">
        <ele>275</ele>
        <time>2017-06-22T09:13:37Z</time>
      </trkpt>
      <trkpt lat="45.9795" lon="4.84435">
        <ele>275</ele>
        <time>2017-06-22T09:13:38Z</time>
      </trkpt>
      <trkpt lat="45.97949" lon="4.84428">
        <ele>275</ele>
        <time>2017-06-22T09:13:39Z</time>
      </trkpt>
      <trkpt lat="45.97947" lon="4.84421">
        <ele>275</ele>
        <time>2017-06-22T09:13:40Z</time>
      </trkpt>
      <trkpt lat="45.97946" lon="4.84414">
        <ele>275</ele>
        <time>2017-06-22T09:13:41Z</time>
      </trkpt>
      <trkpt lat="45.97945" lon="4.84407">
        <ele>275</ele>
        <time>2017-06-22T09:13:42Z</time>
      </trkpt>
      <trkpt lat="45.97944" lon="4.844">
        <ele>275</ele>
        <time>2017-06-22T09:13:43Z</time>
      </trkpt>
      <trkpt lat="45.97943" lon="4.84394">
        <ele>275</ele>
        <time>2017-06-22T09:13:44Z</time>
      </trkpt>
      <trkpt lat="45.9794" lon="4.84382">
        <ele>275</ele>
        <time>2017-06-22T09:13:46Z</time>
      </trkpt>
      <trkpt lat="45.97939" lon="4.84376">
        <ele>275</ele>
        <time>2017-06-22T09:13:47Z</time>
      </trkpt>
      <trkpt lat="45.97938" lon="4.84369">
        <ele>275</ele>
        <time>2017-06-22T09:13:48Z</time>
      </trkpt>
      <trkpt lat="45.97937" lon="4.84362">
        <ele>275</ele>
        <time>2017-06-22T09:13:49Z</time>
      </trkpt>
      <trkpt lat="45.97936" lon="4.84355">
        <ele>275</ele>
        <time>2017-06-22T09:13:50Z</time>
      </trkpt>
      <trkpt lat="45.97935" lon="4.84347">
        <ele>275</ele>
        <time>2017-06-22T09:13:51Z</time>
      </trkpt>
      <trkpt lat="45.97933" lon="4.84339">
        <ele>275</ele>
        <time>2017-06-22T09:13:52Z</time>
      </trkpt>
      <trkpt lat="45.97932" lon="4.84332">
        <ele>275</ele>
        <time>2017-06-22T09:13:53Z</time>
      </trkpt>
      <trkpt lat="45.97931" lon="4.84325">
        <ele>275</ele>
        <time>2017-06-22T09:13:54Z</time>
      </trkpt>
      <trkpt lat="45.9793" lon="4.84318">
        <ele>275</ele>
        <time>2017-06-22T09:13:55Z</time>
      </trkpt>
      <trkpt lat="45.97928" lon="4.84311">
        <ele>275</ele>
        <time>2017-06-22T09:13:56Z</time>
      </trkpt>
      <trkpt lat="45.97928" lon="4.84304">
        <ele>275</ele>
        <time>2017-06-22T09:13:57Z</time>
      </trkpt>
      <trkpt lat="45.97927" lon="4.84297">
        <ele>275</ele>
        <time>2017-06-22T09:13:58Z</time>
      </trkpt>
      <trkpt lat="45.97926" lon="4.8429">
        <ele>275</ele>
        <time>2017-06-22T09:13:59Z</time>
      </trkpt>
      <trkpt lat="45.97926" lon="4.84283">
        <ele>275</ele>
        <time>2017-06-22T09:14:00Z</time>
      </trkpt>
      <trkpt lat="45.97926" lon="4.84277">
        <ele>275</ele>
        <time>2017-06-22T09:14:01Z</time>
      </trkpt>
      <trkpt lat="45.97929" lon="4.84267">
        <ele>275</ele>
        <time>2017-06-22T09:14:03Z</time>
      </trkpt>
      <trkpt lat="45.97933" lon="4.84263">
        <ele>275</ele>
        <time>2017-06-22T09:14:04Z</time>
      </trkpt>
      <trkpt lat="45.97937" lon="4.84259">
        <ele>275</ele>
        <time>2017-06-22T09:14:05Z</time>
      </trkpt>
      <trkpt lat="45.97942" lon="4.84255">
        <ele>275</ele>
        <time>2017-06-22T09:14:06Z</time>
      </trkpt>
      <trkpt lat="45.97947" lon="4.84251">
        <ele>275</ele>
        <time>2017-06-22T09:14:07Z</time>
      </trkpt>
      <trkpt lat="45.97951" lon="4.84247">
        <ele>275</ele>
        <time>2017-06-22T09:14:08Z</time>
      </trkpt>
      <trkpt lat="45.97956" lon="4.84243">
        <ele>275</ele>
        <time>2017-06-22T09:14:09Z</time>
      </trkpt>
      <trkpt lat="45.9796" lon="4.84239">
        <ele>274</ele>
        <time>2017-06-22T09:14:10Z</time>
      </trkpt>
      <trkpt lat="45.97964" lon="4.84235">
        <ele>274</ele>
        <time>2017-06-22T09:14:11Z</time>
      </trkpt>
      <trkpt lat="45.97969" lon="4.84231">
        <ele>274</ele>
        <time>2017-06-22T09:14:12Z</time>
      </trkpt>
      <trkpt lat="45.97974" lon="4.84227">
        <ele>274</ele>
        <time>2017-06-22T09:14:13Z</time>
      </trkpt>
      <trkpt lat="45.97978" lon="4.84222">
        <ele>274</ele>
        <time>2017-06-22T09:14:14Z</time>
      </trkpt>
      <trkpt lat="45.97983" lon="4.84218">
        <ele>274</ele>
        <time>2017-06-22T09:14:15Z</time>
      </trkpt>
      <trkpt lat="45.97987" lon="4.84214">
        <ele>274</ele>
        <time>2017-06-22T09:14:16Z</time>
      </trkpt>
      <trkpt lat="45.97991" lon="4.84209">
        <ele>274</ele>
        <time>2017-06-22T09:14:17Z</time>
      </trkpt>
      <trkpt lat="45.97996" lon="4.84205">
        <ele>274</ele>
        <time>2017-06-22T09:14:18Z</time>
      </trkpt>
      <trkpt lat="45.98" lon="4.84201">
        <ele>274</ele>
        <time>2017-06-22T09:14:19Z</time>
      </trkpt>
      <trkpt lat="45.98004" lon="4.84197">
        <ele>274</ele>
        <time>2017-06-22T09:14:20Z</time>
      </trkpt>
      <trkpt lat="45.98009" lon="4.84192">
        <ele>274</ele>
        <time>2017-06-22T09:14:21Z</time>
      </trkpt>
      <trkpt lat="45.98013" lon="4.84188">
        <ele>274</ele>
        <time>2017-06-22T09:14:22Z</time>
      </trkpt>
      <trkpt lat="45.98018" lon="4.84184">
        <ele>274</ele>
        <time>2017-06-22T09:14:23Z</time>
      </trkpt>
      <trkpt lat="45.98023" lon="4.8418">
        <ele>274</ele>
        <time>2017-06-22T09:14:24Z</time>
      </trkpt>
      <trkpt lat="45.98027" lon="4.84176">
        <ele>274</ele>
        <time>2017-06-22T09:14:25Z</time>
      </trkpt>
      <trkpt lat="45.98032" lon="4.84172">
        <ele>273</ele>
        <time>2017-06-22T09:14:26Z</time>
      </trkpt>
      <trkpt lat="45.98036" lon="4.84169">
        <ele>273</ele>
        <time>2017-06-22T09:14:27Z</time>
      </trkpt>
      <trkpt lat="45.98041" lon="4.84164">
        <ele>273</ele>
        <time>2017-06-22T09:14:28Z</time>
      </trkpt>
      <trkpt lat="45.98045" lon="4.8416">
        <ele>273</ele>
        <time>2017-06-22T09:14:29Z</time>
      </trkpt>
      <trkpt lat="45.98049" lon="4.84156">
        <ele>273</ele>
        <time>2017-06-22T09:14:30Z</time>
      </trkpt>
      <trkpt lat="45.98054" lon="4.84151">
        <ele>273</ele>
        <time>2017-06-22T09:14:31Z</time>
      </trkpt>
      <trkpt lat="45.98058" lon="4.84146">
        <ele>273</ele>
        <time>2017-06-22T09:14:32Z</time>
      </trkpt>
      <trkpt lat="45.98063" lon="4.84141">
        <ele>273</ele>
        <time>2017-06-22T09:14:33Z</time>
      </trkpt>
      <trkpt lat="45.98068" lon="4.84136">
        <ele>273</ele>
        <time>2017-06-22T09:14:34Z</time>
      </trkpt>
      <trkpt lat="45.98073" lon="4.84132">
        <ele>273</ele>
        <time>2017-06-22T09:14:35Z</time>
      </trkpt>
      <trkpt lat="45.98078" lon="4.84127">
        <ele>273</ele>
        <time>2017-06-22T09:14:36Z</time>
      </trkpt>
      <trkpt lat="45.98082" lon="4.84122">
        <ele>273</ele>
        <time>2017-06-22T09:14:37Z</time>
      </trkpt>
      <trkpt lat="45.98087" lon="4.84117">
        <ele>273</ele>
        <time>2017-06-22T09:14:38Z</time>
      </trkpt>
      <trkpt lat="45.98092" lon="4.84113">
        <ele>273</ele>
        <time>2017-06-22T09:14:39Z</time>
      </trkpt>
      <trkpt lat="45.98097" lon="4.84108">
        <ele>273</ele>
        <time>2017-06-22T09:14:40Z</time>
      </trkpt>
      <trkpt lat="45.98102" lon="4.84103">
        <ele>273</ele>
        <time>2017-06-22T09:14:41Z</time>
      </trkpt>
      <trkpt lat="45.98106" lon="4.84098">
        <ele>273</ele>
        <time>2017-06-22T09:14:42Z</time>
      </trkpt>
      <trkpt lat="45.98111" lon="4.84094">
        <ele>273</ele>
        <time>2017-06-22T09:14:43Z</time>
      </trkpt>
      <trkpt lat="45.98116" lon="4.84089">
        <ele>273</ele>
        <time>2017-06-22T09:14:44Z</time>
      </trkpt>
      <trkpt lat="45.98121" lon="4.84085">
        <ele>273</ele>
        <time>2017-06-22T09:14:45Z</time>
      </trkpt>
      <trkpt lat="45.98125" lon="4.8408">
        <ele>273</ele>
        <time>2017-06-22T09:14:46Z</time>
      </trkpt>
      <trkpt lat="45.9813" lon="4.84074">
        <ele>273</ele>
        <time>2017-06-22T09:14:47Z</time>
      </trkpt>
      <trkpt lat="45.98134" lon="4.84069">
        <ele>273</ele>
        <time>2017-06-22T09:14:48Z</time>
      </trkpt>
      <trkpt lat="45.98138" lon="4.84064">
        <ele>273</ele>
        <time>2017-06-22T09:14:49Z</time>
      </trkpt>
      <trkpt lat="45.98142" lon="4.84058">
        <ele>273</ele>
        <time>2017-06-22T09:14:50Z</time>
      </trkpt>
      <trkpt lat="45.98146" lon="4.84053">
        <ele>273</ele>
        <time>2017-06-22T09:14:51Z</time>
      </trkpt>
      <trkpt lat="45.9815" lon="4.84047">
        <ele>273</ele>
        <time>2017-06-22T09:14:52Z</time>
      </trkpt>
      <trkpt lat="45.98154" lon="4.84041">
        <ele>273</ele>
        <time>2017-06-22T09:14:53Z</time>
      </trkpt>
      <trkpt lat="45.98157" lon="4.84035">
        <ele>273</ele>
        <time>2017-06-22T09:14:54Z</time>
      </trkpt>
      <trkpt lat="45.98161" lon="4.84029">
        <ele>273</ele>
        <time>2017-06-22T09:14:55Z</time>
      </trkpt>
      <trkpt lat="45.98165" lon="4.84023">
        <ele>273</ele>
        <time>2017-06-22T09:14:56Z</time>
      </trkpt>
      <trkpt lat="45.98168" lon="4.84016">
        <ele>273</ele>
        <time>2017-06-22T09:14:57Z</time>
      </trkpt>
      <trkpt lat="45.98172" lon="4.84008">
        <ele>273</ele>
        <time>2017-06-22T09:14:58Z</time>
      </trkpt>
      <trkpt lat="45.98175" lon="4.83999">
        <ele>273</ele>
        <time>2017-06-22T09:14:59Z</time>
      </trkpt>
      <trkpt lat="45.98179" lon="4.83991">
        <ele>273</ele>
        <time>2017-06-22T09:15:00Z</time>
      </trkpt>
      <trkpt lat="45.98182" lon="4.83984">
        <ele>273</ele>
        <time>2017-06-22T09:15:01Z</time>
      </trkpt>
      <trkpt lat="45.98186" lon="4.83976">
        <ele>273</ele>
        <time>2017-06-22T09:15:02Z</time>
      </trkpt>
      <trkpt lat="45.98189" lon="4.83968">
        <ele>273</ele>
        <time>2017-06-22T09:15:03Z</time>
      </trkpt>
      <trkpt lat="45.98192" lon="4.83961">
        <ele>273</ele>
        <time>2017-06-22T09:15:04Z</time>
      </trkpt>
      <trkpt lat="45.98195" lon="4.83953">
        <ele>273</ele>
        <time>2017-06-22T09:15:05Z</time>
      </trkpt>
      <trkpt lat="45.98198" lon="4.83944">
        <ele>273</ele>
        <time>2017-06-22T09:15:06Z</time>
      </trkpt>
      <trkpt lat="45.98201" lon="4.83936">
        <ele>273</ele>
        <time>2017-06-22T09:15:07Z</time>
      </trkpt>
      <trkpt lat="45.98204" lon="4.83928">
        <ele>273</ele>
        <time>2017-06-22T09:15:08Z</time>
      </trkpt>
      <trkpt lat="45.98207" lon="4.8392">
        <ele>273</ele>
        <time>2017-06-22T09:15:09Z</time>
      </trkpt>
      <trkpt lat="45.98209" lon="4.83913">
        <ele>273</ele>
        <time>2017-06-22T09:15:10Z</time>
      </trkpt>
      <trkpt lat="45.98211" lon="4.83905">
        <ele>273</ele>
        <time>2017-06-22T09:15:11Z</time>
      </trkpt>
      <trkpt lat="45.98213" lon="4.83898">
        <ele>273</ele>
        <time>2017-06-22T09:15:12Z</time>
      </trkpt>
      <trkpt lat="45.98216" lon="4.83891">
        <ele>273</ele>
        <time>2017-06-22T09:15:13Z</time>
      </trkpt>
      <trkpt lat="45.98219" lon="4.83883">
        <ele>272</ele>
        <time>2017-06-22T09:15:14Z</time>
      </trkpt>
      <trkpt lat="45.98221" lon="4.83876">
        <ele>272</ele>
        <time>2017-06-22T09:15:15Z</time>
      </trkpt>
      <trkpt lat="45.98224" lon="4.83867">
        <ele>272</ele>
        <time>2017-06-22T09:15:16Z</time>
      </trkpt>
      <trkpt lat="45.98227" lon="4.83859">
        <ele>272</ele>
        <time>2017-06-22T09:15:17Z</time>
      </trkpt>
      <trkpt lat="45.9823" lon="4.8385">
        <ele>272</ele>
        <time>2017-06-22T09:15:18Z</time>
      </trkpt>
      <trkpt lat="45.98233" lon="4.83842">
        <ele>272</ele>
        <time>2017-06-22T09:15:19Z</time>
      </trkpt>
      <trkpt lat="45.98236" lon="4.83834">
        <ele>272</ele>
        <time>2017-06-22T09:15:20Z</time>
      </trkpt>
      <trkpt lat="45.98238" lon="4.83826">
        <ele>272</ele>
        <time>2017-06-22T09:15:21Z</time>
      </trkpt>
      <trkpt lat="45.98241" lon="4.83818">
        <ele>272</ele>
        <time>2017-06-22T09:15:22Z</time>
      </trkpt>
      <trkpt lat="45.98244" lon="4.8381">
        <ele>272</ele>
        <time>2017-06-22T09:15:23Z</time>
      </trkpt>
      <trkpt lat="45.98246" lon="4.83803">
        <ele>272</ele>
        <time>2017-06-22T09:15:24Z</time>
      </trkpt>
      <trkpt lat="45.98248" lon="4.83795">
        <ele>272</ele>
        <time>2017-06-22T09:15:25Z</time>
      </trkpt>
      <trkpt lat="45.98251" lon="4.83788">
        <ele>272</ele>
        <time>2017-06-22T09:15:26Z</time>
      </trkpt>
      <trkpt lat="45.98254" lon="4.8378">
        <ele>272</ele>
        <time>2017-06-22T09:15:27Z</time>
      </trkpt>
      <trkpt lat="45.98256" lon="4.83773">
        <ele>272</ele>
        <time>2017-06-22T09:15:28Z</time>
      </trkpt>
      <trkpt lat="45.98258" lon="4.83766">
        <ele>272</ele>
        <time>2017-06-22T09:15:29Z</time>
      </trkpt>
      <trkpt lat="45.9826" lon="4.83759">
        <ele>272</ele>
        <time>2017-06-22T09:15:30Z</time>
      </trkpt>
      <trkpt lat="45.98263" lon="4.83751">
        <ele>272</ele>
        <time>2017-06-22T09:15:31Z</time>
      </trkpt>
      <trkpt lat="45.98266" lon="4.83743">
        <ele>272</ele>
        <time>2017-06-22T09:15:32Z</time>
      </trkpt>
      <trkpt lat="45.98269" lon="4.83735">
        <ele>272</ele>
        <time>2017-06-22T09:15:33Z</time>
      </trkpt>
      <trkpt lat="45.98273" lon="4.83726">
        <ele>272</ele>
        <time>2017-06-22T09:15:34Z</time>
      </trkpt>
      <trkpt lat="45.98276" lon="4.83717">
        <ele>272</ele>
        <time>2017-06-22T09:15:35Z</time>
      </trkpt>
      <trkpt lat="45.98279" lon="4.83708">
        <ele>272</ele>
        <time>2017-06-22T09:15:36Z</time>
      </trkpt>
      <trkpt lat="45.98283" lon="4.83699">
        <ele>272</ele>
        <time>2017-06-22T09:15:37Z</time>
      </trkpt>
      <trkpt lat="45.98286" lon="4.8369">
        <ele>272</ele>
        <time>2017-06-22T09:15:38Z</time>
      </trkpt>
      <trkpt lat="45.9829" lon="4.83681">
        <ele>272</ele>
        <time>2017-06-22T09:15:39Z</time>
      </trkpt>
      <trkpt lat="45.98293" lon="4.83673">
        <ele>272</ele>
        <time>2017-06-22T09:15:40Z</time>
      </trkpt>
      <trkpt lat="45.98296" lon="4.83664">
        <ele>271</ele>
        <time>2017-06-22T09:15:41Z</time>
      </trkpt>
      <trkpt lat="45.98299" lon="4.83656">
        <ele>271</ele>
        <time>2017-06-22T09:15:42Z</time>
      </trkpt>
      <trkpt lat="45.98302" lon="4.83648">
        <ele>271</ele>
        <time>2017-06-22T09:15:43Z</time>
      </trkpt>
      <trkpt lat="45.98305" lon="4.8364">
        <ele>271</ele>
        <time>2017-06-22T09:15:44Z</time>
      </trkpt>
      <trkpt lat="45.98309" lon="4.83633">
        <ele>271</ele>
        <time>2017-06-22T09:15:45Z</time>
      </trkpt>
      <trkpt lat="45.98313" lon="4.83626">
        <ele>271</ele>
        <time>2017-06-22T09:15:46Z</time>
      </trkpt>
      <trkpt lat="45.98317" lon="4.83619">
        <ele>271</ele>
        <time>2017-06-22T09:15:47Z</time>
      </trkpt>
      <trkpt lat="45.98321" lon="4.83612">
        <ele>271</ele>
        <time>2017-06-22T09:15:48Z</time>
      </trkpt>
      <trkpt lat="45.98325" lon="4.83606">
        <ele>271</ele>
        <time>2017-06-22T09:15:49Z</time>
      </trkpt>
      <trkpt lat="45.9833" lon="4.836">
        <ele>271</ele>
        <time>2017-06-22T09:15:50Z</time>
      </trkpt>
      <trkpt lat="45.98334" lon="4.83593">
        <ele>270</ele>
        <time>2017-06-22T09:15:51Z</time>
      </trkpt>
      <trkpt lat="45.98338" lon="4.83587">
        <ele>270</ele>
        <time>2017-06-22T09:15:52Z</time>
      </trkpt>
      <trkpt lat="45.98343" lon="4.83581">
        <ele>270</ele>
        <time>2017-06-22T09:15:53Z</time>
      </trkpt>
      <trkpt lat="45.98348" lon="4.83575">
        <ele>269</ele>
        <time>2017-06-22T09:15:54Z</time>
      </trkpt>
      <trkpt lat="45.98353" lon="4.83569">
        <ele>269</ele>
        <time>2017-06-22T09:15:55Z</time>
      </trkpt>
      <trkpt lat="45.98358" lon="4.83562">
        <ele>269</ele>
        <time>2017-06-22T09:15:56Z</time>
      </trkpt>
      <trkpt lat="45.98363" lon="4.83556">
        <ele>269</ele>
        <time>2017-06-22T09:15:57Z</time>
      </trkpt>
      <trkpt lat="45.98367" lon="4.8355">
        <ele>269</ele>
        <time>2017-06-22T09:15:58Z</time>
      </trkpt>
      <trkpt lat="45.98372" lon="4.83544">
        <ele>269</ele>
        <time>2017-06-22T09:15:59Z</time>
      </trkpt>
      <trkpt lat="45.98377" lon="4.83537">
        <ele>269</ele>
        <time>2017-06-22T09:16:00Z</time>
      </trkpt>
      <trkpt lat="45.98381" lon="4.83531">
        <ele>269</ele>
        <time>2017-06-22T09:16:01Z</time>
      </trkpt>
      <trkpt lat="45.98386" lon="4.83524">
        <ele>269</ele>
        <time>2017-06-22T09:16:02Z</time>
      </trkpt>
      <trkpt lat="45.98391" lon="4.83517">
        <ele>269</ele>
        <time>2017-06-22T09:16:03Z</time>
      </trkpt>
      <trkpt lat="45.98397" lon="4.8351">
        <ele>269</ele>
        <time>2017-06-22T09:16:04Z</time>
      </trkpt>
      <trkpt lat="45.98403" lon="4.83502">
        <ele>268</ele>
        <time>2017-06-22T09:16:05Z</time>
      </trkpt>
      <trkpt lat="45.98408" lon="4.83494">
        <ele>268</ele>
        <time>2017-06-22T09:16:06Z</time>
      </trkpt>
      <trkpt lat="45.98414" lon="4.83486">
        <ele>269</ele>
        <time>2017-06-22T09:16:07Z</time>
      </trkpt>
      <trkpt lat="45.98419" lon="4.83479">
        <ele>268</ele>
        <time>2017-06-22T09:16:08Z</time>
      </trkpt>
      <trkpt lat="45.98425" lon="4.83471">
        <ele>268</ele>
        <time>2017-06-22T09:16:09Z</time>
      </trkpt>
      <trkpt lat="45.9843" lon="4.83464">
        <ele>268</ele>
        <time>2017-06-22T09:16:10Z</time>
      </trkpt>
      <trkpt lat="45.98435" lon="4.83457">
        <ele>268</ele>
        <time>2017-06-22T09:16:11Z</time>
      </trkpt>
      <trkpt lat="45.9844" lon="4.8345">
        <ele>268</ele>
        <time>2017-06-22T09:16:12Z</time>
      </trkpt>
      <trkpt lat="45.98446" lon="4.83443">
        <ele>268</ele>
        <time>2017-06-22T09:16:13Z</time>
      </trkpt>
      <trkpt lat="45.98451" lon="4.83436">
        <ele>268</ele>
        <time>2017-06-22T09:16:14Z</time>
      </trkpt>
      <trkpt lat="45.98455" lon="4.83429">
        <ele>268</ele>
        <time>2017-06-22T09:16:15Z</time>
      </trkpt>
      <trkpt lat="45.9846" lon="4.83423">
        <ele>269</ele>
        <time>2017-06-22T09:16:16Z</time>
      </trkpt>
      <trkpt lat="45.98465" lon="4.83416">
        <ele>269</ele>
        <time>2017-06-22T09:16:17Z</time>
      </trkpt>
      <trkpt lat="45.9847" lon="4.83409">
        <ele>269</ele>
        <time>2017-06-22T09:16:18Z</time>
      </trkpt>
      <trkpt lat="45.98474" lon="4.83403">
        <ele>269</ele>
        <time>2017-06-22T09:16:19Z</time>
      </trkpt>
      <trkpt lat="45.98479" lon="4.83397">
        <ele>269</ele>
        <time>2017-06-22T09:16:20Z</time>
      </trkpt>
      <trkpt lat="45.98483" lon="4.83392">
        <ele>269</ele>
        <time>2017-06-22T09:16:21Z</time>
      </trkpt>
      <trkpt lat="45.98488" lon="4.83386">
        <ele>269</ele>
        <time>2017-06-22T09:16:22Z</time>
      </trkpt>
      <trkpt lat="45.98492" lon="4.8338">
        <ele>269</ele>
        <time>2017-06-22T09:16:23Z</time>
      </trkpt>
      <trkpt lat="45.98496" lon="4.83375">
        <ele>270</ele>
        <time>2017-06-22T09:16:24Z</time>
      </trkpt>
      <trkpt lat="45.98501" lon="4.83369">
        <ele>269</ele>
        <time>2017-06-22T09:16:25Z</time>
      </trkpt>
      <trkpt lat="45.98505" lon="4.83363">
        <ele>269</ele>
        <time>2017-06-22T09:16:26Z</time>
      </trkpt>
      <trkpt lat="45.98509" lon="4.83358">
        <ele>269</ele>
        <time>2017-06-22T09:16:27Z</time>
      </trkpt>
      <trkpt lat="45.98514" lon="4.83352">
        <ele>270</ele>
        <time>2017-06-22T09:16:28Z</time>
      </trkpt>
      <trkpt lat="45.98519" lon="4.83346">
        <ele>270</ele>
        <time>2017-06-22T09:16:29Z</time>
      </trkpt>
      <trkpt lat="45.98523" lon="4.83339">
        <ele>270</ele>
        <time>2017-06-22T09:16:30Z</time>
      </trkpt>
      <trkpt lat="45.98528" lon="4.83331">
        <ele>269</ele>
        <time>2017-06-22T09:16:31Z</time>
      </trkpt>
      <trkpt lat="45.98533" lon="4.83324">
        <ele>269</ele>
        <time>2017-06-22T09:16:32Z</time>
      </trkpt>
      <trkpt lat="45.98538" lon="4.83317">
        <ele>269</ele>
        <time>2017-06-22T09:16:33Z</time>
      </trkpt>
      <trkpt lat="45.98543" lon="4.8331">
        <ele>269</ele>
        <time>2017-06-22T09:16:34Z</time>
      </trkpt>
      <trkpt lat="45.98548" lon="4.83304">
        <ele>269</ele>
        <time>2017-06-22T09:16:35Z</time>
      </trkpt>
      <trkpt lat="45.98553" lon="4.83297">
        <ele>269</ele>
        <time>2017-06-22T09:16:36Z</time>
      </trkpt>
      <trkpt lat="45.98558" lon="4.8329">
        <ele>269</ele>
        <time>2017-06-22T09:16:37Z</time>
      </trkpt>
      <trkpt lat="45.98563" lon="4.83283">
        <ele>269</ele>
        <time>2017-06-22T09:16:38Z</time>
      </trkpt>
      <trkpt lat="45.98568" lon="4.83277">
        <ele>269</ele>
        <time>2017-06-22T09:16:39Z</time>
      </trkpt>
      <trkpt lat="45.98573" lon="4.8327">
        <ele>269</ele>
        <time>2017-06-22T09:16:40Z</time>
      </trkpt>
      <trkpt lat="45.98578" lon="4.83265">
        <ele>269</ele>
        <time>2017-06-22T09:16:41Z</time>
      </trkpt>
      <trkpt lat="45.98583" lon="4.83258">
        <ele>268</ele>
        <time>2017-06-22T09:16:42Z</time>
      </trkpt>
      <trkpt lat="45.98588" lon="4.83252">
        <ele>268</ele>
        <time>2017-06-22T09:16:43Z</time>
      </trkpt>
      <trkpt lat="45.98593" lon="4.83245">
        <ele>268</ele>
        <time>2017-06-22T09:16:44Z</time>
      </trkpt>
      <trkpt lat="45.98598" lon="4.83239">
        <ele>268</ele>
        <time>2017-06-22T09:16:45Z</time>
      </trkpt>
      <trkpt lat="45.98602" lon="4.83232">
        <ele>268</ele>
        <time>2017-06-22T09:16:46Z</time>
      </trkpt>
      <trkpt lat="45.98607" lon="4.83226">
        <ele>267</ele>
        <time>2017-06-22T09:16:47Z</time>
      </trkpt>
      <trkpt lat="45.98613" lon="4.83219">
        <ele>267</ele>
        <time>2017-06-22T09:16:48Z</time>
      </trkpt>
      <trkpt lat="45.98618" lon="4.83213">
        <ele>267</ele>
        <time>2017-06-22T09:16:49Z</time>
      </trkpt>
      <trkpt lat="45.98623" lon="4.83207">
        <ele>267</ele>
        <time>2017-06-22T09:16:50Z</time>
      </trkpt>
      <trkpt lat="45.98628" lon="4.832">
        <ele>267</ele>
        <time>2017-06-22T09:16:51Z</time>
      </trkpt>
      <trkpt lat="45.98633" lon="4.83193">
        <ele>267</ele>
        <time>2017-06-22T09:16:52Z</time>
      </trkpt>
      <trkpt lat="45.98639" lon="4.83187">
        <ele>267</ele>
        <time>2017-06-22T09:16:53Z</time>
      </trkpt>
      <trkpt lat="45.98645" lon="4.83181">
        <ele>267</ele>
        <time>2017-06-22T09:16:54Z</time>
      </trkpt>
      <trkpt lat="45.98651" lon="4.83176">
        <ele>267</ele>
        <time>2017-06-22T09:16:55Z</time>
      </trkpt>
      <trkpt lat="45.98658" lon="4.83171">
        <ele>266</ele>
        <time>2017-06-22T09:16:56Z</time>
      </trkpt>
      <trkpt lat="45.98664" lon="4.83167">
        <ele>266</ele>
        <time>2017-06-22T09:16:57Z</time>
      </trkpt>
      <trkpt lat="45.9867" lon="4.83162">
        <ele>266</ele>
        <time>2017-06-22T09:16:58Z</time>
      </trkpt>
      <trkpt lat="45.98676" lon="4.83158">
        <ele>266</ele>
        <time>2017-06-22T09:16:59Z</time>
      </trkpt>
      <trkpt lat="45.98682" lon="4.83153">
        <ele>266</ele>
        <time>2017-06-22T09:17:00Z</time>
      </trkpt>
      <trkpt lat="45.98688" lon="4.83149">
        <ele>266</ele>
        <time>2017-06-22T09:17:01Z</time>
      </trkpt>
      <trkpt lat="45.98694" lon="4.83144">
        <ele>266</ele>
        <time>2017-06-22T09:17:02Z</time>
      </trkpt>
      <trkpt lat="45.987" lon="4.83139">
        <ele>266</ele>
        <time>2017-06-22T09:17:03Z</time>
      </trkpt>
      <trkpt lat="45.98706" lon="4.83135">
        <ele>266</ele>
        <time>2017-06-22T09:17:04Z</time>
      </trkpt>
      <trkpt lat="45.98712" lon="4.8313">
        <ele>266</ele>
        <time>2017-06-22T09:17:05Z</time>
      </trkpt>
      <trkpt lat="45.98717" lon="4.83125">
        <ele>266</ele>
        <time>2017-06-22T09:17:06Z</time>
      </trkpt>
      <trkpt lat="45.98723" lon="4.8312">
        <ele>266</ele>
        <time>2017-06-22T09:17:07Z</time>
      </trkpt>
      <trkpt lat="45.98728" lon="4.83115">
        <ele>267</ele>
        <time>2017-06-22T09:17:08Z</time>
      </trkpt>
      <trkpt lat="45.98734" lon="4.83109">
        <ele>267</ele>
        <time>2017-06-22T09:17:09Z</time>
      </trkpt>
      <trkpt lat="45.9874" lon="4.83104">
        <ele>267</ele>
        <time>2017-06-22T09:17:10Z</time>
      </trkpt>
      <trkpt lat="45.98746" lon="4.83099">
        <ele>267</ele>
        <time>2017-06-22T09:17:11Z</time>
      </trkpt>
      <trkpt lat="45.98752" lon="4.83095">
        <ele>266</ele>
        <time>2017-06-22T09:17:12Z</time>
      </trkpt>
      <trkpt lat="45.98758" lon="4.8309">
        <ele>266</ele>
        <time>2017-06-22T09:17:13Z</time>
      </trkpt>
      <trkpt lat="45.98764" lon="4.83086">
        <ele>265</ele>
        <time>2017-06-22T09:17:14Z</time>
      </trkpt>
      <trkpt lat="45.9877" lon="4.8308">
        <ele>266</ele>
        <time>2017-06-22T09:17:15Z</time>
      </trkpt>
      <trkpt lat="45.98775" lon="4.83075">
        <ele>265</ele>
        <time>2017-06-22T09:17:16Z</time>
      </trkpt>
      <trkpt lat="45.98782" lon="4.8307">
        <ele>265</ele>
        <time>2017-06-22T09:17:17Z</time>
      </trkpt>
      <trkpt lat="45.98788" lon="4.83064">
        <ele>265</ele>
        <time>2017-06-22T09:17:18Z</time>
      </trkpt>
      <trkpt lat="45.98795" lon="4.83059">
        <ele>264</ele>
        <time>2017-06-22T09:17:19Z</time>
      </trkpt>
      <trkpt lat="45.98802" lon="4.83053">
        <ele>264</ele>
        <time>2017-06-22T09:17:20Z</time>
      </trkpt>
      <trkpt lat="45.98809" lon="4.83047">
        <ele>264</ele>
        <time>2017-06-22T09:17:21Z</time>
      </trkpt>
      <trkpt lat="45.98816" lon="4.83041">
        <ele>264</ele>
        <time>2017-06-22T09:17:22Z</time>
      </trkpt>
      <trkpt lat="45.98824" lon="4.83035">
        <ele>264</ele>
        <time>2017-06-22T09:17:23Z</time>
      </trkpt>
      <trkpt lat="45.98832" lon="4.83029">
        <ele>264</ele>
        <time>2017-06-22T09:17:24Z</time>
      </trkpt>
      <trkpt lat="45.9884" lon="4.83023">
        <ele>261</ele>
        <time>2017-06-22T09:17:25Z</time>
      </trkpt>
      <trkpt lat="45.98848" lon="4.83017">
        <ele>261</ele>
        <time>2017-06-22T09:17:26Z</time>
      </trkpt>
      <trkpt lat="45.98856" lon="4.83011">
        <ele>261</ele>
        <time>2017-06-22T09:17:27Z</time>
      </trkpt>
      <trkpt lat="45.98865" lon="4.83005">
        <ele>260</ele>
        <time>2017-06-22T09:17:28Z</time>
      </trkpt>
      <trkpt lat="45.98874" lon="4.82999">
        <ele>260</ele>
        <time>2017-06-22T09:17:29Z</time>
      </trkpt>
      <trkpt lat="45.98883" lon="4.82993">
        <ele>259</ele>
        <time>2017-06-22T09:17:30Z</time>
      </trkpt>
      <trkpt lat="45.98892" lon="4.82986">
        <ele>259</ele>
        <time>2017-06-22T09:17:31Z</time>
      </trkpt>
      <trkpt lat="45.98901" lon="4.82979">
        <ele>259</ele>
        <time>2017-06-22T09:17:32Z</time>
      </trkpt>
      <trkpt lat="45.98909" lon="4.82969">
        <ele>259</ele>
        <time>2017-06-22T09:17:33Z</time>
      </trkpt>
      <trkpt lat="45.98918" lon="4.82958">
        <ele>255</ele>
        <time>2017-06-22T09:17:34Z</time>
      </trkpt>
      <trkpt lat="45.98925" lon="4.82945">
        <ele>255</ele>
        <time>2017-06-22T09:17:35Z</time>
      </trkpt>
      <trkpt lat="45.98932" lon="4.8293">
        <ele>255</ele>
        <time>2017-06-22T09:17:36Z</time>
      </trkpt>
      <trkpt lat="45.98938" lon="4.82914">
        <ele>254</ele>
        <time>2017-06-22T09:17:37Z</time>
      </trkpt>
      <trkpt lat="45.98945" lon="4.82899">
        <ele>253</ele>
        <time>2017-06-22T09:17:38Z</time>
      </trkpt>
      <trkpt lat="45.98952" lon="4.82883">
        <ele>253</ele>
        <time>2017-06-22T09:17:39Z</time>
      </trkpt>
      <trkpt lat="45.9896" lon="4.82866">
        <ele>252</ele>
        <time>2017-06-22T09:17:40Z</time>
      </trkpt>
      <trkpt lat="45.98967" lon="4.82849">
        <ele>252</ele>
        <time>2017-06-22T09:17:41Z</time>
      </trkpt>
      <trkpt lat="45.98974" lon="4.82832">
        <ele>249</ele>
        <time>2017-06-22T09:17:42Z</time>
      </trkpt>
      <trkpt lat="45.98981" lon="4.82814">
        <ele>248</ele>
        <time>2017-06-22T09:17:43Z</time>
      </trkpt>
      <trkpt lat="45.98988" lon="4.82797">
        <ele>248</ele>
        <time>2017-06-22T09:17:44Z</time>
      </trkpt>
      <trkpt lat="45.98996" lon="4.8278">
        <ele>246</ele>
        <time>2017-06-22T09:17:45Z</time>
      </trkpt>
      <trkpt lat="45.99003" lon="4.82763">
        <ele>241</ele>
        <time>2017-06-22T09:17:46Z</time>
      </trkpt>
      <trkpt lat="45.99011" lon="4.82746">
        <ele>240</ele>
        <time>2017-06-22T09:17:47Z</time>
      </trkpt>
      <trkpt lat="45.99018" lon="4.8273">
        <ele>239</ele>
        <time>2017-06-22T09:17:48Z</time>
      </trkpt>
      <trkpt lat="45.99025" lon="4.82713">
        <ele>238</ele>
        <time>2017-06-22T09:17:49Z</time>
      </trkpt>
      <trkpt lat="45.99033" lon="4.82697">
        <ele>238</ele>
        <time>2017-06-22T09:17:50Z</time>
      </trkpt>
      <trkpt lat="45.99039" lon="4.82682">
        <ele>238</ele>
        <time>2017-06-22T09:17:51Z</time>
      </trkpt>
      <trkpt lat="45.99045" lon="4.82668">
        <ele>238</ele>
        <time>2017-06-22T09:17:52Z</time>
      </trkpt>
      <trkpt lat="45.99051" lon="4.82654">
        <ele>236</ele>
        <time>2017-06-22T09:17:53Z</time>
      </trkpt>
      <trkpt lat="45.99056" lon="4.82641">
        <ele>236</ele>
        <time>2017-06-22T09:17:54Z</time>
      </trkpt>
      <trkpt lat="45.99061" lon="4.8263">
        <ele>236</ele>
        <time>2017-06-22T09:17:55Z</time>
      </trkpt>
      <trkpt lat="45.99065" lon="4.8262">
        <ele>236</ele>
        <time>2017-06-22T09:17:56Z</time>
      </trkpt>
      <trkpt lat="45.99068" lon="4.82612">
        <ele>236</ele>
        <time>2017-06-22T09:17:57Z</time>
      </trkpt>
      <trkpt lat="45.99072" lon="4.82605">
        <ele>236</ele>
        <time>2017-06-22T09:17:58Z</time>
      </trkpt>
      <trkpt lat="45.99074" lon="4.82598">
        <ele>235</ele>
        <time>2017-06-22T09:17:59Z</time>
      </trkpt>
      <trkpt lat="45.99076" lon="4.82585">
        <ele>235</ele>
        <time>2017-06-22T09:18:01Z</time>
      </trkpt>
      <trkpt lat="45.99076" lon="4.82581">
        <ele>235</ele>
        <time>2017-06-22T09:18:02Z</time>
      </trkpt>
      <trkpt lat="45.9907" lon="4.82572">
        <ele>235</ele>
        <time>2017-06-22T09:18:06Z</time>
      </trkpt>
      <trkpt lat="45.99069" lon="4.82572">
        <ele>235</ele>
        <time>2017-06-22T09:18:07Z</time>
      </trkpt>
      <trkpt lat="45.99068" lon="4.82573">
        <ele>235</ele>
        <time>2017-06-22T09:18:15Z</time>
      </trkpt>
      <trkpt lat="45.99068" lon="4.82574">
        <ele>235</ele>
        <time>2017-06-22T09:18:16Z</time>
      </trkpt>
      <trkpt lat="45.99067" lon="4.82575">
        <ele>235</ele>
        <time>2017-06-22T09:18:17Z</time>
      </trkpt>
      <trkpt lat="45.99067" lon="4.82575">
        <ele>235</ele>
        <time>2017-06-22T09:18:18Z</time>
      </trkpt>
      <trkpt lat="45.99061" lon="4.82569">
        <ele>235</ele>
        <time>2017-06-22T09:21:34Z</time>
      </trkpt>
      <trkpt lat="45.99059" lon="4.82567">
        <ele>235</ele>
        <time>2017-06-22T09:21:35Z</time>
      </trkpt>
      <trkpt lat="45.9905" lon="4.82563">
        <ele>235</ele>
        <time>2017-06-22T09:21:39Z</time>
      </trkpt>
      <trkpt lat="45.99049" lon="4.82562">
        <ele>235</ele>
        <time>2017-06-22T09:21:40Z</time>
      </trkpt>
      <trkpt lat="45.99042" lon="4.82558">
        <ele>235</ele>
        <time>2017-06-22T09:21:44Z</time>
      </trkpt>
      <trkpt lat="45.9904" lon="4.82556">
        <ele>235</ele>
        <time>2017-06-22T09:21:45Z</time>
      </trkpt>
      <trkpt lat="45.99034" lon="4.82551">
        <ele>235</ele>
        <time>2017-06-22T09:21:48Z</time>
      </trkpt>
      <trkpt lat="45.99032" lon="4.82549">
        <ele>235</ele>
        <time>2017-06-22T09:21:49Z</time>
      </trkpt>
      <trkpt lat="45.99027" lon="4.82544">
        <ele>235</ele>
        <time>2017-06-22T09:21:51Z</time>
      </trkpt>
      <trkpt lat="45.99024" lon="4.82541">
        <ele>235</ele>
        <time>2017-06-22T09:21:52Z</time>
      </trkpt>
      <trkpt lat="45.99019" lon="4.82533">
        <ele>235</ele>
        <time>2017-06-22T09:21:54Z</time>
      </trkpt>
      <trkpt lat="45.99016" lon="4.82529">
        <ele>235</ele>
        <time>2017-06-22T09:21:55Z</time>
      </trkpt>
      <trkpt lat="45.99011" lon="4.82521">
        <ele>235</ele>
        <time>2017-06-22T09:21:57Z</time>
      </trkpt>
      <trkpt lat="45.99009" lon="4.82517">
        <ele>235</ele>
        <time>2017-06-22T09:21:58Z</time>
      </trkpt>
      <trkpt lat="45.99005" lon="4.82509">
        <ele>235</ele>
        <time>2017-06-22T09:22:00Z</time>
      </trkpt>
      <trkpt lat="45.99003" lon="4.82504">
        <ele>235</ele>
        <time>2017-06-22T09:22:01Z</time>
      </trkpt>
      <trkpt lat="45.98998" lon="4.82494">
        <ele>235</ele>
        <time>2017-06-22T09:22:03Z</time>
      </trkpt>
      <trkpt lat="45.98996" lon="4.82489">
        <ele>236</ele>
        <time>2017-06-22T09:22:04Z</time>
      </trkpt>
      <trkpt lat="45.98992" lon="4.82479">
        <ele>236</ele>
        <time>2017-06-22T09:22:06Z</time>
      </trkpt>
      <trkpt lat="45.9899" lon="4.82474">
        <ele>236</ele>
        <time>2017-06-22T09:22:07Z</time>
      </trkpt>
      <trkpt lat="45.98987" lon="4.82464">
        <ele>236</ele>
        <time>2017-06-22T09:22:09Z</time>
      </trkpt>
      <trkpt lat="45.98986" lon="4.82459">
        <ele>236</ele>
        <time>2017-06-22T09:22:10Z</time>
      </trkpt>
      <trkpt lat="45.98982" lon="4.82448">
        <ele>236</ele>
        <time>2017-06-22T09:22:12Z</time>
      </trkpt>
      <trkpt lat="45.98981" lon="4.82443">
        <ele>236</ele>
        <time>2017-06-22T09:22:13Z</time>
      </trkpt>
      <trkpt lat="45.98977" lon="4.82431">
        <ele>236</ele>
        <time>2017-06-22T09:22:15Z</time>
      </trkpt>
      <trkpt lat="45.98976" lon="4.82425">
        <ele>236</ele>
        <time>2017-06-22T09:22:16Z</time>
      </trkpt>
      <trkpt lat="45.98973" lon="4.82414">
        <ele>235</ele>
        <time>2017-06-22T09:22:18Z</time>
      </trkpt>
      <trkpt lat="45.98972" lon="4.82409">
        <ele>235</ele>
        <time>2017-06-22T09:22:19Z</time>
      </trkpt>
      <trkpt lat="45.98969" lon="4.82398">
        <ele>235</ele>
        <time>2017-06-22T09:22:21Z</time>
      </trkpt>
      <trkpt lat="45.98968" lon="4.82393">
        <ele>235</ele>
        <time>2017-06-22T09:22:22Z</time>
      </trkpt>
      <trkpt lat="45.98965" lon="4.82381">
        <ele>235</ele>
        <time>2017-06-22T09:22:24Z</time>
      </trkpt>
      <trkpt lat="45.98964" lon="4.82375">
        <ele>235</ele>
        <time>2017-06-22T09:22:25Z</time>
      </trkpt>
      <trkpt lat="45.98962" lon="4.82369">
        <ele>235</ele>
        <time>2017-06-22T09:22:26Z</time>
      </trkpt>
      <trkpt lat="45.98961" lon="4.82363">
        <ele>235</ele>
        <time>2017-06-22T09:22:27Z</time>
      </trkpt>
      <trkpt lat="45.98958" lon="4.82357">
        <ele>235</ele>
        <time>2017-06-22T09:22:28Z</time>
      </trkpt>
      <trkpt lat="45.98956" lon="4.82351">
        <ele>235</ele>
        <time>2017-06-22T09:22:29Z</time>
      </trkpt>
      <trkpt lat="45.98954" lon="4.82345">
        <ele>235</ele>
        <time>2017-06-22T09:22:30Z</time>
      </trkpt>
      <trkpt lat="45.98951" lon="4.82339">
        <ele>235</ele>
        <time>2017-06-22T09:22:31Z</time>
      </trkpt>
      <trkpt lat="45.98947" lon="4.82334">
        <ele>235</ele>
        <time>2017-06-22T09:22:32Z</time>
      </trkpt>
      <trkpt lat="45.98944" lon="4.82328">
        <ele>234</ele>
        <time>2017-06-22T09:22:33Z</time>
      </trkpt>
      <trkpt lat="45.9894" lon="4.82323">
        <ele>234</ele>
        <time>2017-06-22T09:22:34Z</time>
      </trkpt>
      <trkpt lat="45.98937" lon="4.82318">
        <ele>234</ele>
        <time>2017-06-22T09:22:35Z</time>
      </trkpt>
      <trkpt lat="45.9893" lon="4.8231">
        <ele>234</ele>
        <time>2017-06-22T09:22:37Z</time>
      </trkpt>
      <trkpt lat="45.98927" lon="4.82306">
        <ele>234</ele>
        <time>2017-06-22T09:22:38Z</time>
      </trkpt>
      <trkpt lat="45.98923" lon="4.82303">
        <ele>234</ele>
        <time>2017-06-22T09:22:39Z</time>
      </trkpt>
      <trkpt lat="45.98919" lon="4.82299">
        <ele>234</ele>
        <time>2017-06-22T09:22:40Z</time>
      </trkpt>
      <trkpt lat="45.98912" lon="4.82292">
        <ele>236</ele>
        <time>2017-06-22T09:22:42Z</time>
      </trkpt>
      <trkpt lat="45.98909" lon="4.82288">
        <ele>236</ele>
        <time>2017-06-22T09:22:43Z</time>
      </trkpt>
      <trkpt lat="45.98906" lon="4.82284">
        <ele>236</ele>
        <time>2017-06-22T09:22:44Z</time>
      </trkpt>
      <trkpt lat="45.98902" lon="4.82279">
        <ele>236</ele>
        <time>2017-06-22T09:22:45Z</time>
      </trkpt>
      <trkpt lat="45.98899" lon="4.82274">
        <ele>236</ele>
        <time>2017-06-22T09:22:46Z</time>
      </trkpt>
      <trkpt lat="45.98896" lon="4.82269">
        <ele>236</ele>
        <time>2017-06-22T09:22:47Z</time>
      </trkpt>
      <trkpt lat="45.9889" lon="4.82259">
        <ele>236</ele>
        <time>2017-06-22T09:22:49Z</time>
      </trkpt>
      <trkpt lat="45.98887" lon="4.82254">
        <ele>236</ele>
        <time>2017-06-22T09:22:50Z</time>
      </trkpt>
      <trkpt lat="45.98882" lon="4.82244">
        <ele>236</ele>
        <time>2017-06-22T09:22:52Z</time>
      </trkpt>
      <trkpt lat="45.9888" lon="4.82239">
        <ele>236</ele>
        <time>2017-06-22T09:22:53Z</time>
      </trkpt>
      <trkpt lat="45.98877" lon="4.82233">
        <ele>236</ele>
        <time>2017-06-22T09:22:54Z</time>
      </trkpt>
      <trkpt lat="45.98875" lon="4.82227">
        <ele>236</ele>
        <time>2017-06-22T09:22:55Z</time>
      </trkpt>
      <trkpt lat="45.98872" lon="4.82221">
        <ele>236</ele>
        <time>2017-06-22T09:22:56Z</time>
      </trkpt>
      <trkpt lat="45.9887" lon="4.82215">
        <ele>236</ele>
        <time>2017-06-22T09:22:57Z</time>
      </trkpt>
      <trkpt lat="45.98867" lon="4.82209">
        <ele>236</ele>
        <time>2017-06-22T09:22:58Z</time>
      </trkpt>
      <trkpt lat="45.98865" lon="4.82204">
        <ele>236</ele>
        <time>2017-06-22T09:22:59Z</time>
      </trkpt>
      <trkpt lat="45.98862" lon="4.82198">
        <ele>236</ele>
        <time>2017-06-22T09:23:00Z</time>
      </trkpt>
      <trkpt lat="45.9886" lon="4.82192">
        <ele>236</ele>
        <time>2017-06-22T09:23:01Z</time>
      </trkpt>
      <trkpt lat="45.98858" lon="4.82186">
        <ele>236</ele>
        <time>2017-06-22T09:23:02Z</time>
      </trkpt>
      <trkpt lat="45.98856" lon="4.8218">
        <ele>236</ele>
        <time>2017-06-22T09:23:03Z</time>
      </trkpt>
      <trkpt lat="45.98854" lon="4.82174">
        <ele>236</ele>
        <time>2017-06-22T09:23:04Z</time>
      </trkpt>
      <trkpt lat="45.98852" lon="4.82169">
        <ele>236</ele>
        <time>2017-06-22T09:23:05Z</time>
      </trkpt>
      <trkpt lat="45.9885" lon="4.82162">
        <ele>236</ele>
        <time>2017-06-22T09:23:06Z</time>
      </trkpt>
      <trkpt lat="45.98848" lon="4.82156">
        <ele>236</ele>
        <time>2017-06-22T09:23:07Z</time>
      </trkpt>
      <trkpt lat="45.98847" lon="4.8215">
        <ele>236</ele>
        <time>2017-06-22T09:23:08Z</time>
      </trkpt>
      <trkpt lat="45.98845" lon="4.82144">
        <ele>236</ele>
        <time>2017-06-22T09:23:09Z</time>
      </trkpt>
      <trkpt lat="45.98843" lon="4.82137">
        <ele>236</ele>
        <time>2017-06-22T09:23:10Z</time>
      </trkpt>
      <trkpt lat="45.98842" lon="4.82131">
        <ele>236</ele>
        <time>2017-06-22T09:23:11Z</time>
      </trkpt>
      <trkpt lat="45.9884" lon="4.82124">
        <ele>236</ele>
        <time>2017-06-22T09:23:12Z</time>
      </trkpt>
      <trkpt lat="45.98839" lon="4.82116">
        <ele>235</ele>
        <time>2017-06-22T09:23:13Z</time>
      </trkpt>
      <trkpt lat="45.98838" lon="4.82109">
        <ele>235</ele>
        <time>2017-06-22T09:23:14Z</time>
      </trkpt>
      <trkpt lat="45.98837" lon="4.82101">
        <ele>236</ele>
        <time>2017-06-22T09:23:15Z</time>
      </trkpt>
      <trkpt lat="45.98836" lon="4.82094">
        <ele>236</ele>
        <time>2017-06-22T09:23:16Z</time>
      </trkpt>
      <trkpt lat="45.98834" lon="4.82087">
        <ele>236</ele>
        <time>2017-06-22T09:23:17Z</time>
      </trkpt>
      <trkpt lat="45.98833" lon="4.8208">
        <ele>236</ele>
        <time>2017-06-22T09:23:18Z</time>
      </trkpt>
      <trkpt lat="45.98832" lon="4.82073">
        <ele>237</ele>
        <time>2017-06-22T09:23:19Z</time>
      </trkpt>
      <trkpt lat="45.98831" lon="4.82067">
        <ele>237</ele>
        <time>2017-06-22T09:23:20Z</time>
      </trkpt>
      <trkpt lat="45.9883" lon="4.8206">
        <ele>237</ele>
        <time>2017-06-22T09:23:21Z</time>
      </trkpt>
      <trkpt lat="45.98829" lon="4.82053">
        <ele>237</ele>
        <time>2017-06-22T09:23:22Z</time>
      </trkpt>
      <trkpt lat="45.98828" lon="4.82046">
        <ele>238</ele>
        <time>2017-06-22T09:23:23Z</time>
      </trkpt>
      <trkpt lat="45.98827" lon="4.82039">
        <ele>238</ele>
        <time>2017-06-22T09:23:24Z</time>
      </trkpt>
      <trkpt lat="45.98826" lon="4.82032">
        <ele>238</ele>
        <time>2017-06-22T09:23:25Z</time>
      </trkpt>
      <trkpt lat="45.98824" lon="4.82026">
        <ele>238</ele>
        <time>2017-06-22T09:23:26Z</time>
      </trkpt>
      <trkpt lat="45.98823" lon="4.82019">
        <ele>238</ele>
        <time>2017-06-22T09:23:27Z</time>
      </trkpt>
      <trkpt lat="45.98822" lon="4.82012">
        <ele>238</ele>
        <time>2017-06-22T09:23:28Z</time>
      </trkpt>
      <trkpt lat="45.98821" lon="4.82005">
        <ele>238</ele>
        <time>2017-06-22T09:23:29Z</time>
      </trkpt>
      <trkpt lat="45.9882" lon="4.81998">
        <ele>238</ele>
        <time>2017-06-22T09:23:30Z</time>
      </trkpt>
      <trkpt lat="45.98819" lon="4.81991">
        <ele>238</ele>
        <time>2017-06-22T09:23:31Z</time>
      </trkpt>
      <trkpt lat="45.98819" lon="4.81984">
        <ele>238</ele>
        <time>2017-06-22T09:23:32Z</time>
      </trkpt>
      <trkpt lat="45.98818" lon="4.81978">
        <ele>239</ele>
        <time>2017-06-22T09:23:33Z</time>
      </trkpt>
      <trkpt lat="45.98816" lon="4.81966">
        <ele>239</ele>
        <time>2017-06-22T09:23:35Z</time>
      </trkpt>
      <trkpt lat="45.98815" lon="4.8196">
        <ele>239</ele>
        <time>2017-06-22T09:23:36Z</time>
      </trkpt>
      <trkpt lat="45.98813" lon="4.81948">
        <ele>239</ele>
        <time>2017-06-22T09:23:38Z</time>
      </trkpt>
      <trkpt lat="45.98812" lon="4.81941">
        <ele>239</ele>
        <time>2017-06-22T09:23:39Z</time>
      </trkpt>
      <trkpt lat="45.98811" lon="4.81934">
        <ele>239</ele>
        <time>2017-06-22T09:23:40Z</time>
      </trkpt>
      <trkpt lat="45.9881" lon="4.81928">
        <ele>239</ele>
        <time>2017-06-22T09:23:41Z</time>
      </trkpt>
      <trkpt lat="45.98809" lon="4.81921">
        <ele>239</ele>
        <time>2017-06-22T09:23:42Z</time>
      </trkpt>
      <trkpt lat="45.98808" lon="4.81914">
        <ele>239</ele>
        <time>2017-06-22T09:23:43Z</time>
      </trkpt>
      <trkpt lat="45.98807" lon="4.81906">
        <ele>239</ele>
        <time>2017-06-22T09:23:44Z</time>
      </trkpt>
      <trkpt lat="45.98806" lon="4.81899">
        <ele>239</ele>
        <time>2017-06-22T09:23:45Z</time>
      </trkpt>
      <trkpt lat="45.98804" lon="4.81892">
        <ele>239</ele>
        <time>2017-06-22T09:23:46Z</time>
      </trkpt>
      <trkpt lat="45.98803" lon="4.81885">
        <ele>239</ele>
        <time>2017-06-22T09:23:47Z</time>
      </trkpt>
      <trkpt lat="45.98801" lon="4.81879">
        <ele>239</ele>
        <time>2017-06-22T09:23:48Z</time>
      </trkpt>
      <trkpt lat="45.98799" lon="4.81873">
        <ele>239</ele>
        <time>2017-06-22T09:23:49Z</time>
      </trkpt>
      <trkpt lat="45.98796" lon="4.81862">
        <ele>239</ele>
        <time>2017-06-22T09:23:51Z</time>
      </trkpt>
      <trkpt lat="45.98794" lon="4.81858">
        <ele>239</ele>
        <time>2017-06-22T09:23:52Z</time>
      </trkpt>
      <trkpt lat="45.98791" lon="4.81849">
        <ele>239</ele>
        <time>2017-06-22T09:23:54Z</time>
      </trkpt>
      <trkpt lat="45.98788" lon="4.81844">
        <ele>239</ele>
        <time>2017-06-22T09:23:55Z</time>
      </trkpt>
      <trkpt lat="45.98783" lon="4.81835">
        <ele>239</ele>
        <time>2017-06-22T09:23:57Z</time>
      </trkpt>
      <trkpt lat="45.98781" lon="4.81829">
        <ele>240</ele>
        <time>2017-06-22T09:23:58Z</time>
      </trkpt>
      <trkpt lat="45.98778" lon="4.81824">
        <ele>240</ele>
        <time>2017-06-22T09:23:59Z</time>
      </trkpt>
      <trkpt lat="45.98775" lon="4.81819">
        <ele>240</ele>
        <time>2017-06-22T09:24:00Z</time>
      </trkpt>
      <trkpt lat="45.9877" lon="4.81808">
        <ele>240</ele>
        <time>2017-06-22T09:24:02Z</time>
      </trkpt>
      <trkpt lat="45.98767" lon="4.81803">
        <ele>240</ele>
        <time>2017-06-22T09:24:03Z</time>
      </trkpt>
      <trkpt lat="45.98762" lon="4.81793">
        <ele>241</ele>
        <time>2017-06-22T09:24:05Z</time>
      </trkpt>
      <trkpt lat="45.9876" lon="4.81789">
        <ele>241</ele>
        <time>2017-06-22T09:24:06Z</time>
      </trkpt>
      <trkpt lat="45.98756" lon="4.81781">
        <ele>241</ele>
        <time>2017-06-22T09:24:08Z</time>
      </trkpt>
      <trkpt lat="45.98755" lon="4.81777">
        <ele>241</ele>
        <time>2017-06-22T09:24:09Z</time>
      </trkpt>
      <trkpt lat="45.98751" lon="4.8177">
        <ele>241</ele>
        <time>2017-06-22T09:24:11Z</time>
      </trkpt>
      <trkpt lat="45.98749" lon="4.81765">
        <ele>240</ele>
        <time>2017-06-22T09:24:12Z</time>
      </trkpt>
      <trkpt lat="45.98745" lon="4.81756">
        <ele>240</ele>
        <time>2017-06-22T09:24:14Z</time>
      </trkpt>
      <trkpt lat="45.98742" lon="4.8175">
        <ele>240</ele>
        <time>2017-06-22T09:24:15Z</time>
      </trkpt>
      <trkpt lat="45.98739" lon="4.81745">
        <ele>240</ele>
        <time>2017-06-22T09:24:16Z</time>
      </trkpt>
      <trkpt lat="45.98735" lon="4.81741">
        <ele>240</ele>
        <time>2017-06-22T09:24:17Z</time>
      </trkpt>
      <trkpt lat="45.98727" lon="4.81735">
        <ele>239</ele>
        <time>2017-06-22T09:24:19Z</time>
      </trkpt>
      <trkpt lat="45.98722" lon="4.81734">
        <ele>239</ele>
        <time>2017-06-22T09:24:20Z</time>
      </trkpt>
      <trkpt lat="45.98714" lon="4.81734">
        <ele>239</ele>
        <time>2017-06-22T09:24:22Z</time>
      </trkpt>
      <trkpt lat="45.9871" lon="4.81735">
        <ele>239</ele>
        <time>2017-06-22T09:24:23Z</time>
      </trkpt>
      <trkpt lat="45.98702" lon="4.81736">
        <ele>239</ele>
        <time>2017-06-22T09:24:25Z</time>
      </trkpt>
      <trkpt lat="45.98699" lon="4.81736">
        <ele>239</ele>
        <time>2017-06-22T09:24:26Z</time>
      </trkpt>
      <trkpt lat="45.98693" lon="4.81737">
        <ele>238</ele>
        <time>2017-06-22T09:24:28Z</time>
      </trkpt>
      <trkpt lat="45.98689" lon="4.81738">
        <ele>238</ele>
        <time>2017-06-22T09:24:29Z</time>
      </trkpt>
      <trkpt lat="45.98681" lon="4.8174">
        <ele>238</ele>
        <time>2017-06-22T09:24:31Z</time>
      </trkpt>
      <trkpt lat="45.98676" lon="4.81741">
        <ele>238</ele>
        <time>2017-06-22T09:24:32Z</time>
      </trkpt>
      <trkpt lat="45.98672" lon="4.81742">
        <ele>238</ele>
        <time>2017-06-22T09:24:33Z</time>
      </trkpt>
      <trkpt lat="45.98665" lon="4.81743">
        <ele>238</ele>
        <time>2017-06-22T09:24:34Z</time>
      </trkpt>
      <trkpt lat="45.9866" lon="4.81743">
        <ele>238</ele>
        <time>2017-06-22T09:24:35Z</time>
      </trkpt>
      <trkpt lat="45.98655" lon="4.81744">
        <ele>237</ele>
        <time>2017-06-22T09:24:36Z</time>
      </trkpt>
      <trkpt lat="45.98648" lon="4.81745">
        <ele>237</ele>
        <time>2017-06-22T09:24:37Z</time>
      </trkpt>
      <trkpt lat="45.98642" lon="4.81747">
        <ele>237</ele>
        <time>2017-06-22T09:24:38Z</time>
      </trkpt>
      <trkpt lat="45.98636" lon="4.81748">
        <ele>237</ele>
        <time>2017-06-22T09:24:39Z</time>
      </trkpt>
      <trkpt lat="45.9863" lon="4.8175">
        <ele>237</ele>
        <time>2017-06-22T09:24:40Z</time>
      </trkpt>
      <trkpt lat="45.98624" lon="4.81751">
        <ele>238</ele>
        <time>2017-06-22T09:24:41Z</time>
      </trkpt>
      <trkpt lat="45.98619" lon="4.81752">
        <ele>238</ele>
        <time>2017-06-22T09:24:42Z</time>
      </trkpt>
      <trkpt lat="45.98611" lon="4.81755">
        <ele>238</ele>
        <time>2017-06-22T09:24:44Z</time>
      </trkpt>
      <trkpt lat="45.98608" lon="4.81757">
        <ele>238</ele>
        <time>2017-06-22T09:24:45Z</time>
      </trkpt>
      <trkpt lat="45.98603" lon="4.81759">
        <ele>238</ele>
        <time>2017-06-22T09:24:46Z</time>
      </trkpt>
      <trkpt lat="45.98598" lon="4.81762">
        <ele>238</ele>
        <time>2017-06-22T09:24:47Z</time>
      </trkpt>
      <trkpt lat="45.98593" lon="4.81765">
        <ele>238</ele>
        <time>2017-06-22T09:24:48Z</time>
      </trkpt>
      <trkpt lat="45.98588" lon="4.81769">
        <ele>238</ele>
        <time>2017-06-22T09:24:49Z</time>
      </trkpt>
      <trkpt lat="45.98583" lon="4.81773">
        <ele>237</ele>
        <time>2017-06-22T09:24:50Z</time>
      </trkpt>
      <trkpt lat="45.98579" lon="4.81778">
        <ele>238</ele>
        <time>2017-06-22T09:24:51Z</time>
      </trkpt>
      <trkpt lat="45.98575" lon="4.81782">
        <ele>238</ele>
        <time>2017-06-22T09:24:52Z</time>
      </trkpt>
      <trkpt lat="45.98572" lon="4.81786">
        <ele>238</ele>
        <time>2017-06-22T09:24:53Z</time>
      </trkpt>
      <trkpt lat="45.98568" lon="4.81791">
        <ele>238</ele>
        <time>2017-06-22T09:24:54Z</time>
      </trkpt>
      <trkpt lat="45.98565" lon="4.81795">
        <ele>238</ele>
        <time>2017-06-22T09:24:55Z</time>
      </trkpt>
      <trkpt lat="45.98557" lon="4.818">
        <ele>238</ele>
        <time>2017-06-22T09:24:57Z</time>
      </trkpt>
      <trkpt lat="45.98552" lon="4.81801">
        <ele>238</ele>
        <time>2017-06-22T09:24:58Z</time>
      </trkpt>
      <trkpt lat="45.98547" lon="4.81801">
        <ele>238</ele>
        <time>2017-06-22T09:24:59Z</time>
      </trkpt>
      <trkpt lat="45.98542" lon="4.818">
        <ele>238</ele>
        <time>2017-06-22T09:25:00Z</time>
      </trkpt>
      <trkpt lat="45.98534" lon="4.81793">
        <ele>238</ele>
        <time>2017-06-22T09:25:02Z</time>
      </trkpt>
      <trkpt lat="45.9853" lon="4.81789">
        <ele>238</ele>
        <time>2017-06-22T09:25:03Z</time>
      </trkpt>
      <trkpt lat="45.98526" lon="4.81785">
        <ele>238</ele>
        <time>2017-06-22T09:25:04Z</time>
      </trkpt>
      <trkpt lat="45.98523" lon="4.8178">
        <ele>238</ele>
        <time>2017-06-22T09:25:05Z</time>
      </trkpt>
      <trkpt lat="45.9852" lon="4.81775">
        <ele>238</ele>
        <time>2017-06-22T09:25:06Z</time>
      </trkpt>
      <trkpt lat="45.98516" lon="4.81771">
        <ele>238</ele>
        <time>2017-06-22T09:25:07Z</time>
      </trkpt>
      <trkpt lat="45.98513" lon="4.81766">
        <ele>237</ele>
        <time>2017-06-22T09:25:08Z</time>
      </trkpt>
      <trkpt lat="45.9851" lon="4.81761">
        <ele>237</ele>
        <time>2017-06-22T09:25:09Z</time>
      </trkpt>
      <trkpt lat="45.98506" lon="4.81757">
        <ele>237</ele>
        <time>2017-06-22T09:25:10Z</time>
      </trkpt>
      <trkpt lat="45.98501" lon="4.81753">
        <ele>237</ele>
        <time>2017-06-22T09:25:11Z</time>
      </trkpt>
      <trkpt lat="45.98494" lon="4.81746">
        <ele>238</ele>
        <time>2017-06-22T09:25:13Z</time>
      </trkpt>
      <trkpt lat="45.9849" lon="4.81742">
        <ele>238</ele>
        <time>2017-06-22T09:25:14Z</time>
      </trkpt>
      <trkpt lat="45.98483" lon="4.81735">
        <ele>238</ele>
        <time>2017-06-22T09:25:16Z</time>
      </trkpt>
      <trkpt lat="45.98479" lon="4.81731">
        <ele>238</ele>
        <time>2017-06-22T09:25:17Z</time>
      </trkpt>
      <trkpt lat="45.98475" lon="4.81728">
        <ele>239</ele>
        <time>2017-06-22T09:25:18Z</time>
      </trkpt>
      <trkpt lat="45.98472" lon="4.81723">
        <ele>239</ele>
        <time>2017-06-22T09:25:19Z</time>
      </trkpt>
      <trkpt lat="45.98465" lon="4.81714">
        <ele>239</ele>
        <time>2017-06-22T09:25:21Z</time>
      </trkpt>
      <trkpt lat="45.98462" lon="4.8171">
        <ele>239</ele>
        <time>2017-06-22T09:25:22Z</time>
      </trkpt>
      <trkpt lat="45.98456" lon="4.81701">
        <ele>239</ele>
        <time>2017-06-22T09:25:24Z</time>
      </trkpt>
      <trkpt lat="45.98453" lon="4.81696">
        <ele>239</ele>
        <time>2017-06-22T09:25:25Z</time>
      </trkpt>
      <trkpt lat="45.98451" lon="4.81691">
        <ele>239</ele>
        <time>2017-06-22T09:25:26Z</time>
      </trkpt>
      <trkpt lat="45.98447" lon="4.81686">
        <ele>239</ele>
        <time>2017-06-22T09:25:27Z</time>
      </trkpt>
      <trkpt lat="45.98443" lon="4.81681">
        <ele>239</ele>
        <time>2017-06-22T09:25:28Z</time>
      </trkpt>
      <trkpt lat="45.9844" lon="4.81676">
        <ele>240</ele>
        <time>2017-06-22T09:25:29Z</time>
      </trkpt>
      <trkpt lat="45.98433" lon="4.81668">
        <ele>240</ele>
        <time>2017-06-22T09:25:31Z</time>
      </trkpt>
      <trkpt lat="45.98429" lon="4.81666">
        <ele>239</ele>
        <time>2017-06-22T09:25:32Z</time>
      </trkpt>
      <trkpt lat="45.98421" lon="4.81663">
        <ele>240</ele>
        <time>2017-06-22T09:25:34Z</time>
      </trkpt>
      <trkpt lat="45.98416" lon="4.81663">
        <ele>241</ele>
        <time>2017-06-22T09:25:35Z</time>
      </trkpt>
      <trkpt lat="45.98408" lon="4.81664">
        <ele>241</ele>
        <time>2017-06-22T09:25:37Z</time>
      </trkpt>
      <trkpt lat="45.98405" lon="4.81665">
        <ele>241</ele>
        <time>2017-06-22T09:25:38Z</time>
      </trkpt>
      <trkpt lat="45.98396" lon="4.81666">
        <ele>242</ele>
        <time>2017-06-22T09:25:40Z</time>
      </trkpt>
      <trkpt lat="45.98391" lon="4.81666">
        <ele>242</ele>
        <time>2017-06-22T09:25:41Z</time>
      </trkpt>
      <trkpt lat="45.98383" lon="4.81668">
        <ele>243</ele>
        <time>2017-06-22T09:25:43Z</time>
      </trkpt>
      <trkpt lat="45.98379" lon="4.81669">
        <ele>244</ele>
        <time>2017-06-22T09:25:44Z</time>
      </trkpt>
      <trkpt lat="45.98371" lon="4.81671">
        <ele>244</ele>
        <time>2017-06-22T09:25:46Z</time>
      </trkpt>
      <trkpt lat="45.98367" lon="4.81672">
        <ele>244</ele>
        <time>2017-06-22T09:25:47Z</time>
      </trkpt>
      <trkpt lat="45.98359" lon="4.81673">
        <ele>245</ele>
        <time>2017-06-22T09:25:49Z</time>
      </trkpt>
      <trkpt lat="45.98355" lon="4.81674">
        <ele>245</ele>
        <time>2017-06-22T09:25:50Z</time>
      </trkpt>
      <trkpt lat="45.98346" lon="4.81672">
        <ele>245</ele>
        <time>2017-06-22T09:25:52Z</time>
      </trkpt>
      <trkpt lat="45.98342" lon="4.81672">
        <ele>245</ele>
        <time>2017-06-22T09:25:53Z</time>
      </trkpt>
      <trkpt lat="45.98334" lon="4.8167">
        <ele>246</ele>
        <time>2017-06-22T09:25:55Z</time>
      </trkpt>
      <trkpt lat="45.9833" lon="4.81669">
        <ele>246</ele>
        <time>2017-06-22T09:25:56Z</time>
      </trkpt>
      <trkpt lat="45.98326" lon="4.81666">
        <ele>246</ele>
        <time>2017-06-22T09:25:57Z</time>
      </trkpt>
      <trkpt lat="45.98322" lon="4.81662">
        <ele>246</ele>
        <time>2017-06-22T09:25:58Z</time>
      </trkpt>
      <trkpt lat="45.98318" lon="4.81658">
        <ele>246</ele>
        <time>2017-06-22T09:25:59Z</time>
      </trkpt>
      <trkpt lat="45.98315" lon="4.81654">
        <ele>246</ele>
        <time>2017-06-22T09:26:00Z</time>
      </trkpt>
      <trkpt lat="45.98308" lon="4.81647">
        <ele>246</ele>
        <time>2017-06-22T09:26:02Z</time>
      </trkpt>
      <trkpt lat="45.98305" lon="4.81644">
        <ele>246</ele>
        <time>2017-06-22T09:26:03Z</time>
      </trkpt>
      <trkpt lat="45.98299" lon="4.81638">
        <ele>246</ele>
        <time>2017-06-22T09:26:05Z</time>
      </trkpt>
      <trkpt lat="45.98296" lon="4.81634">
        <ele>247</ele>
        <time>2017-06-22T09:26:06Z</time>
      </trkpt>
      <trkpt lat="45.9829" lon="4.81628">
        <ele>247</ele>
        <time>2017-06-22T09:26:08Z</time>
      </trkpt>
      <trkpt lat="45.98287" lon="4.81624">
        <ele>247</ele>
        <time>2017-06-22T09:26:09Z</time>
      </trkpt>
      <trkpt lat="45.98282" lon="4.81616">
        <ele>247</ele>
        <time>2017-06-22T09:26:11Z</time>
      </trkpt>
      <trkpt lat="45.9828" lon="4.8161">
        <ele>247</ele>
        <time>2017-06-22T09:26:12Z</time>
      </trkpt>
      <trkpt lat="45.98277" lon="4.81599">
        <ele>247</ele>
        <time>2017-06-22T09:26:14Z</time>
      </trkpt>
      <trkpt lat="45.98275" lon="4.81594">
        <ele>247</ele>
        <time>2017-06-22T09:26:15Z</time>
      </trkpt>
      <trkpt lat="45.98272" lon="4.81585">
        <ele>247</ele>
        <time>2017-06-22T09:26:17Z</time>
      </trkpt>
      <trkpt lat="45.9827" lon="4.8158">
        <ele>247</ele>
        <time>2017-06-22T09:26:18Z</time>
      </trkpt>
      <trkpt lat="45.98267" lon="4.8157">
        <ele>247</ele>
        <time>2017-06-22T09:26:20Z</time>
      </trkpt>
      <trkpt lat="45.98265" lon="4.81565">
        <ele>247</ele>
        <time>2017-06-22T09:26:21Z</time>
      </trkpt>
      <trkpt lat="45.98262" lon="4.81554">
        <ele>247</ele>
        <time>2017-06-22T09:26:23Z</time>
      </trkpt>
      <trkpt lat="45.98261" lon="4.81549">
        <ele>247</ele>
        <time>2017-06-22T09:26:24Z</time>
      </trkpt>
      <trkpt lat="45.98258" lon="4.81539">
        <ele>247</ele>
        <time>2017-06-22T09:26:26Z</time>
      </trkpt>
      <trkpt lat="45.98257" lon="4.81534">
        <ele>247</ele>
        <time>2017-06-22T09:26:27Z</time>
      </trkpt>
      <trkpt lat="45.98254" lon="4.81523">
        <ele>247</ele>
        <time>2017-06-22T09:26:29Z</time>
      </trkpt>
      <trkpt lat="45.98252" lon="4.81518">
        <ele>247</ele>
        <time>2017-06-22T09:26:30Z</time>
      </trkpt>
      <trkpt lat="45.98249" lon="4.81509">
        <ele>249</ele>
        <time>2017-06-22T09:26:32Z</time>
      </trkpt>
      <trkpt lat="45.98247" lon="4.81504">
        <ele>249</ele>
        <time>2017-06-22T09:26:33Z</time>
      </trkpt>
      <trkpt lat="45.98244" lon="4.81495">
        <ele>249</ele>
        <time>2017-06-22T09:26:35Z</time>
      </trkpt>
      <trkpt lat="45.98243" lon="4.81491">
        <ele>249</ele>
        <time>2017-06-22T09:26:36Z</time>
      </trkpt>
      <trkpt lat="45.98239" lon="4.81483">
        <ele>249</ele>
        <time>2017-06-22T09:26:38Z</time>
      </trkpt>
      <trkpt lat="45.98238" lon="4.81478">
        <ele>249</ele>
        <time>2017-06-22T09:26:39Z</time>
      </trkpt>
      <trkpt lat="45.98235" lon="4.81468">
        <ele>249</ele>
        <time>2017-06-22T09:26:41Z</time>
      </trkpt>
      <trkpt lat="45.98233" lon="4.81462">
        <ele>249</ele>
        <time>2017-06-22T09:26:42Z</time>
      </trkpt>
      <trkpt lat="45.98231" lon="4.8145">
        <ele>249</ele>
        <time>2017-06-22T09:26:44Z</time>
      </trkpt>
      <trkpt lat="45.98229" lon="4.81444">
        <ele>249</ele>
        <time>2017-06-22T09:26:45Z</time>
      </trkpt>
      <trkpt lat="45.98227" lon="4.81433">
        <ele>249</ele>
        <time>2017-06-22T09:26:47Z</time>
      </trkpt>
      <trkpt lat="45.98224" lon="4.81428">
        <ele>249</ele>
        <time>2017-06-22T09:26:48Z</time>
      </trkpt>
      <trkpt lat="45.9822" lon="4.81418">
        <ele>249</ele>
        <time>2017-06-22T09:26:50Z</time>
      </trkpt>
      <trkpt lat="45.98218" lon="4.81413">
        <ele>248</ele>
        <time>2017-06-22T09:26:51Z</time>
      </trkpt>
      <trkpt lat="45.98215" lon="4.81404">
        <ele>248</ele>
        <time>2017-06-22T09:26:53Z</time>
      </trkpt>
      <trkpt lat="45.98213" lon="4.81399">
        <ele>248</ele>
        <time>2017-06-22T09:26:54Z</time>
      </trkpt>
      <trkpt lat="45.98211" lon="4.8139">
        <ele>248</ele>
        <time>2017-06-22T09:26:56Z</time>
      </trkpt>
      <trkpt lat="45.98209" lon="4.81385">
        <ele>248</ele>
        <time>2017-06-22T09:26:57Z</time>
      </trkpt>
      <trkpt lat="45.98206" lon="4.81374">
        <ele>248</ele>
        <time>2017-06-22T09:26:59Z</time>
      </trkpt>
      <trkpt lat="45.98205" lon="4.81369">
        <ele>248</ele>
        <time>2017-06-22T09:27:00Z</time>
      </trkpt>
      <trkpt lat="45.98202" lon="4.81357">
        <ele>248</ele>
        <time>2017-06-22T09:27:02Z</time>
      </trkpt>
      <trkpt lat="45.98201" lon="4.81351">
        <ele>248</ele>
        <time>2017-06-22T09:27:03Z</time>
      </trkpt>
      <trkpt lat="45.982" lon="4.81345">
        <ele>248</ele>
        <time>2017-06-22T09:27:04Z</time>
      </trkpt>
      <trkpt lat="45.982" lon="4.81338">
        <ele>248</ele>
        <time>2017-06-22T09:27:05Z</time>
      </trkpt>
      <trkpt lat="45.98198" lon="4.81331">
        <ele>247</ele>
        <time>2017-06-22T09:27:06Z</time>
      </trkpt>
      <trkpt lat="45.98196" lon="4.81325">
        <ele>247</ele>
        <time>2017-06-22T09:27:07Z</time>
      </trkpt>
      <trkpt lat="45.98194" lon="4.81318">
        <ele>247</ele>
        <time>2017-06-22T09:27:08Z</time>
      </trkpt>
      <trkpt lat="45.98192" lon="4.81311">
        <ele>247</ele>
        <time>2017-06-22T09:27:09Z</time>
      </trkpt>
      <trkpt lat="45.98191" lon="4.81303">
        <ele>247</ele>
        <time>2017-06-22T09:27:10Z</time>
      </trkpt>
      <trkpt lat="45.98189" lon="4.81295">
        <ele>247</ele>
        <time>2017-06-22T09:27:11Z</time>
      </trkpt>
      <trkpt lat="45.98188" lon="4.81288">
        <ele>247</ele>
        <time>2017-06-22T09:27:12Z</time>
      </trkpt>
      <trkpt lat="45.98185" lon="4.81281">
        <ele>247</ele>
        <time>2017-06-22T09:27:13Z</time>
      </trkpt>
      <trkpt lat="45.98183" lon="4.81273">
        <ele>247</ele>
        <time>2017-06-22T09:27:14Z</time>
      </trkpt>
      <trkpt lat="45.98181" lon="4.81266">
        <ele>247</ele>
        <time>2017-06-22T09:27:15Z</time>
      </trkpt>
      <trkpt lat="45.9818" lon="4.81258">
        <ele>247</ele>
        <time>2017-06-22T09:27:16Z</time>
      </trkpt>
      <trkpt lat="45.98178" lon="4.8125">
        <ele>247</ele>
        <time>2017-06-22T09:27:17Z</time>
      </trkpt>
      <trkpt lat="45.98177" lon="4.81242">
        <ele>247</ele>
        <time>2017-06-22T09:27:18Z</time>
      </trkpt>
      <trkpt lat="45.98176" lon="4.81234">
        <ele>246</ele>
        <time>2017-06-22T09:27:19Z</time>
      </trkpt>
      <trkpt lat="45.98175" lon="4.81227">
        <ele>246</ele>
        <time>2017-06-22T09:27:20Z</time>
      </trkpt>
      <trkpt lat="45.98175" lon="4.81219">
        <ele>246</ele>
        <time>2017-06-22T09:27:21Z</time>
      </trkpt>
      <trkpt lat="45.98175" lon="4.81211">
        <ele>246</ele>
        <time>2017-06-22T09:27:22Z</time>
      </trkpt>
      <trkpt lat="45.98174" lon="4.81203">
        <ele>245</ele>
        <time>2017-06-22T09:27:23Z</time>
      </trkpt>
      <trkpt lat="45.98174" lon="4.81195">
        <ele>245</ele>
        <time>2017-06-22T09:27:24Z</time>
      </trkpt>
      <trkpt lat="45.98173" lon="4.81187">
        <ele>245</ele>
        <time>2017-06-22T09:27:25Z</time>
      </trkpt>
      <trkpt lat="45.98172" lon="4.81179">
        <ele>245</ele>
        <time>2017-06-22T09:27:26Z</time>
      </trkpt>
      <trkpt lat="45.98171" lon="4.81172">
        <ele>245</ele>
        <time>2017-06-22T09:27:27Z</time>
      </trkpt>
      <trkpt lat="45.98169" lon="4.81164">
        <ele>245</ele>
        <time>2017-06-22T09:27:28Z</time>
      </trkpt>
      <trkpt lat="45.98166" lon="4.81158">
        <ele>245</ele>
        <time>2017-06-22T09:27:29Z</time>
      </trkpt>
      <trkpt lat="45.98164" lon="4.81151">
        <ele>245</ele>
        <time>2017-06-22T09:27:30Z</time>
      </trkpt>
      <trkpt lat="45.98161" lon="4.81144">
        <ele>245</ele>
        <time>2017-06-22T09:27:31Z</time>
      </trkpt>
      <trkpt lat="45.98158" lon="4.81136">
        <ele>245</ele>
        <time>2017-06-22T09:27:32Z</time>
      </trkpt>
      <trkpt lat="45.98155" lon="4.81128">
        <ele>245</ele>
        <time>2017-06-22T09:27:33Z</time>
      </trkpt>
      <trkpt lat="45.98152" lon="4.81121">
        <ele>245</ele>
        <time>2017-06-22T09:27:34Z</time>
      </trkpt>
      <trkpt lat="45.98148" lon="4.81115">
        <ele>245</ele>
        <time>2017-06-22T09:27:35Z</time>
      </trkpt>
      <trkpt lat="45.98144" lon="4.81107">
        <ele>245</ele>
        <time>2017-06-22T09:27:36Z</time>
      </trkpt>
      <trkpt lat="45.9814" lon="4.811">
        <ele>245</ele>
        <time>2017-06-22T09:27:37Z</time>
      </trkpt>
      <trkpt lat="45.98136" lon="4.81092">
        <ele>245</ele>
        <time>2017-06-22T09:27:38Z</time>
      </trkpt>
      <trkpt lat="45.98132" lon="4.81085">
        <ele>245</ele>
        <time>2017-06-22T09:27:39Z</time>
      </trkpt>
      <trkpt lat="45.98129" lon="4.81078">
        <ele>243</ele>
        <time>2017-06-22T09:27:40Z</time>
      </trkpt>
      <trkpt lat="45.98126" lon="4.81071">
        <ele>243</ele>
        <time>2017-06-22T09:27:41Z</time>
      </trkpt>
      <trkpt lat="45.98123" lon="4.81063">
        <ele>243</ele>
        <time>2017-06-22T09:27:42Z</time>
      </trkpt>
      <trkpt lat="45.98121" lon="4.81055">
        <ele>243</ele>
        <time>2017-06-22T09:27:43Z</time>
      </trkpt>
      <trkpt lat="45.98118" lon="4.81047">
        <ele>242</ele>
        <time>2017-06-22T09:27:44Z</time>
      </trkpt>
      <trkpt lat="45.98116" lon="4.81038">
        <ele>242</ele>
        <time>2017-06-22T09:27:45Z</time>
      </trkpt>
      <trkpt lat="45.98115" lon="4.8103">
        <ele>242</ele>
        <time>2017-06-22T09:27:46Z</time>
      </trkpt>
      <trkpt lat="45.98114" lon="4.81023">
        <ele>242</ele>
        <time>2017-06-22T09:27:47Z</time>
      </trkpt>
      <trkpt lat="45.98112" lon="4.81016">
        <ele>242</ele>
        <time>2017-06-22T09:27:48Z</time>
      </trkpt>
      <trkpt lat="45.9811" lon="4.8101">
        <ele>242</ele>
        <time>2017-06-22T09:27:49Z</time>
      </trkpt>
      <trkpt lat="45.98106" lon="4.80999">
        <ele>239</ele>
        <time>2017-06-22T09:27:51Z</time>
      </trkpt>
      <trkpt lat="45.98104" lon="4.80994">
        <ele>240</ele>
        <time>2017-06-22T09:27:52Z</time>
      </trkpt>
      <trkpt lat="45.981" lon="4.80985">
        <ele>239</ele>
        <time>2017-06-22T09:27:54Z</time>
      </trkpt>
      <trkpt lat="45.98099" lon="4.8098">
        <ele>239</ele>
        <time>2017-06-22T09:27:55Z</time>
      </trkpt>
      <trkpt lat="45.98096" lon="4.80968">
        <ele>239</ele>
        <time>2017-06-22T09:27:57Z</time>
      </trkpt>
      <trkpt lat="45.98094" lon="4.80961">
        <ele>239</ele>
        <time>2017-06-22T09:27:58Z</time>
      </trkpt>
      <trkpt lat="45.98092" lon="4.80952">
        <ele>238</ele>
        <time>2017-06-22T09:27:59Z</time>
      </trkpt>
      <trkpt lat="45.98089" lon="4.80944">
        <ele>238</ele>
        <time>2017-06-22T09:28:00Z</time>
      </trkpt>
      <trkpt lat="45.98086" lon="4.80934">
        <ele>238</ele>
        <time>2017-06-22T09:28:01Z</time>
      </trkpt>
      <trkpt lat="45.98083" lon="4.80924">
        <ele>240</ele>
        <time>2017-06-22T09:28:02Z</time>
      </trkpt>
      <trkpt lat="45.9808" lon="4.80914">
        <ele>239</ele>
        <time>2017-06-22T09:28:03Z</time>
      </trkpt>
      <trkpt lat="45.98078" lon="4.80903">
        <ele>238</ele>
        <time>2017-06-22T09:28:04Z</time>
      </trkpt>
      <trkpt lat="45.98076" lon="4.80892">
        <ele>238</ele>
        <time>2017-06-22T09:28:05Z</time>
      </trkpt>
      <trkpt lat="45.98073" lon="4.8088">
        <ele>237</ele>
        <time>2017-06-22T09:28:06Z</time>
      </trkpt>
      <trkpt lat="45.98069" lon="4.80868">
        <ele>237</ele>
        <time>2017-06-22T09:28:07Z</time>
      </trkpt>
      <trkpt lat="45.98066" lon="4.80856">
        <ele>236</ele>
        <time>2017-06-22T09:28:08Z</time>
      </trkpt>
      <trkpt lat="45.98063" lon="4.80844">
        <ele>236</ele>
        <time>2017-06-22T09:28:09Z</time>
      </trkpt>
      <trkpt lat="45.9806" lon="4.80831">
        <ele>234</ele>
        <time>2017-06-22T09:28:10Z</time>
      </trkpt>
      <trkpt lat="45.98057" lon="4.80818">
        <ele>234</ele>
        <time>2017-06-22T09:28:11Z</time>
      </trkpt>
      <trkpt lat="45.98054" lon="4.80806">
        <ele>234</ele>
        <time>2017-06-22T09:28:12Z</time>
      </trkpt>
      <trkpt lat="45.98051" lon="4.80794">
        <ele>233</ele>
        <time>2017-06-22T09:28:13Z</time>
      </trkpt>
      <trkpt lat="45.98048" lon="4.80782">
        <ele>233</ele>
        <time>2017-06-22T09:28:14Z</time>
      </trkpt>
      <trkpt lat="45.98046" lon="4.8077">
        <ele>233</ele>
        <time>2017-06-22T09:28:15Z</time>
      </trkpt>
      <trkpt lat="45.98043" lon="4.8076">
        <ele>233</ele>
        <time>2017-06-22T09:28:16Z</time>
      </trkpt>
      <trkpt lat="45.98041" lon="4.80751">
        <ele>233</ele>
        <time>2017-06-22T09:28:17Z</time>
      </trkpt>
      <trkpt lat="45.98038" lon="4.80744">
        <ele>231</ele>
        <time>2017-06-22T09:28:18Z</time>
      </trkpt>
      <trkpt lat="45.98037" lon="4.80738">
        <ele>231</ele>
        <time>2017-06-22T09:28:19Z</time>
      </trkpt>
      <trkpt lat="45.98035" lon="4.80731">
        <ele>231</ele>
        <time>2017-06-22T09:28:20Z</time>
      </trkpt>
      <trkpt lat="45.98035" lon="4.80725">
        <ele>231</ele>
        <time>2017-06-22T09:28:21Z</time>
      </trkpt>
      <trkpt lat="45.98033" lon="4.80713">
        <ele>231</ele>
        <time>2017-06-22T09:28:23Z</time>
      </trkpt>
      <trkpt lat="45.98033" lon="4.80707">
        <ele>231</ele>
        <time>2017-06-22T09:28:24Z</time>
      </trkpt>
      <trkpt lat="45.98039" lon="4.80699">
        <ele>230</ele>
        <time>2017-06-22T09:28:26Z</time>
      </trkpt>
      <trkpt lat="45.98044" lon="4.80697">
        <ele>230</ele>
        <time>2017-06-22T09:28:27Z</time>
      </trkpt>
      <trkpt lat="45.98051" lon="4.80697">
        <ele>230</ele>
        <time>2017-06-22T09:28:28Z</time>
      </trkpt>
      <trkpt lat="45.98058" lon="4.80697">
        <ele>230</ele>
        <time>2017-06-22T09:28:29Z</time>
      </trkpt>
      <trkpt lat="45.98065" lon="4.80696">
        <ele>230</ele>
        <time>2017-06-22T09:28:30Z</time>
      </trkpt>
      <trkpt lat="45.98072" lon="4.80696">
        <ele>230</ele>
        <time>2017-06-22T09:28:31Z</time>
      </trkpt>
      <trkpt lat="45.98079" lon="4.80696">
        <ele>230</ele>
        <time>2017-06-22T09:28:32Z</time>
      </trkpt>
      <trkpt lat="45.98087" lon="4.80696">
        <ele>228</ele>
        <time>2017-06-22T09:28:33Z</time>
      </trkpt>
      <trkpt lat="45.98095" lon="4.80696">
        <ele>228</ele>
        <time>2017-06-22T09:28:34Z</time>
      </trkpt>
      <trkpt lat="45.98103" lon="4.80696">
        <ele>228</ele>
        <time>2017-06-22T09:28:35Z</time>
      </trkpt>
      <trkpt lat="45.98111" lon="4.80696">
        <ele>228</ele>
        <time>2017-06-22T09:28:36Z</time>
      </trkpt>
      <trkpt lat="45.98118" lon="4.80695">
        <ele>228</ele>
        <time>2017-06-22T09:28:37Z</time>
      </trkpt>
      <trkpt lat="45.98125" lon="4.80694">
        <ele>228</ele>
        <time>2017-06-22T09:28:38Z</time>
      </trkpt>
      <trkpt lat="45.98133" lon="4.80694">
        <ele>228</ele>
        <time>2017-06-22T09:28:39Z</time>
      </trkpt>
      <trkpt lat="45.98141" lon="4.80694">
        <ele>228</ele>
        <time>2017-06-22T09:28:40Z</time>
      </trkpt>
      <trkpt lat="45.98149" lon="4.80693">
        <ele>228</ele>
        <time>2017-06-22T09:28:41Z</time>
      </trkpt>
      <trkpt lat="45.98157" lon="4.80692">
        <ele>227</ele>
        <time>2017-06-22T09:28:42Z</time>
      </trkpt>
      <trkpt lat="45.98165" lon="4.80691">
        <ele>227</ele>
        <time>2017-06-22T09:28:43Z</time>
      </trkpt>
      <trkpt lat="45.98173" lon="4.8069">
        <ele>225</ele>
        <time>2017-06-22T09:28:44Z</time>
      </trkpt>
      <trkpt lat="45.98182" lon="4.80688">
        <ele>225</ele>
        <time>2017-06-22T09:28:45Z</time>
      </trkpt>
      <trkpt lat="45.9819" lon="4.80685">
        <ele>225</ele>
        <time>2017-06-22T09:28:46Z</time>
      </trkpt>
      <trkpt lat="45.98198" lon="4.80683">
        <ele>225</ele>
        <time>2017-06-22T09:28:47Z</time>
      </trkpt>
      <trkpt lat="45.98206" lon="4.8068">
        <ele>224</ele>
        <time>2017-06-22T09:28:48Z</time>
      </trkpt>
      <trkpt lat="45.98213" lon="4.80674">
        <ele>224</ele>
        <time>2017-06-22T09:28:49Z</time>
      </trkpt>
      <trkpt lat="45.9822" lon="4.80667">
        <ele>224</ele>
        <time>2017-06-22T09:28:50Z</time>
      </trkpt>
      <trkpt lat="45.98226" lon="4.80659">
        <ele>223</ele>
        <time>2017-06-22T09:28:51Z</time>
      </trkpt>
      <trkpt lat="45.9823" lon="4.80648">
        <ele>223</ele>
        <time>2017-06-22T09:28:52Z</time>
      </trkpt>
      <trkpt lat="45.98234" lon="4.80637">
        <ele>224</ele>
        <time>2017-06-22T09:28:53Z</time>
      </trkpt>
      <trkpt lat="45.98238" lon="4.80627">
        <ele>224</ele>
        <time>2017-06-22T09:28:54Z</time>
      </trkpt>
      <trkpt lat="45.98241" lon="4.80616">
        <ele>224</ele>
        <time>2017-06-22T09:28:55Z</time>
      </trkpt>
      <trkpt lat="45.98244" lon="4.80605">
        <ele>224</ele>
        <time>2017-06-22T09:28:56Z</time>
      </trkpt>
      <trkpt lat="45.98247" lon="4.80594">
        <ele>224</ele>
        <time>2017-06-22T09:28:57Z</time>
      </trkpt>
      <trkpt lat="45.9825" lon="4.80584">
        <ele>224</ele>
        <time>2017-06-22T09:28:58Z</time>
      </trkpt>
      <trkpt lat="45.98253" lon="4.80574">
        <ele>224</ele>
        <time>2017-06-22T09:28:59Z</time>
      </trkpt>
      <trkpt lat="45.98255" lon="4.80564">
        <ele>224</ele>
        <time>2017-06-22T09:29:00Z</time>
      </trkpt>
      <trkpt lat="45.98258" lon="4.80555">
        <ele>224</ele>
        <time>2017-06-22T09:29:01Z</time>
      </trkpt>
      <trkpt lat="45.98262" lon="4.80545">
        <ele>224</ele>
        <time>2017-06-22T09:29:02Z</time>
      </trkpt>
      <trkpt lat="45.98264" lon="4.80536">
        <ele>224</ele>
        <time>2017-06-22T09:29:03Z</time>
      </trkpt>
      <trkpt lat="45.98267" lon="4.80527">
        <ele>224</ele>
        <time>2017-06-22T09:29:04Z</time>
      </trkpt>
      <trkpt lat="45.9827" lon="4.80518">
        <ele>224</ele>
        <time>2017-06-22T09:29:05Z</time>
      </trkpt>
      <trkpt lat="45.98272" lon="4.80509">
        <ele>223</ele>
        <time>2017-06-22T09:29:06Z</time>
      </trkpt>
      <trkpt lat="45.98275" lon="4.80501">
        <ele>223</ele>
        <time>2017-06-22T09:29:07Z</time>
      </trkpt>
      <trkpt lat="45.98277" lon="4.80493">
        <ele>223</ele>
        <time>2017-06-22T09:29:08Z</time>
      </trkpt>
      <trkpt lat="45.98278" lon="4.80485">
        <ele>223</ele>
        <time>2017-06-22T09:29:09Z</time>
      </trkpt>
      <trkpt lat="45.9828" lon="4.80477">
        <ele>223</ele>
        <time>2017-06-22T09:29:10Z</time>
      </trkpt>
      <trkpt lat="45.98282" lon="4.80469">
        <ele>223</ele>
        <time>2017-06-22T09:29:11Z</time>
      </trkpt>
      <trkpt lat="45.98284" lon="4.80462">
        <ele>223</ele>
        <time>2017-06-22T09:29:12Z</time>
      </trkpt>
      <trkpt lat="45.98285" lon="4.80456">
        <ele>224</ele>
        <time>2017-06-22T09:29:13Z</time>
      </trkpt>
      <trkpt lat="45.9829" lon="4.80445">
        <ele>224</ele>
        <time>2017-06-22T09:29:15Z</time>
      </trkpt>
      <trkpt lat="45.98291" lon="4.80438">
        <ele>224</ele>
        <time>2017-06-22T09:29:16Z</time>
      </trkpt>
      <trkpt lat="45.98292" lon="4.80431">
        <ele>224</ele>
        <time>2017-06-22T09:29:17Z</time>
      </trkpt>
      <trkpt lat="45.98293" lon="4.80425">
        <ele>224</ele>
        <time>2017-06-22T09:29:18Z</time>
      </trkpt>
      <trkpt lat="45.98294" lon="4.80419">
        <ele>224</ele>
        <time>2017-06-22T09:29:19Z</time>
      </trkpt>
      <trkpt lat="45.98295" lon="4.80412">
        <ele>224</ele>
        <time>2017-06-22T09:29:20Z</time>
      </trkpt>
      <trkpt lat="45.98297" lon="4.80406">
        <ele>225</ele>
        <time>2017-06-22T09:29:21Z</time>
      </trkpt>
      <trkpt lat="45.98299" lon="4.80399">
        <ele>225</ele>
        <time>2017-06-22T09:29:22Z</time>
      </trkpt>
      <trkpt lat="45.983" lon="4.80393">
        <ele>225</ele>
        <time>2017-06-22T09:29:23Z</time>
      </trkpt>
      <trkpt lat="45.98302" lon="4.80386">
        <ele>225</ele>
        <time>2017-06-22T09:29:24Z</time>
      </trkpt>
      <trkpt lat="45.98303" lon="4.80379">
        <ele>225</ele>
        <time>2017-06-22T09:29:25Z</time>
      </trkpt>
      <trkpt lat="45.98304" lon="4.80371">
        <ele>225</ele>
        <time>2017-06-22T09:29:26Z</time>
      </trkpt>
      <trkpt lat="45.98307" lon="4.80363">
        <ele>225</ele>
        <time>2017-06-22T09:29:27Z</time>
      </trkpt>
      <trkpt lat="45.98308" lon="4.80355">
        <ele>226</ele>
        <time>2017-06-22T09:29:28Z</time>
      </trkpt>
      <trkpt lat="45.98309" lon="4.80347">
        <ele>226</ele>
        <time>2017-06-22T09:29:29Z</time>
      </trkpt>
      <trkpt lat="45.9831" lon="4.80338">
        <ele>226</ele>
        <time>2017-06-22T09:29:30Z</time>
      </trkpt>
      <trkpt lat="45.98312" lon="4.8033">
        <ele>227</ele>
        <time>2017-06-22T09:29:31Z</time>
      </trkpt>
      <trkpt lat="45.98314" lon="4.80322">
        <ele>227</ele>
        <time>2017-06-22T09:29:32Z</time>
      </trkpt>
      <trkpt lat="45.98315" lon="4.80315">
        <ele>227</ele>
        <time>2017-06-22T09:29:33Z</time>
      </trkpt>
      <trkpt lat="45.98316" lon="4.80308">
        <ele>227</ele>
        <time>2017-06-22T09:29:34Z</time>
      </trkpt>
      <trkpt lat="45.98317" lon="4.80301">
        <ele>226</ele>
        <time>2017-06-22T09:29:35Z</time>
      </trkpt>
      <trkpt lat="45.98318" lon="4.80293">
        <ele>226</ele>
        <time>2017-06-22T09:29:36Z</time>
      </trkpt>
      <trkpt lat="45.98319" lon="4.80287">
        <ele>227</ele>
        <time>2017-06-22T09:29:37Z</time>
      </trkpt>
      <trkpt lat="45.9832" lon="4.8028">
        <ele>227</ele>
        <time>2017-06-22T09:29:38Z</time>
      </trkpt>
      <trkpt lat="45.98322" lon="4.80274">
        <ele>227</ele>
        <time>2017-06-22T09:29:39Z</time>
      </trkpt>
      <trkpt lat="45.98323" lon="4.80268">
        <ele>227</ele>
        <time>2017-06-22T09:29:40Z</time>
      </trkpt>
      <trkpt lat="45.98325" lon="4.80257">
        <ele>228</ele>
        <time>2017-06-22T09:29:42Z</time>
      </trkpt>
      <trkpt lat="45.98325" lon="4.80252">
        <ele>229</ele>
        <time>2017-06-22T09:29:43Z</time>
      </trkpt>
      <trkpt lat="45.98327" lon="4.80241">
        <ele>228</ele>
        <time>2017-06-22T09:29:45Z</time>
      </trkpt>
      <trkpt lat="45.98328" lon="4.80237">
        <ele>228</ele>
        <time>2017-06-22T09:29:46Z</time>
      </trkpt>
      <trkpt lat="45.98329" lon="4.80228">
        <ele>228</ele>
        <time>2017-06-22T09:29:48Z</time>
      </trkpt>
      <trkpt lat="45.98329" lon="4.80223">
        <ele>227</ele>
        <time>2017-06-22T09:29:49Z</time>
      </trkpt>
      <trkpt lat="45.9833" lon="4.80212">
        <ele>227</ele>
        <time>2017-06-22T09:29:51Z</time>
      </trkpt>
      <trkpt lat="45.98329" lon="4.80208">
        <ele>227</ele>
        <time>2017-06-22T09:29:52Z</time>
      </trkpt>
      <trkpt lat="45.98327" lon="4.802">
        <ele>227</ele>
        <time>2017-06-22T09:29:54Z</time>
      </trkpt>
      <trkpt lat="45.98324" lon="4.80194">
        <ele>227</ele>
        <time>2017-06-22T09:29:55Z</time>
      </trkpt>
      <trkpt lat="45.98321" lon="4.80184">
        <ele>227</ele>
        <time>2017-06-22T09:29:57Z</time>
      </trkpt>
      <trkpt lat="45.98319" lon="4.80178">
        <ele>227</ele>
        <time>2017-06-22T09:29:58Z</time>
      </trkpt>
      <trkpt lat="45.98316" lon="4.80168">
        <ele>227</ele>
        <time>2017-06-22T09:30:00Z</time>
      </trkpt>
      <trkpt lat="45.98315" lon="4.80163">
        <ele>228</ele>
        <time>2017-06-22T09:30:01Z</time>
      </trkpt>
      <trkpt lat="45.98312" lon="4.80154">
        <ele>228</ele>
        <time>2017-06-22T09:30:03Z</time>
      </trkpt>
      <trkpt lat="45.98311" lon="4.80149">
        <ele>228</ele>
        <time>2017-06-22T09:30:04Z</time>
      </trkpt>
      <trkpt lat="45.98308" lon="4.80139">
        <ele>228</ele>
        <time>2017-06-22T09:30:06Z</time>
      </trkpt>
      <trkpt lat="45.98306" lon="4.80133">
        <ele>228</ele>
        <time>2017-06-22T09:30:07Z</time>
      </trkpt>
      <trkpt lat="45.98303" lon="4.80127">
        <ele>228</ele>
        <time>2017-06-22T09:30:08Z</time>
      </trkpt>
      <trkpt lat="45.983" lon="4.80121">
        <ele>228</ele>
        <time>2017-06-22T09:30:09Z</time>
      </trkpt>
      <trkpt lat="45.98298" lon="4.80115">
        <ele>228</ele>
        <time>2017-06-22T09:30:10Z</time>
      </trkpt>
      <trkpt lat="45.98296" lon="4.80109">
        <ele>228</ele>
        <time>2017-06-22T09:30:11Z</time>
      </trkpt>
      <trkpt lat="45.98294" lon="4.80102">
        <ele>228</ele>
        <time>2017-06-22T09:30:12Z</time>
      </trkpt>
      <trkpt lat="45.98292" lon="4.80097">
        <ele>228</ele>
        <time>2017-06-22T09:30:13Z</time>
      </trkpt>
      <trkpt lat="45.98288" lon="4.80086">
        <ele>228</ele>
        <time>2017-06-22T09:30:15Z</time>
      </trkpt>
      <trkpt lat="45.98287" lon="4.8008">
        <ele>229</ele>
        <time>2017-06-22T09:30:16Z</time>
      </trkpt>
      <trkpt lat="45.98283" lon="4.80069">
        <ele>229</ele>
        <time>2017-06-22T09:30:18Z</time>
      </trkpt>
      <trkpt lat="45.9828" lon="4.80063">
        <ele>229</ele>
        <time>2017-06-22T09:30:19Z</time>
      </trkpt>
      <trkpt lat="45.98278" lon="4.80057">
        <ele>229</ele>
        <time>2017-06-22T09:30:20Z</time>
      </trkpt>
      <trkpt lat="45.98275" lon="4.80051">
        <ele>229</ele>
        <time>2017-06-22T09:30:21Z</time>
      </trkpt>
      <trkpt lat="45.98273" lon="4.80044">
        <ele>229</ele>
        <time>2017-06-22T09:30:22Z</time>
      </trkpt>
      <trkpt lat="45.9827" lon="4.80037">
        <ele>229</ele>
        <time>2017-06-22T09:30:23Z</time>
      </trkpt>
      <trkpt lat="45.98268" lon="4.8003">
        <ele>229</ele>
        <time>2017-06-22T09:30:24Z</time>
      </trkpt>
      <trkpt lat="45.98266" lon="4.80024">
        <ele>228</ele>
        <time>2017-06-22T09:30:25Z</time>
      </trkpt>
      <trkpt lat="45.98264" lon="4.80017">
        <ele>228</ele>
        <time>2017-06-22T09:30:26Z</time>
      </trkpt>
      <trkpt lat="45.98262" lon="4.80011">
        <ele>228</ele>
        <time>2017-06-22T09:30:27Z</time>
      </trkpt>
      <trkpt lat="45.98258" lon="4.79999">
        <ele>227</ele>
        <time>2017-06-22T09:30:29Z</time>
      </trkpt>
      <trkpt lat="45.98256" lon="4.79994">
        <ele>227</ele>
        <time>2017-06-22T09:30:30Z</time>
      </trkpt>
      <trkpt lat="45.98253" lon="4.79982">
        <ele>228</ele>
        <time>2017-06-22T09:30:32Z</time>
      </trkpt>
      <trkpt lat="45.9825" lon="4.79976">
        <ele>228</ele>
        <time>2017-06-22T09:30:33Z</time>
      </trkpt>
      <trkpt lat="45.98248" lon="4.7997">
        <ele>225</ele>
        <time>2017-06-22T09:30:34Z</time>
      </trkpt>
      <trkpt lat="45.98246" lon="4.79965">
        <ele>225</ele>
        <time>2017-06-22T09:30:35Z</time>
      </trkpt>
      <trkpt lat="45.98242" lon="4.79954">
        <ele>225</ele>
        <time>2017-06-22T09:30:37Z</time>
      </trkpt>
      <trkpt lat="45.9824" lon="4.79948">
        <ele>225</ele>
        <time>2017-06-22T09:30:38Z</time>
      </trkpt>
      <trkpt lat="45.98239" lon="4.79942">
        <ele>225</ele>
        <time>2017-06-22T09:30:39Z</time>
      </trkpt>
      <trkpt lat="45.98237" lon="4.79936">
        <ele>225</ele>
        <time>2017-06-22T09:30:40Z</time>
      </trkpt>
      <trkpt lat="45.98236" lon="4.79929">
        <ele>225</ele>
        <time>2017-06-22T09:30:41Z</time>
      </trkpt>
      <trkpt lat="45.98234" lon="4.79922">
        <ele>225</ele>
        <time>2017-06-22T09:30:42Z</time>
      </trkpt>
      <trkpt lat="45.98232" lon="4.79915">
        <ele>225</ele>
        <time>2017-06-22T09:30:43Z</time>
      </trkpt>
      <trkpt lat="45.9823" lon="4.79909">
        <ele>225</ele>
        <time>2017-06-22T09:30:44Z</time>
      </trkpt>
      <trkpt lat="45.98228" lon="4.79898">
        <ele>225</ele>
        <time>2017-06-22T09:30:46Z</time>
      </trkpt>
      <trkpt lat="45.98227" lon="4.79892">
        <ele>225</ele>
        <time>2017-06-22T09:30:47Z</time>
      </trkpt>
      <trkpt lat="45.98226" lon="4.79886">
        <ele>225</ele>
        <time>2017-06-22T09:30:48Z</time>
      </trkpt>
      <trkpt lat="45.98225" lon="4.79879">
        <ele>225</ele>
        <time>2017-06-22T09:30:49Z</time>
      </trkpt>
      <trkpt lat="45.98222" lon="4.79868">
        <ele>225</ele>
        <time>2017-06-22T09:30:51Z</time>
      </trkpt>
      <trkpt lat="45.98221" lon="4.79861">
        <ele>225</ele>
        <time>2017-06-22T09:30:52Z</time>
      </trkpt>
      <trkpt lat="45.98218" lon="4.79854">
        <ele>225</ele>
        <time>2017-06-22T09:30:53Z</time>
      </trkpt>
      <trkpt lat="45.98216" lon="4.79847">
        <ele>225</ele>
        <time>2017-06-22T09:30:54Z</time>
      </trkpt>
      <trkpt lat="45.98214" lon="4.79841">
        <ele>225</ele>
        <time>2017-06-22T09:30:55Z</time>
      </trkpt>
      <trkpt lat="45.98211" lon="4.79834">
        <ele>225</ele>
        <time>2017-06-22T09:30:56Z</time>
      </trkpt>
      <trkpt lat="45.98208" lon="4.79826">
        <ele>226</ele>
        <time>2017-06-22T09:30:57Z</time>
      </trkpt>
      <trkpt lat="45.98205" lon="4.79819">
        <ele>226</ele>
        <time>2017-06-22T09:30:58Z</time>
      </trkpt>
      <trkpt lat="45.98203" lon="4.79811">
        <ele>226</ele>
        <time>2017-06-22T09:30:59Z</time>
      </trkpt>
      <trkpt lat="45.982" lon="4.79804">
        <ele>226</ele>
        <time>2017-06-22T09:31:00Z</time>
      </trkpt>
      <trkpt lat="45.98198" lon="4.79796">
        <ele>226</ele>
        <time>2017-06-22T09:31:01Z</time>
      </trkpt>
      <trkpt lat="45.98196" lon="4.79789">
        <ele>226</ele>
        <time>2017-06-22T09:31:02Z</time>
      </trkpt>
      <trkpt lat="45.98192" lon="4.79782">
        <ele>226</ele>
        <time>2017-06-22T09:31:03Z</time>
      </trkpt>
      <trkpt lat="45.9819" lon="4.79775">
        <ele>226</ele>
        <time>2017-06-22T09:31:04Z</time>
      </trkpt>
      <trkpt lat="45.98189" lon="4.79763">
        <ele>226</ele>
        <time>2017-06-22T09:31:06Z</time>
      </trkpt>
      <trkpt lat="45.98189" lon="4.79757">
        <ele>226</ele>
        <time>2017-06-22T09:31:07Z</time>
      </trkpt>
      <trkpt lat="45.98187" lon="4.79745">
        <ele>227</ele>
        <time>2017-06-22T09:31:09Z</time>
      </trkpt>
      <trkpt lat="45.98184" lon="4.79741">
        <ele>227</ele>
        <time>2017-06-22T09:31:10Z</time>
      </trkpt>
      <trkpt lat="45.98177" lon="4.79737">
        <ele>227</ele>
        <time>2017-06-22T09:31:12Z</time>
      </trkpt>
      <trkpt lat="45.98172" lon="4.79737">
        <ele>227</ele>
        <time>2017-06-22T09:31:13Z</time>
      </trkpt>
      <trkpt lat="45.98168" lon="4.79739">
        <ele>227</ele>
        <time>2017-06-22T09:31:14Z</time>
      </trkpt>
      <trkpt lat="45.98164" lon="4.79742">
        <ele>226</ele>
        <time>2017-06-22T09:31:15Z</time>
      </trkpt>
      <trkpt lat="45.98159" lon="4.79745">
        <ele>226</ele>
        <time>2017-06-22T09:31:16Z</time>
      </trkpt>
      <trkpt lat="45.98154" lon="4.79748">
        <ele>226</ele>
        <time>2017-06-22T09:31:17Z</time>
      </trkpt>
      <trkpt lat="45.98149" lon="4.7975">
        <ele>225</ele>
        <time>2017-06-22T09:31:18Z</time>
      </trkpt>
      <trkpt lat="45.98144" lon="4.79752">
        <ele>225</ele>
        <time>2017-06-22T09:31:19Z</time>
      </trkpt>
      <trkpt lat="45.98139" lon="4.79753">
        <ele>224</ele>
        <time>2017-06-22T09:31:20Z</time>
      </trkpt>
      <trkpt lat="45.98133" lon="4.79755">
        <ele>224</ele>
        <time>2017-06-22T09:31:21Z</time>
      </trkpt>
      <trkpt lat="45.98127" lon="4.79756">
        <ele>224</ele>
        <time>2017-06-22T09:31:22Z</time>
      </trkpt>
      <trkpt lat="45.98122" lon="4.79757">
        <ele>224</ele>
        <time>2017-06-22T09:31:23Z</time>
      </trkpt>
      <trkpt lat="45.98116" lon="4.79758">
        <ele>224</ele>
        <time>2017-06-22T09:31:24Z</time>
      </trkpt>
      <trkpt lat="45.9811" lon="4.79759">
        <ele>224</ele>
        <time>2017-06-22T09:31:25Z</time>
      </trkpt>
      <trkpt lat="45.98105" lon="4.7976">
        <ele>224</ele>
        <time>2017-06-22T09:31:26Z</time>
      </trkpt>
      <trkpt lat="45.98099" lon="4.79761">
        <ele>223</ele>
        <time>2017-06-22T09:31:27Z</time>
      </trkpt>
      <trkpt lat="45.98093" lon="4.79762">
        <ele>223</ele>
        <time>2017-06-22T09:31:28Z</time>
      </trkpt>
      <trkpt lat="45.98088" lon="4.79763">
        <ele>223</ele>
        <time>2017-06-22T09:31:29Z</time>
      </trkpt>
      <trkpt lat="45.98082" lon="4.79763">
        <ele>223</ele>
        <time>2017-06-22T09:31:30Z</time>
      </trkpt>
      <trkpt lat="45.98077" lon="4.79764">
        <ele>223</ele>
        <time>2017-06-22T09:31:31Z</time>
      </trkpt>
      <trkpt lat="45.98071" lon="4.79765">
        <ele>223</ele>
        <time>2017-06-22T09:31:32Z</time>
      </trkpt>
      <trkpt lat="45.98066" lon="4.79766">
        <ele>223</ele>
        <time>2017-06-22T09:31:33Z</time>
      </trkpt>
      <trkpt lat="45.98061" lon="4.79767">
        <ele>223</ele>
        <time>2017-06-22T09:31:34Z</time>
      </trkpt>
      <trkpt lat="45.98055" lon="4.79767">
        <ele>223</ele>
        <time>2017-06-22T09:31:35Z</time>
      </trkpt>
      <trkpt lat="45.9805" lon="4.79768">
        <ele>223</ele>
        <time>2017-06-22T09:31:36Z</time>
      </trkpt>
      <trkpt lat="45.98044" lon="4.79769">
        <ele>223</ele>
        <time>2017-06-22T09:31:37Z</time>
      </trkpt>
      <trkpt lat="45.98039" lon="4.7977">
        <ele>223</ele>
        <time>2017-06-22T09:31:38Z</time>
      </trkpt>
      <trkpt lat="45.98034" lon="4.79771">
        <ele>223</ele>
        <time>2017-06-22T09:31:39Z</time>
      </trkpt>
      <trkpt lat="45.98029" lon="4.79771">
        <ele>223</ele>
        <time>2017-06-22T09:31:40Z</time>
      </trkpt>
      <trkpt lat="45.98024" lon="4.79772">
        <ele>223</ele>
        <time>2017-06-22T09:31:41Z</time>
      </trkpt>
      <trkpt lat="45.98019" lon="4.79773">
        <ele>223</ele>
        <time>2017-06-22T09:31:42Z</time>
      </trkpt>
      <trkpt lat="45.98014" lon="4.79774">
        <ele>223</ele>
        <time>2017-06-22T09:31:43Z</time>
      </trkpt>
      <trkpt lat="45.98009" lon="4.79775">
        <ele>223</ele>
        <time>2017-06-22T09:31:44Z</time>
      </trkpt>
      <trkpt lat="45.98004" lon="4.79776">
        <ele>223</ele>
        <time>2017-06-22T09:31:45Z</time>
      </trkpt>
      <trkpt lat="45.97999" lon="4.79777">
        <ele>224</ele>
        <time>2017-06-22T09:31:46Z</time>
      </trkpt>
      <trkpt lat="45.97993" lon="4.79778">
        <ele>224</ele>
        <time>2017-06-22T09:31:47Z</time>
      </trkpt>
      <trkpt lat="45.97988" lon="4.79778">
        <ele>224</ele>
        <time>2017-06-22T09:31:48Z</time>
      </trkpt>
      <trkpt lat="45.97983" lon="4.79779">
        <ele>224</ele>
        <time>2017-06-22T09:31:49Z</time>
      </trkpt>
      <trkpt lat="45.97977" lon="4.79779">
        <ele>224</ele>
        <time>2017-06-22T09:31:50Z</time>
      </trkpt>
      <trkpt lat="45.97973" lon="4.7978">
        <ele>224</ele>
        <time>2017-06-22T09:31:51Z</time>
      </trkpt>
      <trkpt lat="45.97968" lon="4.79781">
        <ele>224</ele>
        <time>2017-06-22T09:31:52Z</time>
      </trkpt>
      <trkpt lat="45.97963" lon="4.79782">
        <ele>224</ele>
        <time>2017-06-22T09:31:53Z</time>
      </trkpt>
      <trkpt lat="45.97959" lon="4.79783">
        <ele>224</ele>
        <time>2017-06-22T09:31:54Z</time>
      </trkpt>
      <trkpt lat="45.97954" lon="4.79784">
        <ele>224</ele>
        <time>2017-06-22T09:31:55Z</time>
      </trkpt>
      <trkpt lat="45.9795" lon="4.79785">
        <ele>224</ele>
        <time>2017-06-22T09:31:56Z</time>
      </trkpt>
      <trkpt lat="45.97945" lon="4.79786">
        <ele>224</ele>
        <time>2017-06-22T09:31:57Z</time>
      </trkpt>
      <trkpt lat="45.9794" lon="4.79786">
        <ele>224</ele>
        <time>2017-06-22T09:31:58Z</time>
      </trkpt>
      <trkpt lat="45.97935" lon="4.79787">
        <ele>224</ele>
        <time>2017-06-22T09:31:59Z</time>
      </trkpt>
      <trkpt lat="45.9793" lon="4.79788">
        <ele>224</ele>
        <time>2017-06-22T09:32:00Z</time>
      </trkpt>
      <trkpt lat="45.97924" lon="4.79788">
        <ele>224</ele>
        <time>2017-06-22T09:32:01Z</time>
      </trkpt>
      <trkpt lat="45.97919" lon="4.79789">
        <ele>224</ele>
        <time>2017-06-22T09:32:02Z</time>
      </trkpt>
      <trkpt lat="45.97913" lon="4.7979">
        <ele>225</ele>
        <time>2017-06-22T09:32:03Z</time>
      </trkpt>
      <trkpt lat="45.97907" lon="4.79791">
        <ele>225</ele>
        <time>2017-06-22T09:32:04Z</time>
      </trkpt>
      <trkpt lat="45.97901" lon="4.79792">
        <ele>224</ele>
        <time>2017-06-22T09:32:05Z</time>
      </trkpt>
      <trkpt lat="45.97896" lon="4.79793">
        <ele>224</ele>
        <time>2017-06-22T09:32:06Z</time>
      </trkpt>
      <trkpt lat="45.97891" lon="4.79794">
        <ele>224</ele>
        <time>2017-06-22T09:32:07Z</time>
      </trkpt>
      <trkpt lat="45.97885" lon="4.79795">
        <ele>224</ele>
        <time>2017-06-22T09:32:08Z</time>
      </trkpt>
      <trkpt lat="45.9788" lon="4.79795">
        <ele>224</ele>
        <time>2017-06-22T09:32:09Z</time>
      </trkpt>
      <trkpt lat="45.97874" lon="4.79796">
        <ele>224</ele>
        <time>2017-06-22T09:32:10Z</time>
      </trkpt>
      <trkpt lat="45.97868" lon="4.79796">
        <ele>224</ele>
        <time>2017-06-22T09:32:11Z</time>
      </trkpt>
      <trkpt lat="45.97862" lon="4.79796">
        <ele>224</ele>
        <time>2017-06-22T09:32:12Z</time>
      </trkpt>
      <trkpt lat="45.97857" lon="4.79797">
        <ele>224</ele>
        <time>2017-06-22T09:32:13Z</time>
      </trkpt>
      <trkpt lat="45.97851" lon="4.79797">
        <ele>224</ele>
        <time>2017-06-22T09:32:14Z</time>
      </trkpt>
      <trkpt lat="45.97845" lon="4.79798">
        <ele>224</ele>
        <time>2017-06-22T09:32:15Z</time>
      </trkpt>
      <trkpt lat="45.97839" lon="4.79799">
        <ele>224</ele>
        <time>2017-06-22T09:32:16Z</time>
      </trkpt>
      <trkpt lat="45.97833" lon="4.798">
        <ele>223</ele>
        <time>2017-06-22T09:32:17Z</time>
      </trkpt>
      <trkpt lat="45.97828" lon="4.798">
        <ele>223</ele>
        <time>2017-06-22T09:32:18Z</time>
      </trkpt>
      <trkpt lat="45.97822" lon="4.79801">
        <ele>223</ele>
        <time>2017-06-22T09:32:19Z</time>
      </trkpt>
      <trkpt lat="45.97817" lon="4.79801">
        <ele>223</ele>
        <time>2017-06-22T09:32:20Z</time>
      </trkpt>
      <trkpt lat="45.97811" lon="4.79802">
        <ele>223</ele>
        <time>2017-06-22T09:32:21Z</time>
      </trkpt>
      <trkpt lat="45.97805" lon="4.79803">
        <ele>223</ele>
        <time>2017-06-22T09:32:22Z</time>
      </trkpt>
      <trkpt lat="45.97799" lon="4.79804">
        <ele>223</ele>
        <time>2017-06-22T09:32:23Z</time>
      </trkpt>
      <trkpt lat="45.97793" lon="4.79805">
        <ele>223</ele>
        <time>2017-06-22T09:32:24Z</time>
      </trkpt>
      <trkpt lat="45.97787" lon="4.79806">
        <ele>223</ele>
        <time>2017-06-22T09:32:25Z</time>
      </trkpt>
      <trkpt lat="45.97782" lon="4.79808">
        <ele>223</ele>
        <time>2017-06-22T09:32:26Z</time>
      </trkpt>
      <trkpt lat="45.97776" lon="4.79809">
        <ele>223</ele>
        <time>2017-06-22T09:32:27Z</time>
      </trkpt>
      <trkpt lat="45.9777" lon="4.7981">
        <ele>223</ele>
        <time>2017-06-22T09:32:28Z</time>
      </trkpt>
      <trkpt lat="45.97765" lon="4.79811">
        <ele>223</ele>
        <time>2017-06-22T09:32:29Z</time>
      </trkpt>
      <trkpt lat="45.9776" lon="4.79812">
        <ele>223</ele>
        <time>2017-06-22T09:32:30Z</time>
      </trkpt>
      <trkpt lat="45.97755" lon="4.79814">
        <ele>223</ele>
        <time>2017-06-22T09:32:31Z</time>
      </trkpt>
      <trkpt lat="45.9775" lon="4.79814">
        <ele>223</ele>
        <time>2017-06-22T09:32:32Z</time>
      </trkpt>
      <trkpt lat="45.97745" lon="4.79815">
        <ele>223</ele>
        <time>2017-06-22T09:32:33Z</time>
      </trkpt>
      <trkpt lat="45.9774" lon="4.79816">
        <ele>223</ele>
        <time>2017-06-22T09:32:34Z</time>
      </trkpt>
      <trkpt lat="45.97735" lon="4.79818">
        <ele>223</ele>
        <time>2017-06-22T09:32:35Z</time>
      </trkpt>
      <trkpt lat="45.9773" lon="4.79819">
        <ele>223</ele>
        <time>2017-06-22T09:32:36Z</time>
      </trkpt>
      <trkpt lat="45.97725" lon="4.7982">
        <ele>223</ele>
        <time>2017-06-22T09:32:37Z</time>
      </trkpt>
      <trkpt lat="45.97721" lon="4.79821">
        <ele>223</ele>
        <time>2017-06-22T09:32:38Z</time>
      </trkpt>
      <trkpt lat="45.97716" lon="4.79822">
        <ele>223</ele>
        <time>2017-06-22T09:32:39Z</time>
      </trkpt>
      <trkpt lat="45.97711" lon="4.79823">
        <ele>223</ele>
        <time>2017-06-22T09:32:40Z</time>
      </trkpt>
      <trkpt lat="45.97706" lon="4.79824">
        <ele>223</ele>
        <time>2017-06-22T09:32:41Z</time>
      </trkpt>
      <trkpt lat="45.97701" lon="4.79825">
        <ele>223</ele>
        <time>2017-06-22T09:32:42Z</time>
      </trkpt>
      <trkpt lat="45.97696" lon="4.79826">
        <ele>223</ele>
        <time>2017-06-22T09:32:43Z</time>
      </trkpt>
      <trkpt lat="45.9769" lon="4.79827">
        <ele>223</ele>
        <time>2017-06-22T09:32:44Z</time>
      </trkpt>
      <trkpt lat="45.97685" lon="4.79829">
        <ele>223</ele>
        <time>2017-06-22T09:32:45Z</time>
      </trkpt>
      <trkpt lat="45.97681" lon="4.7983">
        <ele>223</ele>
        <time>2017-06-22T09:32:46Z</time>
      </trkpt>
      <trkpt lat="45.97676" lon="4.79832">
        <ele>222</ele>
        <time>2017-06-22T09:32:47Z</time>
      </trkpt>
      <trkpt lat="45.97671" lon="4.79833">
        <ele>222</ele>
        <time>2017-06-22T09:32:48Z</time>
      </trkpt>
      <trkpt lat="45.97666" lon="4.79834">
        <ele>222</ele>
        <time>2017-06-22T09:32:49Z</time>
      </trkpt>
      <trkpt lat="45.97658" lon="4.79837">
        <ele>221</ele>
        <time>2017-06-22T09:32:51Z</time>
      </trkpt>
      <trkpt lat="45.97654" lon="4.79838">
        <ele>221</ele>
        <time>2017-06-22T09:32:52Z</time>
      </trkpt>
      <trkpt lat="45.97646" lon="4.7984">
        <ele>221</ele>
        <time>2017-06-22T09:32:54Z</time>
      </trkpt>
      <trkpt lat="45.97642" lon="4.79842">
        <ele>221</ele>
        <time>2017-06-22T09:32:55Z</time>
      </trkpt>
      <trkpt lat="45.97634" lon="4.79845">
        <ele>221</ele>
        <time>2017-06-22T09:32:57Z</time>
      </trkpt>
      <trkpt lat="45.97631" lon="4.79846">
        <ele>221</ele>
        <time>2017-06-22T09:32:58Z</time>
      </trkpt>
      <trkpt lat="45.97623" lon="4.79849">
        <ele>221</ele>
        <time>2017-06-22T09:33:00Z</time>
      </trkpt>
      <trkpt lat="45.97618" lon="4.79851">
        <ele>221</ele>
        <time>2017-06-22T09:33:01Z</time>
      </trkpt>
      <trkpt lat="45.97613" lon="4.79853">
        <ele>221</ele>
        <time>2017-06-22T09:33:02Z</time>
      </trkpt>
      <trkpt lat="45.97607" lon="4.79855">
        <ele>221</ele>
        <time>2017-06-22T09:33:03Z</time>
      </trkpt>
      <trkpt lat="45.97602" lon="4.79857">
        <ele>221</ele>
        <time>2017-06-22T09:33:04Z</time>
      </trkpt>
      <trkpt lat="45.97596" lon="4.79858">
        <ele>221</ele>
        <time>2017-06-22T09:33:05Z</time>
      </trkpt>
      <trkpt lat="45.97591" lon="4.7986">
        <ele>221</ele>
        <time>2017-06-22T09:33:06Z</time>
      </trkpt>
      <trkpt lat="45.97585" lon="4.79862">
        <ele>221</ele>
        <time>2017-06-22T09:33:07Z</time>
      </trkpt>
      <trkpt lat="45.9758" lon="4.79863">
        <ele>222</ele>
        <time>2017-06-22T09:33:08Z</time>
      </trkpt>
      <trkpt lat="45.97575" lon="4.79865">
        <ele>222</ele>
        <time>2017-06-22T09:33:09Z</time>
      </trkpt>
      <trkpt lat="45.9757" lon="4.79868">
        <ele>222</ele>
        <time>2017-06-22T09:33:10Z</time>
      </trkpt>
      <trkpt lat="45.97564" lon="4.79869">
        <ele>222</ele>
        <time>2017-06-22T09:33:11Z</time>
      </trkpt>
      <trkpt lat="45.97559" lon="4.79872">
        <ele>222</ele>
        <time>2017-06-22T09:33:12Z</time>
      </trkpt>
      <trkpt lat="45.97553" lon="4.79873">
        <ele>222</ele>
        <time>2017-06-22T09:33:13Z</time>
      </trkpt>
      <trkpt lat="45.97547" lon="4.79874">
        <ele>222</ele>
        <time>2017-06-22T09:33:14Z</time>
      </trkpt>
      <trkpt lat="45.97541" lon="4.79875">
        <ele>222</ele>
        <time>2017-06-22T09:33:15Z</time>
      </trkpt>
      <trkpt lat="45.97535" lon="4.79877">
        <ele>222</ele>
        <time>2017-06-22T09:33:16Z</time>
      </trkpt>
      <trkpt lat="45.97529" lon="4.79878">
        <ele>222</ele>
        <time>2017-06-22T09:33:17Z</time>
      </trkpt>
      <trkpt lat="45.97522" lon="4.79879">
        <ele>222</ele>
        <time>2017-06-22T09:33:18Z</time>
      </trkpt>
      <trkpt lat="45.97514" lon="4.79879">
        <ele>222</ele>
        <time>2017-06-22T09:33:19Z</time>
      </trkpt>
      <trkpt lat="45.97507" lon="4.7988">
        <ele>222</ele>
        <time>2017-06-22T09:33:20Z</time>
      </trkpt>
      <trkpt lat="45.975" lon="4.79881">
        <ele>221</ele>
        <time>2017-06-22T09:33:21Z</time>
      </trkpt>
      <trkpt lat="45.97492" lon="4.79882">
        <ele>221</ele>
        <time>2017-06-22T09:33:22Z</time>
      </trkpt>
      <trkpt lat="45.97484" lon="4.79883">
        <ele>221</ele>
        <time>2017-06-22T09:33:23Z</time>
      </trkpt>
      <trkpt lat="45.97475" lon="4.79883">
        <ele>221</ele>
        <time>2017-06-22T09:33:24Z</time>
      </trkpt>
      <trkpt lat="45.97467" lon="4.79882">
        <ele>221</ele>
        <time>2017-06-22T09:33:25Z</time>
      </trkpt>
      <trkpt lat="45.97459" lon="4.79883">
        <ele>221</ele>
        <time>2017-06-22T09:33:26Z</time>
      </trkpt>
      <trkpt lat="45.97451" lon="4.79883">
        <ele>221</ele>
        <time>2017-06-22T09:33:27Z</time>
      </trkpt>
      <trkpt lat="45.97443" lon="4.79883">
        <ele>221</ele>
        <time>2017-06-22T09:33:28Z</time>
      </trkpt>
      <trkpt lat="45.97435" lon="4.79883">
        <ele>220</ele>
        <time>2017-06-22T09:33:29Z</time>
      </trkpt>
      <trkpt lat="45.97427" lon="4.79883">
        <ele>220</ele>
        <time>2017-06-22T09:33:30Z</time>
      </trkpt>
      <trkpt lat="45.97418" lon="4.79884">
        <ele>220</ele>
        <time>2017-06-22T09:33:31Z</time>
      </trkpt>
      <trkpt lat="45.9741" lon="4.79885">
        <ele>218</ele>
        <time>2017-06-22T09:33:32Z</time>
      </trkpt>
      <trkpt lat="45.97402" lon="4.79887">
        <ele>218</ele>
        <time>2017-06-22T09:33:33Z</time>
      </trkpt>
      <trkpt lat="45.97395" lon="4.79889">
        <ele>218</ele>
        <time>2017-06-22T09:33:34Z</time>
      </trkpt>
      <trkpt lat="45.97387" lon="4.79891">
        <ele>217</ele>
        <time>2017-06-22T09:33:35Z</time>
      </trkpt>
      <trkpt lat="45.97379" lon="4.79893">
        <ele>217</ele>
        <time>2017-06-22T09:33:36Z</time>
      </trkpt>
      <trkpt lat="45.97371" lon="4.79895">
        <ele>217</ele>
        <time>2017-06-22T09:33:37Z</time>
      </trkpt>
      <trkpt lat="45.97363" lon="4.79897">
        <ele>217</ele>
        <time>2017-06-22T09:33:38Z</time>
      </trkpt>
      <trkpt lat="45.97355" lon="4.79899">
        <ele>216</ele>
        <time>2017-06-22T09:33:39Z</time>
      </trkpt>
      <trkpt lat="45.97347" lon="4.799">
        <ele>216</ele>
        <time>2017-06-22T09:33:40Z</time>
      </trkpt>
      <trkpt lat="45.97339" lon="4.79901">
        <ele>215</ele>
        <time>2017-06-22T09:33:41Z</time>
      </trkpt>
      <trkpt lat="45.9733" lon="4.79902">
        <ele>214</ele>
        <time>2017-06-22T09:33:42Z</time>
      </trkpt>
      <trkpt lat="45.97322" lon="4.799">
        <ele>214</ele>
        <time>2017-06-22T09:33:43Z</time>
      </trkpt>
      <trkpt lat="45.97314" lon="4.79901">
        <ele>214</ele>
        <time>2017-06-22T09:33:44Z</time>
      </trkpt>
      <trkpt lat="45.97306" lon="4.79902">
        <ele>214</ele>
        <time>2017-06-22T09:33:45Z</time>
      </trkpt>
      <trkpt lat="45.97298" lon="4.79903">
        <ele>213</ele>
        <time>2017-06-22T09:33:46Z</time>
      </trkpt>
      <trkpt lat="45.9729" lon="4.79904">
        <ele>213</ele>
        <time>2017-06-22T09:33:47Z</time>
      </trkpt>
      <trkpt lat="45.97283" lon="4.79906">
        <ele>213</ele>
        <time>2017-06-22T09:33:48Z</time>
      </trkpt>
      <trkpt lat="45.97276" lon="4.79907">
        <ele>213</ele>
        <time>2017-06-22T09:33:49Z</time>
      </trkpt>
      <trkpt lat="45.97269" lon="4.7991">
        <ele>213</ele>
        <time>2017-06-22T09:33:50Z</time>
      </trkpt>
      <trkpt lat="45.97262" lon="4.79911">
        <ele>213</ele>
        <time>2017-06-22T09:33:51Z</time>
      </trkpt>
      <trkpt lat="45.97258" lon="4.79911">
        <ele>212</ele>
        <time>2017-06-22T09:33:52Z</time>
      </trkpt>
      <trkpt lat="45.97252" lon="4.79903">
        <ele>213</ele>
        <time>2017-06-22T09:33:54Z</time>
      </trkpt>
      <trkpt lat="45.97249" lon="4.79896">
        <ele>211</ele>
        <time>2017-06-22T09:33:55Z</time>
      </trkpt>
      <trkpt lat="45.97248" lon="4.7989">
        <ele>211</ele>
        <time>2017-06-22T09:33:56Z</time>
      </trkpt>
      <trkpt lat="45.97246" lon="4.79882">
        <ele>211</ele>
        <time>2017-06-22T09:33:57Z</time>
      </trkpt>
      <trkpt lat="45.97244" lon="4.79874">
        <ele>211</ele>
        <time>2017-06-22T09:33:58Z</time>
      </trkpt>
      <trkpt lat="45.97242" lon="4.79866">
        <ele>211</ele>
        <time>2017-06-22T09:33:59Z</time>
      </trkpt>
      <trkpt lat="45.9724" lon="4.79858">
        <ele>211</ele>
        <time>2017-06-22T09:34:00Z</time>
      </trkpt>
      <trkpt lat="45.97239" lon="4.79849">
        <ele>211</ele>
        <time>2017-06-22T09:34:01Z</time>
      </trkpt>
      <trkpt lat="45.97239" lon="4.7984">
        <ele>211</ele>
        <time>2017-06-22T09:34:02Z</time>
      </trkpt>
      <trkpt lat="45.97239" lon="4.79831">
        <ele>211</ele>
        <time>2017-06-22T09:34:03Z</time>
      </trkpt>
      <trkpt lat="45.97239" lon="4.79823">
        <ele>211</ele>
        <time>2017-06-22T09:34:04Z</time>
      </trkpt>
      <trkpt lat="45.97239" lon="4.79815">
        <ele>211</ele>
        <time>2017-06-22T09:34:05Z</time>
      </trkpt>
      <trkpt lat="45.97239" lon="4.79807">
        <ele>210</ele>
        <time>2017-06-22T09:34:06Z</time>
      </trkpt>
      <trkpt lat="45.9724" lon="4.79799">
        <ele>210</ele>
        <time>2017-06-22T09:34:07Z</time>
      </trkpt>
      <trkpt lat="45.97241" lon="4.79792">
        <ele>210</ele>
        <time>2017-06-22T09:34:08Z</time>
      </trkpt>
      <trkpt lat="45.97243" lon="4.79786">
        <ele>210</ele>
        <time>2017-06-22T09:34:09Z</time>
      </trkpt>
      <trkpt lat="45.97244" lon="4.79779">
        <ele>210</ele>
        <time>2017-06-22T09:34:10Z</time>
      </trkpt>
      <trkpt lat="45.97244" lon="4.79772">
        <ele>210</ele>
        <time>2017-06-22T09:34:11Z</time>
      </trkpt>
      <trkpt lat="45.97245" lon="4.79766">
        <ele>209</ele>
        <time>2017-06-22T09:34:12Z</time>
      </trkpt>
      <trkpt lat="45.97246" lon="4.79758">
        <ele>209</ele>
        <time>2017-06-22T09:34:13Z</time>
      </trkpt>
      <trkpt lat="45.97247" lon="4.79751">
        <ele>209</ele>
        <time>2017-06-22T09:34:14Z</time>
      </trkpt>
      <trkpt lat="45.97247" lon="4.79743">
        <ele>209</ele>
        <time>2017-06-22T09:34:15Z</time>
      </trkpt>
      <trkpt lat="45.97248" lon="4.79737">
        <ele>209</ele>
        <time>2017-06-22T09:34:16Z</time>
      </trkpt>
      <trkpt lat="45.97248" lon="4.7973">
        <ele>209</ele>
        <time>2017-06-22T09:34:17Z</time>
      </trkpt>
      <trkpt lat="45.9725" lon="4.79723">
        <ele>209</ele>
        <time>2017-06-22T09:34:18Z</time>
      </trkpt>
      <trkpt lat="45.97251" lon="4.79715">
        <ele>212</ele>
        <time>2017-06-22T09:34:19Z</time>
      </trkpt>
      <trkpt lat="45.97252" lon="4.79707">
        <ele>212</ele>
        <time>2017-06-22T09:34:20Z</time>
      </trkpt>
      <trkpt lat="45.97252" lon="4.79699">
        <ele>212</ele>
        <time>2017-06-22T09:34:21Z</time>
      </trkpt>
      <trkpt lat="45.97253" lon="4.79691">
        <ele>212</ele>
        <time>2017-06-22T09:34:22Z</time>
      </trkpt>
      <trkpt lat="45.97255" lon="4.79683">
        <ele>211</ele>
        <time>2017-06-22T09:34:23Z</time>
      </trkpt>
      <trkpt lat="45.97256" lon="4.79675">
        <ele>210</ele>
        <time>2017-06-22T09:34:24Z</time>
      </trkpt>
      <trkpt lat="45.97257" lon="4.79667">
        <ele>210</ele>
        <time>2017-06-22T09:34:25Z</time>
      </trkpt>
      <trkpt lat="45.97258" lon="4.79659">
        <ele>210</ele>
        <time>2017-06-22T09:34:26Z</time>
      </trkpt>
      <trkpt lat="45.97258" lon="4.79651">
        <ele>211</ele>
        <time>2017-06-22T09:34:27Z</time>
      </trkpt>
      <trkpt lat="45.97258" lon="4.79643">
        <ele>212</ele>
        <time>2017-06-22T09:34:28Z</time>
      </trkpt>
      <trkpt lat="45.97258" lon="4.79635">
        <ele>213</ele>
        <time>2017-06-22T09:34:29Z</time>
      </trkpt>
      <trkpt lat="45.97258" lon="4.79628">
        <ele>213</ele>
        <time>2017-06-22T09:34:30Z</time>
      </trkpt>
      <trkpt lat="45.97257" lon="4.7962">
        <ele>213</ele>
        <time>2017-06-22T09:34:31Z</time>
      </trkpt>
      <trkpt lat="45.97257" lon="4.79612">
        <ele>213</ele>
        <time>2017-06-22T09:34:32Z</time>
      </trkpt>
      <trkpt lat="45.97257" lon="4.79605">
        <ele>213</ele>
        <time>2017-06-22T09:34:33Z</time>
      </trkpt>
      <trkpt lat="45.97257" lon="4.79598">
        <ele>212</ele>
        <time>2017-06-22T09:34:34Z</time>
      </trkpt>
      <trkpt lat="45.97257" lon="4.79591">
        <ele>212</ele>
        <time>2017-06-22T09:34:35Z</time>
      </trkpt>
      <trkpt lat="45.97258" lon="4.79579">
        <ele>212</ele>
        <time>2017-06-22T09:34:37Z</time>
      </trkpt>
      <trkpt lat="45.97257" lon="4.79571">
        <ele>212</ele>
        <time>2017-06-22T09:34:38Z</time>
      </trkpt>
      <trkpt lat="45.97256" lon="4.79564">
        <ele>213</ele>
        <time>2017-06-22T09:34:39Z</time>
      </trkpt>
      <trkpt lat="45.97254" lon="4.79556">
        <ele>213</ele>
        <time>2017-06-22T09:34:40Z</time>
      </trkpt>
      <trkpt lat="45.97254" lon="4.79548">
        <ele>214</ele>
        <time>2017-06-22T09:34:41Z</time>
      </trkpt>
      <trkpt lat="45.97253" lon="4.79541">
        <ele>214</ele>
        <time>2017-06-22T09:34:42Z</time>
      </trkpt>
      <trkpt lat="45.97251" lon="4.79534">
        <ele>214</ele>
        <time>2017-06-22T09:34:43Z</time>
      </trkpt>
      <trkpt lat="45.9725" lon="4.79526">
        <ele>214</ele>
        <time>2017-06-22T09:34:44Z</time>
      </trkpt>
      <trkpt lat="45.9725" lon="4.79519">
        <ele>210</ele>
        <time>2017-06-22T09:34:45Z</time>
      </trkpt>
      <trkpt lat="45.97249" lon="4.79512">
        <ele>210</ele>
        <time>2017-06-22T09:34:46Z</time>
      </trkpt>
      <trkpt lat="45.97248" lon="4.79504">
        <ele>211</ele>
        <time>2017-06-22T09:34:47Z</time>
      </trkpt>
      <trkpt lat="45.97246" lon="4.79497">
        <ele>211</ele>
        <time>2017-06-22T09:34:48Z</time>
      </trkpt>
      <trkpt lat="45.97245" lon="4.7949">
        <ele>210</ele>
        <time>2017-06-22T09:34:49Z</time>
      </trkpt>
      <trkpt lat="45.97244" lon="4.79483">
        <ele>210</ele>
        <time>2017-06-22T09:34:50Z</time>
      </trkpt>
      <trkpt lat="45.97242" lon="4.79476">
        <ele>209</ele>
        <time>2017-06-22T09:34:51Z</time>
      </trkpt>
      <trkpt lat="45.9724" lon="4.79469">
        <ele>209</ele>
        <time>2017-06-22T09:34:52Z</time>
      </trkpt>
      <trkpt lat="45.97237" lon="4.79462">
        <ele>209</ele>
        <time>2017-06-22T09:34:53Z</time>
      </trkpt>
      <trkpt lat="45.97235" lon="4.79454">
        <ele>209</ele>
        <time>2017-06-22T09:34:54Z</time>
      </trkpt>
      <trkpt lat="45.97232" lon="4.79447">
        <ele>209</ele>
        <time>2017-06-22T09:34:55Z</time>
      </trkpt>
      <trkpt lat="45.97229" lon="4.7944">
        <ele>209</ele>
        <time>2017-06-22T09:34:56Z</time>
      </trkpt>
      <trkpt lat="45.97226" lon="4.79433">
        <ele>209</ele>
        <time>2017-06-22T09:34:57Z</time>
      </trkpt>
      <trkpt lat="45.97223" lon="4.79426">
        <ele>209</ele>
        <time>2017-06-22T09:34:58Z</time>
      </trkpt>
      <trkpt lat="45.97221" lon="4.79419">
        <ele>208</ele>
        <time>2017-06-22T09:34:59Z</time>
      </trkpt>
      <trkpt lat="45.97218" lon="4.79413">
        <ele>208</ele>
        <time>2017-06-22T09:35:00Z</time>
      </trkpt>
      <trkpt lat="45.97216" lon="4.79406">
        <ele>208</ele>
        <time>2017-06-22T09:35:01Z</time>
      </trkpt>
      <trkpt lat="45.97212" lon="4.79399">
        <ele>208</ele>
        <time>2017-06-22T09:35:02Z</time>
      </trkpt>
      <trkpt lat="45.97209" lon="4.79392">
        <ele>208</ele>
        <time>2017-06-22T09:35:03Z</time>
      </trkpt>
      <trkpt lat="45.97206" lon="4.79386">
        <ele>208</ele>
        <time>2017-06-22T09:35:04Z</time>
      </trkpt>
      <trkpt lat="45.97203" lon="4.7938">
        <ele>208</ele>
        <time>2017-06-22T09:35:05Z</time>
      </trkpt>
      <trkpt lat="45.972" lon="4.79373">
        <ele>207</ele>
        <time>2017-06-22T09:35:06Z</time>
      </trkpt>
      <trkpt lat="45.97197" lon="4.79366">
        <ele>207</ele>
        <time>2017-06-22T09:35:07Z</time>
      </trkpt>
      <trkpt lat="45.97194" lon="4.79359">
        <ele>207</ele>
        <time>2017-06-22T09:35:08Z</time>
      </trkpt>
      <trkpt lat="45.97191" lon="4.79351">
        <ele>207</ele>
        <time>2017-06-22T09:35:09Z</time>
      </trkpt>
      <trkpt lat="45.97188" lon="4.79344">
        <ele>207</ele>
        <time>2017-06-22T09:35:10Z</time>
      </trkpt>
      <trkpt lat="45.97184" lon="4.79335">
        <ele>206</ele>
        <time>2017-06-22T09:35:11Z</time>
      </trkpt>
      <trkpt lat="45.9718" lon="4.79328">
        <ele>207</ele>
        <time>2017-06-22T09:35:12Z</time>
      </trkpt>
      <trkpt lat="45.97177" lon="4.7932">
        <ele>207</ele>
        <time>2017-06-22T09:35:13Z</time>
      </trkpt>
      <trkpt lat="45.97174" lon="4.79313">
        <ele>207</ele>
        <time>2017-06-22T09:35:14Z</time>
      </trkpt>
      <trkpt lat="45.97171" lon="4.79305">
        <ele>207</ele>
        <time>2017-06-22T09:35:15Z</time>
      </trkpt>
      <trkpt lat="45.97168" lon="4.79297">
        <ele>207</ele>
        <time>2017-06-22T09:35:16Z</time>
      </trkpt>
      <trkpt lat="45.97165" lon="4.7929">
        <ele>204</ele>
        <time>2017-06-22T09:35:17Z</time>
      </trkpt>
      <trkpt lat="45.97163" lon="4.79282">
        <ele>204</ele>
        <time>2017-06-22T09:35:18Z</time>
      </trkpt>
      <trkpt lat="45.9716" lon="4.79274">
        <ele>204</ele>
        <time>2017-06-22T09:35:19Z</time>
      </trkpt>
      <trkpt lat="45.97157" lon="4.79267">
        <ele>204</ele>
        <time>2017-06-22T09:35:20Z</time>
      </trkpt>
      <trkpt lat="45.97154" lon="4.7926">
        <ele>205</ele>
        <time>2017-06-22T09:35:21Z</time>
      </trkpt>
      <trkpt lat="45.97152" lon="4.79253">
        <ele>205</ele>
        <time>2017-06-22T09:35:22Z</time>
      </trkpt>
      <trkpt lat="45.97149" lon="4.79246">
        <ele>205</ele>
        <time>2017-06-22T09:35:23Z</time>
      </trkpt>
      <trkpt lat="45.97145" lon="4.79238">
        <ele>205</ele>
        <time>2017-06-22T09:35:24Z</time>
      </trkpt>
      <trkpt lat="45.97142" lon="4.7923">
        <ele>205</ele>
        <time>2017-06-22T09:35:25Z</time>
      </trkpt>
      <trkpt lat="45.97139" lon="4.79222">
        <ele>206</ele>
        <time>2017-06-22T09:35:26Z</time>
      </trkpt>
      <trkpt lat="45.97135" lon="4.79214">
        <ele>206</ele>
        <time>2017-06-22T09:35:27Z</time>
      </trkpt>
      <trkpt lat="45.97132" lon="4.79206">
        <ele>206</ele>
        <time>2017-06-22T09:35:28Z</time>
      </trkpt>
      <trkpt lat="45.97129" lon="4.79198">
        <ele>206</ele>
        <time>2017-06-22T09:35:29Z</time>
      </trkpt>
      <trkpt lat="45.97126" lon="4.79191">
        <ele>206</ele>
        <time>2017-06-22T09:35:30Z</time>
      </trkpt>
      <trkpt lat="45.97123" lon="4.79183">
        <ele>206</ele>
        <time>2017-06-22T09:35:31Z</time>
      </trkpt>
      <trkpt lat="45.9712" lon="4.79176">
        <ele>206</ele>
        <time>2017-06-22T09:35:32Z</time>
      </trkpt>
      <trkpt lat="45.97117" lon="4.79169">
        <ele>206</ele>
        <time>2017-06-22T09:35:33Z</time>
      </trkpt>
      <trkpt lat="45.97114" lon="4.79163">
        <ele>207</ele>
        <time>2017-06-22T09:35:34Z</time>
      </trkpt>
      <trkpt lat="45.9711" lon="4.79156">
        <ele>206</ele>
        <time>2017-06-22T09:35:35Z</time>
      </trkpt>
      <trkpt lat="45.97107" lon="4.79149">
        <ele>206</ele>
        <time>2017-06-22T09:35:36Z</time>
      </trkpt>
      <trkpt lat="45.97102" lon="4.79143">
        <ele>206</ele>
        <time>2017-06-22T09:35:37Z</time>
      </trkpt>
      <trkpt lat="45.97098" lon="4.79137">
        <ele>206</ele>
        <time>2017-06-22T09:35:38Z</time>
      </trkpt>
      <trkpt lat="45.97094" lon="4.79129">
        <ele>206</ele>
        <time>2017-06-22T09:35:39Z</time>
      </trkpt>
      <trkpt lat="45.9709" lon="4.79122">
        <ele>206</ele>
        <time>2017-06-22T09:35:40Z</time>
      </trkpt>
      <trkpt lat="45.97086" lon="4.79113">
        <ele>206</ele>
        <time>2017-06-22T09:35:41Z</time>
      </trkpt>
      <trkpt lat="45.97083" lon="4.79105">
        <ele>204</ele>
        <time>2017-06-22T09:35:42Z</time>
      </trkpt>
      <trkpt lat="45.97081" lon="4.79096">
        <ele>204</ele>
        <time>2017-06-22T09:35:43Z</time>
      </trkpt>
      <trkpt lat="45.9708" lon="4.79087">
        <ele>204</ele>
        <time>2017-06-22T09:35:44Z</time>
      </trkpt>
      <trkpt lat="45.97079" lon="4.7908">
        <ele>204</ele>
        <time>2017-06-22T09:35:45Z</time>
      </trkpt>
      <trkpt lat="45.97077" lon="4.79073">
        <ele>204</ele>
        <time>2017-06-22T09:35:46Z</time>
      </trkpt>
      <trkpt lat="45.97075" lon="4.79065">
        <ele>204</ele>
        <time>2017-06-22T09:35:47Z</time>
      </trkpt>
      <trkpt lat="45.97073" lon="4.79057">
        <ele>203</ele>
        <time>2017-06-22T09:35:48Z</time>
      </trkpt>
      <trkpt lat="45.9707" lon="4.79049">
        <ele>203</ele>
        <time>2017-06-22T09:35:49Z</time>
      </trkpt>
      <trkpt lat="45.97068" lon="4.79041">
        <ele>203</ele>
        <time>2017-06-22T09:35:50Z</time>
      </trkpt>
      <trkpt lat="45.97065" lon="4.79032">
        <ele>203</ele>
        <time>2017-06-22T09:35:51Z</time>
      </trkpt>
      <trkpt lat="45.97062" lon="4.79023">
        <ele>204</ele>
        <time>2017-06-22T09:35:52Z</time>
      </trkpt>
      <trkpt lat="45.9706" lon="4.79015">
        <ele>204</ele>
        <time>2017-06-22T09:35:53Z</time>
      </trkpt>
      <trkpt lat="45.97058" lon="4.79007">
        <ele>204</ele>
        <time>2017-06-22T09:35:54Z</time>
      </trkpt>
      <trkpt lat="45.97056" lon="4.78999">
        <ele>205</ele>
        <time>2017-06-22T09:35:55Z</time>
      </trkpt>
      <trkpt lat="45.97054" lon="4.78993">
        <ele>205</ele>
        <time>2017-06-22T09:35:56Z</time>
      </trkpt>
      <trkpt lat="45.97051" lon="4.78986">
        <ele>205</ele>
        <time>2017-06-22T09:35:57Z</time>
      </trkpt>
      <trkpt lat="45.97049" lon="4.7898">
        <ele>205</ele>
        <time>2017-06-22T09:35:58Z</time>
      </trkpt>
      <trkpt lat="45.97046" lon="4.78974">
        <ele>205</ele>
        <time>2017-06-22T09:35:59Z</time>
      </trkpt>
      <trkpt lat="45.97043" lon="4.78968">
        <ele>205</ele>
        <time>2017-06-22T09:36:00Z</time>
      </trkpt>
      <trkpt lat="45.9704" lon="4.78962">
        <ele>205</ele>
        <time>2017-06-22T09:36:01Z</time>
      </trkpt>
      <trkpt lat="45.97037" lon="4.78956">
        <ele>205</ele>
        <time>2017-06-22T09:36:02Z</time>
      </trkpt>
      <trkpt lat="45.97033" lon="4.78951">
        <ele>205</ele>
        <time>2017-06-22T09:36:03Z</time>
      </trkpt>
      <trkpt lat="45.97029" lon="4.78945">
        <ele>205</ele>
        <time>2017-06-22T09:36:04Z</time>
      </trkpt>
      <trkpt lat="45.97025" lon="4.78939">
        <ele>205</ele>
        <time>2017-06-22T09:36:05Z</time>
      </trkpt>
      <trkpt lat="45.97021" lon="4.78933">
        <ele>205</ele>
        <time>2017-06-22T09:36:06Z</time>
      </trkpt>
      <trkpt lat="45.97017" lon="4.78927">
        <ele>205</ele>
        <time>2017-06-22T09:36:07Z</time>
      </trkpt>
      <trkpt lat="45.97014" lon="4.78921">
        <ele>205</ele>
        <time>2017-06-22T09:36:08Z</time>
      </trkpt>
      <trkpt lat="45.9701" lon="4.78915">
        <ele>205</ele>
        <time>2017-06-22T09:36:09Z</time>
      </trkpt>
      <trkpt lat="45.97005" lon="4.78909">
        <ele>205</ele>
        <time>2017-06-22T09:36:10Z</time>
      </trkpt>
      <trkpt lat="45.97001" lon="4.78903">
        <ele>206</ele>
        <time>2017-06-22T09:36:11Z</time>
      </trkpt>
      <trkpt lat="45.96997" lon="4.78897">
        <ele>203</ele>
        <time>2017-06-22T09:36:12Z</time>
      </trkpt>
      <trkpt lat="45.96993" lon="4.7889">
        <ele>203</ele>
        <time>2017-06-22T09:36:13Z</time>
      </trkpt>
      <trkpt lat="45.96989" lon="4.78885">
        <ele>203</ele>
        <time>2017-06-22T09:36:14Z</time>
      </trkpt>
      <trkpt lat="45.96984" lon="4.78879">
        <ele>203</ele>
        <time>2017-06-22T09:36:15Z</time>
      </trkpt>
      <trkpt lat="45.9698" lon="4.78874">
        <ele>203</ele>
        <time>2017-06-22T09:36:16Z</time>
      </trkpt>
      <trkpt lat="45.96975" lon="4.78869">
        <ele>203</ele>
        <time>2017-06-22T09:36:17Z</time>
      </trkpt>
      <trkpt lat="45.96971" lon="4.78864">
        <ele>203</ele>
        <time>2017-06-22T09:36:18Z</time>
      </trkpt>
      <trkpt lat="45.96966" lon="4.78859">
        <ele>203</ele>
        <time>2017-06-22T09:36:19Z</time>
      </trkpt>
      <trkpt lat="45.96962" lon="4.78853">
        <ele>203</ele>
        <time>2017-06-22T09:36:20Z</time>
      </trkpt>
      <trkpt lat="45.96957" lon="4.78848">
        <ele>203</ele>
        <time>2017-06-22T09:36:21Z</time>
      </trkpt>
      <trkpt lat="45.96952" lon="4.78843">
        <ele>203</ele>
        <time>2017-06-22T09:36:22Z</time>
      </trkpt>
      <trkpt lat="45.96948" lon="4.78837">
        <ele>202</ele>
        <time>2017-06-22T09:36:23Z</time>
      </trkpt>
      <trkpt lat="45.96944" lon="4.78832">
        <ele>203</ele>
        <time>2017-06-22T09:36:24Z</time>
      </trkpt>
      <trkpt lat="45.9694" lon="4.78827">
        <ele>203</ele>
        <time>2017-06-22T09:36:25Z</time>
      </trkpt>
      <trkpt lat="45.96936" lon="4.78821">
        <ele>202</ele>
        <time>2017-06-22T09:36:26Z</time>
      </trkpt>
      <trkpt lat="45.96933" lon="4.78816">
        <ele>202</ele>
        <time>2017-06-22T09:36:27Z</time>
      </trkpt>
      <trkpt lat="45.96929" lon="4.78811">
        <ele>203</ele>
        <time>2017-06-22T09:36:28Z</time>
      </trkpt>
      <trkpt lat="45.96925" lon="4.78805">
        <ele>203</ele>
        <time>2017-06-22T09:36:29Z</time>
      </trkpt>
      <trkpt lat="45.96922" lon="4.788">
        <ele>203</ele>
        <time>2017-06-22T09:36:30Z</time>
      </trkpt>
      <trkpt lat="45.96919" lon="4.78794">
        <ele>203</ele>
        <time>2017-06-22T09:36:31Z</time>
      </trkpt>
      <trkpt lat="45.96916" lon="4.78788">
        <ele>201</ele>
        <time>2017-06-22T09:36:32Z</time>
      </trkpt>
      <trkpt lat="45.96912" lon="4.78782">
        <ele>201</ele>
        <time>2017-06-22T09:36:33Z</time>
      </trkpt>
      <trkpt lat="45.96909" lon="4.78776">
        <ele>201</ele>
        <time>2017-06-22T09:36:34Z</time>
      </trkpt>
      <trkpt lat="45.96906" lon="4.7877">
        <ele>201</ele>
        <time>2017-06-22T09:36:35Z</time>
      </trkpt>
      <trkpt lat="45.96903" lon="4.78763">
        <ele>202</ele>
        <time>2017-06-22T09:36:36Z</time>
      </trkpt>
      <trkpt lat="45.969" lon="4.78757">
        <ele>202</ele>
        <time>2017-06-22T09:36:37Z</time>
      </trkpt>
      <trkpt lat="45.96897" lon="4.7875">
        <ele>202</ele>
        <time>2017-06-22T09:36:38Z</time>
      </trkpt>
      <trkpt lat="45.96894" lon="4.78744">
        <ele>202</ele>
        <time>2017-06-22T09:36:39Z</time>
      </trkpt>
      <trkpt lat="45.9689" lon="4.78737">
        <ele>202</ele>
        <time>2017-06-22T09:36:40Z</time>
      </trkpt>
      <trkpt lat="45.96887" lon="4.7873">
        <ele>202</ele>
        <time>2017-06-22T09:36:41Z</time>
      </trkpt>
      <trkpt lat="45.96883" lon="4.78723">
        <ele>202</ele>
        <time>2017-06-22T09:36:42Z</time>
      </trkpt>
      <trkpt lat="45.9688" lon="4.78716">
        <ele>202</ele>
        <time>2017-06-22T09:36:43Z</time>
      </trkpt>
      <trkpt lat="45.96876" lon="4.78709">
        <ele>202</ele>
        <time>2017-06-22T09:36:44Z</time>
      </trkpt>
      <trkpt lat="45.96873" lon="4.78703">
        <ele>202</ele>
        <time>2017-06-22T09:36:45Z</time>
      </trkpt>
      <trkpt lat="45.9687" lon="4.78696">
        <ele>202</ele>
        <time>2017-06-22T09:36:46Z</time>
      </trkpt>
      <trkpt lat="45.96867" lon="4.78689">
        <ele>202</ele>
        <time>2017-06-22T09:36:47Z</time>
      </trkpt>
      <trkpt lat="45.96864" lon="4.78683">
        <ele>202</ele>
        <time>2017-06-22T09:36:48Z</time>
      </trkpt>
      <trkpt lat="45.96861" lon="4.78676">
        <ele>202</ele>
        <time>2017-06-22T09:36:49Z</time>
      </trkpt>
      <trkpt lat="45.96858" lon="4.7867">
        <ele>202</ele>
        <time>2017-06-22T09:36:50Z</time>
      </trkpt>
      <trkpt lat="45.96856" lon="4.78664">
        <ele>203</ele>
        <time>2017-06-22T09:36:51Z</time>
      </trkpt>
      <trkpt lat="45.96853" lon="4.78658">
        <ele>203</ele>
        <time>2017-06-22T09:36:52Z</time>
      </trkpt>
      <trkpt lat="45.9685" lon="4.78651">
        <ele>203</ele>
        <time>2017-06-22T09:36:53Z</time>
      </trkpt>
      <trkpt lat="45.96847" lon="4.78645">
        <ele>203</ele>
        <time>2017-06-22T09:36:54Z</time>
      </trkpt>
      <trkpt lat="45.96844" lon="4.78639">
        <ele>203</ele>
        <time>2017-06-22T09:36:55Z</time>
      </trkpt>
      <trkpt lat="45.96841" lon="4.78631">
        <ele>203</ele>
        <time>2017-06-22T09:36:56Z</time>
      </trkpt>
      <trkpt lat="45.96838" lon="4.78624">
        <ele>203</ele>
        <time>2017-06-22T09:36:57Z</time>
      </trkpt>
      <trkpt lat="45.96836" lon="4.78616">
        <ele>203</ele>
        <time>2017-06-22T09:36:58Z</time>
      </trkpt>
      <trkpt lat="45.96833" lon="4.78609">
        <ele>202</ele>
        <time>2017-06-22T09:36:59Z</time>
      </trkpt>
      <trkpt lat="45.96831" lon="4.78601">
        <ele>202</ele>
        <time>2017-06-22T09:37:00Z</time>
      </trkpt>
      <trkpt lat="45.96828" lon="4.78594">
        <ele>202</ele>
        <time>2017-06-22T09:37:01Z</time>
      </trkpt>
      <trkpt lat="45.96825" lon="4.78587">
        <ele>202</ele>
        <time>2017-06-22T09:37:02Z</time>
      </trkpt>
      <trkpt lat="45.96822" lon="4.78581">
        <ele>203</ele>
        <time>2017-06-22T09:37:03Z</time>
      </trkpt>
      <trkpt lat="45.96818" lon="4.78575">
        <ele>203</ele>
        <time>2017-06-22T09:37:04Z</time>
      </trkpt>
      <trkpt lat="45.96815" lon="4.7857">
        <ele>203</ele>
        <time>2017-06-22T09:37:05Z</time>
      </trkpt>
      <trkpt lat="45.96811" lon="4.78564">
        <ele>203</ele>
        <time>2017-06-22T09:37:06Z</time>
      </trkpt>
      <trkpt lat="45.96807" lon="4.78558">
        <ele>203</ele>
        <time>2017-06-22T09:37:07Z</time>
      </trkpt>
      <trkpt lat="45.96803" lon="4.78553">
        <ele>203</ele>
        <time>2017-06-22T09:37:08Z</time>
      </trkpt>
      <trkpt lat="45.968" lon="4.78546">
        <ele>203</ele>
        <time>2017-06-22T09:37:09Z</time>
      </trkpt>
      <trkpt lat="45.96796" lon="4.7854">
        <ele>203</ele>
        <time>2017-06-22T09:37:10Z</time>
      </trkpt>
      <trkpt lat="45.96792" lon="4.78533">
        <ele>203</ele>
        <time>2017-06-22T09:37:11Z</time>
      </trkpt>
      <trkpt lat="45.96788" lon="4.78527">
        <ele>203</ele>
        <time>2017-06-22T09:37:12Z</time>
      </trkpt>
      <trkpt lat="45.96783" lon="4.78522">
        <ele>203</ele>
        <time>2017-06-22T09:37:13Z</time>
      </trkpt>
      <trkpt lat="45.96779" lon="4.78516">
        <ele>203</ele>
        <time>2017-06-22T09:37:14Z</time>
      </trkpt>
      <trkpt lat="45.96774" lon="4.7851">
        <ele>203</ele>
        <time>2017-06-22T09:37:15Z</time>
      </trkpt>
      <trkpt lat="45.96771" lon="4.78503">
        <ele>203</ele>
        <time>2017-06-22T09:37:16Z</time>
      </trkpt>
      <trkpt lat="45.96766" lon="4.78497">
        <ele>205</ele>
        <time>2017-06-22T09:37:17Z</time>
      </trkpt>
      <trkpt lat="45.96762" lon="4.78493">
        <ele>204</ele>
        <time>2017-06-22T09:37:18Z</time>
      </trkpt>
      <trkpt lat="45.96758" lon="4.78487">
        <ele>205</ele>
        <time>2017-06-22T09:37:19Z</time>
      </trkpt>
      <trkpt lat="45.96753" lon="4.7848">
        <ele>205</ele>
        <time>2017-06-22T09:37:20Z</time>
      </trkpt>
      <trkpt lat="45.96747" lon="4.78475">
        <ele>203</ele>
        <time>2017-06-22T09:37:21Z</time>
      </trkpt>
      <trkpt lat="45.96742" lon="4.7847">
        <ele>203</ele>
        <time>2017-06-22T09:37:22Z</time>
      </trkpt>
      <trkpt lat="45.96735" lon="4.78465">
        <ele>203</ele>
        <time>2017-06-22T09:37:23Z</time>
      </trkpt>
      <trkpt lat="45.96731" lon="4.7846">
        <ele>203</ele>
        <time>2017-06-22T09:37:24Z</time>
      </trkpt>
      <trkpt lat="45.96726" lon="4.78455">
        <ele>203</ele>
        <time>2017-06-22T09:37:25Z</time>
      </trkpt>
      <trkpt lat="45.96722" lon="4.78451">
        <ele>203</ele>
        <time>2017-06-22T09:37:26Z</time>
      </trkpt>
      <trkpt lat="45.96717" lon="4.78447">
        <ele>203</ele>
        <time>2017-06-22T09:37:27Z</time>
      </trkpt>
      <trkpt lat="45.96713" lon="4.78443">
        <ele>203</ele>
        <time>2017-06-22T09:37:28Z</time>
      </trkpt>
      <trkpt lat="45.96708" lon="4.78438">
        <ele>203</ele>
        <time>2017-06-22T09:37:29Z</time>
      </trkpt>
      <trkpt lat="45.96704" lon="4.78434">
        <ele>203</ele>
        <time>2017-06-22T09:37:30Z</time>
      </trkpt>
      <trkpt lat="45.96699" lon="4.78427">
        <ele>203</ele>
        <time>2017-06-22T09:37:31Z</time>
      </trkpt>
      <trkpt lat="45.96694" lon="4.78422">
        <ele>202</ele>
        <time>2017-06-22T09:37:32Z</time>
      </trkpt>
      <trkpt lat="45.96689" lon="4.78417">
        <ele>202</ele>
        <time>2017-06-22T09:37:33Z</time>
      </trkpt>
      <trkpt lat="45.96684" lon="4.78413">
        <ele>204</ele>
        <time>2017-06-22T09:37:34Z</time>
      </trkpt>
      <trkpt lat="45.96679" lon="4.78408">
        <ele>204</ele>
        <time>2017-06-22T09:37:35Z</time>
      </trkpt>
      <trkpt lat="45.96674" lon="4.78403">
        <ele>204</ele>
        <time>2017-06-22T09:37:36Z</time>
      </trkpt>
      <trkpt lat="45.96669" lon="4.78398">
        <ele>204</ele>
        <time>2017-06-22T09:37:37Z</time>
      </trkpt>
      <trkpt lat="45.96664" lon="4.78394">
        <ele>201</ele>
        <time>2017-06-22T09:37:38Z</time>
      </trkpt>
      <trkpt lat="45.9666" lon="4.78389">
        <ele>201</ele>
        <time>2017-06-22T09:37:39Z</time>
      </trkpt>
      <trkpt lat="45.96655" lon="4.78384">
        <ele>201</ele>
        <time>2017-06-22T09:37:40Z</time>
      </trkpt>
      <trkpt lat="45.9665" lon="4.7838">
        <ele>201</ele>
        <time>2017-06-22T09:37:41Z</time>
      </trkpt>
      <trkpt lat="45.96645" lon="4.78375">
        <ele>201</ele>
        <time>2017-06-22T09:37:42Z</time>
      </trkpt>
      <trkpt lat="45.96641" lon="4.7837">
        <ele>201</ele>
        <time>2017-06-22T09:37:43Z</time>
      </trkpt>
      <trkpt lat="45.96637" lon="4.78366">
        <ele>201</ele>
        <time>2017-06-22T09:37:44Z</time>
      </trkpt>
      <trkpt lat="45.96632" lon="4.78362">
        <ele>201</ele>
        <time>2017-06-22T09:37:45Z</time>
      </trkpt>
      <trkpt lat="45.96628" lon="4.78357">
        <ele>201</ele>
        <time>2017-06-22T09:37:46Z</time>
      </trkpt>
      <trkpt lat="45.96623" lon="4.78353">
        <ele>201</ele>
        <time>2017-06-22T09:37:47Z</time>
      </trkpt>
      <trkpt lat="45.96619" lon="4.78349">
        <ele>201</ele>
        <time>2017-06-22T09:37:48Z</time>
      </trkpt>
      <trkpt lat="45.96614" lon="4.78344">
        <ele>201</ele>
        <time>2017-06-22T09:37:49Z</time>
      </trkpt>
      <trkpt lat="45.9661" lon="4.7834">
        <ele>200</ele>
        <time>2017-06-22T09:37:50Z</time>
      </trkpt>
      <trkpt lat="45.96606" lon="4.78336">
        <ele>200</ele>
        <time>2017-06-22T09:37:51Z</time>
      </trkpt>
      <trkpt lat="45.96601" lon="4.78332">
        <ele>202</ele>
        <time>2017-06-22T09:37:52Z</time>
      </trkpt>
      <trkpt lat="45.96596" lon="4.78329">
        <ele>202</ele>
        <time>2017-06-22T09:37:53Z</time>
      </trkpt>
      <trkpt lat="45.96592" lon="4.78325">
        <ele>201</ele>
        <time>2017-06-22T09:37:54Z</time>
      </trkpt>
      <trkpt lat="45.96587" lon="4.7832">
        <ele>202</ele>
        <time>2017-06-22T09:37:55Z</time>
      </trkpt>
      <trkpt lat="45.96583" lon="4.78316">
        <ele>199</ele>
        <time>2017-06-22T09:37:56Z</time>
      </trkpt>
      <trkpt lat="45.96578" lon="4.78311">
        <ele>199</ele>
        <time>2017-06-22T09:37:57Z</time>
      </trkpt>
      <trkpt lat="45.96574" lon="4.78307">
        <ele>200</ele>
        <time>2017-06-22T09:37:58Z</time>
      </trkpt>
      <trkpt lat="45.96569" lon="4.78302">
        <ele>200</ele>
        <time>2017-06-22T09:37:59Z</time>
      </trkpt>
      <trkpt lat="45.96564" lon="4.78296">
        <ele>200</ele>
        <time>2017-06-22T09:38:00Z</time>
      </trkpt>
      <trkpt lat="45.96559" lon="4.78291">
        <ele>200</ele>
        <time>2017-06-22T09:38:01Z</time>
      </trkpt>
      <trkpt lat="45.96554" lon="4.78286">
        <ele>200</ele>
        <time>2017-06-22T09:38:02Z</time>
      </trkpt>
      <trkpt lat="45.9655" lon="4.78281">
        <ele>200</ele>
        <time>2017-06-22T09:38:03Z</time>
      </trkpt>
      <trkpt lat="45.96546" lon="4.78275">
        <ele>200</ele>
        <time>2017-06-22T09:38:04Z</time>
      </trkpt>
      <trkpt lat="45.96542" lon="4.78269">
        <ele>200</ele>
        <time>2017-06-22T09:38:05Z</time>
      </trkpt>
      <trkpt lat="45.96538" lon="4.78263">
        <ele>200</ele>
        <time>2017-06-22T09:38:06Z</time>
      </trkpt>
      <trkpt lat="45.96534" lon="4.78258">
        <ele>200</ele>
        <time>2017-06-22T09:38:07Z</time>
      </trkpt>
      <trkpt lat="45.9653" lon="4.78253">
        <ele>200</ele>
        <time>2017-06-22T09:38:08Z</time>
      </trkpt>
      <trkpt lat="45.96527" lon="4.78247">
        <ele>204</ele>
        <time>2017-06-22T09:38:09Z</time>
      </trkpt>
      <trkpt lat="45.96524" lon="4.78241">
        <ele>204</ele>
        <time>2017-06-22T09:38:10Z</time>
      </trkpt>
      <trkpt lat="45.96521" lon="4.78235">
        <ele>204</ele>
        <time>2017-06-22T09:38:11Z</time>
      </trkpt>
      <trkpt lat="45.96517" lon="4.78229">
        <ele>204</ele>
        <time>2017-06-22T09:38:12Z</time>
      </trkpt>
      <trkpt lat="45.96513" lon="4.78224">
        <ele>204</ele>
        <time>2017-06-22T09:38:13Z</time>
      </trkpt>
      <trkpt lat="45.9651" lon="4.78218">
        <ele>204</ele>
        <time>2017-06-22T09:38:14Z</time>
      </trkpt>
      <trkpt lat="45.96505" lon="4.78212">
        <ele>205</ele>
        <time>2017-06-22T09:38:15Z</time>
      </trkpt>
      <trkpt lat="45.965" lon="4.78206">
        <ele>205</ele>
        <time>2017-06-22T09:38:16Z</time>
      </trkpt>
      <trkpt lat="45.96496" lon="4.78199">
        <ele>201</ele>
        <time>2017-06-22T09:38:17Z</time>
      </trkpt>
      <trkpt lat="45.96492" lon="4.78195">
        <ele>201</ele>
        <time>2017-06-22T09:38:18Z</time>
      </trkpt>
      <trkpt lat="45.96486" lon="4.78191">
        <ele>201</ele>
        <time>2017-06-22T09:38:19Z</time>
      </trkpt>
      <trkpt lat="45.9648" lon="4.78188">
        <ele>201</ele>
        <time>2017-06-22T09:38:20Z</time>
      </trkpt>
      <trkpt lat="45.96475" lon="4.78185">
        <ele>201</ele>
        <time>2017-06-22T09:38:21Z</time>
      </trkpt>
      <trkpt lat="45.96469" lon="4.78181">
        <ele>200</ele>
        <time>2017-06-22T09:38:22Z</time>
      </trkpt>
      <trkpt lat="45.96464" lon="4.78176">
        <ele>200</ele>
        <time>2017-06-22T09:38:23Z</time>
      </trkpt>
      <trkpt lat="45.96459" lon="4.7817">
        <ele>200</ele>
        <time>2017-06-22T09:38:24Z</time>
      </trkpt>
      <trkpt lat="45.96453" lon="4.78165">
        <ele>204</ele>
        <time>2017-06-22T09:38:25Z</time>
      </trkpt>
      <trkpt lat="45.96447" lon="4.7816">
        <ele>203</ele>
        <time>2017-06-22T09:38:26Z</time>
      </trkpt>
      <trkpt lat="45.96441" lon="4.78156">
        <ele>203</ele>
        <time>2017-06-22T09:38:27Z</time>
      </trkpt>
      <trkpt lat="45.96435" lon="4.78152">
        <ele>203</ele>
        <time>2017-06-22T09:38:28Z</time>
      </trkpt>
      <trkpt lat="45.9643" lon="4.78148">
        <ele>203</ele>
        <time>2017-06-22T09:38:29Z</time>
      </trkpt>
      <trkpt lat="45.96424" lon="4.78143">
        <ele>203</ele>
        <time>2017-06-22T09:38:30Z</time>
      </trkpt>
      <trkpt lat="45.9642" lon="4.78139">
        <ele>203</ele>
        <time>2017-06-22T09:38:31Z</time>
      </trkpt>
      <trkpt lat="45.96415" lon="4.78136">
        <ele>199</ele>
        <time>2017-06-22T09:38:32Z</time>
      </trkpt>
      <trkpt lat="45.96411" lon="4.78132">
        <ele>199</ele>
        <time>2017-06-22T09:38:33Z</time>
      </trkpt>
      <trkpt lat="45.96407" lon="4.78129">
        <ele>199</ele>
        <time>2017-06-22T09:38:34Z</time>
      </trkpt>
      <trkpt lat="45.964" lon="4.78122">
        <ele>200</ele>
        <time>2017-06-22T09:38:36Z</time>
      </trkpt>
      <trkpt lat="45.96396" lon="4.78118">
        <ele>200</ele>
        <time>2017-06-22T09:38:37Z</time>
      </trkpt>
      <trkpt lat="45.96389" lon="4.78111">
        <ele>200</ele>
        <time>2017-06-22T09:38:39Z</time>
      </trkpt>
      <trkpt lat="45.96385" lon="4.78107">
        <ele>200</ele>
        <time>2017-06-22T09:38:40Z</time>
      </trkpt>
      <trkpt lat="45.96378" lon="4.781">
        <ele>200</ele>
        <time>2017-06-22T09:38:42Z</time>
      </trkpt>
      <trkpt lat="45.96374" lon="4.78097">
        <ele>200</ele>
        <time>2017-06-22T09:38:43Z</time>
      </trkpt>
      <trkpt lat="45.9637" lon="4.78092">
        <ele>199</ele>
        <time>2017-06-22T09:38:44Z</time>
      </trkpt>
      <trkpt lat="45.96367" lon="4.78088">
        <ele>199</ele>
        <time>2017-06-22T09:38:45Z</time>
      </trkpt>
      <trkpt lat="45.96364" lon="4.78084">
        <ele>199</ele>
        <time>2017-06-22T09:38:46Z</time>
      </trkpt>
      <trkpt lat="45.9636" lon="4.78081">
        <ele>202</ele>
        <time>2017-06-22T09:38:47Z</time>
      </trkpt>
      <trkpt lat="45.96355" lon="4.78075">
        <ele>202</ele>
        <time>2017-06-22T09:38:48Z</time>
      </trkpt>
      <trkpt lat="45.9635" lon="4.7807">
        <ele>202</ele>
        <time>2017-06-22T09:38:49Z</time>
      </trkpt>
      <trkpt lat="45.96347" lon="4.78065">
        <ele>202</ele>
        <time>2017-06-22T09:38:50Z</time>
      </trkpt>
      <trkpt lat="45.96342" lon="4.7806">
        <ele>202</ele>
        <time>2017-06-22T09:38:51Z</time>
      </trkpt>
      <trkpt lat="45.96338" lon="4.78054">
        <ele>202</ele>
        <time>2017-06-22T09:38:52Z</time>
      </trkpt>
      <trkpt lat="45.96334" lon="4.78049">
        <ele>203</ele>
        <time>2017-06-22T09:38:53Z</time>
      </trkpt>
      <trkpt lat="45.9633" lon="4.78043">
        <ele>199</ele>
        <time>2017-06-22T09:38:54Z</time>
      </trkpt>
      <trkpt lat="45.96325" lon="4.78037">
        <ele>200</ele>
        <time>2017-06-22T09:38:55Z</time>
      </trkpt>
      <trkpt lat="45.96321" lon="4.78032">
        <ele>200</ele>
        <time>2017-06-22T09:38:56Z</time>
      </trkpt>
      <trkpt lat="45.96316" lon="4.78027">
        <ele>200</ele>
        <time>2017-06-22T09:38:57Z</time>
      </trkpt>
      <trkpt lat="45.96312" lon="4.78022">
        <ele>200</ele>
        <time>2017-06-22T09:38:58Z</time>
      </trkpt>
      <trkpt lat="45.96308" lon="4.78019">
        <ele>200</ele>
        <time>2017-06-22T09:38:59Z</time>
      </trkpt>
      <trkpt lat="45.96304" lon="4.78014">
        <ele>200</ele>
        <time>2017-06-22T09:39:00Z</time>
      </trkpt>
      <trkpt lat="45.963" lon="4.78009">
        <ele>200</ele>
        <time>2017-06-22T09:39:01Z</time>
      </trkpt>
      <trkpt lat="45.96295" lon="4.78004">
        <ele>199</ele>
        <time>2017-06-22T09:39:02Z</time>
      </trkpt>
      <trkpt lat="45.96289" lon="4.77999">
        <ele>204</ele>
        <time>2017-06-22T09:39:03Z</time>
      </trkpt>
      <trkpt lat="45.96284" lon="4.77995">
        <ele>203</ele>
        <time>2017-06-22T09:39:04Z</time>
      </trkpt>
      <trkpt lat="45.96278" lon="4.77991">
        <ele>203</ele>
        <time>2017-06-22T09:39:05Z</time>
      </trkpt>
      <trkpt lat="45.96274" lon="4.77987">
        <ele>203</ele>
        <time>2017-06-22T09:39:06Z</time>
      </trkpt>
      <trkpt lat="45.96269" lon="4.77982">
        <ele>203</ele>
        <time>2017-06-22T09:39:07Z</time>
      </trkpt>
      <trkpt lat="45.96265" lon="4.77978">
        <ele>203</ele>
        <time>2017-06-22T09:39:08Z</time>
      </trkpt>
      <trkpt lat="45.96261" lon="4.77974">
        <ele>203</ele>
        <time>2017-06-22T09:39:09Z</time>
      </trkpt>
      <trkpt lat="45.96257" lon="4.7797">
        <ele>203</ele>
        <time>2017-06-22T09:39:10Z</time>
      </trkpt>
      <trkpt lat="45.96253" lon="4.77966">
        <ele>204</ele>
        <time>2017-06-22T09:39:11Z</time>
      </trkpt>
      <trkpt lat="45.96249" lon="4.77962">
        <ele>199</ele>
        <time>2017-06-22T09:39:12Z</time>
      </trkpt>
      <trkpt lat="45.96245" lon="4.77958">
        <ele>199</ele>
        <time>2017-06-22T09:39:13Z</time>
      </trkpt>
      <trkpt lat="45.96242" lon="4.77953">
        <ele>200</ele>
        <time>2017-06-22T09:39:14Z</time>
      </trkpt>
      <trkpt lat="45.96238" lon="4.77948">
        <ele>200</ele>
        <time>2017-06-22T09:39:15Z</time>
      </trkpt>
      <trkpt lat="45.96234" lon="4.77941">
        <ele>201</ele>
        <time>2017-06-22T09:39:16Z</time>
      </trkpt>
      <trkpt lat="45.96229" lon="4.77936">
        <ele>201</ele>
        <time>2017-06-22T09:39:17Z</time>
      </trkpt>
      <trkpt lat="45.96224" lon="4.7793">
        <ele>201</ele>
        <time>2017-06-22T09:39:18Z</time>
      </trkpt>
      <trkpt lat="45.9622" lon="4.77921">
        <ele>200</ele>
        <time>2017-06-22T09:39:19Z</time>
      </trkpt>
      <trkpt lat="45.96214" lon="4.77915">
        <ele>203</ele>
        <time>2017-06-22T09:39:20Z</time>
      </trkpt>
      <trkpt lat="45.9621" lon="4.77909">
        <ele>202</ele>
        <time>2017-06-22T09:39:21Z</time>
      </trkpt>
      <trkpt lat="45.96206" lon="4.77904">
        <ele>202</ele>
        <time>2017-06-22T09:39:22Z</time>
      </trkpt>
      <trkpt lat="45.96202" lon="4.77898">
        <ele>202</ele>
        <time>2017-06-22T09:39:23Z</time>
      </trkpt>
      <trkpt lat="45.96198" lon="4.77893">
        <ele>202</ele>
        <time>2017-06-22T09:39:24Z</time>
      </trkpt>
      <trkpt lat="45.96193" lon="4.77888">
        <ele>201</ele>
        <time>2017-06-22T09:39:25Z</time>
      </trkpt>
      <trkpt lat="45.96188" lon="4.77879">
        <ele>201</ele>
        <time>2017-06-22T09:39:27Z</time>
      </trkpt>
      <trkpt lat="45.96184" lon="4.77873">
        <ele>201</ele>
        <time>2017-06-22T09:39:28Z</time>
      </trkpt>
      <trkpt lat="45.96182" lon="4.77867">
        <ele>201</ele>
        <time>2017-06-22T09:39:29Z</time>
      </trkpt>
      <trkpt lat="45.96178" lon="4.77861">
        <ele>201</ele>
        <time>2017-06-22T09:39:30Z</time>
      </trkpt>
      <trkpt lat="45.96175" lon="4.77855">
        <ele>201</ele>
        <time>2017-06-22T09:39:31Z</time>
      </trkpt>
      <trkpt lat="45.96172" lon="4.77849">
        <ele>201</ele>
        <time>2017-06-22T09:39:32Z</time>
      </trkpt>
      <trkpt lat="45.96169" lon="4.77844">
        <ele>200</ele>
        <time>2017-06-22T09:39:33Z</time>
      </trkpt>
      <trkpt lat="45.96165" lon="4.77838">
        <ele>198</ele>
        <time>2017-06-22T09:39:34Z</time>
      </trkpt>
      <trkpt lat="45.96162" lon="4.77832">
        <ele>199</ele>
        <time>2017-06-22T09:39:35Z</time>
      </trkpt>
      <trkpt lat="45.96159" lon="4.77827">
        <ele>198</ele>
        <time>2017-06-22T09:39:36Z</time>
      </trkpt>
      <trkpt lat="45.96156" lon="4.77821">
        <ele>198</ele>
        <time>2017-06-22T09:39:37Z</time>
      </trkpt>
      <trkpt lat="45.96153" lon="4.77816">
        <ele>198</ele>
        <time>2017-06-22T09:39:38Z</time>
      </trkpt>
      <trkpt lat="45.9615" lon="4.77811">
        <ele>198</ele>
        <time>2017-06-22T09:39:39Z</time>
      </trkpt>
      <trkpt lat="45.96147" lon="4.77806">
        <ele>198</ele>
        <time>2017-06-22T09:39:40Z</time>
      </trkpt>
      <trkpt lat="45.96141" lon="4.77796">
        <ele>198</ele>
        <time>2017-06-22T09:39:42Z</time>
      </trkpt>
      <trkpt lat="45.96138" lon="4.77791">
        <ele>198</ele>
        <time>2017-06-22T09:39:43Z</time>
      </trkpt>
      <trkpt lat="45.96136" lon="4.77786">
        <ele>198</ele>
        <time>2017-06-22T09:39:44Z</time>
      </trkpt>
      <trkpt lat="45.96132" lon="4.77781">
        <ele>198</ele>
        <time>2017-06-22T09:39:45Z</time>
      </trkpt>
      <trkpt lat="45.96129" lon="4.77776">
        <ele>198</ele>
        <time>2017-06-22T09:39:46Z</time>
      </trkpt>
      <trkpt lat="45.96126" lon="4.7777">
        <ele>198</ele>
        <time>2017-06-22T09:39:47Z</time>
      </trkpt>
      <trkpt lat="45.96123" lon="4.77765">
        <ele>198</ele>
        <time>2017-06-22T09:39:48Z</time>
      </trkpt>
      <trkpt lat="45.96121" lon="4.77759">
        <ele>197</ele>
        <time>2017-06-22T09:39:49Z</time>
      </trkpt>
      <trkpt lat="45.96117" lon="4.77754">
        <ele>197</ele>
        <time>2017-06-22T09:39:50Z</time>
      </trkpt>
      <trkpt lat="45.96112" lon="4.77746">
        <ele>199</ele>
        <time>2017-06-22T09:39:51Z</time>
      </trkpt>
      <trkpt lat="45.96108" lon="4.77739">
        <ele>199</ele>
        <time>2017-06-22T09:39:52Z</time>
      </trkpt>
      <trkpt lat="45.96105" lon="4.77733">
        <ele>199</ele>
        <time>2017-06-22T09:39:53Z</time>
      </trkpt>
      <trkpt lat="45.961" lon="4.77727">
        <ele>199</ele>
        <time>2017-06-22T09:39:54Z</time>
      </trkpt>
      <trkpt lat="45.96096" lon="4.77721">
        <ele>199</ele>
        <time>2017-06-22T09:39:55Z</time>
      </trkpt>
      <trkpt lat="45.96092" lon="4.77715">
        <ele>199</ele>
        <time>2017-06-22T09:39:56Z</time>
      </trkpt>
      <trkpt lat="45.96088" lon="4.77708">
        <ele>200</ele>
        <time>2017-06-22T09:39:57Z</time>
      </trkpt>
      <trkpt lat="45.96085" lon="4.77702">
        <ele>200</ele>
        <time>2017-06-22T09:39:58Z</time>
      </trkpt>
      <trkpt lat="45.96081" lon="4.77696">
        <ele>197</ele>
        <time>2017-06-22T09:39:59Z</time>
      </trkpt>
      <trkpt lat="45.96077" lon="4.7769">
        <ele>198</ele>
        <time>2017-06-22T09:40:00Z</time>
      </trkpt>
      <trkpt lat="45.96073" lon="4.77684">
        <ele>198</ele>
        <time>2017-06-22T09:40:01Z</time>
      </trkpt>
      <trkpt lat="45.96069" lon="4.77678">
        <ele>198</ele>
        <time>2017-06-22T09:40:02Z</time>
      </trkpt>
      <trkpt lat="45.96065" lon="4.77673">
        <ele>198</ele>
        <time>2017-06-22T09:40:03Z</time>
      </trkpt>
      <trkpt lat="45.9606" lon="4.77668">
        <ele>198</ele>
        <time>2017-06-22T09:40:04Z</time>
      </trkpt>
      <trkpt lat="45.96056" lon="4.77663">
        <ele>200</ele>
        <time>2017-06-22T09:40:05Z</time>
      </trkpt>
      <trkpt lat="45.96052" lon="4.77657">
        <ele>200</ele>
        <time>2017-06-22T09:40:06Z</time>
      </trkpt>
      <trkpt lat="45.96048" lon="4.77652">
        <ele>200</ele>
        <time>2017-06-22T09:40:07Z</time>
      </trkpt>
      <trkpt lat="45.96043" lon="4.77646">
        <ele>199</ele>
        <time>2017-06-22T09:40:08Z</time>
      </trkpt>
      <trkpt lat="45.96039" lon="4.77641">
        <ele>199</ele>
        <time>2017-06-22T09:40:09Z</time>
      </trkpt>
      <trkpt lat="45.96035" lon="4.77635">
        <ele>199</ele>
        <time>2017-06-22T09:40:10Z</time>
      </trkpt>
      <trkpt lat="45.9603" lon="4.77629">
        <ele>199</ele>
        <time>2017-06-22T09:40:11Z</time>
      </trkpt>
      <trkpt lat="45.96025" lon="4.77624">
        <ele>199</ele>
        <time>2017-06-22T09:40:12Z</time>
      </trkpt>
      <trkpt lat="45.96021" lon="4.77619">
        <ele>199</ele>
        <time>2017-06-22T09:40:13Z</time>
      </trkpt>
      <trkpt lat="45.96017" lon="4.77613">
        <ele>199</ele>
        <time>2017-06-22T09:40:14Z</time>
      </trkpt>
      <trkpt lat="45.96012" lon="4.77608">
        <ele>199</ele>
        <time>2017-06-22T09:40:15Z</time>
      </trkpt>
      <trkpt lat="45.96008" lon="4.77603">
        <ele>198</ele>
        <time>2017-06-22T09:40:16Z</time>
      </trkpt>
      <trkpt lat="45.96004" lon="4.77598">
        <ele>198</ele>
        <time>2017-06-22T09:40:17Z</time>
      </trkpt>
      <trkpt lat="45.95999" lon="4.77591">
        <ele>196</ele>
        <time>2017-06-22T09:40:20Z</time>
      </trkpt>
      <trkpt lat="45.95997" lon="4.7759">
        <ele>196</ele>
        <time>2017-06-22T09:40:21Z</time>
      </trkpt>
      <trkpt lat="45.95992" lon="4.7758">
        <ele>196</ele>
        <time>2017-06-22T09:40:24Z</time>
      </trkpt>
      <trkpt lat="45.95989" lon="4.77575">
        <ele>196</ele>
        <time>2017-06-22T09:40:25Z</time>
      </trkpt>
      <trkpt lat="45.95983" lon="4.77566">
        <ele>196</ele>
        <time>2017-06-22T09:40:27Z</time>
      </trkpt>
      <trkpt lat="45.9598" lon="4.7756">
        <ele>196</ele>
        <time>2017-06-22T09:40:28Z</time>
      </trkpt>
      <trkpt lat="45.95979" lon="4.77553">
        <ele>195</ele>
        <time>2017-06-22T09:40:29Z</time>
      </trkpt>
      <trkpt lat="45.95976" lon="4.77546">
        <ele>195</ele>
        <time>2017-06-22T09:40:30Z</time>
      </trkpt>
      <trkpt lat="45.95974" lon="4.7754">
        <ele>195</ele>
        <time>2017-06-22T09:40:31Z</time>
      </trkpt>
      <trkpt lat="45.95972" lon="4.77534">
        <ele>195</ele>
        <time>2017-06-22T09:40:32Z</time>
      </trkpt>
      <trkpt lat="45.95969" lon="4.77528">
        <ele>195</ele>
        <time>2017-06-22T09:40:33Z</time>
      </trkpt>
      <trkpt lat="45.95966" lon="4.77522">
        <ele>195</ele>
        <time>2017-06-22T09:40:34Z</time>
      </trkpt>
      <trkpt lat="45.95963" lon="4.77515">
        <ele>195</ele>
        <time>2017-06-22T09:40:35Z</time>
      </trkpt>
      <trkpt lat="45.9596" lon="4.77508">
        <ele>195</ele>
        <time>2017-06-22T09:40:36Z</time>
      </trkpt>
      <trkpt lat="45.95957" lon="4.77501">
        <ele>195</ele>
        <time>2017-06-22T09:40:37Z</time>
      </trkpt>
      <trkpt lat="45.95954" lon="4.77493">
        <ele>196</ele>
        <time>2017-06-22T09:40:38Z</time>
      </trkpt>
      <trkpt lat="45.95951" lon="4.77485">
        <ele>196</ele>
        <time>2017-06-22T09:40:39Z</time>
      </trkpt>
      <trkpt lat="45.95948" lon="4.77477">
        <ele>195</ele>
        <time>2017-06-22T09:40:40Z</time>
      </trkpt>
      <trkpt lat="45.95946" lon="4.77469">
        <ele>196</ele>
        <time>2017-06-22T09:40:41Z</time>
      </trkpt>
      <trkpt lat="45.95943" lon="4.77461">
        <ele>196</ele>
        <time>2017-06-22T09:40:42Z</time>
      </trkpt>
      <trkpt lat="45.95941" lon="4.77453">
        <ele>196</ele>
        <time>2017-06-22T09:40:43Z</time>
      </trkpt>
      <trkpt lat="45.95938" lon="4.77445">
        <ele>196</ele>
        <time>2017-06-22T09:40:44Z</time>
      </trkpt>
      <trkpt lat="45.95936" lon="4.77437">
        <ele>195</ele>
        <time>2017-06-22T09:40:45Z</time>
      </trkpt>
      <trkpt lat="45.95933" lon="4.77429">
        <ele>195</ele>
        <time>2017-06-22T09:40:46Z</time>
      </trkpt>
      <trkpt lat="45.9593" lon="4.77421">
        <ele>195</ele>
        <time>2017-06-22T09:40:47Z</time>
      </trkpt>
      <trkpt lat="45.95927" lon="4.77413">
        <ele>195</ele>
        <time>2017-06-22T09:40:48Z</time>
      </trkpt>
      <trkpt lat="45.95925" lon="4.77405">
        <ele>195</ele>
        <time>2017-06-22T09:40:49Z</time>
      </trkpt>
      <trkpt lat="45.95923" lon="4.77398">
        <ele>196</ele>
        <time>2017-06-22T09:40:50Z</time>
      </trkpt>
      <trkpt lat="45.95921" lon="4.77389">
        <ele>196</ele>
        <time>2017-06-22T09:40:51Z</time>
      </trkpt>
      <trkpt lat="45.95918" lon="4.77381">
        <ele>196</ele>
        <time>2017-06-22T09:40:52Z</time>
      </trkpt>
      <trkpt lat="45.95915" lon="4.77373">
        <ele>193</ele>
        <time>2017-06-22T09:40:53Z</time>
      </trkpt>
      <trkpt lat="45.95912" lon="4.77366">
        <ele>193</ele>
        <time>2017-06-22T09:40:54Z</time>
      </trkpt>
      <trkpt lat="45.9591" lon="4.77359">
        <ele>193</ele>
        <time>2017-06-22T09:40:55Z</time>
      </trkpt>
      <trkpt lat="45.95907" lon="4.77352">
        <ele>193</ele>
        <time>2017-06-22T09:40:56Z</time>
      </trkpt>
      <trkpt lat="45.95904" lon="4.77344">
        <ele>193</ele>
        <time>2017-06-22T09:40:57Z</time>
      </trkpt>
      <trkpt lat="45.95902" lon="4.77337">
        <ele>193</ele>
        <time>2017-06-22T09:40:58Z</time>
      </trkpt>
      <trkpt lat="45.959" lon="4.7733">
        <ele>194</ele>
        <time>2017-06-22T09:40:59Z</time>
      </trkpt>
      <trkpt lat="45.95898" lon="4.77322">
        <ele>193</ele>
        <time>2017-06-22T09:41:00Z</time>
      </trkpt>
      <trkpt lat="45.95896" lon="4.77315">
        <ele>193</ele>
        <time>2017-06-22T09:41:01Z</time>
      </trkpt>
      <trkpt lat="45.95894" lon="4.77309">
        <ele>193</ele>
        <time>2017-06-22T09:41:02Z</time>
      </trkpt>
      <trkpt lat="45.95893" lon="4.77301">
        <ele>193</ele>
        <time>2017-06-22T09:41:03Z</time>
      </trkpt>
      <trkpt lat="45.95891" lon="4.77294">
        <ele>193</ele>
        <time>2017-06-22T09:41:04Z</time>
      </trkpt>
      <trkpt lat="45.9589" lon="4.77286">
        <ele>193</ele>
        <time>2017-06-22T09:41:05Z</time>
      </trkpt>
      <trkpt lat="45.95888" lon="4.77278">
        <ele>193</ele>
        <time>2017-06-22T09:41:06Z</time>
      </trkpt>
      <trkpt lat="45.95886" lon="4.7727">
        <ele>193</ele>
        <time>2017-06-22T09:41:07Z</time>
      </trkpt>
      <trkpt lat="45.95884" lon="4.77261">
        <ele>193</ele>
        <time>2017-06-22T09:41:08Z</time>
      </trkpt>
      <trkpt lat="45.95882" lon="4.77251">
        <ele>193</ele>
        <time>2017-06-22T09:41:09Z</time>
      </trkpt>
      <trkpt lat="45.9588" lon="4.77242">
        <ele>193</ele>
        <time>2017-06-22T09:41:10Z</time>
      </trkpt>
      <trkpt lat="45.95879" lon="4.77233">
        <ele>193</ele>
        <time>2017-06-22T09:41:11Z</time>
      </trkpt>
      <trkpt lat="45.95876" lon="4.77225">
        <ele>193</ele>
        <time>2017-06-22T09:41:12Z</time>
      </trkpt>
      <trkpt lat="45.95874" lon="4.77217">
        <ele>193</ele>
        <time>2017-06-22T09:41:13Z</time>
      </trkpt>
      <trkpt lat="45.95872" lon="4.77209">
        <ele>193</ele>
        <time>2017-06-22T09:41:14Z</time>
      </trkpt>
      <trkpt lat="45.95871" lon="4.77201">
        <ele>193</ele>
        <time>2017-06-22T09:41:15Z</time>
      </trkpt>
      <trkpt lat="45.95869" lon="4.77192">
        <ele>193</ele>
        <time>2017-06-22T09:41:16Z</time>
      </trkpt>
      <trkpt lat="45.95867" lon="4.77185">
        <ele>193</ele>
        <time>2017-06-22T09:41:17Z</time>
      </trkpt>
      <trkpt lat="45.95864" lon="4.77177">
        <ele>192</ele>
        <time>2017-06-22T09:41:18Z</time>
      </trkpt>
      <trkpt lat="45.95862" lon="4.77168">
        <ele>192</ele>
        <time>2017-06-22T09:41:19Z</time>
      </trkpt>
      <trkpt lat="45.95859" lon="4.7716">
        <ele>193</ele>
        <time>2017-06-22T09:41:20Z</time>
      </trkpt>
      <trkpt lat="45.95857" lon="4.77152">
        <ele>193</ele>
        <time>2017-06-22T09:41:21Z</time>
      </trkpt>
      <trkpt lat="45.95854" lon="4.77143">
        <ele>193</ele>
        <time>2017-06-22T09:41:22Z</time>
      </trkpt>
      <trkpt lat="45.95852" lon="4.77134">
        <ele>193</ele>
        <time>2017-06-22T09:41:23Z</time>
      </trkpt>
      <trkpt lat="45.95849" lon="4.77125">
        <ele>193</ele>
        <time>2017-06-22T09:41:24Z</time>
      </trkpt>
      <trkpt lat="45.95846" lon="4.77116">
        <ele>193</ele>
        <time>2017-06-22T09:41:25Z</time>
      </trkpt>
      <trkpt lat="45.95844" lon="4.77108">
        <ele>193</ele>
        <time>2017-06-22T09:41:26Z</time>
      </trkpt>
      <trkpt lat="45.95842" lon="4.771">
        <ele>193</ele>
        <time>2017-06-22T09:41:27Z</time>
      </trkpt>
      <trkpt lat="45.95838" lon="4.77091">
        <ele>193</ele>
        <time>2017-06-22T09:41:28Z</time>
      </trkpt>
      <trkpt lat="45.95835" lon="4.77083">
        <ele>192</ele>
        <time>2017-06-22T09:41:29Z</time>
      </trkpt>
      <trkpt lat="45.95832" lon="4.77076">
        <ele>191</ele>
        <time>2017-06-22T09:41:30Z</time>
      </trkpt>
      <trkpt lat="45.9583" lon="4.77068">
        <ele>191</ele>
        <time>2017-06-22T09:41:31Z</time>
      </trkpt>
      <trkpt lat="45.95827" lon="4.77061">
        <ele>191</ele>
        <time>2017-06-22T09:41:32Z</time>
      </trkpt>
      <trkpt lat="45.95824" lon="4.77053">
        <ele>190</ele>
        <time>2017-06-22T09:41:33Z</time>
      </trkpt>
      <trkpt lat="45.95821" lon="4.77046">
        <ele>190</ele>
        <time>2017-06-22T09:41:34Z</time>
      </trkpt>
      <trkpt lat="45.95817" lon="4.77038">
        <ele>190</ele>
        <time>2017-06-22T09:41:35Z</time>
      </trkpt>
      <trkpt lat="45.95814" lon="4.7703">
        <ele>190</ele>
        <time>2017-06-22T09:41:36Z</time>
      </trkpt>
      <trkpt lat="45.95812" lon="4.77022">
        <ele>190</ele>
        <time>2017-06-22T09:41:37Z</time>
      </trkpt>
      <trkpt lat="45.9581" lon="4.77015">
        <ele>190</ele>
        <time>2017-06-22T09:41:38Z</time>
      </trkpt>
      <trkpt lat="45.95808" lon="4.77007">
        <ele>190</ele>
        <time>2017-06-22T09:41:39Z</time>
      </trkpt>
      <trkpt lat="45.95807" lon="4.76999">
        <ele>190</ele>
        <time>2017-06-22T09:41:40Z</time>
      </trkpt>
      <trkpt lat="45.95806" lon="4.7699">
        <ele>190</ele>
        <time>2017-06-22T09:41:41Z</time>
      </trkpt>
      <trkpt lat="45.95806" lon="4.76982">
        <ele>189</ele>
        <time>2017-06-22T09:41:42Z</time>
      </trkpt>
      <trkpt lat="45.95806" lon="4.76973">
        <ele>189</ele>
        <time>2017-06-22T09:41:43Z</time>
      </trkpt>
      <trkpt lat="45.95807" lon="4.76964">
        <ele>189</ele>
        <time>2017-06-22T09:41:44Z</time>
      </trkpt>
      <trkpt lat="45.95807" lon="4.76955">
        <ele>189</ele>
        <time>2017-06-22T09:41:45Z</time>
      </trkpt>
      <trkpt lat="45.95809" lon="4.76945">
        <ele>189</ele>
        <time>2017-06-22T09:41:46Z</time>
      </trkpt>
      <trkpt lat="45.95811" lon="4.76936">
        <ele>189</ele>
        <time>2017-06-22T09:41:47Z</time>
      </trkpt>
      <trkpt lat="45.95812" lon="4.76928">
        <ele>189</ele>
        <time>2017-06-22T09:41:48Z</time>
      </trkpt>
      <trkpt lat="45.95814" lon="4.76919">
        <ele>189</ele>
        <time>2017-06-22T09:41:49Z</time>
      </trkpt>
      <trkpt lat="45.95816" lon="4.76911">
        <ele>189</ele>
        <time>2017-06-22T09:41:50Z</time>
      </trkpt>
      <trkpt lat="45.95817" lon="4.76903">
        <ele>189</ele>
        <time>2017-06-22T09:41:51Z</time>
      </trkpt>
      <trkpt lat="45.95819" lon="4.76895">
        <ele>189</ele>
        <time>2017-06-22T09:41:52Z</time>
      </trkpt>
      <trkpt lat="45.9582" lon="4.76887">
        <ele>189</ele>
        <time>2017-06-22T09:41:53Z</time>
      </trkpt>
      <trkpt lat="45.95821" lon="4.76879">
        <ele>189</ele>
        <time>2017-06-22T09:41:54Z</time>
      </trkpt>
      <trkpt lat="45.95823" lon="4.76871">
        <ele>189</ele>
        <time>2017-06-22T09:41:55Z</time>
      </trkpt>
      <trkpt lat="45.95824" lon="4.76863">
        <ele>189</ele>
        <time>2017-06-22T09:41:56Z</time>
      </trkpt>
      <trkpt lat="45.95825" lon="4.76856">
        <ele>189</ele>
        <time>2017-06-22T09:41:57Z</time>
      </trkpt>
      <trkpt lat="45.95827" lon="4.76848">
        <ele>190</ele>
        <time>2017-06-22T09:41:58Z</time>
      </trkpt>
      <trkpt lat="45.95828" lon="4.76841">
        <ele>190</ele>
        <time>2017-06-22T09:41:59Z</time>
      </trkpt>
      <trkpt lat="45.95829" lon="4.76833">
        <ele>190</ele>
        <time>2017-06-22T09:42:00Z</time>
      </trkpt>
      <trkpt lat="45.9583" lon="4.76826">
        <ele>190</ele>
        <time>2017-06-22T09:42:01Z</time>
      </trkpt>
      <trkpt lat="45.95831" lon="4.7682">
        <ele>190</ele>
        <time>2017-06-22T09:42:02Z</time>
      </trkpt>
      <trkpt lat="45.95834" lon="4.76809">
        <ele>190</ele>
        <time>2017-06-22T09:42:04Z</time>
      </trkpt>
      <trkpt lat="45.95835" lon="4.76805">
        <ele>191</ele>
        <time>2017-06-22T09:42:05Z</time>
      </trkpt>
      <trkpt lat="45.95836" lon="4.76793">
        <ele>191</ele>
        <time>2017-06-22T09:42:10Z</time>
      </trkpt>
      <trkpt lat="45.95836" lon="4.76791">
        <ele>191</ele>
        <time>2017-06-22T09:42:11Z</time>
      </trkpt>
      <trkpt lat="45.95835" lon="4.7678">
        <ele>191</ele>
        <time>2017-06-22T09:42:14Z</time>
      </trkpt>
      <trkpt lat="45.95834" lon="4.76774">
        <ele>191</ele>
        <time>2017-06-22T09:42:15Z</time>
      </trkpt>
      <trkpt lat="45.95832" lon="4.76768">
        <ele>190</ele>
        <time>2017-06-22T09:42:16Z</time>
      </trkpt>
      <trkpt lat="45.9583" lon="4.76762">
        <ele>191</ele>
        <time>2017-06-22T09:42:17Z</time>
      </trkpt>
      <trkpt lat="45.95828" lon="4.76754">
        <ele>191</ele>
        <time>2017-06-22T09:42:18Z</time>
      </trkpt>
      <trkpt lat="45.95826" lon="4.76746">
        <ele>190</ele>
        <time>2017-06-22T09:42:19Z</time>
      </trkpt>
      <trkpt lat="45.95824" lon="4.76737">
        <ele>190</ele>
        <time>2017-06-22T09:42:20Z</time>
      </trkpt>
      <trkpt lat="45.95822" lon="4.76728">
        <ele>190</ele>
        <time>2017-06-22T09:42:21Z</time>
      </trkpt>
      <trkpt lat="45.95821" lon="4.76719">
        <ele>189</ele>
        <time>2017-06-22T09:42:22Z</time>
      </trkpt>
      <trkpt lat="45.9582" lon="4.7671">
        <ele>189</ele>
        <time>2017-06-22T09:42:23Z</time>
      </trkpt>
      <trkpt lat="45.95819" lon="4.76701">
        <ele>189</ele>
        <time>2017-06-22T09:42:24Z</time>
      </trkpt>
      <trkpt lat="45.95818" lon="4.76693">
        <ele>189</ele>
        <time>2017-06-22T09:42:25Z</time>
      </trkpt>
      <trkpt lat="45.95817" lon="4.76684">
        <ele>189</ele>
        <time>2017-06-22T09:42:26Z</time>
      </trkpt>
      <trkpt lat="45.95816" lon="4.76676">
        <ele>189</ele>
        <time>2017-06-22T09:42:27Z</time>
      </trkpt>
      <trkpt lat="45.95815" lon="4.76668">
        <ele>188</ele>
        <time>2017-06-22T09:42:28Z</time>
      </trkpt>
      <trkpt lat="45.95814" lon="4.7666">
        <ele>188</ele>
        <time>2017-06-22T09:42:29Z</time>
      </trkpt>
      <trkpt lat="45.95813" lon="4.76652">
        <ele>188</ele>
        <time>2017-06-22T09:42:30Z</time>
      </trkpt>
      <trkpt lat="45.95813" lon="4.76644">
        <ele>188</ele>
        <time>2017-06-22T09:42:31Z</time>
      </trkpt>
      <trkpt lat="45.95811" lon="4.76635">
        <ele>188</ele>
        <time>2017-06-22T09:42:32Z</time>
      </trkpt>
      <trkpt lat="45.9581" lon="4.76627">
        <ele>188</ele>
        <time>2017-06-22T09:42:33Z</time>
      </trkpt>
      <trkpt lat="45.95809" lon="4.76618">
        <ele>188</ele>
        <time>2017-06-22T09:42:34Z</time>
      </trkpt>
      <trkpt lat="45.95808" lon="4.76609">
        <ele>188</ele>
        <time>2017-06-22T09:42:35Z</time>
      </trkpt>
      <trkpt lat="45.95807" lon="4.76599">
        <ele>188</ele>
        <time>2017-06-22T09:42:36Z</time>
      </trkpt>
      <trkpt lat="45.95806" lon="4.7659">
        <ele>188</ele>
        <time>2017-06-22T09:42:37Z</time>
      </trkpt>
      <trkpt lat="45.95805" lon="4.76581">
        <ele>187</ele>
        <time>2017-06-22T09:42:38Z</time>
      </trkpt>
      <trkpt lat="45.95804" lon="4.76573">
        <ele>187</ele>
        <time>2017-06-22T09:42:39Z</time>
      </trkpt>
      <trkpt lat="45.95802" lon="4.76564">
        <ele>187</ele>
        <time>2017-06-22T09:42:40Z</time>
      </trkpt>
      <trkpt lat="45.95801" lon="4.76556">
        <ele>187</ele>
        <time>2017-06-22T09:42:41Z</time>
      </trkpt>
      <trkpt lat="45.958" lon="4.76548">
        <ele>187</ele>
        <time>2017-06-22T09:42:42Z</time>
      </trkpt>
      <trkpt lat="45.95799" lon="4.76541">
        <ele>187</ele>
        <time>2017-06-22T09:42:43Z</time>
      </trkpt>
      <trkpt lat="45.95797" lon="4.76533">
        <ele>187</ele>
        <time>2017-06-22T09:42:44Z</time>
      </trkpt>
      <trkpt lat="45.95796" lon="4.76525">
        <ele>187</ele>
        <time>2017-06-22T09:42:45Z</time>
      </trkpt>
      <trkpt lat="45.95795" lon="4.76517">
        <ele>187</ele>
        <time>2017-06-22T09:42:46Z</time>
      </trkpt>
      <trkpt lat="45.95794" lon="4.7651">
        <ele>187</ele>
        <time>2017-06-22T09:42:47Z</time>
      </trkpt>
      <trkpt lat="45.95793" lon="4.76501">
        <ele>187</ele>
        <time>2017-06-22T09:42:48Z</time>
      </trkpt>
      <trkpt lat="45.95791" lon="4.76493">
        <ele>186</ele>
        <time>2017-06-22T09:42:49Z</time>
      </trkpt>
      <trkpt lat="45.95791" lon="4.76485">
        <ele>186</ele>
        <time>2017-06-22T09:42:50Z</time>
      </trkpt>
      <trkpt lat="45.9579" lon="4.76478">
        <ele>186</ele>
        <time>2017-06-22T09:42:51Z</time>
      </trkpt>
      <trkpt lat="45.95788" lon="4.7647">
        <ele>186</ele>
        <time>2017-06-22T09:42:52Z</time>
      </trkpt>
      <trkpt lat="45.95787" lon="4.76463">
        <ele>186</ele>
        <time>2017-06-22T09:42:53Z</time>
      </trkpt>
      <trkpt lat="45.95786" lon="4.76455">
        <ele>186</ele>
        <time>2017-06-22T09:42:54Z</time>
      </trkpt>
      <trkpt lat="45.95785" lon="4.76448">
        <ele>186</ele>
        <time>2017-06-22T09:42:55Z</time>
      </trkpt>
      <trkpt lat="45.95784" lon="4.76441">
        <ele>186</ele>
        <time>2017-06-22T09:42:56Z</time>
      </trkpt>
      <trkpt lat="45.95782" lon="4.76433">
        <ele>186</ele>
        <time>2017-06-22T09:42:57Z</time>
      </trkpt>
      <trkpt lat="45.95781" lon="4.76426">
        <ele>186</ele>
        <time>2017-06-22T09:42:58Z</time>
      </trkpt>
      <trkpt lat="45.95781" lon="4.76419">
        <ele>186</ele>
        <time>2017-06-22T09:42:59Z</time>
      </trkpt>
      <trkpt lat="45.9578" lon="4.76411">
        <ele>186</ele>
        <time>2017-06-22T09:43:00Z</time>
      </trkpt>
      <trkpt lat="45.9578" lon="4.76404">
        <ele>186</ele>
        <time>2017-06-22T09:43:01Z</time>
      </trkpt>
      <trkpt lat="45.95779" lon="4.76397">
        <ele>186</ele>
        <time>2017-06-22T09:43:02Z</time>
      </trkpt>
      <trkpt lat="45.95778" lon="4.76389">
        <ele>186</ele>
        <time>2017-06-22T09:43:03Z</time>
      </trkpt>
      <trkpt lat="45.95778" lon="4.76381">
        <ele>186</ele>
        <time>2017-06-22T09:43:04Z</time>
      </trkpt>
      <trkpt lat="45.95777" lon="4.76373">
        <ele>186</ele>
        <time>2017-06-22T09:43:05Z</time>
      </trkpt>
      <trkpt lat="45.95777" lon="4.76365">
        <ele>186</ele>
        <time>2017-06-22T09:43:06Z</time>
      </trkpt>
      <trkpt lat="45.95777" lon="4.76357">
        <ele>186</ele>
        <time>2017-06-22T09:43:07Z</time>
      </trkpt>
      <trkpt lat="45.95776" lon="4.76349">
        <ele>186</ele>
        <time>2017-06-22T09:43:08Z</time>
      </trkpt>
      <trkpt lat="45.95775" lon="4.76341">
        <ele>186</ele>
        <time>2017-06-22T09:43:09Z</time>
      </trkpt>
      <trkpt lat="45.95775" lon="4.76333">
        <ele>185</ele>
        <time>2017-06-22T09:43:10Z</time>
      </trkpt>
      <trkpt lat="45.95774" lon="4.76325">
        <ele>185</ele>
        <time>2017-06-22T09:43:11Z</time>
      </trkpt>
      <trkpt lat="45.95774" lon="4.76317">
        <ele>186</ele>
        <time>2017-06-22T09:43:12Z</time>
      </trkpt>
      <trkpt lat="45.95773" lon="4.76309">
        <ele>186</ele>
        <time>2017-06-22T09:43:13Z</time>
      </trkpt>
      <trkpt lat="45.95773" lon="4.763">
        <ele>186</ele>
        <time>2017-06-22T09:43:14Z</time>
      </trkpt>
      <trkpt lat="45.95773" lon="4.76292">
        <ele>186</ele>
        <time>2017-06-22T09:43:15Z</time>
      </trkpt>
      <trkpt lat="45.95773" lon="4.76284">
        <ele>186</ele>
        <time>2017-06-22T09:43:16Z</time>
      </trkpt>
      <trkpt lat="45.95773" lon="4.76276">
        <ele>186</ele>
        <time>2017-06-22T09:43:17Z</time>
      </trkpt>
      <trkpt lat="45.95772" lon="4.76268">
        <ele>186</ele>
        <time>2017-06-22T09:43:18Z</time>
      </trkpt>
      <trkpt lat="45.95771" lon="4.76261">
        <ele>186</ele>
        <time>2017-06-22T09:43:19Z</time>
      </trkpt>
      <trkpt lat="45.95771" lon="4.76253">
        <ele>185</ele>
        <time>2017-06-22T09:43:20Z</time>
      </trkpt>
      <trkpt lat="45.95771" lon="4.76246">
        <ele>186</ele>
        <time>2017-06-22T09:43:21Z</time>
      </trkpt>
      <trkpt lat="45.9577" lon="4.76238">
        <ele>186</ele>
        <time>2017-06-22T09:43:22Z</time>
      </trkpt>
      <trkpt lat="45.9577" lon="4.7623">
        <ele>186</ele>
        <time>2017-06-22T09:43:23Z</time>
      </trkpt>
      <trkpt lat="45.95769" lon="4.76222">
        <ele>186</ele>
        <time>2017-06-22T09:43:24Z</time>
      </trkpt>
      <trkpt lat="45.95768" lon="4.76214">
        <ele>186</ele>
        <time>2017-06-22T09:43:25Z</time>
      </trkpt>
      <trkpt lat="45.95768" lon="4.76206">
        <ele>186</ele>
        <time>2017-06-22T09:43:26Z</time>
      </trkpt>
      <trkpt lat="45.95767" lon="4.76198">
        <ele>186</ele>
        <time>2017-06-22T09:43:27Z</time>
      </trkpt>
      <trkpt lat="45.95767" lon="4.76189">
        <ele>186</ele>
        <time>2017-06-22T09:43:28Z</time>
      </trkpt>
      <trkpt lat="45.95766" lon="4.76181">
        <ele>186</ele>
        <time>2017-06-22T09:43:29Z</time>
      </trkpt>
      <trkpt lat="45.95766" lon="4.76173">
        <ele>186</ele>
        <time>2017-06-22T09:43:30Z</time>
      </trkpt>
      <trkpt lat="45.95766" lon="4.76166">
        <ele>186</ele>
        <time>2017-06-22T09:43:31Z</time>
      </trkpt>
      <trkpt lat="45.95765" lon="4.76158">
        <ele>186</ele>
        <time>2017-06-22T09:43:32Z</time>
      </trkpt>
      <trkpt lat="45.95764" lon="4.76151">
        <ele>186</ele>
        <time>2017-06-22T09:43:33Z</time>
      </trkpt>
      <trkpt lat="45.95764" lon="4.76144">
        <ele>186</ele>
        <time>2017-06-22T09:43:34Z</time>
      </trkpt>
      <trkpt lat="45.95764" lon="4.76137">
        <ele>186</ele>
        <time>2017-06-22T09:43:35Z</time>
      </trkpt>
      <trkpt lat="45.95763" lon="4.7613">
        <ele>186</ele>
        <time>2017-06-22T09:43:36Z</time>
      </trkpt>
      <trkpt lat="45.95762" lon="4.76122">
        <ele>186</ele>
        <time>2017-06-22T09:43:37Z</time>
      </trkpt>
      <trkpt lat="45.95761" lon="4.76115">
        <ele>186</ele>
        <time>2017-06-22T09:43:38Z</time>
      </trkpt>
      <trkpt lat="45.95759" lon="4.76108">
        <ele>186</ele>
        <time>2017-06-22T09:43:39Z</time>
      </trkpt>
      <trkpt lat="45.95758" lon="4.761">
        <ele>186</ele>
        <time>2017-06-22T09:43:40Z</time>
      </trkpt>
      <trkpt lat="45.95756" lon="4.76093">
        <ele>186</ele>
        <time>2017-06-22T09:43:41Z</time>
      </trkpt>
      <trkpt lat="45.95754" lon="4.76085">
        <ele>185</ele>
        <time>2017-06-22T09:43:42Z</time>
      </trkpt>
      <trkpt lat="45.9575" lon="4.76078">
        <ele>185</ele>
        <time>2017-06-22T09:43:43Z</time>
      </trkpt>
      <trkpt lat="45.95747" lon="4.7607">
        <ele>185</ele>
        <time>2017-06-22T09:43:44Z</time>
      </trkpt>
      <trkpt lat="45.95744" lon="4.76063">
        <ele>185</ele>
        <time>2017-06-22T09:43:45Z</time>
      </trkpt>
      <trkpt lat="45.95741" lon="4.76056">
        <ele>184</ele>
        <time>2017-06-22T09:43:46Z</time>
      </trkpt>
      <trkpt lat="45.95738" lon="4.76049">
        <ele>184</ele>
        <time>2017-06-22T09:43:47Z</time>
      </trkpt>
      <trkpt lat="45.95735" lon="4.76042">
        <ele>184</ele>
        <time>2017-06-22T09:43:48Z</time>
      </trkpt>
      <trkpt lat="45.95732" lon="4.76035">
        <ele>184</ele>
        <time>2017-06-22T09:43:49Z</time>
      </trkpt>
      <trkpt lat="45.95729" lon="4.76028">
        <ele>184</ele>
        <time>2017-06-22T09:43:50Z</time>
      </trkpt>
      <trkpt lat="45.95726" lon="4.76022">
        <ele>185</ele>
        <time>2017-06-22T09:43:51Z</time>
      </trkpt>
      <trkpt lat="45.95723" lon="4.76016">
        <ele>185</ele>
        <time>2017-06-22T09:43:52Z</time>
      </trkpt>
      <trkpt lat="45.9572" lon="4.76009">
        <ele>184</ele>
        <time>2017-06-22T09:43:53Z</time>
      </trkpt>
      <trkpt lat="45.95718" lon="4.76003">
        <ele>184</ele>
        <time>2017-06-22T09:43:54Z</time>
      </trkpt>
      <trkpt lat="45.95715" lon="4.75996">
        <ele>185</ele>
        <time>2017-06-22T09:43:55Z</time>
      </trkpt>
      <trkpt lat="45.95712" lon="4.7599">
        <ele>185</ele>
        <time>2017-06-22T09:43:56Z</time>
      </trkpt>
      <trkpt lat="45.95709" lon="4.75984">
        <ele>185</ele>
        <time>2017-06-22T09:43:57Z</time>
      </trkpt>
      <trkpt lat="45.95706" lon="4.75978">
        <ele>185</ele>
        <time>2017-06-22T09:43:58Z</time>
      </trkpt>
      <trkpt lat="45.95704" lon="4.75972">
        <ele>185</ele>
        <time>2017-06-22T09:43:59Z</time>
      </trkpt>
      <trkpt lat="45.95702" lon="4.75966">
        <ele>185</ele>
        <time>2017-06-22T09:44:00Z</time>
      </trkpt>
      <trkpt lat="45.957" lon="4.7596">
        <ele>185</ele>
        <time>2017-06-22T09:44:01Z</time>
      </trkpt>
      <trkpt lat="45.95697" lon="4.75954">
        <ele>185</ele>
        <time>2017-06-22T09:44:02Z</time>
      </trkpt>
      <trkpt lat="45.95694" lon="4.75948">
        <ele>185</ele>
        <time>2017-06-22T09:44:03Z</time>
      </trkpt>
      <trkpt lat="45.95691" lon="4.7594">
        <ele>185</ele>
        <time>2017-06-22T09:44:04Z</time>
      </trkpt>
      <trkpt lat="45.95687" lon="4.75933">
        <ele>185</ele>
        <time>2017-06-22T09:44:05Z</time>
      </trkpt>
      <trkpt lat="45.95684" lon="4.75926">
        <ele>185</ele>
        <time>2017-06-22T09:44:06Z</time>
      </trkpt>
      <trkpt lat="45.9568" lon="4.75918">
        <ele>185</ele>
        <time>2017-06-22T09:44:07Z</time>
      </trkpt>
      <trkpt lat="45.95677" lon="4.75909">
        <ele>185</ele>
        <time>2017-06-22T09:44:08Z</time>
      </trkpt>
      <trkpt lat="45.95673" lon="4.759">
        <ele>185</ele>
        <time>2017-06-22T09:44:09Z</time>
      </trkpt>
      <trkpt lat="45.9567" lon="4.75891">
        <ele>186</ele>
        <time>2017-06-22T09:44:10Z</time>
      </trkpt>
      <trkpt lat="45.95668" lon="4.75883">
        <ele>186</ele>
        <time>2017-06-22T09:44:11Z</time>
      </trkpt>
      <trkpt lat="45.95665" lon="4.75874">
        <ele>184</ele>
        <time>2017-06-22T09:44:12Z</time>
      </trkpt>
      <trkpt lat="45.95663" lon="4.75866">
        <ele>184</ele>
        <time>2017-06-22T09:44:13Z</time>
      </trkpt>
      <trkpt lat="45.9566" lon="4.75858">
        <ele>184</ele>
        <time>2017-06-22T09:44:14Z</time>
      </trkpt>
      <trkpt lat="45.95658" lon="4.75851">
        <ele>185</ele>
        <time>2017-06-22T09:44:15Z</time>
      </trkpt>
      <trkpt lat="45.95656" lon="4.75843">
        <ele>185</ele>
        <time>2017-06-22T09:44:16Z</time>
      </trkpt>
      <trkpt lat="45.95654" lon="4.75836">
        <ele>185</ele>
        <time>2017-06-22T09:44:17Z</time>
      </trkpt>
      <trkpt lat="45.95652" lon="4.75828">
        <ele>185</ele>
        <time>2017-06-22T09:44:18Z</time>
      </trkpt>
      <trkpt lat="45.9565" lon="4.75821">
        <ele>185</ele>
        <time>2017-06-22T09:44:19Z</time>
      </trkpt>
      <trkpt lat="45.95649" lon="4.75814">
        <ele>185</ele>
        <time>2017-06-22T09:44:20Z</time>
      </trkpt>
      <trkpt lat="45.95647" lon="4.75807">
        <ele>185</ele>
        <time>2017-06-22T09:44:21Z</time>
      </trkpt>
      <trkpt lat="45.95646" lon="4.758">
        <ele>185</ele>
        <time>2017-06-22T09:44:22Z</time>
      </trkpt>
      <trkpt lat="45.95644" lon="4.75793">
        <ele>185</ele>
        <time>2017-06-22T09:44:23Z</time>
      </trkpt>
      <trkpt lat="45.95643" lon="4.75786">
        <ele>186</ele>
        <time>2017-06-22T09:44:24Z</time>
      </trkpt>
      <trkpt lat="45.95643" lon="4.75779">
        <ele>186</ele>
        <time>2017-06-22T09:44:25Z</time>
      </trkpt>
      <trkpt lat="45.95642" lon="4.75772">
        <ele>186</ele>
        <time>2017-06-22T09:44:26Z</time>
      </trkpt>
      <trkpt lat="45.95641" lon="4.75765">
        <ele>186</ele>
        <time>2017-06-22T09:44:27Z</time>
      </trkpt>
      <trkpt lat="45.9564" lon="4.75758">
        <ele>186</ele>
        <time>2017-06-22T09:44:28Z</time>
      </trkpt>
      <trkpt lat="45.95638" lon="4.75751">
        <ele>186</ele>
        <time>2017-06-22T09:44:29Z</time>
      </trkpt>
      <trkpt lat="45.95637" lon="4.75744">
        <ele>187</ele>
        <time>2017-06-22T09:44:30Z</time>
      </trkpt>
      <trkpt lat="45.95636" lon="4.75737">
        <ele>187</ele>
        <time>2017-06-22T09:44:31Z</time>
      </trkpt>
      <trkpt lat="45.95635" lon="4.7573">
        <ele>187</ele>
        <time>2017-06-22T09:44:32Z</time>
      </trkpt>
      <trkpt lat="45.95634" lon="4.75723">
        <ele>187</ele>
        <time>2017-06-22T09:44:33Z</time>
      </trkpt>
      <trkpt lat="45.95633" lon="4.75716">
        <ele>187</ele>
        <time>2017-06-22T09:44:34Z</time>
      </trkpt>
      <trkpt lat="45.95632" lon="4.7571">
        <ele>187</ele>
        <time>2017-06-22T09:44:35Z</time>
      </trkpt>
      <trkpt lat="45.95631" lon="4.75703">
        <ele>187</ele>
        <time>2017-06-22T09:44:36Z</time>
      </trkpt>
      <trkpt lat="45.95629" lon="4.75696">
        <ele>187</ele>
        <time>2017-06-22T09:44:37Z</time>
      </trkpt>
      <trkpt lat="45.95628" lon="4.75689">
        <ele>187</ele>
        <time>2017-06-22T09:44:38Z</time>
      </trkpt>
      <trkpt lat="45.95627" lon="4.75682">
        <ele>187</ele>
        <time>2017-06-22T09:44:39Z</time>
      </trkpt>
      <trkpt lat="45.95626" lon="4.75674">
        <ele>187</ele>
        <time>2017-06-22T09:44:40Z</time>
      </trkpt>
      <trkpt lat="45.95624" lon="4.75667">
        <ele>187</ele>
        <time>2017-06-22T09:44:41Z</time>
      </trkpt>
      <trkpt lat="45.95623" lon="4.7566">
        <ele>188</ele>
        <time>2017-06-22T09:44:42Z</time>
      </trkpt>
      <trkpt lat="45.95622" lon="4.75653">
        <ele>188</ele>
        <time>2017-06-22T09:44:43Z</time>
      </trkpt>
      <trkpt lat="45.9562" lon="4.75647">
        <ele>188</ele>
        <time>2017-06-22T09:44:44Z</time>
      </trkpt>
      <trkpt lat="45.95619" lon="4.75641">
        <ele>188</ele>
        <time>2017-06-22T09:44:45Z</time>
      </trkpt>
      <trkpt lat="45.95617" lon="4.75635">
        <ele>188</ele>
        <time>2017-06-22T09:44:46Z</time>
      </trkpt>
      <trkpt lat="45.95615" lon="4.75629">
        <ele>188</ele>
        <time>2017-06-22T09:44:47Z</time>
      </trkpt>
      <trkpt lat="45.95613" lon="4.75616">
        <ele>188</ele>
        <time>2017-06-22T09:44:49Z</time>
      </trkpt>
      <trkpt lat="45.95611" lon="4.7561">
        <ele>188</ele>
        <time>2017-06-22T09:44:50Z</time>
      </trkpt>
      <trkpt lat="45.95609" lon="4.75604">
        <ele>188</ele>
        <time>2017-06-22T09:44:51Z</time>
      </trkpt>
      <trkpt lat="45.95607" lon="4.75597">
        <ele>187</ele>
        <time>2017-06-22T09:44:52Z</time>
      </trkpt>
      <trkpt lat="45.95605" lon="4.75591">
        <ele>187</ele>
        <time>2017-06-22T09:44:53Z</time>
      </trkpt>
      <trkpt lat="45.95603" lon="4.75586">
        <ele>187</ele>
        <time>2017-06-22T09:44:54Z</time>
      </trkpt>
      <trkpt lat="45.956" lon="4.7558">
        <ele>188</ele>
        <time>2017-06-22T09:44:55Z</time>
      </trkpt>
      <trkpt lat="45.95597" lon="4.75575">
        <ele>188</ele>
        <time>2017-06-22T09:44:56Z</time>
      </trkpt>
      <trkpt lat="45.95595" lon="4.7557">
        <ele>188</ele>
        <time>2017-06-22T09:44:57Z</time>
      </trkpt>
      <trkpt lat="45.95591" lon="4.75564">
        <ele>188</ele>
        <time>2017-06-22T09:44:58Z</time>
      </trkpt>
      <trkpt lat="45.95588" lon="4.75559">
        <ele>188</ele>
        <time>2017-06-22T09:44:59Z</time>
      </trkpt>
      <trkpt lat="45.95585" lon="4.75553">
        <ele>188</ele>
        <time>2017-06-22T09:45:00Z</time>
      </trkpt>
      <trkpt lat="45.95582" lon="4.75548">
        <ele>186</ele>
        <time>2017-06-22T09:45:01Z</time>
      </trkpt>
      <trkpt lat="45.95578" lon="4.75542">
        <ele>186</ele>
        <time>2017-06-22T09:45:02Z</time>
      </trkpt>
      <trkpt lat="45.95573" lon="4.75538">
        <ele>186</ele>
        <time>2017-06-22T09:45:03Z</time>
      </trkpt>
      <trkpt lat="45.95568" lon="4.75533">
        <ele>186</ele>
        <time>2017-06-22T09:45:04Z</time>
      </trkpt>
      <trkpt lat="45.95564" lon="4.75528">
        <ele>186</ele>
        <time>2017-06-22T09:45:05Z</time>
      </trkpt>
      <trkpt lat="45.95559" lon="4.75523">
        <ele>186</ele>
        <time>2017-06-22T09:45:06Z</time>
      </trkpt>
      <trkpt lat="45.95555" lon="4.75518">
        <ele>186</ele>
        <time>2017-06-22T09:45:07Z</time>
      </trkpt>
      <trkpt lat="45.9555" lon="4.75513">
        <ele>186</ele>
        <time>2017-06-22T09:45:08Z</time>
      </trkpt>
      <trkpt lat="45.95547" lon="4.75508">
        <ele>186</ele>
        <time>2017-06-22T09:45:09Z</time>
      </trkpt>
      <trkpt lat="45.95544" lon="4.75502">
        <ele>186</ele>
        <time>2017-06-22T09:45:10Z</time>
      </trkpt>
      <trkpt lat="45.95542" lon="4.75492">
        <ele>187</ele>
        <time>2017-06-22T09:45:12Z</time>
      </trkpt>
      <trkpt lat="45.95542" lon="4.75487">
        <ele>187</ele>
        <time>2017-06-22T09:45:13Z</time>
      </trkpt>
      <trkpt lat="45.95542" lon="4.75474">
        <ele>187</ele>
        <time>2017-06-22T09:45:15Z</time>
      </trkpt>
      <trkpt lat="45.95541" lon="4.75468">
        <ele>187</ele>
        <time>2017-06-22T09:45:16Z</time>
      </trkpt>
      <trkpt lat="45.95539" lon="4.75461">
        <ele>187</ele>
        <time>2017-06-22T09:45:17Z</time>
      </trkpt>
      <trkpt lat="45.95536" lon="4.75455">
        <ele>187</ele>
        <time>2017-06-22T09:45:18Z</time>
      </trkpt>
      <trkpt lat="45.95532" lon="4.75449">
        <ele>187</ele>
        <time>2017-06-22T09:45:19Z</time>
      </trkpt>
      <trkpt lat="45.95527" lon="4.75444">
        <ele>187</ele>
        <time>2017-06-22T09:45:20Z</time>
      </trkpt>
      <trkpt lat="45.95523" lon="4.75437">
        <ele>187</ele>
        <time>2017-06-22T09:45:21Z</time>
      </trkpt>
      <trkpt lat="45.95519" lon="4.7543">
        <ele>187</ele>
        <time>2017-06-22T09:45:22Z</time>
      </trkpt>
      <trkpt lat="45.95516" lon="4.75423">
        <ele>186</ele>
        <time>2017-06-22T09:45:23Z</time>
      </trkpt>
      <trkpt lat="45.95514" lon="4.75416">
        <ele>187</ele>
        <time>2017-06-22T09:45:24Z</time>
      </trkpt>
      <trkpt lat="45.95512" lon="4.75409">
        <ele>187</ele>
        <time>2017-06-22T09:45:25Z</time>
      </trkpt>
      <trkpt lat="45.9551" lon="4.75403">
        <ele>187</ele>
        <time>2017-06-22T09:45:26Z</time>
      </trkpt>
      <trkpt lat="45.95508" lon="4.75397">
        <ele>188</ele>
        <time>2017-06-22T09:45:27Z</time>
      </trkpt>
      <trkpt lat="45.95506" lon="4.75392">
        <ele>188</ele>
        <time>2017-06-22T09:45:28Z</time>
      </trkpt>
      <trkpt lat="45.95503" lon="4.75386">
        <ele>188</ele>
        <time>2017-06-22T09:45:29Z</time>
      </trkpt>
      <trkpt lat="45.955" lon="4.7538">
        <ele>188</ele>
        <time>2017-06-22T09:45:30Z</time>
      </trkpt>
      <trkpt lat="45.95497" lon="4.75373">
        <ele>185</ele>
        <time>2017-06-22T09:45:31Z</time>
      </trkpt>
      <trkpt lat="45.95494" lon="4.75367">
        <ele>186</ele>
        <time>2017-06-22T09:45:32Z</time>
      </trkpt>
      <trkpt lat="45.95491" lon="4.7536">
        <ele>186</ele>
        <time>2017-06-22T09:45:33Z</time>
      </trkpt>
      <trkpt lat="45.95487" lon="4.75354">
        <ele>186</ele>
        <time>2017-06-22T09:45:34Z</time>
      </trkpt>
      <trkpt lat="45.95484" lon="4.75347">
        <ele>186</ele>
        <time>2017-06-22T09:45:35Z</time>
      </trkpt>
      <trkpt lat="45.95479" lon="4.7534">
        <ele>186</ele>
        <time>2017-06-22T09:45:36Z</time>
      </trkpt>
      <trkpt lat="45.95476" lon="4.75333">
        <ele>188</ele>
        <time>2017-06-22T09:45:37Z</time>
      </trkpt>
      <trkpt lat="45.95472" lon="4.75325">
        <ele>188</ele>
        <time>2017-06-22T09:45:38Z</time>
      </trkpt>
      <trkpt lat="45.95468" lon="4.75318">
        <ele>188</ele>
        <time>2017-06-22T09:45:39Z</time>
      </trkpt>
      <trkpt lat="45.95464" lon="4.75311">
        <ele>188</ele>
        <time>2017-06-22T09:45:40Z</time>
      </trkpt>
      <trkpt lat="45.95461" lon="4.75304">
        <ele>188</ele>
        <time>2017-06-22T09:45:41Z</time>
      </trkpt>
      <trkpt lat="45.95457" lon="4.75297">
        <ele>188</ele>
        <time>2017-06-22T09:45:42Z</time>
      </trkpt>
      <trkpt lat="45.95453" lon="4.75291">
        <ele>188</ele>
        <time>2017-06-22T09:45:43Z</time>
      </trkpt>
      <trkpt lat="45.9545" lon="4.75286">
        <ele>188</ele>
        <time>2017-06-22T09:45:44Z</time>
      </trkpt>
      <trkpt lat="45.95445" lon="4.75276">
        <ele>189</ele>
        <time>2017-06-22T09:45:46Z</time>
      </trkpt>
      <trkpt lat="45.95442" lon="4.7527">
        <ele>189</ele>
        <time>2017-06-22T09:45:47Z</time>
      </trkpt>
      <trkpt lat="45.95436" lon="4.7526">
        <ele>189</ele>
        <time>2017-06-22T09:45:49Z</time>
      </trkpt>
      <trkpt lat="45.95434" lon="4.75255">
        <ele>189</ele>
        <time>2017-06-22T09:45:50Z</time>
      </trkpt>
      <trkpt lat="45.9543" lon="4.7525">
        <ele>189</ele>
        <time>2017-06-22T09:45:51Z</time>
      </trkpt>
      <trkpt lat="45.95427" lon="4.75245">
        <ele>190</ele>
        <time>2017-06-22T09:45:52Z</time>
      </trkpt>
      <trkpt lat="45.95422" lon="4.75234">
        <ele>190</ele>
        <time>2017-06-22T09:45:54Z</time>
      </trkpt>
      <trkpt lat="45.9542" lon="4.75229">
        <ele>191</ele>
        <time>2017-06-22T09:45:55Z</time>
      </trkpt>
      <trkpt lat="45.95417" lon="4.75223">
        <ele>191</ele>
        <time>2017-06-22T09:45:56Z</time>
      </trkpt>
      <trkpt lat="45.95414" lon="4.75218">
        <ele>189</ele>
        <time>2017-06-22T09:45:57Z</time>
      </trkpt>
      <trkpt lat="45.95411" lon="4.75212">
        <ele>189</ele>
        <time>2017-06-22T09:45:58Z</time>
      </trkpt>
      <trkpt lat="45.95407" lon="4.75206">
        <ele>189</ele>
        <time>2017-06-22T09:45:59Z</time>
      </trkpt>
      <trkpt lat="45.95404" lon="4.75201">
        <ele>189</ele>
        <time>2017-06-22T09:46:00Z</time>
      </trkpt>
      <trkpt lat="45.95401" lon="4.75195">
        <ele>189</ele>
        <time>2017-06-22T09:46:01Z</time>
      </trkpt>
      <trkpt lat="45.95397" lon="4.7519">
        <ele>189</ele>
        <time>2017-06-22T09:46:02Z</time>
      </trkpt>
      <trkpt lat="45.95393" lon="4.75186">
        <ele>189</ele>
        <time>2017-06-22T09:46:03Z</time>
      </trkpt>
      <trkpt lat="45.95389" lon="4.75181">
        <ele>189</ele>
        <time>2017-06-22T09:46:04Z</time>
      </trkpt>
      <trkpt lat="45.95386" lon="4.75176">
        <ele>189</ele>
        <time>2017-06-22T09:46:05Z</time>
      </trkpt>
      <trkpt lat="45.95381" lon="4.75166">
        <ele>191</ele>
        <time>2017-06-22T09:46:07Z</time>
      </trkpt>
      <trkpt lat="45.95378" lon="4.7516">
        <ele>191</ele>
        <time>2017-06-22T09:46:08Z</time>
      </trkpt>
      <trkpt lat="45.95375" lon="4.75155">
        <ele>191</ele>
        <time>2017-06-22T09:46:09Z</time>
      </trkpt>
      <trkpt lat="45.95373" lon="4.75149">
        <ele>191</ele>
        <time>2017-06-22T09:46:10Z</time>
      </trkpt>
      <trkpt lat="45.9537" lon="4.75144">
        <ele>191</ele>
        <time>2017-06-22T09:46:11Z</time>
      </trkpt>
      <trkpt lat="45.95367" lon="4.75139">
        <ele>191</ele>
        <time>2017-06-22T09:46:12Z</time>
      </trkpt>
      <trkpt lat="45.95364" lon="4.75134">
        <ele>191</ele>
        <time>2017-06-22T09:46:13Z</time>
      </trkpt>
      <trkpt lat="45.95361" lon="4.75129">
        <ele>191</ele>
        <time>2017-06-22T09:46:14Z</time>
      </trkpt>
      <trkpt lat="45.95358" lon="4.75123">
        <ele>191</ele>
        <time>2017-06-22T09:46:15Z</time>
      </trkpt>
      <trkpt lat="45.95355" lon="4.75119">
        <ele>191</ele>
        <time>2017-06-22T09:46:16Z</time>
      </trkpt>
      <trkpt lat="45.95351" lon="4.75114">
        <ele>192</ele>
        <time>2017-06-22T09:46:17Z</time>
      </trkpt>
      <trkpt lat="45.95348" lon="4.75109">
        <ele>192</ele>
        <time>2017-06-22T09:46:18Z</time>
      </trkpt>
      <trkpt lat="45.95345" lon="4.75103">
        <ele>192</ele>
        <time>2017-06-22T09:46:19Z</time>
      </trkpt>
      <trkpt lat="45.95342" lon="4.75099">
        <ele>192</ele>
        <time>2017-06-22T09:46:20Z</time>
      </trkpt>
      <trkpt lat="45.95339" lon="4.75093">
        <ele>192</ele>
        <time>2017-06-22T09:46:21Z</time>
      </trkpt>
      <trkpt lat="45.95335" lon="4.75089">
        <ele>193</ele>
        <time>2017-06-22T09:46:22Z</time>
      </trkpt>
      <trkpt lat="45.9533" lon="4.7508">
        <ele>193</ele>
        <time>2017-06-22T09:46:24Z</time>
      </trkpt>
      <trkpt lat="45.95327" lon="4.75075">
        <ele>192</ele>
        <time>2017-06-22T09:46:25Z</time>
      </trkpt>
      <trkpt lat="45.95321" lon="4.75065">
        <ele>192</ele>
        <time>2017-06-22T09:46:27Z</time>
      </trkpt>
      <trkpt lat="45.95318" lon="4.7506">
        <ele>192</ele>
        <time>2017-06-22T09:46:28Z</time>
      </trkpt>
      <trkpt lat="45.95314" lon="4.75055">
        <ele>192</ele>
        <time>2017-06-22T09:46:29Z</time>
      </trkpt>
      <trkpt lat="45.95311" lon="4.75051">
        <ele>192</ele>
        <time>2017-06-22T09:46:30Z</time>
      </trkpt>
      <trkpt lat="45.95308" lon="4.75046">
        <ele>192</ele>
        <time>2017-06-22T09:46:31Z</time>
      </trkpt>
      <trkpt lat="45.95305" lon="4.75041">
        <ele>192</ele>
        <time>2017-06-22T09:46:32Z</time>
      </trkpt>
      <trkpt lat="45.95302" lon="4.75036">
        <ele>192</ele>
        <time>2017-06-22T09:46:33Z</time>
      </trkpt>
      <trkpt lat="45.95299" lon="4.7503">
        <ele>191</ele>
        <time>2017-06-22T09:46:34Z</time>
      </trkpt>
      <trkpt lat="45.95294" lon="4.75022">
        <ele>191</ele>
        <time>2017-06-22T09:46:36Z</time>
      </trkpt>
      <trkpt lat="45.95291" lon="4.75017">
        <ele>191</ele>
        <time>2017-06-22T09:46:37Z</time>
      </trkpt>
      <trkpt lat="45.95285" lon="4.75009">
        <ele>191</ele>
        <time>2017-06-22T09:46:39Z</time>
      </trkpt>
      <trkpt lat="45.95282" lon="4.75003">
        <ele>191</ele>
        <time>2017-06-22T09:46:40Z</time>
      </trkpt>
      <trkpt lat="45.95278" lon="4.74998">
        <ele>192</ele>
        <time>2017-06-22T09:46:41Z</time>
      </trkpt>
      <trkpt lat="45.95275" lon="4.74993">
        <ele>192</ele>
        <time>2017-06-22T09:46:42Z</time>
      </trkpt>
      <trkpt lat="45.95271" lon="4.74987">
        <ele>192</ele>
        <time>2017-06-22T09:46:43Z</time>
      </trkpt>
      <trkpt lat="45.95268" lon="4.74981">
        <ele>192</ele>
        <time>2017-06-22T09:46:44Z</time>
      </trkpt>
      <trkpt lat="45.95264" lon="4.74975">
        <ele>192</ele>
        <time>2017-06-22T09:46:45Z</time>
      </trkpt>
      <trkpt lat="45.9526" lon="4.74969">
        <ele>192</ele>
        <time>2017-06-22T09:46:46Z</time>
      </trkpt>
      <trkpt lat="45.95256" lon="4.74963">
        <ele>192</ele>
        <time>2017-06-22T09:46:47Z</time>
      </trkpt>
      <trkpt lat="45.95253" lon="4.74958">
        <ele>192</ele>
        <time>2017-06-22T09:46:48Z</time>
      </trkpt>
      <trkpt lat="45.95249" lon="4.74952">
        <ele>192</ele>
        <time>2017-06-22T09:46:49Z</time>
      </trkpt>
      <trkpt lat="45.95246" lon="4.74946">
        <ele>192</ele>
        <time>2017-06-22T09:46:50Z</time>
      </trkpt>
      <trkpt lat="45.95242" lon="4.74941">
        <ele>192</ele>
        <time>2017-06-22T09:46:51Z</time>
      </trkpt>
      <trkpt lat="45.95239" lon="4.74936">
        <ele>192</ele>
        <time>2017-06-22T09:46:52Z</time>
      </trkpt>
      <trkpt lat="45.95233" lon="4.74927">
        <ele>192</ele>
        <time>2017-06-22T09:46:54Z</time>
      </trkpt>
      <trkpt lat="45.9523" lon="4.74922">
        <ele>192</ele>
        <time>2017-06-22T09:46:55Z</time>
      </trkpt>
      <trkpt lat="45.95225" lon="4.74914">
        <ele>193</ele>
        <time>2017-06-22T09:46:57Z</time>
      </trkpt>
      <trkpt lat="45.95222" lon="4.7491">
        <ele>193</ele>
        <time>2017-06-22T09:46:58Z</time>
      </trkpt>
      <trkpt lat="45.95216" lon="4.74901">
        <ele>193</ele>
        <time>2017-06-22T09:47:00Z</time>
      </trkpt>
      <trkpt lat="45.95213" lon="4.74896">
        <ele>193</ele>
        <time>2017-06-22T09:47:01Z</time>
      </trkpt>
      <trkpt lat="45.9521" lon="4.74891">
        <ele>193</ele>
        <time>2017-06-22T09:47:02Z</time>
      </trkpt>
      <trkpt lat="45.95207" lon="4.74886">
        <ele>194</ele>
        <time>2017-06-22T09:47:03Z</time>
      </trkpt>
      <trkpt lat="45.95203" lon="4.7488">
        <ele>194</ele>
        <time>2017-06-22T09:47:04Z</time>
      </trkpt>
      <trkpt lat="45.952" lon="4.74874">
        <ele>194</ele>
        <time>2017-06-22T09:47:05Z</time>
      </trkpt>
      <trkpt lat="45.95196" lon="4.74868">
        <ele>194</ele>
        <time>2017-06-22T09:47:06Z</time>
      </trkpt>
      <trkpt lat="45.95193" lon="4.74863">
        <ele>194</ele>
        <time>2017-06-22T09:47:07Z</time>
      </trkpt>
      <trkpt lat="45.9519" lon="4.74857">
        <ele>194</ele>
        <time>2017-06-22T09:47:08Z</time>
      </trkpt>
      <trkpt lat="45.95186" lon="4.74852">
        <ele>194</ele>
        <time>2017-06-22T09:47:09Z</time>
      </trkpt>
      <trkpt lat="45.95182" lon="4.74846">
        <ele>194</ele>
        <time>2017-06-22T09:47:10Z</time>
      </trkpt>
      <trkpt lat="45.95179" lon="4.74841">
        <ele>194</ele>
        <time>2017-06-22T09:47:11Z</time>
      </trkpt>
      <trkpt lat="45.95177" lon="4.74836">
        <ele>194</ele>
        <time>2017-06-22T09:47:12Z</time>
      </trkpt>
      <trkpt lat="45.95173" lon="4.74831">
        <ele>194</ele>
        <time>2017-06-22T09:47:13Z</time>
      </trkpt>
      <trkpt lat="45.9517" lon="4.74826">
        <ele>194</ele>
        <time>2017-06-22T09:47:14Z</time>
      </trkpt>
      <trkpt lat="45.95167" lon="4.7482">
        <ele>194</ele>
        <time>2017-06-22T09:47:15Z</time>
      </trkpt>
      <trkpt lat="45.95164" lon="4.74815">
        <ele>194</ele>
        <time>2017-06-22T09:47:16Z</time>
      </trkpt>
      <trkpt lat="45.9516" lon="4.7481">
        <ele>194</ele>
        <time>2017-06-22T09:47:17Z</time>
      </trkpt>
      <trkpt lat="45.95157" lon="4.74805">
        <ele>194</ele>
        <time>2017-06-22T09:47:18Z</time>
      </trkpt>
      <trkpt lat="45.95153" lon="4.74801">
        <ele>194</ele>
        <time>2017-06-22T09:47:19Z</time>
      </trkpt>
      <trkpt lat="45.9515" lon="4.74795">
        <ele>194</ele>
        <time>2017-06-22T09:47:20Z</time>
      </trkpt>
      <trkpt lat="45.95147" lon="4.7479">
        <ele>194</ele>
        <time>2017-06-22T09:47:21Z</time>
      </trkpt>
      <trkpt lat="45.95144" lon="4.74785">
        <ele>194</ele>
        <time>2017-06-22T09:47:22Z</time>
      </trkpt>
      <trkpt lat="45.95141" lon="4.74779">
        <ele>194</ele>
        <time>2017-06-22T09:47:23Z</time>
      </trkpt>
      <trkpt lat="45.95138" lon="4.74773">
        <ele>194</ele>
        <time>2017-06-22T09:47:24Z</time>
      </trkpt>
      <trkpt lat="45.95134" lon="4.74768">
        <ele>194</ele>
        <time>2017-06-22T09:47:25Z</time>
      </trkpt>
      <trkpt lat="45.95131" lon="4.74762">
        <ele>194</ele>
        <time>2017-06-22T09:47:26Z</time>
      </trkpt>
      <trkpt lat="45.95127" lon="4.74757">
        <ele>194</ele>
        <time>2017-06-22T09:47:27Z</time>
      </trkpt>
      <trkpt lat="45.95124" lon="4.74751">
        <ele>194</ele>
        <time>2017-06-22T09:47:28Z</time>
      </trkpt>
      <trkpt lat="45.9512" lon="4.74745">
        <ele>194</ele>
        <time>2017-06-22T09:47:29Z</time>
      </trkpt>
      <trkpt lat="45.95117" lon="4.74739">
        <ele>194</ele>
        <time>2017-06-22T09:47:30Z</time>
      </trkpt>
      <trkpt lat="45.95114" lon="4.74733">
        <ele>194</ele>
        <time>2017-06-22T09:47:31Z</time>
      </trkpt>
      <trkpt lat="45.95112" lon="4.74728">
        <ele>194</ele>
        <time>2017-06-22T09:47:32Z</time>
      </trkpt>
      <trkpt lat="45.95109" lon="4.74722">
        <ele>194</ele>
        <time>2017-06-22T09:47:33Z</time>
      </trkpt>
      <trkpt lat="45.95106" lon="4.74717">
        <ele>194</ele>
        <time>2017-06-22T09:47:34Z</time>
      </trkpt>
      <trkpt lat="45.95102" lon="4.74712">
        <ele>194</ele>
        <time>2017-06-22T09:47:35Z</time>
      </trkpt>
      <trkpt lat="45.95099" lon="4.74707">
        <ele>194</ele>
        <time>2017-06-22T09:47:36Z</time>
      </trkpt>
      <trkpt lat="45.95095" lon="4.74703">
        <ele>194</ele>
        <time>2017-06-22T09:47:37Z</time>
      </trkpt>
      <trkpt lat="45.95092" lon="4.74698">
        <ele>194</ele>
        <time>2017-06-22T09:47:38Z</time>
      </trkpt>
      <trkpt lat="45.95088" lon="4.74692">
        <ele>194</ele>
        <time>2017-06-22T09:47:39Z</time>
      </trkpt>
      <trkpt lat="45.95084" lon="4.74686">
        <ele>195</ele>
        <time>2017-06-22T09:47:40Z</time>
      </trkpt>
      <trkpt lat="45.9508" lon="4.74679">
        <ele>194</ele>
        <time>2017-06-22T09:47:41Z</time>
      </trkpt>
      <trkpt lat="45.95076" lon="4.74672">
        <ele>195</ele>
        <time>2017-06-22T09:47:42Z</time>
      </trkpt>
      <trkpt lat="45.95072" lon="4.74665">
        <ele>195</ele>
        <time>2017-06-22T09:47:43Z</time>
      </trkpt>
      <trkpt lat="45.95069" lon="4.74658">
        <ele>195</ele>
        <time>2017-06-22T09:47:44Z</time>
      </trkpt>
      <trkpt lat="45.95065" lon="4.74653">
        <ele>195</ele>
        <time>2017-06-22T09:47:45Z</time>
      </trkpt>
      <trkpt lat="45.95062" lon="4.74647">
        <ele>194</ele>
        <time>2017-06-22T09:47:46Z</time>
      </trkpt>
      <trkpt lat="45.95059" lon="4.7464">
        <ele>194</ele>
        <time>2017-06-22T09:47:47Z</time>
      </trkpt>
      <trkpt lat="45.95055" lon="4.74634">
        <ele>194</ele>
        <time>2017-06-22T09:47:48Z</time>
      </trkpt>
      <trkpt lat="45.95051" lon="4.74628">
        <ele>194</ele>
        <time>2017-06-22T09:47:49Z</time>
      </trkpt>
      <trkpt lat="45.95047" lon="4.74622">
        <ele>194</ele>
        <time>2017-06-22T09:47:50Z</time>
      </trkpt>
      <trkpt lat="45.95044" lon="4.74617">
        <ele>194</ele>
        <time>2017-06-22T09:47:51Z</time>
      </trkpt>
      <trkpt lat="45.95041" lon="4.74611">
        <ele>194</ele>
        <time>2017-06-22T09:47:52Z</time>
      </trkpt>
      <trkpt lat="45.95038" lon="4.74605">
        <ele>194</ele>
        <time>2017-06-22T09:47:53Z</time>
      </trkpt>
      <trkpt lat="45.95036" lon="4.746">
        <ele>194</ele>
        <time>2017-06-22T09:47:54Z</time>
      </trkpt>
      <trkpt lat="45.95033" lon="4.74595">
        <ele>194</ele>
        <time>2017-06-22T09:47:55Z</time>
      </trkpt>
      <trkpt lat="45.95028" lon="4.74585">
        <ele>194</ele>
        <time>2017-06-22T09:47:57Z</time>
      </trkpt>
      <trkpt lat="45.95025" lon="4.74579">
        <ele>194</ele>
        <time>2017-06-22T09:47:58Z</time>
      </trkpt>
      <trkpt lat="45.95022" lon="4.74573">
        <ele>194</ele>
        <time>2017-06-22T09:47:59Z</time>
      </trkpt>
      <trkpt lat="45.95019" lon="4.74567">
        <ele>194</ele>
        <time>2017-06-22T09:48:00Z</time>
      </trkpt>
      <trkpt lat="45.95016" lon="4.74561">
        <ele>194</ele>
        <time>2017-06-22T09:48:01Z</time>
      </trkpt>
      <trkpt lat="45.95012" lon="4.74555">
        <ele>194</ele>
        <time>2017-06-22T09:48:02Z</time>
      </trkpt>
      <trkpt lat="45.95009" lon="4.74549">
        <ele>194</ele>
        <time>2017-06-22T09:48:03Z</time>
      </trkpt>
      <trkpt lat="45.95006" lon="4.74544">
        <ele>194</ele>
        <time>2017-06-22T09:48:04Z</time>
      </trkpt>
      <trkpt lat="45.95004" lon="4.74538">
        <ele>194</ele>
        <time>2017-06-22T09:48:05Z</time>
      </trkpt>
      <trkpt lat="45.95001" lon="4.74533">
        <ele>194</ele>
        <time>2017-06-22T09:48:06Z</time>
      </trkpt>
      <trkpt lat="45.94998" lon="4.74527">
        <ele>193</ele>
        <time>2017-06-22T09:48:07Z</time>
      </trkpt>
      <trkpt lat="45.94995" lon="4.74522">
        <ele>193</ele>
        <time>2017-06-22T09:48:08Z</time>
      </trkpt>
      <trkpt lat="45.94992" lon="4.74516">
        <ele>193</ele>
        <time>2017-06-22T09:48:09Z</time>
      </trkpt>
      <trkpt lat="45.94989" lon="4.74511">
        <ele>193</ele>
        <time>2017-06-22T09:48:10Z</time>
      </trkpt>
      <trkpt lat="45.94986" lon="4.74505">
        <ele>193</ele>
        <time>2017-06-22T09:48:11Z</time>
      </trkpt>
      <trkpt lat="45.94983" lon="4.74499">
        <ele>193</ele>
        <time>2017-06-22T09:48:12Z</time>
      </trkpt>
      <trkpt lat="45.9498" lon="4.74494">
        <ele>193</ele>
        <time>2017-06-22T09:48:13Z</time>
      </trkpt>
      <trkpt lat="45.94978" lon="4.74488">
        <ele>193</ele>
        <time>2017-06-22T09:48:14Z</time>
      </trkpt>
      <trkpt lat="45.94975" lon="4.74482">
        <ele>193</ele>
        <time>2017-06-22T09:48:15Z</time>
      </trkpt>
      <trkpt lat="45.94972" lon="4.74476">
        <ele>193</ele>
        <time>2017-06-22T09:48:16Z</time>
      </trkpt>
      <trkpt lat="45.94969" lon="4.7447">
        <ele>193</ele>
        <time>2017-06-22T09:48:17Z</time>
      </trkpt>
      <trkpt lat="45.94966" lon="4.74464">
        <ele>193</ele>
        <time>2017-06-22T09:48:18Z</time>
      </trkpt>
      <trkpt lat="45.94963" lon="4.74459">
        <ele>193</ele>
        <time>2017-06-22T09:48:19Z</time>
      </trkpt>
      <trkpt lat="45.9496" lon="4.74453">
        <ele>192</ele>
        <time>2017-06-22T09:48:20Z</time>
      </trkpt>
      <trkpt lat="45.94957" lon="4.74447">
        <ele>192</ele>
        <time>2017-06-22T09:48:21Z</time>
      </trkpt>
      <trkpt lat="45.94953" lon="4.74442">
        <ele>192</ele>
        <time>2017-06-22T09:48:22Z</time>
      </trkpt>
      <trkpt lat="45.9495" lon="4.74436">
        <ele>192</ele>
        <time>2017-06-22T09:48:23Z</time>
      </trkpt>
      <trkpt lat="45.94947" lon="4.74431">
        <ele>192</ele>
        <time>2017-06-22T09:48:24Z</time>
      </trkpt>
      <trkpt lat="45.94944" lon="4.74425">
        <ele>192</ele>
        <time>2017-06-22T09:48:25Z</time>
      </trkpt>
      <trkpt lat="45.94941" lon="4.74419">
        <ele>192</ele>
        <time>2017-06-22T09:48:26Z</time>
      </trkpt>
      <trkpt lat="45.94937" lon="4.74413">
        <ele>192</ele>
        <time>2017-06-22T09:48:27Z</time>
      </trkpt>
      <trkpt lat="45.94934" lon="4.74407">
        <ele>192</ele>
        <time>2017-06-22T09:48:28Z</time>
      </trkpt>
      <trkpt lat="45.9493" lon="4.74401">
        <ele>192</ele>
        <time>2017-06-22T09:48:29Z</time>
      </trkpt>
      <trkpt lat="45.94927" lon="4.74394">
        <ele>192</ele>
        <time>2017-06-22T09:48:30Z</time>
      </trkpt>
      <trkpt lat="45.94923" lon="4.74387">
        <ele>192</ele>
        <time>2017-06-22T09:48:31Z</time>
      </trkpt>
      <trkpt lat="45.94919" lon="4.74381">
        <ele>192</ele>
        <time>2017-06-22T09:48:32Z</time>
      </trkpt>
      <trkpt lat="45.94916" lon="4.74374">
        <ele>191</ele>
        <time>2017-06-22T09:48:33Z</time>
      </trkpt>
      <trkpt lat="45.94913" lon="4.74367">
        <ele>191</ele>
        <time>2017-06-22T09:48:34Z</time>
      </trkpt>
      <trkpt lat="45.94909" lon="4.7436">
        <ele>191</ele>
        <time>2017-06-22T09:48:35Z</time>
      </trkpt>
      <trkpt lat="45.94906" lon="4.74353">
        <ele>191</ele>
        <time>2017-06-22T09:48:36Z</time>
      </trkpt>
      <trkpt lat="45.94903" lon="4.74347">
        <ele>191</ele>
        <time>2017-06-22T09:48:37Z</time>
      </trkpt>
      <trkpt lat="45.94899" lon="4.7434">
        <ele>191</ele>
        <time>2017-06-22T09:48:38Z</time>
      </trkpt>
      <trkpt lat="45.94895" lon="4.74334">
        <ele>191</ele>
        <time>2017-06-22T09:48:39Z</time>
      </trkpt>
      <trkpt lat="45.94892" lon="4.74327">
        <ele>191</ele>
        <time>2017-06-22T09:48:40Z</time>
      </trkpt>
      <trkpt lat="45.94889" lon="4.7432">
        <ele>191</ele>
        <time>2017-06-22T09:48:41Z</time>
      </trkpt>
      <trkpt lat="45.94885" lon="4.74313">
        <ele>191</ele>
        <time>2017-06-22T09:48:42Z</time>
      </trkpt>
      <trkpt lat="45.94881" lon="4.74306">
        <ele>191</ele>
        <time>2017-06-22T09:48:43Z</time>
      </trkpt>
      <trkpt lat="45.94878" lon="4.74298">
        <ele>191</ele>
        <time>2017-06-22T09:48:44Z</time>
      </trkpt>
      <trkpt lat="45.94875" lon="4.74291">
        <ele>191</ele>
        <time>2017-06-22T09:48:45Z</time>
      </trkpt>
      <trkpt lat="45.94871" lon="4.74283">
        <ele>191</ele>
        <time>2017-06-22T09:48:46Z</time>
      </trkpt>
      <trkpt lat="45.94867" lon="4.74275">
        <ele>191</ele>
        <time>2017-06-22T09:48:47Z</time>
      </trkpt>
      <trkpt lat="45.94863" lon="4.74267">
        <ele>190</ele>
        <time>2017-06-22T09:48:48Z</time>
      </trkpt>
      <trkpt lat="45.9486" lon="4.7426">
        <ele>190</ele>
        <time>2017-06-22T09:48:49Z</time>
      </trkpt>
      <trkpt lat="45.94856" lon="4.74252">
        <ele>190</ele>
        <time>2017-06-22T09:48:50Z</time>
      </trkpt>
      <trkpt lat="45.94853" lon="4.74245">
        <ele>190</ele>
        <time>2017-06-22T09:48:51Z</time>
      </trkpt>
      <trkpt lat="45.94849" lon="4.74237">
        <ele>190</ele>
        <time>2017-06-22T09:48:52Z</time>
      </trkpt>
      <trkpt lat="45.94846" lon="4.7423">
        <ele>190</ele>
        <time>2017-06-22T09:48:53Z</time>
      </trkpt>
      <trkpt lat="45.94842" lon="4.74224">
        <ele>190</ele>
        <time>2017-06-22T09:48:54Z</time>
      </trkpt>
      <trkpt lat="45.94839" lon="4.74217">
        <ele>190</ele>
        <time>2017-06-22T09:48:55Z</time>
      </trkpt>
      <trkpt lat="45.94835" lon="4.74211">
        <ele>190</ele>
        <time>2017-06-22T09:48:56Z</time>
      </trkpt>
      <trkpt lat="45.94831" lon="4.74205">
        <ele>189</ele>
        <time>2017-06-22T09:48:57Z</time>
      </trkpt>
      <trkpt lat="45.94827" lon="4.74198">
        <ele>189</ele>
        <time>2017-06-22T09:48:58Z</time>
      </trkpt>
      <trkpt lat="45.94823" lon="4.7419">
        <ele>189</ele>
        <time>2017-06-22T09:48:59Z</time>
      </trkpt>
      <trkpt lat="45.94819" lon="4.74183">
        <ele>189</ele>
        <time>2017-06-22T09:49:00Z</time>
      </trkpt>
      <trkpt lat="45.94816" lon="4.74176">
        <ele>189</ele>
        <time>2017-06-22T09:49:01Z</time>
      </trkpt>
      <trkpt lat="45.94812" lon="4.74169">
        <ele>189</ele>
        <time>2017-06-22T09:49:02Z</time>
      </trkpt>
      <trkpt lat="45.94808" lon="4.74162">
        <ele>189</ele>
        <time>2017-06-22T09:49:03Z</time>
      </trkpt>
      <trkpt lat="45.94804" lon="4.74156">
        <ele>189</ele>
        <time>2017-06-22T09:49:04Z</time>
      </trkpt>
      <trkpt lat="45.948" lon="4.7415">
        <ele>189</ele>
        <time>2017-06-22T09:49:05Z</time>
      </trkpt>
      <trkpt lat="45.94796" lon="4.74143">
        <ele>189</ele>
        <time>2017-06-22T09:49:06Z</time>
      </trkpt>
      <trkpt lat="45.94792" lon="4.74137">
        <ele>189</ele>
        <time>2017-06-22T09:49:07Z</time>
      </trkpt>
      <trkpt lat="45.94788" lon="4.74131">
        <ele>189</ele>
        <time>2017-06-22T09:49:08Z</time>
      </trkpt>
      <trkpt lat="45.94784" lon="4.74125">
        <ele>189</ele>
        <time>2017-06-22T09:49:09Z</time>
      </trkpt>
      <trkpt lat="45.94781" lon="4.74119">
        <ele>189</ele>
        <time>2017-06-22T09:49:10Z</time>
      </trkpt>
      <trkpt lat="45.94777" lon="4.74113">
        <ele>189</ele>
        <time>2017-06-22T09:49:11Z</time>
      </trkpt>
      <trkpt lat="45.94773" lon="4.74108">
        <ele>189</ele>
        <time>2017-06-22T09:49:12Z</time>
      </trkpt>
      <trkpt lat="45.94769" lon="4.74102">
        <ele>189</ele>
        <time>2017-06-22T09:49:13Z</time>
      </trkpt>
      <trkpt lat="45.94765" lon="4.74096">
        <ele>189</ele>
        <time>2017-06-22T09:49:14Z</time>
      </trkpt>
      <trkpt lat="45.94761" lon="4.74091">
        <ele>189</ele>
        <time>2017-06-22T09:49:15Z</time>
      </trkpt>
      <trkpt lat="45.94757" lon="4.74085">
        <ele>189</ele>
        <time>2017-06-22T09:49:16Z</time>
      </trkpt>
      <trkpt lat="45.94753" lon="4.7408">
        <ele>189</ele>
        <time>2017-06-22T09:49:17Z</time>
      </trkpt>
      <trkpt lat="45.94748" lon="4.74075">
        <ele>188</ele>
        <time>2017-06-22T09:49:18Z</time>
      </trkpt>
      <trkpt lat="45.94745" lon="4.74069">
        <ele>188</ele>
        <time>2017-06-22T09:49:19Z</time>
      </trkpt>
      <trkpt lat="45.94741" lon="4.74064">
        <ele>188</ele>
        <time>2017-06-22T09:49:20Z</time>
      </trkpt>
      <trkpt lat="45.94737" lon="4.74059">
        <ele>188</ele>
        <time>2017-06-22T09:49:21Z</time>
      </trkpt>
      <trkpt lat="45.94733" lon="4.74054">
        <ele>188</ele>
        <time>2017-06-22T09:49:22Z</time>
      </trkpt>
      <trkpt lat="45.94729" lon="4.7405">
        <ele>188</ele>
        <time>2017-06-22T09:49:23Z</time>
      </trkpt>
      <trkpt lat="45.94725" lon="4.74045">
        <ele>188</ele>
        <time>2017-06-22T09:49:24Z</time>
      </trkpt>
      <trkpt lat="45.94722" lon="4.7404">
        <ele>187</ele>
        <time>2017-06-22T09:49:25Z</time>
      </trkpt>
      <trkpt lat="45.94718" lon="4.74034">
        <ele>187</ele>
        <time>2017-06-22T09:49:26Z</time>
      </trkpt>
      <trkpt lat="45.94714" lon="4.74029">
        <ele>187</ele>
        <time>2017-06-22T09:49:27Z</time>
      </trkpt>
      <trkpt lat="45.9471" lon="4.74024">
        <ele>187</ele>
        <time>2017-06-22T09:49:28Z</time>
      </trkpt>
      <trkpt lat="45.94706" lon="4.7402">
        <ele>187</ele>
        <time>2017-06-22T09:49:29Z</time>
      </trkpt>
      <trkpt lat="45.94702" lon="4.74015">
        <ele>187</ele>
        <time>2017-06-22T09:49:30Z</time>
      </trkpt>
      <trkpt lat="45.94698" lon="4.7401">
        <ele>187</ele>
        <time>2017-06-22T09:49:31Z</time>
      </trkpt>
      <trkpt lat="45.94694" lon="4.74005">
        <ele>187</ele>
        <time>2017-06-22T09:49:32Z</time>
      </trkpt>
      <trkpt lat="45.9469" lon="4.74">
        <ele>187</ele>
        <time>2017-06-22T09:49:33Z</time>
      </trkpt>
      <trkpt lat="45.94687" lon="4.73994">
        <ele>187</ele>
        <time>2017-06-22T09:49:34Z</time>
      </trkpt>
      <trkpt lat="45.94683" lon="4.73989">
        <ele>187</ele>
        <time>2017-06-22T09:49:35Z</time>
      </trkpt>
      <trkpt lat="45.94679" lon="4.73983">
        <ele>187</ele>
        <time>2017-06-22T09:49:36Z</time>
      </trkpt>
      <trkpt lat="45.94674" lon="4.73977">
        <ele>187</ele>
        <time>2017-06-22T09:49:37Z</time>
      </trkpt>
      <trkpt lat="45.9467" lon="4.73972">
        <ele>187</ele>
        <time>2017-06-22T09:49:38Z</time>
      </trkpt>
      <trkpt lat="45.94666" lon="4.73967">
        <ele>187</ele>
        <time>2017-06-22T09:49:39Z</time>
      </trkpt>
      <trkpt lat="45.94663" lon="4.73961">
        <ele>187</ele>
        <time>2017-06-22T09:49:40Z</time>
      </trkpt>
      <trkpt lat="45.94659" lon="4.73956">
        <ele>187</ele>
        <time>2017-06-22T09:49:41Z</time>
      </trkpt>
      <trkpt lat="45.94655" lon="4.7395">
        <ele>187</ele>
        <time>2017-06-22T09:49:42Z</time>
      </trkpt>
      <trkpt lat="45.94651" lon="4.73944">
        <ele>187</ele>
        <time>2017-06-22T09:49:43Z</time>
      </trkpt>
      <trkpt lat="45.94646" lon="4.73938">
        <ele>187</ele>
        <time>2017-06-22T09:49:44Z</time>
      </trkpt>
      <trkpt lat="45.94642" lon="4.73933">
        <ele>187</ele>
        <time>2017-06-22T09:49:45Z</time>
      </trkpt>
      <trkpt lat="45.94638" lon="4.73927">
        <ele>187</ele>
        <time>2017-06-22T09:49:46Z</time>
      </trkpt>
      <trkpt lat="45.94634" lon="4.73921">
        <ele>187</ele>
        <time>2017-06-22T09:49:47Z</time>
      </trkpt>
      <trkpt lat="45.94629" lon="4.73916">
        <ele>187</ele>
        <time>2017-06-22T09:49:48Z</time>
      </trkpt>
      <trkpt lat="45.94625" lon="4.7391">
        <ele>187</ele>
        <time>2017-06-22T09:49:49Z</time>
      </trkpt>
      <trkpt lat="45.9462" lon="4.73904">
        <ele>187</ele>
        <time>2017-06-22T09:49:50Z</time>
      </trkpt>
      <trkpt lat="45.94615" lon="4.73898">
        <ele>187</ele>
        <time>2017-06-22T09:49:51Z</time>
      </trkpt>
      <trkpt lat="45.9461" lon="4.73893">
        <ele>187</ele>
        <time>2017-06-22T09:49:52Z</time>
      </trkpt>
      <trkpt lat="45.94605" lon="4.73887">
        <ele>187</ele>
        <time>2017-06-22T09:49:53Z</time>
      </trkpt>
      <trkpt lat="45.946" lon="4.73882">
        <ele>187</ele>
        <time>2017-06-22T09:49:54Z</time>
      </trkpt>
      <trkpt lat="45.94595" lon="4.73877">
        <ele>187</ele>
        <time>2017-06-22T09:49:55Z</time>
      </trkpt>
      <trkpt lat="45.9459" lon="4.73871">
        <ele>187</ele>
        <time>2017-06-22T09:49:56Z</time>
      </trkpt>
      <trkpt lat="45.94585" lon="4.73866">
        <ele>187</ele>
        <time>2017-06-22T09:49:57Z</time>
      </trkpt>
      <trkpt lat="45.9458" lon="4.7386">
        <ele>186</ele>
        <time>2017-06-22T09:49:58Z</time>
      </trkpt>
      <trkpt lat="45.94575" lon="4.73854">
        <ele>186</ele>
        <time>2017-06-22T09:49:59Z</time>
      </trkpt>
      <trkpt lat="45.9457" lon="4.73848">
        <ele>186</ele>
        <time>2017-06-22T09:50:00Z</time>
      </trkpt>
      <trkpt lat="45.94565" lon="4.73843">
        <ele>186</ele>
        <time>2017-06-22T09:50:01Z</time>
      </trkpt>
      <trkpt lat="45.9456" lon="4.73837">
        <ele>186</ele>
        <time>2017-06-22T09:50:02Z</time>
      </trkpt>
      <trkpt lat="45.94555" lon="4.73832">
        <ele>186</ele>
        <time>2017-06-22T09:50:03Z</time>
      </trkpt>
      <trkpt lat="45.9455" lon="4.73828">
        <ele>186</ele>
        <time>2017-06-22T09:50:04Z</time>
      </trkpt>
      <trkpt lat="45.94545" lon="4.73823">
        <ele>186</ele>
        <time>2017-06-22T09:50:05Z</time>
      </trkpt>
      <trkpt lat="45.9454" lon="4.73818">
        <ele>186</ele>
        <time>2017-06-22T09:50:06Z</time>
      </trkpt>
      <trkpt lat="45.94535" lon="4.73813">
        <ele>186</ele>
        <time>2017-06-22T09:50:07Z</time>
      </trkpt>
      <trkpt lat="45.9453" lon="4.73809">
        <ele>186</ele>
        <time>2017-06-22T09:50:08Z</time>
      </trkpt>
      <trkpt lat="45.94526" lon="4.73804">
        <ele>186</ele>
        <time>2017-06-22T09:50:09Z</time>
      </trkpt>
      <trkpt lat="45.9452" lon="4.738">
        <ele>186</ele>
        <time>2017-06-22T09:50:10Z</time>
      </trkpt>
      <trkpt lat="45.94515" lon="4.73795">
        <ele>186</ele>
        <time>2017-06-22T09:50:11Z</time>
      </trkpt>
      <trkpt lat="45.94511" lon="4.7379">
        <ele>186</ele>
        <time>2017-06-22T09:50:12Z</time>
      </trkpt>
      <trkpt lat="45.94506" lon="4.73785">
        <ele>186</ele>
        <time>2017-06-22T09:50:13Z</time>
      </trkpt>
      <trkpt lat="45.94501" lon="4.7378">
        <ele>186</ele>
        <time>2017-06-22T09:50:14Z</time>
      </trkpt>
      <trkpt lat="45.94497" lon="4.73774">
        <ele>186</ele>
        <time>2017-06-22T09:50:15Z</time>
      </trkpt>
      <trkpt lat="45.94493" lon="4.73769">
        <ele>186</ele>
        <time>2017-06-22T09:50:16Z</time>
      </trkpt>
      <trkpt lat="45.94489" lon="4.73763">
        <ele>186</ele>
        <time>2017-06-22T09:50:17Z</time>
      </trkpt>
      <trkpt lat="45.94487" lon="4.73755">
        <ele>186</ele>
        <time>2017-06-22T09:50:18Z</time>
      </trkpt>
      <trkpt lat="45.94485" lon="4.73747">
        <ele>186</ele>
        <time>2017-06-22T09:50:19Z</time>
      </trkpt>
      <trkpt lat="45.94485" lon="4.73737">
        <ele>186</ele>
        <time>2017-06-22T09:50:20Z</time>
      </trkpt>
      <trkpt lat="45.94486" lon="4.73727">
        <ele>186</ele>
        <time>2017-06-22T09:50:21Z</time>
      </trkpt>
      <trkpt lat="45.94487" lon="4.73718">
        <ele>186</ele>
        <time>2017-06-22T09:50:22Z</time>
      </trkpt>
      <trkpt lat="45.94488" lon="4.73708">
        <ele>186</ele>
        <time>2017-06-22T09:50:23Z</time>
      </trkpt>
      <trkpt lat="45.9449" lon="4.73698">
        <ele>186</ele>
        <time>2017-06-22T09:50:24Z</time>
      </trkpt>
      <trkpt lat="45.94491" lon="4.73689">
        <ele>186</ele>
        <time>2017-06-22T09:50:25Z</time>
      </trkpt>
      <trkpt lat="45.94493" lon="4.7368">
        <ele>185</ele>
        <time>2017-06-22T09:50:26Z</time>
      </trkpt>
      <trkpt lat="45.94494" lon="4.7367">
        <ele>185</ele>
        <time>2017-06-22T09:50:27Z</time>
      </trkpt>
      <trkpt lat="45.94495" lon="4.73661">
        <ele>185</ele>
        <time>2017-06-22T09:50:28Z</time>
      </trkpt>
      <trkpt lat="45.94496" lon="4.73651">
        <ele>185</ele>
        <time>2017-06-22T09:50:29Z</time>
      </trkpt>
      <trkpt lat="45.94497" lon="4.73642">
        <ele>186</ele>
        <time>2017-06-22T09:50:30Z</time>
      </trkpt>
      <trkpt lat="45.94499" lon="4.73633">
        <ele>186</ele>
        <time>2017-06-22T09:50:31Z</time>
      </trkpt>
      <trkpt lat="45.945" lon="4.73625">
        <ele>184</ele>
        <time>2017-06-22T09:50:32Z</time>
      </trkpt>
      <trkpt lat="45.94501" lon="4.73616">
        <ele>184</ele>
        <time>2017-06-22T09:50:33Z</time>
      </trkpt>
      <trkpt lat="45.94502" lon="4.73608">
        <ele>184</ele>
        <time>2017-06-22T09:50:34Z</time>
      </trkpt>
      <trkpt lat="45.94503" lon="4.73599">
        <ele>184</ele>
        <time>2017-06-22T09:50:35Z</time>
      </trkpt>
      <trkpt lat="45.94504" lon="4.73589">
        <ele>185</ele>
        <time>2017-06-22T09:50:36Z</time>
      </trkpt>
      <trkpt lat="45.94505" lon="4.7358">
        <ele>184</ele>
        <time>2017-06-22T09:50:37Z</time>
      </trkpt>
      <trkpt lat="45.94505" lon="4.73569">
        <ele>184</ele>
        <time>2017-06-22T09:50:38Z</time>
      </trkpt>
      <trkpt lat="45.94505" lon="4.73559">
        <ele>184</ele>
        <time>2017-06-22T09:50:39Z</time>
      </trkpt>
      <trkpt lat="45.94505" lon="4.73549">
        <ele>183</ele>
        <time>2017-06-22T09:50:40Z</time>
      </trkpt>
      <trkpt lat="45.94507" lon="4.73537">
        <ele>183</ele>
        <time>2017-06-22T09:50:41Z</time>
      </trkpt>
      <trkpt lat="45.94507" lon="4.73527">
        <ele>183</ele>
        <time>2017-06-22T09:50:42Z</time>
      </trkpt>
      <trkpt lat="45.94507" lon="4.73517">
        <ele>183</ele>
        <time>2017-06-22T09:50:43Z</time>
      </trkpt>
      <trkpt lat="45.94507" lon="4.73506">
        <ele>183</ele>
        <time>2017-06-22T09:50:44Z</time>
      </trkpt>
      <trkpt lat="45.94507" lon="4.73495">
        <ele>182</ele>
        <time>2017-06-22T09:50:45Z</time>
      </trkpt>
      <trkpt lat="45.94507" lon="4.73485">
        <ele>182</ele>
        <time>2017-06-22T09:50:46Z</time>
      </trkpt>
      <trkpt lat="45.94508" lon="4.73473">
        <ele>182</ele>
        <time>2017-06-22T09:50:47Z</time>
      </trkpt>
      <trkpt lat="45.94508" lon="4.73462">
        <ele>181</ele>
        <time>2017-06-22T09:50:48Z</time>
      </trkpt>
      <trkpt lat="45.94509" lon="4.73452">
        <ele>181</ele>
        <time>2017-06-22T09:50:49Z</time>
      </trkpt>
      <trkpt lat="45.94507" lon="4.73439">
        <ele>181</ele>
        <time>2017-06-22T09:50:50Z</time>
      </trkpt>
      <trkpt lat="45.94507" lon="4.73428">
        <ele>180</ele>
        <time>2017-06-22T09:50:51Z</time>
      </trkpt>
      <trkpt lat="45.94507" lon="4.73416">
        <ele>180</ele>
        <time>2017-06-22T09:50:52Z</time>
      </trkpt>
      <trkpt lat="45.94506" lon="4.73404">
        <ele>179</ele>
        <time>2017-06-22T09:50:53Z</time>
      </trkpt>
      <trkpt lat="45.94505" lon="4.73392">
        <ele>179</ele>
        <time>2017-06-22T09:50:54Z</time>
      </trkpt>
      <trkpt lat="45.94504" lon="4.7338">
        <ele>178</ele>
        <time>2017-06-22T09:50:55Z</time>
      </trkpt>
      <trkpt lat="45.94502" lon="4.73369">
        <ele>178</ele>
        <time>2017-06-22T09:50:56Z</time>
      </trkpt>
      <trkpt lat="45.945" lon="4.73357">
        <ele>178</ele>
        <time>2017-06-22T09:50:57Z</time>
      </trkpt>
      <trkpt lat="45.94499" lon="4.73345">
        <ele>178</ele>
        <time>2017-06-22T09:50:58Z</time>
      </trkpt>
      <trkpt lat="45.94497" lon="4.73333">
        <ele>177</ele>
        <time>2017-06-22T09:50:59Z</time>
      </trkpt>
      <trkpt lat="45.94496" lon="4.73322">
        <ele>177</ele>
        <time>2017-06-22T09:51:00Z</time>
      </trkpt>
      <trkpt lat="45.94495" lon="4.7331">
        <ele>177</ele>
        <time>2017-06-22T09:51:01Z</time>
      </trkpt>
      <trkpt lat="45.94493" lon="4.73298">
        <ele>177</ele>
        <time>2017-06-22T09:51:02Z</time>
      </trkpt>
      <trkpt lat="45.94492" lon="4.73286">
        <ele>177</ele>
        <time>2017-06-22T09:51:03Z</time>
      </trkpt>
      <trkpt lat="45.9449" lon="4.73274">
        <ele>177</ele>
        <time>2017-06-22T09:51:04Z</time>
      </trkpt>
      <trkpt lat="45.94489" lon="4.73262">
        <ele>176</ele>
        <time>2017-06-22T09:51:05Z</time>
      </trkpt>
      <trkpt lat="45.94487" lon="4.73251">
        <ele>176</ele>
        <time>2017-06-22T09:51:06Z</time>
      </trkpt>
      <trkpt lat="45.94485" lon="4.73239">
        <ele>175</ele>
        <time>2017-06-22T09:51:07Z</time>
      </trkpt>
      <trkpt lat="45.94484" lon="4.73228">
        <ele>175</ele>
        <time>2017-06-22T09:51:08Z</time>
      </trkpt>
      <trkpt lat="45.94484" lon="4.73216">
        <ele>175</ele>
        <time>2017-06-22T09:51:09Z</time>
      </trkpt>
      <trkpt lat="45.94482" lon="4.73205">
        <ele>175</ele>
        <time>2017-06-22T09:51:10Z</time>
      </trkpt>
      <trkpt lat="45.94481" lon="4.73193">
        <ele>174</ele>
        <time>2017-06-22T09:51:11Z</time>
      </trkpt>
      <trkpt lat="45.94479" lon="4.73181">
        <ele>174</ele>
        <time>2017-06-22T09:51:12Z</time>
      </trkpt>
      <trkpt lat="45.94477" lon="4.73169">
        <ele>174</ele>
        <time>2017-06-22T09:51:13Z</time>
      </trkpt>
      <trkpt lat="45.94475" lon="4.73158">
        <ele>173</ele>
        <time>2017-06-22T09:51:14Z</time>
      </trkpt>
      <trkpt lat="45.94474" lon="4.73147">
        <ele>172</ele>
        <time>2017-06-22T09:51:15Z</time>
      </trkpt>
      <trkpt lat="45.94472" lon="4.73136">
        <ele>172</ele>
        <time>2017-06-22T09:51:16Z</time>
      </trkpt>
      <trkpt lat="45.94471" lon="4.73126">
        <ele>172</ele>
        <time>2017-06-22T09:51:17Z</time>
      </trkpt>
      <trkpt lat="45.9447" lon="4.73116">
        <ele>172</ele>
        <time>2017-06-22T09:51:18Z</time>
      </trkpt>
      <trkpt lat="45.94468" lon="4.73107">
        <ele>172</ele>
        <time>2017-06-22T09:51:19Z</time>
      </trkpt>
      <trkpt lat="45.94467" lon="4.73097">
        <ele>172</ele>
        <time>2017-06-22T09:51:20Z</time>
      </trkpt>
      <trkpt lat="45.94465" lon="4.73088">
        <ele>171</ele>
        <time>2017-06-22T09:51:21Z</time>
      </trkpt>
      <trkpt lat="45.94463" lon="4.73079">
        <ele>170</ele>
        <time>2017-06-22T09:51:22Z</time>
      </trkpt>
      <trkpt lat="45.94461" lon="4.73071">
        <ele>170</ele>
        <time>2017-06-22T09:51:23Z</time>
      </trkpt>
      <trkpt lat="45.9446" lon="4.73062">
        <ele>170</ele>
        <time>2017-06-22T09:51:24Z</time>
      </trkpt>
      <trkpt lat="45.94459" lon="4.73053">
        <ele>170</ele>
        <time>2017-06-22T09:51:25Z</time>
      </trkpt>
      <trkpt lat="45.94458" lon="4.73044">
        <ele>170</ele>
        <time>2017-06-22T09:51:26Z</time>
      </trkpt>
      <trkpt lat="45.94457" lon="4.73036">
        <ele>169</ele>
        <time>2017-06-22T09:51:27Z</time>
      </trkpt>
      <trkpt lat="45.94455" lon="4.73027">
        <ele>169</ele>
        <time>2017-06-22T09:51:28Z</time>
      </trkpt>
      <trkpt lat="45.94454" lon="4.73019">
        <ele>169</ele>
        <time>2017-06-22T09:51:29Z</time>
      </trkpt>
      <trkpt lat="45.94452" lon="4.7301">
        <ele>169</ele>
        <time>2017-06-22T09:51:30Z</time>
      </trkpt>
      <trkpt lat="45.94451" lon="4.73001">
        <ele>169</ele>
        <time>2017-06-22T09:51:31Z</time>
      </trkpt>
      <trkpt lat="45.9445" lon="4.72992">
        <ele>167</ele>
        <time>2017-06-22T09:51:32Z</time>
      </trkpt>
      <trkpt lat="45.94449" lon="4.72984">
        <ele>167</ele>
        <time>2017-06-22T09:51:33Z</time>
      </trkpt>
      <trkpt lat="45.94448" lon="4.72975">
        <ele>167</ele>
        <time>2017-06-22T09:51:34Z</time>
      </trkpt>
      <trkpt lat="45.94447" lon="4.72967">
        <ele>167</ele>
        <time>2017-06-22T09:51:35Z</time>
      </trkpt>
      <trkpt lat="45.94446" lon="4.72958">
        <ele>167</ele>
        <time>2017-06-22T09:51:36Z</time>
      </trkpt>
      <trkpt lat="45.94445" lon="4.72949">
        <ele>167</ele>
        <time>2017-06-22T09:51:37Z</time>
      </trkpt>
      <trkpt lat="45.94444" lon="4.7294">
        <ele>167</ele>
        <time>2017-06-22T09:51:38Z</time>
      </trkpt>
      <trkpt lat="45.94442" lon="4.72932">
        <ele>167</ele>
        <time>2017-06-22T09:51:39Z</time>
      </trkpt>
      <trkpt lat="45.9444" lon="4.72923">
        <ele>167</ele>
        <time>2017-06-22T09:51:40Z</time>
      </trkpt>
      <trkpt lat="45.94439" lon="4.72914">
        <ele>166</ele>
        <time>2017-06-22T09:51:41Z</time>
      </trkpt>
      <trkpt lat="45.94438" lon="4.72905">
        <ele>166</ele>
        <time>2017-06-22T09:51:42Z</time>
      </trkpt>
      <trkpt lat="45.94437" lon="4.72897">
        <ele>166</ele>
        <time>2017-06-22T09:51:43Z</time>
      </trkpt>
      <trkpt lat="45.94436" lon="4.72888">
        <ele>166</ele>
        <time>2017-06-22T09:51:44Z</time>
      </trkpt>
      <trkpt lat="45.94435" lon="4.7288">
        <ele>166</ele>
        <time>2017-06-22T09:51:45Z</time>
      </trkpt>
      <trkpt lat="45.94434" lon="4.72872">
        <ele>166</ele>
        <time>2017-06-22T09:51:46Z</time>
      </trkpt>
      <trkpt lat="45.94434" lon="4.72864">
        <ele>166</ele>
        <time>2017-06-22T09:51:47Z</time>
      </trkpt>
      <trkpt lat="45.94432" lon="4.72855">
        <ele>166</ele>
        <time>2017-06-22T09:51:48Z</time>
      </trkpt>
      <trkpt lat="45.94431" lon="4.72846">
        <ele>166</ele>
        <time>2017-06-22T09:51:49Z</time>
      </trkpt>
      <trkpt lat="45.9443" lon="4.72837">
        <ele>166</ele>
        <time>2017-06-22T09:51:50Z</time>
      </trkpt>
      <trkpt lat="45.94429" lon="4.72828">
        <ele>167</ele>
        <time>2017-06-22T09:51:51Z</time>
      </trkpt>
      <trkpt lat="45.94428" lon="4.72818">
        <ele>167</ele>
        <time>2017-06-22T09:51:52Z</time>
      </trkpt>
      <trkpt lat="45.94427" lon="4.72808">
        <ele>167</ele>
        <time>2017-06-22T09:51:53Z</time>
      </trkpt>
      <trkpt lat="45.94426" lon="4.72798">
        <ele>167</ele>
        <time>2017-06-22T09:51:54Z</time>
      </trkpt>
      <trkpt lat="45.94425" lon="4.72787">
        <ele>168</ele>
        <time>2017-06-22T09:51:55Z</time>
      </trkpt>
      <trkpt lat="45.94424" lon="4.72777">
        <ele>168</ele>
        <time>2017-06-22T09:51:56Z</time>
      </trkpt>
      <trkpt lat="45.94423" lon="4.72766">
        <ele>169</ele>
        <time>2017-06-22T09:51:57Z</time>
      </trkpt>
      <trkpt lat="45.94422" lon="4.72755">
        <ele>170</ele>
        <time>2017-06-22T09:51:58Z</time>
      </trkpt>
      <trkpt lat="45.9442" lon="4.72745">
        <ele>171</ele>
        <time>2017-06-22T09:51:59Z</time>
      </trkpt>
      <trkpt lat="45.94419" lon="4.72735">
        <ele>171</ele>
        <time>2017-06-22T09:52:00Z</time>
      </trkpt>
      <trkpt lat="45.94417" lon="4.72724">
        <ele>171</ele>
        <time>2017-06-22T09:52:01Z</time>
      </trkpt>
      <trkpt lat="45.94416" lon="4.72714">
        <ele>172</ele>
        <time>2017-06-22T09:52:02Z</time>
      </trkpt>
      <trkpt lat="45.94415" lon="4.72703">
        <ele>172</ele>
        <time>2017-06-22T09:52:03Z</time>
      </trkpt>
      <trkpt lat="45.94414" lon="4.72693">
        <ele>173</ele>
        <time>2017-06-22T09:52:04Z</time>
      </trkpt>
      <trkpt lat="45.94413" lon="4.72683">
        <ele>173</ele>
        <time>2017-06-22T09:52:05Z</time>
      </trkpt>
      <trkpt lat="45.94412" lon="4.72673">
        <ele>173</ele>
        <time>2017-06-22T09:52:06Z</time>
      </trkpt>
      <trkpt lat="45.94411" lon="4.72664">
        <ele>174</ele>
        <time>2017-06-22T09:52:07Z</time>
      </trkpt>
      <trkpt lat="45.9441" lon="4.72653">
        <ele>174</ele>
        <time>2017-06-22T09:52:08Z</time>
      </trkpt>
      <trkpt lat="45.94409" lon="4.72643">
        <ele>174</ele>
        <time>2017-06-22T09:52:09Z</time>
      </trkpt>
      <trkpt lat="45.94408" lon="4.72633">
        <ele>174</ele>
        <time>2017-06-22T09:52:10Z</time>
      </trkpt>
      <trkpt lat="45.94407" lon="4.72623">
        <ele>173</ele>
        <time>2017-06-22T09:52:11Z</time>
      </trkpt>
      <trkpt lat="45.94406" lon="4.72613">
        <ele>173</ele>
        <time>2017-06-22T09:52:12Z</time>
      </trkpt>
      <trkpt lat="45.94405" lon="4.72604">
        <ele>173</ele>
        <time>2017-06-22T09:52:13Z</time>
      </trkpt>
      <trkpt lat="45.94404" lon="4.72596">
        <ele>173</ele>
        <time>2017-06-22T09:52:14Z</time>
      </trkpt>
      <trkpt lat="45.94403" lon="4.72587">
        <ele>173</ele>
        <time>2017-06-22T09:52:15Z</time>
      </trkpt>
      <trkpt lat="45.94401" lon="4.72578">
        <ele>173</ele>
        <time>2017-06-22T09:52:16Z</time>
      </trkpt>
      <trkpt lat="45.944" lon="4.7257">
        <ele>173</ele>
        <time>2017-06-22T09:52:17Z</time>
      </trkpt>
      <trkpt lat="45.94398" lon="4.72561">
        <ele>173</ele>
        <time>2017-06-22T09:52:18Z</time>
      </trkpt>
      <trkpt lat="45.94396" lon="4.72553">
        <ele>173</ele>
        <time>2017-06-22T09:52:19Z</time>
      </trkpt>
      <trkpt lat="45.94395" lon="4.72545">
        <ele>173</ele>
        <time>2017-06-22T09:52:20Z</time>
      </trkpt>
      <trkpt lat="45.94394" lon="4.72538">
        <ele>174</ele>
        <time>2017-06-22T09:52:21Z</time>
      </trkpt>
      <trkpt lat="45.94392" lon="4.72531">
        <ele>174</ele>
        <time>2017-06-22T09:52:22Z</time>
      </trkpt>
      <trkpt lat="45.94391" lon="4.72524">
        <ele>174</ele>
        <time>2017-06-22T09:52:23Z</time>
      </trkpt>
      <trkpt lat="45.94389" lon="4.72518">
        <ele>174</ele>
        <time>2017-06-22T09:52:24Z</time>
      </trkpt>
      <trkpt lat="45.94386" lon="4.72512">
        <ele>174</ele>
        <time>2017-06-22T09:52:25Z</time>
      </trkpt>
      <trkpt lat="45.94384" lon="4.72504">
        <ele>174</ele>
        <time>2017-06-22T09:52:26Z</time>
      </trkpt>
      <trkpt lat="45.94382" lon="4.72497">
        <ele>173</ele>
        <time>2017-06-22T09:52:27Z</time>
      </trkpt>
      <trkpt lat="45.9438" lon="4.7249">
        <ele>173</ele>
        <time>2017-06-22T09:52:28Z</time>
      </trkpt>
      <trkpt lat="45.94377" lon="4.72484">
        <ele>173</ele>
        <time>2017-06-22T09:52:29Z</time>
      </trkpt>
      <trkpt lat="45.94374" lon="4.72478">
        <ele>173</ele>
        <time>2017-06-22T09:52:30Z</time>
      </trkpt>
      <trkpt lat="45.94371" lon="4.72472">
        <ele>173</ele>
        <time>2017-06-22T09:52:31Z</time>
      </trkpt>
      <trkpt lat="45.94368" lon="4.72466">
        <ele>173</ele>
        <time>2017-06-22T09:52:32Z</time>
      </trkpt>
      <trkpt lat="45.94365" lon="4.7246">
        <ele>173</ele>
        <time>2017-06-22T09:52:33Z</time>
      </trkpt>
      <trkpt lat="45.94362" lon="4.72453">
        <ele>173</ele>
        <time>2017-06-22T09:52:34Z</time>
      </trkpt>
      <trkpt lat="45.94359" lon="4.72446">
        <ele>173</ele>
        <time>2017-06-22T09:52:35Z</time>
      </trkpt>
      <trkpt lat="45.94356" lon="4.72439">
        <ele>173</ele>
        <time>2017-06-22T09:52:36Z</time>
      </trkpt>
      <trkpt lat="45.94353" lon="4.72433">
        <ele>173</ele>
        <time>2017-06-22T09:52:37Z</time>
      </trkpt>
      <trkpt lat="45.9435" lon="4.72428">
        <ele>173</ele>
        <time>2017-06-22T09:52:38Z</time>
      </trkpt>
      <trkpt lat="45.94348" lon="4.72421">
        <ele>173</ele>
        <time>2017-06-22T09:52:39Z</time>
      </trkpt>
      <trkpt lat="45.94345" lon="4.72415">
        <ele>173</ele>
        <time>2017-06-22T09:52:40Z</time>
      </trkpt>
      <trkpt lat="45.94343" lon="4.72408">
        <ele>173</ele>
        <time>2017-06-22T09:52:41Z</time>
      </trkpt>
      <trkpt lat="45.9434" lon="4.72402">
        <ele>173</ele>
        <time>2017-06-22T09:52:42Z</time>
      </trkpt>
      <trkpt lat="45.94337" lon="4.72395">
        <ele>172</ele>
        <time>2017-06-22T09:52:43Z</time>
      </trkpt>
      <trkpt lat="45.94334" lon="4.72388">
        <ele>172</ele>
        <time>2017-06-22T09:52:44Z</time>
      </trkpt>
      <trkpt lat="45.94329" lon="4.7238">
        <ele>172</ele>
        <time>2017-06-22T09:52:45Z</time>
      </trkpt>
      <trkpt lat="45.94326" lon="4.72373">
        <ele>172</ele>
        <time>2017-06-22T09:52:46Z</time>
      </trkpt>
      <trkpt lat="45.94323" lon="4.72364">
        <ele>172</ele>
        <time>2017-06-22T09:52:47Z</time>
      </trkpt>
      <trkpt lat="45.9432" lon="4.72357">
        <ele>172</ele>
        <time>2017-06-22T09:52:48Z</time>
      </trkpt>
      <trkpt lat="45.94318" lon="4.7235">
        <ele>172</ele>
        <time>2017-06-22T09:52:49Z</time>
      </trkpt>
      <trkpt lat="45.94316" lon="4.72344">
        <ele>172</ele>
        <time>2017-06-22T09:52:50Z</time>
      </trkpt>
      <trkpt lat="45.94312" lon="4.72338">
        <ele>172</ele>
        <time>2017-06-22T09:52:51Z</time>
      </trkpt>
      <trkpt lat="45.94309" lon="4.72331">
        <ele>172</ele>
        <time>2017-06-22T09:52:52Z</time>
      </trkpt>
      <trkpt lat="45.94305" lon="4.72325">
        <ele>171</ele>
        <time>2017-06-22T09:52:53Z</time>
      </trkpt>
      <trkpt lat="45.94302" lon="4.72318">
        <ele>171</ele>
        <time>2017-06-22T09:52:54Z</time>
      </trkpt>
      <trkpt lat="45.94299" lon="4.72311">
        <ele>171</ele>
        <time>2017-06-22T09:52:55Z</time>
      </trkpt>
      <trkpt lat="45.94296" lon="4.72304">
        <ele>171</ele>
        <time>2017-06-22T09:52:56Z</time>
      </trkpt>
      <trkpt lat="45.94294" lon="4.72298">
        <ele>171</ele>
        <time>2017-06-22T09:52:57Z</time>
      </trkpt>
      <trkpt lat="45.94291" lon="4.72292">
        <ele>171</ele>
        <time>2017-06-22T09:52:58Z</time>
      </trkpt>
      <trkpt lat="45.94288" lon="4.72285">
        <ele>171</ele>
        <time>2017-06-22T09:52:59Z</time>
      </trkpt>
      <trkpt lat="45.94286" lon="4.7228">
        <ele>171</ele>
        <time>2017-06-22T09:53:00Z</time>
      </trkpt>
      <trkpt lat="45.94279" lon="4.72271">
        <ele>171</ele>
        <time>2017-06-22T09:53:02Z</time>
      </trkpt>
      <trkpt lat="45.94274" lon="4.72269">
        <ele>171</ele>
        <time>2017-06-22T09:53:03Z</time>
      </trkpt>
      <trkpt lat="45.94268" lon="4.7227">
        <ele>171</ele>
        <time>2017-06-22T09:53:04Z</time>
      </trkpt>
      <trkpt lat="45.94263" lon="4.72272">
        <ele>171</ele>
        <time>2017-06-22T09:53:05Z</time>
      </trkpt>
      <trkpt lat="45.94258" lon="4.72274">
        <ele>171</ele>
        <time>2017-06-22T09:53:06Z</time>
      </trkpt>
      <trkpt lat="45.94252" lon="4.72276">
        <ele>171</ele>
        <time>2017-06-22T09:53:07Z</time>
      </trkpt>
      <trkpt lat="45.94247" lon="4.72277">
        <ele>171</ele>
        <time>2017-06-22T09:53:08Z</time>
      </trkpt>
      <trkpt lat="45.94242" lon="4.72279">
        <ele>171</ele>
        <time>2017-06-22T09:53:09Z</time>
      </trkpt>
      <trkpt lat="45.94236" lon="4.72281">
        <ele>171</ele>
        <time>2017-06-22T09:53:10Z</time>
      </trkpt>
      <trkpt lat="45.94231" lon="4.72282">
        <ele>171</ele>
        <time>2017-06-22T09:53:11Z</time>
      </trkpt>
      <trkpt lat="45.94225" lon="4.72283">
        <ele>171</ele>
        <time>2017-06-22T09:53:12Z</time>
      </trkpt>
      <trkpt lat="45.94219" lon="4.72284">
        <ele>171</ele>
        <time>2017-06-22T09:53:13Z</time>
      </trkpt>
      <trkpt lat="45.94214" lon="4.72286">
        <ele>171</ele>
        <time>2017-06-22T09:53:14Z</time>
      </trkpt>
      <trkpt lat="45.94208" lon="4.72286">
        <ele>171</ele>
        <time>2017-06-22T09:53:15Z</time>
      </trkpt>
      <trkpt lat="45.94203" lon="4.72286">
        <ele>171</ele>
        <time>2017-06-22T09:53:16Z</time>
      </trkpt>
      <trkpt lat="45.94197" lon="4.72286">
        <ele>171</ele>
        <time>2017-06-22T09:53:17Z</time>
      </trkpt>
      <trkpt lat="45.94192" lon="4.72286">
        <ele>171</ele>
        <time>2017-06-22T09:53:18Z</time>
      </trkpt>
      <trkpt lat="45.94187" lon="4.72287">
        <ele>171</ele>
        <time>2017-06-22T09:53:19Z</time>
      </trkpt>
      <trkpt lat="45.94182" lon="4.72287">
        <ele>171</ele>
        <time>2017-06-22T09:53:20Z</time>
      </trkpt>
      <trkpt lat="45.94177" lon="4.72286">
        <ele>171</ele>
        <time>2017-06-22T09:53:21Z</time>
      </trkpt>
      <trkpt lat="45.94172" lon="4.72286">
        <ele>171</ele>
        <time>2017-06-22T09:53:22Z</time>
      </trkpt>
      <trkpt lat="45.94167" lon="4.72285">
        <ele>171</ele>
        <time>2017-06-22T09:53:23Z</time>
      </trkpt>
      <trkpt lat="45.94163" lon="4.72284">
        <ele>171</ele>
        <time>2017-06-22T09:53:24Z</time>
      </trkpt>
      <trkpt lat="45.94158" lon="4.72282">
        <ele>171</ele>
        <time>2017-06-22T09:53:25Z</time>
      </trkpt>
      <trkpt lat="45.94153" lon="4.7228">
        <ele>171</ele>
        <time>2017-06-22T09:53:26Z</time>
      </trkpt>
      <trkpt lat="45.94147" lon="4.72278">
        <ele>171</ele>
        <time>2017-06-22T09:53:27Z</time>
      </trkpt>
      <trkpt lat="45.94142" lon="4.72276">
        <ele>171</ele>
        <time>2017-06-22T09:53:28Z</time>
      </trkpt>
      <trkpt lat="45.94138" lon="4.72274">
        <ele>171</ele>
        <time>2017-06-22T09:53:29Z</time>
      </trkpt>
      <trkpt lat="45.94133" lon="4.72271">
        <ele>171</ele>
        <time>2017-06-22T09:53:30Z</time>
      </trkpt>
      <trkpt lat="45.94128" lon="4.72269">
        <ele>171</ele>
        <time>2017-06-22T09:53:31Z</time>
      </trkpt>
      <trkpt lat="45.94123" lon="4.72267">
        <ele>171</ele>
        <time>2017-06-22T09:53:32Z</time>
      </trkpt>
      <trkpt lat="45.94118" lon="4.72264">
        <ele>171</ele>
        <time>2017-06-22T09:53:33Z</time>
      </trkpt>
      <trkpt lat="45.94113" lon="4.72263">
        <ele>171</ele>
        <time>2017-06-22T09:53:34Z</time>
      </trkpt>
      <trkpt lat="45.94108" lon="4.72262">
        <ele>171</ele>
        <time>2017-06-22T09:53:35Z</time>
      </trkpt>
      <trkpt lat="45.94103" lon="4.72262">
        <ele>171</ele>
        <time>2017-06-22T09:53:36Z</time>
      </trkpt>
      <trkpt lat="45.94098" lon="4.72262">
        <ele>171</ele>
        <time>2017-06-22T09:53:37Z</time>
      </trkpt>
      <trkpt lat="45.94093" lon="4.72262">
        <ele>171</ele>
        <time>2017-06-22T09:53:38Z</time>
      </trkpt>
      <trkpt lat="45.94089" lon="4.72263">
        <ele>171</ele>
        <time>2017-06-22T09:53:39Z</time>
      </trkpt>
      <trkpt lat="45.94084" lon="4.72264">
        <ele>171</ele>
        <time>2017-06-22T09:53:40Z</time>
      </trkpt>
      <trkpt lat="45.9408" lon="4.72267">
        <ele>171</ele>
        <time>2017-06-22T09:53:41Z</time>
      </trkpt>
      <trkpt lat="45.94075" lon="4.7227">
        <ele>171</ele>
        <time>2017-06-22T09:53:42Z</time>
      </trkpt>
      <trkpt lat="45.9407" lon="4.72274">
        <ele>171</ele>
        <time>2017-06-22T09:53:43Z</time>
      </trkpt>
      <trkpt lat="45.94065" lon="4.72279">
        <ele>171</ele>
        <time>2017-06-22T09:53:44Z</time>
      </trkpt>
      <trkpt lat="45.94061" lon="4.72284">
        <ele>171</ele>
        <time>2017-06-22T09:53:45Z</time>
      </trkpt>
      <trkpt lat="45.94056" lon="4.7229">
        <ele>171</ele>
        <time>2017-06-22T09:53:46Z</time>
      </trkpt>
      <trkpt lat="45.94051" lon="4.72295">
        <ele>171</ele>
        <time>2017-06-22T09:53:47Z</time>
      </trkpt>
      <trkpt lat="45.94046" lon="4.72301">
        <ele>171</ele>
        <time>2017-06-22T09:53:48Z</time>
      </trkpt>
      <trkpt lat="45.94041" lon="4.72306">
        <ele>171</ele>
        <time>2017-06-22T09:53:49Z</time>
      </trkpt>
      <trkpt lat="45.94038" lon="4.72311">
        <ele>171</ele>
        <time>2017-06-22T09:53:50Z</time>
      </trkpt>
      <trkpt lat="45.94034" lon="4.72316">
        <ele>171</ele>
        <time>2017-06-22T09:53:51Z</time>
      </trkpt>
      <trkpt lat="45.9403" lon="4.72322">
        <ele>171</ele>
        <time>2017-06-22T09:53:52Z</time>
      </trkpt>
      <trkpt lat="45.94025" lon="4.72327">
        <ele>171</ele>
        <time>2017-06-22T09:53:53Z</time>
      </trkpt>
      <trkpt lat="45.94021" lon="4.72333">
        <ele>171</ele>
        <time>2017-06-22T09:53:54Z</time>
      </trkpt>
      <trkpt lat="45.94016" lon="4.72338">
        <ele>171</ele>
        <time>2017-06-22T09:53:55Z</time>
      </trkpt>
      <trkpt lat="45.94012" lon="4.72343">
        <ele>171</ele>
        <time>2017-06-22T09:53:56Z</time>
      </trkpt>
      <trkpt lat="45.94008" lon="4.72348">
        <ele>171</ele>
        <time>2017-06-22T09:53:57Z</time>
      </trkpt>
      <trkpt lat="45.94004" lon="4.72352">
        <ele>171</ele>
        <time>2017-06-22T09:53:58Z</time>
      </trkpt>
      <trkpt lat="45.93999" lon="4.72357">
        <ele>171</ele>
        <time>2017-06-22T09:53:59Z</time>
      </trkpt>
      <trkpt lat="45.93996" lon="4.72362">
        <ele>171</ele>
        <time>2017-06-22T09:54:00Z</time>
      </trkpt>
      <trkpt lat="45.93992" lon="4.72367">
        <ele>171</ele>
        <time>2017-06-22T09:54:01Z</time>
      </trkpt>
      <trkpt lat="45.93988" lon="4.72373">
        <ele>171</ele>
        <time>2017-06-22T09:54:02Z</time>
      </trkpt>
      <trkpt lat="45.93984" lon="4.72378">
        <ele>171</ele>
        <time>2017-06-22T09:54:03Z</time>
      </trkpt>
      <trkpt lat="45.9398" lon="4.72383">
        <ele>171</ele>
        <time>2017-06-22T09:54:04Z</time>
      </trkpt>
      <trkpt lat="45.93975" lon="4.72389">
        <ele>171</ele>
        <time>2017-06-22T09:54:05Z</time>
      </trkpt>
      <trkpt lat="45.93971" lon="4.72396">
        <ele>171</ele>
        <time>2017-06-22T09:54:06Z</time>
      </trkpt>
      <trkpt lat="45.93967" lon="4.72401">
        <ele>171</ele>
        <time>2017-06-22T09:54:07Z</time>
      </trkpt>
      <trkpt lat="45.93962" lon="4.72406">
        <ele>171</ele>
        <time>2017-06-22T09:54:08Z</time>
      </trkpt>
      <trkpt lat="45.93958" lon="4.7241">
        <ele>171</ele>
        <time>2017-06-22T09:54:09Z</time>
      </trkpt>
      <trkpt lat="45.93954" lon="4.72415">
        <ele>171</ele>
        <time>2017-06-22T09:54:10Z</time>
      </trkpt>
      <trkpt lat="45.9395" lon="4.7242">
        <ele>171</ele>
        <time>2017-06-22T09:54:11Z</time>
      </trkpt>
      <trkpt lat="45.93946" lon="4.72424">
        <ele>171</ele>
        <time>2017-06-22T09:54:12Z</time>
      </trkpt>
      <trkpt lat="45.93942" lon="4.72429">
        <ele>171</ele>
        <time>2017-06-22T09:54:13Z</time>
      </trkpt>
      <trkpt lat="45.93938" lon="4.72434">
        <ele>171</ele>
        <time>2017-06-22T09:54:14Z</time>
      </trkpt>
      <trkpt lat="45.93933" lon="4.72439">
        <ele>171</ele>
        <time>2017-06-22T09:54:15Z</time>
      </trkpt>
      <trkpt lat="45.93929" lon="4.72445">
        <ele>171</ele>
        <time>2017-06-22T09:54:16Z</time>
      </trkpt>
      <trkpt lat="45.93924" lon="4.7245">
        <ele>171</ele>
        <time>2017-06-22T09:54:17Z</time>
      </trkpt>
      <trkpt lat="45.93921" lon="4.72457">
        <ele>171</ele>
        <time>2017-06-22T09:54:18Z</time>
      </trkpt>
      <trkpt lat="45.93917" lon="4.72463">
        <ele>172</ele>
        <time>2017-06-22T09:54:19Z</time>
      </trkpt>
      <trkpt lat="45.93913" lon="4.72469">
        <ele>172</ele>
        <time>2017-06-22T09:54:20Z</time>
      </trkpt>
      <trkpt lat="45.93909" lon="4.72474">
        <ele>172</ele>
        <time>2017-06-22T09:54:21Z</time>
      </trkpt>
      <trkpt lat="45.93906" lon="4.72479">
        <ele>172</ele>
        <time>2017-06-22T09:54:22Z</time>
      </trkpt>
      <trkpt lat="45.93902" lon="4.72484">
        <ele>172</ele>
        <time>2017-06-22T09:54:23Z</time>
      </trkpt>
      <trkpt lat="45.93898" lon="4.72488">
        <ele>172</ele>
        <time>2017-06-22T09:54:24Z</time>
      </trkpt>
      <trkpt lat="45.93895" lon="4.72492">
        <ele>172</ele>
        <time>2017-06-22T09:54:25Z</time>
      </trkpt>
      <trkpt lat="45.93891" lon="4.72497">
        <ele>172</ele>
        <time>2017-06-22T09:54:26Z</time>
      </trkpt>
      <trkpt lat="45.93887" lon="4.725">
        <ele>173</ele>
        <time>2017-06-22T09:54:27Z</time>
      </trkpt>
      <trkpt lat="45.93883" lon="4.72504">
        <ele>173</ele>
        <time>2017-06-22T09:54:28Z</time>
      </trkpt>
      <trkpt lat="45.9388" lon="4.72508">
        <ele>173</ele>
        <time>2017-06-22T09:54:29Z</time>
      </trkpt>
      <trkpt lat="45.93876" lon="4.72511">
        <ele>173</ele>
        <time>2017-06-22T09:54:30Z</time>
      </trkpt>
      <trkpt lat="45.93871" lon="4.72513">
        <ele>173</ele>
        <time>2017-06-22T09:54:31Z</time>
      </trkpt>
      <trkpt lat="45.93862" lon="4.72512">
        <ele>173</ele>
        <time>2017-06-22T09:54:33Z</time>
      </trkpt>
      <trkpt lat="45.93858" lon="4.7251">
        <ele>173</ele>
        <time>2017-06-22T09:54:34Z</time>
      </trkpt>
      <trkpt lat="45.93854" lon="4.72507">
        <ele>173</ele>
        <time>2017-06-22T09:54:35Z</time>
      </trkpt>
      <trkpt lat="45.9385" lon="4.72503">
        <ele>174</ele>
        <time>2017-06-22T09:54:36Z</time>
      </trkpt>
      <trkpt lat="45.93842" lon="4.72497">
        <ele>173</ele>
        <time>2017-06-22T09:54:38Z</time>
      </trkpt>
      <trkpt lat="45.93838" lon="4.72494">
        <ele>174</ele>
        <time>2017-06-22T09:54:39Z</time>
      </trkpt>
      <trkpt lat="45.93834" lon="4.72491">
        <ele>173</ele>
        <time>2017-06-22T09:54:40Z</time>
      </trkpt>
      <trkpt lat="45.9383" lon="4.72488">
        <ele>173</ele>
        <time>2017-06-22T09:54:41Z</time>
      </trkpt>
      <trkpt lat="45.9383" lon="4.7248">
        <ele>173</ele>
        <time>2017-06-22T09:54:42Z</time>
      </trkpt>
      <trkpt lat="45.93826" lon="4.72474">
        <ele>173</ele>
        <time>2017-06-22T09:54:43Z</time>
      </trkpt>
      <trkpt lat="45.93823" lon="4.7247">
        <ele>172</ele>
        <time>2017-06-22T09:54:44Z</time>
      </trkpt>
      <trkpt lat="45.93819" lon="4.72466">
        <ele>172</ele>
        <time>2017-06-22T09:54:45Z</time>
      </trkpt>
      <trkpt lat="45.93814" lon="4.72464">
        <ele>172</ele>
        <time>2017-06-22T09:54:46Z</time>
      </trkpt>
      <trkpt lat="45.93811" lon="4.72461">
        <ele>172</ele>
        <time>2017-06-22T09:54:47Z</time>
      </trkpt>
      <trkpt lat="45.93807" lon="4.72451">
        <ele>172</ele>
        <time>2017-06-22T09:54:49Z</time>
      </trkpt>
      <trkpt lat="45.93803" lon="4.72448">
        <ele>172</ele>
        <time>2017-06-22T09:54:50Z</time>
      </trkpt>
      <trkpt lat="45.938" lon="4.72443">
        <ele>172</ele>
        <time>2017-06-22T09:54:51Z</time>
      </trkpt>
      <trkpt lat="45.93796" lon="4.72439">
        <ele>172</ele>
        <time>2017-06-22T09:54:52Z</time>
      </trkpt>
      <trkpt lat="45.93792" lon="4.72436">
        <ele>172</ele>
        <time>2017-06-22T09:54:53Z</time>
      </trkpt>
      <trkpt lat="45.93787" lon="4.72433">
        <ele>172</ele>
        <time>2017-06-22T09:54:54Z</time>
      </trkpt>
      <trkpt lat="45.93782" lon="4.72428">
        <ele>172</ele>
        <time>2017-06-22T09:54:55Z</time>
      </trkpt>
      <trkpt lat="45.93777" lon="4.72425">
        <ele>171</ele>
        <time>2017-06-22T09:54:56Z</time>
      </trkpt>
      <trkpt lat="45.93773" lon="4.72421">
        <ele>171</ele>
        <time>2017-06-22T09:54:57Z</time>
      </trkpt>
      <trkpt lat="45.93769" lon="4.72418">
        <ele>171</ele>
        <time>2017-06-22T09:54:58Z</time>
      </trkpt>
      <trkpt lat="45.93764" lon="4.72414">
        <ele>171</ele>
        <time>2017-06-22T09:54:59Z</time>
      </trkpt>
      <trkpt lat="45.93761" lon="4.7241">
        <ele>171</ele>
        <time>2017-06-22T09:55:00Z</time>
      </trkpt>
      <trkpt lat="45.93757" lon="4.72405">
        <ele>171</ele>
        <time>2017-06-22T09:55:01Z</time>
      </trkpt>
      <trkpt lat="45.93753" lon="4.72401">
        <ele>171</ele>
        <time>2017-06-22T09:55:02Z</time>
      </trkpt>
      <trkpt lat="45.93749" lon="4.72396">
        <ele>171</ele>
        <time>2017-06-22T09:55:03Z</time>
      </trkpt>
      <trkpt lat="45.93744" lon="4.72392">
        <ele>171</ele>
        <time>2017-06-22T09:55:04Z</time>
      </trkpt>
      <trkpt lat="45.93741" lon="4.72389">
        <ele>171</ele>
        <time>2017-06-22T09:55:05Z</time>
      </trkpt>
      <trkpt lat="45.93736" lon="4.72385">
        <ele>171</ele>
        <time>2017-06-22T09:55:06Z</time>
      </trkpt>
      <trkpt lat="45.93733" lon="4.72381">
        <ele>171</ele>
        <time>2017-06-22T09:55:07Z</time>
      </trkpt>
      <trkpt lat="45.93728" lon="4.72378">
        <ele>171</ele>
        <time>2017-06-22T09:55:08Z</time>
      </trkpt>
      <trkpt lat="45.93724" lon="4.72374">
        <ele>172</ele>
        <time>2017-06-22T09:55:09Z</time>
      </trkpt>
      <trkpt lat="45.9372" lon="4.72369">
        <ele>172</ele>
        <time>2017-06-22T09:55:10Z</time>
      </trkpt>
      <trkpt lat="45.93716" lon="4.72365">
        <ele>172</ele>
        <time>2017-06-22T09:55:11Z</time>
      </trkpt>
      <trkpt lat="45.93711" lon="4.72362">
        <ele>172</ele>
        <time>2017-06-22T09:55:12Z</time>
      </trkpt>
      <trkpt lat="45.93707" lon="4.72359">
        <ele>171</ele>
        <time>2017-06-22T09:55:13Z</time>
      </trkpt>
      <trkpt lat="45.93703" lon="4.72356">
        <ele>171</ele>
        <time>2017-06-22T09:55:14Z</time>
      </trkpt>
      <trkpt lat="45.93695" lon="4.7235">
        <ele>171</ele>
        <time>2017-06-22T09:55:16Z</time>
      </trkpt>
      <trkpt lat="45.93691" lon="4.72347">
        <ele>171</ele>
        <time>2017-06-22T09:55:17Z</time>
      </trkpt>
      <trkpt lat="45.93685" lon="4.72338">
        <ele>171</ele>
        <time>2017-06-22T09:55:19Z</time>
      </trkpt>
      <trkpt lat="45.93681" lon="4.72334">
        <ele>171</ele>
        <time>2017-06-22T09:55:20Z</time>
      </trkpt>
      <trkpt lat="45.93677" lon="4.72331">
        <ele>171</ele>
        <time>2017-06-22T09:55:21Z</time>
      </trkpt>
      <trkpt lat="45.93672" lon="4.72327">
        <ele>171</ele>
        <time>2017-06-22T09:55:22Z</time>
      </trkpt>
      <trkpt lat="45.93667" lon="4.72323">
        <ele>171</ele>
        <time>2017-06-22T09:55:23Z</time>
      </trkpt>
      <trkpt lat="45.93663" lon="4.72318">
        <ele>172</ele>
        <time>2017-06-22T09:55:24Z</time>
      </trkpt>
      <trkpt lat="45.93659" lon="4.72314">
        <ele>172</ele>
        <time>2017-06-22T09:55:25Z</time>
      </trkpt>
      <trkpt lat="45.93655" lon="4.7231">
        <ele>172</ele>
        <time>2017-06-22T09:55:26Z</time>
      </trkpt>
      <trkpt lat="45.93651" lon="4.72305">
        <ele>172</ele>
        <time>2017-06-22T09:55:27Z</time>
      </trkpt>
      <trkpt lat="45.93647" lon="4.723">
        <ele>172</ele>
        <time>2017-06-22T09:55:28Z</time>
      </trkpt>
      <trkpt lat="45.93642" lon="4.72295">
        <ele>172</ele>
        <time>2017-06-22T09:55:29Z</time>
      </trkpt>
      <trkpt lat="45.93638" lon="4.72291">
        <ele>172</ele>
        <time>2017-06-22T09:55:30Z</time>
      </trkpt>
      <trkpt lat="45.93633" lon="4.72288">
        <ele>172</ele>
        <time>2017-06-22T09:55:31Z</time>
      </trkpt>
      <trkpt lat="45.93629" lon="4.72284">
        <ele>172</ele>
        <time>2017-06-22T09:55:32Z</time>
      </trkpt>
      <trkpt lat="45.93622" lon="4.72277">
        <ele>172</ele>
        <time>2017-06-22T09:55:34Z</time>
      </trkpt>
      <trkpt lat="45.93619" lon="4.72275">
        <ele>172</ele>
        <time>2017-06-22T09:55:35Z</time>
      </trkpt>
      <trkpt lat="45.93612" lon="4.72267">
        <ele>172</ele>
        <time>2017-06-22T09:55:37Z</time>
      </trkpt>
      <trkpt lat="45.93608" lon="4.72264">
        <ele>172</ele>
        <time>2017-06-22T09:55:38Z</time>
      </trkpt>
      <trkpt lat="45.93601" lon="4.7226">
        <ele>173</ele>
        <time>2017-06-22T09:55:40Z</time>
      </trkpt>
      <trkpt lat="45.93597" lon="4.72257">
        <ele>173</ele>
        <time>2017-06-22T09:55:41Z</time>
      </trkpt>
      <trkpt lat="45.9359" lon="4.72252">
        <ele>173</ele>
        <time>2017-06-22T09:55:43Z</time>
      </trkpt>
      <trkpt lat="45.93586" lon="4.72249">
        <ele>173</ele>
        <time>2017-06-22T09:55:44Z</time>
      </trkpt>
      <trkpt lat="45.93581" lon="4.72241">
        <ele>173</ele>
        <time>2017-06-22T09:55:46Z</time>
      </trkpt>
      <trkpt lat="45.9358" lon="4.72237">
        <ele>173</ele>
        <time>2017-06-22T09:55:47Z</time>
      </trkpt>
      <trkpt lat="45.93575" lon="4.72231">
        <ele>173</ele>
        <time>2017-06-22T09:55:49Z</time>
      </trkpt>
      <trkpt lat="45.93572" lon="4.72228">
        <ele>173</ele>
        <time>2017-06-22T09:55:50Z</time>
      </trkpt>
      <trkpt lat="45.93566" lon="4.72221">
        <ele>173</ele>
        <time>2017-06-22T09:55:52Z</time>
      </trkpt>
      <trkpt lat="45.93562" lon="4.72218">
        <ele>173</ele>
        <time>2017-06-22T09:55:53Z</time>
      </trkpt>
      <trkpt lat="45.93553" lon="4.72218">
        <ele>173</ele>
        <time>2017-06-22T09:55:55Z</time>
      </trkpt>
      <trkpt lat="45.9355" lon="4.72222">
        <ele>172</ele>
        <time>2017-06-22T09:55:56Z</time>
      </trkpt>
      <trkpt lat="45.93544" lon="4.72232">
        <ele>172</ele>
        <time>2017-06-22T09:55:58Z</time>
      </trkpt>
      <trkpt lat="45.93542" lon="4.72237">
        <ele>172</ele>
        <time>2017-06-22T09:55:59Z</time>
      </trkpt>
      <trkpt lat="45.93539" lon="4.72243">
        <ele>172</ele>
        <time>2017-06-22T09:56:00Z</time>
      </trkpt>
      <trkpt lat="45.93536" lon="4.7225">
        <ele>172</ele>
        <time>2017-06-22T09:56:01Z</time>
      </trkpt>
      <trkpt lat="45.93533" lon="4.72257">
        <ele>172</ele>
        <time>2017-06-22T09:56:02Z</time>
      </trkpt>
      <trkpt lat="45.93531" lon="4.72264">
        <ele>172</ele>
        <time>2017-06-22T09:56:03Z</time>
      </trkpt>
      <trkpt lat="45.93528" lon="4.72271">
        <ele>172</ele>
        <time>2017-06-22T09:56:04Z</time>
      </trkpt>
      <trkpt lat="45.93525" lon="4.72278">
        <ele>172</ele>
        <time>2017-06-22T09:56:05Z</time>
      </trkpt>
      <trkpt lat="45.93522" lon="4.72284">
        <ele>172</ele>
        <time>2017-06-22T09:56:06Z</time>
      </trkpt>
      <trkpt lat="45.93519" lon="4.7229">
        <ele>172</ele>
        <time>2017-06-22T09:56:07Z</time>
      </trkpt>
      <trkpt lat="45.93515" lon="4.72297">
        <ele>172</ele>
        <time>2017-06-22T09:56:08Z</time>
      </trkpt>
      <trkpt lat="45.93512" lon="4.72303">
        <ele>172</ele>
        <time>2017-06-22T09:56:09Z</time>
      </trkpt>
      <trkpt lat="45.93507" lon="4.72309">
        <ele>173</ele>
        <time>2017-06-22T09:56:10Z</time>
      </trkpt>
      <trkpt lat="45.93503" lon="4.72315">
        <ele>173</ele>
        <time>2017-06-22T09:56:11Z</time>
      </trkpt>
      <trkpt lat="45.93499" lon="4.72321">
        <ele>173</ele>
        <time>2017-06-22T09:56:12Z</time>
      </trkpt>
      <trkpt lat="45.93494" lon="4.72327">
        <ele>173</ele>
        <time>2017-06-22T09:56:13Z</time>
      </trkpt>
      <trkpt lat="45.9349" lon="4.72333">
        <ele>173</ele>
        <time>2017-06-22T09:56:14Z</time>
      </trkpt>
      <trkpt lat="45.93486" lon="4.72339">
        <ele>173</ele>
        <time>2017-06-22T09:56:15Z</time>
      </trkpt>
      <trkpt lat="45.93482" lon="4.72345">
        <ele>173</ele>
        <time>2017-06-22T09:56:16Z</time>
      </trkpt>
      <trkpt lat="45.93477" lon="4.7235">
        <ele>173</ele>
        <time>2017-06-22T09:56:17Z</time>
      </trkpt>
      <trkpt lat="45.93473" lon="4.72355">
        <ele>173</ele>
        <time>2017-06-22T09:56:18Z</time>
      </trkpt>
      <trkpt lat="45.93469" lon="4.72361">
        <ele>173</ele>
        <time>2017-06-22T09:56:19Z</time>
      </trkpt>
      <trkpt lat="45.93465" lon="4.72366">
        <ele>173</ele>
        <time>2017-06-22T09:56:20Z</time>
      </trkpt>
      <trkpt lat="45.93461" lon="4.72371">
        <ele>173</ele>
        <time>2017-06-22T09:56:21Z</time>
      </trkpt>
      <trkpt lat="45.93455" lon="4.72376">
        <ele>173</ele>
        <time>2017-06-22T09:56:22Z</time>
      </trkpt>
      <trkpt lat="45.93451" lon="4.7238">
        <ele>173</ele>
        <time>2017-06-22T09:56:23Z</time>
      </trkpt>
      <trkpt lat="45.93446" lon="4.72385">
        <ele>173</ele>
        <time>2017-06-22T09:56:24Z</time>
      </trkpt>
      <trkpt lat="45.93442" lon="4.72388">
        <ele>173</ele>
        <time>2017-06-22T09:56:25Z</time>
      </trkpt>
      <trkpt lat="45.93437" lon="4.72392">
        <ele>173</ele>
        <time>2017-06-22T09:56:26Z</time>
      </trkpt>
      <trkpt lat="45.93433" lon="4.72395">
        <ele>173</ele>
        <time>2017-06-22T09:56:27Z</time>
      </trkpt>
      <trkpt lat="45.93428" lon="4.72398">
        <ele>174</ele>
        <time>2017-06-22T09:56:28Z</time>
      </trkpt>
      <trkpt lat="45.93423" lon="4.72401">
        <ele>174</ele>
        <time>2017-06-22T09:56:29Z</time>
      </trkpt>
      <trkpt lat="45.93418" lon="4.72403">
        <ele>174</ele>
        <time>2017-06-22T09:56:30Z</time>
      </trkpt>
      <trkpt lat="45.93414" lon="4.72405">
        <ele>174</ele>
        <time>2017-06-22T09:56:31Z</time>
      </trkpt>
      <trkpt lat="45.93409" lon="4.72406">
        <ele>174</ele>
        <time>2017-06-22T09:56:32Z</time>
      </trkpt>
      <trkpt lat="45.93403" lon="4.72406">
        <ele>174</ele>
        <time>2017-06-22T09:56:33Z</time>
      </trkpt>
      <trkpt lat="45.93398" lon="4.72406">
        <ele>174</ele>
        <time>2017-06-22T09:56:34Z</time>
      </trkpt>
      <trkpt lat="45.93393" lon="4.72406">
        <ele>174</ele>
        <time>2017-06-22T09:56:35Z</time>
      </trkpt>
      <trkpt lat="45.93388" lon="4.72406">
        <ele>174</ele>
        <time>2017-06-22T09:56:36Z</time>
      </trkpt>
      <trkpt lat="45.93384" lon="4.7241">
        <ele>174</ele>
        <time>2017-06-22T09:56:37Z</time>
      </trkpt>
      <trkpt lat="45.93383" lon="4.72417">
        <ele>174</ele>
        <time>2017-06-22T09:56:38Z</time>
      </trkpt>
      <trkpt lat="45.93383" lon="4.72424">
        <ele>173</ele>
        <time>2017-06-22T09:56:39Z</time>
      </trkpt>
      <trkpt lat="45.93386" lon="4.72431">
        <ele>173</ele>
        <time>2017-06-22T09:56:40Z</time>
      </trkpt>
      <trkpt lat="45.93388" lon="4.72438">
        <ele>173</ele>
        <time>2017-06-22T09:56:41Z</time>
      </trkpt>
      <trkpt lat="45.9339" lon="4.72445">
        <ele>173</ele>
        <time>2017-06-22T09:56:42Z</time>
      </trkpt>
      <trkpt lat="45.93391" lon="4.72453">
        <ele>173</ele>
        <time>2017-06-22T09:56:43Z</time>
      </trkpt>
      <trkpt lat="45.9339" lon="4.7246">
        <ele>173</ele>
        <time>2017-06-22T09:56:44Z</time>
      </trkpt>
      <trkpt lat="45.93388" lon="4.72466">
        <ele>173</ele>
        <time>2017-06-22T09:56:45Z</time>
      </trkpt>
      <trkpt lat="45.93384" lon="4.72471">
        <ele>173</ele>
        <time>2017-06-22T09:56:46Z</time>
      </trkpt>
      <trkpt lat="45.9338" lon="4.72476">
        <ele>173</ele>
        <time>2017-06-22T09:56:47Z</time>
      </trkpt>
      <trkpt lat="45.93376" lon="4.72481">
        <ele>173</ele>
        <time>2017-06-22T09:56:48Z</time>
      </trkpt>
      <trkpt lat="45.93371" lon="4.72485">
        <ele>173</ele>
        <time>2017-06-22T09:56:49Z</time>
      </trkpt>
      <trkpt lat="45.93367" lon="4.7249">
        <ele>173</ele>
        <time>2017-06-22T09:56:50Z</time>
      </trkpt>
      <trkpt lat="45.93363" lon="4.72494">
        <ele>173</ele>
        <time>2017-06-22T09:56:51Z</time>
      </trkpt>
      <trkpt lat="45.93359" lon="4.72499">
        <ele>173</ele>
        <time>2017-06-22T09:56:52Z</time>
      </trkpt>
      <trkpt lat="45.93355" lon="4.72503">
        <ele>172</ele>
        <time>2017-06-22T09:56:53Z</time>
      </trkpt>
      <trkpt lat="45.93351" lon="4.72508">
        <ele>172</ele>
        <time>2017-06-22T09:56:54Z</time>
      </trkpt>
      <trkpt lat="45.93347" lon="4.72512">
        <ele>172</ele>
        <time>2017-06-22T09:56:55Z</time>
      </trkpt>
      <trkpt lat="45.93342" lon="4.72517">
        <ele>172</ele>
        <time>2017-06-22T09:56:56Z</time>
      </trkpt>
      <trkpt lat="45.93338" lon="4.72522">
        <ele>172</ele>
        <time>2017-06-22T09:56:57Z</time>
      </trkpt>
      <trkpt lat="45.93334" lon="4.72528">
        <ele>172</ele>
        <time>2017-06-22T09:56:58Z</time>
      </trkpt>
      <trkpt lat="45.9333" lon="4.72532">
        <ele>172</ele>
        <time>2017-06-22T09:56:59Z</time>
      </trkpt>
      <trkpt lat="45.93325" lon="4.72537">
        <ele>172</ele>
        <time>2017-06-22T09:57:00Z</time>
      </trkpt>
      <trkpt lat="45.93322" lon="4.72541">
        <ele>172</ele>
        <time>2017-06-22T09:57:01Z</time>
      </trkpt>
      <trkpt lat="45.93317" lon="4.72545">
        <ele>172</ele>
        <time>2017-06-22T09:57:02Z</time>
      </trkpt>
      <trkpt lat="45.93314" lon="4.7255">
        <ele>172</ele>
        <time>2017-06-22T09:57:03Z</time>
      </trkpt>
      <trkpt lat="45.9331" lon="4.72553">
        <ele>172</ele>
        <time>2017-06-22T09:57:04Z</time>
      </trkpt>
      <trkpt lat="45.93307" lon="4.72558">
        <ele>172</ele>
        <time>2017-06-22T09:57:05Z</time>
      </trkpt>
      <trkpt lat="45.93303" lon="4.72563">
        <ele>172</ele>
        <time>2017-06-22T09:57:06Z</time>
      </trkpt>
      <trkpt lat="45.93299" lon="4.72567">
        <ele>172</ele>
        <time>2017-06-22T09:57:07Z</time>
      </trkpt>
      <trkpt lat="45.93295" lon="4.72572">
        <ele>171</ele>
        <time>2017-06-22T09:57:08Z</time>
      </trkpt>
      <trkpt lat="45.93291" lon="4.72577">
        <ele>171</ele>
        <time>2017-06-22T09:57:09Z</time>
      </trkpt>
      <trkpt lat="45.93287" lon="4.72581">
        <ele>171</ele>
        <time>2017-06-22T09:57:10Z</time>
      </trkpt>
      <trkpt lat="45.93283" lon="4.72585">
        <ele>170</ele>
        <time>2017-06-22T09:57:11Z</time>
      </trkpt>
      <trkpt lat="45.9328" lon="4.72589">
        <ele>170</ele>
        <time>2017-06-22T09:57:12Z</time>
      </trkpt>
      <trkpt lat="45.93276" lon="4.72593">
        <ele>170</ele>
        <time>2017-06-22T09:57:13Z</time>
      </trkpt>
      <trkpt lat="45.93273" lon="4.72598">
        <ele>170</ele>
        <time>2017-06-22T09:57:14Z</time>
      </trkpt>
      <trkpt lat="45.93269" lon="4.72602">
        <ele>170</ele>
        <time>2017-06-22T09:57:15Z</time>
      </trkpt>
      <trkpt lat="45.93265" lon="4.72606">
        <ele>170</ele>
        <time>2017-06-22T09:57:16Z</time>
      </trkpt>
      <trkpt lat="45.93262" lon="4.7261">
        <ele>170</ele>
        <time>2017-06-22T09:57:17Z</time>
      </trkpt>
      <trkpt lat="45.93258" lon="4.72615">
        <ele>170</ele>
        <time>2017-06-22T09:57:18Z</time>
      </trkpt>
      <trkpt lat="45.93254" lon="4.72619">
        <ele>170</ele>
        <time>2017-06-22T09:57:19Z</time>
      </trkpt>
      <trkpt lat="45.9325" lon="4.72624">
        <ele>170</ele>
        <time>2017-06-22T09:57:20Z</time>
      </trkpt>
      <trkpt lat="45.93246" lon="4.72629">
        <ele>170</ele>
        <time>2017-06-22T09:57:21Z</time>
      </trkpt>
      <trkpt lat="45.93241" lon="4.72634">
        <ele>170</ele>
        <time>2017-06-22T09:57:22Z</time>
      </trkpt>
      <trkpt lat="45.93237" lon="4.72639">
        <ele>170</ele>
        <time>2017-06-22T09:57:23Z</time>
      </trkpt>
      <trkpt lat="45.93233" lon="4.72645">
        <ele>170</ele>
        <time>2017-06-22T09:57:24Z</time>
      </trkpt>
      <trkpt lat="45.93228" lon="4.7265">
        <ele>170</ele>
        <time>2017-06-22T09:57:25Z</time>
      </trkpt>
      <trkpt lat="45.93224" lon="4.72655">
        <ele>170</ele>
        <time>2017-06-22T09:57:26Z</time>
      </trkpt>
      <trkpt lat="45.9322" lon="4.72659">
        <ele>170</ele>
        <time>2017-06-22T09:57:27Z</time>
      </trkpt>
      <trkpt lat="45.93216" lon="4.72663">
        <ele>170</ele>
        <time>2017-06-22T09:57:28Z</time>
      </trkpt>
      <trkpt lat="45.93212" lon="4.72668">
        <ele>169</ele>
        <time>2017-06-22T09:57:29Z</time>
      </trkpt>
      <trkpt lat="45.93208" lon="4.72672">
        <ele>169</ele>
        <time>2017-06-22T09:57:30Z</time>
      </trkpt>
      <trkpt lat="45.93205" lon="4.72676">
        <ele>169</ele>
        <time>2017-06-22T09:57:31Z</time>
      </trkpt>
      <trkpt lat="45.93201" lon="4.7268">
        <ele>169</ele>
        <time>2017-06-22T09:57:32Z</time>
      </trkpt>
      <trkpt lat="45.93197" lon="4.72684">
        <ele>169</ele>
        <time>2017-06-22T09:57:33Z</time>
      </trkpt>
      <trkpt lat="45.93193" lon="4.72688">
        <ele>169</ele>
        <time>2017-06-22T09:57:34Z</time>
      </trkpt>
      <trkpt lat="45.93189" lon="4.72693">
        <ele>169</ele>
        <time>2017-06-22T09:57:35Z</time>
      </trkpt>
      <trkpt lat="45.93186" lon="4.72697">
        <ele>169</ele>
        <time>2017-06-22T09:57:36Z</time>
      </trkpt>
      <trkpt lat="45.93182" lon="4.72702">
        <ele>169</ele>
        <time>2017-06-22T09:57:37Z</time>
      </trkpt>
      <trkpt lat="45.93179" lon="4.72706">
        <ele>169</ele>
        <time>2017-06-22T09:57:38Z</time>
      </trkpt>
      <trkpt lat="45.93175" lon="4.72711">
        <ele>170</ele>
        <time>2017-06-22T09:57:39Z</time>
      </trkpt>
      <trkpt lat="45.93171" lon="4.72716">
        <ele>170</ele>
        <time>2017-06-22T09:57:40Z</time>
      </trkpt>
      <trkpt lat="45.93167" lon="4.7272">
        <ele>170</ele>
        <time>2017-06-22T09:57:41Z</time>
      </trkpt>
      <trkpt lat="45.93162" lon="4.72725">
        <ele>170</ele>
        <time>2017-06-22T09:57:42Z</time>
      </trkpt>
      <trkpt lat="45.93158" lon="4.7273">
        <ele>170</ele>
        <time>2017-06-22T09:57:43Z</time>
      </trkpt>
      <trkpt lat="45.93153" lon="4.72735">
        <ele>170</ele>
        <time>2017-06-22T09:57:44Z</time>
      </trkpt>
      <trkpt lat="45.93148" lon="4.7274">
        <ele>170</ele>
        <time>2017-06-22T09:57:45Z</time>
      </trkpt>
      <trkpt lat="45.93144" lon="4.72745">
        <ele>170</ele>
        <time>2017-06-22T09:57:46Z</time>
      </trkpt>
      <trkpt lat="45.9314" lon="4.7275">
        <ele>170</ele>
        <time>2017-06-22T09:57:47Z</time>
      </trkpt>
      <trkpt lat="45.93135" lon="4.72754">
        <ele>171</ele>
        <time>2017-06-22T09:57:48Z</time>
      </trkpt>
      <trkpt lat="45.93131" lon="4.72759">
        <ele>171</ele>
        <time>2017-06-22T09:57:49Z</time>
      </trkpt>
      <trkpt lat="45.93127" lon="4.72763">
        <ele>171</ele>
        <time>2017-06-22T09:57:50Z</time>
      </trkpt>
      <trkpt lat="45.93123" lon="4.72768">
        <ele>171</ele>
        <time>2017-06-22T09:57:51Z</time>
      </trkpt>
      <trkpt lat="45.93119" lon="4.72773">
        <ele>171</ele>
        <time>2017-06-22T09:57:52Z</time>
      </trkpt>
      <trkpt lat="45.93116" lon="4.72778">
        <ele>171</ele>
        <time>2017-06-22T09:57:53Z</time>
      </trkpt>
      <trkpt lat="45.93112" lon="4.72782">
        <ele>171</ele>
        <time>2017-06-22T09:57:54Z</time>
      </trkpt>
      <trkpt lat="45.93109" lon="4.72787">
        <ele>171</ele>
        <time>2017-06-22T09:57:55Z</time>
      </trkpt>
      <trkpt lat="45.93105" lon="4.72792">
        <ele>171</ele>
        <time>2017-06-22T09:57:56Z</time>
      </trkpt>
      <trkpt lat="45.93102" lon="4.72797">
        <ele>171</ele>
        <time>2017-06-22T09:57:57Z</time>
      </trkpt>
      <trkpt lat="45.93098" lon="4.72801">
        <ele>171</ele>
        <time>2017-06-22T09:57:58Z</time>
      </trkpt>
      <trkpt lat="45.93094" lon="4.72806">
        <ele>172</ele>
        <time>2017-06-22T09:57:59Z</time>
      </trkpt>
      <trkpt lat="45.9309" lon="4.7281">
        <ele>172</ele>
        <time>2017-06-22T09:58:00Z</time>
      </trkpt>
      <trkpt lat="45.93085" lon="4.72813">
        <ele>172</ele>
        <time>2017-06-22T09:58:01Z</time>
      </trkpt>
      <trkpt lat="45.93081" lon="4.72816">
        <ele>172</ele>
        <time>2017-06-22T09:58:02Z</time>
      </trkpt>
      <trkpt lat="45.93077" lon="4.7282">
        <ele>173</ele>
        <time>2017-06-22T09:58:03Z</time>
      </trkpt>
      <trkpt lat="45.93073" lon="4.72823">
        <ele>173</ele>
        <time>2017-06-22T09:58:04Z</time>
      </trkpt>
      <trkpt lat="45.93069" lon="4.72827">
        <ele>173</ele>
        <time>2017-06-22T09:58:05Z</time>
      </trkpt>
      <trkpt lat="45.93062" lon="4.72833">
        <ele>173</ele>
        <time>2017-06-22T09:58:07Z</time>
      </trkpt>
      <trkpt lat="45.93058" lon="4.7284">
        <ele>172</ele>
        <time>2017-06-22T09:58:08Z</time>
      </trkpt>
      <trkpt lat="45.93054" lon="4.72846">
        <ele>172</ele>
        <time>2017-06-22T09:58:10Z</time>
      </trkpt>
      <trkpt lat="45.9305" lon="4.7285">
        <ele>172</ele>
        <time>2017-06-22T09:58:11Z</time>
      </trkpt>
      <trkpt lat="45.93044" lon="4.72855">
        <ele>172</ele>
        <time>2017-06-22T09:58:12Z</time>
      </trkpt>
      <trkpt lat="45.93039" lon="4.72861">
        <ele>172</ele>
        <time>2017-06-22T09:58:13Z</time>
      </trkpt>
      <trkpt lat="45.93034" lon="4.72867">
        <ele>172</ele>
        <time>2017-06-22T09:58:14Z</time>
      </trkpt>
      <trkpt lat="45.93029" lon="4.72874">
        <ele>172</ele>
        <time>2017-06-22T09:58:15Z</time>
      </trkpt>
      <trkpt lat="45.93024" lon="4.72881">
        <ele>172</ele>
        <time>2017-06-22T09:58:16Z</time>
      </trkpt>
      <trkpt lat="45.93019" lon="4.72888">
        <ele>172</ele>
        <time>2017-06-22T09:58:17Z</time>
      </trkpt>
      <trkpt lat="45.93014" lon="4.72894">
        <ele>172</ele>
        <time>2017-06-22T09:58:18Z</time>
      </trkpt>
      <trkpt lat="45.93009" lon="4.729">
        <ele>172</ele>
        <time>2017-06-22T09:58:19Z</time>
      </trkpt>
      <trkpt lat="45.93005" lon="4.72906">
        <ele>171</ele>
        <time>2017-06-22T09:58:20Z</time>
      </trkpt>
      <trkpt lat="45.93001" lon="4.72911">
        <ele>171</ele>
        <time>2017-06-22T09:58:21Z</time>
      </trkpt>
      <trkpt lat="45.92997" lon="4.72916">
        <ele>171</ele>
        <time>2017-06-22T09:58:22Z</time>
      </trkpt>
      <trkpt lat="45.92993" lon="4.72921">
        <ele>171</ele>
        <time>2017-06-22T09:58:23Z</time>
      </trkpt>
      <trkpt lat="45.92989" lon="4.72926">
        <ele>171</ele>
        <time>2017-06-22T09:58:24Z</time>
      </trkpt>
      <trkpt lat="45.92985" lon="4.72931">
        <ele>171</ele>
        <time>2017-06-22T09:58:25Z</time>
      </trkpt>
      <trkpt lat="45.92981" lon="4.72936">
        <ele>171</ele>
        <time>2017-06-22T09:58:26Z</time>
      </trkpt>
      <trkpt lat="45.92977" lon="4.72941">
        <ele>171</ele>
        <time>2017-06-22T09:58:27Z</time>
      </trkpt>
      <trkpt lat="45.92973" lon="4.72946">
        <ele>171</ele>
        <time>2017-06-22T09:58:28Z</time>
      </trkpt>
      <trkpt lat="45.92969" lon="4.7295">
        <ele>171</ele>
        <time>2017-06-22T09:58:29Z</time>
      </trkpt>
      <trkpt lat="45.92966" lon="4.72955">
        <ele>171</ele>
        <time>2017-06-22T09:58:30Z</time>
      </trkpt>
      <trkpt lat="45.92962" lon="4.7296">
        <ele>171</ele>
        <time>2017-06-22T09:58:31Z</time>
      </trkpt>
      <trkpt lat="45.92958" lon="4.72965">
        <ele>171</ele>
        <time>2017-06-22T09:58:32Z</time>
      </trkpt>
      <trkpt lat="45.92954" lon="4.7297">
        <ele>171</ele>
        <time>2017-06-22T09:58:33Z</time>
      </trkpt>
      <trkpt lat="45.9295" lon="4.72976">
        <ele>171</ele>
        <time>2017-06-22T09:58:34Z</time>
      </trkpt>
      <trkpt lat="45.92946" lon="4.7298">
        <ele>171</ele>
        <time>2017-06-22T09:58:35Z</time>
      </trkpt>
      <trkpt lat="45.92942" lon="4.72985">
        <ele>171</ele>
        <time>2017-06-22T09:58:36Z</time>
      </trkpt>
      <trkpt lat="45.92938" lon="4.7299">
        <ele>171</ele>
        <time>2017-06-22T09:58:37Z</time>
      </trkpt>
      <trkpt lat="45.92934" lon="4.72994">
        <ele>172</ele>
        <time>2017-06-22T09:58:38Z</time>
      </trkpt>
      <trkpt lat="45.92931" lon="4.72999">
        <ele>172</ele>
        <time>2017-06-22T09:58:39Z</time>
      </trkpt>
      <trkpt lat="45.92927" lon="4.73004">
        <ele>172</ele>
        <time>2017-06-22T09:58:40Z</time>
      </trkpt>
      <trkpt lat="45.92923" lon="4.73008">
        <ele>172</ele>
        <time>2017-06-22T09:58:41Z</time>
      </trkpt>
      <trkpt lat="45.9292" lon="4.73013">
        <ele>172</ele>
        <time>2017-06-22T09:58:42Z</time>
      </trkpt>
      <trkpt lat="45.92916" lon="4.73017">
        <ele>172</ele>
        <time>2017-06-22T09:58:43Z</time>
      </trkpt>
      <trkpt lat="45.92912" lon="4.73021">
        <ele>172</ele>
        <time>2017-06-22T09:58:44Z</time>
      </trkpt>
      <trkpt lat="45.92909" lon="4.73026">
        <ele>172</ele>
        <time>2017-06-22T09:58:45Z</time>
      </trkpt>
      <trkpt lat="45.92905" lon="4.7303">
        <ele>172</ele>
        <time>2017-06-22T09:58:46Z</time>
      </trkpt>
      <trkpt lat="45.92901" lon="4.73035">
        <ele>172</ele>
        <time>2017-06-22T09:58:47Z</time>
      </trkpt>
      <trkpt lat="45.92898" lon="4.7304">
        <ele>172</ele>
        <time>2017-06-22T09:58:48Z</time>
      </trkpt>
      <trkpt lat="45.92895" lon="4.73045">
        <ele>172</ele>
        <time>2017-06-22T09:58:49Z</time>
      </trkpt>
      <trkpt lat="45.92892" lon="4.7305">
        <ele>172</ele>
        <time>2017-06-22T09:58:50Z</time>
      </trkpt>
      <trkpt lat="45.92888" lon="4.73055">
        <ele>172</ele>
        <time>2017-06-22T09:58:51Z</time>
      </trkpt>
      <trkpt lat="45.92885" lon="4.7306">
        <ele>172</ele>
        <time>2017-06-22T09:58:52Z</time>
      </trkpt>
      <trkpt lat="45.92881" lon="4.73065">
        <ele>172</ele>
        <time>2017-06-22T09:58:53Z</time>
      </trkpt>
      <trkpt lat="45.92878" lon="4.7307">
        <ele>172</ele>
        <time>2017-06-22T09:58:54Z</time>
      </trkpt>
      <trkpt lat="45.92874" lon="4.73074">
        <ele>172</ele>
        <time>2017-06-22T09:58:55Z</time>
      </trkpt>
      <trkpt lat="45.92871" lon="4.73079">
        <ele>172</ele>
        <time>2017-06-22T09:58:56Z</time>
      </trkpt>
      <trkpt lat="45.92867" lon="4.73084">
        <ele>172</ele>
        <time>2017-06-22T09:58:57Z</time>
      </trkpt>
      <trkpt lat="45.92863" lon="4.7309">
        <ele>171</ele>
        <time>2017-06-22T09:58:58Z</time>
      </trkpt>
      <trkpt lat="45.9286" lon="4.73095">
        <ele>171</ele>
        <time>2017-06-22T09:58:59Z</time>
      </trkpt>
      <trkpt lat="45.92853" lon="4.73102">
        <ele>171</ele>
        <time>2017-06-22T09:59:01Z</time>
      </trkpt>
      <trkpt lat="45.9285" lon="4.73103">
        <ele>171</ele>
        <time>2017-06-22T09:59:02Z</time>
      </trkpt>
      <trkpt lat="45.92846" lon="4.73096">
        <ele>171</ele>
        <time>2017-06-22T09:59:04Z</time>
      </trkpt>
      <trkpt lat="45.92845" lon="4.73089">
        <ele>171</ele>
        <time>2017-06-22T09:59:05Z</time>
      </trkpt>
      <trkpt lat="45.92844" lon="4.73083">
        <ele>171</ele>
        <time>2017-06-22T09:59:06Z</time>
      </trkpt>
      <trkpt lat="45.92843" lon="4.73076">
        <ele>171</ele>
        <time>2017-06-22T09:59:07Z</time>
      </trkpt>
      <trkpt lat="45.92842" lon="4.73068">
        <ele>171</ele>
        <time>2017-06-22T09:59:08Z</time>
      </trkpt>
      <trkpt lat="45.92841" lon="4.7306">
        <ele>171</ele>
        <time>2017-06-22T09:59:09Z</time>
      </trkpt>
      <trkpt lat="45.92839" lon="4.73052">
        <ele>171</ele>
        <time>2017-06-22T09:59:10Z</time>
      </trkpt>
      <trkpt lat="45.92837" lon="4.73044">
        <ele>171</ele>
        <time>2017-06-22T09:59:11Z</time>
      </trkpt>
      <trkpt lat="45.92836" lon="4.73035">
        <ele>171</ele>
        <time>2017-06-22T09:59:12Z</time>
      </trkpt>
      <trkpt lat="45.92834" lon="4.73027">
        <ele>171</ele>
        <time>2017-06-22T09:59:13Z</time>
      </trkpt>
      <trkpt lat="45.92833" lon="4.73019">
        <ele>170</ele>
        <time>2017-06-22T09:59:14Z</time>
      </trkpt>
      <trkpt lat="45.92832" lon="4.73011">
        <ele>170</ele>
        <time>2017-06-22T09:59:15Z</time>
      </trkpt>
      <trkpt lat="45.9283" lon="4.73003">
        <ele>170</ele>
        <time>2017-06-22T09:59:16Z</time>
      </trkpt>
      <trkpt lat="45.92829" lon="4.72996">
        <ele>170</ele>
        <time>2017-06-22T09:59:17Z</time>
      </trkpt>
      <trkpt lat="45.92828" lon="4.72988">
        <ele>170</ele>
        <time>2017-06-22T09:59:18Z</time>
      </trkpt>
      <trkpt lat="45.92827" lon="4.72981">
        <ele>170</ele>
        <time>2017-06-22T09:59:19Z</time>
      </trkpt>
      <trkpt lat="45.92827" lon="4.72974">
        <ele>170</ele>
        <time>2017-06-22T09:59:20Z</time>
      </trkpt>
      <trkpt lat="45.92826" lon="4.72967">
        <ele>170</ele>
        <time>2017-06-22T09:59:21Z</time>
      </trkpt>
      <trkpt lat="45.92826" lon="4.7296">
        <ele>170</ele>
        <time>2017-06-22T09:59:22Z</time>
      </trkpt>
      <trkpt lat="45.92826" lon="4.72954">
        <ele>170</ele>
        <time>2017-06-22T09:59:23Z</time>
      </trkpt>
      <trkpt lat="45.92825" lon="4.72947">
        <ele>170</ele>
        <time>2017-06-22T09:59:24Z</time>
      </trkpt>
      <trkpt lat="45.92824" lon="4.7294">
        <ele>170</ele>
        <time>2017-06-22T09:59:25Z</time>
      </trkpt>
      <trkpt lat="45.92824" lon="4.72933">
        <ele>170</ele>
        <time>2017-06-22T09:59:26Z</time>
      </trkpt>
      <trkpt lat="45.92823" lon="4.72926">
        <ele>170</ele>
        <time>2017-06-22T09:59:27Z</time>
      </trkpt>
      <trkpt lat="45.92822" lon="4.7292">
        <ele>170</ele>
        <time>2017-06-22T09:59:28Z</time>
      </trkpt>
      <trkpt lat="45.92822" lon="4.72913">
        <ele>170</ele>
        <time>2017-06-22T09:59:29Z</time>
      </trkpt>
      <trkpt lat="45.92821" lon="4.72906">
        <ele>170</ele>
        <time>2017-06-22T09:59:30Z</time>
      </trkpt>
      <trkpt lat="45.9282" lon="4.729">
        <ele>170</ele>
        <time>2017-06-22T09:59:31Z</time>
      </trkpt>
      <trkpt lat="45.92819" lon="4.72893">
        <ele>170</ele>
        <time>2017-06-22T09:59:32Z</time>
      </trkpt>
      <trkpt lat="45.92818" lon="4.72886">
        <ele>170</ele>
        <time>2017-06-22T09:59:33Z</time>
      </trkpt>
      <trkpt lat="45.92816" lon="4.72878">
        <ele>170</ele>
        <time>2017-06-22T09:59:34Z</time>
      </trkpt>
      <trkpt lat="45.92815" lon="4.72871">
        <ele>170</ele>
        <time>2017-06-22T09:59:35Z</time>
      </trkpt>
      <trkpt lat="45.92813" lon="4.72864">
        <ele>170</ele>
        <time>2017-06-22T09:59:36Z</time>
      </trkpt>
      <trkpt lat="45.92812" lon="4.72857">
        <ele>170</ele>
        <time>2017-06-22T09:59:37Z</time>
      </trkpt>
      <trkpt lat="45.9281" lon="4.7285">
        <ele>170</ele>
        <time>2017-06-22T09:59:38Z</time>
      </trkpt>
      <trkpt lat="45.92809" lon="4.72844">
        <ele>170</ele>
        <time>2017-06-22T09:59:39Z</time>
      </trkpt>
      <trkpt lat="45.92807" lon="4.72831">
        <ele>171</ele>
        <time>2017-06-22T09:59:41Z</time>
      </trkpt>
      <trkpt lat="45.92806" lon="4.72825">
        <ele>171</ele>
        <time>2017-06-22T09:59:42Z</time>
      </trkpt>
      <trkpt lat="45.92805" lon="4.72812">
        <ele>171</ele>
        <time>2017-06-22T09:59:44Z</time>
      </trkpt>
      <trkpt lat="45.92804" lon="4.72806">
        <ele>171</ele>
        <time>2017-06-22T09:59:45Z</time>
      </trkpt>
      <trkpt lat="45.92802" lon="4.72795">
        <ele>171</ele>
        <time>2017-06-22T09:59:47Z</time>
      </trkpt>
      <trkpt lat="45.928" lon="4.72791">
        <ele>171</ele>
        <time>2017-06-22T09:59:48Z</time>
      </trkpt>
      <trkpt lat="45.92795" lon="4.72785">
        <ele>171</ele>
        <time>2017-06-22T09:59:50Z</time>
      </trkpt>
      <trkpt lat="45.92792" lon="4.72786">
        <ele>171</ele>
        <time>2017-06-22T09:59:51Z</time>
      </trkpt>
      <trkpt lat="45.92783" lon="4.72789">
        <ele>170</ele>
        <time>2017-06-22T09:59:53Z</time>
      </trkpt>
      <trkpt lat="45.92779" lon="4.72793">
        <ele>170</ele>
        <time>2017-06-22T09:59:54Z</time>
      </trkpt>
      <trkpt lat="45.92775" lon="4.72797">
        <ele>170</ele>
        <time>2017-06-22T09:59:55Z</time>
      </trkpt>
      <trkpt lat="45.92771" lon="4.72801">
        <ele>170</ele>
        <time>2017-06-22T09:59:56Z</time>
      </trkpt>
      <trkpt lat="45.92766" lon="4.72804">
        <ele>170</ele>
        <time>2017-06-22T09:59:57Z</time>
      </trkpt>
      <trkpt lat="45.92761" lon="4.72809">
        <ele>170</ele>
        <time>2017-06-22T09:59:58Z</time>
      </trkpt>
      <trkpt lat="45.92756" lon="4.72814">
        <ele>170</ele>
        <time>2017-06-22T09:59:59Z</time>
      </trkpt>
      <trkpt lat="45.92751" lon="4.72819">
        <ele>170</ele>
        <time>2017-06-22T10:00:00Z</time>
      </trkpt>
      <trkpt lat="45.92746" lon="4.72823">
        <ele>169</ele>
        <time>2017-06-22T10:00:01Z</time>
      </trkpt>
      <trkpt lat="45.92741" lon="4.72827">
        <ele>169</ele>
        <time>2017-06-22T10:00:02Z</time>
      </trkpt>
      <trkpt lat="45.92737" lon="4.7283">
        <ele>169</ele>
        <time>2017-06-22T10:00:03Z</time>
      </trkpt>
      <trkpt lat="45.92733" lon="4.72834">
        <ele>169</ele>
        <time>2017-06-22T10:00:04Z</time>
      </trkpt>
      <trkpt lat="45.92729" lon="4.72838">
        <ele>169</ele>
        <time>2017-06-22T10:00:05Z</time>
      </trkpt>
      <trkpt lat="45.92724" lon="4.72841">
        <ele>169</ele>
        <time>2017-06-22T10:00:06Z</time>
      </trkpt>
      <trkpt lat="45.9272" lon="4.72845">
        <ele>169</ele>
        <time>2017-06-22T10:00:07Z</time>
      </trkpt>
      <trkpt lat="45.92716" lon="4.72849">
        <ele>169</ele>
        <time>2017-06-22T10:00:08Z</time>
      </trkpt>
      <trkpt lat="45.92711" lon="4.72853">
        <ele>169</ele>
        <time>2017-06-22T10:00:09Z</time>
      </trkpt>
      <trkpt lat="45.92706" lon="4.72856">
        <ele>169</ele>
        <time>2017-06-22T10:00:10Z</time>
      </trkpt>
      <trkpt lat="45.92702" lon="4.72858">
        <ele>169</ele>
        <time>2017-06-22T10:00:11Z</time>
      </trkpt>
      <trkpt lat="45.92697" lon="4.72862">
        <ele>169</ele>
        <time>2017-06-22T10:00:12Z</time>
      </trkpt>
      <trkpt lat="45.92692" lon="4.72866">
        <ele>169</ele>
        <time>2017-06-22T10:00:13Z</time>
      </trkpt>
      <trkpt lat="45.92688" lon="4.7287">
        <ele>169</ele>
        <time>2017-06-22T10:00:14Z</time>
      </trkpt>
      <trkpt lat="45.92683" lon="4.72873">
        <ele>169</ele>
        <time>2017-06-22T10:00:15Z</time>
      </trkpt>
      <trkpt lat="45.92679" lon="4.72877">
        <ele>170</ele>
        <time>2017-06-22T10:00:16Z</time>
      </trkpt>
      <trkpt lat="45.92674" lon="4.72881">
        <ele>170</ele>
        <time>2017-06-22T10:00:17Z</time>
      </trkpt>
      <trkpt lat="45.9267" lon="4.72884">
        <ele>170</ele>
        <time>2017-06-22T10:00:18Z</time>
      </trkpt>
      <trkpt lat="45.92666" lon="4.72887">
        <ele>169</ele>
        <time>2017-06-22T10:00:19Z</time>
      </trkpt>
      <trkpt lat="45.92662" lon="4.72891">
        <ele>169</ele>
        <time>2017-06-22T10:00:20Z</time>
      </trkpt>
      <trkpt lat="45.92657" lon="4.72894">
        <ele>170</ele>
        <time>2017-06-22T10:00:21Z</time>
      </trkpt>
      <trkpt lat="45.92652" lon="4.72898">
        <ele>170</ele>
        <time>2017-06-22T10:00:22Z</time>
      </trkpt>
      <trkpt lat="45.92648" lon="4.72901">
        <ele>170</ele>
        <time>2017-06-22T10:00:23Z</time>
      </trkpt>
      <trkpt lat="45.92643" lon="4.72905">
        <ele>169</ele>
        <time>2017-06-22T10:00:24Z</time>
      </trkpt>
      <trkpt lat="45.92638" lon="4.72908">
        <ele>169</ele>
        <time>2017-06-22T10:00:25Z</time>
      </trkpt>
      <trkpt lat="45.92634" lon="4.72912">
        <ele>169</ele>
        <time>2017-06-22T10:00:26Z</time>
      </trkpt>
      <trkpt lat="45.92629" lon="4.72915">
        <ele>169</ele>
        <time>2017-06-22T10:00:27Z</time>
      </trkpt>
      <trkpt lat="45.92625" lon="4.72918">
        <ele>170</ele>
        <time>2017-06-22T10:00:28Z</time>
      </trkpt>
      <trkpt lat="45.92621" lon="4.72922">
        <ele>169</ele>
        <time>2017-06-22T10:00:29Z</time>
      </trkpt>
      <trkpt lat="45.92616" lon="4.72926">
        <ele>169</ele>
        <time>2017-06-22T10:00:30Z</time>
      </trkpt>
      <trkpt lat="45.92612" lon="4.7293">
        <ele>169</ele>
        <time>2017-06-22T10:00:31Z</time>
      </trkpt>
      <trkpt lat="45.92608" lon="4.72933">
        <ele>169</ele>
        <time>2017-06-22T10:00:32Z</time>
      </trkpt>
      <trkpt lat="45.92605" lon="4.72937">
        <ele>169</ele>
        <time>2017-06-22T10:00:33Z</time>
      </trkpt>
      <trkpt lat="45.926" lon="4.72941">
        <ele>169</ele>
        <time>2017-06-22T10:00:34Z</time>
      </trkpt>
      <trkpt lat="45.92596" lon="4.72945">
        <ele>169</ele>
        <time>2017-06-22T10:00:35Z</time>
      </trkpt>
      <trkpt lat="45.92592" lon="4.72949">
        <ele>169</ele>
        <time>2017-06-22T10:00:36Z</time>
      </trkpt>
      <trkpt lat="45.92588" lon="4.72954">
        <ele>169</ele>
        <time>2017-06-22T10:00:37Z</time>
      </trkpt>
      <trkpt lat="45.92584" lon="4.72958">
        <ele>169</ele>
        <time>2017-06-22T10:00:38Z</time>
      </trkpt>
      <trkpt lat="45.92581" lon="4.72963">
        <ele>169</ele>
        <time>2017-06-22T10:00:39Z</time>
      </trkpt>
      <trkpt lat="45.92578" lon="4.72968">
        <ele>169</ele>
        <time>2017-06-22T10:00:40Z</time>
      </trkpt>
      <trkpt lat="45.92574" lon="4.72972">
        <ele>169</ele>
        <time>2017-06-22T10:00:41Z</time>
      </trkpt>
      <trkpt lat="45.9257" lon="4.72976">
        <ele>169</ele>
        <time>2017-06-22T10:00:42Z</time>
      </trkpt>
      <trkpt lat="45.92566" lon="4.7298">
        <ele>169</ele>
        <time>2017-06-22T10:00:43Z</time>
      </trkpt>
      <trkpt lat="45.92562" lon="4.72983">
        <ele>169</ele>
        <time>2017-06-22T10:00:44Z</time>
      </trkpt>
      <trkpt lat="45.92557" lon="4.72988">
        <ele>169</ele>
        <time>2017-06-22T10:00:45Z</time>
      </trkpt>
      <trkpt lat="45.92552" lon="4.72992">
        <ele>169</ele>
        <time>2017-06-22T10:00:46Z</time>
      </trkpt>
      <trkpt lat="45.92548" lon="4.72996">
        <ele>169</ele>
        <time>2017-06-22T10:00:47Z</time>
      </trkpt>
      <trkpt lat="45.92543" lon="4.73001">
        <ele>169</ele>
        <time>2017-06-22T10:00:48Z</time>
      </trkpt>
      <trkpt lat="45.92538" lon="4.73006">
        <ele>169</ele>
        <time>2017-06-22T10:00:49Z</time>
      </trkpt>
      <trkpt lat="45.92533" lon="4.73011">
        <ele>169</ele>
        <time>2017-06-22T10:00:50Z</time>
      </trkpt>
      <trkpt lat="45.92528" lon="4.73016">
        <ele>169</ele>
        <time>2017-06-22T10:00:51Z</time>
      </trkpt>
      <trkpt lat="45.92523" lon="4.7302">
        <ele>169</ele>
        <time>2017-06-22T10:00:52Z</time>
      </trkpt>
      <trkpt lat="45.92518" lon="4.73025">
        <ele>169</ele>
        <time>2017-06-22T10:00:53Z</time>
      </trkpt>
      <trkpt lat="45.92513" lon="4.73029">
        <ele>169</ele>
        <time>2017-06-22T10:00:54Z</time>
      </trkpt>
      <trkpt lat="45.92508" lon="4.73033">
        <ele>169</ele>
        <time>2017-06-22T10:00:55Z</time>
      </trkpt>
      <trkpt lat="45.92504" lon="4.73037">
        <ele>169</ele>
        <time>2017-06-22T10:00:56Z</time>
      </trkpt>
      <trkpt lat="45.925" lon="4.73041">
        <ele>170</ele>
        <time>2017-06-22T10:00:57Z</time>
      </trkpt>
      <trkpt lat="45.92496" lon="4.73045">
        <ele>170</ele>
        <time>2017-06-22T10:00:58Z</time>
      </trkpt>
      <trkpt lat="45.92491" lon="4.73049">
        <ele>170</ele>
        <time>2017-06-22T10:00:59Z</time>
      </trkpt>
      <trkpt lat="45.92487" lon="4.73053">
        <ele>170</ele>
        <time>2017-06-22T10:01:00Z</time>
      </trkpt>
      <trkpt lat="45.92483" lon="4.73057">
        <ele>170</ele>
        <time>2017-06-22T10:01:01Z</time>
      </trkpt>
      <trkpt lat="45.92479" lon="4.73061">
        <ele>170</ele>
        <time>2017-06-22T10:01:02Z</time>
      </trkpt>
      <trkpt lat="45.92475" lon="4.73064">
        <ele>170</ele>
        <time>2017-06-22T10:01:03Z</time>
      </trkpt>
      <trkpt lat="45.9247" lon="4.73068">
        <ele>170</ele>
        <time>2017-06-22T10:01:04Z</time>
      </trkpt>
      <trkpt lat="45.92466" lon="4.73072">
        <ele>170</ele>
        <time>2017-06-22T10:01:05Z</time>
      </trkpt>
      <trkpt lat="45.92461" lon="4.73075">
        <ele>170</ele>
        <time>2017-06-22T10:01:06Z</time>
      </trkpt>
      <trkpt lat="45.92457" lon="4.73079">
        <ele>170</ele>
        <time>2017-06-22T10:01:07Z</time>
      </trkpt>
      <trkpt lat="45.92453" lon="4.73083">
        <ele>170</ele>
        <time>2017-06-22T10:01:08Z</time>
      </trkpt>
      <trkpt lat="45.92449" lon="4.73086">
        <ele>170</ele>
        <time>2017-06-22T10:01:09Z</time>
      </trkpt>
      <trkpt lat="45.92445" lon="4.73089">
        <ele>170</ele>
        <time>2017-06-22T10:01:10Z</time>
      </trkpt>
      <trkpt lat="45.92441" lon="4.73092">
        <ele>170</ele>
        <time>2017-06-22T10:01:11Z</time>
      </trkpt>
      <trkpt lat="45.92437" lon="4.73096">
        <ele>171</ele>
        <time>2017-06-22T10:01:12Z</time>
      </trkpt>
      <trkpt lat="45.92429" lon="4.73102">
        <ele>171</ele>
        <time>2017-06-22T10:01:14Z</time>
      </trkpt>
      <trkpt lat="45.92425" lon="4.73105">
        <ele>171</ele>
        <time>2017-06-22T10:01:15Z</time>
      </trkpt>
      <trkpt lat="45.92421" lon="4.73109">
        <ele>170</ele>
        <time>2017-06-22T10:01:16Z</time>
      </trkpt>
      <trkpt lat="45.92417" lon="4.73112">
        <ele>171</ele>
        <time>2017-06-22T10:01:17Z</time>
      </trkpt>
      <trkpt lat="45.92413" lon="4.73117">
        <ele>171</ele>
        <time>2017-06-22T10:01:18Z</time>
      </trkpt>
      <trkpt lat="45.9241" lon="4.73122">
        <ele>171</ele>
        <time>2017-06-22T10:01:19Z</time>
      </trkpt>
      <trkpt lat="45.92407" lon="4.73134">
        <ele>171</ele>
        <time>2017-06-22T10:01:21Z</time>
      </trkpt>
      <trkpt lat="45.92407" lon="4.73141">
        <ele>171</ele>
        <time>2017-06-22T10:01:22Z</time>
      </trkpt>
      <trkpt lat="45.92407" lon="4.73147">
        <ele>171</ele>
        <time>2017-06-22T10:01:23Z</time>
      </trkpt>
      <trkpt lat="45.92407" lon="4.73154">
        <ele>171</ele>
        <time>2017-06-22T10:01:24Z</time>
      </trkpt>
      <trkpt lat="45.92408" lon="4.73166">
        <ele>170</ele>
        <time>2017-06-22T10:01:26Z</time>
      </trkpt>
      <trkpt lat="45.92408" lon="4.73172">
        <ele>170</ele>
        <time>2017-06-22T10:01:27Z</time>
      </trkpt>
      <trkpt lat="45.92408" lon="4.73179">
        <ele>171</ele>
        <time>2017-06-22T10:01:28Z</time>
      </trkpt>
      <trkpt lat="45.92408" lon="4.73186">
        <ele>171</ele>
        <time>2017-06-22T10:01:29Z</time>
      </trkpt>
      <trkpt lat="45.92408" lon="4.73192">
        <ele>171</ele>
        <time>2017-06-22T10:01:30Z</time>
      </trkpt>
      <trkpt lat="45.92408" lon="4.73199">
        <ele>171</ele>
        <time>2017-06-22T10:01:31Z</time>
      </trkpt>
      <trkpt lat="45.92409" lon="4.73206">
        <ele>171</ele>
        <time>2017-06-22T10:01:32Z</time>
      </trkpt>
      <trkpt lat="45.92409" lon="4.73213">
        <ele>171</ele>
        <time>2017-06-22T10:01:33Z</time>
      </trkpt>
      <trkpt lat="45.9241" lon="4.7322">
        <ele>171</ele>
        <time>2017-06-22T10:01:34Z</time>
      </trkpt>
      <trkpt lat="45.92411" lon="4.73227">
        <ele>171</ele>
        <time>2017-06-22T10:01:35Z</time>
      </trkpt>
      <trkpt lat="45.92411" lon="4.73233">
        <ele>171</ele>
        <time>2017-06-22T10:01:36Z</time>
      </trkpt>
      <trkpt lat="45.92411" lon="4.7324">
        <ele>171</ele>
        <time>2017-06-22T10:01:37Z</time>
      </trkpt>
      <trkpt lat="45.92411" lon="4.73247">
        <ele>171</ele>
        <time>2017-06-22T10:01:38Z</time>
      </trkpt>
      <trkpt lat="45.92411" lon="4.73253">
        <ele>171</ele>
        <time>2017-06-22T10:01:39Z</time>
      </trkpt>
      <trkpt lat="45.92412" lon="4.7326">
        <ele>171</ele>
        <time>2017-06-22T10:01:40Z</time>
      </trkpt>
      <trkpt lat="45.92412" lon="4.73267">
        <ele>171</ele>
        <time>2017-06-22T10:01:41Z</time>
      </trkpt>
      <trkpt lat="45.92413" lon="4.73274">
        <ele>171</ele>
        <time>2017-06-22T10:01:42Z</time>
      </trkpt>
      <trkpt lat="45.92414" lon="4.73282">
        <ele>171</ele>
        <time>2017-06-22T10:01:43Z</time>
      </trkpt>
      <trkpt lat="45.92414" lon="4.7329">
        <ele>171</ele>
        <time>2017-06-22T10:01:44Z</time>
      </trkpt>
      <trkpt lat="45.92415" lon="4.73297">
        <ele>171</ele>
        <time>2017-06-22T10:01:45Z</time>
      </trkpt>
      <trkpt lat="45.92415" lon="4.73305">
        <ele>171</ele>
        <time>2017-06-22T10:01:46Z</time>
      </trkpt>
      <trkpt lat="45.92415" lon="4.73312">
        <ele>171</ele>
        <time>2017-06-22T10:01:47Z</time>
      </trkpt>
      <trkpt lat="45.92415" lon="4.73319">
        <ele>171</ele>
        <time>2017-06-22T10:01:48Z</time>
      </trkpt>
      <trkpt lat="45.92416" lon="4.73325">
        <ele>171</ele>
        <time>2017-06-22T10:01:49Z</time>
      </trkpt>
      <trkpt lat="45.92417" lon="4.73332">
        <ele>171</ele>
        <time>2017-06-22T10:01:50Z</time>
      </trkpt>
      <trkpt lat="45.92418" lon="4.73339">
        <ele>171</ele>
        <time>2017-06-22T10:01:51Z</time>
      </trkpt>
      <trkpt lat="45.92419" lon="4.73346">
        <ele>171</ele>
        <time>2017-06-22T10:01:52Z</time>
      </trkpt>
      <trkpt lat="45.9242" lon="4.73353">
        <ele>171</ele>
        <time>2017-06-22T10:01:53Z</time>
      </trkpt>
      <trkpt lat="45.92421" lon="4.73361">
        <ele>172</ele>
        <time>2017-06-22T10:01:54Z</time>
      </trkpt>
      <trkpt lat="45.92423" lon="4.73368">
        <ele>172</ele>
        <time>2017-06-22T10:01:55Z</time>
      </trkpt>
      <trkpt lat="45.92424" lon="4.73375">
        <ele>172</ele>
        <time>2017-06-22T10:01:56Z</time>
      </trkpt>
      <trkpt lat="45.92425" lon="4.73382">
        <ele>172</ele>
        <time>2017-06-22T10:01:57Z</time>
      </trkpt>
      <trkpt lat="45.92427" lon="4.73389">
        <ele>172</ele>
        <time>2017-06-22T10:01:58Z</time>
      </trkpt>
      <trkpt lat="45.92429" lon="4.73395">
        <ele>172</ele>
        <time>2017-06-22T10:01:59Z</time>
      </trkpt>
      <trkpt lat="45.92431" lon="4.73401">
        <ele>172</ele>
        <time>2017-06-22T10:02:00Z</time>
      </trkpt>
      <trkpt lat="45.92434" lon="4.73406">
        <ele>172</ele>
        <time>2017-06-22T10:02:01Z</time>
      </trkpt>
      <trkpt lat="45.92438" lon="4.7341">
        <ele>172</ele>
        <time>2017-06-22T10:02:02Z</time>
      </trkpt>
      <trkpt lat="45.92442" lon="4.73414">
        <ele>172</ele>
        <time>2017-06-22T10:02:03Z</time>
      </trkpt>
      <trkpt lat="45.92446" lon="4.73418">
        <ele>173</ele>
        <time>2017-06-22T10:02:04Z</time>
      </trkpt>
      <trkpt lat="45.9245" lon="4.73421">
        <ele>173</ele>
        <time>2017-06-22T10:02:05Z</time>
      </trkpt>
      <trkpt lat="45.92454" lon="4.73424">
        <ele>173</ele>
        <time>2017-06-22T10:02:06Z</time>
      </trkpt>
      <trkpt lat="45.92458" lon="4.73429">
        <ele>173</ele>
        <time>2017-06-22T10:02:07Z</time>
      </trkpt>
      <trkpt lat="45.92462" lon="4.73433">
        <ele>173</ele>
        <time>2017-06-22T10:02:08Z</time>
      </trkpt>
      <trkpt lat="45.92465" lon="4.73439">
        <ele>173</ele>
        <time>2017-06-22T10:02:09Z</time>
      </trkpt>
      <trkpt lat="45.92467" lon="4.73445">
        <ele>173</ele>
        <time>2017-06-22T10:02:10Z</time>
      </trkpt>
      <trkpt lat="45.92469" lon="4.73451">
        <ele>173</ele>
        <time>2017-06-22T10:02:11Z</time>
      </trkpt>
      <trkpt lat="45.9247" lon="4.73464">
        <ele>173</ele>
        <time>2017-06-22T10:02:13Z</time>
      </trkpt>
      <trkpt lat="45.9247" lon="4.7347">
        <ele>173</ele>
        <time>2017-06-22T10:02:14Z</time>
      </trkpt>
      <trkpt lat="45.92471" lon="4.73481">
        <ele>173</ele>
        <time>2017-06-22T10:02:16Z</time>
      </trkpt>
      <trkpt lat="45.92471" lon="4.73488">
        <ele>173</ele>
        <time>2017-06-22T10:02:17Z</time>
      </trkpt>
      <trkpt lat="45.9247" lon="4.73496">
        <ele>173</ele>
        <time>2017-06-22T10:02:18Z</time>
      </trkpt>
      <trkpt lat="45.92469" lon="4.73503">
        <ele>174</ele>
        <time>2017-06-22T10:02:19Z</time>
      </trkpt>
      <trkpt lat="45.92468" lon="4.73511">
        <ele>174</ele>
        <time>2017-06-22T10:02:20Z</time>
      </trkpt>
      <trkpt lat="45.92468" lon="4.73519">
        <ele>174</ele>
        <time>2017-06-22T10:02:21Z</time>
      </trkpt>
      <trkpt lat="45.92468" lon="4.73526">
        <ele>174</ele>
        <time>2017-06-22T10:02:22Z</time>
      </trkpt>
      <trkpt lat="45.92469" lon="4.73533">
        <ele>174</ele>
        <time>2017-06-22T10:02:23Z</time>
      </trkpt>
      <trkpt lat="45.92469" lon="4.73545">
        <ele>173</ele>
        <time>2017-06-22T10:02:25Z</time>
      </trkpt>
      <trkpt lat="45.92469" lon="4.73552">
        <ele>173</ele>
        <time>2017-06-22T10:02:26Z</time>
      </trkpt>
      <trkpt lat="45.9247" lon="4.73559">
        <ele>173</ele>
        <time>2017-06-22T10:02:27Z</time>
      </trkpt>
      <trkpt lat="45.9247" lon="4.73567">
        <ele>173</ele>
        <time>2017-06-22T10:02:28Z</time>
      </trkpt>
      <trkpt lat="45.92471" lon="4.73574">
        <ele>173</ele>
        <time>2017-06-22T10:02:29Z</time>
      </trkpt>
      <trkpt lat="45.92471" lon="4.73582">
        <ele>173</ele>
        <time>2017-06-22T10:02:30Z</time>
      </trkpt>
      <trkpt lat="45.92471" lon="4.7359">
        <ele>174</ele>
        <time>2017-06-22T10:02:31Z</time>
      </trkpt>
      <trkpt lat="45.92471" lon="4.73598">
        <ele>174</ele>
        <time>2017-06-22T10:02:32Z</time>
      </trkpt>
      <trkpt lat="45.92471" lon="4.73606">
        <ele>174</ele>
        <time>2017-06-22T10:02:33Z</time>
      </trkpt>
      <trkpt lat="45.9247" lon="4.73615">
        <ele>174</ele>
        <time>2017-06-22T10:02:34Z</time>
      </trkpt>
      <trkpt lat="45.92471" lon="4.73623">
        <ele>174</ele>
        <time>2017-06-22T10:02:35Z</time>
      </trkpt>
      <trkpt lat="45.92471" lon="4.73631">
        <ele>174</ele>
        <time>2017-06-22T10:02:36Z</time>
      </trkpt>
      <trkpt lat="45.92472" lon="4.73639">
        <ele>174</ele>
        <time>2017-06-22T10:02:37Z</time>
      </trkpt>
      <trkpt lat="45.92472" lon="4.73646">
        <ele>174</ele>
        <time>2017-06-22T10:02:38Z</time>
      </trkpt>
      <trkpt lat="45.92472" lon="4.73653">
        <ele>174</ele>
        <time>2017-06-22T10:02:39Z</time>
      </trkpt>
      <trkpt lat="45.92472" lon="4.7366">
        <ele>174</ele>
        <time>2017-06-22T10:02:40Z</time>
      </trkpt>
      <trkpt lat="45.92472" lon="4.73673">
        <ele>174</ele>
        <time>2017-06-22T10:02:42Z</time>
      </trkpt>
      <trkpt lat="45.92471" lon="4.73679">
        <ele>174</ele>
        <time>2017-06-22T10:02:43Z</time>
      </trkpt>
      <trkpt lat="45.92469" lon="4.73691">
        <ele>174</ele>
        <time>2017-06-22T10:02:45Z</time>
      </trkpt>
      <trkpt lat="45.92468" lon="4.73695">
        <ele>174</ele>
        <time>2017-06-22T10:02:46Z</time>
      </trkpt>
      <trkpt lat="45.92464" lon="4.73705">
        <ele>174</ele>
        <time>2017-06-22T10:02:57Z</time>
      </trkpt>
      <trkpt lat="45.92464" lon="4.73706">
        <ele>174</ele>
        <time>2017-06-22T10:02:58Z</time>
      </trkpt>
      <trkpt lat="45.92464" lon="4.73706">
        <ele>174</ele>
        <time>2017-06-22T10:03:00Z</time>
      </trkpt>
      <trkpt lat="45.92463" lon="4.73706">
        <ele>174</ele>
        <time>2017-06-22T10:03:01Z</time>
      </trkpt>
      <trkpt lat="45.9246" lon="4.73707">
        <ele>174</ele>
        <time>2017-06-22T10:03:19.83Z</time>
      </trkpt>
    </trkseg>
  </trk>
</gpx>